<?xml version="1.0" encoding="UTF-8" standalone="no" ?>
<gpx xmlns="http://www.topografix.com/GPX/1/1" xmlns:xsi="http://www.w3.org/2001/XMLSchema-instance" xsi:schemaLocation="http://www.topografix.com/GPX/1/1 http://www.topografix.com/GPX/1/1/gpx.xsd" version="1.1" creator="VisuGPX - https://www.visugpx.com">
  <metadata>
    <name>O-SO-Brains D80 Moulin La Croix D103 L'hommeau Le Pré Berthelot Arthon Les Moutiers Fresnay St Meme Le Tenu Bouaye</name>
    <desc><![CDATA[O-SO-Brains D80 Moulin La Croix D103 L'hommeau Le Pré Berthelot Arthon Les Moutiers Fresnay St Meme Le Tenu Bouaye]]></desc>
  </metadata>
  <trk>
    <name><![CDATA[2020-12-29 12:17 +01:00]]></name>
    <trkseg>
      <trkpt lat="47.16781" lon="-1.62664">
        <ele>77</ele>
        <time>2020-12-29T11:17:06.000Z</time>
      </trkpt>
      <trkpt lat="47.16779" lon="-1.62652">
        <ele>70</ele>
        <time>2020-12-29T11:17:32.000Z</time>
      </trkpt>
      <trkpt lat="47.16779" lon="-1.6267">
        <ele>68</ele>
        <time>2020-12-29T11:18:28.000Z</time>
      </trkpt>
      <trkpt lat="47.16771" lon="-1.62678">
        <ele>68</ele>
        <time>2020-12-29T11:18:30.000Z</time>
      </trkpt>
      <trkpt lat="47.16761" lon="-1.62675">
        <ele>68</ele>
        <time>2020-12-29T11:18:32.000Z</time>
      </trkpt>
      <trkpt lat="47.1675" lon="-1.62671">
        <ele>68</ele>
        <time>2020-12-29T11:18:34.000Z</time>
      </trkpt>
      <trkpt lat="47.1674" lon="-1.62677">
        <ele>68</ele>
        <time>2020-12-29T11:18:36.000Z</time>
      </trkpt>
      <trkpt lat="47.1673" lon="-1.62684">
        <ele>68</ele>
        <time>2020-12-29T11:18:38.000Z</time>
      </trkpt>
      <trkpt lat="47.16721" lon="-1.62692">
        <ele>68</ele>
        <time>2020-12-29T11:18:40.000Z</time>
      </trkpt>
      <trkpt lat="47.16718" lon="-1.62705">
        <ele>67</ele>
        <time>2020-12-29T11:18:42.000Z</time>
      </trkpt>
      <trkpt lat="47.16725" lon="-1.62719">
        <ele>68</ele>
        <time>2020-12-29T11:18:44.000Z</time>
      </trkpt>
      <trkpt lat="47.16733" lon="-1.62732">
        <ele>68</ele>
        <time>2020-12-29T11:18:46.000Z</time>
      </trkpt>
      <trkpt lat="47.16742" lon="-1.62745">
        <ele>69</ele>
        <time>2020-12-29T11:18:48.000Z</time>
      </trkpt>
      <trkpt lat="47.16752" lon="-1.62757">
        <ele>69</ele>
        <time>2020-12-29T11:18:50.000Z</time>
      </trkpt>
      <trkpt lat="47.16761" lon="-1.62768">
        <ele>68</ele>
        <time>2020-12-29T11:18:52.000Z</time>
      </trkpt>
      <trkpt lat="47.16772" lon="-1.62778">
        <ele>68</ele>
        <time>2020-12-29T11:18:54.000Z</time>
      </trkpt>
      <trkpt lat="47.16783" lon="-1.62787">
        <ele>68</ele>
        <time>2020-12-29T11:18:56.000Z</time>
      </trkpt>
      <trkpt lat="47.16794" lon="-1.62796">
        <ele>69</ele>
        <time>2020-12-29T11:18:58.000Z</time>
      </trkpt>
      <trkpt lat="47.16804" lon="-1.62806">
        <ele>69</ele>
        <time>2020-12-29T11:19:00.000Z</time>
      </trkpt>
      <trkpt lat="47.16814" lon="-1.62815">
        <ele>70</ele>
        <time>2020-12-29T11:19:02.000Z</time>
      </trkpt>
      <trkpt lat="47.16824" lon="-1.62824">
        <ele>70</ele>
        <time>2020-12-29T11:19:04.000Z</time>
      </trkpt>
      <trkpt lat="47.16833" lon="-1.62834">
        <ele>70</ele>
        <time>2020-12-29T11:19:06.000Z</time>
      </trkpt>
      <trkpt lat="47.16843" lon="-1.62844">
        <ele>71</ele>
        <time>2020-12-29T11:19:08.000Z</time>
      </trkpt>
      <trkpt lat="47.16852" lon="-1.62853">
        <ele>72</ele>
        <time>2020-12-29T11:19:10.000Z</time>
      </trkpt>
      <trkpt lat="47.16862" lon="-1.62862">
        <ele>72</ele>
        <time>2020-12-29T11:19:12.000Z</time>
      </trkpt>
      <trkpt lat="47.16871" lon="-1.62872">
        <ele>73</ele>
        <time>2020-12-29T11:19:14.000Z</time>
      </trkpt>
      <trkpt lat="47.16878" lon="-1.62884">
        <ele>73</ele>
        <time>2020-12-29T11:19:16.000Z</time>
      </trkpt>
      <trkpt lat="47.16884" lon="-1.62899">
        <ele>73</ele>
        <time>2020-12-29T11:19:18.000Z</time>
      </trkpt>
      <trkpt lat="47.16889" lon="-1.62914">
        <ele>73</ele>
        <time>2020-12-29T11:19:20.000Z</time>
      </trkpt>
      <trkpt lat="47.16891" lon="-1.6293">
        <ele>73</ele>
        <time>2020-12-29T11:19:22.000Z</time>
      </trkpt>
      <trkpt lat="47.16894" lon="-1.62955">
        <ele>73</ele>
        <time>2020-12-29T11:19:25.000Z</time>
      </trkpt>
      <trkpt lat="47.16893" lon="-1.62972">
        <ele>73</ele>
        <time>2020-12-29T11:19:27.000Z</time>
      </trkpt>
      <trkpt lat="47.16892" lon="-1.62989">
        <ele>73</ele>
        <time>2020-12-29T11:19:29.000Z</time>
      </trkpt>
      <trkpt lat="47.1689" lon="-1.63006">
        <ele>74</ele>
        <time>2020-12-29T11:19:31.000Z</time>
      </trkpt>
      <trkpt lat="47.16889" lon="-1.63023">
        <ele>74</ele>
        <time>2020-12-29T11:19:33.000Z</time>
      </trkpt>
      <trkpt lat="47.16889" lon="-1.6304">
        <ele>74</ele>
        <time>2020-12-29T11:19:35.000Z</time>
      </trkpt>
      <trkpt lat="47.1689" lon="-1.63057">
        <ele>74</ele>
        <time>2020-12-29T11:19:37.000Z</time>
      </trkpt>
      <trkpt lat="47.16892" lon="-1.63074">
        <ele>75</ele>
        <time>2020-12-29T11:19:39.000Z</time>
      </trkpt>
      <trkpt lat="47.16894" lon="-1.63091">
        <ele>75</ele>
        <time>2020-12-29T11:19:41.000Z</time>
      </trkpt>
      <trkpt lat="47.16897" lon="-1.63107">
        <ele>75</ele>
        <time>2020-12-29T11:19:43.000Z</time>
      </trkpt>
      <trkpt lat="47.16901" lon="-1.63122">
        <ele>75</ele>
        <time>2020-12-29T11:19:45.000Z</time>
      </trkpt>
      <trkpt lat="47.16905" lon="-1.63138">
        <ele>75</ele>
        <time>2020-12-29T11:19:47.000Z</time>
      </trkpt>
      <trkpt lat="47.16909" lon="-1.63151">
        <ele>76</ele>
        <time>2020-12-29T11:19:49.000Z</time>
      </trkpt>
      <trkpt lat="47.16915" lon="-1.63165">
        <ele>76</ele>
        <time>2020-12-29T11:19:51.000Z</time>
      </trkpt>
      <trkpt lat="47.16921" lon="-1.63178">
        <ele>76</ele>
        <time>2020-12-29T11:19:53.000Z</time>
      </trkpt>
      <trkpt lat="47.16928" lon="-1.63191">
        <ele>76</ele>
        <time>2020-12-29T11:19:55.000Z</time>
      </trkpt>
      <trkpt lat="47.16935" lon="-1.63203">
        <ele>76</ele>
        <time>2020-12-29T11:19:57.000Z</time>
      </trkpt>
      <trkpt lat="47.16942" lon="-1.63213">
        <ele>76</ele>
        <time>2020-12-29T11:19:59.000Z</time>
      </trkpt>
      <trkpt lat="47.1695" lon="-1.63223">
        <ele>76</ele>
        <time>2020-12-29T11:20:01.000Z</time>
      </trkpt>
      <trkpt lat="47.16958" lon="-1.63232">
        <ele>76</ele>
        <time>2020-12-29T11:20:03.000Z</time>
      </trkpt>
      <trkpt lat="47.16966" lon="-1.63244">
        <ele>77</ele>
        <time>2020-12-29T11:20:06.000Z</time>
      </trkpt>
      <trkpt lat="47.16966" lon="-1.63264">
        <ele>76</ele>
        <time>2020-12-29T11:20:11.000Z</time>
      </trkpt>
      <trkpt lat="47.16957" lon="-1.63276">
        <ele>77</ele>
        <time>2020-12-29T11:20:13.000Z</time>
      </trkpt>
      <trkpt lat="47.16949" lon="-1.6329">
        <ele>76</ele>
        <time>2020-12-29T11:20:15.000Z</time>
      </trkpt>
      <trkpt lat="47.16942" lon="-1.63303">
        <ele>77</ele>
        <time>2020-12-29T11:20:17.000Z</time>
      </trkpt>
      <trkpt lat="47.16933" lon="-1.63317">
        <ele>77</ele>
        <time>2020-12-29T11:20:19.000Z</time>
      </trkpt>
      <trkpt lat="47.16924" lon="-1.6333">
        <ele>78</ele>
        <time>2020-12-29T11:20:21.000Z</time>
      </trkpt>
      <trkpt lat="47.16915" lon="-1.63343">
        <ele>78</ele>
        <time>2020-12-29T11:20:23.000Z</time>
      </trkpt>
      <trkpt lat="47.16907" lon="-1.63355">
        <ele>78</ele>
        <time>2020-12-29T11:20:25.000Z</time>
      </trkpt>
      <trkpt lat="47.16899" lon="-1.63367">
        <ele>78</ele>
        <time>2020-12-29T11:20:27.000Z</time>
      </trkpt>
      <trkpt lat="47.16891" lon="-1.63381">
        <ele>78</ele>
        <time>2020-12-29T11:20:29.000Z</time>
      </trkpt>
      <trkpt lat="47.16883" lon="-1.63394">
        <ele>78</ele>
        <time>2020-12-29T11:20:31.000Z</time>
      </trkpt>
      <trkpt lat="47.16875" lon="-1.63407">
        <ele>78</ele>
        <time>2020-12-29T11:20:33.000Z</time>
      </trkpt>
      <trkpt lat="47.16867" lon="-1.63421">
        <ele>78</ele>
        <time>2020-12-29T11:20:35.000Z</time>
      </trkpt>
      <trkpt lat="47.16859" lon="-1.63435">
        <ele>78</ele>
        <time>2020-12-29T11:20:37.000Z</time>
      </trkpt>
      <trkpt lat="47.16852" lon="-1.63449">
        <ele>79</ele>
        <time>2020-12-29T11:20:39.000Z</time>
      </trkpt>
      <trkpt lat="47.16843" lon="-1.63463">
        <ele>79</ele>
        <time>2020-12-29T11:20:41.000Z</time>
      </trkpt>
      <trkpt lat="47.16835" lon="-1.63476">
        <ele>80</ele>
        <time>2020-12-29T11:20:43.000Z</time>
      </trkpt>
      <trkpt lat="47.16827" lon="-1.63489">
        <ele>80</ele>
        <time>2020-12-29T11:20:45.000Z</time>
      </trkpt>
      <trkpt lat="47.16819" lon="-1.63502">
        <ele>80</ele>
        <time>2020-12-29T11:20:47.000Z</time>
      </trkpt>
      <trkpt lat="47.16811" lon="-1.63514">
        <ele>80</ele>
        <time>2020-12-29T11:20:49.000Z</time>
      </trkpt>
      <trkpt lat="47.16803" lon="-1.63527">
        <ele>80</ele>
        <time>2020-12-29T11:20:51.000Z</time>
      </trkpt>
      <trkpt lat="47.16795" lon="-1.6354">
        <ele>80</ele>
        <time>2020-12-29T11:20:53.000Z</time>
      </trkpt>
      <trkpt lat="47.16789" lon="-1.63554">
        <ele>80</ele>
        <time>2020-12-29T11:20:55.000Z</time>
      </trkpt>
      <trkpt lat="47.16782" lon="-1.63569">
        <ele>79</ele>
        <time>2020-12-29T11:20:57.000Z</time>
      </trkpt>
      <trkpt lat="47.16774" lon="-1.63582">
        <ele>79</ele>
        <time>2020-12-29T11:20:59.000Z</time>
      </trkpt>
      <trkpt lat="47.16766" lon="-1.63595">
        <ele>79</ele>
        <time>2020-12-29T11:21:01.000Z</time>
      </trkpt>
      <trkpt lat="47.16758" lon="-1.63608">
        <ele>80</ele>
        <time>2020-12-29T11:21:03.000Z</time>
      </trkpt>
      <trkpt lat="47.16751" lon="-1.63621">
        <ele>80</ele>
        <time>2020-12-29T11:21:05.000Z</time>
      </trkpt>
      <trkpt lat="47.16747" lon="-1.63634">
        <ele>80</ele>
        <time>2020-12-29T11:21:07.000Z</time>
      </trkpt>
      <trkpt lat="47.16755" lon="-1.63646">
        <ele>80</ele>
        <time>2020-12-29T11:21:09.000Z</time>
      </trkpt>
      <trkpt lat="47.16766" lon="-1.63651">
        <ele>79</ele>
        <time>2020-12-29T11:21:11.000Z</time>
      </trkpt>
      <trkpt lat="47.16783" lon="-1.63656">
        <ele>79</ele>
        <time>2020-12-29T11:21:14.000Z</time>
      </trkpt>
      <trkpt lat="47.16795" lon="-1.6366">
        <ele>79</ele>
        <time>2020-12-29T11:21:16.000Z</time>
      </trkpt>
      <trkpt lat="47.16806" lon="-1.63665">
        <ele>79</ele>
        <time>2020-12-29T11:21:18.000Z</time>
      </trkpt>
      <trkpt lat="47.16817" lon="-1.63669">
        <ele>78</ele>
        <time>2020-12-29T11:21:20.000Z</time>
      </trkpt>
      <trkpt lat="47.16836" lon="-1.63675">
        <ele>78</ele>
        <time>2020-12-29T11:21:23.000Z</time>
      </trkpt>
      <trkpt lat="47.16848" lon="-1.6368">
        <ele>78</ele>
        <time>2020-12-29T11:21:25.000Z</time>
      </trkpt>
      <trkpt lat="47.1686" lon="-1.63685">
        <ele>78</ele>
        <time>2020-12-29T11:21:27.000Z</time>
      </trkpt>
      <trkpt lat="47.16872" lon="-1.63689">
        <ele>78</ele>
        <time>2020-12-29T11:21:29.000Z</time>
      </trkpt>
      <trkpt lat="47.16884" lon="-1.63694">
        <ele>78</ele>
        <time>2020-12-29T11:21:31.000Z</time>
      </trkpt>
      <trkpt lat="47.16902" lon="-1.637">
        <ele>78</ele>
        <time>2020-12-29T11:21:34.000Z</time>
      </trkpt>
      <trkpt lat="47.16921" lon="-1.63706">
        <ele>78</ele>
        <time>2020-12-29T11:21:37.000Z</time>
      </trkpt>
      <trkpt lat="47.16933" lon="-1.63711">
        <ele>79</ele>
        <time>2020-12-29T11:21:39.000Z</time>
      </trkpt>
      <trkpt lat="47.16945" lon="-1.63715">
        <ele>79</ele>
        <time>2020-12-29T11:21:41.000Z</time>
      </trkpt>
      <trkpt lat="47.16958" lon="-1.63721">
        <ele>79</ele>
        <time>2020-12-29T11:21:43.000Z</time>
      </trkpt>
      <trkpt lat="47.1697" lon="-1.63726">
        <ele>79</ele>
        <time>2020-12-29T11:21:45.000Z</time>
      </trkpt>
      <trkpt lat="47.16983" lon="-1.6373">
        <ele>79</ele>
        <time>2020-12-29T11:21:47.000Z</time>
      </trkpt>
      <trkpt lat="47.16995" lon="-1.63734">
        <ele>78</ele>
        <time>2020-12-29T11:21:49.000Z</time>
      </trkpt>
      <trkpt lat="47.17012" lon="-1.6374">
        <ele>79</ele>
        <time>2020-12-29T11:21:52.000Z</time>
      </trkpt>
      <trkpt lat="47.17024" lon="-1.63744">
        <ele>80</ele>
        <time>2020-12-29T11:21:54.000Z</time>
      </trkpt>
      <trkpt lat="47.17036" lon="-1.63749">
        <ele>80</ele>
        <time>2020-12-29T11:21:56.000Z</time>
      </trkpt>
      <trkpt lat="47.17048" lon="-1.63755">
        <ele>80</ele>
        <time>2020-12-29T11:21:58.000Z</time>
      </trkpt>
      <trkpt lat="47.17058" lon="-1.63765">
        <ele>80</ele>
        <time>2020-12-29T11:22:00.000Z</time>
      </trkpt>
      <trkpt lat="47.17065" lon="-1.63778">
        <ele>80</ele>
        <time>2020-12-29T11:22:02.000Z</time>
      </trkpt>
      <trkpt lat="47.17071" lon="-1.63795">
        <ele>79</ele>
        <time>2020-12-29T11:22:04.000Z</time>
      </trkpt>
      <trkpt lat="47.17077" lon="-1.63811">
        <ele>78</ele>
        <time>2020-12-29T11:22:06.000Z</time>
      </trkpt>
      <trkpt lat="47.17085" lon="-1.63835">
        <ele>78</ele>
        <time>2020-12-29T11:22:09.000Z</time>
      </trkpt>
      <trkpt lat="47.17091" lon="-1.63851">
        <ele>78</ele>
        <time>2020-12-29T11:22:11.000Z</time>
      </trkpt>
      <trkpt lat="47.17096" lon="-1.63867">
        <ele>78</ele>
        <time>2020-12-29T11:22:13.000Z</time>
      </trkpt>
      <trkpt lat="47.17102" lon="-1.63882">
        <ele>78</ele>
        <time>2020-12-29T11:22:15.000Z</time>
      </trkpt>
      <trkpt lat="47.17107" lon="-1.63897">
        <ele>78</ele>
        <time>2020-12-29T11:22:17.000Z</time>
      </trkpt>
      <trkpt lat="47.17112" lon="-1.63912">
        <ele>78</ele>
        <time>2020-12-29T11:22:19.000Z</time>
      </trkpt>
      <trkpt lat="47.17118" lon="-1.63925">
        <ele>78</ele>
        <time>2020-12-29T11:22:21.000Z</time>
      </trkpt>
      <trkpt lat="47.17124" lon="-1.63936">
        <ele>78</ele>
        <time>2020-12-29T11:22:23.000Z</time>
      </trkpt>
      <trkpt lat="47.17135" lon="-1.63944">
        <ele>78</ele>
        <time>2020-12-29T11:22:26.000Z</time>
      </trkpt>
      <trkpt lat="47.1714" lon="-1.63956">
        <ele>78</ele>
        <time>2020-12-29T11:22:28.000Z</time>
      </trkpt>
      <trkpt lat="47.17141" lon="-1.63971">
        <ele>78</ele>
        <time>2020-12-29T11:22:30.000Z</time>
      </trkpt>
      <trkpt lat="47.17141" lon="-1.6399">
        <ele>78</ele>
        <time>2020-12-29T11:22:32.000Z</time>
      </trkpt>
      <trkpt lat="47.17139" lon="-1.64009">
        <ele>78</ele>
        <time>2020-12-29T11:22:34.000Z</time>
      </trkpt>
      <trkpt lat="47.17137" lon="-1.64028">
        <ele>78</ele>
        <time>2020-12-29T11:22:36.000Z</time>
      </trkpt>
      <trkpt lat="47.17135" lon="-1.64047">
        <ele>78</ele>
        <time>2020-12-29T11:22:38.000Z</time>
      </trkpt>
      <trkpt lat="47.17133" lon="-1.64065">
        <ele>79</ele>
        <time>2020-12-29T11:22:40.000Z</time>
      </trkpt>
      <trkpt lat="47.17131" lon="-1.64084">
        <ele>79</ele>
        <time>2020-12-29T11:22:42.000Z</time>
      </trkpt>
      <trkpt lat="47.17129" lon="-1.64101">
        <ele>79</ele>
        <time>2020-12-29T11:22:44.000Z</time>
      </trkpt>
      <trkpt lat="47.17127" lon="-1.6412">
        <ele>79</ele>
        <time>2020-12-29T11:22:46.000Z</time>
      </trkpt>
      <trkpt lat="47.17125" lon="-1.64138">
        <ele>79</ele>
        <time>2020-12-29T11:22:48.000Z</time>
      </trkpt>
      <trkpt lat="47.17123" lon="-1.64155">
        <ele>79</ele>
        <time>2020-12-29T11:22:50.000Z</time>
      </trkpt>
      <trkpt lat="47.17122" lon="-1.64173">
        <ele>79</ele>
        <time>2020-12-29T11:22:52.000Z</time>
      </trkpt>
      <trkpt lat="47.1712" lon="-1.64192">
        <ele>79</ele>
        <time>2020-12-29T11:22:54.000Z</time>
      </trkpt>
      <trkpt lat="47.17117" lon="-1.6421">
        <ele>79</ele>
        <time>2020-12-29T11:22:56.000Z</time>
      </trkpt>
      <trkpt lat="47.17115" lon="-1.64227">
        <ele>79</ele>
        <time>2020-12-29T11:22:58.000Z</time>
      </trkpt>
      <trkpt lat="47.17112" lon="-1.64254">
        <ele>79</ele>
        <time>2020-12-29T11:23:01.000Z</time>
      </trkpt>
      <trkpt lat="47.1711" lon="-1.64272">
        <ele>79</ele>
        <time>2020-12-29T11:23:03.000Z</time>
      </trkpt>
      <trkpt lat="47.17109" lon="-1.6429">
        <ele>78</ele>
        <time>2020-12-29T11:23:05.000Z</time>
      </trkpt>
      <trkpt lat="47.17107" lon="-1.64309">
        <ele>78</ele>
        <time>2020-12-29T11:23:07.000Z</time>
      </trkpt>
      <trkpt lat="47.17105" lon="-1.64326">
        <ele>79</ele>
        <time>2020-12-29T11:23:09.000Z</time>
      </trkpt>
      <trkpt lat="47.17103" lon="-1.64345">
        <ele>78</ele>
        <time>2020-12-29T11:23:11.000Z</time>
      </trkpt>
      <trkpt lat="47.17102" lon="-1.64363">
        <ele>79</ele>
        <time>2020-12-29T11:23:13.000Z</time>
      </trkpt>
      <trkpt lat="47.171" lon="-1.64381">
        <ele>79</ele>
        <time>2020-12-29T11:23:15.000Z</time>
      </trkpt>
      <trkpt lat="47.17098" lon="-1.64399">
        <ele>79</ele>
        <time>2020-12-29T11:23:17.000Z</time>
      </trkpt>
      <trkpt lat="47.17097" lon="-1.64417">
        <ele>79</ele>
        <time>2020-12-29T11:23:19.000Z</time>
      </trkpt>
      <trkpt lat="47.17096" lon="-1.64436">
        <ele>79</ele>
        <time>2020-12-29T11:23:21.000Z</time>
      </trkpt>
      <trkpt lat="47.17094" lon="-1.64454">
        <ele>79</ele>
        <time>2020-12-29T11:23:23.000Z</time>
      </trkpt>
      <trkpt lat="47.17093" lon="-1.64472">
        <ele>78</ele>
        <time>2020-12-29T11:23:25.000Z</time>
      </trkpt>
      <trkpt lat="47.17092" lon="-1.64491">
        <ele>78</ele>
        <time>2020-12-29T11:23:27.000Z</time>
      </trkpt>
      <trkpt lat="47.17091" lon="-1.6451">
        <ele>78</ele>
        <time>2020-12-29T11:23:29.000Z</time>
      </trkpt>
      <trkpt lat="47.1709" lon="-1.64528">
        <ele>77</ele>
        <time>2020-12-29T11:23:31.000Z</time>
      </trkpt>
      <trkpt lat="47.17089" lon="-1.64547">
        <ele>77</ele>
        <time>2020-12-29T11:23:33.000Z</time>
      </trkpt>
      <trkpt lat="47.17089" lon="-1.64565">
        <ele>77</ele>
        <time>2020-12-29T11:23:35.000Z</time>
      </trkpt>
      <trkpt lat="47.1709" lon="-1.64583">
        <ele>77</ele>
        <time>2020-12-29T11:23:37.000Z</time>
      </trkpt>
      <trkpt lat="47.17089" lon="-1.64601">
        <ele>78</ele>
        <time>2020-12-29T11:23:39.000Z</time>
      </trkpt>
      <trkpt lat="47.17089" lon="-1.64619">
        <ele>78</ele>
        <time>2020-12-29T11:23:41.000Z</time>
      </trkpt>
      <trkpt lat="47.1709" lon="-1.64637">
        <ele>78</ele>
        <time>2020-12-29T11:23:43.000Z</time>
      </trkpt>
      <trkpt lat="47.17091" lon="-1.64654">
        <ele>78</ele>
        <time>2020-12-29T11:23:45.000Z</time>
      </trkpt>
      <trkpt lat="47.17091" lon="-1.64672">
        <ele>78</ele>
        <time>2020-12-29T11:23:47.000Z</time>
      </trkpt>
      <trkpt lat="47.17091" lon="-1.64689">
        <ele>78</ele>
        <time>2020-12-29T11:23:49.000Z</time>
      </trkpt>
      <trkpt lat="47.17091" lon="-1.64707">
        <ele>78</ele>
        <time>2020-12-29T11:23:51.000Z</time>
      </trkpt>
      <trkpt lat="47.17092" lon="-1.64725">
        <ele>78</ele>
        <time>2020-12-29T11:23:53.000Z</time>
      </trkpt>
      <trkpt lat="47.17092" lon="-1.64742">
        <ele>78</ele>
        <time>2020-12-29T11:23:55.000Z</time>
      </trkpt>
      <trkpt lat="47.17094" lon="-1.6476">
        <ele>79</ele>
        <time>2020-12-29T11:23:57.000Z</time>
      </trkpt>
      <trkpt lat="47.17095" lon="-1.64776">
        <ele>79</ele>
        <time>2020-12-29T11:23:59.000Z</time>
      </trkpt>
      <trkpt lat="47.17096" lon="-1.64794">
        <ele>79</ele>
        <time>2020-12-29T11:24:01.000Z</time>
      </trkpt>
      <trkpt lat="47.17098" lon="-1.64811">
        <ele>80</ele>
        <time>2020-12-29T11:24:03.000Z</time>
      </trkpt>
      <trkpt lat="47.171" lon="-1.64841">
        <ele>79</ele>
        <time>2020-12-29T11:24:06.000Z</time>
      </trkpt>
      <trkpt lat="47.17101" lon="-1.64859">
        <ele>79</ele>
        <time>2020-12-29T11:24:08.000Z</time>
      </trkpt>
      <trkpt lat="47.17102" lon="-1.64877">
        <ele>78</ele>
        <time>2020-12-29T11:24:10.000Z</time>
      </trkpt>
      <trkpt lat="47.17103" lon="-1.64895">
        <ele>78</ele>
        <time>2020-12-29T11:24:12.000Z</time>
      </trkpt>
      <trkpt lat="47.17104" lon="-1.64913">
        <ele>79</ele>
        <time>2020-12-29T11:24:14.000Z</time>
      </trkpt>
      <trkpt lat="47.17105" lon="-1.6493">
        <ele>78</ele>
        <time>2020-12-29T11:24:16.000Z</time>
      </trkpt>
      <trkpt lat="47.17107" lon="-1.64947">
        <ele>78</ele>
        <time>2020-12-29T11:24:18.000Z</time>
      </trkpt>
      <trkpt lat="47.17108" lon="-1.64965">
        <ele>78</ele>
        <time>2020-12-29T11:24:20.000Z</time>
      </trkpt>
      <trkpt lat="47.17109" lon="-1.64982">
        <ele>77</ele>
        <time>2020-12-29T11:24:22.000Z</time>
      </trkpt>
      <trkpt lat="47.1711" lon="-1.64999">
        <ele>77</ele>
        <time>2020-12-29T11:24:24.000Z</time>
      </trkpt>
      <trkpt lat="47.17111" lon="-1.65016">
        <ele>77</ele>
        <time>2020-12-29T11:24:26.000Z</time>
      </trkpt>
      <trkpt lat="47.17112" lon="-1.65033">
        <ele>77</ele>
        <time>2020-12-29T11:24:28.000Z</time>
      </trkpt>
      <trkpt lat="47.17113" lon="-1.65049">
        <ele>77</ele>
        <time>2020-12-29T11:24:30.000Z</time>
      </trkpt>
      <trkpt lat="47.17114" lon="-1.65065">
        <ele>78</ele>
        <time>2020-12-29T11:24:32.000Z</time>
      </trkpt>
      <trkpt lat="47.17115" lon="-1.65081">
        <ele>78</ele>
        <time>2020-12-29T11:24:34.000Z</time>
      </trkpt>
      <trkpt lat="47.17117" lon="-1.65096">
        <ele>78</ele>
        <time>2020-12-29T11:24:36.000Z</time>
      </trkpt>
      <trkpt lat="47.17118" lon="-1.65113">
        <ele>78</ele>
        <time>2020-12-29T11:24:38.000Z</time>
      </trkpt>
      <trkpt lat="47.1712" lon="-1.65129">
        <ele>79</ele>
        <time>2020-12-29T11:24:40.000Z</time>
      </trkpt>
      <trkpt lat="47.1712" lon="-1.65145">
        <ele>79</ele>
        <time>2020-12-29T11:24:42.000Z</time>
      </trkpt>
      <trkpt lat="47.17121" lon="-1.65162">
        <ele>79</ele>
        <time>2020-12-29T11:24:44.000Z</time>
      </trkpt>
      <trkpt lat="47.17122" lon="-1.65178">
        <ele>79</ele>
        <time>2020-12-29T11:24:46.000Z</time>
      </trkpt>
      <trkpt lat="47.17124" lon="-1.65193">
        <ele>79</ele>
        <time>2020-12-29T11:24:48.000Z</time>
      </trkpt>
      <trkpt lat="47.17125" lon="-1.65208">
        <ele>79</ele>
        <time>2020-12-29T11:24:50.000Z</time>
      </trkpt>
      <trkpt lat="47.17126" lon="-1.65224">
        <ele>79</ele>
        <time>2020-12-29T11:24:52.000Z</time>
      </trkpt>
      <trkpt lat="47.17126" lon="-1.65238">
        <ele>80</ele>
        <time>2020-12-29T11:24:54.000Z</time>
      </trkpt>
      <trkpt lat="47.17127" lon="-1.65255">
        <ele>80</ele>
        <time>2020-12-29T11:24:56.000Z</time>
      </trkpt>
      <trkpt lat="47.17132" lon="-1.6527">
        <ele>79</ele>
        <time>2020-12-29T11:24:58.000Z</time>
      </trkpt>
      <trkpt lat="47.17137" lon="-1.65285">
        <ele>79</ele>
        <time>2020-12-29T11:25:00.000Z</time>
      </trkpt>
      <trkpt lat="47.1714" lon="-1.653">
        <ele>79</ele>
        <time>2020-12-29T11:25:02.000Z</time>
      </trkpt>
      <trkpt lat="47.17139" lon="-1.65316">
        <ele>79</ele>
        <time>2020-12-29T11:25:04.000Z</time>
      </trkpt>
      <trkpt lat="47.17133" lon="-1.6533">
        <ele>80</ele>
        <time>2020-12-29T11:25:06.000Z</time>
      </trkpt>
      <trkpt lat="47.17126" lon="-1.65342">
        <ele>80</ele>
        <time>2020-12-29T11:25:08.000Z</time>
      </trkpt>
      <trkpt lat="47.1712" lon="-1.65355">
        <ele>79</ele>
        <time>2020-12-29T11:25:10.000Z</time>
      </trkpt>
      <trkpt lat="47.1712" lon="-1.65371">
        <ele>80</ele>
        <time>2020-12-29T11:25:12.000Z</time>
      </trkpt>
      <trkpt lat="47.17121" lon="-1.65386">
        <ele>80</ele>
        <time>2020-12-29T11:25:14.000Z</time>
      </trkpt>
      <trkpt lat="47.17121" lon="-1.65401">
        <ele>80</ele>
        <time>2020-12-29T11:25:16.000Z</time>
      </trkpt>
      <trkpt lat="47.17122" lon="-1.65415">
        <ele>81</ele>
        <time>2020-12-29T11:25:18.000Z</time>
      </trkpt>
      <trkpt lat="47.17122" lon="-1.6543">
        <ele>81</ele>
        <time>2020-12-29T11:25:20.000Z</time>
      </trkpt>
      <trkpt lat="47.17122" lon="-1.65445">
        <ele>82</ele>
        <time>2020-12-29T11:25:22.000Z</time>
      </trkpt>
      <trkpt lat="47.17121" lon="-1.6546">
        <ele>82</ele>
        <time>2020-12-29T11:25:24.000Z</time>
      </trkpt>
      <trkpt lat="47.1712" lon="-1.65475">
        <ele>83</ele>
        <time>2020-12-29T11:25:26.000Z</time>
      </trkpt>
      <trkpt lat="47.17117" lon="-1.65489">
        <ele>84</ele>
        <time>2020-12-29T11:25:28.000Z</time>
      </trkpt>
      <trkpt lat="47.17115" lon="-1.65503">
        <ele>84</ele>
        <time>2020-12-29T11:25:30.000Z</time>
      </trkpt>
      <trkpt lat="47.1711" lon="-1.65517">
        <ele>85</ele>
        <time>2020-12-29T11:25:32.000Z</time>
      </trkpt>
      <trkpt lat="47.17105" lon="-1.6553">
        <ele>85</ele>
        <time>2020-12-29T11:25:34.000Z</time>
      </trkpt>
      <trkpt lat="47.17099" lon="-1.65543">
        <ele>86</ele>
        <time>2020-12-29T11:25:36.000Z</time>
      </trkpt>
      <trkpt lat="47.17093" lon="-1.65555">
        <ele>86</ele>
        <time>2020-12-29T11:25:38.000Z</time>
      </trkpt>
      <trkpt lat="47.17086" lon="-1.65567">
        <ele>86</ele>
        <time>2020-12-29T11:25:40.000Z</time>
      </trkpt>
      <trkpt lat="47.1708" lon="-1.65578">
        <ele>87</ele>
        <time>2020-12-29T11:25:42.000Z</time>
      </trkpt>
      <trkpt lat="47.17074" lon="-1.65589">
        <ele>87</ele>
        <time>2020-12-29T11:25:44.000Z</time>
      </trkpt>
      <trkpt lat="47.17068" lon="-1.656">
        <ele>87</ele>
        <time>2020-12-29T11:25:46.000Z</time>
      </trkpt>
      <trkpt lat="47.17062" lon="-1.65612">
        <ele>87</ele>
        <time>2020-12-29T11:25:48.000Z</time>
      </trkpt>
      <trkpt lat="47.17055" lon="-1.65624">
        <ele>87</ele>
        <time>2020-12-29T11:25:50.000Z</time>
      </trkpt>
      <trkpt lat="47.17048" lon="-1.65636">
        <ele>86</ele>
        <time>2020-12-29T11:25:52.000Z</time>
      </trkpt>
      <trkpt lat="47.1704" lon="-1.6565">
        <ele>86</ele>
        <time>2020-12-29T11:25:54.000Z</time>
      </trkpt>
      <trkpt lat="47.17032" lon="-1.65664">
        <ele>85</ele>
        <time>2020-12-29T11:25:56.000Z</time>
      </trkpt>
      <trkpt lat="47.17025" lon="-1.65679">
        <ele>84</ele>
        <time>2020-12-29T11:25:58.000Z</time>
      </trkpt>
      <trkpt lat="47.17018" lon="-1.65694">
        <ele>84</ele>
        <time>2020-12-29T11:26:00.000Z</time>
      </trkpt>
      <trkpt lat="47.17013" lon="-1.65709">
        <ele>84</ele>
        <time>2020-12-29T11:26:02.000Z</time>
      </trkpt>
      <trkpt lat="47.17008" lon="-1.65725">
        <ele>84</ele>
        <time>2020-12-29T11:26:04.000Z</time>
      </trkpt>
      <trkpt lat="47.17005" lon="-1.65741">
        <ele>84</ele>
        <time>2020-12-29T11:26:06.000Z</time>
      </trkpt>
      <trkpt lat="47.17001" lon="-1.65756">
        <ele>84</ele>
        <time>2020-12-29T11:26:08.000Z</time>
      </trkpt>
      <trkpt lat="47.16992" lon="-1.65767">
        <ele>83</ele>
        <time>2020-12-29T11:26:10.000Z</time>
      </trkpt>
      <trkpt lat="47.16981" lon="-1.65775">
        <ele>83</ele>
        <time>2020-12-29T11:26:12.000Z</time>
      </trkpt>
      <trkpt lat="47.16969" lon="-1.65784">
        <ele>83</ele>
        <time>2020-12-29T11:26:14.000Z</time>
      </trkpt>
      <trkpt lat="47.1696" lon="-1.65797">
        <ele>82</ele>
        <time>2020-12-29T11:26:16.000Z</time>
      </trkpt>
      <trkpt lat="47.16952" lon="-1.6581">
        <ele>82</ele>
        <time>2020-12-29T11:26:18.000Z</time>
      </trkpt>
      <trkpt lat="47.16945" lon="-1.65825">
        <ele>83</ele>
        <time>2020-12-29T11:26:20.000Z</time>
      </trkpt>
      <trkpt lat="47.16938" lon="-1.6584">
        <ele>82</ele>
        <time>2020-12-29T11:26:22.000Z</time>
      </trkpt>
      <trkpt lat="47.16931" lon="-1.65855">
        <ele>82</ele>
        <time>2020-12-29T11:26:24.000Z</time>
      </trkpt>
      <trkpt lat="47.16924" lon="-1.6587">
        <ele>81</ele>
        <time>2020-12-29T11:26:26.000Z</time>
      </trkpt>
      <trkpt lat="47.16917" lon="-1.65884">
        <ele>81</ele>
        <time>2020-12-29T11:26:28.000Z</time>
      </trkpt>
      <trkpt lat="47.16909" lon="-1.65899">
        <ele>81</ele>
        <time>2020-12-29T11:26:30.000Z</time>
      </trkpt>
      <trkpt lat="47.16901" lon="-1.65913">
        <ele>80</ele>
        <time>2020-12-29T11:26:32.000Z</time>
      </trkpt>
      <trkpt lat="47.16895" lon="-1.65929">
        <ele>80</ele>
        <time>2020-12-29T11:26:34.000Z</time>
      </trkpt>
      <trkpt lat="47.16889" lon="-1.65944">
        <ele>80</ele>
        <time>2020-12-29T11:26:36.000Z</time>
      </trkpt>
      <trkpt lat="47.16882" lon="-1.65959">
        <ele>80</ele>
        <time>2020-12-29T11:26:38.000Z</time>
      </trkpt>
      <trkpt lat="47.16876" lon="-1.65976">
        <ele>80</ele>
        <time>2020-12-29T11:26:40.000Z</time>
      </trkpt>
      <trkpt lat="47.1687" lon="-1.65992">
        <ele>80</ele>
        <time>2020-12-29T11:26:42.000Z</time>
      </trkpt>
      <trkpt lat="47.16865" lon="-1.66009">
        <ele>79</ele>
        <time>2020-12-29T11:26:44.000Z</time>
      </trkpt>
      <trkpt lat="47.16861" lon="-1.66025">
        <ele>79</ele>
        <time>2020-12-29T11:26:46.000Z</time>
      </trkpt>
      <trkpt lat="47.16857" lon="-1.66041">
        <ele>80</ele>
        <time>2020-12-29T11:26:48.000Z</time>
      </trkpt>
      <trkpt lat="47.16855" lon="-1.66059">
        <ele>80</ele>
        <time>2020-12-29T11:26:50.000Z</time>
      </trkpt>
      <trkpt lat="47.16853" lon="-1.66076">
        <ele>80</ele>
        <time>2020-12-29T11:26:52.000Z</time>
      </trkpt>
      <trkpt lat="47.1685" lon="-1.66093">
        <ele>80</ele>
        <time>2020-12-29T11:26:54.000Z</time>
      </trkpt>
      <trkpt lat="47.16849" lon="-1.66111">
        <ele>79</ele>
        <time>2020-12-29T11:26:56.000Z</time>
      </trkpt>
      <trkpt lat="47.16848" lon="-1.66128">
        <ele>79</ele>
        <time>2020-12-29T11:26:58.000Z</time>
      </trkpt>
      <trkpt lat="47.16848" lon="-1.66146">
        <ele>79</ele>
        <time>2020-12-29T11:27:00.000Z</time>
      </trkpt>
      <trkpt lat="47.16848" lon="-1.66163">
        <ele>79</ele>
        <time>2020-12-29T11:27:02.000Z</time>
      </trkpt>
      <trkpt lat="47.16849" lon="-1.66181">
        <ele>79</ele>
        <time>2020-12-29T11:27:04.000Z</time>
      </trkpt>
      <trkpt lat="47.1685" lon="-1.66198">
        <ele>79</ele>
        <time>2020-12-29T11:27:06.000Z</time>
      </trkpt>
      <trkpt lat="47.16851" lon="-1.66215">
        <ele>79</ele>
        <time>2020-12-29T11:27:08.000Z</time>
      </trkpt>
      <trkpt lat="47.16853" lon="-1.66232">
        <ele>79</ele>
        <time>2020-12-29T11:27:10.000Z</time>
      </trkpt>
      <trkpt lat="47.16854" lon="-1.66248">
        <ele>79</ele>
        <time>2020-12-29T11:27:12.000Z</time>
      </trkpt>
      <trkpt lat="47.16855" lon="-1.66264">
        <ele>80</ele>
        <time>2020-12-29T11:27:14.000Z</time>
      </trkpt>
      <trkpt lat="47.16856" lon="-1.66281">
        <ele>80</ele>
        <time>2020-12-29T11:27:16.000Z</time>
      </trkpt>
      <trkpt lat="47.16857" lon="-1.66297">
        <ele>80</ele>
        <time>2020-12-29T11:27:18.000Z</time>
      </trkpt>
      <trkpt lat="47.16858" lon="-1.66314">
        <ele>80</ele>
        <time>2020-12-29T11:27:20.000Z</time>
      </trkpt>
      <trkpt lat="47.16859" lon="-1.66331">
        <ele>80</ele>
        <time>2020-12-29T11:27:22.000Z</time>
      </trkpt>
      <trkpt lat="47.16861" lon="-1.66348">
        <ele>80</ele>
        <time>2020-12-29T11:27:24.000Z</time>
      </trkpt>
      <trkpt lat="47.16863" lon="-1.66366">
        <ele>80</ele>
        <time>2020-12-29T11:27:26.000Z</time>
      </trkpt>
      <trkpt lat="47.16865" lon="-1.66383">
        <ele>80</ele>
        <time>2020-12-29T11:27:28.000Z</time>
      </trkpt>
      <trkpt lat="47.16867" lon="-1.66401">
        <ele>80</ele>
        <time>2020-12-29T11:27:30.000Z</time>
      </trkpt>
      <trkpt lat="47.16869" lon="-1.66417">
        <ele>80</ele>
        <time>2020-12-29T11:27:32.000Z</time>
      </trkpt>
      <trkpt lat="47.16871" lon="-1.66435">
        <ele>80</ele>
        <time>2020-12-29T11:27:34.000Z</time>
      </trkpt>
      <trkpt lat="47.16873" lon="-1.66452">
        <ele>80</ele>
        <time>2020-12-29T11:27:36.000Z</time>
      </trkpt>
      <trkpt lat="47.16874" lon="-1.66469">
        <ele>80</ele>
        <time>2020-12-29T11:27:38.000Z</time>
      </trkpt>
      <trkpt lat="47.16876" lon="-1.66485">
        <ele>80</ele>
        <time>2020-12-29T11:27:40.000Z</time>
      </trkpt>
      <trkpt lat="47.16879" lon="-1.66501">
        <ele>80</ele>
        <time>2020-12-29T11:27:42.000Z</time>
      </trkpt>
      <trkpt lat="47.1688" lon="-1.66516">
        <ele>80</ele>
        <time>2020-12-29T11:27:44.000Z</time>
      </trkpt>
      <trkpt lat="47.16881" lon="-1.66533">
        <ele>80</ele>
        <time>2020-12-29T11:27:46.000Z</time>
      </trkpt>
      <trkpt lat="47.16883" lon="-1.6655">
        <ele>80</ele>
        <time>2020-12-29T11:27:48.000Z</time>
      </trkpt>
      <trkpt lat="47.16885" lon="-1.66567">
        <ele>80</ele>
        <time>2020-12-29T11:27:50.000Z</time>
      </trkpt>
      <trkpt lat="47.16888" lon="-1.66583">
        <ele>80</ele>
        <time>2020-12-29T11:27:52.000Z</time>
      </trkpt>
      <trkpt lat="47.16889" lon="-1.66599">
        <ele>80</ele>
        <time>2020-12-29T11:27:54.000Z</time>
      </trkpt>
      <trkpt lat="47.16891" lon="-1.66616">
        <ele>80</ele>
        <time>2020-12-29T11:27:56.000Z</time>
      </trkpt>
      <trkpt lat="47.16893" lon="-1.66633">
        <ele>80</ele>
        <time>2020-12-29T11:27:58.000Z</time>
      </trkpt>
      <trkpt lat="47.16894" lon="-1.6665">
        <ele>80</ele>
        <time>2020-12-29T11:28:00.000Z</time>
      </trkpt>
      <trkpt lat="47.16894" lon="-1.66667">
        <ele>79</ele>
        <time>2020-12-29T11:28:02.000Z</time>
      </trkpt>
      <trkpt lat="47.16893" lon="-1.66684">
        <ele>79</ele>
        <time>2020-12-29T11:28:04.000Z</time>
      </trkpt>
      <trkpt lat="47.1689" lon="-1.66701">
        <ele>79</ele>
        <time>2020-12-29T11:28:06.000Z</time>
      </trkpt>
      <trkpt lat="47.16886" lon="-1.66717">
        <ele>79</ele>
        <time>2020-12-29T11:28:08.000Z</time>
      </trkpt>
      <trkpt lat="47.16881" lon="-1.66732">
        <ele>80</ele>
        <time>2020-12-29T11:28:10.000Z</time>
      </trkpt>
      <trkpt lat="47.16874" lon="-1.66747">
        <ele>80</ele>
        <time>2020-12-29T11:28:12.000Z</time>
      </trkpt>
      <trkpt lat="47.16867" lon="-1.66762">
        <ele>80</ele>
        <time>2020-12-29T11:28:14.000Z</time>
      </trkpt>
      <trkpt lat="47.1686" lon="-1.66776">
        <ele>80</ele>
        <time>2020-12-29T11:28:16.000Z</time>
      </trkpt>
      <trkpt lat="47.16852" lon="-1.66791">
        <ele>80</ele>
        <time>2020-12-29T11:28:18.000Z</time>
      </trkpt>
      <trkpt lat="47.16845" lon="-1.66805">
        <ele>80</ele>
        <time>2020-12-29T11:28:20.000Z</time>
      </trkpt>
      <trkpt lat="47.16837" lon="-1.6682">
        <ele>80</ele>
        <time>2020-12-29T11:28:22.000Z</time>
      </trkpt>
      <trkpt lat="47.1683" lon="-1.66834">
        <ele>80</ele>
        <time>2020-12-29T11:28:24.000Z</time>
      </trkpt>
      <trkpt lat="47.16823" lon="-1.66848">
        <ele>80</ele>
        <time>2020-12-29T11:28:26.000Z</time>
      </trkpt>
      <trkpt lat="47.16816" lon="-1.66862">
        <ele>80</ele>
        <time>2020-12-29T11:28:28.000Z</time>
      </trkpt>
      <trkpt lat="47.16808" lon="-1.66875">
        <ele>80</ele>
        <time>2020-12-29T11:28:30.000Z</time>
      </trkpt>
      <trkpt lat="47.16799" lon="-1.66887">
        <ele>80</ele>
        <time>2020-12-29T11:28:32.000Z</time>
      </trkpt>
      <trkpt lat="47.1679" lon="-1.66898">
        <ele>80</ele>
        <time>2020-12-29T11:28:34.000Z</time>
      </trkpt>
      <trkpt lat="47.16781" lon="-1.66907">
        <ele>81</ele>
        <time>2020-12-29T11:28:36.000Z</time>
      </trkpt>
      <trkpt lat="47.16769" lon="-1.66913">
        <ele>81</ele>
        <time>2020-12-29T11:28:38.000Z</time>
      </trkpt>
      <trkpt lat="47.16757" lon="-1.66918">
        <ele>82</ele>
        <time>2020-12-29T11:28:40.000Z</time>
      </trkpt>
      <trkpt lat="47.16746" lon="-1.66923">
        <ele>83</ele>
        <time>2020-12-29T11:28:42.000Z</time>
      </trkpt>
      <trkpt lat="47.16734" lon="-1.66927">
        <ele>83</ele>
        <time>2020-12-29T11:28:44.000Z</time>
      </trkpt>
      <trkpt lat="47.16721" lon="-1.66931">
        <ele>82</ele>
        <time>2020-12-29T11:28:46.000Z</time>
      </trkpt>
      <trkpt lat="47.16709" lon="-1.66936">
        <ele>82</ele>
        <time>2020-12-29T11:28:48.000Z</time>
      </trkpt>
      <trkpt lat="47.16698" lon="-1.66941">
        <ele>82</ele>
        <time>2020-12-29T11:28:50.000Z</time>
      </trkpt>
      <trkpt lat="47.16689" lon="-1.6695">
        <ele>82</ele>
        <time>2020-12-29T11:28:52.000Z</time>
      </trkpt>
      <trkpt lat="47.16679" lon="-1.66963">
        <ele>82</ele>
        <time>2020-12-29T11:28:54.000Z</time>
      </trkpt>
      <trkpt lat="47.16672" lon="-1.66978">
        <ele>82</ele>
        <time>2020-12-29T11:28:56.000Z</time>
      </trkpt>
      <trkpt lat="47.16667" lon="-1.66994">
        <ele>81</ele>
        <time>2020-12-29T11:28:58.000Z</time>
      </trkpt>
      <trkpt lat="47.16662" lon="-1.67012">
        <ele>81</ele>
        <time>2020-12-29T11:29:00.000Z</time>
      </trkpt>
      <trkpt lat="47.16658" lon="-1.67029">
        <ele>81</ele>
        <time>2020-12-29T11:29:02.000Z</time>
      </trkpt>
      <trkpt lat="47.16654" lon="-1.67046">
        <ele>80</ele>
        <time>2020-12-29T11:29:04.000Z</time>
      </trkpt>
      <trkpt lat="47.16651" lon="-1.67062">
        <ele>79</ele>
        <time>2020-12-29T11:29:06.000Z</time>
      </trkpt>
      <trkpt lat="47.16648" lon="-1.67079">
        <ele>79</ele>
        <time>2020-12-29T11:29:08.000Z</time>
      </trkpt>
      <trkpt lat="47.16644" lon="-1.67096">
        <ele>79</ele>
        <time>2020-12-29T11:29:10.000Z</time>
      </trkpt>
      <trkpt lat="47.16641" lon="-1.67112">
        <ele>79</ele>
        <time>2020-12-29T11:29:12.000Z</time>
      </trkpt>
      <trkpt lat="47.16637" lon="-1.6713">
        <ele>79</ele>
        <time>2020-12-29T11:29:14.000Z</time>
      </trkpt>
      <trkpt lat="47.16634" lon="-1.67147">
        <ele>79</ele>
        <time>2020-12-29T11:29:16.000Z</time>
      </trkpt>
      <trkpt lat="47.16631" lon="-1.67164">
        <ele>79</ele>
        <time>2020-12-29T11:29:18.000Z</time>
      </trkpt>
      <trkpt lat="47.16627" lon="-1.67181">
        <ele>79</ele>
        <time>2020-12-29T11:29:20.000Z</time>
      </trkpt>
      <trkpt lat="47.16624" lon="-1.67197">
        <ele>78</ele>
        <time>2020-12-29T11:29:22.000Z</time>
      </trkpt>
      <trkpt lat="47.1662" lon="-1.67213">
        <ele>78</ele>
        <time>2020-12-29T11:29:24.000Z</time>
      </trkpt>
      <trkpt lat="47.16617" lon="-1.67228">
        <ele>78</ele>
        <time>2020-12-29T11:29:26.000Z</time>
      </trkpt>
      <trkpt lat="47.16615" lon="-1.67241">
        <ele>78</ele>
        <time>2020-12-29T11:29:28.000Z</time>
      </trkpt>
      <trkpt lat="47.16611" lon="-1.6726">
        <ele>78</ele>
        <time>2020-12-29T11:29:31.000Z</time>
      </trkpt>
      <trkpt lat="47.16607" lon="-1.67272">
        <ele>78</ele>
        <time>2020-12-29T11:29:33.000Z</time>
      </trkpt>
      <trkpt lat="47.16601" lon="-1.67286">
        <ele>78</ele>
        <time>2020-12-29T11:29:35.000Z</time>
      </trkpt>
      <trkpt lat="47.16596" lon="-1.67301">
        <ele>78</ele>
        <time>2020-12-29T11:29:37.000Z</time>
      </trkpt>
      <trkpt lat="47.16589" lon="-1.67316">
        <ele>79</ele>
        <time>2020-12-29T11:29:39.000Z</time>
      </trkpt>
      <trkpt lat="47.16582" lon="-1.67331">
        <ele>79</ele>
        <time>2020-12-29T11:29:41.000Z</time>
      </trkpt>
      <trkpt lat="47.16576" lon="-1.67346">
        <ele>79</ele>
        <time>2020-12-29T11:29:43.000Z</time>
      </trkpt>
      <trkpt lat="47.16568" lon="-1.67361">
        <ele>79</ele>
        <time>2020-12-29T11:29:45.000Z</time>
      </trkpt>
      <trkpt lat="47.16561" lon="-1.67374">
        <ele>79</ele>
        <time>2020-12-29T11:29:47.000Z</time>
      </trkpt>
      <trkpt lat="47.16551" lon="-1.67387">
        <ele>80</ele>
        <time>2020-12-29T11:29:49.000Z</time>
      </trkpt>
      <trkpt lat="47.16543" lon="-1.67399">
        <ele>80</ele>
        <time>2020-12-29T11:29:51.000Z</time>
      </trkpt>
      <trkpt lat="47.16534" lon="-1.67412">
        <ele>80</ele>
        <time>2020-12-29T11:29:53.000Z</time>
      </trkpt>
      <trkpt lat="47.16525" lon="-1.67425">
        <ele>79</ele>
        <time>2020-12-29T11:29:55.000Z</time>
      </trkpt>
      <trkpt lat="47.16517" lon="-1.67438">
        <ele>79</ele>
        <time>2020-12-29T11:29:57.000Z</time>
      </trkpt>
      <trkpt lat="47.16509" lon="-1.67452">
        <ele>78</ele>
        <time>2020-12-29T11:29:59.000Z</time>
      </trkpt>
      <trkpt lat="47.16501" lon="-1.67466">
        <ele>78</ele>
        <time>2020-12-29T11:30:01.000Z</time>
      </trkpt>
      <trkpt lat="47.16493" lon="-1.67479">
        <ele>78</ele>
        <time>2020-12-29T11:30:03.000Z</time>
      </trkpt>
      <trkpt lat="47.16485" lon="-1.67494">
        <ele>77</ele>
        <time>2020-12-29T11:30:05.000Z</time>
      </trkpt>
      <trkpt lat="47.16478" lon="-1.67507">
        <ele>77</ele>
        <time>2020-12-29T11:30:07.000Z</time>
      </trkpt>
      <trkpt lat="47.1647" lon="-1.67521">
        <ele>78</ele>
        <time>2020-12-29T11:30:09.000Z</time>
      </trkpt>
      <trkpt lat="47.16463" lon="-1.67534">
        <ele>78</ele>
        <time>2020-12-29T11:30:11.000Z</time>
      </trkpt>
      <trkpt lat="47.16455" lon="-1.67547">
        <ele>78</ele>
        <time>2020-12-29T11:30:13.000Z</time>
      </trkpt>
      <trkpt lat="47.16448" lon="-1.67561">
        <ele>78</ele>
        <time>2020-12-29T11:30:15.000Z</time>
      </trkpt>
      <trkpt lat="47.1644" lon="-1.67575">
        <ele>78</ele>
        <time>2020-12-29T11:30:17.000Z</time>
      </trkpt>
      <trkpt lat="47.16433" lon="-1.67589">
        <ele>77</ele>
        <time>2020-12-29T11:30:19.000Z</time>
      </trkpt>
      <trkpt lat="47.16426" lon="-1.67604">
        <ele>77</ele>
        <time>2020-12-29T11:30:21.000Z</time>
      </trkpt>
      <trkpt lat="47.16419" lon="-1.67618">
        <ele>77</ele>
        <time>2020-12-29T11:30:23.000Z</time>
      </trkpt>
      <trkpt lat="47.16412" lon="-1.67632">
        <ele>77</ele>
        <time>2020-12-29T11:30:25.000Z</time>
      </trkpt>
      <trkpt lat="47.16406" lon="-1.67646">
        <ele>77</ele>
        <time>2020-12-29T11:30:27.000Z</time>
      </trkpt>
      <trkpt lat="47.16399" lon="-1.67661">
        <ele>77</ele>
        <time>2020-12-29T11:30:29.000Z</time>
      </trkpt>
      <trkpt lat="47.16392" lon="-1.67675">
        <ele>77</ele>
        <time>2020-12-29T11:30:31.000Z</time>
      </trkpt>
      <trkpt lat="47.16385" lon="-1.67689">
        <ele>78</ele>
        <time>2020-12-29T11:30:33.000Z</time>
      </trkpt>
      <trkpt lat="47.16377" lon="-1.67704">
        <ele>78</ele>
        <time>2020-12-29T11:30:35.000Z</time>
      </trkpt>
      <trkpt lat="47.1637" lon="-1.67717">
        <ele>78</ele>
        <time>2020-12-29T11:30:37.000Z</time>
      </trkpt>
      <trkpt lat="47.16363" lon="-1.67732">
        <ele>78</ele>
        <time>2020-12-29T11:30:39.000Z</time>
      </trkpt>
      <trkpt lat="47.16357" lon="-1.67746">
        <ele>80</ele>
        <time>2020-12-29T11:30:41.000Z</time>
      </trkpt>
      <trkpt lat="47.1635" lon="-1.6776">
        <ele>81</ele>
        <time>2020-12-29T11:30:43.000Z</time>
      </trkpt>
      <trkpt lat="47.16342" lon="-1.67773">
        <ele>80</ele>
        <time>2020-12-29T11:30:45.000Z</time>
      </trkpt>
      <trkpt lat="47.16334" lon="-1.67786">
        <ele>81</ele>
        <time>2020-12-29T11:30:47.000Z</time>
      </trkpt>
      <trkpt lat="47.16327" lon="-1.67799">
        <ele>80</ele>
        <time>2020-12-29T11:30:49.000Z</time>
      </trkpt>
      <trkpt lat="47.16319" lon="-1.67812">
        <ele>80</ele>
        <time>2020-12-29T11:30:51.000Z</time>
      </trkpt>
      <trkpt lat="47.16312" lon="-1.67825">
        <ele>80</ele>
        <time>2020-12-29T11:30:53.000Z</time>
      </trkpt>
      <trkpt lat="47.16304" lon="-1.67838">
        <ele>80</ele>
        <time>2020-12-29T11:30:55.000Z</time>
      </trkpt>
      <trkpt lat="47.16297" lon="-1.67851">
        <ele>80</ele>
        <time>2020-12-29T11:30:57.000Z</time>
      </trkpt>
      <trkpt lat="47.16289" lon="-1.67865">
        <ele>80</ele>
        <time>2020-12-29T11:30:59.000Z</time>
      </trkpt>
      <trkpt lat="47.16282" lon="-1.67877">
        <ele>80</ele>
        <time>2020-12-29T11:31:01.000Z</time>
      </trkpt>
      <trkpt lat="47.16275" lon="-1.6789">
        <ele>80</ele>
        <time>2020-12-29T11:31:03.000Z</time>
      </trkpt>
      <trkpt lat="47.16268" lon="-1.67903">
        <ele>80</ele>
        <time>2020-12-29T11:31:05.000Z</time>
      </trkpt>
      <trkpt lat="47.16262" lon="-1.67915">
        <ele>81</ele>
        <time>2020-12-29T11:31:07.000Z</time>
      </trkpt>
      <trkpt lat="47.16254" lon="-1.67927">
        <ele>81</ele>
        <time>2020-12-29T11:31:09.000Z</time>
      </trkpt>
      <trkpt lat="47.16247" lon="-1.6794">
        <ele>82</ele>
        <time>2020-12-29T11:31:11.000Z</time>
      </trkpt>
      <trkpt lat="47.1624" lon="-1.67953">
        <ele>83</ele>
        <time>2020-12-29T11:31:13.000Z</time>
      </trkpt>
      <trkpt lat="47.16233" lon="-1.67963">
        <ele>84</ele>
        <time>2020-12-29T11:31:15.000Z</time>
      </trkpt>
      <trkpt lat="47.16226" lon="-1.67975">
        <ele>82</ele>
        <time>2020-12-29T11:31:18.000Z</time>
      </trkpt>
      <trkpt lat="47.16224" lon="-1.67988">
        <ele>81</ele>
        <time>2020-12-29T11:31:20.000Z</time>
      </trkpt>
      <trkpt lat="47.16212" lon="-1.67997">
        <ele>79</ele>
        <time>2020-12-29T11:31:22.000Z</time>
      </trkpt>
      <trkpt lat="47.162" lon="-1.68004">
        <ele>79</ele>
        <time>2020-12-29T11:31:24.000Z</time>
      </trkpt>
      <trkpt lat="47.16191" lon="-1.68017">
        <ele>78</ele>
        <time>2020-12-29T11:31:26.000Z</time>
      </trkpt>
      <trkpt lat="47.16183" lon="-1.6803">
        <ele>79</ele>
        <time>2020-12-29T11:31:28.000Z</time>
      </trkpt>
      <trkpt lat="47.16174" lon="-1.68041">
        <ele>79</ele>
        <time>2020-12-29T11:31:30.000Z</time>
      </trkpt>
      <trkpt lat="47.16166" lon="-1.68054">
        <ele>79</ele>
        <time>2020-12-29T11:31:32.000Z</time>
      </trkpt>
      <trkpt lat="47.16158" lon="-1.68066">
        <ele>79</ele>
        <time>2020-12-29T11:31:34.000Z</time>
      </trkpt>
      <trkpt lat="47.16151" lon="-1.6808">
        <ele>78</ele>
        <time>2020-12-29T11:31:36.000Z</time>
      </trkpt>
      <trkpt lat="47.16145" lon="-1.68095">
        <ele>78</ele>
        <time>2020-12-29T11:31:38.000Z</time>
      </trkpt>
      <trkpt lat="47.16141" lon="-1.68111">
        <ele>78</ele>
        <time>2020-12-29T11:31:40.000Z</time>
      </trkpt>
      <trkpt lat="47.16138" lon="-1.68128">
        <ele>77</ele>
        <time>2020-12-29T11:31:42.000Z</time>
      </trkpt>
      <trkpt lat="47.16135" lon="-1.68144">
        <ele>76</ele>
        <time>2020-12-29T11:31:44.000Z</time>
      </trkpt>
      <trkpt lat="47.16131" lon="-1.6816">
        <ele>76</ele>
        <time>2020-12-29T11:31:46.000Z</time>
      </trkpt>
      <trkpt lat="47.16127" lon="-1.68175">
        <ele>77</ele>
        <time>2020-12-29T11:31:48.000Z</time>
      </trkpt>
      <trkpt lat="47.16124" lon="-1.6819">
        <ele>77</ele>
        <time>2020-12-29T11:31:50.000Z</time>
      </trkpt>
      <trkpt lat="47.16121" lon="-1.68206">
        <ele>77</ele>
        <time>2020-12-29T11:31:52.000Z</time>
      </trkpt>
      <trkpt lat="47.16119" lon="-1.68222">
        <ele>77</ele>
        <time>2020-12-29T11:31:54.000Z</time>
      </trkpt>
      <trkpt lat="47.16116" lon="-1.68237">
        <ele>78</ele>
        <time>2020-12-29T11:31:56.000Z</time>
      </trkpt>
      <trkpt lat="47.16112" lon="-1.68253">
        <ele>78</ele>
        <time>2020-12-29T11:31:58.000Z</time>
      </trkpt>
      <trkpt lat="47.16109" lon="-1.68272">
        <ele>78</ele>
        <time>2020-12-29T11:32:00.000Z</time>
      </trkpt>
      <trkpt lat="47.16105" lon="-1.68294">
        <ele>76</ele>
        <time>2020-12-29T11:32:02.000Z</time>
      </trkpt>
      <trkpt lat="47.161" lon="-1.68314">
        <ele>76</ele>
        <time>2020-12-29T11:32:04.000Z</time>
      </trkpt>
      <trkpt lat="47.16097" lon="-1.68333">
        <ele>76</ele>
        <time>2020-12-29T11:32:06.000Z</time>
      </trkpt>
      <trkpt lat="47.16094" lon="-1.6835">
        <ele>76</ele>
        <time>2020-12-29T11:32:08.000Z</time>
      </trkpt>
      <trkpt lat="47.16091" lon="-1.68367">
        <ele>77</ele>
        <time>2020-12-29T11:32:10.000Z</time>
      </trkpt>
      <trkpt lat="47.16087" lon="-1.68383">
        <ele>76</ele>
        <time>2020-12-29T11:32:12.000Z</time>
      </trkpt>
      <trkpt lat="47.16083" lon="-1.68398">
        <ele>76</ele>
        <time>2020-12-29T11:32:14.000Z</time>
      </trkpt>
      <trkpt lat="47.1608" lon="-1.68414">
        <ele>75</ele>
        <time>2020-12-29T11:32:16.000Z</time>
      </trkpt>
      <trkpt lat="47.16077" lon="-1.6843">
        <ele>75</ele>
        <time>2020-12-29T11:32:18.000Z</time>
      </trkpt>
      <trkpt lat="47.16073" lon="-1.68446">
        <ele>75</ele>
        <time>2020-12-29T11:32:20.000Z</time>
      </trkpt>
      <trkpt lat="47.1607" lon="-1.68461">
        <ele>75</ele>
        <time>2020-12-29T11:32:22.000Z</time>
      </trkpt>
      <trkpt lat="47.16066" lon="-1.68478">
        <ele>74</ele>
        <time>2020-12-29T11:32:24.000Z</time>
      </trkpt>
      <trkpt lat="47.16064" lon="-1.68494">
        <ele>74</ele>
        <time>2020-12-29T11:32:26.000Z</time>
      </trkpt>
      <trkpt lat="47.16061" lon="-1.68511">
        <ele>74</ele>
        <time>2020-12-29T11:32:28.000Z</time>
      </trkpt>
      <trkpt lat="47.16059" lon="-1.68528">
        <ele>74</ele>
        <time>2020-12-29T11:32:30.000Z</time>
      </trkpt>
      <trkpt lat="47.16057" lon="-1.68544">
        <ele>74</ele>
        <time>2020-12-29T11:32:32.000Z</time>
      </trkpt>
      <trkpt lat="47.16054" lon="-1.68561">
        <ele>74</ele>
        <time>2020-12-29T11:32:34.000Z</time>
      </trkpt>
      <trkpt lat="47.16052" lon="-1.68578">
        <ele>74</ele>
        <time>2020-12-29T11:32:36.000Z</time>
      </trkpt>
      <trkpt lat="47.1605" lon="-1.68595">
        <ele>73</ele>
        <time>2020-12-29T11:32:38.000Z</time>
      </trkpt>
      <trkpt lat="47.16048" lon="-1.68612">
        <ele>74</ele>
        <time>2020-12-29T11:32:40.000Z</time>
      </trkpt>
      <trkpt lat="47.16046" lon="-1.68629">
        <ele>73</ele>
        <time>2020-12-29T11:32:42.000Z</time>
      </trkpt>
      <trkpt lat="47.16045" lon="-1.68645">
        <ele>73</ele>
        <time>2020-12-29T11:32:44.000Z</time>
      </trkpt>
      <trkpt lat="47.16045" lon="-1.68661">
        <ele>73</ele>
        <time>2020-12-29T11:32:46.000Z</time>
      </trkpt>
      <trkpt lat="47.16046" lon="-1.68678">
        <ele>73</ele>
        <time>2020-12-29T11:32:48.000Z</time>
      </trkpt>
      <trkpt lat="47.16047" lon="-1.68694">
        <ele>73</ele>
        <time>2020-12-29T11:32:50.000Z</time>
      </trkpt>
      <trkpt lat="47.16048" lon="-1.6871">
        <ele>74</ele>
        <time>2020-12-29T11:32:52.000Z</time>
      </trkpt>
      <trkpt lat="47.1605" lon="-1.68727">
        <ele>74</ele>
        <time>2020-12-29T11:32:54.000Z</time>
      </trkpt>
      <trkpt lat="47.16053" lon="-1.68743">
        <ele>75</ele>
        <time>2020-12-29T11:32:56.000Z</time>
      </trkpt>
      <trkpt lat="47.16056" lon="-1.68759">
        <ele>75</ele>
        <time>2020-12-29T11:32:58.000Z</time>
      </trkpt>
      <trkpt lat="47.16059" lon="-1.68774">
        <ele>75</ele>
        <time>2020-12-29T11:33:00.000Z</time>
      </trkpt>
      <trkpt lat="47.16063" lon="-1.68789">
        <ele>75</ele>
        <time>2020-12-29T11:33:02.000Z</time>
      </trkpt>
      <trkpt lat="47.16068" lon="-1.68804">
        <ele>75</ele>
        <time>2020-12-29T11:33:04.000Z</time>
      </trkpt>
      <trkpt lat="47.16072" lon="-1.68819">
        <ele>76</ele>
        <time>2020-12-29T11:33:06.000Z</time>
      </trkpt>
      <trkpt lat="47.16076" lon="-1.68834">
        <ele>76</ele>
        <time>2020-12-29T11:33:08.000Z</time>
      </trkpt>
      <trkpt lat="47.1608" lon="-1.68849">
        <ele>76</ele>
        <time>2020-12-29T11:33:10.000Z</time>
      </trkpt>
      <trkpt lat="47.16085" lon="-1.68864">
        <ele>76</ele>
        <time>2020-12-29T11:33:12.000Z</time>
      </trkpt>
      <trkpt lat="47.16089" lon="-1.68879">
        <ele>76</ele>
        <time>2020-12-29T11:33:14.000Z</time>
      </trkpt>
      <trkpt lat="47.16094" lon="-1.68894">
        <ele>76</ele>
        <time>2020-12-29T11:33:16.000Z</time>
      </trkpt>
      <trkpt lat="47.16098" lon="-1.6891">
        <ele>76</ele>
        <time>2020-12-29T11:33:18.000Z</time>
      </trkpt>
      <trkpt lat="47.16102" lon="-1.68925">
        <ele>76</ele>
        <time>2020-12-29T11:33:20.000Z</time>
      </trkpt>
      <trkpt lat="47.16107" lon="-1.68941">
        <ele>75</ele>
        <time>2020-12-29T11:33:22.000Z</time>
      </trkpt>
      <trkpt lat="47.16112" lon="-1.68957">
        <ele>74</ele>
        <time>2020-12-29T11:33:24.000Z</time>
      </trkpt>
      <trkpt lat="47.16117" lon="-1.68973">
        <ele>74</ele>
        <time>2020-12-29T11:33:26.000Z</time>
      </trkpt>
      <trkpt lat="47.16121" lon="-1.68989">
        <ele>74</ele>
        <time>2020-12-29T11:33:28.000Z</time>
      </trkpt>
      <trkpt lat="47.16126" lon="-1.69006">
        <ele>74</ele>
        <time>2020-12-29T11:33:30.000Z</time>
      </trkpt>
      <trkpt lat="47.16131" lon="-1.69023">
        <ele>73</ele>
        <time>2020-12-29T11:33:32.000Z</time>
      </trkpt>
      <trkpt lat="47.16135" lon="-1.69041">
        <ele>73</ele>
        <time>2020-12-29T11:33:34.000Z</time>
      </trkpt>
      <trkpt lat="47.16138" lon="-1.69059">
        <ele>73</ele>
        <time>2020-12-29T11:33:36.000Z</time>
      </trkpt>
      <trkpt lat="47.1614" lon="-1.69077">
        <ele>73</ele>
        <time>2020-12-29T11:33:38.000Z</time>
      </trkpt>
      <trkpt lat="47.16143" lon="-1.69095">
        <ele>73</ele>
        <time>2020-12-29T11:33:40.000Z</time>
      </trkpt>
      <trkpt lat="47.16144" lon="-1.69113">
        <ele>72</ele>
        <time>2020-12-29T11:33:42.000Z</time>
      </trkpt>
      <trkpt lat="47.16146" lon="-1.69131">
        <ele>72</ele>
        <time>2020-12-29T11:33:44.000Z</time>
      </trkpt>
      <trkpt lat="47.16146" lon="-1.6915">
        <ele>72</ele>
        <time>2020-12-29T11:33:46.000Z</time>
      </trkpt>
      <trkpt lat="47.16146" lon="-1.69167">
        <ele>72</ele>
        <time>2020-12-29T11:33:48.000Z</time>
      </trkpt>
      <trkpt lat="47.16145" lon="-1.69185">
        <ele>71</ele>
        <time>2020-12-29T11:33:50.000Z</time>
      </trkpt>
      <trkpt lat="47.16145" lon="-1.69204">
        <ele>71</ele>
        <time>2020-12-29T11:33:52.000Z</time>
      </trkpt>
      <trkpt lat="47.16144" lon="-1.69223">
        <ele>71</ele>
        <time>2020-12-29T11:33:54.000Z</time>
      </trkpt>
      <trkpt lat="47.16142" lon="-1.69242">
        <ele>71</ele>
        <time>2020-12-29T11:33:56.000Z</time>
      </trkpt>
      <trkpt lat="47.16141" lon="-1.6926">
        <ele>71</ele>
        <time>2020-12-29T11:33:58.000Z</time>
      </trkpt>
      <trkpt lat="47.16139" lon="-1.69279">
        <ele>71</ele>
        <time>2020-12-29T11:34:00.000Z</time>
      </trkpt>
      <trkpt lat="47.16136" lon="-1.69297">
        <ele>72</ele>
        <time>2020-12-29T11:34:02.000Z</time>
      </trkpt>
      <trkpt lat="47.16133" lon="-1.69315">
        <ele>72</ele>
        <time>2020-12-29T11:34:04.000Z</time>
      </trkpt>
      <trkpt lat="47.16131" lon="-1.69331">
        <ele>72</ele>
        <time>2020-12-29T11:34:06.000Z</time>
      </trkpt>
      <trkpt lat="47.16128" lon="-1.69347">
        <ele>72</ele>
        <time>2020-12-29T11:34:08.000Z</time>
      </trkpt>
      <trkpt lat="47.16126" lon="-1.69364">
        <ele>72</ele>
        <time>2020-12-29T11:34:10.000Z</time>
      </trkpt>
      <trkpt lat="47.16123" lon="-1.69381">
        <ele>72</ele>
        <time>2020-12-29T11:34:12.000Z</time>
      </trkpt>
      <trkpt lat="47.16122" lon="-1.69397">
        <ele>71</ele>
        <time>2020-12-29T11:34:14.000Z</time>
      </trkpt>
      <trkpt lat="47.16121" lon="-1.69414">
        <ele>71</ele>
        <time>2020-12-29T11:34:16.000Z</time>
      </trkpt>
      <trkpt lat="47.1612" lon="-1.6943">
        <ele>71</ele>
        <time>2020-12-29T11:34:18.000Z</time>
      </trkpt>
      <trkpt lat="47.16118" lon="-1.69446">
        <ele>72</ele>
        <time>2020-12-29T11:34:20.000Z</time>
      </trkpt>
      <trkpt lat="47.16117" lon="-1.69462">
        <ele>72</ele>
        <time>2020-12-29T11:34:22.000Z</time>
      </trkpt>
      <trkpt lat="47.16116" lon="-1.69478">
        <ele>71</ele>
        <time>2020-12-29T11:34:24.000Z</time>
      </trkpt>
      <trkpt lat="47.16115" lon="-1.69495">
        <ele>72</ele>
        <time>2020-12-29T11:34:26.000Z</time>
      </trkpt>
      <trkpt lat="47.16114" lon="-1.69512">
        <ele>72</ele>
        <time>2020-12-29T11:34:28.000Z</time>
      </trkpt>
      <trkpt lat="47.16113" lon="-1.69528">
        <ele>72</ele>
        <time>2020-12-29T11:34:30.000Z</time>
      </trkpt>
      <trkpt lat="47.16111" lon="-1.69545">
        <ele>72</ele>
        <time>2020-12-29T11:34:32.000Z</time>
      </trkpt>
      <trkpt lat="47.1611" lon="-1.69562">
        <ele>72</ele>
        <time>2020-12-29T11:34:34.000Z</time>
      </trkpt>
      <trkpt lat="47.16108" lon="-1.69579">
        <ele>72</ele>
        <time>2020-12-29T11:34:36.000Z</time>
      </trkpt>
      <trkpt lat="47.16107" lon="-1.69596">
        <ele>72</ele>
        <time>2020-12-29T11:34:38.000Z</time>
      </trkpt>
      <trkpt lat="47.16106" lon="-1.69612">
        <ele>72</ele>
        <time>2020-12-29T11:34:40.000Z</time>
      </trkpt>
      <trkpt lat="47.16105" lon="-1.69627">
        <ele>72</ele>
        <time>2020-12-29T11:34:42.000Z</time>
      </trkpt>
      <trkpt lat="47.16103" lon="-1.69644">
        <ele>71</ele>
        <time>2020-12-29T11:34:44.000Z</time>
      </trkpt>
      <trkpt lat="47.16102" lon="-1.69662">
        <ele>71</ele>
        <time>2020-12-29T11:34:46.000Z</time>
      </trkpt>
      <trkpt lat="47.16101" lon="-1.69678">
        <ele>71</ele>
        <time>2020-12-29T11:34:48.000Z</time>
      </trkpt>
      <trkpt lat="47.161" lon="-1.69694">
        <ele>71</ele>
        <time>2020-12-29T11:34:50.000Z</time>
      </trkpt>
      <trkpt lat="47.16098" lon="-1.69711">
        <ele>71</ele>
        <time>2020-12-29T11:34:52.000Z</time>
      </trkpt>
      <trkpt lat="47.16097" lon="-1.69727">
        <ele>72</ele>
        <time>2020-12-29T11:34:54.000Z</time>
      </trkpt>
      <trkpt lat="47.16096" lon="-1.69744">
        <ele>72</ele>
        <time>2020-12-29T11:34:56.000Z</time>
      </trkpt>
      <trkpt lat="47.16095" lon="-1.6976">
        <ele>72</ele>
        <time>2020-12-29T11:34:58.000Z</time>
      </trkpt>
      <trkpt lat="47.16094" lon="-1.69777">
        <ele>72</ele>
        <time>2020-12-29T11:35:00.000Z</time>
      </trkpt>
      <trkpt lat="47.16093" lon="-1.69793">
        <ele>72</ele>
        <time>2020-12-29T11:35:02.000Z</time>
      </trkpt>
      <trkpt lat="47.16092" lon="-1.6981">
        <ele>72</ele>
        <time>2020-12-29T11:35:04.000Z</time>
      </trkpt>
      <trkpt lat="47.16091" lon="-1.69827">
        <ele>72</ele>
        <time>2020-12-29T11:35:06.000Z</time>
      </trkpt>
      <trkpt lat="47.1609" lon="-1.69843">
        <ele>72</ele>
        <time>2020-12-29T11:35:08.000Z</time>
      </trkpt>
      <trkpt lat="47.16088" lon="-1.6986">
        <ele>72</ele>
        <time>2020-12-29T11:35:10.000Z</time>
      </trkpt>
      <trkpt lat="47.16087" lon="-1.69875">
        <ele>73</ele>
        <time>2020-12-29T11:35:12.000Z</time>
      </trkpt>
      <trkpt lat="47.16086" lon="-1.69892">
        <ele>73</ele>
        <time>2020-12-29T11:35:14.000Z</time>
      </trkpt>
      <trkpt lat="47.16086" lon="-1.69909">
        <ele>73</ele>
        <time>2020-12-29T11:35:16.000Z</time>
      </trkpt>
      <trkpt lat="47.16085" lon="-1.69926">
        <ele>73</ele>
        <time>2020-12-29T11:35:18.000Z</time>
      </trkpt>
      <trkpt lat="47.16084" lon="-1.69943">
        <ele>72</ele>
        <time>2020-12-29T11:35:20.000Z</time>
      </trkpt>
      <trkpt lat="47.16083" lon="-1.6996">
        <ele>72</ele>
        <time>2020-12-29T11:35:22.000Z</time>
      </trkpt>
      <trkpt lat="47.16082" lon="-1.69977">
        <ele>72</ele>
        <time>2020-12-29T11:35:24.000Z</time>
      </trkpt>
      <trkpt lat="47.1608" lon="-1.69995">
        <ele>72</ele>
        <time>2020-12-29T11:35:26.000Z</time>
      </trkpt>
      <trkpt lat="47.16079" lon="-1.70013">
        <ele>72</ele>
        <time>2020-12-29T11:35:28.000Z</time>
      </trkpt>
      <trkpt lat="47.16077" lon="-1.70031">
        <ele>72</ele>
        <time>2020-12-29T11:35:30.000Z</time>
      </trkpt>
      <trkpt lat="47.16076" lon="-1.70047">
        <ele>73</ele>
        <time>2020-12-29T11:35:32.000Z</time>
      </trkpt>
      <trkpt lat="47.16075" lon="-1.70064">
        <ele>73</ele>
        <time>2020-12-29T11:35:34.000Z</time>
      </trkpt>
      <trkpt lat="47.16074" lon="-1.70081">
        <ele>72</ele>
        <time>2020-12-29T11:35:36.000Z</time>
      </trkpt>
      <trkpt lat="47.16072" lon="-1.70098">
        <ele>72</ele>
        <time>2020-12-29T11:35:38.000Z</time>
      </trkpt>
      <trkpt lat="47.16069" lon="-1.70116">
        <ele>72</ele>
        <time>2020-12-29T11:35:40.000Z</time>
      </trkpt>
      <trkpt lat="47.16066" lon="-1.70133">
        <ele>72</ele>
        <time>2020-12-29T11:35:42.000Z</time>
      </trkpt>
      <trkpt lat="47.16061" lon="-1.70149">
        <ele>72</ele>
        <time>2020-12-29T11:35:44.000Z</time>
      </trkpt>
      <trkpt lat="47.16056" lon="-1.70164">
        <ele>73</ele>
        <time>2020-12-29T11:35:46.000Z</time>
      </trkpt>
      <trkpt lat="47.16049" lon="-1.70178">
        <ele>73</ele>
        <time>2020-12-29T11:35:48.000Z</time>
      </trkpt>
      <trkpt lat="47.16043" lon="-1.70193">
        <ele>73</ele>
        <time>2020-12-29T11:35:50.000Z</time>
      </trkpt>
      <trkpt lat="47.16036" lon="-1.70208">
        <ele>74</ele>
        <time>2020-12-29T11:35:52.000Z</time>
      </trkpt>
      <trkpt lat="47.1603" lon="-1.70222">
        <ele>74</ele>
        <time>2020-12-29T11:35:54.000Z</time>
      </trkpt>
      <trkpt lat="47.16023" lon="-1.70237">
        <ele>74</ele>
        <time>2020-12-29T11:35:56.000Z</time>
      </trkpt>
      <trkpt lat="47.16017" lon="-1.70252">
        <ele>74</ele>
        <time>2020-12-29T11:35:58.000Z</time>
      </trkpt>
      <trkpt lat="47.1601" lon="-1.70266">
        <ele>75</ele>
        <time>2020-12-29T11:36:00.000Z</time>
      </trkpt>
      <trkpt lat="47.16004" lon="-1.70281">
        <ele>74</ele>
        <time>2020-12-29T11:36:02.000Z</time>
      </trkpt>
      <trkpt lat="47.15997" lon="-1.70295">
        <ele>75</ele>
        <time>2020-12-29T11:36:04.000Z</time>
      </trkpt>
      <trkpt lat="47.15991" lon="-1.7031">
        <ele>75</ele>
        <time>2020-12-29T11:36:06.000Z</time>
      </trkpt>
      <trkpt lat="47.15984" lon="-1.70325">
        <ele>75</ele>
        <time>2020-12-29T11:36:08.000Z</time>
      </trkpt>
      <trkpt lat="47.15977" lon="-1.7034">
        <ele>75</ele>
        <time>2020-12-29T11:36:10.000Z</time>
      </trkpt>
      <trkpt lat="47.1597" lon="-1.70355">
        <ele>75</ele>
        <time>2020-12-29T11:36:12.000Z</time>
      </trkpt>
      <trkpt lat="47.15964" lon="-1.7037">
        <ele>76</ele>
        <time>2020-12-29T11:36:14.000Z</time>
      </trkpt>
      <trkpt lat="47.15958" lon="-1.70386">
        <ele>76</ele>
        <time>2020-12-29T11:36:16.000Z</time>
      </trkpt>
      <trkpt lat="47.15951" lon="-1.70401">
        <ele>76</ele>
        <time>2020-12-29T11:36:18.000Z</time>
      </trkpt>
      <trkpt lat="47.15945" lon="-1.70416">
        <ele>76</ele>
        <time>2020-12-29T11:36:20.000Z</time>
      </trkpt>
      <trkpt lat="47.15938" lon="-1.7043">
        <ele>76</ele>
        <time>2020-12-29T11:36:22.000Z</time>
      </trkpt>
      <trkpt lat="47.15931" lon="-1.70445">
        <ele>75</ele>
        <time>2020-12-29T11:36:24.000Z</time>
      </trkpt>
      <trkpt lat="47.15925" lon="-1.7046">
        <ele>75</ele>
        <time>2020-12-29T11:36:26.000Z</time>
      </trkpt>
      <trkpt lat="47.15917" lon="-1.70475">
        <ele>75</ele>
        <time>2020-12-29T11:36:28.000Z</time>
      </trkpt>
      <trkpt lat="47.1591" lon="-1.70488">
        <ele>75</ele>
        <time>2020-12-29T11:36:30.000Z</time>
      </trkpt>
      <trkpt lat="47.15903" lon="-1.70503">
        <ele>74</ele>
        <time>2020-12-29T11:36:32.000Z</time>
      </trkpt>
      <trkpt lat="47.15898" lon="-1.70517">
        <ele>74</ele>
        <time>2020-12-29T11:36:34.000Z</time>
      </trkpt>
      <trkpt lat="47.15892" lon="-1.70532">
        <ele>73</ele>
        <time>2020-12-29T11:36:36.000Z</time>
      </trkpt>
      <trkpt lat="47.15888" lon="-1.70548">
        <ele>73</ele>
        <time>2020-12-29T11:36:38.000Z</time>
      </trkpt>
      <trkpt lat="47.15884" lon="-1.70564">
        <ele>72</ele>
        <time>2020-12-29T11:36:40.000Z</time>
      </trkpt>
      <trkpt lat="47.1588" lon="-1.70579">
        <ele>72</ele>
        <time>2020-12-29T11:36:42.000Z</time>
      </trkpt>
      <trkpt lat="47.15875" lon="-1.70594">
        <ele>72</ele>
        <time>2020-12-29T11:36:44.000Z</time>
      </trkpt>
      <trkpt lat="47.15871" lon="-1.7061">
        <ele>72</ele>
        <time>2020-12-29T11:36:46.000Z</time>
      </trkpt>
      <trkpt lat="47.15867" lon="-1.70625">
        <ele>72</ele>
        <time>2020-12-29T11:36:48.000Z</time>
      </trkpt>
      <trkpt lat="47.15862" lon="-1.7064">
        <ele>72</ele>
        <time>2020-12-29T11:36:50.000Z</time>
      </trkpt>
      <trkpt lat="47.15856" lon="-1.70654">
        <ele>72</ele>
        <time>2020-12-29T11:36:52.000Z</time>
      </trkpt>
      <trkpt lat="47.15851" lon="-1.70668">
        <ele>72</ele>
        <time>2020-12-29T11:36:54.000Z</time>
      </trkpt>
      <trkpt lat="47.15845" lon="-1.70681">
        <ele>72</ele>
        <time>2020-12-29T11:36:56.000Z</time>
      </trkpt>
      <trkpt lat="47.15839" lon="-1.70695">
        <ele>72</ele>
        <time>2020-12-29T11:36:58.000Z</time>
      </trkpt>
      <trkpt lat="47.15833" lon="-1.70708">
        <ele>72</ele>
        <time>2020-12-29T11:37:00.000Z</time>
      </trkpt>
      <trkpt lat="47.15826" lon="-1.70722">
        <ele>72</ele>
        <time>2020-12-29T11:37:02.000Z</time>
      </trkpt>
      <trkpt lat="47.1582" lon="-1.70736">
        <ele>72</ele>
        <time>2020-12-29T11:37:04.000Z</time>
      </trkpt>
      <trkpt lat="47.15814" lon="-1.7075">
        <ele>73</ele>
        <time>2020-12-29T11:37:06.000Z</time>
      </trkpt>
      <trkpt lat="47.15807" lon="-1.70764">
        <ele>73</ele>
        <time>2020-12-29T11:37:08.000Z</time>
      </trkpt>
      <trkpt lat="47.158" lon="-1.70778">
        <ele>73</ele>
        <time>2020-12-29T11:37:10.000Z</time>
      </trkpt>
      <trkpt lat="47.15794" lon="-1.70792">
        <ele>73</ele>
        <time>2020-12-29T11:37:12.000Z</time>
      </trkpt>
      <trkpt lat="47.15787" lon="-1.70805">
        <ele>73</ele>
        <time>2020-12-29T11:37:14.000Z</time>
      </trkpt>
      <trkpt lat="47.1578" lon="-1.70819">
        <ele>73</ele>
        <time>2020-12-29T11:37:16.000Z</time>
      </trkpt>
      <trkpt lat="47.15774" lon="-1.70832">
        <ele>73</ele>
        <time>2020-12-29T11:37:18.000Z</time>
      </trkpt>
      <trkpt lat="47.15767" lon="-1.70845">
        <ele>73</ele>
        <time>2020-12-29T11:37:20.000Z</time>
      </trkpt>
      <trkpt lat="47.15761" lon="-1.70858">
        <ele>73</ele>
        <time>2020-12-29T11:37:22.000Z</time>
      </trkpt>
      <trkpt lat="47.15754" lon="-1.7087">
        <ele>74</ele>
        <time>2020-12-29T11:37:24.000Z</time>
      </trkpt>
      <trkpt lat="47.15747" lon="-1.70883">
        <ele>74</ele>
        <time>2020-12-29T11:37:26.000Z</time>
      </trkpt>
      <trkpt lat="47.15739" lon="-1.70895">
        <ele>73</ele>
        <time>2020-12-29T11:37:28.000Z</time>
      </trkpt>
      <trkpt lat="47.15732" lon="-1.70909">
        <ele>73</ele>
        <time>2020-12-29T11:37:30.000Z</time>
      </trkpt>
      <trkpt lat="47.15725" lon="-1.70921">
        <ele>73</ele>
        <time>2020-12-29T11:37:32.000Z</time>
      </trkpt>
      <trkpt lat="47.15718" lon="-1.70934">
        <ele>73</ele>
        <time>2020-12-29T11:37:34.000Z</time>
      </trkpt>
      <trkpt lat="47.15712" lon="-1.70948">
        <ele>73</ele>
        <time>2020-12-29T11:37:36.000Z</time>
      </trkpt>
      <trkpt lat="47.15705" lon="-1.70961">
        <ele>73</ele>
        <time>2020-12-29T11:37:38.000Z</time>
      </trkpt>
      <trkpt lat="47.15699" lon="-1.70974">
        <ele>73</ele>
        <time>2020-12-29T11:37:40.000Z</time>
      </trkpt>
      <trkpt lat="47.15693" lon="-1.70987">
        <ele>73</ele>
        <time>2020-12-29T11:37:42.000Z</time>
      </trkpt>
      <trkpt lat="47.15686" lon="-1.71001">
        <ele>73</ele>
        <time>2020-12-29T11:37:44.000Z</time>
      </trkpt>
      <trkpt lat="47.1568" lon="-1.71014">
        <ele>73</ele>
        <time>2020-12-29T11:37:46.000Z</time>
      </trkpt>
      <trkpt lat="47.15674" lon="-1.71028">
        <ele>73</ele>
        <time>2020-12-29T11:37:48.000Z</time>
      </trkpt>
      <trkpt lat="47.15668" lon="-1.71041">
        <ele>73</ele>
        <time>2020-12-29T11:37:50.000Z</time>
      </trkpt>
      <trkpt lat="47.15663" lon="-1.71054">
        <ele>72</ele>
        <time>2020-12-29T11:37:52.000Z</time>
      </trkpt>
      <trkpt lat="47.1566" lon="-1.71067">
        <ele>72</ele>
        <time>2020-12-29T11:37:54.000Z</time>
      </trkpt>
      <trkpt lat="47.15665" lon="-1.71081">
        <ele>72</ele>
        <time>2020-12-29T11:37:56.000Z</time>
      </trkpt>
      <trkpt lat="47.15675" lon="-1.71091">
        <ele>73</ele>
        <time>2020-12-29T11:37:58.000Z</time>
      </trkpt>
      <trkpt lat="47.15684" lon="-1.71101">
        <ele>73</ele>
        <time>2020-12-29T11:38:00.000Z</time>
      </trkpt>
      <trkpt lat="47.15693" lon="-1.71111">
        <ele>73</ele>
        <time>2020-12-29T11:38:02.000Z</time>
      </trkpt>
      <trkpt lat="47.15703" lon="-1.71122">
        <ele>73</ele>
        <time>2020-12-29T11:38:04.000Z</time>
      </trkpt>
      <trkpt lat="47.15712" lon="-1.71133">
        <ele>73</ele>
        <time>2020-12-29T11:38:06.000Z</time>
      </trkpt>
      <trkpt lat="47.15722" lon="-1.71145">
        <ele>73</ele>
        <time>2020-12-29T11:38:08.000Z</time>
      </trkpt>
      <trkpt lat="47.15731" lon="-1.71156">
        <ele>74</ele>
        <time>2020-12-29T11:38:10.000Z</time>
      </trkpt>
      <trkpt lat="47.15739" lon="-1.71168">
        <ele>74</ele>
        <time>2020-12-29T11:38:12.000Z</time>
      </trkpt>
      <trkpt lat="47.15747" lon="-1.71181">
        <ele>74</ele>
        <time>2020-12-29T11:38:14.000Z</time>
      </trkpt>
      <trkpt lat="47.15755" lon="-1.71194">
        <ele>74</ele>
        <time>2020-12-29T11:38:16.000Z</time>
      </trkpt>
      <trkpt lat="47.15763" lon="-1.71207">
        <ele>74</ele>
        <time>2020-12-29T11:38:18.000Z</time>
      </trkpt>
      <trkpt lat="47.15771" lon="-1.71221">
        <ele>74</ele>
        <time>2020-12-29T11:38:20.000Z</time>
      </trkpt>
      <trkpt lat="47.15779" lon="-1.71234">
        <ele>74</ele>
        <time>2020-12-29T11:38:22.000Z</time>
      </trkpt>
      <trkpt lat="47.15786" lon="-1.71247">
        <ele>74</ele>
        <time>2020-12-29T11:38:24.000Z</time>
      </trkpt>
      <trkpt lat="47.15793" lon="-1.71261">
        <ele>73</ele>
        <time>2020-12-29T11:38:26.000Z</time>
      </trkpt>
      <trkpt lat="47.158" lon="-1.71275">
        <ele>73</ele>
        <time>2020-12-29T11:38:28.000Z</time>
      </trkpt>
      <trkpt lat="47.15807" lon="-1.71289">
        <ele>73</ele>
        <time>2020-12-29T11:38:30.000Z</time>
      </trkpt>
      <trkpt lat="47.15814" lon="-1.71302">
        <ele>73</ele>
        <time>2020-12-29T11:38:32.000Z</time>
      </trkpt>
      <trkpt lat="47.15821" lon="-1.71316">
        <ele>73</ele>
        <time>2020-12-29T11:38:34.000Z</time>
      </trkpt>
      <trkpt lat="47.15828" lon="-1.7133">
        <ele>73</ele>
        <time>2020-12-29T11:38:36.000Z</time>
      </trkpt>
      <trkpt lat="47.15835" lon="-1.71344">
        <ele>73</ele>
        <time>2020-12-29T11:38:38.000Z</time>
      </trkpt>
      <trkpt lat="47.15843" lon="-1.71357">
        <ele>73</ele>
        <time>2020-12-29T11:38:40.000Z</time>
      </trkpt>
      <trkpt lat="47.1585" lon="-1.7137">
        <ele>73</ele>
        <time>2020-12-29T11:38:42.000Z</time>
      </trkpt>
      <trkpt lat="47.15859" lon="-1.71383">
        <ele>73</ele>
        <time>2020-12-29T11:38:44.000Z</time>
      </trkpt>
      <trkpt lat="47.15867" lon="-1.71395">
        <ele>73</ele>
        <time>2020-12-29T11:38:46.000Z</time>
      </trkpt>
      <trkpt lat="47.15876" lon="-1.71406">
        <ele>73</ele>
        <time>2020-12-29T11:38:48.000Z</time>
      </trkpt>
      <trkpt lat="47.15885" lon="-1.71417">
        <ele>73</ele>
        <time>2020-12-29T11:38:50.000Z</time>
      </trkpt>
      <trkpt lat="47.15894" lon="-1.7143">
        <ele>73</ele>
        <time>2020-12-29T11:38:52.000Z</time>
      </trkpt>
      <trkpt lat="47.15904" lon="-1.71442">
        <ele>73</ele>
        <time>2020-12-29T11:38:54.000Z</time>
      </trkpt>
      <trkpt lat="47.15913" lon="-1.71454">
        <ele>73</ele>
        <time>2020-12-29T11:38:56.000Z</time>
      </trkpt>
      <trkpt lat="47.15922" lon="-1.71467">
        <ele>73</ele>
        <time>2020-12-29T11:38:58.000Z</time>
      </trkpt>
      <trkpt lat="47.15932" lon="-1.7148">
        <ele>73</ele>
        <time>2020-12-29T11:39:00.000Z</time>
      </trkpt>
      <trkpt lat="47.15941" lon="-1.71493">
        <ele>72</ele>
        <time>2020-12-29T11:39:02.000Z</time>
      </trkpt>
      <trkpt lat="47.15951" lon="-1.71505">
        <ele>72</ele>
        <time>2020-12-29T11:39:04.000Z</time>
      </trkpt>
      <trkpt lat="47.15961" lon="-1.71516">
        <ele>72</ele>
        <time>2020-12-29T11:39:06.000Z</time>
      </trkpt>
      <trkpt lat="47.15971" lon="-1.71526">
        <ele>72</ele>
        <time>2020-12-29T11:39:08.000Z</time>
      </trkpt>
      <trkpt lat="47.15981" lon="-1.71536">
        <ele>72</ele>
        <time>2020-12-29T11:39:10.000Z</time>
      </trkpt>
      <trkpt lat="47.15991" lon="-1.71546">
        <ele>72</ele>
        <time>2020-12-29T11:39:12.000Z</time>
      </trkpt>
      <trkpt lat="47.16002" lon="-1.71555">
        <ele>72</ele>
        <time>2020-12-29T11:39:14.000Z</time>
      </trkpt>
      <trkpt lat="47.16012" lon="-1.71566">
        <ele>72</ele>
        <time>2020-12-29T11:39:16.000Z</time>
      </trkpt>
      <trkpt lat="47.16022" lon="-1.71577">
        <ele>72</ele>
        <time>2020-12-29T11:39:18.000Z</time>
      </trkpt>
      <trkpt lat="47.1603" lon="-1.71589">
        <ele>72</ele>
        <time>2020-12-29T11:39:20.000Z</time>
      </trkpt>
      <trkpt lat="47.16038" lon="-1.71602">
        <ele>72</ele>
        <time>2020-12-29T11:39:22.000Z</time>
      </trkpt>
      <trkpt lat="47.16046" lon="-1.71617">
        <ele>72</ele>
        <time>2020-12-29T11:39:24.000Z</time>
      </trkpt>
      <trkpt lat="47.16055" lon="-1.71632">
        <ele>72</ele>
        <time>2020-12-29T11:39:26.000Z</time>
      </trkpt>
      <trkpt lat="47.16063" lon="-1.71648">
        <ele>71</ele>
        <time>2020-12-29T11:39:28.000Z</time>
      </trkpt>
      <trkpt lat="47.16071" lon="-1.71663">
        <ele>71</ele>
        <time>2020-12-29T11:39:30.000Z</time>
      </trkpt>
      <trkpt lat="47.16081" lon="-1.71676">
        <ele>70</ele>
        <time>2020-12-29T11:39:32.000Z</time>
      </trkpt>
      <trkpt lat="47.16091" lon="-1.71689">
        <ele>70</ele>
        <time>2020-12-29T11:39:34.000Z</time>
      </trkpt>
      <trkpt lat="47.16102" lon="-1.71701">
        <ele>70</ele>
        <time>2020-12-29T11:39:36.000Z</time>
      </trkpt>
      <trkpt lat="47.16113" lon="-1.71711">
        <ele>70</ele>
        <time>2020-12-29T11:39:38.000Z</time>
      </trkpt>
      <trkpt lat="47.16125" lon="-1.71721">
        <ele>70</ele>
        <time>2020-12-29T11:39:40.000Z</time>
      </trkpt>
      <trkpt lat="47.16136" lon="-1.71729">
        <ele>69</ele>
        <time>2020-12-29T11:39:42.000Z</time>
      </trkpt>
      <trkpt lat="47.16148" lon="-1.71738">
        <ele>69</ele>
        <time>2020-12-29T11:39:44.000Z</time>
      </trkpt>
      <trkpt lat="47.16159" lon="-1.71746">
        <ele>68</ele>
        <time>2020-12-29T11:39:46.000Z</time>
      </trkpt>
      <trkpt lat="47.16171" lon="-1.71755">
        <ele>68</ele>
        <time>2020-12-29T11:39:48.000Z</time>
      </trkpt>
      <trkpt lat="47.16182" lon="-1.71764">
        <ele>68</ele>
        <time>2020-12-29T11:39:50.000Z</time>
      </trkpt>
      <trkpt lat="47.16193" lon="-1.71772">
        <ele>68</ele>
        <time>2020-12-29T11:39:52.000Z</time>
      </trkpt>
      <trkpt lat="47.16203" lon="-1.7178">
        <ele>67</ele>
        <time>2020-12-29T11:39:54.000Z</time>
      </trkpt>
      <trkpt lat="47.16214" lon="-1.71788">
        <ele>67</ele>
        <time>2020-12-29T11:39:56.000Z</time>
      </trkpt>
      <trkpt lat="47.16224" lon="-1.71798">
        <ele>67</ele>
        <time>2020-12-29T11:39:58.000Z</time>
      </trkpt>
      <trkpt lat="47.16231" lon="-1.71811">
        <ele>67</ele>
        <time>2020-12-29T11:40:00.000Z</time>
      </trkpt>
      <trkpt lat="47.16229" lon="-1.71828">
        <ele>67</ele>
        <time>2020-12-29T11:40:02.000Z</time>
      </trkpt>
      <trkpt lat="47.16222" lon="-1.71841">
        <ele>67</ele>
        <time>2020-12-29T11:40:04.000Z</time>
      </trkpt>
      <trkpt lat="47.16213" lon="-1.71854">
        <ele>68</ele>
        <time>2020-12-29T11:40:06.000Z</time>
      </trkpt>
      <trkpt lat="47.16203" lon="-1.71866">
        <ele>68</ele>
        <time>2020-12-29T11:40:08.000Z</time>
      </trkpt>
      <trkpt lat="47.16194" lon="-1.71878">
        <ele>68</ele>
        <time>2020-12-29T11:40:10.000Z</time>
      </trkpt>
      <trkpt lat="47.16185" lon="-1.7189">
        <ele>67</ele>
        <time>2020-12-29T11:40:12.000Z</time>
      </trkpt>
      <trkpt lat="47.16176" lon="-1.71902">
        <ele>68</ele>
        <time>2020-12-29T11:40:14.000Z</time>
      </trkpt>
      <trkpt lat="47.16167" lon="-1.71914">
        <ele>68</ele>
        <time>2020-12-29T11:40:16.000Z</time>
      </trkpt>
      <trkpt lat="47.16158" lon="-1.71926">
        <ele>68</ele>
        <time>2020-12-29T11:40:18.000Z</time>
      </trkpt>
      <trkpt lat="47.16149" lon="-1.71938">
        <ele>68</ele>
        <time>2020-12-29T11:40:20.000Z</time>
      </trkpt>
      <trkpt lat="47.1614" lon="-1.7195">
        <ele>68</ele>
        <time>2020-12-29T11:40:22.000Z</time>
      </trkpt>
      <trkpt lat="47.16131" lon="-1.71961">
        <ele>69</ele>
        <time>2020-12-29T11:40:24.000Z</time>
      </trkpt>
      <trkpt lat="47.16123" lon="-1.71972">
        <ele>69</ele>
        <time>2020-12-29T11:40:26.000Z</time>
      </trkpt>
      <trkpt lat="47.16114" lon="-1.71984">
        <ele>70</ele>
        <time>2020-12-29T11:40:28.000Z</time>
      </trkpt>
      <trkpt lat="47.16106" lon="-1.71996">
        <ele>70</ele>
        <time>2020-12-29T11:40:30.000Z</time>
      </trkpt>
      <trkpt lat="47.16098" lon="-1.72009">
        <ele>70</ele>
        <time>2020-12-29T11:40:32.000Z</time>
      </trkpt>
      <trkpt lat="47.1609" lon="-1.72023">
        <ele>71</ele>
        <time>2020-12-29T11:40:34.000Z</time>
      </trkpt>
      <trkpt lat="47.16083" lon="-1.72036">
        <ele>71</ele>
        <time>2020-12-29T11:40:36.000Z</time>
      </trkpt>
      <trkpt lat="47.16077" lon="-1.72049">
        <ele>71</ele>
        <time>2020-12-29T11:40:38.000Z</time>
      </trkpt>
      <trkpt lat="47.1607" lon="-1.72063">
        <ele>71</ele>
        <time>2020-12-29T11:40:40.000Z</time>
      </trkpt>
      <trkpt lat="47.16064" lon="-1.72076">
        <ele>71</ele>
        <time>2020-12-29T11:40:42.000Z</time>
      </trkpt>
      <trkpt lat="47.16057" lon="-1.7209">
        <ele>71</ele>
        <time>2020-12-29T11:40:44.000Z</time>
      </trkpt>
      <trkpt lat="47.1605" lon="-1.72104">
        <ele>70</ele>
        <time>2020-12-29T11:40:46.000Z</time>
      </trkpt>
      <trkpt lat="47.16045" lon="-1.72117">
        <ele>70</ele>
        <time>2020-12-29T11:40:48.000Z</time>
      </trkpt>
      <trkpt lat="47.16038" lon="-1.72131">
        <ele>71</ele>
        <time>2020-12-29T11:40:50.000Z</time>
      </trkpt>
      <trkpt lat="47.16031" lon="-1.72145">
        <ele>71</ele>
        <time>2020-12-29T11:40:52.000Z</time>
      </trkpt>
      <trkpt lat="47.16025" lon="-1.72158">
        <ele>71</ele>
        <time>2020-12-29T11:40:54.000Z</time>
      </trkpt>
      <trkpt lat="47.16019" lon="-1.72172">
        <ele>71</ele>
        <time>2020-12-29T11:40:56.000Z</time>
      </trkpt>
      <trkpt lat="47.16012" lon="-1.72186">
        <ele>71</ele>
        <time>2020-12-29T11:40:58.000Z</time>
      </trkpt>
      <trkpt lat="47.16006" lon="-1.722">
        <ele>71</ele>
        <time>2020-12-29T11:41:00.000Z</time>
      </trkpt>
      <trkpt lat="47.15999" lon="-1.72214">
        <ele>71</ele>
        <time>2020-12-29T11:41:02.000Z</time>
      </trkpt>
      <trkpt lat="47.15993" lon="-1.72228">
        <ele>71</ele>
        <time>2020-12-29T11:41:04.000Z</time>
      </trkpt>
      <trkpt lat="47.15986" lon="-1.72242">
        <ele>71</ele>
        <time>2020-12-29T11:41:06.000Z</time>
      </trkpt>
      <trkpt lat="47.15979" lon="-1.72256">
        <ele>70</ele>
        <time>2020-12-29T11:41:08.000Z</time>
      </trkpt>
      <trkpt lat="47.15973" lon="-1.7227">
        <ele>70</ele>
        <time>2020-12-29T11:41:10.000Z</time>
      </trkpt>
      <trkpt lat="47.15966" lon="-1.72284">
        <ele>70</ele>
        <time>2020-12-29T11:41:12.000Z</time>
      </trkpt>
      <trkpt lat="47.15959" lon="-1.72299">
        <ele>70</ele>
        <time>2020-12-29T11:41:14.000Z</time>
      </trkpt>
      <trkpt lat="47.15952" lon="-1.72314">
        <ele>70</ele>
        <time>2020-12-29T11:41:16.000Z</time>
      </trkpt>
      <trkpt lat="47.15946" lon="-1.72328">
        <ele>70</ele>
        <time>2020-12-29T11:41:18.000Z</time>
      </trkpt>
      <trkpt lat="47.15938" lon="-1.72343">
        <ele>70</ele>
        <time>2020-12-29T11:41:20.000Z</time>
      </trkpt>
      <trkpt lat="47.15931" lon="-1.72357">
        <ele>70</ele>
        <time>2020-12-29T11:41:22.000Z</time>
      </trkpt>
      <trkpt lat="47.15924" lon="-1.72371">
        <ele>71</ele>
        <time>2020-12-29T11:41:24.000Z</time>
      </trkpt>
      <trkpt lat="47.15917" lon="-1.72385">
        <ele>70</ele>
        <time>2020-12-29T11:41:26.000Z</time>
      </trkpt>
      <trkpt lat="47.15911" lon="-1.72399">
        <ele>70</ele>
        <time>2020-12-29T11:41:28.000Z</time>
      </trkpt>
      <trkpt lat="47.15904" lon="-1.72413">
        <ele>70</ele>
        <time>2020-12-29T11:41:30.000Z</time>
      </trkpt>
      <trkpt lat="47.15897" lon="-1.72428">
        <ele>71</ele>
        <time>2020-12-29T11:41:32.000Z</time>
      </trkpt>
      <trkpt lat="47.15891" lon="-1.72442">
        <ele>71</ele>
        <time>2020-12-29T11:41:34.000Z</time>
      </trkpt>
      <trkpt lat="47.15885" lon="-1.72457">
        <ele>71</ele>
        <time>2020-12-29T11:41:36.000Z</time>
      </trkpt>
      <trkpt lat="47.15879" lon="-1.72472">
        <ele>72</ele>
        <time>2020-12-29T11:41:38.000Z</time>
      </trkpt>
      <trkpt lat="47.15873" lon="-1.72485">
        <ele>72</ele>
        <time>2020-12-29T11:41:40.000Z</time>
      </trkpt>
      <trkpt lat="47.15867" lon="-1.72498">
        <ele>74</ele>
        <time>2020-12-29T11:41:42.000Z</time>
      </trkpt>
      <trkpt lat="47.15861" lon="-1.72514">
        <ele>73</ele>
        <time>2020-12-29T11:41:44.000Z</time>
      </trkpt>
      <trkpt lat="47.15856" lon="-1.72528">
        <ele>73</ele>
        <time>2020-12-29T11:41:46.000Z</time>
      </trkpt>
      <trkpt lat="47.15851" lon="-1.72542">
        <ele>72</ele>
        <time>2020-12-29T11:41:48.000Z</time>
      </trkpt>
      <trkpt lat="47.15845" lon="-1.72556">
        <ele>72</ele>
        <time>2020-12-29T11:41:50.000Z</time>
      </trkpt>
      <trkpt lat="47.1584" lon="-1.72571">
        <ele>71</ele>
        <time>2020-12-29T11:41:52.000Z</time>
      </trkpt>
      <trkpt lat="47.15838" lon="-1.72587">
        <ele>72</ele>
        <time>2020-12-29T11:41:54.000Z</time>
      </trkpt>
      <trkpt lat="47.15833" lon="-1.72602">
        <ele>71</ele>
        <time>2020-12-29T11:41:56.000Z</time>
      </trkpt>
      <trkpt lat="47.15828" lon="-1.72617">
        <ele>72</ele>
        <time>2020-12-29T11:41:58.000Z</time>
      </trkpt>
      <trkpt lat="47.15825" lon="-1.72632">
        <ele>72</ele>
        <time>2020-12-29T11:42:00.000Z</time>
      </trkpt>
      <trkpt lat="47.15821" lon="-1.7265">
        <ele>71</ele>
        <time>2020-12-29T11:42:02.000Z</time>
      </trkpt>
      <trkpt lat="47.15818" lon="-1.72667">
        <ele>71</ele>
        <time>2020-12-29T11:42:04.000Z</time>
      </trkpt>
      <trkpt lat="47.15814" lon="-1.72684">
        <ele>71</ele>
        <time>2020-12-29T11:42:06.000Z</time>
      </trkpt>
      <trkpt lat="47.1581" lon="-1.72702">
        <ele>71</ele>
        <time>2020-12-29T11:42:08.000Z</time>
      </trkpt>
      <trkpt lat="47.15806" lon="-1.72718">
        <ele>72</ele>
        <time>2020-12-29T11:42:10.000Z</time>
      </trkpt>
      <trkpt lat="47.15801" lon="-1.72735">
        <ele>72</ele>
        <time>2020-12-29T11:42:12.000Z</time>
      </trkpt>
      <trkpt lat="47.15798" lon="-1.72752">
        <ele>72</ele>
        <time>2020-12-29T11:42:14.000Z</time>
      </trkpt>
      <trkpt lat="47.15795" lon="-1.72768">
        <ele>72</ele>
        <time>2020-12-29T11:42:16.000Z</time>
      </trkpt>
      <trkpt lat="47.15791" lon="-1.72785">
        <ele>71</ele>
        <time>2020-12-29T11:42:18.000Z</time>
      </trkpt>
      <trkpt lat="47.15787" lon="-1.728">
        <ele>71</ele>
        <time>2020-12-29T11:42:20.000Z</time>
      </trkpt>
      <trkpt lat="47.15784" lon="-1.72817">
        <ele>71</ele>
        <time>2020-12-29T11:42:22.000Z</time>
      </trkpt>
      <trkpt lat="47.1578" lon="-1.72834">
        <ele>71</ele>
        <time>2020-12-29T11:42:24.000Z</time>
      </trkpt>
      <trkpt lat="47.15776" lon="-1.7285">
        <ele>71</ele>
        <time>2020-12-29T11:42:26.000Z</time>
      </trkpt>
      <trkpt lat="47.15771" lon="-1.72865">
        <ele>71</ele>
        <time>2020-12-29T11:42:28.000Z</time>
      </trkpt>
      <trkpt lat="47.15768" lon="-1.72881">
        <ele>71</ele>
        <time>2020-12-29T11:42:30.000Z</time>
      </trkpt>
      <trkpt lat="47.15764" lon="-1.72897">
        <ele>71</ele>
        <time>2020-12-29T11:42:32.000Z</time>
      </trkpt>
      <trkpt lat="47.1576" lon="-1.72915">
        <ele>70</ele>
        <time>2020-12-29T11:42:34.000Z</time>
      </trkpt>
      <trkpt lat="47.15756" lon="-1.72932">
        <ele>71</ele>
        <time>2020-12-29T11:42:36.000Z</time>
      </trkpt>
      <trkpt lat="47.15752" lon="-1.72949">
        <ele>71</ele>
        <time>2020-12-29T11:42:38.000Z</time>
      </trkpt>
      <trkpt lat="47.15748" lon="-1.72966">
        <ele>71</ele>
        <time>2020-12-29T11:42:40.000Z</time>
      </trkpt>
      <trkpt lat="47.15744" lon="-1.72983">
        <ele>70</ele>
        <time>2020-12-29T11:42:42.000Z</time>
      </trkpt>
      <trkpt lat="47.1574" lon="-1.73001">
        <ele>70</ele>
        <time>2020-12-29T11:42:44.000Z</time>
      </trkpt>
      <trkpt lat="47.15736" lon="-1.73017">
        <ele>70</ele>
        <time>2020-12-29T11:42:46.000Z</time>
      </trkpt>
      <trkpt lat="47.15732" lon="-1.73034">
        <ele>70</ele>
        <time>2020-12-29T11:42:48.000Z</time>
      </trkpt>
      <trkpt lat="47.15728" lon="-1.7305">
        <ele>70</ele>
        <time>2020-12-29T11:42:50.000Z</time>
      </trkpt>
      <trkpt lat="47.15724" lon="-1.73067">
        <ele>70</ele>
        <time>2020-12-29T11:42:52.000Z</time>
      </trkpt>
      <trkpt lat="47.15719" lon="-1.73084">
        <ele>69</ele>
        <time>2020-12-29T11:42:54.000Z</time>
      </trkpt>
      <trkpt lat="47.15715" lon="-1.731">
        <ele>68</ele>
        <time>2020-12-29T11:42:56.000Z</time>
      </trkpt>
      <trkpt lat="47.15711" lon="-1.73117">
        <ele>68</ele>
        <time>2020-12-29T11:42:58.000Z</time>
      </trkpt>
      <trkpt lat="47.15707" lon="-1.73135">
        <ele>68</ele>
        <time>2020-12-29T11:43:00.000Z</time>
      </trkpt>
      <trkpt lat="47.15703" lon="-1.73152">
        <ele>68</ele>
        <time>2020-12-29T11:43:02.000Z</time>
      </trkpt>
      <trkpt lat="47.157" lon="-1.7317">
        <ele>68</ele>
        <time>2020-12-29T11:43:04.000Z</time>
      </trkpt>
      <trkpt lat="47.15697" lon="-1.73188">
        <ele>67</ele>
        <time>2020-12-29T11:43:06.000Z</time>
      </trkpt>
      <trkpt lat="47.15694" lon="-1.73206">
        <ele>67</ele>
        <time>2020-12-29T11:43:08.000Z</time>
      </trkpt>
      <trkpt lat="47.15693" lon="-1.73224">
        <ele>67</ele>
        <time>2020-12-29T11:43:10.000Z</time>
      </trkpt>
      <trkpt lat="47.15693" lon="-1.73242">
        <ele>66</ele>
        <time>2020-12-29T11:43:12.000Z</time>
      </trkpt>
      <trkpt lat="47.15694" lon="-1.73261">
        <ele>67</ele>
        <time>2020-12-29T11:43:14.000Z</time>
      </trkpt>
      <trkpt lat="47.15694" lon="-1.73279">
        <ele>66</ele>
        <time>2020-12-29T11:43:16.000Z</time>
      </trkpt>
      <trkpt lat="47.15695" lon="-1.73297">
        <ele>66</ele>
        <time>2020-12-29T11:43:18.000Z</time>
      </trkpt>
      <trkpt lat="47.15695" lon="-1.73315">
        <ele>66</ele>
        <time>2020-12-29T11:43:20.000Z</time>
      </trkpt>
      <trkpt lat="47.15696" lon="-1.73333">
        <ele>66</ele>
        <time>2020-12-29T11:43:22.000Z</time>
      </trkpt>
      <trkpt lat="47.15696" lon="-1.73351">
        <ele>67</ele>
        <time>2020-12-29T11:43:24.000Z</time>
      </trkpt>
      <trkpt lat="47.15697" lon="-1.73369">
        <ele>66</ele>
        <time>2020-12-29T11:43:26.000Z</time>
      </trkpt>
      <trkpt lat="47.15697" lon="-1.73386">
        <ele>66</ele>
        <time>2020-12-29T11:43:28.000Z</time>
      </trkpt>
      <trkpt lat="47.15698" lon="-1.73404">
        <ele>66</ele>
        <time>2020-12-29T11:43:30.000Z</time>
      </trkpt>
      <trkpt lat="47.15698" lon="-1.73422">
        <ele>66</ele>
        <time>2020-12-29T11:43:32.000Z</time>
      </trkpt>
      <trkpt lat="47.15698" lon="-1.7344">
        <ele>65</ele>
        <time>2020-12-29T11:43:34.000Z</time>
      </trkpt>
      <trkpt lat="47.15698" lon="-1.73458">
        <ele>65</ele>
        <time>2020-12-29T11:43:36.000Z</time>
      </trkpt>
      <trkpt lat="47.15698" lon="-1.73475">
        <ele>65</ele>
        <time>2020-12-29T11:43:38.000Z</time>
      </trkpt>
      <trkpt lat="47.15699" lon="-1.73492">
        <ele>65</ele>
        <time>2020-12-29T11:43:40.000Z</time>
      </trkpt>
      <trkpt lat="47.15699" lon="-1.7351">
        <ele>65</ele>
        <time>2020-12-29T11:43:42.000Z</time>
      </trkpt>
      <trkpt lat="47.15698" lon="-1.73527">
        <ele>64</ele>
        <time>2020-12-29T11:43:44.000Z</time>
      </trkpt>
      <trkpt lat="47.15699" lon="-1.73544">
        <ele>65</ele>
        <time>2020-12-29T11:43:46.000Z</time>
      </trkpt>
      <trkpt lat="47.15699" lon="-1.73561">
        <ele>65</ele>
        <time>2020-12-29T11:43:48.000Z</time>
      </trkpt>
      <trkpt lat="47.15699" lon="-1.73576">
        <ele>65</ele>
        <time>2020-12-29T11:43:50.000Z</time>
      </trkpt>
      <trkpt lat="47.15699" lon="-1.73593">
        <ele>65</ele>
        <time>2020-12-29T11:43:52.000Z</time>
      </trkpt>
      <trkpt lat="47.157" lon="-1.73609">
        <ele>65</ele>
        <time>2020-12-29T11:43:54.000Z</time>
      </trkpt>
      <trkpt lat="47.15701" lon="-1.73624">
        <ele>64</ele>
        <time>2020-12-29T11:43:56.000Z</time>
      </trkpt>
      <trkpt lat="47.15701" lon="-1.73637">
        <ele>64</ele>
        <time>2020-12-29T11:43:58.000Z</time>
      </trkpt>
      <trkpt lat="47.15701" lon="-1.73651">
        <ele>64</ele>
        <time>2020-12-29T11:44:00.000Z</time>
      </trkpt>
      <trkpt lat="47.157" lon="-1.73666">
        <ele>64</ele>
        <time>2020-12-29T11:44:02.000Z</time>
      </trkpt>
      <trkpt lat="47.15698" lon="-1.73685">
        <ele>64</ele>
        <time>2020-12-29T11:44:05.000Z</time>
      </trkpt>
      <trkpt lat="47.15694" lon="-1.737">
        <ele>64</ele>
        <time>2020-12-29T11:44:07.000Z</time>
      </trkpt>
      <trkpt lat="47.1569" lon="-1.73715">
        <ele>65</ele>
        <time>2020-12-29T11:44:09.000Z</time>
      </trkpt>
      <trkpt lat="47.15685" lon="-1.7373">
        <ele>65</ele>
        <time>2020-12-29T11:44:11.000Z</time>
      </trkpt>
      <trkpt lat="47.1568" lon="-1.73745">
        <ele>65</ele>
        <time>2020-12-29T11:44:13.000Z</time>
      </trkpt>
      <trkpt lat="47.15674" lon="-1.7376">
        <ele>65</ele>
        <time>2020-12-29T11:44:15.000Z</time>
      </trkpt>
      <trkpt lat="47.15669" lon="-1.73776">
        <ele>65</ele>
        <time>2020-12-29T11:44:17.000Z</time>
      </trkpt>
      <trkpt lat="47.15664" lon="-1.73789">
        <ele>66</ele>
        <time>2020-12-29T11:44:19.000Z</time>
      </trkpt>
      <trkpt lat="47.15658" lon="-1.73803">
        <ele>66</ele>
        <time>2020-12-29T11:44:21.000Z</time>
      </trkpt>
      <trkpt lat="47.15653" lon="-1.73817">
        <ele>65</ele>
        <time>2020-12-29T11:44:23.000Z</time>
      </trkpt>
      <trkpt lat="47.15648" lon="-1.7383">
        <ele>65</ele>
        <time>2020-12-29T11:44:25.000Z</time>
      </trkpt>
      <trkpt lat="47.15642" lon="-1.73845">
        <ele>65</ele>
        <time>2020-12-29T11:44:28.000Z</time>
      </trkpt>
      <trkpt lat="47.15639" lon="-1.7386">
        <ele>65</ele>
        <time>2020-12-29T11:44:32.000Z</time>
      </trkpt>
      <trkpt lat="47.1564" lon="-1.73844">
        <ele>66</ele>
        <time>2020-12-29T11:45:36.000Z</time>
      </trkpt>
      <trkpt lat="47.15645" lon="-1.73829">
        <ele>66</ele>
        <time>2020-12-29T11:45:38.000Z</time>
      </trkpt>
      <trkpt lat="47.15651" lon="-1.73813">
        <ele>66</ele>
        <time>2020-12-29T11:45:40.000Z</time>
      </trkpt>
      <trkpt lat="47.15657" lon="-1.73796">
        <ele>67</ele>
        <time>2020-12-29T11:45:42.000Z</time>
      </trkpt>
      <trkpt lat="47.15663" lon="-1.73779">
        <ele>67</ele>
        <time>2020-12-29T11:45:44.000Z</time>
      </trkpt>
      <trkpt lat="47.1567" lon="-1.73762">
        <ele>67</ele>
        <time>2020-12-29T11:45:46.000Z</time>
      </trkpt>
      <trkpt lat="47.15676" lon="-1.73746">
        <ele>67</ele>
        <time>2020-12-29T11:45:48.000Z</time>
      </trkpt>
      <trkpt lat="47.15681" lon="-1.73729">
        <ele>67</ele>
        <time>2020-12-29T11:45:50.000Z</time>
      </trkpt>
      <trkpt lat="47.15687" lon="-1.73713">
        <ele>67</ele>
        <time>2020-12-29T11:45:52.000Z</time>
      </trkpt>
      <trkpt lat="47.15691" lon="-1.73696">
        <ele>67</ele>
        <time>2020-12-29T11:45:54.000Z</time>
      </trkpt>
      <trkpt lat="47.15695" lon="-1.73679">
        <ele>67</ele>
        <time>2020-12-29T11:45:56.000Z</time>
      </trkpt>
      <trkpt lat="47.15697" lon="-1.73662">
        <ele>67</ele>
        <time>2020-12-29T11:45:58.000Z</time>
      </trkpt>
      <trkpt lat="47.15697" lon="-1.73644">
        <ele>67</ele>
        <time>2020-12-29T11:46:00.000Z</time>
      </trkpt>
      <trkpt lat="47.15696" lon="-1.73626">
        <ele>67</ele>
        <time>2020-12-29T11:46:02.000Z</time>
      </trkpt>
      <trkpt lat="47.15696" lon="-1.73607">
        <ele>67</ele>
        <time>2020-12-29T11:46:04.000Z</time>
      </trkpt>
      <trkpt lat="47.15696" lon="-1.73587">
        <ele>67</ele>
        <time>2020-12-29T11:46:06.000Z</time>
      </trkpt>
      <trkpt lat="47.15695" lon="-1.73568">
        <ele>66</ele>
        <time>2020-12-29T11:46:08.000Z</time>
      </trkpt>
      <trkpt lat="47.15695" lon="-1.73548">
        <ele>66</ele>
        <time>2020-12-29T11:46:10.000Z</time>
      </trkpt>
      <trkpt lat="47.15694" lon="-1.73529">
        <ele>66</ele>
        <time>2020-12-29T11:46:12.000Z</time>
      </trkpt>
      <trkpt lat="47.15696" lon="-1.73514">
        <ele>66</ele>
        <time>2020-12-29T11:46:14.000Z</time>
      </trkpt>
      <trkpt lat="47.15705" lon="-1.73507">
        <ele>67</ele>
        <time>2020-12-29T11:46:16.000Z</time>
      </trkpt>
      <trkpt lat="47.15718" lon="-1.73507">
        <ele>67</ele>
        <time>2020-12-29T11:46:18.000Z</time>
      </trkpt>
      <trkpt lat="47.15732" lon="-1.73507">
        <ele>67</ele>
        <time>2020-12-29T11:46:20.000Z</time>
      </trkpt>
      <trkpt lat="47.15745" lon="-1.73507">
        <ele>68</ele>
        <time>2020-12-29T11:46:22.000Z</time>
      </trkpt>
      <trkpt lat="47.1576" lon="-1.73506">
        <ele>69</ele>
        <time>2020-12-29T11:46:24.000Z</time>
      </trkpt>
      <trkpt lat="47.15773" lon="-1.73506">
        <ele>69</ele>
        <time>2020-12-29T11:46:26.000Z</time>
      </trkpt>
      <trkpt lat="47.15788" lon="-1.73505">
        <ele>68</ele>
        <time>2020-12-29T11:46:28.000Z</time>
      </trkpt>
      <trkpt lat="47.15802" lon="-1.73506">
        <ele>67</ele>
        <time>2020-12-29T11:46:30.000Z</time>
      </trkpt>
      <trkpt lat="47.15815" lon="-1.73507">
        <ele>66</ele>
        <time>2020-12-29T11:46:32.000Z</time>
      </trkpt>
      <trkpt lat="47.15829" lon="-1.73507">
        <ele>66</ele>
        <time>2020-12-29T11:46:34.000Z</time>
      </trkpt>
      <trkpt lat="47.15842" lon="-1.73508">
        <ele>65</ele>
        <time>2020-12-29T11:46:36.000Z</time>
      </trkpt>
      <trkpt lat="47.15856" lon="-1.73509">
        <ele>65</ele>
        <time>2020-12-29T11:46:38.000Z</time>
      </trkpt>
      <trkpt lat="47.15869" lon="-1.73509">
        <ele>65</ele>
        <time>2020-12-29T11:46:40.000Z</time>
      </trkpt>
      <trkpt lat="47.15879" lon="-1.73509">
        <ele>64</ele>
        <time>2020-12-29T11:46:42.000Z</time>
      </trkpt>
      <trkpt lat="47.15891" lon="-1.73507">
        <ele>64</ele>
        <time>2020-12-29T11:46:44.000Z</time>
      </trkpt>
      <trkpt lat="47.15903" lon="-1.73505">
        <ele>64</ele>
        <time>2020-12-29T11:46:46.000Z</time>
      </trkpt>
      <trkpt lat="47.15916" lon="-1.73503">
        <ele>64</ele>
        <time>2020-12-29T11:46:48.000Z</time>
      </trkpt>
      <trkpt lat="47.15928" lon="-1.735">
        <ele>64</ele>
        <time>2020-12-29T11:46:50.000Z</time>
      </trkpt>
      <trkpt lat="47.1594" lon="-1.73497">
        <ele>64</ele>
        <time>2020-12-29T11:46:52.000Z</time>
      </trkpt>
      <trkpt lat="47.1595" lon="-1.73496">
        <ele>64</ele>
        <time>2020-12-29T11:46:54.000Z</time>
      </trkpt>
      <trkpt lat="47.1596" lon="-1.73506">
        <ele>63</ele>
        <time>2020-12-29T11:46:57.000Z</time>
      </trkpt>
      <trkpt lat="47.15966" lon="-1.73517">
        <ele>63</ele>
        <time>2020-12-29T11:47:02.000Z</time>
      </trkpt>
      <trkpt lat="47.15977" lon="-1.73511">
        <ele>63</ele>
        <time>2020-12-29T11:49:00.000Z</time>
      </trkpt>
      <trkpt lat="47.15988" lon="-1.73509">
        <ele>63</ele>
        <time>2020-12-29T11:49:02.000Z</time>
      </trkpt>
      <trkpt lat="47.15998" lon="-1.73507">
        <ele>63</ele>
        <time>2020-12-29T11:49:04.000Z</time>
      </trkpt>
      <trkpt lat="47.1601" lon="-1.73505">
        <ele>63</ele>
        <time>2020-12-29T11:49:06.000Z</time>
      </trkpt>
      <trkpt lat="47.16022" lon="-1.73504">
        <ele>61</ele>
        <time>2020-12-29T11:49:08.000Z</time>
      </trkpt>
      <trkpt lat="47.16035" lon="-1.73503">
        <ele>60</ele>
        <time>2020-12-29T11:49:10.000Z</time>
      </trkpt>
      <trkpt lat="47.16048" lon="-1.73501">
        <ele>58</ele>
        <time>2020-12-29T11:49:12.000Z</time>
      </trkpt>
      <trkpt lat="47.16063" lon="-1.735">
        <ele>57</ele>
        <time>2020-12-29T11:49:14.000Z</time>
      </trkpt>
      <trkpt lat="47.16078" lon="-1.73499">
        <ele>56</ele>
        <time>2020-12-29T11:49:16.000Z</time>
      </trkpt>
      <trkpt lat="47.16093" lon="-1.73497">
        <ele>55</ele>
        <time>2020-12-29T11:49:18.000Z</time>
      </trkpt>
      <trkpt lat="47.16108" lon="-1.73494">
        <ele>54</ele>
        <time>2020-12-29T11:49:20.000Z</time>
      </trkpt>
      <trkpt lat="47.16123" lon="-1.73486">
        <ele>53</ele>
        <time>2020-12-29T11:49:22.000Z</time>
      </trkpt>
      <trkpt lat="47.16136" lon="-1.73473">
        <ele>52</ele>
        <time>2020-12-29T11:49:24.000Z</time>
      </trkpt>
      <trkpt lat="47.16146" lon="-1.73459">
        <ele>52</ele>
        <time>2020-12-29T11:49:26.000Z</time>
      </trkpt>
      <trkpt lat="47.16157" lon="-1.73443">
        <ele>52</ele>
        <time>2020-12-29T11:49:28.000Z</time>
      </trkpt>
      <trkpt lat="47.16166" lon="-1.73429">
        <ele>53</ele>
        <time>2020-12-29T11:49:30.000Z</time>
      </trkpt>
      <trkpt lat="47.16176" lon="-1.73415">
        <ele>53</ele>
        <time>2020-12-29T11:49:32.000Z</time>
      </trkpt>
      <trkpt lat="47.16187" lon="-1.73403">
        <ele>54</ele>
        <time>2020-12-29T11:49:34.000Z</time>
      </trkpt>
      <trkpt lat="47.16199" lon="-1.73392">
        <ele>55</ele>
        <time>2020-12-29T11:49:36.000Z</time>
      </trkpt>
      <trkpt lat="47.16212" lon="-1.73384">
        <ele>55</ele>
        <time>2020-12-29T11:49:38.000Z</time>
      </trkpt>
      <trkpt lat="47.16226" lon="-1.73381">
        <ele>55</ele>
        <time>2020-12-29T11:49:40.000Z</time>
      </trkpt>
      <trkpt lat="47.16241" lon="-1.73381">
        <ele>55</ele>
        <time>2020-12-29T11:49:42.000Z</time>
      </trkpt>
      <trkpt lat="47.16256" lon="-1.73383">
        <ele>55</ele>
        <time>2020-12-29T11:49:44.000Z</time>
      </trkpt>
      <trkpt lat="47.1627" lon="-1.73385">
        <ele>55</ele>
        <time>2020-12-29T11:49:46.000Z</time>
      </trkpt>
      <trkpt lat="47.16284" lon="-1.73386">
        <ele>55</ele>
        <time>2020-12-29T11:49:48.000Z</time>
      </trkpt>
      <trkpt lat="47.16299" lon="-1.73385">
        <ele>55</ele>
        <time>2020-12-29T11:49:50.000Z</time>
      </trkpt>
      <trkpt lat="47.16313" lon="-1.73381">
        <ele>55</ele>
        <time>2020-12-29T11:49:52.000Z</time>
      </trkpt>
      <trkpt lat="47.16327" lon="-1.73376">
        <ele>54</ele>
        <time>2020-12-29T11:49:54.000Z</time>
      </trkpt>
      <trkpt lat="47.1634" lon="-1.7337">
        <ele>54</ele>
        <time>2020-12-29T11:49:56.000Z</time>
      </trkpt>
      <trkpt lat="47.16352" lon="-1.73363">
        <ele>54</ele>
        <time>2020-12-29T11:49:58.000Z</time>
      </trkpt>
      <trkpt lat="47.16365" lon="-1.73357">
        <ele>53</ele>
        <time>2020-12-29T11:50:00.000Z</time>
      </trkpt>
      <trkpt lat="47.16377" lon="-1.7335">
        <ele>53</ele>
        <time>2020-12-29T11:50:02.000Z</time>
      </trkpt>
      <trkpt lat="47.1639" lon="-1.73343">
        <ele>53</ele>
        <time>2020-12-29T11:50:04.000Z</time>
      </trkpt>
      <trkpt lat="47.16403" lon="-1.73337">
        <ele>53</ele>
        <time>2020-12-29T11:50:06.000Z</time>
      </trkpt>
      <trkpt lat="47.16416" lon="-1.7333">
        <ele>53</ele>
        <time>2020-12-29T11:50:08.000Z</time>
      </trkpt>
      <trkpt lat="47.16429" lon="-1.73326">
        <ele>53</ele>
        <time>2020-12-29T11:50:10.000Z</time>
      </trkpt>
      <trkpt lat="47.16443" lon="-1.73324">
        <ele>53</ele>
        <time>2020-12-29T11:50:12.000Z</time>
      </trkpt>
      <trkpt lat="47.16458" lon="-1.73327">
        <ele>53</ele>
        <time>2020-12-29T11:50:14.000Z</time>
      </trkpt>
      <trkpt lat="47.16471" lon="-1.73331">
        <ele>53</ele>
        <time>2020-12-29T11:50:16.000Z</time>
      </trkpt>
      <trkpt lat="47.16485" lon="-1.73334">
        <ele>52</ele>
        <time>2020-12-29T11:50:18.000Z</time>
      </trkpt>
      <trkpt lat="47.16498" lon="-1.73339">
        <ele>51</ele>
        <time>2020-12-29T11:50:20.000Z</time>
      </trkpt>
      <trkpt lat="47.16511" lon="-1.73343">
        <ele>51</ele>
        <time>2020-12-29T11:50:22.000Z</time>
      </trkpt>
      <trkpt lat="47.16525" lon="-1.73348">
        <ele>51</ele>
        <time>2020-12-29T11:50:24.000Z</time>
      </trkpt>
      <trkpt lat="47.16539" lon="-1.73351">
        <ele>51</ele>
        <time>2020-12-29T11:50:26.000Z</time>
      </trkpt>
      <trkpt lat="47.16552" lon="-1.73356">
        <ele>50</ele>
        <time>2020-12-29T11:50:28.000Z</time>
      </trkpt>
      <trkpt lat="47.16566" lon="-1.73361">
        <ele>50</ele>
        <time>2020-12-29T11:50:30.000Z</time>
      </trkpt>
      <trkpt lat="47.16579" lon="-1.73365">
        <ele>49</ele>
        <time>2020-12-29T11:50:32.000Z</time>
      </trkpt>
      <trkpt lat="47.16592" lon="-1.73368">
        <ele>50</ele>
        <time>2020-12-29T11:50:34.000Z</time>
      </trkpt>
      <trkpt lat="47.16605" lon="-1.73373">
        <ele>50</ele>
        <time>2020-12-29T11:50:36.000Z</time>
      </trkpt>
      <trkpt lat="47.16618" lon="-1.73377">
        <ele>50</ele>
        <time>2020-12-29T11:50:38.000Z</time>
      </trkpt>
      <trkpt lat="47.16631" lon="-1.73381">
        <ele>51</ele>
        <time>2020-12-29T11:50:40.000Z</time>
      </trkpt>
      <trkpt lat="47.16644" lon="-1.73386">
        <ele>51</ele>
        <time>2020-12-29T11:50:42.000Z</time>
      </trkpt>
      <trkpt lat="47.16656" lon="-1.73389">
        <ele>50</ele>
        <time>2020-12-29T11:50:44.000Z</time>
      </trkpt>
      <trkpt lat="47.16669" lon="-1.73391">
        <ele>50</ele>
        <time>2020-12-29T11:50:46.000Z</time>
      </trkpt>
      <trkpt lat="47.16682" lon="-1.73393">
        <ele>50</ele>
        <time>2020-12-29T11:50:48.000Z</time>
      </trkpt>
      <trkpt lat="47.16694" lon="-1.73393">
        <ele>50</ele>
        <time>2020-12-29T11:50:50.000Z</time>
      </trkpt>
      <trkpt lat="47.16707" lon="-1.73392">
        <ele>51</ele>
        <time>2020-12-29T11:50:52.000Z</time>
      </trkpt>
      <trkpt lat="47.1672" lon="-1.73388">
        <ele>51</ele>
        <time>2020-12-29T11:50:54.000Z</time>
      </trkpt>
      <trkpt lat="47.16733" lon="-1.73382">
        <ele>51</ele>
        <time>2020-12-29T11:50:56.000Z</time>
      </trkpt>
      <trkpt lat="47.16745" lon="-1.73375">
        <ele>52</ele>
        <time>2020-12-29T11:50:58.000Z</time>
      </trkpt>
      <trkpt lat="47.16757" lon="-1.73367">
        <ele>52</ele>
        <time>2020-12-29T11:51:00.000Z</time>
      </trkpt>
      <trkpt lat="47.16768" lon="-1.7336">
        <ele>52</ele>
        <time>2020-12-29T11:51:02.000Z</time>
      </trkpt>
      <trkpt lat="47.1678" lon="-1.73351">
        <ele>53</ele>
        <time>2020-12-29T11:51:04.000Z</time>
      </trkpt>
      <trkpt lat="47.16791" lon="-1.73344">
        <ele>54</ele>
        <time>2020-12-29T11:51:06.000Z</time>
      </trkpt>
      <trkpt lat="47.168" lon="-1.73337">
        <ele>55</ele>
        <time>2020-12-29T11:51:08.000Z</time>
      </trkpt>
      <trkpt lat="47.16809" lon="-1.7333">
        <ele>56</ele>
        <time>2020-12-29T11:51:10.000Z</time>
      </trkpt>
      <trkpt lat="47.16818" lon="-1.73323">
        <ele>56</ele>
        <time>2020-12-29T11:51:12.000Z</time>
      </trkpt>
      <trkpt lat="47.16828" lon="-1.73316">
        <ele>57</ele>
        <time>2020-12-29T11:51:14.000Z</time>
      </trkpt>
      <trkpt lat="47.16838" lon="-1.73309">
        <ele>56</ele>
        <time>2020-12-29T11:51:16.000Z</time>
      </trkpt>
      <trkpt lat="47.16849" lon="-1.73301">
        <ele>57</ele>
        <time>2020-12-29T11:51:18.000Z</time>
      </trkpt>
      <trkpt lat="47.1686" lon="-1.73294">
        <ele>58</ele>
        <time>2020-12-29T11:51:20.000Z</time>
      </trkpt>
      <trkpt lat="47.1687" lon="-1.73287">
        <ele>59</ele>
        <time>2020-12-29T11:51:22.000Z</time>
      </trkpt>
      <trkpt lat="47.1688" lon="-1.73279">
        <ele>60</ele>
        <time>2020-12-29T11:51:24.000Z</time>
      </trkpt>
      <trkpt lat="47.16889" lon="-1.73272">
        <ele>60</ele>
        <time>2020-12-29T11:51:26.000Z</time>
      </trkpt>
      <trkpt lat="47.16898" lon="-1.73265">
        <ele>61</ele>
        <time>2020-12-29T11:51:28.000Z</time>
      </trkpt>
      <trkpt lat="47.16909" lon="-1.7326">
        <ele>61</ele>
        <time>2020-12-29T11:51:31.000Z</time>
      </trkpt>
      <trkpt lat="47.16916" lon="-1.7327">
        <ele>61</ele>
        <time>2020-12-29T11:51:34.000Z</time>
      </trkpt>
      <trkpt lat="47.16919" lon="-1.73288">
        <ele>62</ele>
        <time>2020-12-29T11:51:37.000Z</time>
      </trkpt>
      <trkpt lat="47.16919" lon="-1.73303">
        <ele>62</ele>
        <time>2020-12-29T11:51:39.000Z</time>
      </trkpt>
      <trkpt lat="47.1692" lon="-1.73319">
        <ele>62</ele>
        <time>2020-12-29T11:51:41.000Z</time>
      </trkpt>
      <trkpt lat="47.1692" lon="-1.73334">
        <ele>63</ele>
        <time>2020-12-29T11:51:43.000Z</time>
      </trkpt>
      <trkpt lat="47.16921" lon="-1.73349">
        <ele>63</ele>
        <time>2020-12-29T11:51:45.000Z</time>
      </trkpt>
      <trkpt lat="47.16922" lon="-1.73365">
        <ele>63</ele>
        <time>2020-12-29T11:51:47.000Z</time>
      </trkpt>
      <trkpt lat="47.16924" lon="-1.7338">
        <ele>63</ele>
        <time>2020-12-29T11:51:49.000Z</time>
      </trkpt>
      <trkpt lat="47.16925" lon="-1.73396">
        <ele>64</ele>
        <time>2020-12-29T11:51:51.000Z</time>
      </trkpt>
      <trkpt lat="47.16926" lon="-1.73411">
        <ele>64</ele>
        <time>2020-12-29T11:51:53.000Z</time>
      </trkpt>
      <trkpt lat="47.16927" lon="-1.73426">
        <ele>64</ele>
        <time>2020-12-29T11:51:55.000Z</time>
      </trkpt>
      <trkpt lat="47.16928" lon="-1.73441">
        <ele>65</ele>
        <time>2020-12-29T11:51:57.000Z</time>
      </trkpt>
      <trkpt lat="47.1693" lon="-1.73455">
        <ele>65</ele>
        <time>2020-12-29T11:51:59.000Z</time>
      </trkpt>
      <trkpt lat="47.16931" lon="-1.7347">
        <ele>65</ele>
        <time>2020-12-29T11:52:01.000Z</time>
      </trkpt>
      <trkpt lat="47.16933" lon="-1.73485">
        <ele>65</ele>
        <time>2020-12-29T11:52:03.000Z</time>
      </trkpt>
      <trkpt lat="47.16934" lon="-1.735">
        <ele>66</ele>
        <time>2020-12-29T11:52:05.000Z</time>
      </trkpt>
      <trkpt lat="47.16936" lon="-1.73515">
        <ele>66</ele>
        <time>2020-12-29T11:52:07.000Z</time>
      </trkpt>
      <trkpt lat="47.16937" lon="-1.7353">
        <ele>66</ele>
        <time>2020-12-29T11:52:09.000Z</time>
      </trkpt>
      <trkpt lat="47.16938" lon="-1.73545">
        <ele>67</ele>
        <time>2020-12-29T11:52:11.000Z</time>
      </trkpt>
      <trkpt lat="47.16939" lon="-1.73561">
        <ele>67</ele>
        <time>2020-12-29T11:52:13.000Z</time>
      </trkpt>
      <trkpt lat="47.16941" lon="-1.73576">
        <ele>67</ele>
        <time>2020-12-29T11:52:15.000Z</time>
      </trkpt>
      <trkpt lat="47.16943" lon="-1.7359">
        <ele>67</ele>
        <time>2020-12-29T11:52:17.000Z</time>
      </trkpt>
      <trkpt lat="47.16945" lon="-1.73605">
        <ele>68</ele>
        <time>2020-12-29T11:52:19.000Z</time>
      </trkpt>
      <trkpt lat="47.16948" lon="-1.73619">
        <ele>68</ele>
        <time>2020-12-29T11:52:21.000Z</time>
      </trkpt>
      <trkpt lat="47.16952" lon="-1.73634">
        <ele>68</ele>
        <time>2020-12-29T11:52:23.000Z</time>
      </trkpt>
      <trkpt lat="47.16958" lon="-1.73646">
        <ele>68</ele>
        <time>2020-12-29T11:52:25.000Z</time>
      </trkpt>
      <trkpt lat="47.16964" lon="-1.73658">
        <ele>68</ele>
        <time>2020-12-29T11:52:27.000Z</time>
      </trkpt>
      <trkpt lat="47.16971" lon="-1.73672">
        <ele>68</ele>
        <time>2020-12-29T11:52:29.000Z</time>
      </trkpt>
      <trkpt lat="47.16978" lon="-1.73686">
        <ele>67</ele>
        <time>2020-12-29T11:52:31.000Z</time>
      </trkpt>
      <trkpt lat="47.16986" lon="-1.73698">
        <ele>67</ele>
        <time>2020-12-29T11:52:33.000Z</time>
      </trkpt>
      <trkpt lat="47.16994" lon="-1.73708">
        <ele>67</ele>
        <time>2020-12-29T11:52:35.000Z</time>
      </trkpt>
      <trkpt lat="47.17006" lon="-1.7371">
        <ele>66</ele>
        <time>2020-12-29T11:52:38.000Z</time>
      </trkpt>
      <trkpt lat="47.17017" lon="-1.73703">
        <ele>66</ele>
        <time>2020-12-29T11:52:40.000Z</time>
      </trkpt>
      <trkpt lat="47.17028" lon="-1.73696">
        <ele>66</ele>
        <time>2020-12-29T11:52:42.000Z</time>
      </trkpt>
      <trkpt lat="47.17039" lon="-1.73688">
        <ele>66</ele>
        <time>2020-12-29T11:52:44.000Z</time>
      </trkpt>
      <trkpt lat="47.17051" lon="-1.73681">
        <ele>66</ele>
        <time>2020-12-29T11:52:46.000Z</time>
      </trkpt>
      <trkpt lat="47.17063" lon="-1.73672">
        <ele>65</ele>
        <time>2020-12-29T11:52:48.000Z</time>
      </trkpt>
      <trkpt lat="47.17075" lon="-1.73664">
        <ele>66</ele>
        <time>2020-12-29T11:52:50.000Z</time>
      </trkpt>
      <trkpt lat="47.17086" lon="-1.73658">
        <ele>66</ele>
        <time>2020-12-29T11:52:52.000Z</time>
      </trkpt>
      <trkpt lat="47.17098" lon="-1.73652">
        <ele>66</ele>
        <time>2020-12-29T11:52:54.000Z</time>
      </trkpt>
      <trkpt lat="47.17109" lon="-1.73646">
        <ele>65</ele>
        <time>2020-12-29T11:52:56.000Z</time>
      </trkpt>
      <trkpt lat="47.17121" lon="-1.73641">
        <ele>64</ele>
        <time>2020-12-29T11:52:58.000Z</time>
      </trkpt>
      <trkpt lat="47.17133" lon="-1.73637">
        <ele>64</ele>
        <time>2020-12-29T11:53:00.000Z</time>
      </trkpt>
      <trkpt lat="47.17145" lon="-1.73634">
        <ele>65</ele>
        <time>2020-12-29T11:53:02.000Z</time>
      </trkpt>
      <trkpt lat="47.17156" lon="-1.73626">
        <ele>65</ele>
        <time>2020-12-29T11:53:04.000Z</time>
      </trkpt>
      <trkpt lat="47.17168" lon="-1.7362">
        <ele>64</ele>
        <time>2020-12-29T11:53:06.000Z</time>
      </trkpt>
      <trkpt lat="47.17179" lon="-1.73615">
        <ele>64</ele>
        <time>2020-12-29T11:53:08.000Z</time>
      </trkpt>
      <trkpt lat="47.17191" lon="-1.7361">
        <ele>64</ele>
        <time>2020-12-29T11:53:10.000Z</time>
      </trkpt>
      <trkpt lat="47.17203" lon="-1.73605">
        <ele>65</ele>
        <time>2020-12-29T11:53:12.000Z</time>
      </trkpt>
      <trkpt lat="47.17215" lon="-1.736">
        <ele>66</ele>
        <time>2020-12-29T11:53:14.000Z</time>
      </trkpt>
      <trkpt lat="47.17226" lon="-1.73595">
        <ele>66</ele>
        <time>2020-12-29T11:53:16.000Z</time>
      </trkpt>
      <trkpt lat="47.17238" lon="-1.73589">
        <ele>67</ele>
        <time>2020-12-29T11:53:18.000Z</time>
      </trkpt>
      <trkpt lat="47.17249" lon="-1.73583">
        <ele>67</ele>
        <time>2020-12-29T11:53:20.000Z</time>
      </trkpt>
      <trkpt lat="47.1726" lon="-1.73576">
        <ele>67</ele>
        <time>2020-12-29T11:53:22.000Z</time>
      </trkpt>
      <trkpt lat="47.17271" lon="-1.73569">
        <ele>67</ele>
        <time>2020-12-29T11:53:24.000Z</time>
      </trkpt>
      <trkpt lat="47.17282" lon="-1.73563">
        <ele>67</ele>
        <time>2020-12-29T11:53:26.000Z</time>
      </trkpt>
      <trkpt lat="47.17293" lon="-1.73555">
        <ele>67</ele>
        <time>2020-12-29T11:53:28.000Z</time>
      </trkpt>
      <trkpt lat="47.17304" lon="-1.73547">
        <ele>68</ele>
        <time>2020-12-29T11:53:30.000Z</time>
      </trkpt>
      <trkpt lat="47.17314" lon="-1.7354">
        <ele>68</ele>
        <time>2020-12-29T11:53:32.000Z</time>
      </trkpt>
      <trkpt lat="47.17324" lon="-1.73533">
        <ele>68</ele>
        <time>2020-12-29T11:53:34.000Z</time>
      </trkpt>
      <trkpt lat="47.17335" lon="-1.73528">
        <ele>68</ele>
        <time>2020-12-29T11:53:36.000Z</time>
      </trkpt>
      <trkpt lat="47.17347" lon="-1.73523">
        <ele>67</ele>
        <time>2020-12-29T11:53:38.000Z</time>
      </trkpt>
      <trkpt lat="47.17358" lon="-1.73518">
        <ele>67</ele>
        <time>2020-12-29T11:53:40.000Z</time>
      </trkpt>
      <trkpt lat="47.1737" lon="-1.73514">
        <ele>68</ele>
        <time>2020-12-29T11:53:42.000Z</time>
      </trkpt>
      <trkpt lat="47.17381" lon="-1.73511">
        <ele>68</ele>
        <time>2020-12-29T11:53:44.000Z</time>
      </trkpt>
      <trkpt lat="47.17392" lon="-1.73507">
        <ele>68</ele>
        <time>2020-12-29T11:53:46.000Z</time>
      </trkpt>
      <trkpt lat="47.17403" lon="-1.73502">
        <ele>68</ele>
        <time>2020-12-29T11:53:48.000Z</time>
      </trkpt>
      <trkpt lat="47.17414" lon="-1.73498">
        <ele>69</ele>
        <time>2020-12-29T11:53:50.000Z</time>
      </trkpt>
      <trkpt lat="47.17426" lon="-1.73493">
        <ele>69</ele>
        <time>2020-12-29T11:53:52.000Z</time>
      </trkpt>
      <trkpt lat="47.17437" lon="-1.73489">
        <ele>69</ele>
        <time>2020-12-29T11:53:54.000Z</time>
      </trkpt>
      <trkpt lat="47.17448" lon="-1.73485">
        <ele>69</ele>
        <time>2020-12-29T11:53:56.000Z</time>
      </trkpt>
      <trkpt lat="47.17459" lon="-1.73482">
        <ele>69</ele>
        <time>2020-12-29T11:53:58.000Z</time>
      </trkpt>
      <trkpt lat="47.1747" lon="-1.7348">
        <ele>69</ele>
        <time>2020-12-29T11:54:00.000Z</time>
      </trkpt>
      <trkpt lat="47.17482" lon="-1.73479">
        <ele>70</ele>
        <time>2020-12-29T11:54:02.000Z</time>
      </trkpt>
      <trkpt lat="47.17494" lon="-1.73478">
        <ele>70</ele>
        <time>2020-12-29T11:54:04.000Z</time>
      </trkpt>
      <trkpt lat="47.17505" lon="-1.73478">
        <ele>70</ele>
        <time>2020-12-29T11:54:06.000Z</time>
      </trkpt>
      <trkpt lat="47.17516" lon="-1.73479">
        <ele>70</ele>
        <time>2020-12-29T11:54:08.000Z</time>
      </trkpt>
      <trkpt lat="47.17528" lon="-1.73477">
        <ele>70</ele>
        <time>2020-12-29T11:54:10.000Z</time>
      </trkpt>
      <trkpt lat="47.17539" lon="-1.73474">
        <ele>70</ele>
        <time>2020-12-29T11:54:12.000Z</time>
      </trkpt>
      <trkpt lat="47.1755" lon="-1.7347">
        <ele>70</ele>
        <time>2020-12-29T11:54:14.000Z</time>
      </trkpt>
      <trkpt lat="47.17561" lon="-1.73465">
        <ele>69</ele>
        <time>2020-12-29T11:54:16.000Z</time>
      </trkpt>
      <trkpt lat="47.17573" lon="-1.73461">
        <ele>69</ele>
        <time>2020-12-29T11:54:18.000Z</time>
      </trkpt>
      <trkpt lat="47.17585" lon="-1.73456">
        <ele>69</ele>
        <time>2020-12-29T11:54:20.000Z</time>
      </trkpt>
      <trkpt lat="47.17597" lon="-1.73452">
        <ele>69</ele>
        <time>2020-12-29T11:54:22.000Z</time>
      </trkpt>
      <trkpt lat="47.17608" lon="-1.73449">
        <ele>69</ele>
        <time>2020-12-29T11:54:24.000Z</time>
      </trkpt>
      <trkpt lat="47.17619" lon="-1.73445">
        <ele>69</ele>
        <time>2020-12-29T11:54:26.000Z</time>
      </trkpt>
      <trkpt lat="47.1763" lon="-1.7344">
        <ele>69</ele>
        <time>2020-12-29T11:54:28.000Z</time>
      </trkpt>
      <trkpt lat="47.17642" lon="-1.73433">
        <ele>69</ele>
        <time>2020-12-29T11:54:30.000Z</time>
      </trkpt>
      <trkpt lat="47.17653" lon="-1.73427">
        <ele>69</ele>
        <time>2020-12-29T11:54:32.000Z</time>
      </trkpt>
      <trkpt lat="47.17664" lon="-1.73419">
        <ele>68</ele>
        <time>2020-12-29T11:54:34.000Z</time>
      </trkpt>
      <trkpt lat="47.17675" lon="-1.73412">
        <ele>69</ele>
        <time>2020-12-29T11:54:36.000Z</time>
      </trkpt>
      <trkpt lat="47.17686" lon="-1.73404">
        <ele>69</ele>
        <time>2020-12-29T11:54:38.000Z</time>
      </trkpt>
      <trkpt lat="47.17697" lon="-1.73395">
        <ele>69</ele>
        <time>2020-12-29T11:54:40.000Z</time>
      </trkpt>
      <trkpt lat="47.17708" lon="-1.73387">
        <ele>69</ele>
        <time>2020-12-29T11:54:42.000Z</time>
      </trkpt>
      <trkpt lat="47.17719" lon="-1.73378">
        <ele>69</ele>
        <time>2020-12-29T11:54:44.000Z</time>
      </trkpt>
      <trkpt lat="47.1773" lon="-1.7337">
        <ele>69</ele>
        <time>2020-12-29T11:54:46.000Z</time>
      </trkpt>
      <trkpt lat="47.1774" lon="-1.73362">
        <ele>69</ele>
        <time>2020-12-29T11:54:48.000Z</time>
      </trkpt>
      <trkpt lat="47.17752" lon="-1.73354">
        <ele>69</ele>
        <time>2020-12-29T11:54:50.000Z</time>
      </trkpt>
      <trkpt lat="47.17762" lon="-1.73347">
        <ele>69</ele>
        <time>2020-12-29T11:54:52.000Z</time>
      </trkpt>
      <trkpt lat="47.17773" lon="-1.7334">
        <ele>69</ele>
        <time>2020-12-29T11:54:54.000Z</time>
      </trkpt>
      <trkpt lat="47.17784" lon="-1.73331">
        <ele>69</ele>
        <time>2020-12-29T11:54:56.000Z</time>
      </trkpt>
      <trkpt lat="47.17795" lon="-1.73324">
        <ele>69</ele>
        <time>2020-12-29T11:54:58.000Z</time>
      </trkpt>
      <trkpt lat="47.17806" lon="-1.73316">
        <ele>69</ele>
        <time>2020-12-29T11:55:00.000Z</time>
      </trkpt>
      <trkpt lat="47.17817" lon="-1.73308">
        <ele>69</ele>
        <time>2020-12-29T11:55:02.000Z</time>
      </trkpt>
      <trkpt lat="47.17827" lon="-1.733">
        <ele>69</ele>
        <time>2020-12-29T11:55:04.000Z</time>
      </trkpt>
      <trkpt lat="47.17838" lon="-1.73293">
        <ele>69</ele>
        <time>2020-12-29T11:55:06.000Z</time>
      </trkpt>
      <trkpt lat="47.17849" lon="-1.73285">
        <ele>69</ele>
        <time>2020-12-29T11:55:08.000Z</time>
      </trkpt>
      <trkpt lat="47.1786" lon="-1.73277">
        <ele>69</ele>
        <time>2020-12-29T11:55:10.000Z</time>
      </trkpt>
      <trkpt lat="47.17871" lon="-1.7327">
        <ele>69</ele>
        <time>2020-12-29T11:55:12.000Z</time>
      </trkpt>
      <trkpt lat="47.17882" lon="-1.73262">
        <ele>69</ele>
        <time>2020-12-29T11:55:14.000Z</time>
      </trkpt>
      <trkpt lat="47.17893" lon="-1.73255">
        <ele>69</ele>
        <time>2020-12-29T11:55:16.000Z</time>
      </trkpt>
      <trkpt lat="47.17903" lon="-1.73249">
        <ele>69</ele>
        <time>2020-12-29T11:55:18.000Z</time>
      </trkpt>
      <trkpt lat="47.17914" lon="-1.73242">
        <ele>70</ele>
        <time>2020-12-29T11:55:20.000Z</time>
      </trkpt>
      <trkpt lat="47.17925" lon="-1.73236">
        <ele>70</ele>
        <time>2020-12-29T11:55:22.000Z</time>
      </trkpt>
      <trkpt lat="47.17936" lon="-1.73229">
        <ele>70</ele>
        <time>2020-12-29T11:55:24.000Z</time>
      </trkpt>
      <trkpt lat="47.17947" lon="-1.73223">
        <ele>70</ele>
        <time>2020-12-29T11:55:26.000Z</time>
      </trkpt>
      <trkpt lat="47.17958" lon="-1.73215">
        <ele>70</ele>
        <time>2020-12-29T11:55:28.000Z</time>
      </trkpt>
      <trkpt lat="47.17969" lon="-1.73207">
        <ele>70</ele>
        <time>2020-12-29T11:55:30.000Z</time>
      </trkpt>
      <trkpt lat="47.17979" lon="-1.732">
        <ele>70</ele>
        <time>2020-12-29T11:55:32.000Z</time>
      </trkpt>
      <trkpt lat="47.1799" lon="-1.73193">
        <ele>70</ele>
        <time>2020-12-29T11:55:34.000Z</time>
      </trkpt>
      <trkpt lat="47.18" lon="-1.73185">
        <ele>70</ele>
        <time>2020-12-29T11:55:36.000Z</time>
      </trkpt>
      <trkpt lat="47.18011" lon="-1.73178">
        <ele>70</ele>
        <time>2020-12-29T11:55:38.000Z</time>
      </trkpt>
      <trkpt lat="47.18022" lon="-1.73171">
        <ele>71</ele>
        <time>2020-12-29T11:55:40.000Z</time>
      </trkpt>
      <trkpt lat="47.18032" lon="-1.73164">
        <ele>71</ele>
        <time>2020-12-29T11:55:42.000Z</time>
      </trkpt>
      <trkpt lat="47.18042" lon="-1.73155">
        <ele>71</ele>
        <time>2020-12-29T11:55:44.000Z</time>
      </trkpt>
      <trkpt lat="47.18051" lon="-1.73147">
        <ele>71</ele>
        <time>2020-12-29T11:55:46.000Z</time>
      </trkpt>
      <trkpt lat="47.18057" lon="-1.73135">
        <ele>72</ele>
        <time>2020-12-29T11:55:48.000Z</time>
      </trkpt>
      <trkpt lat="47.18059" lon="-1.73119">
        <ele>72</ele>
        <time>2020-12-29T11:55:50.000Z</time>
      </trkpt>
      <trkpt lat="47.18059" lon="-1.73103">
        <ele>72</ele>
        <time>2020-12-29T11:55:52.000Z</time>
      </trkpt>
      <trkpt lat="47.18064" lon="-1.73088">
        <ele>72</ele>
        <time>2020-12-29T11:55:54.000Z</time>
      </trkpt>
      <trkpt lat="47.18074" lon="-1.7308">
        <ele>73</ele>
        <time>2020-12-29T11:55:56.000Z</time>
      </trkpt>
      <trkpt lat="47.18085" lon="-1.73083">
        <ele>72</ele>
        <time>2020-12-29T11:55:58.000Z</time>
      </trkpt>
      <trkpt lat="47.18093" lon="-1.73096">
        <ele>72</ele>
        <time>2020-12-29T11:56:00.000Z</time>
      </trkpt>
      <trkpt lat="47.18096" lon="-1.73112">
        <ele>71</ele>
        <time>2020-12-29T11:56:02.000Z</time>
      </trkpt>
      <trkpt lat="47.18099" lon="-1.73128">
        <ele>71</ele>
        <time>2020-12-29T11:56:04.000Z</time>
      </trkpt>
      <trkpt lat="47.18103" lon="-1.73145">
        <ele>71</ele>
        <time>2020-12-29T11:56:06.000Z</time>
      </trkpt>
      <trkpt lat="47.18106" lon="-1.73162">
        <ele>70</ele>
        <time>2020-12-29T11:56:08.000Z</time>
      </trkpt>
      <trkpt lat="47.1811" lon="-1.73179">
        <ele>70</ele>
        <time>2020-12-29T11:56:10.000Z</time>
      </trkpt>
      <trkpt lat="47.18115" lon="-1.73196">
        <ele>70</ele>
        <time>2020-12-29T11:56:12.000Z</time>
      </trkpt>
      <trkpt lat="47.1812" lon="-1.73212">
        <ele>70</ele>
        <time>2020-12-29T11:56:14.000Z</time>
      </trkpt>
      <trkpt lat="47.18128" lon="-1.73228">
        <ele>69</ele>
        <time>2020-12-29T11:56:16.000Z</time>
      </trkpt>
      <trkpt lat="47.18135" lon="-1.73242">
        <ele>69</ele>
        <time>2020-12-29T11:56:18.000Z</time>
      </trkpt>
      <trkpt lat="47.18143" lon="-1.73257">
        <ele>70</ele>
        <time>2020-12-29T11:56:20.000Z</time>
      </trkpt>
      <trkpt lat="47.18151" lon="-1.73272">
        <ele>69</ele>
        <time>2020-12-29T11:56:22.000Z</time>
      </trkpt>
      <trkpt lat="47.18159" lon="-1.73286">
        <ele>69</ele>
        <time>2020-12-29T11:56:24.000Z</time>
      </trkpt>
      <trkpt lat="47.18167" lon="-1.73301">
        <ele>69</ele>
        <time>2020-12-29T11:56:26.000Z</time>
      </trkpt>
      <trkpt lat="47.18176" lon="-1.73315">
        <ele>68</ele>
        <time>2020-12-29T11:56:28.000Z</time>
      </trkpt>
      <trkpt lat="47.18185" lon="-1.73328">
        <ele>68</ele>
        <time>2020-12-29T11:56:30.000Z</time>
      </trkpt>
      <trkpt lat="47.18194" lon="-1.7334">
        <ele>67</ele>
        <time>2020-12-29T11:56:32.000Z</time>
      </trkpt>
      <trkpt lat="47.18203" lon="-1.73351">
        <ele>67</ele>
        <time>2020-12-29T11:56:34.000Z</time>
      </trkpt>
      <trkpt lat="47.18213" lon="-1.7336">
        <ele>67</ele>
        <time>2020-12-29T11:56:36.000Z</time>
      </trkpt>
      <trkpt lat="47.18223" lon="-1.73368">
        <ele>67</ele>
        <time>2020-12-29T11:56:38.000Z</time>
      </trkpt>
      <trkpt lat="47.18233" lon="-1.73377">
        <ele>67</ele>
        <time>2020-12-29T11:56:40.000Z</time>
      </trkpt>
      <trkpt lat="47.18243" lon="-1.73387">
        <ele>67</ele>
        <time>2020-12-29T11:56:42.000Z</time>
      </trkpt>
      <trkpt lat="47.18253" lon="-1.73395">
        <ele>67</ele>
        <time>2020-12-29T11:56:44.000Z</time>
      </trkpt>
      <trkpt lat="47.18263" lon="-1.73404">
        <ele>67</ele>
        <time>2020-12-29T11:56:46.000Z</time>
      </trkpt>
      <trkpt lat="47.18273" lon="-1.73413">
        <ele>67</ele>
        <time>2020-12-29T11:56:48.000Z</time>
      </trkpt>
      <trkpt lat="47.18282" lon="-1.73421">
        <ele>67</ele>
        <time>2020-12-29T11:56:50.000Z</time>
      </trkpt>
      <trkpt lat="47.18292" lon="-1.73429">
        <ele>67</ele>
        <time>2020-12-29T11:56:52.000Z</time>
      </trkpt>
      <trkpt lat="47.18301" lon="-1.73437">
        <ele>67</ele>
        <time>2020-12-29T11:56:54.000Z</time>
      </trkpt>
      <trkpt lat="47.18311" lon="-1.73445">
        <ele>67</ele>
        <time>2020-12-29T11:56:56.000Z</time>
      </trkpt>
      <trkpt lat="47.1832" lon="-1.73453">
        <ele>67</ele>
        <time>2020-12-29T11:56:58.000Z</time>
      </trkpt>
      <trkpt lat="47.1833" lon="-1.73462">
        <ele>67</ele>
        <time>2020-12-29T11:57:00.000Z</time>
      </trkpt>
      <trkpt lat="47.1834" lon="-1.7347">
        <ele>68</ele>
        <time>2020-12-29T11:57:02.000Z</time>
      </trkpt>
      <trkpt lat="47.1835" lon="-1.7348">
        <ele>68</ele>
        <time>2020-12-29T11:57:04.000Z</time>
      </trkpt>
      <trkpt lat="47.1836" lon="-1.73489">
        <ele>68</ele>
        <time>2020-12-29T11:57:06.000Z</time>
      </trkpt>
      <trkpt lat="47.1837" lon="-1.73499">
        <ele>67</ele>
        <time>2020-12-29T11:57:08.000Z</time>
      </trkpt>
      <trkpt lat="47.1838" lon="-1.73508">
        <ele>67</ele>
        <time>2020-12-29T11:57:10.000Z</time>
      </trkpt>
      <trkpt lat="47.1839" lon="-1.73517">
        <ele>67</ele>
        <time>2020-12-29T11:57:12.000Z</time>
      </trkpt>
      <trkpt lat="47.184" lon="-1.73527">
        <ele>67</ele>
        <time>2020-12-29T11:57:14.000Z</time>
      </trkpt>
      <trkpt lat="47.18409" lon="-1.73538">
        <ele>67</ele>
        <time>2020-12-29T11:57:16.000Z</time>
      </trkpt>
      <trkpt lat="47.18419" lon="-1.73549">
        <ele>67</ele>
        <time>2020-12-29T11:57:18.000Z</time>
      </trkpt>
      <trkpt lat="47.18428" lon="-1.73559">
        <ele>68</ele>
        <time>2020-12-29T11:57:20.000Z</time>
      </trkpt>
      <trkpt lat="47.18437" lon="-1.73569">
        <ele>68</ele>
        <time>2020-12-29T11:57:22.000Z</time>
      </trkpt>
      <trkpt lat="47.18446" lon="-1.73579">
        <ele>68</ele>
        <time>2020-12-29T11:57:24.000Z</time>
      </trkpt>
      <trkpt lat="47.18455" lon="-1.73588">
        <ele>68</ele>
        <time>2020-12-29T11:57:26.000Z</time>
      </trkpt>
      <trkpt lat="47.18463" lon="-1.73597">
        <ele>68</ele>
        <time>2020-12-29T11:57:28.000Z</time>
      </trkpt>
      <trkpt lat="47.1847" lon="-1.73605">
        <ele>68</ele>
        <time>2020-12-29T11:57:30.000Z</time>
      </trkpt>
      <trkpt lat="47.18481" lon="-1.73613">
        <ele>68</ele>
        <time>2020-12-29T11:57:33.000Z</time>
      </trkpt>
      <trkpt lat="47.18489" lon="-1.7362">
        <ele>68</ele>
        <time>2020-12-29T11:57:41.000Z</time>
      </trkpt>
      <trkpt lat="47.18495" lon="-1.73633">
        <ele>68</ele>
        <time>2020-12-29T11:57:44.000Z</time>
      </trkpt>
      <trkpt lat="47.18497" lon="-1.73649">
        <ele>69</ele>
        <time>2020-12-29T11:57:46.000Z</time>
      </trkpt>
      <trkpt lat="47.185" lon="-1.73666">
        <ele>70</ele>
        <time>2020-12-29T11:57:48.000Z</time>
      </trkpt>
      <trkpt lat="47.18501" lon="-1.73683">
        <ele>71</ele>
        <time>2020-12-29T11:57:50.000Z</time>
      </trkpt>
      <trkpt lat="47.18503" lon="-1.73701">
        <ele>71</ele>
        <time>2020-12-29T11:57:52.000Z</time>
      </trkpt>
      <trkpt lat="47.18505" lon="-1.73718">
        <ele>72</ele>
        <time>2020-12-29T11:57:54.000Z</time>
      </trkpt>
      <trkpt lat="47.18508" lon="-1.73736">
        <ele>72</ele>
        <time>2020-12-29T11:57:56.000Z</time>
      </trkpt>
      <trkpt lat="47.1851" lon="-1.73753">
        <ele>73</ele>
        <time>2020-12-29T11:57:58.000Z</time>
      </trkpt>
      <trkpt lat="47.18512" lon="-1.73771">
        <ele>73</ele>
        <time>2020-12-29T11:58:00.000Z</time>
      </trkpt>
      <trkpt lat="47.18513" lon="-1.73788">
        <ele>73</ele>
        <time>2020-12-29T11:58:02.000Z</time>
      </trkpt>
      <trkpt lat="47.18515" lon="-1.73805">
        <ele>73</ele>
        <time>2020-12-29T11:58:04.000Z</time>
      </trkpt>
      <trkpt lat="47.18516" lon="-1.73822">
        <ele>74</ele>
        <time>2020-12-29T11:58:06.000Z</time>
      </trkpt>
      <trkpt lat="47.18517" lon="-1.73839">
        <ele>74</ele>
        <time>2020-12-29T11:58:08.000Z</time>
      </trkpt>
      <trkpt lat="47.1852" lon="-1.73855">
        <ele>74</ele>
        <time>2020-12-29T11:58:10.000Z</time>
      </trkpt>
      <trkpt lat="47.18521" lon="-1.73872">
        <ele>74</ele>
        <time>2020-12-29T11:58:12.000Z</time>
      </trkpt>
      <trkpt lat="47.18522" lon="-1.73888">
        <ele>74</ele>
        <time>2020-12-29T11:58:14.000Z</time>
      </trkpt>
      <trkpt lat="47.18524" lon="-1.73905">
        <ele>75</ele>
        <time>2020-12-29T11:58:16.000Z</time>
      </trkpt>
      <trkpt lat="47.18525" lon="-1.73921">
        <ele>75</ele>
        <time>2020-12-29T11:58:18.000Z</time>
      </trkpt>
      <trkpt lat="47.18525" lon="-1.73938">
        <ele>74</ele>
        <time>2020-12-29T11:58:20.000Z</time>
      </trkpt>
      <trkpt lat="47.18525" lon="-1.73956">
        <ele>74</ele>
        <time>2020-12-29T11:58:22.000Z</time>
      </trkpt>
      <trkpt lat="47.18525" lon="-1.73973">
        <ele>74</ele>
        <time>2020-12-29T11:58:24.000Z</time>
      </trkpt>
      <trkpt lat="47.18525" lon="-1.7399">
        <ele>74</ele>
        <time>2020-12-29T11:58:26.000Z</time>
      </trkpt>
      <trkpt lat="47.18525" lon="-1.74007">
        <ele>74</ele>
        <time>2020-12-29T11:58:28.000Z</time>
      </trkpt>
      <trkpt lat="47.18524" lon="-1.74024">
        <ele>73</ele>
        <time>2020-12-29T11:58:30.000Z</time>
      </trkpt>
      <trkpt lat="47.18523" lon="-1.74042">
        <ele>73</ele>
        <time>2020-12-29T11:58:32.000Z</time>
      </trkpt>
      <trkpt lat="47.18521" lon="-1.74059">
        <ele>72</ele>
        <time>2020-12-29T11:58:34.000Z</time>
      </trkpt>
      <trkpt lat="47.18521" lon="-1.74076">
        <ele>72</ele>
        <time>2020-12-29T11:58:36.000Z</time>
      </trkpt>
      <trkpt lat="47.1852" lon="-1.74095">
        <ele>71</ele>
        <time>2020-12-29T11:58:38.000Z</time>
      </trkpt>
      <trkpt lat="47.18521" lon="-1.74113">
        <ele>71</ele>
        <time>2020-12-29T11:58:40.000Z</time>
      </trkpt>
      <trkpt lat="47.18523" lon="-1.74129">
        <ele>71</ele>
        <time>2020-12-29T11:58:42.000Z</time>
      </trkpt>
      <trkpt lat="47.18523" lon="-1.74146">
        <ele>71</ele>
        <time>2020-12-29T11:58:44.000Z</time>
      </trkpt>
      <trkpt lat="47.1852" lon="-1.74163">
        <ele>71</ele>
        <time>2020-12-29T11:58:46.000Z</time>
      </trkpt>
      <trkpt lat="47.18519" lon="-1.74181">
        <ele>71</ele>
        <time>2020-12-29T11:58:48.000Z</time>
      </trkpt>
      <trkpt lat="47.18518" lon="-1.74199">
        <ele>71</ele>
        <time>2020-12-29T11:58:50.000Z</time>
      </trkpt>
      <trkpt lat="47.18519" lon="-1.74215">
        <ele>72</ele>
        <time>2020-12-29T11:58:52.000Z</time>
      </trkpt>
      <trkpt lat="47.18519" lon="-1.74231">
        <ele>72</ele>
        <time>2020-12-29T11:58:54.000Z</time>
      </trkpt>
      <trkpt lat="47.1852" lon="-1.74247">
        <ele>72</ele>
        <time>2020-12-29T11:58:56.000Z</time>
      </trkpt>
      <trkpt lat="47.18522" lon="-1.74265">
        <ele>72</ele>
        <time>2020-12-29T11:58:58.000Z</time>
      </trkpt>
      <trkpt lat="47.18523" lon="-1.74281">
        <ele>72</ele>
        <time>2020-12-29T11:59:00.000Z</time>
      </trkpt>
      <trkpt lat="47.18524" lon="-1.74297">
        <ele>73</ele>
        <time>2020-12-29T11:59:02.000Z</time>
      </trkpt>
      <trkpt lat="47.18526" lon="-1.74313">
        <ele>73</ele>
        <time>2020-12-29T11:59:04.000Z</time>
      </trkpt>
      <trkpt lat="47.18526" lon="-1.74329">
        <ele>73</ele>
        <time>2020-12-29T11:59:06.000Z</time>
      </trkpt>
      <trkpt lat="47.18527" lon="-1.74346">
        <ele>73</ele>
        <time>2020-12-29T11:59:08.000Z</time>
      </trkpt>
      <trkpt lat="47.18528" lon="-1.74363">
        <ele>73</ele>
        <time>2020-12-29T11:59:10.000Z</time>
      </trkpt>
      <trkpt lat="47.18528" lon="-1.74379">
        <ele>73</ele>
        <time>2020-12-29T11:59:12.000Z</time>
      </trkpt>
      <trkpt lat="47.18528" lon="-1.74395">
        <ele>73</ele>
        <time>2020-12-29T11:59:14.000Z</time>
      </trkpt>
      <trkpt lat="47.18528" lon="-1.74412">
        <ele>74</ele>
        <time>2020-12-29T11:59:16.000Z</time>
      </trkpt>
      <trkpt lat="47.18528" lon="-1.74429">
        <ele>74</ele>
        <time>2020-12-29T11:59:18.000Z</time>
      </trkpt>
      <trkpt lat="47.18527" lon="-1.74446">
        <ele>74</ele>
        <time>2020-12-29T11:59:20.000Z</time>
      </trkpt>
      <trkpt lat="47.18527" lon="-1.74463">
        <ele>74</ele>
        <time>2020-12-29T11:59:22.000Z</time>
      </trkpt>
      <trkpt lat="47.18527" lon="-1.7448">
        <ele>74</ele>
        <time>2020-12-29T11:59:24.000Z</time>
      </trkpt>
      <trkpt lat="47.18526" lon="-1.74495">
        <ele>74</ele>
        <time>2020-12-29T11:59:26.000Z</time>
      </trkpt>
      <trkpt lat="47.18525" lon="-1.74512">
        <ele>74</ele>
        <time>2020-12-29T11:59:28.000Z</time>
      </trkpt>
      <trkpt lat="47.18524" lon="-1.74528">
        <ele>74</ele>
        <time>2020-12-29T11:59:30.000Z</time>
      </trkpt>
      <trkpt lat="47.18522" lon="-1.74544">
        <ele>75</ele>
        <time>2020-12-29T11:59:32.000Z</time>
      </trkpt>
      <trkpt lat="47.1852" lon="-1.74561">
        <ele>74</ele>
        <time>2020-12-29T11:59:34.000Z</time>
      </trkpt>
      <trkpt lat="47.18519" lon="-1.74577">
        <ele>75</ele>
        <time>2020-12-29T11:59:36.000Z</time>
      </trkpt>
      <trkpt lat="47.18517" lon="-1.74594">
        <ele>74</ele>
        <time>2020-12-29T11:59:38.000Z</time>
      </trkpt>
      <trkpt lat="47.18515" lon="-1.7461">
        <ele>74</ele>
        <time>2020-12-29T11:59:40.000Z</time>
      </trkpt>
      <trkpt lat="47.18514" lon="-1.74626">
        <ele>74</ele>
        <time>2020-12-29T11:59:42.000Z</time>
      </trkpt>
      <trkpt lat="47.18512" lon="-1.74642">
        <ele>74</ele>
        <time>2020-12-29T11:59:44.000Z</time>
      </trkpt>
      <trkpt lat="47.18511" lon="-1.74657">
        <ele>75</ele>
        <time>2020-12-29T11:59:46.000Z</time>
      </trkpt>
      <trkpt lat="47.18509" lon="-1.74674">
        <ele>75</ele>
        <time>2020-12-29T11:59:48.000Z</time>
      </trkpt>
      <trkpt lat="47.18507" lon="-1.74691">
        <ele>75</ele>
        <time>2020-12-29T11:59:50.000Z</time>
      </trkpt>
      <trkpt lat="47.18505" lon="-1.74709">
        <ele>75</ele>
        <time>2020-12-29T11:59:52.000Z</time>
      </trkpt>
      <trkpt lat="47.18503" lon="-1.74726">
        <ele>74</ele>
        <time>2020-12-29T11:59:54.000Z</time>
      </trkpt>
      <trkpt lat="47.18501" lon="-1.74743">
        <ele>74</ele>
        <time>2020-12-29T11:59:56.000Z</time>
      </trkpt>
      <trkpt lat="47.18498" lon="-1.74761">
        <ele>74</ele>
        <time>2020-12-29T11:59:58.000Z</time>
      </trkpt>
      <trkpt lat="47.18495" lon="-1.74777">
        <ele>73</ele>
        <time>2020-12-29T12:00:00.000Z</time>
      </trkpt>
      <trkpt lat="47.18493" lon="-1.74793">
        <ele>73</ele>
        <time>2020-12-29T12:00:02.000Z</time>
      </trkpt>
      <trkpt lat="47.18489" lon="-1.74809">
        <ele>73</ele>
        <time>2020-12-29T12:00:04.000Z</time>
      </trkpt>
      <trkpt lat="47.18487" lon="-1.74825">
        <ele>72</ele>
        <time>2020-12-29T12:00:06.000Z</time>
      </trkpt>
      <trkpt lat="47.18484" lon="-1.74842">
        <ele>72</ele>
        <time>2020-12-29T12:00:08.000Z</time>
      </trkpt>
      <trkpt lat="47.18481" lon="-1.7486">
        <ele>72</ele>
        <time>2020-12-29T12:00:10.000Z</time>
      </trkpt>
      <trkpt lat="47.18478" lon="-1.74878">
        <ele>72</ele>
        <time>2020-12-29T12:00:12.000Z</time>
      </trkpt>
      <trkpt lat="47.18473" lon="-1.74896">
        <ele>72</ele>
        <time>2020-12-29T12:00:14.000Z</time>
      </trkpt>
      <trkpt lat="47.18467" lon="-1.74924">
        <ele>71</ele>
        <time>2020-12-29T12:00:17.000Z</time>
      </trkpt>
      <trkpt lat="47.18462" lon="-1.74952">
        <ele>70</ele>
        <time>2020-12-29T12:00:20.000Z</time>
      </trkpt>
      <trkpt lat="47.18459" lon="-1.74972">
        <ele>70</ele>
        <time>2020-12-29T12:00:22.000Z</time>
      </trkpt>
      <trkpt lat="47.18455" lon="-1.74991">
        <ele>69</ele>
        <time>2020-12-29T12:00:24.000Z</time>
      </trkpt>
      <trkpt lat="47.18451" lon="-1.75011">
        <ele>68</ele>
        <time>2020-12-29T12:00:26.000Z</time>
      </trkpt>
      <trkpt lat="47.18447" lon="-1.75031">
        <ele>68</ele>
        <time>2020-12-29T12:00:28.000Z</time>
      </trkpt>
      <trkpt lat="47.18443" lon="-1.75052">
        <ele>68</ele>
        <time>2020-12-29T12:00:30.000Z</time>
      </trkpt>
      <trkpt lat="47.18439" lon="-1.75072">
        <ele>67</ele>
        <time>2020-12-29T12:00:32.000Z</time>
      </trkpt>
      <trkpt lat="47.18435" lon="-1.75092">
        <ele>67</ele>
        <time>2020-12-29T12:00:34.000Z</time>
      </trkpt>
      <trkpt lat="47.18432" lon="-1.75112">
        <ele>67</ele>
        <time>2020-12-29T12:00:36.000Z</time>
      </trkpt>
      <trkpt lat="47.18428" lon="-1.75132">
        <ele>66</ele>
        <time>2020-12-29T12:00:38.000Z</time>
      </trkpt>
      <trkpt lat="47.18425" lon="-1.75152">
        <ele>66</ele>
        <time>2020-12-29T12:00:40.000Z</time>
      </trkpt>
      <trkpt lat="47.18421" lon="-1.75171">
        <ele>66</ele>
        <time>2020-12-29T12:00:42.000Z</time>
      </trkpt>
      <trkpt lat="47.18417" lon="-1.75191">
        <ele>66</ele>
        <time>2020-12-29T12:00:44.000Z</time>
      </trkpt>
      <trkpt lat="47.18413" lon="-1.7521">
        <ele>66</ele>
        <time>2020-12-29T12:00:46.000Z</time>
      </trkpt>
      <trkpt lat="47.1841" lon="-1.75239">
        <ele>67</ele>
        <time>2020-12-29T12:00:49.000Z</time>
      </trkpt>
      <trkpt lat="47.18408" lon="-1.75257">
        <ele>67</ele>
        <time>2020-12-29T12:00:51.000Z</time>
      </trkpt>
      <trkpt lat="47.18405" lon="-1.75277">
        <ele>67</ele>
        <time>2020-12-29T12:00:53.000Z</time>
      </trkpt>
      <trkpt lat="47.18403" lon="-1.75295">
        <ele>67</ele>
        <time>2020-12-29T12:00:55.000Z</time>
      </trkpt>
      <trkpt lat="47.18402" lon="-1.75314">
        <ele>67</ele>
        <time>2020-12-29T12:00:57.000Z</time>
      </trkpt>
      <trkpt lat="47.184" lon="-1.75332">
        <ele>66</ele>
        <time>2020-12-29T12:00:59.000Z</time>
      </trkpt>
      <trkpt lat="47.184" lon="-1.7535">
        <ele>66</ele>
        <time>2020-12-29T12:01:01.000Z</time>
      </trkpt>
      <trkpt lat="47.18399" lon="-1.75368">
        <ele>66</ele>
        <time>2020-12-29T12:01:03.000Z</time>
      </trkpt>
      <trkpt lat="47.184" lon="-1.75387">
        <ele>66</ele>
        <time>2020-12-29T12:01:05.000Z</time>
      </trkpt>
      <trkpt lat="47.18403" lon="-1.75404">
        <ele>66</ele>
        <time>2020-12-29T12:01:07.000Z</time>
      </trkpt>
      <trkpt lat="47.18403" lon="-1.7543">
        <ele>66</ele>
        <time>2020-12-29T12:01:10.000Z</time>
      </trkpt>
      <trkpt lat="47.18401" lon="-1.75447">
        <ele>66</ele>
        <time>2020-12-29T12:01:12.000Z</time>
      </trkpt>
      <trkpt lat="47.18399" lon="-1.75471">
        <ele>66</ele>
        <time>2020-12-29T12:01:15.000Z</time>
      </trkpt>
      <trkpt lat="47.18399" lon="-1.75486">
        <ele>67</ele>
        <time>2020-12-29T12:01:17.000Z</time>
      </trkpt>
      <trkpt lat="47.184" lon="-1.75501">
        <ele>67</ele>
        <time>2020-12-29T12:01:19.000Z</time>
      </trkpt>
      <trkpt lat="47.18401" lon="-1.75517">
        <ele>67</ele>
        <time>2020-12-29T12:01:21.000Z</time>
      </trkpt>
      <trkpt lat="47.18403" lon="-1.75541">
        <ele>68</ele>
        <time>2020-12-29T12:01:24.000Z</time>
      </trkpt>
      <trkpt lat="47.18405" lon="-1.75564">
        <ele>68</ele>
        <time>2020-12-29T12:01:27.000Z</time>
      </trkpt>
      <trkpt lat="47.18406" lon="-1.7558">
        <ele>69</ele>
        <time>2020-12-29T12:01:29.000Z</time>
      </trkpt>
      <trkpt lat="47.18408" lon="-1.75596">
        <ele>69</ele>
        <time>2020-12-29T12:01:31.000Z</time>
      </trkpt>
      <trkpt lat="47.18409" lon="-1.75611">
        <ele>69</ele>
        <time>2020-12-29T12:01:33.000Z</time>
      </trkpt>
      <trkpt lat="47.18409" lon="-1.75627">
        <ele>69</ele>
        <time>2020-12-29T12:01:35.000Z</time>
      </trkpt>
      <trkpt lat="47.1841" lon="-1.75643">
        <ele>69</ele>
        <time>2020-12-29T12:01:37.000Z</time>
      </trkpt>
      <trkpt lat="47.1841" lon="-1.7566">
        <ele>69</ele>
        <time>2020-12-29T12:01:39.000Z</time>
      </trkpt>
      <trkpt lat="47.1841" lon="-1.75676">
        <ele>69</ele>
        <time>2020-12-29T12:01:41.000Z</time>
      </trkpt>
      <trkpt lat="47.1841" lon="-1.75692">
        <ele>69</ele>
        <time>2020-12-29T12:01:43.000Z</time>
      </trkpt>
      <trkpt lat="47.1841" lon="-1.75708">
        <ele>69</ele>
        <time>2020-12-29T12:01:45.000Z</time>
      </trkpt>
      <trkpt lat="47.18409" lon="-1.75732">
        <ele>69</ele>
        <time>2020-12-29T12:01:48.000Z</time>
      </trkpt>
      <trkpt lat="47.18408" lon="-1.75748">
        <ele>69</ele>
        <time>2020-12-29T12:01:50.000Z</time>
      </trkpt>
      <trkpt lat="47.18407" lon="-1.75765">
        <ele>69</ele>
        <time>2020-12-29T12:01:52.000Z</time>
      </trkpt>
      <trkpt lat="47.18406" lon="-1.75781">
        <ele>69</ele>
        <time>2020-12-29T12:01:54.000Z</time>
      </trkpt>
      <trkpt lat="47.18403" lon="-1.75806">
        <ele>68</ele>
        <time>2020-12-29T12:01:57.000Z</time>
      </trkpt>
      <trkpt lat="47.184" lon="-1.7583">
        <ele>68</ele>
        <time>2020-12-29T12:02:00.000Z</time>
      </trkpt>
      <trkpt lat="47.18399" lon="-1.75847">
        <ele>67</ele>
        <time>2020-12-29T12:02:02.000Z</time>
      </trkpt>
      <trkpt lat="47.18395" lon="-1.75872">
        <ele>67</ele>
        <time>2020-12-29T12:02:05.000Z</time>
      </trkpt>
      <trkpt lat="47.18393" lon="-1.7589">
        <ele>66</ele>
        <time>2020-12-29T12:02:07.000Z</time>
      </trkpt>
      <trkpt lat="47.18391" lon="-1.75908">
        <ele>66</ele>
        <time>2020-12-29T12:02:09.000Z</time>
      </trkpt>
      <trkpt lat="47.18389" lon="-1.75925">
        <ele>66</ele>
        <time>2020-12-29T12:02:11.000Z</time>
      </trkpt>
      <trkpt lat="47.18387" lon="-1.75943">
        <ele>66</ele>
        <time>2020-12-29T12:02:13.000Z</time>
      </trkpt>
      <trkpt lat="47.18385" lon="-1.75969">
        <ele>65</ele>
        <time>2020-12-29T12:02:16.000Z</time>
      </trkpt>
      <trkpt lat="47.18383" lon="-1.75987">
        <ele>65</ele>
        <time>2020-12-29T12:02:18.000Z</time>
      </trkpt>
      <trkpt lat="47.18381" lon="-1.76005">
        <ele>65</ele>
        <time>2020-12-29T12:02:20.000Z</time>
      </trkpt>
      <trkpt lat="47.18379" lon="-1.76023">
        <ele>64</ele>
        <time>2020-12-29T12:02:22.000Z</time>
      </trkpt>
      <trkpt lat="47.18376" lon="-1.76041">
        <ele>63</ele>
        <time>2020-12-29T12:02:24.000Z</time>
      </trkpt>
      <trkpt lat="47.18374" lon="-1.7606">
        <ele>63</ele>
        <time>2020-12-29T12:02:26.000Z</time>
      </trkpt>
      <trkpt lat="47.18372" lon="-1.76078">
        <ele>63</ele>
        <time>2020-12-29T12:02:28.000Z</time>
      </trkpt>
      <trkpt lat="47.1837" lon="-1.76096">
        <ele>63</ele>
        <time>2020-12-29T12:02:30.000Z</time>
      </trkpt>
      <trkpt lat="47.18368" lon="-1.76115">
        <ele>63</ele>
        <time>2020-12-29T12:02:32.000Z</time>
      </trkpt>
      <trkpt lat="47.18366" lon="-1.76133">
        <ele>62</ele>
        <time>2020-12-29T12:02:34.000Z</time>
      </trkpt>
      <trkpt lat="47.18364" lon="-1.76152">
        <ele>62</ele>
        <time>2020-12-29T12:02:36.000Z</time>
      </trkpt>
      <trkpt lat="47.18361" lon="-1.7617">
        <ele>62</ele>
        <time>2020-12-29T12:02:38.000Z</time>
      </trkpt>
      <trkpt lat="47.1836" lon="-1.76188">
        <ele>61</ele>
        <time>2020-12-29T12:02:40.000Z</time>
      </trkpt>
      <trkpt lat="47.18358" lon="-1.76207">
        <ele>61</ele>
        <time>2020-12-29T12:02:42.000Z</time>
      </trkpt>
      <trkpt lat="47.18355" lon="-1.76225">
        <ele>61</ele>
        <time>2020-12-29T12:02:44.000Z</time>
      </trkpt>
      <trkpt lat="47.18353" lon="-1.76244">
        <ele>60</ele>
        <time>2020-12-29T12:02:46.000Z</time>
      </trkpt>
      <trkpt lat="47.18351" lon="-1.76263">
        <ele>60</ele>
        <time>2020-12-29T12:02:48.000Z</time>
      </trkpt>
      <trkpt lat="47.1835" lon="-1.76281">
        <ele>60</ele>
        <time>2020-12-29T12:02:50.000Z</time>
      </trkpt>
      <trkpt lat="47.18349" lon="-1.76299">
        <ele>60</ele>
        <time>2020-12-29T12:02:52.000Z</time>
      </trkpt>
      <trkpt lat="47.18347" lon="-1.76316">
        <ele>60</ele>
        <time>2020-12-29T12:02:54.000Z</time>
      </trkpt>
      <trkpt lat="47.18346" lon="-1.76334">
        <ele>60</ele>
        <time>2020-12-29T12:02:56.000Z</time>
      </trkpt>
      <trkpt lat="47.18346" lon="-1.7635">
        <ele>61</ele>
        <time>2020-12-29T12:02:58.000Z</time>
      </trkpt>
      <trkpt lat="47.18344" lon="-1.76367">
        <ele>61</ele>
        <time>2020-12-29T12:03:00.000Z</time>
      </trkpt>
      <trkpt lat="47.18343" lon="-1.76384">
        <ele>61</ele>
        <time>2020-12-29T12:03:02.000Z</time>
      </trkpt>
      <trkpt lat="47.18342" lon="-1.76401">
        <ele>61</ele>
        <time>2020-12-29T12:03:04.000Z</time>
      </trkpt>
      <trkpt lat="47.18341" lon="-1.76417">
        <ele>61</ele>
        <time>2020-12-29T12:03:06.000Z</time>
      </trkpt>
      <trkpt lat="47.1834" lon="-1.76432">
        <ele>61</ele>
        <time>2020-12-29T12:03:08.000Z</time>
      </trkpt>
      <trkpt lat="47.1834" lon="-1.76449">
        <ele>61</ele>
        <time>2020-12-29T12:03:10.000Z</time>
      </trkpt>
      <trkpt lat="47.18339" lon="-1.76464">
        <ele>61</ele>
        <time>2020-12-29T12:03:12.000Z</time>
      </trkpt>
      <trkpt lat="47.18339" lon="-1.7648">
        <ele>61</ele>
        <time>2020-12-29T12:03:14.000Z</time>
      </trkpt>
      <trkpt lat="47.18338" lon="-1.76495">
        <ele>61</ele>
        <time>2020-12-29T12:03:16.000Z</time>
      </trkpt>
      <trkpt lat="47.18338" lon="-1.76512">
        <ele>61</ele>
        <time>2020-12-29T12:03:18.000Z</time>
      </trkpt>
      <trkpt lat="47.18338" lon="-1.76528">
        <ele>62</ele>
        <time>2020-12-29T12:03:20.000Z</time>
      </trkpt>
      <trkpt lat="47.18338" lon="-1.76543">
        <ele>62</ele>
        <time>2020-12-29T12:03:22.000Z</time>
      </trkpt>
      <trkpt lat="47.18338" lon="-1.76559">
        <ele>62</ele>
        <time>2020-12-29T12:03:24.000Z</time>
      </trkpt>
      <trkpt lat="47.18338" lon="-1.76582">
        <ele>63</ele>
        <time>2020-12-29T12:03:27.000Z</time>
      </trkpt>
      <trkpt lat="47.18339" lon="-1.76598">
        <ele>63</ele>
        <time>2020-12-29T12:03:29.000Z</time>
      </trkpt>
      <trkpt lat="47.1834" lon="-1.76612">
        <ele>64</ele>
        <time>2020-12-29T12:03:31.000Z</time>
      </trkpt>
      <trkpt lat="47.18341" lon="-1.76626">
        <ele>64</ele>
        <time>2020-12-29T12:03:33.000Z</time>
      </trkpt>
      <trkpt lat="47.18343" lon="-1.76642">
        <ele>64</ele>
        <time>2020-12-29T12:03:35.000Z</time>
      </trkpt>
      <trkpt lat="47.18344" lon="-1.76657">
        <ele>65</ele>
        <time>2020-12-29T12:03:37.000Z</time>
      </trkpt>
      <trkpt lat="47.18346" lon="-1.76672">
        <ele>65</ele>
        <time>2020-12-29T12:03:39.000Z</time>
      </trkpt>
      <trkpt lat="47.18347" lon="-1.76686">
        <ele>65</ele>
        <time>2020-12-29T12:03:41.000Z</time>
      </trkpt>
      <trkpt lat="47.18349" lon="-1.767">
        <ele>65</ele>
        <time>2020-12-29T12:03:43.000Z</time>
      </trkpt>
      <trkpt lat="47.18351" lon="-1.76713">
        <ele>66</ele>
        <time>2020-12-29T12:03:45.000Z</time>
      </trkpt>
      <trkpt lat="47.18352" lon="-1.76727">
        <ele>66</ele>
        <time>2020-12-29T12:03:47.000Z</time>
      </trkpt>
      <trkpt lat="47.18354" lon="-1.76742">
        <ele>67</ele>
        <time>2020-12-29T12:03:49.000Z</time>
      </trkpt>
      <trkpt lat="47.18355" lon="-1.76757">
        <ele>67</ele>
        <time>2020-12-29T12:03:51.000Z</time>
      </trkpt>
      <trkpt lat="47.18357" lon="-1.76772">
        <ele>67</ele>
        <time>2020-12-29T12:03:53.000Z</time>
      </trkpt>
      <trkpt lat="47.18358" lon="-1.76787">
        <ele>68</ele>
        <time>2020-12-29T12:03:55.000Z</time>
      </trkpt>
      <trkpt lat="47.1836" lon="-1.76803">
        <ele>68</ele>
        <time>2020-12-29T12:03:57.000Z</time>
      </trkpt>
      <trkpt lat="47.18361" lon="-1.76818">
        <ele>68</ele>
        <time>2020-12-29T12:03:59.000Z</time>
      </trkpt>
      <trkpt lat="47.18362" lon="-1.76834">
        <ele>68</ele>
        <time>2020-12-29T12:04:01.000Z</time>
      </trkpt>
      <trkpt lat="47.18363" lon="-1.76849">
        <ele>68</ele>
        <time>2020-12-29T12:04:03.000Z</time>
      </trkpt>
      <trkpt lat="47.18365" lon="-1.76865">
        <ele>68</ele>
        <time>2020-12-29T12:04:05.000Z</time>
      </trkpt>
      <trkpt lat="47.18367" lon="-1.7688">
        <ele>68</ele>
        <time>2020-12-29T12:04:07.000Z</time>
      </trkpt>
      <trkpt lat="47.18369" lon="-1.76895">
        <ele>68</ele>
        <time>2020-12-29T12:04:09.000Z</time>
      </trkpt>
      <trkpt lat="47.18371" lon="-1.7691">
        <ele>69</ele>
        <time>2020-12-29T12:04:11.000Z</time>
      </trkpt>
      <trkpt lat="47.18372" lon="-1.76926">
        <ele>69</ele>
        <time>2020-12-29T12:04:13.000Z</time>
      </trkpt>
      <trkpt lat="47.18374" lon="-1.76941">
        <ele>69</ele>
        <time>2020-12-29T12:04:15.000Z</time>
      </trkpt>
      <trkpt lat="47.18375" lon="-1.76956">
        <ele>69</ele>
        <time>2020-12-29T12:04:17.000Z</time>
      </trkpt>
      <trkpt lat="47.18376" lon="-1.76972">
        <ele>69</ele>
        <time>2020-12-29T12:04:19.000Z</time>
      </trkpt>
      <trkpt lat="47.18377" lon="-1.76988">
        <ele>69</ele>
        <time>2020-12-29T12:04:21.000Z</time>
      </trkpt>
      <trkpt lat="47.18378" lon="-1.77003">
        <ele>69</ele>
        <time>2020-12-29T12:04:23.000Z</time>
      </trkpt>
      <trkpt lat="47.18378" lon="-1.77018">
        <ele>70</ele>
        <time>2020-12-29T12:04:25.000Z</time>
      </trkpt>
      <trkpt lat="47.18378" lon="-1.77033">
        <ele>70</ele>
        <time>2020-12-29T12:04:27.000Z</time>
      </trkpt>
      <trkpt lat="47.18378" lon="-1.77048">
        <ele>70</ele>
        <time>2020-12-29T12:04:29.000Z</time>
      </trkpt>
      <trkpt lat="47.18377" lon="-1.77064">
        <ele>70</ele>
        <time>2020-12-29T12:04:31.000Z</time>
      </trkpt>
      <trkpt lat="47.18377" lon="-1.77079">
        <ele>71</ele>
        <time>2020-12-29T12:04:33.000Z</time>
      </trkpt>
      <trkpt lat="47.18375" lon="-1.77102">
        <ele>70</ele>
        <time>2020-12-29T12:04:36.000Z</time>
      </trkpt>
      <trkpt lat="47.18374" lon="-1.77119">
        <ele>70</ele>
        <time>2020-12-29T12:04:38.000Z</time>
      </trkpt>
      <trkpt lat="47.18371" lon="-1.77134">
        <ele>70</ele>
        <time>2020-12-29T12:04:40.000Z</time>
      </trkpt>
      <trkpt lat="47.1837" lon="-1.7715">
        <ele>71</ele>
        <time>2020-12-29T12:04:42.000Z</time>
      </trkpt>
      <trkpt lat="47.18368" lon="-1.77165">
        <ele>71</ele>
        <time>2020-12-29T12:04:44.000Z</time>
      </trkpt>
      <trkpt lat="47.18367" lon="-1.7718">
        <ele>71</ele>
        <time>2020-12-29T12:04:46.000Z</time>
      </trkpt>
      <trkpt lat="47.18365" lon="-1.77196">
        <ele>71</ele>
        <time>2020-12-29T12:04:48.000Z</time>
      </trkpt>
      <trkpt lat="47.18365" lon="-1.77211">
        <ele>72</ele>
        <time>2020-12-29T12:04:50.000Z</time>
      </trkpt>
      <trkpt lat="47.18364" lon="-1.77227">
        <ele>72</ele>
        <time>2020-12-29T12:04:52.000Z</time>
      </trkpt>
      <trkpt lat="47.18364" lon="-1.77242">
        <ele>72</ele>
        <time>2020-12-29T12:04:54.000Z</time>
      </trkpt>
      <trkpt lat="47.18364" lon="-1.77258">
        <ele>72</ele>
        <time>2020-12-29T12:04:56.000Z</time>
      </trkpt>
      <trkpt lat="47.18365" lon="-1.77273">
        <ele>72</ele>
        <time>2020-12-29T12:04:58.000Z</time>
      </trkpt>
      <trkpt lat="47.18365" lon="-1.77289">
        <ele>72</ele>
        <time>2020-12-29T12:05:00.000Z</time>
      </trkpt>
      <trkpt lat="47.18366" lon="-1.77305">
        <ele>72</ele>
        <time>2020-12-29T12:05:02.000Z</time>
      </trkpt>
      <trkpt lat="47.18367" lon="-1.77321">
        <ele>72</ele>
        <time>2020-12-29T12:05:04.000Z</time>
      </trkpt>
      <trkpt lat="47.18368" lon="-1.77336">
        <ele>72</ele>
        <time>2020-12-29T12:05:06.000Z</time>
      </trkpt>
      <trkpt lat="47.18368" lon="-1.77351">
        <ele>73</ele>
        <time>2020-12-29T12:05:08.000Z</time>
      </trkpt>
      <trkpt lat="47.18369" lon="-1.77366">
        <ele>72</ele>
        <time>2020-12-29T12:05:10.000Z</time>
      </trkpt>
      <trkpt lat="47.1837" lon="-1.77381">
        <ele>72</ele>
        <time>2020-12-29T12:05:12.000Z</time>
      </trkpt>
      <trkpt lat="47.18371" lon="-1.77397">
        <ele>73</ele>
        <time>2020-12-29T12:05:14.000Z</time>
      </trkpt>
      <trkpt lat="47.18372" lon="-1.77412">
        <ele>72</ele>
        <time>2020-12-29T12:05:16.000Z</time>
      </trkpt>
      <trkpt lat="47.18372" lon="-1.77428">
        <ele>72</ele>
        <time>2020-12-29T12:05:18.000Z</time>
      </trkpt>
      <trkpt lat="47.18373" lon="-1.77444">
        <ele>73</ele>
        <time>2020-12-29T12:05:20.000Z</time>
      </trkpt>
      <trkpt lat="47.18374" lon="-1.7746">
        <ele>73</ele>
        <time>2020-12-29T12:05:22.000Z</time>
      </trkpt>
      <trkpt lat="47.18375" lon="-1.77476">
        <ele>73</ele>
        <time>2020-12-29T12:05:24.000Z</time>
      </trkpt>
      <trkpt lat="47.18375" lon="-1.77492">
        <ele>73</ele>
        <time>2020-12-29T12:05:26.000Z</time>
      </trkpt>
      <trkpt lat="47.18375" lon="-1.77507">
        <ele>72</ele>
        <time>2020-12-29T12:05:28.000Z</time>
      </trkpt>
      <trkpt lat="47.18373" lon="-1.77522">
        <ele>73</ele>
        <time>2020-12-29T12:05:30.000Z</time>
      </trkpt>
      <trkpt lat="47.1837" lon="-1.77536">
        <ele>73</ele>
        <time>2020-12-29T12:05:32.000Z</time>
      </trkpt>
      <trkpt lat="47.18366" lon="-1.77548">
        <ele>73</ele>
        <time>2020-12-29T12:05:34.000Z</time>
      </trkpt>
      <trkpt lat="47.1836" lon="-1.77561">
        <ele>73</ele>
        <time>2020-12-29T12:05:37.000Z</time>
      </trkpt>
      <trkpt lat="47.18356" lon="-1.77573">
        <ele>73</ele>
        <time>2020-12-29T12:07:34.000Z</time>
      </trkpt>
      <trkpt lat="47.18355" lon="-1.77586">
        <ele>72</ele>
        <time>2020-12-29T12:07:37.000Z</time>
      </trkpt>
      <trkpt lat="47.18354" lon="-1.77606">
        <ele>72</ele>
        <time>2020-12-29T12:07:40.000Z</time>
      </trkpt>
      <trkpt lat="47.18352" lon="-1.7762">
        <ele>72</ele>
        <time>2020-12-29T12:07:42.000Z</time>
      </trkpt>
      <trkpt lat="47.18347" lon="-1.77637">
        <ele>71</ele>
        <time>2020-12-29T12:07:44.000Z</time>
      </trkpt>
      <trkpt lat="47.18342" lon="-1.77652">
        <ele>71</ele>
        <time>2020-12-29T12:07:46.000Z</time>
      </trkpt>
      <trkpt lat="47.18338" lon="-1.77667">
        <ele>71</ele>
        <time>2020-12-29T12:07:48.000Z</time>
      </trkpt>
      <trkpt lat="47.18332" lon="-1.77683">
        <ele>71</ele>
        <time>2020-12-29T12:07:50.000Z</time>
      </trkpt>
      <trkpt lat="47.18327" lon="-1.77699">
        <ele>71</ele>
        <time>2020-12-29T12:07:52.000Z</time>
      </trkpt>
      <trkpt lat="47.18322" lon="-1.77715">
        <ele>72</ele>
        <time>2020-12-29T12:07:54.000Z</time>
      </trkpt>
      <trkpt lat="47.18317" lon="-1.7773">
        <ele>72</ele>
        <time>2020-12-29T12:07:56.000Z</time>
      </trkpt>
      <trkpt lat="47.18313" lon="-1.77745">
        <ele>71</ele>
        <time>2020-12-29T12:07:58.000Z</time>
      </trkpt>
      <trkpt lat="47.18307" lon="-1.77762">
        <ele>72</ele>
        <time>2020-12-29T12:08:00.000Z</time>
      </trkpt>
      <trkpt lat="47.18302" lon="-1.77777">
        <ele>72</ele>
        <time>2020-12-29T12:08:02.000Z</time>
      </trkpt>
      <trkpt lat="47.18297" lon="-1.77794">
        <ele>71</ele>
        <time>2020-12-29T12:08:04.000Z</time>
      </trkpt>
      <trkpt lat="47.18292" lon="-1.7781">
        <ele>71</ele>
        <time>2020-12-29T12:08:06.000Z</time>
      </trkpt>
      <trkpt lat="47.18287" lon="-1.77825">
        <ele>71</ele>
        <time>2020-12-29T12:08:08.000Z</time>
      </trkpt>
      <trkpt lat="47.18282" lon="-1.7784">
        <ele>72</ele>
        <time>2020-12-29T12:08:10.000Z</time>
      </trkpt>
      <trkpt lat="47.18278" lon="-1.77855">
        <ele>72</ele>
        <time>2020-12-29T12:08:12.000Z</time>
      </trkpt>
      <trkpt lat="47.1828" lon="-1.7787">
        <ele>72</ele>
        <time>2020-12-29T12:08:14.000Z</time>
      </trkpt>
      <trkpt lat="47.18286" lon="-1.77883">
        <ele>72</ele>
        <time>2020-12-29T12:08:16.000Z</time>
      </trkpt>
      <trkpt lat="47.18295" lon="-1.77893">
        <ele>73</ele>
        <time>2020-12-29T12:08:18.000Z</time>
      </trkpt>
      <trkpt lat="47.18301" lon="-1.77905">
        <ele>72</ele>
        <time>2020-12-29T12:08:20.000Z</time>
      </trkpt>
      <trkpt lat="47.18299" lon="-1.7792">
        <ele>73</ele>
        <time>2020-12-29T12:08:22.000Z</time>
      </trkpt>
      <trkpt lat="47.18292" lon="-1.77933">
        <ele>73</ele>
        <time>2020-12-29T12:08:24.000Z</time>
      </trkpt>
      <trkpt lat="47.18283" lon="-1.77942">
        <ele>73</ele>
        <time>2020-12-29T12:08:26.000Z</time>
      </trkpt>
      <trkpt lat="47.18271" lon="-1.77951">
        <ele>72</ele>
        <time>2020-12-29T12:08:28.000Z</time>
      </trkpt>
      <trkpt lat="47.18261" lon="-1.77964">
        <ele>72</ele>
        <time>2020-12-29T12:08:30.000Z</time>
      </trkpt>
      <trkpt lat="47.18252" lon="-1.77979">
        <ele>72</ele>
        <time>2020-12-29T12:08:32.000Z</time>
      </trkpt>
      <trkpt lat="47.18244" lon="-1.77994">
        <ele>72</ele>
        <time>2020-12-29T12:08:34.000Z</time>
      </trkpt>
      <trkpt lat="47.18236" lon="-1.78009">
        <ele>72</ele>
        <time>2020-12-29T12:08:36.000Z</time>
      </trkpt>
      <trkpt lat="47.18227" lon="-1.78024">
        <ele>72</ele>
        <time>2020-12-29T12:08:38.000Z</time>
      </trkpt>
      <trkpt lat="47.18219" lon="-1.78039">
        <ele>73</ele>
        <time>2020-12-29T12:08:40.000Z</time>
      </trkpt>
      <trkpt lat="47.18211" lon="-1.78054">
        <ele>73</ele>
        <time>2020-12-29T12:08:42.000Z</time>
      </trkpt>
      <trkpt lat="47.18203" lon="-1.78069">
        <ele>73</ele>
        <time>2020-12-29T12:08:44.000Z</time>
      </trkpt>
      <trkpt lat="47.18195" lon="-1.78084">
        <ele>73</ele>
        <time>2020-12-29T12:08:46.000Z</time>
      </trkpt>
      <trkpt lat="47.18187" lon="-1.78099">
        <ele>74</ele>
        <time>2020-12-29T12:08:48.000Z</time>
      </trkpt>
      <trkpt lat="47.18179" lon="-1.78114">
        <ele>74</ele>
        <time>2020-12-29T12:08:50.000Z</time>
      </trkpt>
      <trkpt lat="47.1817" lon="-1.7813">
        <ele>74</ele>
        <time>2020-12-29T12:08:52.000Z</time>
      </trkpt>
      <trkpt lat="47.18162" lon="-1.78145">
        <ele>74</ele>
        <time>2020-12-29T12:08:54.000Z</time>
      </trkpt>
      <trkpt lat="47.18153" lon="-1.78159">
        <ele>73</ele>
        <time>2020-12-29T12:08:56.000Z</time>
      </trkpt>
      <trkpt lat="47.18144" lon="-1.78173">
        <ele>73</ele>
        <time>2020-12-29T12:08:58.000Z</time>
      </trkpt>
      <trkpt lat="47.18136" lon="-1.78186">
        <ele>73</ele>
        <time>2020-12-29T12:09:00.000Z</time>
      </trkpt>
      <trkpt lat="47.18126" lon="-1.78197">
        <ele>73</ele>
        <time>2020-12-29T12:09:02.000Z</time>
      </trkpt>
      <trkpt lat="47.18117" lon="-1.78209">
        <ele>73</ele>
        <time>2020-12-29T12:09:04.000Z</time>
      </trkpt>
      <trkpt lat="47.18106" lon="-1.78219">
        <ele>73</ele>
        <time>2020-12-29T12:09:06.000Z</time>
      </trkpt>
      <trkpt lat="47.18094" lon="-1.78228">
        <ele>73</ele>
        <time>2020-12-29T12:09:08.000Z</time>
      </trkpt>
      <trkpt lat="47.18082" lon="-1.78236">
        <ele>74</ele>
        <time>2020-12-29T12:09:10.000Z</time>
      </trkpt>
      <trkpt lat="47.18071" lon="-1.78241">
        <ele>74</ele>
        <time>2020-12-29T12:09:12.000Z</time>
      </trkpt>
      <trkpt lat="47.18058" lon="-1.78247">
        <ele>73</ele>
        <time>2020-12-29T12:09:14.000Z</time>
      </trkpt>
      <trkpt lat="47.18044" lon="-1.7825">
        <ele>73</ele>
        <time>2020-12-29T12:09:16.000Z</time>
      </trkpt>
      <trkpt lat="47.1803" lon="-1.78253">
        <ele>72</ele>
        <time>2020-12-29T12:09:18.000Z</time>
      </trkpt>
      <trkpt lat="47.18016" lon="-1.78257">
        <ele>71</ele>
        <time>2020-12-29T12:09:20.000Z</time>
      </trkpt>
      <trkpt lat="47.18002" lon="-1.7826">
        <ele>71</ele>
        <time>2020-12-29T12:09:22.000Z</time>
      </trkpt>
      <trkpt lat="47.17987" lon="-1.78262">
        <ele>71</ele>
        <time>2020-12-29T12:09:24.000Z</time>
      </trkpt>
      <trkpt lat="47.17973" lon="-1.78265">
        <ele>70</ele>
        <time>2020-12-29T12:09:26.000Z</time>
      </trkpt>
      <trkpt lat="47.17958" lon="-1.78268">
        <ele>70</ele>
        <time>2020-12-29T12:09:28.000Z</time>
      </trkpt>
      <trkpt lat="47.17943" lon="-1.78271">
        <ele>70</ele>
        <time>2020-12-29T12:09:30.000Z</time>
      </trkpt>
      <trkpt lat="47.17929" lon="-1.78274">
        <ele>69</ele>
        <time>2020-12-29T12:09:32.000Z</time>
      </trkpt>
      <trkpt lat="47.17914" lon="-1.78277">
        <ele>68</ele>
        <time>2020-12-29T12:09:34.000Z</time>
      </trkpt>
      <trkpt lat="47.179" lon="-1.78279">
        <ele>68</ele>
        <time>2020-12-29T12:09:36.000Z</time>
      </trkpt>
      <trkpt lat="47.17885" lon="-1.78282">
        <ele>68</ele>
        <time>2020-12-29T12:09:38.000Z</time>
      </trkpt>
      <trkpt lat="47.1787" lon="-1.78287">
        <ele>68</ele>
        <time>2020-12-29T12:09:40.000Z</time>
      </trkpt>
      <trkpt lat="47.17856" lon="-1.78293">
        <ele>67</ele>
        <time>2020-12-29T12:09:42.000Z</time>
      </trkpt>
      <trkpt lat="47.17842" lon="-1.78301">
        <ele>67</ele>
        <time>2020-12-29T12:09:44.000Z</time>
      </trkpt>
      <trkpt lat="47.17829" lon="-1.78313">
        <ele>66</ele>
        <time>2020-12-29T12:09:46.000Z</time>
      </trkpt>
      <trkpt lat="47.17819" lon="-1.78328">
        <ele>66</ele>
        <time>2020-12-29T12:09:48.000Z</time>
      </trkpt>
      <trkpt lat="47.17809" lon="-1.78344">
        <ele>66</ele>
        <time>2020-12-29T12:09:50.000Z</time>
      </trkpt>
      <trkpt lat="47.178" lon="-1.78361">
        <ele>66</ele>
        <time>2020-12-29T12:09:52.000Z</time>
      </trkpt>
      <trkpt lat="47.17791" lon="-1.78377">
        <ele>66</ele>
        <time>2020-12-29T12:09:54.000Z</time>
      </trkpt>
      <trkpt lat="47.17781" lon="-1.78394">
        <ele>66</ele>
        <time>2020-12-29T12:09:56.000Z</time>
      </trkpt>
      <trkpt lat="47.17772" lon="-1.78411">
        <ele>66</ele>
        <time>2020-12-29T12:09:58.000Z</time>
      </trkpt>
      <trkpt lat="47.17763" lon="-1.78427">
        <ele>66</ele>
        <time>2020-12-29T12:10:00.000Z</time>
      </trkpt>
      <trkpt lat="47.17753" lon="-1.78443">
        <ele>66</ele>
        <time>2020-12-29T12:10:02.000Z</time>
      </trkpt>
      <trkpt lat="47.17743" lon="-1.78458">
        <ele>66</ele>
        <time>2020-12-29T12:10:04.000Z</time>
      </trkpt>
      <trkpt lat="47.17732" lon="-1.78471">
        <ele>66</ele>
        <time>2020-12-29T12:10:06.000Z</time>
      </trkpt>
      <trkpt lat="47.17721" lon="-1.78484">
        <ele>66</ele>
        <time>2020-12-29T12:10:08.000Z</time>
      </trkpt>
      <trkpt lat="47.1771" lon="-1.78497">
        <ele>66</ele>
        <time>2020-12-29T12:10:10.000Z</time>
      </trkpt>
      <trkpt lat="47.17699" lon="-1.78509">
        <ele>66</ele>
        <time>2020-12-29T12:10:12.000Z</time>
      </trkpt>
      <trkpt lat="47.17687" lon="-1.78522">
        <ele>66</ele>
        <time>2020-12-29T12:10:14.000Z</time>
      </trkpt>
      <trkpt lat="47.17677" lon="-1.78535">
        <ele>66</ele>
        <time>2020-12-29T12:10:16.000Z</time>
      </trkpt>
      <trkpt lat="47.17666" lon="-1.78548">
        <ele>66</ele>
        <time>2020-12-29T12:10:18.000Z</time>
      </trkpt>
      <trkpt lat="47.17654" lon="-1.7856">
        <ele>66</ele>
        <time>2020-12-29T12:10:20.000Z</time>
      </trkpt>
      <trkpt lat="47.17642" lon="-1.78572">
        <ele>66</ele>
        <time>2020-12-29T12:10:22.000Z</time>
      </trkpt>
      <trkpt lat="47.17631" lon="-1.78584">
        <ele>66</ele>
        <time>2020-12-29T12:10:24.000Z</time>
      </trkpt>
      <trkpt lat="47.17619" lon="-1.78595">
        <ele>66</ele>
        <time>2020-12-29T12:10:26.000Z</time>
      </trkpt>
      <trkpt lat="47.17606" lon="-1.78605">
        <ele>66</ele>
        <time>2020-12-29T12:10:28.000Z</time>
      </trkpt>
      <trkpt lat="47.17593" lon="-1.78614">
        <ele>65</ele>
        <time>2020-12-29T12:10:30.000Z</time>
      </trkpt>
      <trkpt lat="47.1758" lon="-1.78622">
        <ele>65</ele>
        <time>2020-12-29T12:10:32.000Z</time>
      </trkpt>
      <trkpt lat="47.17567" lon="-1.7863">
        <ele>64</ele>
        <time>2020-12-29T12:10:34.000Z</time>
      </trkpt>
      <trkpt lat="47.17553" lon="-1.78638">
        <ele>64</ele>
        <time>2020-12-29T12:10:36.000Z</time>
      </trkpt>
      <trkpt lat="47.1754" lon="-1.78645">
        <ele>65</ele>
        <time>2020-12-29T12:10:38.000Z</time>
      </trkpt>
      <trkpt lat="47.17527" lon="-1.78652">
        <ele>65</ele>
        <time>2020-12-29T12:10:40.000Z</time>
      </trkpt>
      <trkpt lat="47.17514" lon="-1.78661">
        <ele>64</ele>
        <time>2020-12-29T12:10:42.000Z</time>
      </trkpt>
      <trkpt lat="47.17501" lon="-1.78669">
        <ele>64</ele>
        <time>2020-12-29T12:10:44.000Z</time>
      </trkpt>
      <trkpt lat="47.17488" lon="-1.78676">
        <ele>64</ele>
        <time>2020-12-29T12:10:46.000Z</time>
      </trkpt>
      <trkpt lat="47.17475" lon="-1.78684">
        <ele>63</ele>
        <time>2020-12-29T12:10:48.000Z</time>
      </trkpt>
      <trkpt lat="47.17463" lon="-1.78694">
        <ele>63</ele>
        <time>2020-12-29T12:10:50.000Z</time>
      </trkpt>
      <trkpt lat="47.1745" lon="-1.78701">
        <ele>63</ele>
        <time>2020-12-29T12:10:52.000Z</time>
      </trkpt>
      <trkpt lat="47.17436" lon="-1.78704">
        <ele>63</ele>
        <time>2020-12-29T12:10:54.000Z</time>
      </trkpt>
      <trkpt lat="47.17422" lon="-1.78706">
        <ele>63</ele>
        <time>2020-12-29T12:10:56.000Z</time>
      </trkpt>
      <trkpt lat="47.17409" lon="-1.7871">
        <ele>62</ele>
        <time>2020-12-29T12:10:58.000Z</time>
      </trkpt>
      <trkpt lat="47.17395" lon="-1.78716">
        <ele>63</ele>
        <time>2020-12-29T12:11:00.000Z</time>
      </trkpt>
      <trkpt lat="47.17382" lon="-1.78722">
        <ele>62</ele>
        <time>2020-12-29T12:11:02.000Z</time>
      </trkpt>
      <trkpt lat="47.17369" lon="-1.78731">
        <ele>62</ele>
        <time>2020-12-29T12:11:04.000Z</time>
      </trkpt>
      <trkpt lat="47.17355" lon="-1.78736">
        <ele>61</ele>
        <time>2020-12-29T12:11:06.000Z</time>
      </trkpt>
      <trkpt lat="47.17342" lon="-1.78739">
        <ele>61</ele>
        <time>2020-12-29T12:11:08.000Z</time>
      </trkpt>
      <trkpt lat="47.17328" lon="-1.78741">
        <ele>61</ele>
        <time>2020-12-29T12:11:10.000Z</time>
      </trkpt>
      <trkpt lat="47.17314" lon="-1.78744">
        <ele>61</ele>
        <time>2020-12-29T12:11:12.000Z</time>
      </trkpt>
      <trkpt lat="47.173" lon="-1.78747">
        <ele>60</ele>
        <time>2020-12-29T12:11:14.000Z</time>
      </trkpt>
      <trkpt lat="47.17285" lon="-1.78751">
        <ele>60</ele>
        <time>2020-12-29T12:11:16.000Z</time>
      </trkpt>
      <trkpt lat="47.1727" lon="-1.78754">
        <ele>59</ele>
        <time>2020-12-29T12:11:18.000Z</time>
      </trkpt>
      <trkpt lat="47.17255" lon="-1.78757">
        <ele>60</ele>
        <time>2020-12-29T12:11:20.000Z</time>
      </trkpt>
      <trkpt lat="47.1724" lon="-1.78762">
        <ele>60</ele>
        <time>2020-12-29T12:11:22.000Z</time>
      </trkpt>
      <trkpt lat="47.17224" lon="-1.78765">
        <ele>59</ele>
        <time>2020-12-29T12:11:24.000Z</time>
      </trkpt>
      <trkpt lat="47.17209" lon="-1.78768">
        <ele>59</ele>
        <time>2020-12-29T12:11:26.000Z</time>
      </trkpt>
      <trkpt lat="47.17194" lon="-1.78767">
        <ele>58</ele>
        <time>2020-12-29T12:11:28.000Z</time>
      </trkpt>
      <trkpt lat="47.17178" lon="-1.78761">
        <ele>58</ele>
        <time>2020-12-29T12:11:30.000Z</time>
      </trkpt>
      <trkpt lat="47.17162" lon="-1.78754">
        <ele>56</ele>
        <time>2020-12-29T12:11:32.000Z</time>
      </trkpt>
      <trkpt lat="47.17148" lon="-1.78743">
        <ele>55</ele>
        <time>2020-12-29T12:11:34.000Z</time>
      </trkpt>
      <trkpt lat="47.17135" lon="-1.78729">
        <ele>55</ele>
        <time>2020-12-29T12:11:36.000Z</time>
      </trkpt>
      <trkpt lat="47.17124" lon="-1.78714">
        <ele>56</ele>
        <time>2020-12-29T12:11:38.000Z</time>
      </trkpt>
      <trkpt lat="47.17103" lon="-1.78685">
        <ele>55</ele>
        <time>2020-12-29T12:11:42.000Z</time>
      </trkpt>
      <trkpt lat="47.17093" lon="-1.78672">
        <ele>56</ele>
        <time>2020-12-29T12:11:44.000Z</time>
      </trkpt>
      <trkpt lat="47.17084" lon="-1.7866">
        <ele>56</ele>
        <time>2020-12-29T12:11:46.000Z</time>
      </trkpt>
      <trkpt lat="47.17076" lon="-1.78646">
        <ele>56</ele>
        <time>2020-12-29T12:11:48.000Z</time>
      </trkpt>
      <trkpt lat="47.17068" lon="-1.78633">
        <ele>56</ele>
        <time>2020-12-29T12:11:50.000Z</time>
      </trkpt>
      <trkpt lat="47.17059" lon="-1.78621">
        <ele>56</ele>
        <time>2020-12-29T12:11:52.000Z</time>
      </trkpt>
      <trkpt lat="47.1705" lon="-1.78608">
        <ele>56</ele>
        <time>2020-12-29T12:11:54.000Z</time>
      </trkpt>
      <trkpt lat="47.1704" lon="-1.78594">
        <ele>56</ele>
        <time>2020-12-29T12:11:56.000Z</time>
      </trkpt>
      <trkpt lat="47.1703" lon="-1.78579">
        <ele>57</ele>
        <time>2020-12-29T12:11:58.000Z</time>
      </trkpt>
      <trkpt lat="47.1702" lon="-1.78566">
        <ele>57</ele>
        <time>2020-12-29T12:12:00.000Z</time>
      </trkpt>
      <trkpt lat="47.17012" lon="-1.78553">
        <ele>58</ele>
        <time>2020-12-29T12:12:02.000Z</time>
      </trkpt>
      <trkpt lat="47.17004" lon="-1.78542">
        <ele>59</ele>
        <time>2020-12-29T12:12:04.000Z</time>
      </trkpt>
      <trkpt lat="47.16996" lon="-1.7853">
        <ele>60</ele>
        <time>2020-12-29T12:12:06.000Z</time>
      </trkpt>
      <trkpt lat="47.16988" lon="-1.78519">
        <ele>60</ele>
        <time>2020-12-29T12:12:08.000Z</time>
      </trkpt>
      <trkpt lat="47.16981" lon="-1.78508">
        <ele>60</ele>
        <time>2020-12-29T12:12:10.000Z</time>
      </trkpt>
      <trkpt lat="47.16973" lon="-1.78497">
        <ele>60</ele>
        <time>2020-12-29T12:12:12.000Z</time>
      </trkpt>
      <trkpt lat="47.16966" lon="-1.78486">
        <ele>60</ele>
        <time>2020-12-29T12:12:14.000Z</time>
      </trkpt>
      <trkpt lat="47.16959" lon="-1.78476">
        <ele>61</ele>
        <time>2020-12-29T12:12:16.000Z</time>
      </trkpt>
      <trkpt lat="47.16952" lon="-1.78465">
        <ele>61</ele>
        <time>2020-12-29T12:12:18.000Z</time>
      </trkpt>
      <trkpt lat="47.16945" lon="-1.78455">
        <ele>61</ele>
        <time>2020-12-29T12:12:20.000Z</time>
      </trkpt>
      <trkpt lat="47.16937" lon="-1.78444">
        <ele>61</ele>
        <time>2020-12-29T12:12:22.000Z</time>
      </trkpt>
      <trkpt lat="47.1693" lon="-1.78434">
        <ele>61</ele>
        <time>2020-12-29T12:12:24.000Z</time>
      </trkpt>
      <trkpt lat="47.16922" lon="-1.78423">
        <ele>61</ele>
        <time>2020-12-29T12:12:26.000Z</time>
      </trkpt>
      <trkpt lat="47.16914" lon="-1.78414">
        <ele>61</ele>
        <time>2020-12-29T12:12:28.000Z</time>
      </trkpt>
      <trkpt lat="47.16906" lon="-1.78404">
        <ele>61</ele>
        <time>2020-12-29T12:12:30.000Z</time>
      </trkpt>
      <trkpt lat="47.16899" lon="-1.78394">
        <ele>63</ele>
        <time>2020-12-29T12:12:32.000Z</time>
      </trkpt>
      <trkpt lat="47.16891" lon="-1.78383">
        <ele>64</ele>
        <time>2020-12-29T12:12:34.000Z</time>
      </trkpt>
      <trkpt lat="47.16883" lon="-1.78374">
        <ele>64</ele>
        <time>2020-12-29T12:12:36.000Z</time>
      </trkpt>
      <trkpt lat="47.16874" lon="-1.78365">
        <ele>65</ele>
        <time>2020-12-29T12:12:38.000Z</time>
      </trkpt>
      <trkpt lat="47.16865" lon="-1.78356">
        <ele>65</ele>
        <time>2020-12-29T12:12:40.000Z</time>
      </trkpt>
      <trkpt lat="47.16857" lon="-1.78349">
        <ele>66</ele>
        <time>2020-12-29T12:12:42.000Z</time>
      </trkpt>
      <trkpt lat="47.16847" lon="-1.78344">
        <ele>66</ele>
        <time>2020-12-29T12:12:44.000Z</time>
      </trkpt>
      <trkpt lat="47.16836" lon="-1.78339">
        <ele>67</ele>
        <time>2020-12-29T12:12:46.000Z</time>
      </trkpt>
      <trkpt lat="47.16826" lon="-1.78335">
        <ele>67</ele>
        <time>2020-12-29T12:12:48.000Z</time>
      </trkpt>
      <trkpt lat="47.16814" lon="-1.78333">
        <ele>66</ele>
        <time>2020-12-29T12:12:50.000Z</time>
      </trkpt>
      <trkpt lat="47.16803" lon="-1.78334">
        <ele>66</ele>
        <time>2020-12-29T12:12:52.000Z</time>
      </trkpt>
      <trkpt lat="47.1679" lon="-1.78336">
        <ele>66</ele>
        <time>2020-12-29T12:12:54.000Z</time>
      </trkpt>
      <trkpt lat="47.16777" lon="-1.78338">
        <ele>66</ele>
        <time>2020-12-29T12:12:56.000Z</time>
      </trkpt>
      <trkpt lat="47.16764" lon="-1.7834">
        <ele>65</ele>
        <time>2020-12-29T12:12:58.000Z</time>
      </trkpt>
      <trkpt lat="47.16751" lon="-1.78344">
        <ele>65</ele>
        <time>2020-12-29T12:13:00.000Z</time>
      </trkpt>
      <trkpt lat="47.16737" lon="-1.78346">
        <ele>65</ele>
        <time>2020-12-29T12:13:02.000Z</time>
      </trkpt>
      <trkpt lat="47.16724" lon="-1.78348">
        <ele>65</ele>
        <time>2020-12-29T12:13:04.000Z</time>
      </trkpt>
      <trkpt lat="47.1671" lon="-1.78351">
        <ele>65</ele>
        <time>2020-12-29T12:13:06.000Z</time>
      </trkpt>
      <trkpt lat="47.16697" lon="-1.78353">
        <ele>64</ele>
        <time>2020-12-29T12:13:08.000Z</time>
      </trkpt>
      <trkpt lat="47.16684" lon="-1.78356">
        <ele>64</ele>
        <time>2020-12-29T12:13:10.000Z</time>
      </trkpt>
      <trkpt lat="47.1667" lon="-1.78359">
        <ele>64</ele>
        <time>2020-12-29T12:13:12.000Z</time>
      </trkpt>
      <trkpt lat="47.16656" lon="-1.78361">
        <ele>63</ele>
        <time>2020-12-29T12:13:14.000Z</time>
      </trkpt>
      <trkpt lat="47.16641" lon="-1.78363">
        <ele>62</ele>
        <time>2020-12-29T12:13:16.000Z</time>
      </trkpt>
      <trkpt lat="47.16627" lon="-1.78366">
        <ele>61</ele>
        <time>2020-12-29T12:13:18.000Z</time>
      </trkpt>
      <trkpt lat="47.16613" lon="-1.78368">
        <ele>61</ele>
        <time>2020-12-29T12:13:20.000Z</time>
      </trkpt>
      <trkpt lat="47.16598" lon="-1.78371">
        <ele>60</ele>
        <time>2020-12-29T12:13:22.000Z</time>
      </trkpt>
      <trkpt lat="47.16584" lon="-1.78374">
        <ele>60</ele>
        <time>2020-12-29T12:13:24.000Z</time>
      </trkpt>
      <trkpt lat="47.1657" lon="-1.78377">
        <ele>60</ele>
        <time>2020-12-29T12:13:26.000Z</time>
      </trkpt>
      <trkpt lat="47.16555" lon="-1.78378">
        <ele>59</ele>
        <time>2020-12-29T12:13:28.000Z</time>
      </trkpt>
      <trkpt lat="47.1654" lon="-1.7838">
        <ele>58</ele>
        <time>2020-12-29T12:13:30.000Z</time>
      </trkpt>
      <trkpt lat="47.16525" lon="-1.78381">
        <ele>57</ele>
        <time>2020-12-29T12:13:32.000Z</time>
      </trkpt>
      <trkpt lat="47.1651" lon="-1.78382">
        <ele>57</ele>
        <time>2020-12-29T12:13:34.000Z</time>
      </trkpt>
      <trkpt lat="47.16495" lon="-1.78383">
        <ele>56</ele>
        <time>2020-12-29T12:13:36.000Z</time>
      </trkpt>
      <trkpt lat="47.16479" lon="-1.78384">
        <ele>56</ele>
        <time>2020-12-29T12:13:38.000Z</time>
      </trkpt>
      <trkpt lat="47.16464" lon="-1.78385">
        <ele>56</ele>
        <time>2020-12-29T12:13:40.000Z</time>
      </trkpt>
      <trkpt lat="47.16449" lon="-1.78385">
        <ele>56</ele>
        <time>2020-12-29T12:13:42.000Z</time>
      </trkpt>
      <trkpt lat="47.16434" lon="-1.78386">
        <ele>56</ele>
        <time>2020-12-29T12:13:44.000Z</time>
      </trkpt>
      <trkpt lat="47.16419" lon="-1.78387">
        <ele>55</ele>
        <time>2020-12-29T12:13:46.000Z</time>
      </trkpt>
      <trkpt lat="47.16404" lon="-1.78388">
        <ele>55</ele>
        <time>2020-12-29T12:13:48.000Z</time>
      </trkpt>
      <trkpt lat="47.16389" lon="-1.78388">
        <ele>55</ele>
        <time>2020-12-29T12:13:50.000Z</time>
      </trkpt>
      <trkpt lat="47.16375" lon="-1.78389">
        <ele>55</ele>
        <time>2020-12-29T12:13:52.000Z</time>
      </trkpt>
      <trkpt lat="47.16361" lon="-1.78389">
        <ele>55</ele>
        <time>2020-12-29T12:13:54.000Z</time>
      </trkpt>
      <trkpt lat="47.16347" lon="-1.7839">
        <ele>55</ele>
        <time>2020-12-29T12:13:56.000Z</time>
      </trkpt>
      <trkpt lat="47.16333" lon="-1.78392">
        <ele>55</ele>
        <time>2020-12-29T12:13:58.000Z</time>
      </trkpt>
      <trkpt lat="47.1632" lon="-1.78392">
        <ele>55</ele>
        <time>2020-12-29T12:14:00.000Z</time>
      </trkpt>
      <trkpt lat="47.16306" lon="-1.78394">
        <ele>55</ele>
        <time>2020-12-29T12:14:02.000Z</time>
      </trkpt>
      <trkpt lat="47.16292" lon="-1.78395">
        <ele>55</ele>
        <time>2020-12-29T12:14:04.000Z</time>
      </trkpt>
      <trkpt lat="47.16278" lon="-1.78397">
        <ele>55</ele>
        <time>2020-12-29T12:14:06.000Z</time>
      </trkpt>
      <trkpt lat="47.16264" lon="-1.78399">
        <ele>54</ele>
        <time>2020-12-29T12:14:08.000Z</time>
      </trkpt>
      <trkpt lat="47.16251" lon="-1.78403">
        <ele>54</ele>
        <time>2020-12-29T12:14:10.000Z</time>
      </trkpt>
      <trkpt lat="47.16237" lon="-1.78409">
        <ele>54</ele>
        <time>2020-12-29T12:14:12.000Z</time>
      </trkpt>
      <trkpt lat="47.16223" lon="-1.78414">
        <ele>53</ele>
        <time>2020-12-29T12:14:14.000Z</time>
      </trkpt>
      <trkpt lat="47.1621" lon="-1.78423">
        <ele>53</ele>
        <time>2020-12-29T12:14:16.000Z</time>
      </trkpt>
      <trkpt lat="47.16198" lon="-1.78432">
        <ele>52</ele>
        <time>2020-12-29T12:14:18.000Z</time>
      </trkpt>
      <trkpt lat="47.16186" lon="-1.78442">
        <ele>53</ele>
        <time>2020-12-29T12:14:20.000Z</time>
      </trkpt>
      <trkpt lat="47.16175" lon="-1.78452">
        <ele>52</ele>
        <time>2020-12-29T12:14:22.000Z</time>
      </trkpt>
      <trkpt lat="47.16164" lon="-1.78465">
        <ele>52</ele>
        <time>2020-12-29T12:14:24.000Z</time>
      </trkpt>
      <trkpt lat="47.16154" lon="-1.78478">
        <ele>52</ele>
        <time>2020-12-29T12:14:26.000Z</time>
      </trkpt>
      <trkpt lat="47.16145" lon="-1.78491">
        <ele>53</ele>
        <time>2020-12-29T12:14:28.000Z</time>
      </trkpt>
      <trkpt lat="47.16136" lon="-1.78504">
        <ele>53</ele>
        <time>2020-12-29T12:14:30.000Z</time>
      </trkpt>
      <trkpt lat="47.16127" lon="-1.78518">
        <ele>53</ele>
        <time>2020-12-29T12:14:32.000Z</time>
      </trkpt>
      <trkpt lat="47.16118" lon="-1.78533">
        <ele>54</ele>
        <time>2020-12-29T12:14:34.000Z</time>
      </trkpt>
      <trkpt lat="47.1611" lon="-1.78548">
        <ele>55</ele>
        <time>2020-12-29T12:14:36.000Z</time>
      </trkpt>
      <trkpt lat="47.16102" lon="-1.78563">
        <ele>55</ele>
        <time>2020-12-29T12:14:38.000Z</time>
      </trkpt>
      <trkpt lat="47.16095" lon="-1.78579">
        <ele>55</ele>
        <time>2020-12-29T12:14:40.000Z</time>
      </trkpt>
      <trkpt lat="47.16088" lon="-1.78596">
        <ele>55</ele>
        <time>2020-12-29T12:14:42.000Z</time>
      </trkpt>
      <trkpt lat="47.16081" lon="-1.78614">
        <ele>55</ele>
        <time>2020-12-29T12:14:44.000Z</time>
      </trkpt>
      <trkpt lat="47.16075" lon="-1.78632">
        <ele>55</ele>
        <time>2020-12-29T12:14:46.000Z</time>
      </trkpt>
      <trkpt lat="47.16069" lon="-1.78649">
        <ele>54</ele>
        <time>2020-12-29T12:14:48.000Z</time>
      </trkpt>
      <trkpt lat="47.16064" lon="-1.78668">
        <ele>54</ele>
        <time>2020-12-29T12:14:50.000Z</time>
      </trkpt>
      <trkpt lat="47.1606" lon="-1.78686">
        <ele>54</ele>
        <time>2020-12-29T12:14:52.000Z</time>
      </trkpt>
      <trkpt lat="47.16057" lon="-1.78705">
        <ele>54</ele>
        <time>2020-12-29T12:14:54.000Z</time>
      </trkpt>
      <trkpt lat="47.16053" lon="-1.78723">
        <ele>54</ele>
        <time>2020-12-29T12:14:56.000Z</time>
      </trkpt>
      <trkpt lat="47.16051" lon="-1.78741">
        <ele>54</ele>
        <time>2020-12-29T12:14:58.000Z</time>
      </trkpt>
      <trkpt lat="47.16049" lon="-1.78759">
        <ele>54</ele>
        <time>2020-12-29T12:15:00.000Z</time>
      </trkpt>
      <trkpt lat="47.16048" lon="-1.78777">
        <ele>55</ele>
        <time>2020-12-29T12:15:02.000Z</time>
      </trkpt>
      <trkpt lat="47.16046" lon="-1.78796">
        <ele>55</ele>
        <time>2020-12-29T12:15:04.000Z</time>
      </trkpt>
      <trkpt lat="47.16044" lon="-1.78813">
        <ele>55</ele>
        <time>2020-12-29T12:15:06.000Z</time>
      </trkpt>
      <trkpt lat="47.16042" lon="-1.78831">
        <ele>55</ele>
        <time>2020-12-29T12:15:08.000Z</time>
      </trkpt>
      <trkpt lat="47.16041" lon="-1.78848">
        <ele>55</ele>
        <time>2020-12-29T12:15:10.000Z</time>
      </trkpt>
      <trkpt lat="47.16039" lon="-1.78864">
        <ele>56</ele>
        <time>2020-12-29T12:15:12.000Z</time>
      </trkpt>
      <trkpt lat="47.16037" lon="-1.78881">
        <ele>56</ele>
        <time>2020-12-29T12:15:14.000Z</time>
      </trkpt>
      <trkpt lat="47.16035" lon="-1.78897">
        <ele>57</ele>
        <time>2020-12-29T12:15:16.000Z</time>
      </trkpt>
      <trkpt lat="47.16033" lon="-1.78913">
        <ele>57</ele>
        <time>2020-12-29T12:15:18.000Z</time>
      </trkpt>
      <trkpt lat="47.16032" lon="-1.7893">
        <ele>58</ele>
        <time>2020-12-29T12:15:20.000Z</time>
      </trkpt>
      <trkpt lat="47.1603" lon="-1.78946">
        <ele>58</ele>
        <time>2020-12-29T12:15:22.000Z</time>
      </trkpt>
      <trkpt lat="47.16029" lon="-1.78962">
        <ele>58</ele>
        <time>2020-12-29T12:15:24.000Z</time>
      </trkpt>
      <trkpt lat="47.16027" lon="-1.78978">
        <ele>59</ele>
        <time>2020-12-29T12:15:26.000Z</time>
      </trkpt>
      <trkpt lat="47.16026" lon="-1.78993">
        <ele>59</ele>
        <time>2020-12-29T12:15:28.000Z</time>
      </trkpt>
      <trkpt lat="47.16028" lon="-1.79007">
        <ele>59</ele>
        <time>2020-12-29T12:15:30.000Z</time>
      </trkpt>
      <trkpt lat="47.16035" lon="-1.79019">
        <ele>59</ele>
        <time>2020-12-29T12:15:32.000Z</time>
      </trkpt>
      <trkpt lat="47.16044" lon="-1.7903">
        <ele>59</ele>
        <time>2020-12-29T12:15:34.000Z</time>
      </trkpt>
      <trkpt lat="47.1605" lon="-1.79045">
        <ele>59</ele>
        <time>2020-12-29T12:15:36.000Z</time>
      </trkpt>
      <trkpt lat="47.16055" lon="-1.79062">
        <ele>59</ele>
        <time>2020-12-29T12:15:38.000Z</time>
      </trkpt>
      <trkpt lat="47.1606" lon="-1.79079">
        <ele>59</ele>
        <time>2020-12-29T12:15:40.000Z</time>
      </trkpt>
      <trkpt lat="47.16066" lon="-1.79094">
        <ele>59</ele>
        <time>2020-12-29T12:15:42.000Z</time>
      </trkpt>
      <trkpt lat="47.16071" lon="-1.79109">
        <ele>58</ele>
        <time>2020-12-29T12:15:44.000Z</time>
      </trkpt>
      <trkpt lat="47.16076" lon="-1.79124">
        <ele>59</ele>
        <time>2020-12-29T12:15:46.000Z</time>
      </trkpt>
      <trkpt lat="47.16081" lon="-1.7914">
        <ele>59</ele>
        <time>2020-12-29T12:15:48.000Z</time>
      </trkpt>
      <trkpt lat="47.16086" lon="-1.79156">
        <ele>58</ele>
        <time>2020-12-29T12:15:50.000Z</time>
      </trkpt>
      <trkpt lat="47.16091" lon="-1.79172">
        <ele>58</ele>
        <time>2020-12-29T12:15:52.000Z</time>
      </trkpt>
      <trkpt lat="47.16096" lon="-1.79187">
        <ele>58</ele>
        <time>2020-12-29T12:15:54.000Z</time>
      </trkpt>
      <trkpt lat="47.16101" lon="-1.79203">
        <ele>57</ele>
        <time>2020-12-29T12:15:56.000Z</time>
      </trkpt>
      <trkpt lat="47.16105" lon="-1.79219">
        <ele>57</ele>
        <time>2020-12-29T12:15:58.000Z</time>
      </trkpt>
      <trkpt lat="47.16109" lon="-1.79234">
        <ele>57</ele>
        <time>2020-12-29T12:16:00.000Z</time>
      </trkpt>
      <trkpt lat="47.16114" lon="-1.79249">
        <ele>57</ele>
        <time>2020-12-29T12:16:02.000Z</time>
      </trkpt>
      <trkpt lat="47.16119" lon="-1.79263">
        <ele>57</ele>
        <time>2020-12-29T12:16:04.000Z</time>
      </trkpt>
      <trkpt lat="47.16123" lon="-1.79278">
        <ele>57</ele>
        <time>2020-12-29T12:16:06.000Z</time>
      </trkpt>
      <trkpt lat="47.16128" lon="-1.79292">
        <ele>57</ele>
        <time>2020-12-29T12:16:08.000Z</time>
      </trkpt>
      <trkpt lat="47.16133" lon="-1.79307">
        <ele>57</ele>
        <time>2020-12-29T12:16:10.000Z</time>
      </trkpt>
      <trkpt lat="47.16138" lon="-1.79321">
        <ele>57</ele>
        <time>2020-12-29T12:16:12.000Z</time>
      </trkpt>
      <trkpt lat="47.16143" lon="-1.79336">
        <ele>57</ele>
        <time>2020-12-29T12:16:14.000Z</time>
      </trkpt>
      <trkpt lat="47.16147" lon="-1.79352">
        <ele>57</ele>
        <time>2020-12-29T12:16:16.000Z</time>
      </trkpt>
      <trkpt lat="47.1615" lon="-1.79367">
        <ele>58</ele>
        <time>2020-12-29T12:16:18.000Z</time>
      </trkpt>
      <trkpt lat="47.16152" lon="-1.79384">
        <ele>57</ele>
        <time>2020-12-29T12:16:20.000Z</time>
      </trkpt>
      <trkpt lat="47.16153" lon="-1.794">
        <ele>58</ele>
        <time>2020-12-29T12:16:22.000Z</time>
      </trkpt>
      <trkpt lat="47.16154" lon="-1.79417">
        <ele>58</ele>
        <time>2020-12-29T12:16:24.000Z</time>
      </trkpt>
      <trkpt lat="47.16152" lon="-1.79434">
        <ele>58</ele>
        <time>2020-12-29T12:16:26.000Z</time>
      </trkpt>
      <trkpt lat="47.1615" lon="-1.79451">
        <ele>58</ele>
        <time>2020-12-29T12:16:28.000Z</time>
      </trkpt>
      <trkpt lat="47.16149" lon="-1.79469">
        <ele>58</ele>
        <time>2020-12-29T12:16:30.000Z</time>
      </trkpt>
      <trkpt lat="47.16147" lon="-1.79486">
        <ele>58</ele>
        <time>2020-12-29T12:16:32.000Z</time>
      </trkpt>
      <trkpt lat="47.16145" lon="-1.79502">
        <ele>59</ele>
        <time>2020-12-29T12:16:34.000Z</time>
      </trkpt>
      <trkpt lat="47.16144" lon="-1.79517">
        <ele>59</ele>
        <time>2020-12-29T12:16:36.000Z</time>
      </trkpt>
      <trkpt lat="47.16144" lon="-1.79533">
        <ele>59</ele>
        <time>2020-12-29T12:16:38.000Z</time>
      </trkpt>
      <trkpt lat="47.16144" lon="-1.79551">
        <ele>60</ele>
        <time>2020-12-29T12:16:40.000Z</time>
      </trkpt>
      <trkpt lat="47.16145" lon="-1.79568">
        <ele>60</ele>
        <time>2020-12-29T12:16:42.000Z</time>
      </trkpt>
      <trkpt lat="47.16147" lon="-1.79585">
        <ele>61</ele>
        <time>2020-12-29T12:16:44.000Z</time>
      </trkpt>
      <trkpt lat="47.1615" lon="-1.79602">
        <ele>61</ele>
        <time>2020-12-29T12:16:46.000Z</time>
      </trkpt>
      <trkpt lat="47.16154" lon="-1.79618">
        <ele>62</ele>
        <time>2020-12-29T12:16:48.000Z</time>
      </trkpt>
      <trkpt lat="47.1616" lon="-1.79633">
        <ele>61</ele>
        <time>2020-12-29T12:16:50.000Z</time>
      </trkpt>
      <trkpt lat="47.16165" lon="-1.79648">
        <ele>60</ele>
        <time>2020-12-29T12:16:52.000Z</time>
      </trkpt>
      <trkpt lat="47.1617" lon="-1.79663">
        <ele>60</ele>
        <time>2020-12-29T12:16:54.000Z</time>
      </trkpt>
      <trkpt lat="47.16175" lon="-1.79678">
        <ele>59</ele>
        <time>2020-12-29T12:16:56.000Z</time>
      </trkpt>
      <trkpt lat="47.16181" lon="-1.79694">
        <ele>59</ele>
        <time>2020-12-29T12:16:58.000Z</time>
      </trkpt>
      <trkpt lat="47.16187" lon="-1.7971">
        <ele>59</ele>
        <time>2020-12-29T12:17:00.000Z</time>
      </trkpt>
      <trkpt lat="47.16192" lon="-1.79725">
        <ele>60</ele>
        <time>2020-12-29T12:17:02.000Z</time>
      </trkpt>
      <trkpt lat="47.16198" lon="-1.79741">
        <ele>60</ele>
        <time>2020-12-29T12:17:04.000Z</time>
      </trkpt>
      <trkpt lat="47.16204" lon="-1.79758">
        <ele>60</ele>
        <time>2020-12-29T12:17:06.000Z</time>
      </trkpt>
      <trkpt lat="47.16211" lon="-1.79774">
        <ele>60</ele>
        <time>2020-12-29T12:17:08.000Z</time>
      </trkpt>
      <trkpt lat="47.16217" lon="-1.79791">
        <ele>60</ele>
        <time>2020-12-29T12:17:10.000Z</time>
      </trkpt>
      <trkpt lat="47.16223" lon="-1.79809">
        <ele>59</ele>
        <time>2020-12-29T12:17:12.000Z</time>
      </trkpt>
      <trkpt lat="47.1623" lon="-1.79825">
        <ele>59</ele>
        <time>2020-12-29T12:17:14.000Z</time>
      </trkpt>
      <trkpt lat="47.16237" lon="-1.79841">
        <ele>59</ele>
        <time>2020-12-29T12:17:16.000Z</time>
      </trkpt>
      <trkpt lat="47.16244" lon="-1.79857">
        <ele>58</ele>
        <time>2020-12-29T12:17:18.000Z</time>
      </trkpt>
      <trkpt lat="47.16252" lon="-1.79872">
        <ele>58</ele>
        <time>2020-12-29T12:17:20.000Z</time>
      </trkpt>
      <trkpt lat="47.16262" lon="-1.79886">
        <ele>57</ele>
        <time>2020-12-29T12:17:22.000Z</time>
      </trkpt>
      <trkpt lat="47.1627" lon="-1.799">
        <ele>56</ele>
        <time>2020-12-29T12:17:24.000Z</time>
      </trkpt>
      <trkpt lat="47.16279" lon="-1.79913">
        <ele>57</ele>
        <time>2020-12-29T12:17:26.000Z</time>
      </trkpt>
      <trkpt lat="47.16286" lon="-1.79926">
        <ele>57</ele>
        <time>2020-12-29T12:17:28.000Z</time>
      </trkpt>
      <trkpt lat="47.16294" lon="-1.79939">
        <ele>58</ele>
        <time>2020-12-29T12:17:30.000Z</time>
      </trkpt>
      <trkpt lat="47.163" lon="-1.79953">
        <ele>59</ele>
        <time>2020-12-29T12:17:32.000Z</time>
      </trkpt>
      <trkpt lat="47.16306" lon="-1.79967">
        <ele>59</ele>
        <time>2020-12-29T12:17:34.000Z</time>
      </trkpt>
      <trkpt lat="47.16311" lon="-1.79983">
        <ele>59</ele>
        <time>2020-12-29T12:17:36.000Z</time>
      </trkpt>
      <trkpt lat="47.16316" lon="-1.79998">
        <ele>59</ele>
        <time>2020-12-29T12:17:38.000Z</time>
      </trkpt>
      <trkpt lat="47.1632" lon="-1.80014">
        <ele>59</ele>
        <time>2020-12-29T12:17:40.000Z</time>
      </trkpt>
      <trkpt lat="47.16325" lon="-1.80029">
        <ele>59</ele>
        <time>2020-12-29T12:17:42.000Z</time>
      </trkpt>
      <trkpt lat="47.16329" lon="-1.80045">
        <ele>60</ele>
        <time>2020-12-29T12:17:44.000Z</time>
      </trkpt>
      <trkpt lat="47.16334" lon="-1.80061">
        <ele>61</ele>
        <time>2020-12-29T12:17:46.000Z</time>
      </trkpt>
      <trkpt lat="47.16337" lon="-1.80078">
        <ele>61</ele>
        <time>2020-12-29T12:17:48.000Z</time>
      </trkpt>
      <trkpt lat="47.16342" lon="-1.80093">
        <ele>61</ele>
        <time>2020-12-29T12:17:50.000Z</time>
      </trkpt>
      <trkpt lat="47.16346" lon="-1.80108">
        <ele>61</ele>
        <time>2020-12-29T12:17:52.000Z</time>
      </trkpt>
      <trkpt lat="47.16351" lon="-1.80123">
        <ele>61</ele>
        <time>2020-12-29T12:17:54.000Z</time>
      </trkpt>
      <trkpt lat="47.16357" lon="-1.80138">
        <ele>61</ele>
        <time>2020-12-29T12:17:56.000Z</time>
      </trkpt>
      <trkpt lat="47.16362" lon="-1.80154">
        <ele>61</ele>
        <time>2020-12-29T12:17:58.000Z</time>
      </trkpt>
      <trkpt lat="47.16366" lon="-1.80171">
        <ele>61</ele>
        <time>2020-12-29T12:18:00.000Z</time>
      </trkpt>
      <trkpt lat="47.1637" lon="-1.80187">
        <ele>61</ele>
        <time>2020-12-29T12:18:02.000Z</time>
      </trkpt>
      <trkpt lat="47.16375" lon="-1.80204">
        <ele>61</ele>
        <time>2020-12-29T12:18:04.000Z</time>
      </trkpt>
      <trkpt lat="47.1638" lon="-1.80221">
        <ele>61</ele>
        <time>2020-12-29T12:18:06.000Z</time>
      </trkpt>
      <trkpt lat="47.16384" lon="-1.80238">
        <ele>61</ele>
        <time>2020-12-29T12:18:08.000Z</time>
      </trkpt>
      <trkpt lat="47.16388" lon="-1.80256">
        <ele>61</ele>
        <time>2020-12-29T12:18:10.000Z</time>
      </trkpt>
      <trkpt lat="47.1639" lon="-1.80276">
        <ele>61</ele>
        <time>2020-12-29T12:18:12.000Z</time>
      </trkpt>
      <trkpt lat="47.16392" lon="-1.80296">
        <ele>61</ele>
        <time>2020-12-29T12:18:14.000Z</time>
      </trkpt>
      <trkpt lat="47.16392" lon="-1.80318">
        <ele>61</ele>
        <time>2020-12-29T12:18:16.000Z</time>
      </trkpt>
      <trkpt lat="47.16392" lon="-1.80338">
        <ele>61</ele>
        <time>2020-12-29T12:18:18.000Z</time>
      </trkpt>
      <trkpt lat="47.16391" lon="-1.80359">
        <ele>61</ele>
        <time>2020-12-29T12:18:20.000Z</time>
      </trkpt>
      <trkpt lat="47.1639" lon="-1.80379">
        <ele>61</ele>
        <time>2020-12-29T12:18:22.000Z</time>
      </trkpt>
      <trkpt lat="47.16389" lon="-1.804">
        <ele>61</ele>
        <time>2020-12-29T12:18:24.000Z</time>
      </trkpt>
      <trkpt lat="47.16388" lon="-1.8042">
        <ele>62</ele>
        <time>2020-12-29T12:18:26.000Z</time>
      </trkpt>
      <trkpt lat="47.16386" lon="-1.80439">
        <ele>62</ele>
        <time>2020-12-29T12:18:28.000Z</time>
      </trkpt>
      <trkpt lat="47.16385" lon="-1.80459">
        <ele>62</ele>
        <time>2020-12-29T12:18:30.000Z</time>
      </trkpt>
      <trkpt lat="47.16383" lon="-1.80478">
        <ele>62</ele>
        <time>2020-12-29T12:18:32.000Z</time>
      </trkpt>
      <trkpt lat="47.16382" lon="-1.80496">
        <ele>61</ele>
        <time>2020-12-29T12:18:34.000Z</time>
      </trkpt>
      <trkpt lat="47.16381" lon="-1.80514">
        <ele>61</ele>
        <time>2020-12-29T12:18:36.000Z</time>
      </trkpt>
      <trkpt lat="47.1638" lon="-1.80531">
        <ele>61</ele>
        <time>2020-12-29T12:18:38.000Z</time>
      </trkpt>
      <trkpt lat="47.16378" lon="-1.80547">
        <ele>61</ele>
        <time>2020-12-29T12:18:40.000Z</time>
      </trkpt>
      <trkpt lat="47.16376" lon="-1.80562">
        <ele>61</ele>
        <time>2020-12-29T12:18:42.000Z</time>
      </trkpt>
      <trkpt lat="47.16375" lon="-1.80577">
        <ele>61</ele>
        <time>2020-12-29T12:18:44.000Z</time>
      </trkpt>
      <trkpt lat="47.16373" lon="-1.80592">
        <ele>61</ele>
        <time>2020-12-29T12:18:46.000Z</time>
      </trkpt>
      <trkpt lat="47.1637" lon="-1.80607">
        <ele>62</ele>
        <time>2020-12-29T12:18:48.000Z</time>
      </trkpt>
      <trkpt lat="47.16367" lon="-1.8062">
        <ele>62</ele>
        <time>2020-12-29T12:18:50.000Z</time>
      </trkpt>
      <trkpt lat="47.16364" lon="-1.80632">
        <ele>63</ele>
        <time>2020-12-29T12:18:52.000Z</time>
      </trkpt>
      <trkpt lat="47.16361" lon="-1.80645">
        <ele>64</ele>
        <time>2020-12-29T12:18:54.000Z</time>
      </trkpt>
      <trkpt lat="47.16357" lon="-1.80658">
        <ele>64</ele>
        <time>2020-12-29T12:18:56.000Z</time>
      </trkpt>
      <trkpt lat="47.16354" lon="-1.80671">
        <ele>65</ele>
        <time>2020-12-29T12:18:58.000Z</time>
      </trkpt>
      <trkpt lat="47.16352" lon="-1.80684">
        <ele>66</ele>
        <time>2020-12-29T12:19:00.000Z</time>
      </trkpt>
      <trkpt lat="47.16348" lon="-1.80697">
        <ele>67</ele>
        <time>2020-12-29T12:19:02.000Z</time>
      </trkpt>
      <trkpt lat="47.16344" lon="-1.8071">
        <ele>68</ele>
        <time>2020-12-29T12:19:04.000Z</time>
      </trkpt>
      <trkpt lat="47.16341" lon="-1.80723">
        <ele>68</ele>
        <time>2020-12-29T12:19:06.000Z</time>
      </trkpt>
      <trkpt lat="47.16338" lon="-1.80736">
        <ele>69</ele>
        <time>2020-12-29T12:19:08.000Z</time>
      </trkpt>
      <trkpt lat="47.16334" lon="-1.80749">
        <ele>70</ele>
        <time>2020-12-29T12:19:10.000Z</time>
      </trkpt>
      <trkpt lat="47.16329" lon="-1.80768">
        <ele>71</ele>
        <time>2020-12-29T12:19:13.000Z</time>
      </trkpt>
      <trkpt lat="47.16326" lon="-1.80782">
        <ele>71</ele>
        <time>2020-12-29T12:19:15.000Z</time>
      </trkpt>
      <trkpt lat="47.16322" lon="-1.80794">
        <ele>72</ele>
        <time>2020-12-29T12:19:17.000Z</time>
      </trkpt>
      <trkpt lat="47.16319" lon="-1.80808">
        <ele>72</ele>
        <time>2020-12-29T12:19:19.000Z</time>
      </trkpt>
      <trkpt lat="47.16315" lon="-1.8082">
        <ele>73</ele>
        <time>2020-12-29T12:19:21.000Z</time>
      </trkpt>
      <trkpt lat="47.16311" lon="-1.80833">
        <ele>74</ele>
        <time>2020-12-29T12:19:23.000Z</time>
      </trkpt>
      <trkpt lat="47.16305" lon="-1.80846">
        <ele>74</ele>
        <time>2020-12-29T12:19:25.000Z</time>
      </trkpt>
      <trkpt lat="47.16301" lon="-1.80858">
        <ele>74</ele>
        <time>2020-12-29T12:19:27.000Z</time>
      </trkpt>
      <trkpt lat="47.16296" lon="-1.8087">
        <ele>75</ele>
        <time>2020-12-29T12:19:29.000Z</time>
      </trkpt>
      <trkpt lat="47.1629" lon="-1.80881">
        <ele>75</ele>
        <time>2020-12-29T12:19:31.000Z</time>
      </trkpt>
      <trkpt lat="47.16285" lon="-1.80892">
        <ele>75</ele>
        <time>2020-12-29T12:19:33.000Z</time>
      </trkpt>
      <trkpt lat="47.16278" lon="-1.80908">
        <ele>75</ele>
        <time>2020-12-29T12:19:36.000Z</time>
      </trkpt>
      <trkpt lat="47.16272" lon="-1.80919">
        <ele>75</ele>
        <time>2020-12-29T12:19:38.000Z</time>
      </trkpt>
      <trkpt lat="47.16266" lon="-1.80931">
        <ele>75</ele>
        <time>2020-12-29T12:19:40.000Z</time>
      </trkpt>
      <trkpt lat="47.16261" lon="-1.80942">
        <ele>76</ele>
        <time>2020-12-29T12:19:42.000Z</time>
      </trkpt>
      <trkpt lat="47.16255" lon="-1.80953">
        <ele>76</ele>
        <time>2020-12-29T12:19:44.000Z</time>
      </trkpt>
      <trkpt lat="47.1625" lon="-1.80965">
        <ele>77</ele>
        <time>2020-12-29T12:19:46.000Z</time>
      </trkpt>
      <trkpt lat="47.16244" lon="-1.80977">
        <ele>77</ele>
        <time>2020-12-29T12:19:48.000Z</time>
      </trkpt>
      <trkpt lat="47.16238" lon="-1.80989">
        <ele>78</ele>
        <time>2020-12-29T12:19:50.000Z</time>
      </trkpt>
      <trkpt lat="47.16233" lon="-1.81">
        <ele>78</ele>
        <time>2020-12-29T12:19:52.000Z</time>
      </trkpt>
      <trkpt lat="47.16227" lon="-1.81011">
        <ele>78</ele>
        <time>2020-12-29T12:19:54.000Z</time>
      </trkpt>
      <trkpt lat="47.16221" lon="-1.81023">
        <ele>78</ele>
        <time>2020-12-29T12:19:56.000Z</time>
      </trkpt>
      <trkpt lat="47.16216" lon="-1.81035">
        <ele>78</ele>
        <time>2020-12-29T12:19:58.000Z</time>
      </trkpt>
      <trkpt lat="47.16211" lon="-1.81046">
        <ele>78</ele>
        <time>2020-12-29T12:20:00.000Z</time>
      </trkpt>
      <trkpt lat="47.16206" lon="-1.81057">
        <ele>78</ele>
        <time>2020-12-29T12:20:02.000Z</time>
      </trkpt>
      <trkpt lat="47.162" lon="-1.8107">
        <ele>78</ele>
        <time>2020-12-29T12:20:04.000Z</time>
      </trkpt>
      <trkpt lat="47.16194" lon="-1.81082">
        <ele>79</ele>
        <time>2020-12-29T12:20:06.000Z</time>
      </trkpt>
      <trkpt lat="47.16187" lon="-1.81094">
        <ele>79</ele>
        <time>2020-12-29T12:20:08.000Z</time>
      </trkpt>
      <trkpt lat="47.16181" lon="-1.81107">
        <ele>79</ele>
        <time>2020-12-29T12:20:10.000Z</time>
      </trkpt>
      <trkpt lat="47.16175" lon="-1.81119">
        <ele>79</ele>
        <time>2020-12-29T12:20:12.000Z</time>
      </trkpt>
      <trkpt lat="47.16169" lon="-1.81132">
        <ele>79</ele>
        <time>2020-12-29T12:20:14.000Z</time>
      </trkpt>
      <trkpt lat="47.16164" lon="-1.81144">
        <ele>79</ele>
        <time>2020-12-29T12:20:16.000Z</time>
      </trkpt>
      <trkpt lat="47.16158" lon="-1.81157">
        <ele>79</ele>
        <time>2020-12-29T12:20:18.000Z</time>
      </trkpt>
      <trkpt lat="47.16151" lon="-1.81169">
        <ele>80</ele>
        <time>2020-12-29T12:20:20.000Z</time>
      </trkpt>
      <trkpt lat="47.16146" lon="-1.81182">
        <ele>80</ele>
        <time>2020-12-29T12:20:22.000Z</time>
      </trkpt>
      <trkpt lat="47.16141" lon="-1.81195">
        <ele>80</ele>
        <time>2020-12-29T12:20:24.000Z</time>
      </trkpt>
      <trkpt lat="47.16137" lon="-1.81209">
        <ele>81</ele>
        <time>2020-12-29T12:20:26.000Z</time>
      </trkpt>
      <trkpt lat="47.16134" lon="-1.81224">
        <ele>80</ele>
        <time>2020-12-29T12:20:28.000Z</time>
      </trkpt>
      <trkpt lat="47.16133" lon="-1.81239">
        <ele>80</ele>
        <time>2020-12-29T12:20:30.000Z</time>
      </trkpt>
      <trkpt lat="47.16135" lon="-1.81256">
        <ele>80</ele>
        <time>2020-12-29T12:20:32.000Z</time>
      </trkpt>
      <trkpt lat="47.16139" lon="-1.81271">
        <ele>80</ele>
        <time>2020-12-29T12:20:34.000Z</time>
      </trkpt>
      <trkpt lat="47.16141" lon="-1.81287">
        <ele>80</ele>
        <time>2020-12-29T12:20:36.000Z</time>
      </trkpt>
      <trkpt lat="47.16144" lon="-1.81303">
        <ele>80</ele>
        <time>2020-12-29T12:20:38.000Z</time>
      </trkpt>
      <trkpt lat="47.16148" lon="-1.81318">
        <ele>80</ele>
        <time>2020-12-29T12:20:40.000Z</time>
      </trkpt>
      <trkpt lat="47.16153" lon="-1.81333">
        <ele>80</ele>
        <time>2020-12-29T12:20:42.000Z</time>
      </trkpt>
      <trkpt lat="47.16157" lon="-1.81349">
        <ele>80</ele>
        <time>2020-12-29T12:20:44.000Z</time>
      </trkpt>
      <trkpt lat="47.16161" lon="-1.81364">
        <ele>80</ele>
        <time>2020-12-29T12:20:46.000Z</time>
      </trkpt>
      <trkpt lat="47.16165" lon="-1.8138">
        <ele>81</ele>
        <time>2020-12-29T12:20:48.000Z</time>
      </trkpt>
      <trkpt lat="47.16169" lon="-1.81396">
        <ele>81</ele>
        <time>2020-12-29T12:20:50.000Z</time>
      </trkpt>
      <trkpt lat="47.16173" lon="-1.81413">
        <ele>81</ele>
        <time>2020-12-29T12:20:52.000Z</time>
      </trkpt>
      <trkpt lat="47.16176" lon="-1.81429">
        <ele>80</ele>
        <time>2020-12-29T12:20:54.000Z</time>
      </trkpt>
      <trkpt lat="47.1618" lon="-1.81446">
        <ele>80</ele>
        <time>2020-12-29T12:20:56.000Z</time>
      </trkpt>
      <trkpt lat="47.16184" lon="-1.81462">
        <ele>80</ele>
        <time>2020-12-29T12:20:58.000Z</time>
      </trkpt>
      <trkpt lat="47.16188" lon="-1.81478">
        <ele>79</ele>
        <time>2020-12-29T12:21:00.000Z</time>
      </trkpt>
      <trkpt lat="47.16191" lon="-1.81495">
        <ele>79</ele>
        <time>2020-12-29T12:21:02.000Z</time>
      </trkpt>
      <trkpt lat="47.16195" lon="-1.81511">
        <ele>79</ele>
        <time>2020-12-29T12:21:04.000Z</time>
      </trkpt>
      <trkpt lat="47.16199" lon="-1.81528">
        <ele>78</ele>
        <time>2020-12-29T12:21:06.000Z</time>
      </trkpt>
      <trkpt lat="47.16203" lon="-1.81546">
        <ele>79</ele>
        <time>2020-12-29T12:21:08.000Z</time>
      </trkpt>
      <trkpt lat="47.16207" lon="-1.81564">
        <ele>78</ele>
        <time>2020-12-29T12:21:10.000Z</time>
      </trkpt>
      <trkpt lat="47.16211" lon="-1.81582">
        <ele>77</ele>
        <time>2020-12-29T12:21:12.000Z</time>
      </trkpt>
      <trkpt lat="47.16215" lon="-1.81601">
        <ele>77</ele>
        <time>2020-12-29T12:21:14.000Z</time>
      </trkpt>
      <trkpt lat="47.1622" lon="-1.81621">
        <ele>77</ele>
        <time>2020-12-29T12:21:16.000Z</time>
      </trkpt>
      <trkpt lat="47.16225" lon="-1.8164">
        <ele>77</ele>
        <time>2020-12-29T12:21:18.000Z</time>
      </trkpt>
      <trkpt lat="47.1623" lon="-1.8166">
        <ele>76</ele>
        <time>2020-12-29T12:21:20.000Z</time>
      </trkpt>
      <trkpt lat="47.16234" lon="-1.81681">
        <ele>75</ele>
        <time>2020-12-29T12:21:22.000Z</time>
      </trkpt>
      <trkpt lat="47.16239" lon="-1.817">
        <ele>75</ele>
        <time>2020-12-29T12:21:24.000Z</time>
      </trkpt>
      <trkpt lat="47.16243" lon="-1.8172">
        <ele>75</ele>
        <time>2020-12-29T12:21:26.000Z</time>
      </trkpt>
      <trkpt lat="47.16247" lon="-1.81739">
        <ele>76</ele>
        <time>2020-12-29T12:21:28.000Z</time>
      </trkpt>
      <trkpt lat="47.16251" lon="-1.81759">
        <ele>75</ele>
        <time>2020-12-29T12:21:30.000Z</time>
      </trkpt>
      <trkpt lat="47.16255" lon="-1.81777">
        <ele>75</ele>
        <time>2020-12-29T12:21:32.000Z</time>
      </trkpt>
      <trkpt lat="47.16259" lon="-1.81794">
        <ele>75</ele>
        <time>2020-12-29T12:21:34.000Z</time>
      </trkpt>
      <trkpt lat="47.16262" lon="-1.81811">
        <ele>76</ele>
        <time>2020-12-29T12:21:36.000Z</time>
      </trkpt>
      <trkpt lat="47.16266" lon="-1.81829">
        <ele>76</ele>
        <time>2020-12-29T12:21:38.000Z</time>
      </trkpt>
      <trkpt lat="47.1627" lon="-1.81847">
        <ele>76</ele>
        <time>2020-12-29T12:21:40.000Z</time>
      </trkpt>
      <trkpt lat="47.16274" lon="-1.81866">
        <ele>76</ele>
        <time>2020-12-29T12:21:42.000Z</time>
      </trkpt>
      <trkpt lat="47.16278" lon="-1.81883">
        <ele>77</ele>
        <time>2020-12-29T12:21:44.000Z</time>
      </trkpt>
      <trkpt lat="47.16282" lon="-1.81901">
        <ele>78</ele>
        <time>2020-12-29T12:21:46.000Z</time>
      </trkpt>
      <trkpt lat="47.16286" lon="-1.81919">
        <ele>78</ele>
        <time>2020-12-29T12:21:48.000Z</time>
      </trkpt>
      <trkpt lat="47.1629" lon="-1.81936">
        <ele>79</ele>
        <time>2020-12-29T12:21:50.000Z</time>
      </trkpt>
      <trkpt lat="47.16293" lon="-1.81954">
        <ele>79</ele>
        <time>2020-12-29T12:21:52.000Z</time>
      </trkpt>
      <trkpt lat="47.16296" lon="-1.81971">
        <ele>79</ele>
        <time>2020-12-29T12:21:54.000Z</time>
      </trkpt>
      <trkpt lat="47.163" lon="-1.81988">
        <ele>79</ele>
        <time>2020-12-29T12:21:56.000Z</time>
      </trkpt>
      <trkpt lat="47.16303" lon="-1.82005">
        <ele>79</ele>
        <time>2020-12-29T12:21:58.000Z</time>
      </trkpt>
      <trkpt lat="47.16306" lon="-1.82021">
        <ele>79</ele>
        <time>2020-12-29T12:22:00.000Z</time>
      </trkpt>
      <trkpt lat="47.1631" lon="-1.82037">
        <ele>79</ele>
        <time>2020-12-29T12:22:02.000Z</time>
      </trkpt>
      <trkpt lat="47.16314" lon="-1.82053">
        <ele>79</ele>
        <time>2020-12-29T12:22:04.000Z</time>
      </trkpt>
      <trkpt lat="47.16319" lon="-1.82069">
        <ele>79</ele>
        <time>2020-12-29T12:22:06.000Z</time>
      </trkpt>
      <trkpt lat="47.16323" lon="-1.82085">
        <ele>79</ele>
        <time>2020-12-29T12:22:08.000Z</time>
      </trkpt>
      <trkpt lat="47.16328" lon="-1.821">
        <ele>80</ele>
        <time>2020-12-29T12:22:10.000Z</time>
      </trkpt>
      <trkpt lat="47.16333" lon="-1.82115">
        <ele>80</ele>
        <time>2020-12-29T12:22:12.000Z</time>
      </trkpt>
      <trkpt lat="47.16339" lon="-1.8213">
        <ele>80</ele>
        <time>2020-12-29T12:22:14.000Z</time>
      </trkpt>
      <trkpt lat="47.16342" lon="-1.82146">
        <ele>80</ele>
        <time>2020-12-29T12:22:16.000Z</time>
      </trkpt>
      <trkpt lat="47.16345" lon="-1.82163">
        <ele>80</ele>
        <time>2020-12-29T12:22:18.000Z</time>
      </trkpt>
      <trkpt lat="47.16349" lon="-1.82178">
        <ele>80</ele>
        <time>2020-12-29T12:22:20.000Z</time>
      </trkpt>
      <trkpt lat="47.16353" lon="-1.82194">
        <ele>79</ele>
        <time>2020-12-29T12:22:22.000Z</time>
      </trkpt>
      <trkpt lat="47.16357" lon="-1.8221">
        <ele>79</ele>
        <time>2020-12-29T12:22:24.000Z</time>
      </trkpt>
      <trkpt lat="47.1636" lon="-1.82226">
        <ele>79</ele>
        <time>2020-12-29T12:22:26.000Z</time>
      </trkpt>
      <trkpt lat="47.16365" lon="-1.82242">
        <ele>80</ele>
        <time>2020-12-29T12:22:28.000Z</time>
      </trkpt>
      <trkpt lat="47.16369" lon="-1.82258">
        <ele>80</ele>
        <time>2020-12-29T12:22:30.000Z</time>
      </trkpt>
      <trkpt lat="47.16373" lon="-1.82274">
        <ele>80</ele>
        <time>2020-12-29T12:22:32.000Z</time>
      </trkpt>
      <trkpt lat="47.16377" lon="-1.82291">
        <ele>80</ele>
        <time>2020-12-29T12:22:34.000Z</time>
      </trkpt>
      <trkpt lat="47.16381" lon="-1.82308">
        <ele>80</ele>
        <time>2020-12-29T12:22:36.000Z</time>
      </trkpt>
      <trkpt lat="47.16385" lon="-1.82325">
        <ele>81</ele>
        <time>2020-12-29T12:22:38.000Z</time>
      </trkpt>
      <trkpt lat="47.1639" lon="-1.82341">
        <ele>81</ele>
        <time>2020-12-29T12:22:40.000Z</time>
      </trkpt>
      <trkpt lat="47.16395" lon="-1.82357">
        <ele>81</ele>
        <time>2020-12-29T12:22:42.000Z</time>
      </trkpt>
      <trkpt lat="47.16399" lon="-1.82375">
        <ele>80</ele>
        <time>2020-12-29T12:22:44.000Z</time>
      </trkpt>
      <trkpt lat="47.16403" lon="-1.82394">
        <ele>80</ele>
        <time>2020-12-29T12:22:46.000Z</time>
      </trkpt>
      <trkpt lat="47.16408" lon="-1.82412">
        <ele>80</ele>
        <time>2020-12-29T12:22:48.000Z</time>
      </trkpt>
      <trkpt lat="47.16412" lon="-1.8243">
        <ele>79</ele>
        <time>2020-12-29T12:22:50.000Z</time>
      </trkpt>
      <trkpt lat="47.16416" lon="-1.82448">
        <ele>78</ele>
        <time>2020-12-29T12:22:52.000Z</time>
      </trkpt>
      <trkpt lat="47.1642" lon="-1.82467">
        <ele>78</ele>
        <time>2020-12-29T12:22:54.000Z</time>
      </trkpt>
      <trkpt lat="47.16423" lon="-1.82486">
        <ele>77</ele>
        <time>2020-12-29T12:22:56.000Z</time>
      </trkpt>
      <trkpt lat="47.16424" lon="-1.82507">
        <ele>76</ele>
        <time>2020-12-29T12:22:58.000Z</time>
      </trkpt>
      <trkpt lat="47.16423" lon="-1.8253">
        <ele>76</ele>
        <time>2020-12-29T12:23:00.000Z</time>
      </trkpt>
      <trkpt lat="47.1642" lon="-1.82553">
        <ele>75</ele>
        <time>2020-12-29T12:23:02.000Z</time>
      </trkpt>
      <trkpt lat="47.16416" lon="-1.82576">
        <ele>74</ele>
        <time>2020-12-29T12:23:04.000Z</time>
      </trkpt>
      <trkpt lat="47.16412" lon="-1.826">
        <ele>73</ele>
        <time>2020-12-29T12:23:06.000Z</time>
      </trkpt>
      <trkpt lat="47.16409" lon="-1.82625">
        <ele>72</ele>
        <time>2020-12-29T12:23:08.000Z</time>
      </trkpt>
      <trkpt lat="47.16406" lon="-1.82651">
        <ele>72</ele>
        <time>2020-12-29T12:23:10.000Z</time>
      </trkpt>
      <trkpt lat="47.16407" lon="-1.82664">
        <ele>72</ele>
        <time>2020-12-29T12:23:11.000Z</time>
      </trkpt>
      <trkpt lat="47.16419" lon="-1.82684">
        <ele>72</ele>
        <time>2020-12-29T12:23:13.000Z</time>
      </trkpt>
      <trkpt lat="47.16428" lon="-1.82688">
        <ele>72</ele>
        <time>2020-12-29T12:23:14.000Z</time>
      </trkpt>
      <trkpt lat="47.16439" lon="-1.82689">
        <ele>71</ele>
        <time>2020-12-29T12:23:15.000Z</time>
      </trkpt>
      <trkpt lat="47.16448" lon="-1.8269">
        <ele>70</ele>
        <time>2020-12-29T12:23:16.000Z</time>
      </trkpt>
      <trkpt lat="47.16459" lon="-1.82689">
        <ele>69</ele>
        <time>2020-12-29T12:23:17.000Z</time>
      </trkpt>
      <trkpt lat="47.16469" lon="-1.82688">
        <ele>68</ele>
        <time>2020-12-29T12:23:18.000Z</time>
      </trkpt>
      <trkpt lat="47.16479" lon="-1.82687">
        <ele>68</ele>
        <time>2020-12-29T12:23:19.000Z</time>
      </trkpt>
      <trkpt lat="47.16488" lon="-1.82687">
        <ele>67</ele>
        <time>2020-12-29T12:23:20.000Z</time>
      </trkpt>
      <trkpt lat="47.16498" lon="-1.82686">
        <ele>67</ele>
        <time>2020-12-29T12:23:21.000Z</time>
      </trkpt>
      <trkpt lat="47.16507" lon="-1.82686">
        <ele>67</ele>
        <time>2020-12-29T12:23:22.000Z</time>
      </trkpt>
      <trkpt lat="47.16517" lon="-1.82686">
        <ele>66</ele>
        <time>2020-12-29T12:23:23.000Z</time>
      </trkpt>
      <trkpt lat="47.16527" lon="-1.82686">
        <ele>66</ele>
        <time>2020-12-29T12:23:24.000Z</time>
      </trkpt>
      <trkpt lat="47.16536" lon="-1.82688">
        <ele>66</ele>
        <time>2020-12-29T12:23:25.000Z</time>
      </trkpt>
      <trkpt lat="47.16553" lon="-1.82698">
        <ele>65</ele>
        <time>2020-12-29T12:23:27.000Z</time>
      </trkpt>
      <trkpt lat="47.1656" lon="-1.8271">
        <ele>64</ele>
        <time>2020-12-29T12:23:28.000Z</time>
      </trkpt>
      <trkpt lat="47.16566" lon="-1.82723">
        <ele>63</ele>
        <time>2020-12-29T12:23:29.000Z</time>
      </trkpt>
      <trkpt lat="47.16572" lon="-1.82736">
        <ele>62</ele>
        <time>2020-12-29T12:23:30.000Z</time>
      </trkpt>
      <trkpt lat="47.16578" lon="-1.82748">
        <ele>60</ele>
        <time>2020-12-29T12:23:31.000Z</time>
      </trkpt>
      <trkpt lat="47.16583" lon="-1.82761">
        <ele>60</ele>
        <time>2020-12-29T12:23:32.000Z</time>
      </trkpt>
      <trkpt lat="47.16588" lon="-1.82774">
        <ele>60</ele>
        <time>2020-12-29T12:23:33.000Z</time>
      </trkpt>
      <trkpt lat="47.16593" lon="-1.82786">
        <ele>60</ele>
        <time>2020-12-29T12:23:34.000Z</time>
      </trkpt>
      <trkpt lat="47.16598" lon="-1.82798">
        <ele>60</ele>
        <time>2020-12-29T12:23:35.000Z</time>
      </trkpt>
      <trkpt lat="47.16603" lon="-1.8281">
        <ele>59</ele>
        <time>2020-12-29T12:23:36.000Z</time>
      </trkpt>
      <trkpt lat="47.16607" lon="-1.82822">
        <ele>58</ele>
        <time>2020-12-29T12:23:37.000Z</time>
      </trkpt>
      <trkpt lat="47.16611" lon="-1.82833">
        <ele>57</ele>
        <time>2020-12-29T12:23:38.000Z</time>
      </trkpt>
      <trkpt lat="47.1662" lon="-1.82855">
        <ele>56</ele>
        <time>2020-12-29T12:23:40.000Z</time>
      </trkpt>
      <trkpt lat="47.16629" lon="-1.82877">
        <ele>56</ele>
        <time>2020-12-29T12:23:42.000Z</time>
      </trkpt>
      <trkpt lat="47.16637" lon="-1.82897">
        <ele>55</ele>
        <time>2020-12-29T12:23:44.000Z</time>
      </trkpt>
      <trkpt lat="47.16644" lon="-1.82916">
        <ele>55</ele>
        <time>2020-12-29T12:23:46.000Z</time>
      </trkpt>
      <trkpt lat="47.16651" lon="-1.82934">
        <ele>55</ele>
        <time>2020-12-29T12:23:48.000Z</time>
      </trkpt>
      <trkpt lat="47.16657" lon="-1.8295">
        <ele>55</ele>
        <time>2020-12-29T12:23:50.000Z</time>
      </trkpt>
      <trkpt lat="47.16663" lon="-1.82964">
        <ele>56</ele>
        <time>2020-12-29T12:23:52.000Z</time>
      </trkpt>
      <trkpt lat="47.16668" lon="-1.82978">
        <ele>56</ele>
        <time>2020-12-29T12:23:54.000Z</time>
      </trkpt>
      <trkpt lat="47.16674" lon="-1.82992">
        <ele>56</ele>
        <time>2020-12-29T12:23:56.000Z</time>
      </trkpt>
      <trkpt lat="47.1668" lon="-1.83005">
        <ele>56</ele>
        <time>2020-12-29T12:23:58.000Z</time>
      </trkpt>
      <trkpt lat="47.16685" lon="-1.83018">
        <ele>56</ele>
        <time>2020-12-29T12:24:00.000Z</time>
      </trkpt>
      <trkpt lat="47.16689" lon="-1.83031">
        <ele>56</ele>
        <time>2020-12-29T12:24:02.000Z</time>
      </trkpt>
      <trkpt lat="47.16692" lon="-1.83045">
        <ele>56</ele>
        <time>2020-12-29T12:24:04.000Z</time>
      </trkpt>
      <trkpt lat="47.16695" lon="-1.83059">
        <ele>57</ele>
        <time>2020-12-29T12:24:06.000Z</time>
      </trkpt>
      <trkpt lat="47.16695" lon="-1.83073">
        <ele>57</ele>
        <time>2020-12-29T12:24:08.000Z</time>
      </trkpt>
      <trkpt lat="47.16693" lon="-1.83093">
        <ele>59</ele>
        <time>2020-12-29T12:24:11.000Z</time>
      </trkpt>
      <trkpt lat="47.16687" lon="-1.83105">
        <ele>60</ele>
        <time>2020-12-29T12:24:13.000Z</time>
      </trkpt>
      <trkpt lat="47.16681" lon="-1.83116">
        <ele>61</ele>
        <time>2020-12-29T12:24:15.000Z</time>
      </trkpt>
      <trkpt lat="47.16674" lon="-1.83125">
        <ele>61</ele>
        <time>2020-12-29T12:24:17.000Z</time>
      </trkpt>
      <trkpt lat="47.16667" lon="-1.83135">
        <ele>60</ele>
        <time>2020-12-29T12:24:19.000Z</time>
      </trkpt>
      <trkpt lat="47.16659" lon="-1.83143">
        <ele>60</ele>
        <time>2020-12-29T12:24:21.000Z</time>
      </trkpt>
      <trkpt lat="47.16652" lon="-1.83152">
        <ele>60</ele>
        <time>2020-12-29T12:24:23.000Z</time>
      </trkpt>
      <trkpt lat="47.16645" lon="-1.83169">
        <ele>61</ele>
        <time>2020-12-29T12:24:26.000Z</time>
      </trkpt>
      <trkpt lat="47.16644" lon="-1.83182">
        <ele>62</ele>
        <time>2020-12-29T12:24:28.000Z</time>
      </trkpt>
      <trkpt lat="47.16647" lon="-1.832">
        <ele>63</ele>
        <time>2020-12-29T12:24:31.000Z</time>
      </trkpt>
      <trkpt lat="47.16657" lon="-1.83213">
        <ele>65</ele>
        <time>2020-12-29T12:24:34.000Z</time>
      </trkpt>
      <trkpt lat="47.16668" lon="-1.83223">
        <ele>65</ele>
        <time>2020-12-29T12:24:37.000Z</time>
      </trkpt>
      <trkpt lat="47.16679" lon="-1.83232">
        <ele>66</ele>
        <time>2020-12-29T12:24:40.000Z</time>
      </trkpt>
      <trkpt lat="47.16689" lon="-1.8324">
        <ele>66</ele>
        <time>2020-12-29T12:24:43.000Z</time>
      </trkpt>
      <trkpt lat="47.167" lon="-1.83248">
        <ele>67</ele>
        <time>2020-12-29T12:24:46.000Z</time>
      </trkpt>
      <trkpt lat="47.16711" lon="-1.83257">
        <ele>68</ele>
        <time>2020-12-29T12:24:49.000Z</time>
      </trkpt>
      <trkpt lat="47.16721" lon="-1.83267">
        <ele>69</ele>
        <time>2020-12-29T12:24:52.000Z</time>
      </trkpt>
      <trkpt lat="47.1673" lon="-1.83276">
        <ele>70</ele>
        <time>2020-12-29T12:24:55.000Z</time>
      </trkpt>
      <trkpt lat="47.16739" lon="-1.83286">
        <ele>71</ele>
        <time>2020-12-29T12:24:58.000Z</time>
      </trkpt>
      <trkpt lat="47.16748" lon="-1.83297">
        <ele>71</ele>
        <time>2020-12-29T12:25:01.000Z</time>
      </trkpt>
      <trkpt lat="47.16756" lon="-1.83309">
        <ele>72</ele>
        <time>2020-12-29T12:25:04.000Z</time>
      </trkpt>
      <trkpt lat="47.16763" lon="-1.83323">
        <ele>73</ele>
        <time>2020-12-29T12:25:07.000Z</time>
      </trkpt>
      <trkpt lat="47.16771" lon="-1.83339">
        <ele>73</ele>
        <time>2020-12-29T12:25:10.000Z</time>
      </trkpt>
      <trkpt lat="47.16777" lon="-1.83353">
        <ele>74</ele>
        <time>2020-12-29T12:25:13.000Z</time>
      </trkpt>
      <trkpt lat="47.16782" lon="-1.83368">
        <ele>74</ele>
        <time>2020-12-29T12:25:16.000Z</time>
      </trkpt>
      <trkpt lat="47.16788" lon="-1.83383">
        <ele>75</ele>
        <time>2020-12-29T12:25:19.000Z</time>
      </trkpt>
      <trkpt lat="47.16793" lon="-1.83398">
        <ele>75</ele>
        <time>2020-12-29T12:25:22.000Z</time>
      </trkpt>
      <trkpt lat="47.16798" lon="-1.83414">
        <ele>77</ele>
        <time>2020-12-29T12:25:25.000Z</time>
      </trkpt>
      <trkpt lat="47.16802" lon="-1.83429">
        <ele>77</ele>
        <time>2020-12-29T12:25:28.000Z</time>
      </trkpt>
      <trkpt lat="47.16808" lon="-1.83443">
        <ele>78</ele>
        <time>2020-12-29T12:25:31.000Z</time>
      </trkpt>
      <trkpt lat="47.16814" lon="-1.83459">
        <ele>79</ele>
        <time>2020-12-29T12:25:34.000Z</time>
      </trkpt>
      <trkpt lat="47.1682" lon="-1.83474">
        <ele>79</ele>
        <time>2020-12-29T12:25:37.000Z</time>
      </trkpt>
      <trkpt lat="47.16826" lon="-1.83491">
        <ele>80</ele>
        <time>2020-12-29T12:25:40.000Z</time>
      </trkpt>
      <trkpt lat="47.16832" lon="-1.83508">
        <ele>80</ele>
        <time>2020-12-29T12:25:43.000Z</time>
      </trkpt>
      <trkpt lat="47.16839" lon="-1.83526">
        <ele>80</ele>
        <time>2020-12-29T12:25:46.000Z</time>
      </trkpt>
      <trkpt lat="47.16844" lon="-1.83538">
        <ele>81</ele>
        <time>2020-12-29T12:25:48.000Z</time>
      </trkpt>
      <trkpt lat="47.16849" lon="-1.83549">
        <ele>81</ele>
        <time>2020-12-29T12:25:50.000Z</time>
      </trkpt>
      <trkpt lat="47.16855" lon="-1.83561">
        <ele>81</ele>
        <time>2020-12-29T12:25:52.000Z</time>
      </trkpt>
      <trkpt lat="47.16861" lon="-1.83572">
        <ele>81</ele>
        <time>2020-12-29T12:25:54.000Z</time>
      </trkpt>
      <trkpt lat="47.16868" lon="-1.83582">
        <ele>81</ele>
        <time>2020-12-29T12:25:56.000Z</time>
      </trkpt>
      <trkpt lat="47.16874" lon="-1.83594">
        <ele>81</ele>
        <time>2020-12-29T12:25:58.000Z</time>
      </trkpt>
      <trkpt lat="47.16881" lon="-1.83604">
        <ele>81</ele>
        <time>2020-12-29T12:26:00.000Z</time>
      </trkpt>
      <trkpt lat="47.16887" lon="-1.83614">
        <ele>81</ele>
        <time>2020-12-29T12:26:02.000Z</time>
      </trkpt>
      <trkpt lat="47.16894" lon="-1.83625">
        <ele>80</ele>
        <time>2020-12-29T12:26:04.000Z</time>
      </trkpt>
      <trkpt lat="47.169" lon="-1.83636">
        <ele>80</ele>
        <time>2020-12-29T12:26:06.000Z</time>
      </trkpt>
      <trkpt lat="47.16906" lon="-1.83647">
        <ele>80</ele>
        <time>2020-12-29T12:26:08.000Z</time>
      </trkpt>
      <trkpt lat="47.16912" lon="-1.83659">
        <ele>80</ele>
        <time>2020-12-29T12:26:10.000Z</time>
      </trkpt>
      <trkpt lat="47.16919" lon="-1.83671">
        <ele>80</ele>
        <time>2020-12-29T12:26:12.000Z</time>
      </trkpt>
      <trkpt lat="47.16925" lon="-1.83683">
        <ele>80</ele>
        <time>2020-12-29T12:26:14.000Z</time>
      </trkpt>
      <trkpt lat="47.16931" lon="-1.83696">
        <ele>79</ele>
        <time>2020-12-29T12:26:16.000Z</time>
      </trkpt>
      <trkpt lat="47.16937" lon="-1.83709">
        <ele>79</ele>
        <time>2020-12-29T12:26:18.000Z</time>
      </trkpt>
      <trkpt lat="47.16944" lon="-1.83722">
        <ele>79</ele>
        <time>2020-12-29T12:26:20.000Z</time>
      </trkpt>
      <trkpt lat="47.1695" lon="-1.83735">
        <ele>79</ele>
        <time>2020-12-29T12:26:22.000Z</time>
      </trkpt>
      <trkpt lat="47.16956" lon="-1.83749">
        <ele>80</ele>
        <time>2020-12-29T12:26:24.000Z</time>
      </trkpt>
      <trkpt lat="47.16963" lon="-1.83763">
        <ele>80</ele>
        <time>2020-12-29T12:26:26.000Z</time>
      </trkpt>
      <trkpt lat="47.16968" lon="-1.83777">
        <ele>80</ele>
        <time>2020-12-29T12:26:28.000Z</time>
      </trkpt>
      <trkpt lat="47.16972" lon="-1.83792">
        <ele>81</ele>
        <time>2020-12-29T12:26:30.000Z</time>
      </trkpt>
      <trkpt lat="47.16971" lon="-1.83807">
        <ele>82</ele>
        <time>2020-12-29T12:26:32.000Z</time>
      </trkpt>
      <trkpt lat="47.16966" lon="-1.83822">
        <ele>82</ele>
        <time>2020-12-29T12:26:34.000Z</time>
      </trkpt>
      <trkpt lat="47.16959" lon="-1.83837">
        <ele>82</ele>
        <time>2020-12-29T12:26:36.000Z</time>
      </trkpt>
      <trkpt lat="47.16954" lon="-1.83851">
        <ele>82</ele>
        <time>2020-12-29T12:26:38.000Z</time>
      </trkpt>
      <trkpt lat="47.16947" lon="-1.83866">
        <ele>82</ele>
        <time>2020-12-29T12:26:40.000Z</time>
      </trkpt>
      <trkpt lat="47.16941" lon="-1.83881">
        <ele>82</ele>
        <time>2020-12-29T12:26:42.000Z</time>
      </trkpt>
      <trkpt lat="47.16934" lon="-1.83895">
        <ele>82</ele>
        <time>2020-12-29T12:26:44.000Z</time>
      </trkpt>
      <trkpt lat="47.16927" lon="-1.83909">
        <ele>82</ele>
        <time>2020-12-29T12:26:46.000Z</time>
      </trkpt>
      <trkpt lat="47.16919" lon="-1.83922">
        <ele>82</ele>
        <time>2020-12-29T12:26:48.000Z</time>
      </trkpt>
      <trkpt lat="47.16912" lon="-1.83936">
        <ele>82</ele>
        <time>2020-12-29T12:26:50.000Z</time>
      </trkpt>
      <trkpt lat="47.16903" lon="-1.83949">
        <ele>82</ele>
        <time>2020-12-29T12:26:52.000Z</time>
      </trkpt>
      <trkpt lat="47.16895" lon="-1.83962">
        <ele>82</ele>
        <time>2020-12-29T12:26:54.000Z</time>
      </trkpt>
      <trkpt lat="47.16887" lon="-1.83976">
        <ele>82</ele>
        <time>2020-12-29T12:26:56.000Z</time>
      </trkpt>
      <trkpt lat="47.16879" lon="-1.83989">
        <ele>82</ele>
        <time>2020-12-29T12:26:58.000Z</time>
      </trkpt>
      <trkpt lat="47.1687" lon="-1.84003">
        <ele>82</ele>
        <time>2020-12-29T12:27:00.000Z</time>
      </trkpt>
      <trkpt lat="47.16862" lon="-1.84017">
        <ele>82</ele>
        <time>2020-12-29T12:27:02.000Z</time>
      </trkpt>
      <trkpt lat="47.16855" lon="-1.8403">
        <ele>82</ele>
        <time>2020-12-29T12:27:04.000Z</time>
      </trkpt>
      <trkpt lat="47.16846" lon="-1.84045">
        <ele>81</ele>
        <time>2020-12-29T12:27:06.000Z</time>
      </trkpt>
      <trkpt lat="47.16838" lon="-1.84059">
        <ele>82</ele>
        <time>2020-12-29T12:27:08.000Z</time>
      </trkpt>
      <trkpt lat="47.1683" lon="-1.84072">
        <ele>82</ele>
        <time>2020-12-29T12:27:10.000Z</time>
      </trkpt>
      <trkpt lat="47.16822" lon="-1.84086">
        <ele>82</ele>
        <time>2020-12-29T12:27:12.000Z</time>
      </trkpt>
      <trkpt lat="47.16814" lon="-1.841">
        <ele>81</ele>
        <time>2020-12-29T12:27:14.000Z</time>
      </trkpt>
      <trkpt lat="47.16805" lon="-1.84114">
        <ele>81</ele>
        <time>2020-12-29T12:27:16.000Z</time>
      </trkpt>
      <trkpt lat="47.16796" lon="-1.84127">
        <ele>81</ele>
        <time>2020-12-29T12:27:18.000Z</time>
      </trkpt>
      <trkpt lat="47.16787" lon="-1.8414">
        <ele>80</ele>
        <time>2020-12-29T12:27:20.000Z</time>
      </trkpt>
      <trkpt lat="47.16777" lon="-1.84153">
        <ele>80</ele>
        <time>2020-12-29T12:27:22.000Z</time>
      </trkpt>
      <trkpt lat="47.16767" lon="-1.84165">
        <ele>80</ele>
        <time>2020-12-29T12:27:24.000Z</time>
      </trkpt>
      <trkpt lat="47.16758" lon="-1.84176">
        <ele>80</ele>
        <time>2020-12-29T12:27:26.000Z</time>
      </trkpt>
      <trkpt lat="47.16749" lon="-1.84185">
        <ele>80</ele>
        <time>2020-12-29T12:27:28.000Z</time>
      </trkpt>
      <trkpt lat="47.16738" lon="-1.84196">
        <ele>79</ele>
        <time>2020-12-29T12:27:30.000Z</time>
      </trkpt>
      <trkpt lat="47.16728" lon="-1.84206">
        <ele>80</ele>
        <time>2020-12-29T12:27:32.000Z</time>
      </trkpt>
      <trkpt lat="47.16717" lon="-1.84215">
        <ele>80</ele>
        <time>2020-12-29T12:27:34.000Z</time>
      </trkpt>
      <trkpt lat="47.16706" lon="-1.84225">
        <ele>79</ele>
        <time>2020-12-29T12:27:36.000Z</time>
      </trkpt>
      <trkpt lat="47.16696" lon="-1.84235">
        <ele>80</ele>
        <time>2020-12-29T12:27:38.000Z</time>
      </trkpt>
      <trkpt lat="47.16685" lon="-1.84245">
        <ele>79</ele>
        <time>2020-12-29T12:27:40.000Z</time>
      </trkpt>
      <trkpt lat="47.16674" lon="-1.84257">
        <ele>78</ele>
        <time>2020-12-29T12:27:42.000Z</time>
      </trkpt>
      <trkpt lat="47.16662" lon="-1.84268">
        <ele>77</ele>
        <time>2020-12-29T12:27:44.000Z</time>
      </trkpt>
      <trkpt lat="47.16651" lon="-1.84279">
        <ele>77</ele>
        <time>2020-12-29T12:27:46.000Z</time>
      </trkpt>
      <trkpt lat="47.1664" lon="-1.8429">
        <ele>76</ele>
        <time>2020-12-29T12:27:48.000Z</time>
      </trkpt>
      <trkpt lat="47.16628" lon="-1.843">
        <ele>76</ele>
        <time>2020-12-29T12:27:50.000Z</time>
      </trkpt>
      <trkpt lat="47.16617" lon="-1.84311">
        <ele>75</ele>
        <time>2020-12-29T12:27:52.000Z</time>
      </trkpt>
      <trkpt lat="47.16606" lon="-1.84321">
        <ele>75</ele>
        <time>2020-12-29T12:27:54.000Z</time>
      </trkpt>
      <trkpt lat="47.16596" lon="-1.84332">
        <ele>75</ele>
        <time>2020-12-29T12:27:56.000Z</time>
      </trkpt>
      <trkpt lat="47.16586" lon="-1.84344">
        <ele>75</ele>
        <time>2020-12-29T12:27:58.000Z</time>
      </trkpt>
      <trkpt lat="47.16577" lon="-1.84355">
        <ele>75</ele>
        <time>2020-12-29T12:28:00.000Z</time>
      </trkpt>
      <trkpt lat="47.16568" lon="-1.84368">
        <ele>75</ele>
        <time>2020-12-29T12:28:02.000Z</time>
      </trkpt>
      <trkpt lat="47.16559" lon="-1.84381">
        <ele>75</ele>
        <time>2020-12-29T12:28:04.000Z</time>
      </trkpt>
      <trkpt lat="47.16552" lon="-1.84395">
        <ele>75</ele>
        <time>2020-12-29T12:28:06.000Z</time>
      </trkpt>
      <trkpt lat="47.16544" lon="-1.84409">
        <ele>75</ele>
        <time>2020-12-29T12:28:08.000Z</time>
      </trkpt>
      <trkpt lat="47.16537" lon="-1.84423">
        <ele>76</ele>
        <time>2020-12-29T12:28:10.000Z</time>
      </trkpt>
      <trkpt lat="47.1653" lon="-1.84436">
        <ele>76</ele>
        <time>2020-12-29T12:28:12.000Z</time>
      </trkpt>
      <trkpt lat="47.16523" lon="-1.84449">
        <ele>77</ele>
        <time>2020-12-29T12:28:14.000Z</time>
      </trkpt>
      <trkpt lat="47.16517" lon="-1.84463">
        <ele>77</ele>
        <time>2020-12-29T12:28:16.000Z</time>
      </trkpt>
      <trkpt lat="47.1651" lon="-1.84475">
        <ele>77</ele>
        <time>2020-12-29T12:28:18.000Z</time>
      </trkpt>
      <trkpt lat="47.16504" lon="-1.84487">
        <ele>77</ele>
        <time>2020-12-29T12:28:20.000Z</time>
      </trkpt>
      <trkpt lat="47.16497" lon="-1.84499">
        <ele>78</ele>
        <time>2020-12-29T12:28:22.000Z</time>
      </trkpt>
      <trkpt lat="47.1649" lon="-1.84513">
        <ele>79</ele>
        <time>2020-12-29T12:28:24.000Z</time>
      </trkpt>
      <trkpt lat="47.16484" lon="-1.84526">
        <ele>79</ele>
        <time>2020-12-29T12:28:26.000Z</time>
      </trkpt>
      <trkpt lat="47.16477" lon="-1.84539">
        <ele>80</ele>
        <time>2020-12-29T12:28:28.000Z</time>
      </trkpt>
      <trkpt lat="47.1647" lon="-1.84551">
        <ele>80</ele>
        <time>2020-12-29T12:28:30.000Z</time>
      </trkpt>
      <trkpt lat="47.16462" lon="-1.84564">
        <ele>80</ele>
        <time>2020-12-29T12:28:32.000Z</time>
      </trkpt>
      <trkpt lat="47.16455" lon="-1.84577">
        <ele>81</ele>
        <time>2020-12-29T12:28:34.000Z</time>
      </trkpt>
      <trkpt lat="47.1645" lon="-1.84589">
        <ele>81</ele>
        <time>2020-12-29T12:28:36.000Z</time>
      </trkpt>
      <trkpt lat="47.16444" lon="-1.84602">
        <ele>81</ele>
        <time>2020-12-29T12:28:38.000Z</time>
      </trkpt>
      <trkpt lat="47.16439" lon="-1.84619">
        <ele>81</ele>
        <time>2020-12-29T12:28:41.000Z</time>
      </trkpt>
      <trkpt lat="47.16437" lon="-1.84633">
        <ele>81</ele>
        <time>2020-12-29T12:28:44.000Z</time>
      </trkpt>
      <trkpt lat="47.1643" lon="-1.84643">
        <ele>82</ele>
        <time>2020-12-29T12:28:47.000Z</time>
      </trkpt>
      <trkpt lat="47.1642" lon="-1.84646">
        <ele>82</ele>
        <time>2020-12-29T12:28:49.000Z</time>
      </trkpt>
      <trkpt lat="47.16408" lon="-1.84651">
        <ele>82</ele>
        <time>2020-12-29T12:28:51.000Z</time>
      </trkpt>
      <trkpt lat="47.16398" lon="-1.84658">
        <ele>81</ele>
        <time>2020-12-29T12:28:53.000Z</time>
      </trkpt>
      <trkpt lat="47.16392" lon="-1.8467">
        <ele>81</ele>
        <time>2020-12-29T12:28:55.000Z</time>
      </trkpt>
      <trkpt lat="47.16387" lon="-1.84685">
        <ele>81</ele>
        <time>2020-12-29T12:28:57.000Z</time>
      </trkpt>
      <trkpt lat="47.16382" lon="-1.84701">
        <ele>81</ele>
        <time>2020-12-29T12:28:59.000Z</time>
      </trkpt>
      <trkpt lat="47.16375" lon="-1.84717">
        <ele>82</ele>
        <time>2020-12-29T12:29:01.000Z</time>
      </trkpt>
      <trkpt lat="47.16369" lon="-1.84732">
        <ele>82</ele>
        <time>2020-12-29T12:29:03.000Z</time>
      </trkpt>
      <trkpt lat="47.16364" lon="-1.84748">
        <ele>82</ele>
        <time>2020-12-29T12:29:05.000Z</time>
      </trkpt>
      <trkpt lat="47.16359" lon="-1.84763">
        <ele>82</ele>
        <time>2020-12-29T12:29:07.000Z</time>
      </trkpt>
      <trkpt lat="47.16353" lon="-1.8478">
        <ele>82</ele>
        <time>2020-12-29T12:29:09.000Z</time>
      </trkpt>
      <trkpt lat="47.16348" lon="-1.84795">
        <ele>83</ele>
        <time>2020-12-29T12:29:11.000Z</time>
      </trkpt>
      <trkpt lat="47.16343" lon="-1.84811">
        <ele>83</ele>
        <time>2020-12-29T12:29:13.000Z</time>
      </trkpt>
      <trkpt lat="47.16339" lon="-1.84827">
        <ele>83</ele>
        <time>2020-12-29T12:29:15.000Z</time>
      </trkpt>
      <trkpt lat="47.16334" lon="-1.84845">
        <ele>83</ele>
        <time>2020-12-29T12:29:17.000Z</time>
      </trkpt>
      <trkpt lat="47.1633" lon="-1.8486">
        <ele>83</ele>
        <time>2020-12-29T12:29:19.000Z</time>
      </trkpt>
      <trkpt lat="47.16325" lon="-1.84877">
        <ele>83</ele>
        <time>2020-12-29T12:29:21.000Z</time>
      </trkpt>
      <trkpt lat="47.1632" lon="-1.84893">
        <ele>83</ele>
        <time>2020-12-29T12:29:23.000Z</time>
      </trkpt>
      <trkpt lat="47.16315" lon="-1.8491">
        <ele>83</ele>
        <time>2020-12-29T12:29:25.000Z</time>
      </trkpt>
      <trkpt lat="47.1631" lon="-1.84927">
        <ele>83</ele>
        <time>2020-12-29T12:29:27.000Z</time>
      </trkpt>
      <trkpt lat="47.16306" lon="-1.84944">
        <ele>82</ele>
        <time>2020-12-29T12:29:29.000Z</time>
      </trkpt>
      <trkpt lat="47.16302" lon="-1.84961">
        <ele>82</ele>
        <time>2020-12-29T12:29:31.000Z</time>
      </trkpt>
      <trkpt lat="47.16298" lon="-1.8498">
        <ele>81</ele>
        <time>2020-12-29T12:29:33.000Z</time>
      </trkpt>
      <trkpt lat="47.16294" lon="-1.84997">
        <ele>81</ele>
        <time>2020-12-29T12:29:35.000Z</time>
      </trkpt>
      <trkpt lat="47.16292" lon="-1.85016">
        <ele>81</ele>
        <time>2020-12-29T12:29:37.000Z</time>
      </trkpt>
      <trkpt lat="47.16288" lon="-1.85035">
        <ele>81</ele>
        <time>2020-12-29T12:29:39.000Z</time>
      </trkpt>
      <trkpt lat="47.16285" lon="-1.85054">
        <ele>81</ele>
        <time>2020-12-29T12:29:41.000Z</time>
      </trkpt>
      <trkpt lat="47.16281" lon="-1.85074">
        <ele>81</ele>
        <time>2020-12-29T12:29:43.000Z</time>
      </trkpt>
      <trkpt lat="47.16276" lon="-1.85094">
        <ele>80</ele>
        <time>2020-12-29T12:29:45.000Z</time>
      </trkpt>
      <trkpt lat="47.16272" lon="-1.85113">
        <ele>79</ele>
        <time>2020-12-29T12:29:47.000Z</time>
      </trkpt>
      <trkpt lat="47.16268" lon="-1.85132">
        <ele>79</ele>
        <time>2020-12-29T12:29:49.000Z</time>
      </trkpt>
      <trkpt lat="47.16264" lon="-1.8515">
        <ele>79</ele>
        <time>2020-12-29T12:29:51.000Z</time>
      </trkpt>
      <trkpt lat="47.1626" lon="-1.85168">
        <ele>79</ele>
        <time>2020-12-29T12:29:53.000Z</time>
      </trkpt>
      <trkpt lat="47.16257" lon="-1.85187">
        <ele>78</ele>
        <time>2020-12-29T12:29:55.000Z</time>
      </trkpt>
      <trkpt lat="47.16255" lon="-1.85207">
        <ele>78</ele>
        <time>2020-12-29T12:29:57.000Z</time>
      </trkpt>
      <trkpt lat="47.16253" lon="-1.85225">
        <ele>77</ele>
        <time>2020-12-29T12:29:59.000Z</time>
      </trkpt>
      <trkpt lat="47.16251" lon="-1.85245">
        <ele>77</ele>
        <time>2020-12-29T12:30:01.000Z</time>
      </trkpt>
      <trkpt lat="47.16249" lon="-1.85265">
        <ele>77</ele>
        <time>2020-12-29T12:30:03.000Z</time>
      </trkpt>
      <trkpt lat="47.16247" lon="-1.85285">
        <ele>76</ele>
        <time>2020-12-29T12:30:05.000Z</time>
      </trkpt>
      <trkpt lat="47.16245" lon="-1.85306">
        <ele>77</ele>
        <time>2020-12-29T12:30:07.000Z</time>
      </trkpt>
      <trkpt lat="47.16243" lon="-1.85326">
        <ele>76</ele>
        <time>2020-12-29T12:30:09.000Z</time>
      </trkpt>
      <trkpt lat="47.16241" lon="-1.85347">
        <ele>76</ele>
        <time>2020-12-29T12:30:11.000Z</time>
      </trkpt>
      <trkpt lat="47.1624" lon="-1.85368">
        <ele>76</ele>
        <time>2020-12-29T12:30:13.000Z</time>
      </trkpt>
      <trkpt lat="47.16238" lon="-1.85388">
        <ele>76</ele>
        <time>2020-12-29T12:30:15.000Z</time>
      </trkpt>
      <trkpt lat="47.16236" lon="-1.85408">
        <ele>76</ele>
        <time>2020-12-29T12:30:17.000Z</time>
      </trkpt>
      <trkpt lat="47.16234" lon="-1.85427">
        <ele>77</ele>
        <time>2020-12-29T12:30:19.000Z</time>
      </trkpt>
      <trkpt lat="47.16232" lon="-1.85445">
        <ele>76</ele>
        <time>2020-12-29T12:30:21.000Z</time>
      </trkpt>
      <trkpt lat="47.1623" lon="-1.85463">
        <ele>77</ele>
        <time>2020-12-29T12:30:23.000Z</time>
      </trkpt>
      <trkpt lat="47.16228" lon="-1.85479">
        <ele>77</ele>
        <time>2020-12-29T12:30:25.000Z</time>
      </trkpt>
      <trkpt lat="47.16226" lon="-1.85495">
        <ele>77</ele>
        <time>2020-12-29T12:30:27.000Z</time>
      </trkpt>
      <trkpt lat="47.16225" lon="-1.8551">
        <ele>77</ele>
        <time>2020-12-29T12:30:29.000Z</time>
      </trkpt>
      <trkpt lat="47.16223" lon="-1.85525">
        <ele>77</ele>
        <time>2020-12-29T12:30:31.000Z</time>
      </trkpt>
      <trkpt lat="47.16223" lon="-1.8554">
        <ele>78</ele>
        <time>2020-12-29T12:30:33.000Z</time>
      </trkpt>
      <trkpt lat="47.16224" lon="-1.85555">
        <ele>77</ele>
        <time>2020-12-29T12:30:35.000Z</time>
      </trkpt>
      <trkpt lat="47.16225" lon="-1.85569">
        <ele>77</ele>
        <time>2020-12-29T12:30:37.000Z</time>
      </trkpt>
      <trkpt lat="47.16226" lon="-1.85582">
        <ele>78</ele>
        <time>2020-12-29T12:30:39.000Z</time>
      </trkpt>
      <trkpt lat="47.16229" lon="-1.85594">
        <ele>78</ele>
        <time>2020-12-29T12:30:41.000Z</time>
      </trkpt>
      <trkpt lat="47.16233" lon="-1.85613">
        <ele>78</ele>
        <time>2020-12-29T12:30:44.000Z</time>
      </trkpt>
      <trkpt lat="47.16237" lon="-1.85625">
        <ele>78</ele>
        <time>2020-12-29T12:30:46.000Z</time>
      </trkpt>
      <trkpt lat="47.1624" lon="-1.85638">
        <ele>79</ele>
        <time>2020-12-29T12:30:48.000Z</time>
      </trkpt>
      <trkpt lat="47.16244" lon="-1.8565">
        <ele>79</ele>
        <time>2020-12-29T12:30:50.000Z</time>
      </trkpt>
      <trkpt lat="47.16247" lon="-1.85662">
        <ele>79</ele>
        <time>2020-12-29T12:30:52.000Z</time>
      </trkpt>
      <trkpt lat="47.1625" lon="-1.85675">
        <ele>80</ele>
        <time>2020-12-29T12:30:54.000Z</time>
      </trkpt>
      <trkpt lat="47.16254" lon="-1.85687">
        <ele>80</ele>
        <time>2020-12-29T12:30:56.000Z</time>
      </trkpt>
      <trkpt lat="47.16258" lon="-1.85699">
        <ele>81</ele>
        <time>2020-12-29T12:30:58.000Z</time>
      </trkpt>
      <trkpt lat="47.16263" lon="-1.85718">
        <ele>81</ele>
        <time>2020-12-29T12:31:01.000Z</time>
      </trkpt>
      <trkpt lat="47.16268" lon="-1.85735">
        <ele>82</ele>
        <time>2020-12-29T12:31:04.000Z</time>
      </trkpt>
      <trkpt lat="47.16273" lon="-1.85753">
        <ele>82</ele>
        <time>2020-12-29T12:31:07.000Z</time>
      </trkpt>
      <trkpt lat="47.16277" lon="-1.8577">
        <ele>81</ele>
        <time>2020-12-29T12:31:10.000Z</time>
      </trkpt>
      <trkpt lat="47.16282" lon="-1.85788">
        <ele>81</ele>
        <time>2020-12-29T12:31:13.000Z</time>
      </trkpt>
      <trkpt lat="47.16286" lon="-1.85805">
        <ele>81</ele>
        <time>2020-12-29T12:31:16.000Z</time>
      </trkpt>
      <trkpt lat="47.16288" lon="-1.85818">
        <ele>81</ele>
        <time>2020-12-29T12:31:18.000Z</time>
      </trkpt>
      <trkpt lat="47.1629" lon="-1.85832">
        <ele>81</ele>
        <time>2020-12-29T12:31:20.000Z</time>
      </trkpt>
      <trkpt lat="47.16293" lon="-1.85851">
        <ele>81</ele>
        <time>2020-12-29T12:31:23.000Z</time>
      </trkpt>
      <trkpt lat="47.16297" lon="-1.85864">
        <ele>81</ele>
        <time>2020-12-29T12:31:25.000Z</time>
      </trkpt>
      <trkpt lat="47.16299" lon="-1.85878">
        <ele>81</ele>
        <time>2020-12-29T12:31:27.000Z</time>
      </trkpt>
      <trkpt lat="47.16303" lon="-1.8589">
        <ele>81</ele>
        <time>2020-12-29T12:31:29.000Z</time>
      </trkpt>
      <trkpt lat="47.16306" lon="-1.85903">
        <ele>81</ele>
        <time>2020-12-29T12:31:31.000Z</time>
      </trkpt>
      <trkpt lat="47.1631" lon="-1.85915">
        <ele>81</ele>
        <time>2020-12-29T12:31:33.000Z</time>
      </trkpt>
      <trkpt lat="47.16314" lon="-1.85927">
        <ele>81</ele>
        <time>2020-12-29T12:31:35.000Z</time>
      </trkpt>
      <trkpt lat="47.16321" lon="-1.85944">
        <ele>81</ele>
        <time>2020-12-29T12:31:38.000Z</time>
      </trkpt>
      <trkpt lat="47.16328" lon="-1.8596">
        <ele>81</ele>
        <time>2020-12-29T12:31:41.000Z</time>
      </trkpt>
      <trkpt lat="47.16334" lon="-1.85971">
        <ele>81</ele>
        <time>2020-12-29T12:31:43.000Z</time>
      </trkpt>
      <trkpt lat="47.16339" lon="-1.85982">
        <ele>81</ele>
        <time>2020-12-29T12:31:45.000Z</time>
      </trkpt>
      <trkpt lat="47.16344" lon="-1.85993">
        <ele>81</ele>
        <time>2020-12-29T12:31:47.000Z</time>
      </trkpt>
      <trkpt lat="47.16351" lon="-1.86004">
        <ele>81</ele>
        <time>2020-12-29T12:31:49.000Z</time>
      </trkpt>
      <trkpt lat="47.16357" lon="-1.86014">
        <ele>81</ele>
        <time>2020-12-29T12:31:51.000Z</time>
      </trkpt>
      <trkpt lat="47.16363" lon="-1.86024">
        <ele>81</ele>
        <time>2020-12-29T12:31:53.000Z</time>
      </trkpt>
      <trkpt lat="47.1637" lon="-1.86034">
        <ele>81</ele>
        <time>2020-12-29T12:31:55.000Z</time>
      </trkpt>
      <trkpt lat="47.16377" lon="-1.86042">
        <ele>81</ele>
        <time>2020-12-29T12:31:57.000Z</time>
      </trkpt>
      <trkpt lat="47.16385" lon="-1.86052">
        <ele>82</ele>
        <time>2020-12-29T12:31:59.000Z</time>
      </trkpt>
      <trkpt lat="47.16393" lon="-1.8606">
        <ele>82</ele>
        <time>2020-12-29T12:32:01.000Z</time>
      </trkpt>
      <trkpt lat="47.164" lon="-1.86068">
        <ele>82</ele>
        <time>2020-12-29T12:32:03.000Z</time>
      </trkpt>
      <trkpt lat="47.16408" lon="-1.86075">
        <ele>82</ele>
        <time>2020-12-29T12:32:05.000Z</time>
      </trkpt>
      <trkpt lat="47.16416" lon="-1.86083">
        <ele>82</ele>
        <time>2020-12-29T12:32:07.000Z</time>
      </trkpt>
      <trkpt lat="47.16424" lon="-1.8609">
        <ele>82</ele>
        <time>2020-12-29T12:32:09.000Z</time>
      </trkpt>
      <trkpt lat="47.16432" lon="-1.86097">
        <ele>82</ele>
        <time>2020-12-29T12:32:11.000Z</time>
      </trkpt>
      <trkpt lat="47.16443" lon="-1.86107">
        <ele>83</ele>
        <time>2020-12-29T12:32:14.000Z</time>
      </trkpt>
      <trkpt lat="47.16455" lon="-1.86117">
        <ele>83</ele>
        <time>2020-12-29T12:32:17.000Z</time>
      </trkpt>
      <trkpt lat="47.16463" lon="-1.86124">
        <ele>83</ele>
        <time>2020-12-29T12:32:19.000Z</time>
      </trkpt>
      <trkpt lat="47.16472" lon="-1.86131">
        <ele>83</ele>
        <time>2020-12-29T12:32:21.000Z</time>
      </trkpt>
      <trkpt lat="47.1648" lon="-1.86138">
        <ele>83</ele>
        <time>2020-12-29T12:32:23.000Z</time>
      </trkpt>
      <trkpt lat="47.16488" lon="-1.86145">
        <ele>84</ele>
        <time>2020-12-29T12:32:25.000Z</time>
      </trkpt>
      <trkpt lat="47.16496" lon="-1.86152">
        <ele>84</ele>
        <time>2020-12-29T12:32:27.000Z</time>
      </trkpt>
      <trkpt lat="47.16504" lon="-1.86159">
        <ele>84</ele>
        <time>2020-12-29T12:32:29.000Z</time>
      </trkpt>
      <trkpt lat="47.16515" lon="-1.86168">
        <ele>84</ele>
        <time>2020-12-29T12:32:32.000Z</time>
      </trkpt>
      <trkpt lat="47.16523" lon="-1.86175">
        <ele>83</ele>
        <time>2020-12-29T12:32:34.000Z</time>
      </trkpt>
      <trkpt lat="47.16531" lon="-1.86182">
        <ele>84</ele>
        <time>2020-12-29T12:32:36.000Z</time>
      </trkpt>
      <trkpt lat="47.1654" lon="-1.86189">
        <ele>84</ele>
        <time>2020-12-29T12:32:38.000Z</time>
      </trkpt>
      <trkpt lat="47.16547" lon="-1.86196">
        <ele>84</ele>
        <time>2020-12-29T12:32:40.000Z</time>
      </trkpt>
      <trkpt lat="47.16555" lon="-1.86203">
        <ele>84</ele>
        <time>2020-12-29T12:32:42.000Z</time>
      </trkpt>
      <trkpt lat="47.16563" lon="-1.86209">
        <ele>85</ele>
        <time>2020-12-29T12:32:44.000Z</time>
      </trkpt>
      <trkpt lat="47.16571" lon="-1.86217">
        <ele>85</ele>
        <time>2020-12-29T12:32:46.000Z</time>
      </trkpt>
      <trkpt lat="47.16582" lon="-1.86227">
        <ele>85</ele>
        <time>2020-12-29T12:32:49.000Z</time>
      </trkpt>
      <trkpt lat="47.1659" lon="-1.86235">
        <ele>85</ele>
        <time>2020-12-29T12:32:51.000Z</time>
      </trkpt>
      <trkpt lat="47.16598" lon="-1.86242">
        <ele>85</ele>
        <time>2020-12-29T12:32:53.000Z</time>
      </trkpt>
      <trkpt lat="47.16606" lon="-1.8625">
        <ele>85</ele>
        <time>2020-12-29T12:32:55.000Z</time>
      </trkpt>
      <trkpt lat="47.16614" lon="-1.86257">
        <ele>84</ele>
        <time>2020-12-29T12:32:57.000Z</time>
      </trkpt>
      <trkpt lat="47.16622" lon="-1.86265">
        <ele>85</ele>
        <time>2020-12-29T12:32:59.000Z</time>
      </trkpt>
      <trkpt lat="47.1663" lon="-1.86272">
        <ele>85</ele>
        <time>2020-12-29T12:33:01.000Z</time>
      </trkpt>
      <trkpt lat="47.16638" lon="-1.86279">
        <ele>85</ele>
        <time>2020-12-29T12:33:03.000Z</time>
      </trkpt>
      <trkpt lat="47.16646" lon="-1.86287">
        <ele>85</ele>
        <time>2020-12-29T12:33:05.000Z</time>
      </trkpt>
      <trkpt lat="47.16655" lon="-1.86294">
        <ele>85</ele>
        <time>2020-12-29T12:33:07.000Z</time>
      </trkpt>
      <trkpt lat="47.16663" lon="-1.86301">
        <ele>85</ele>
        <time>2020-12-29T12:33:09.000Z</time>
      </trkpt>
      <trkpt lat="47.16671" lon="-1.86309">
        <ele>85</ele>
        <time>2020-12-29T12:33:11.000Z</time>
      </trkpt>
      <trkpt lat="47.16679" lon="-1.86317">
        <ele>85</ele>
        <time>2020-12-29T12:33:13.000Z</time>
      </trkpt>
      <trkpt lat="47.16688" lon="-1.86325">
        <ele>85</ele>
        <time>2020-12-29T12:33:15.000Z</time>
      </trkpt>
      <trkpt lat="47.16697" lon="-1.86333">
        <ele>85</ele>
        <time>2020-12-29T12:33:17.000Z</time>
      </trkpt>
      <trkpt lat="47.16706" lon="-1.86341">
        <ele>85</ele>
        <time>2020-12-29T12:33:19.000Z</time>
      </trkpt>
      <trkpt lat="47.16714" lon="-1.86349">
        <ele>85</ele>
        <time>2020-12-29T12:33:21.000Z</time>
      </trkpt>
      <trkpt lat="47.16723" lon="-1.86357">
        <ele>86</ele>
        <time>2020-12-29T12:33:23.000Z</time>
      </trkpt>
      <trkpt lat="47.16731" lon="-1.86364">
        <ele>85</ele>
        <time>2020-12-29T12:33:25.000Z</time>
      </trkpt>
      <trkpt lat="47.1674" lon="-1.86372">
        <ele>85</ele>
        <time>2020-12-29T12:33:27.000Z</time>
      </trkpt>
      <trkpt lat="47.16748" lon="-1.86379">
        <ele>86</ele>
        <time>2020-12-29T12:33:29.000Z</time>
      </trkpt>
      <trkpt lat="47.16757" lon="-1.86387">
        <ele>86</ele>
        <time>2020-12-29T12:33:31.000Z</time>
      </trkpt>
      <trkpt lat="47.16765" lon="-1.86395">
        <ele>86</ele>
        <time>2020-12-29T12:33:33.000Z</time>
      </trkpt>
      <trkpt lat="47.16777" lon="-1.86406">
        <ele>86</ele>
        <time>2020-12-29T12:33:36.000Z</time>
      </trkpt>
      <trkpt lat="47.16785" lon="-1.86413">
        <ele>86</ele>
        <time>2020-12-29T12:33:38.000Z</time>
      </trkpt>
      <trkpt lat="47.16793" lon="-1.86422">
        <ele>86</ele>
        <time>2020-12-29T12:33:40.000Z</time>
      </trkpt>
      <trkpt lat="47.16802" lon="-1.8643">
        <ele>86</ele>
        <time>2020-12-29T12:33:42.000Z</time>
      </trkpt>
      <trkpt lat="47.16811" lon="-1.86438">
        <ele>86</ele>
        <time>2020-12-29T12:33:44.000Z</time>
      </trkpt>
      <trkpt lat="47.16819" lon="-1.86446">
        <ele>86</ele>
        <time>2020-12-29T12:33:46.000Z</time>
      </trkpt>
      <trkpt lat="47.16828" lon="-1.86453">
        <ele>87</ele>
        <time>2020-12-29T12:33:48.000Z</time>
      </trkpt>
      <trkpt lat="47.16836" lon="-1.86461">
        <ele>86</ele>
        <time>2020-12-29T12:33:50.000Z</time>
      </trkpt>
      <trkpt lat="47.16845" lon="-1.86468">
        <ele>87</ele>
        <time>2020-12-29T12:33:52.000Z</time>
      </trkpt>
      <trkpt lat="47.16854" lon="-1.86475">
        <ele>87</ele>
        <time>2020-12-29T12:33:54.000Z</time>
      </trkpt>
      <trkpt lat="47.16863" lon="-1.86482">
        <ele>88</ele>
        <time>2020-12-29T12:33:56.000Z</time>
      </trkpt>
      <trkpt lat="47.16872" lon="-1.86489">
        <ele>88</ele>
        <time>2020-12-29T12:33:58.000Z</time>
      </trkpt>
      <trkpt lat="47.16881" lon="-1.86495">
        <ele>88</ele>
        <time>2020-12-29T12:34:00.000Z</time>
      </trkpt>
      <trkpt lat="47.16889" lon="-1.86501">
        <ele>88</ele>
        <time>2020-12-29T12:34:02.000Z</time>
      </trkpt>
      <trkpt lat="47.16898" lon="-1.86506">
        <ele>88</ele>
        <time>2020-12-29T12:34:04.000Z</time>
      </trkpt>
      <trkpt lat="47.16907" lon="-1.86512">
        <ele>88</ele>
        <time>2020-12-29T12:34:06.000Z</time>
      </trkpt>
      <trkpt lat="47.16916" lon="-1.86518">
        <ele>88</ele>
        <time>2020-12-29T12:34:08.000Z</time>
      </trkpt>
      <trkpt lat="47.16925" lon="-1.86524">
        <ele>88</ele>
        <time>2020-12-29T12:34:10.000Z</time>
      </trkpt>
      <trkpt lat="47.16934" lon="-1.8653">
        <ele>88</ele>
        <time>2020-12-29T12:34:12.000Z</time>
      </trkpt>
      <trkpt lat="47.16942" lon="-1.86535">
        <ele>89</ele>
        <time>2020-12-29T12:34:14.000Z</time>
      </trkpt>
      <trkpt lat="47.16951" lon="-1.86541">
        <ele>89</ele>
        <time>2020-12-29T12:34:16.000Z</time>
      </trkpt>
      <trkpt lat="47.16959" lon="-1.86548">
        <ele>89</ele>
        <time>2020-12-29T12:34:18.000Z</time>
      </trkpt>
      <trkpt lat="47.16968" lon="-1.86554">
        <ele>89</ele>
        <time>2020-12-29T12:34:20.000Z</time>
      </trkpt>
      <trkpt lat="47.16977" lon="-1.8656">
        <ele>90</ele>
        <time>2020-12-29T12:34:22.000Z</time>
      </trkpt>
      <trkpt lat="47.16985" lon="-1.86566">
        <ele>89</ele>
        <time>2020-12-29T12:34:24.000Z</time>
      </trkpt>
      <trkpt lat="47.16994" lon="-1.86572">
        <ele>90</ele>
        <time>2020-12-29T12:34:26.000Z</time>
      </trkpt>
      <trkpt lat="47.17003" lon="-1.86578">
        <ele>90</ele>
        <time>2020-12-29T12:34:28.000Z</time>
      </trkpt>
      <trkpt lat="47.17012" lon="-1.86585">
        <ele>90</ele>
        <time>2020-12-29T12:34:30.000Z</time>
      </trkpt>
      <trkpt lat="47.17021" lon="-1.86591">
        <ele>91</ele>
        <time>2020-12-29T12:34:32.000Z</time>
      </trkpt>
      <trkpt lat="47.17031" lon="-1.86598">
        <ele>90</ele>
        <time>2020-12-29T12:34:34.000Z</time>
      </trkpt>
      <trkpt lat="47.1704" lon="-1.86604">
        <ele>91</ele>
        <time>2020-12-29T12:34:36.000Z</time>
      </trkpt>
      <trkpt lat="47.17049" lon="-1.86611">
        <ele>90</ele>
        <time>2020-12-29T12:34:38.000Z</time>
      </trkpt>
      <trkpt lat="47.17057" lon="-1.86617">
        <ele>91</ele>
        <time>2020-12-29T12:34:40.000Z</time>
      </trkpt>
      <trkpt lat="47.17065" lon="-1.86624">
        <ele>92</ele>
        <time>2020-12-29T12:34:42.000Z</time>
      </trkpt>
      <trkpt lat="47.17073" lon="-1.86632">
        <ele>92</ele>
        <time>2020-12-29T12:34:44.000Z</time>
      </trkpt>
      <trkpt lat="47.17081" lon="-1.8664">
        <ele>92</ele>
        <time>2020-12-29T12:34:46.000Z</time>
      </trkpt>
      <trkpt lat="47.17088" lon="-1.86649">
        <ele>91</ele>
        <time>2020-12-29T12:34:48.000Z</time>
      </trkpt>
      <trkpt lat="47.17096" lon="-1.86659">
        <ele>91</ele>
        <time>2020-12-29T12:34:50.000Z</time>
      </trkpt>
      <trkpt lat="47.17105" lon="-1.86669">
        <ele>91</ele>
        <time>2020-12-29T12:34:52.000Z</time>
      </trkpt>
      <trkpt lat="47.17112" lon="-1.86678">
        <ele>91</ele>
        <time>2020-12-29T12:34:54.000Z</time>
      </trkpt>
      <trkpt lat="47.17121" lon="-1.86688">
        <ele>92</ele>
        <time>2020-12-29T12:34:56.000Z</time>
      </trkpt>
      <trkpt lat="47.17128" lon="-1.86697">
        <ele>92</ele>
        <time>2020-12-29T12:34:58.000Z</time>
      </trkpt>
      <trkpt lat="47.17136" lon="-1.86707">
        <ele>92</ele>
        <time>2020-12-29T12:35:00.000Z</time>
      </trkpt>
      <trkpt lat="47.17143" lon="-1.86717">
        <ele>92</ele>
        <time>2020-12-29T12:35:02.000Z</time>
      </trkpt>
      <trkpt lat="47.17151" lon="-1.86727">
        <ele>92</ele>
        <time>2020-12-29T12:35:04.000Z</time>
      </trkpt>
      <trkpt lat="47.17159" lon="-1.86737">
        <ele>91</ele>
        <time>2020-12-29T12:35:06.000Z</time>
      </trkpt>
      <trkpt lat="47.17166" lon="-1.86747">
        <ele>90</ele>
        <time>2020-12-29T12:35:08.000Z</time>
      </trkpt>
      <trkpt lat="47.17175" lon="-1.86757">
        <ele>91</ele>
        <time>2020-12-29T12:35:10.000Z</time>
      </trkpt>
      <trkpt lat="47.17182" lon="-1.86768">
        <ele>91</ele>
        <time>2020-12-29T12:35:12.000Z</time>
      </trkpt>
      <trkpt lat="47.17189" lon="-1.8678">
        <ele>91</ele>
        <time>2020-12-29T12:35:14.000Z</time>
      </trkpt>
      <trkpt lat="47.17195" lon="-1.86792">
        <ele>91</ele>
        <time>2020-12-29T12:35:16.000Z</time>
      </trkpt>
      <trkpt lat="47.17201" lon="-1.86804">
        <ele>91</ele>
        <time>2020-12-29T12:35:18.000Z</time>
      </trkpt>
      <trkpt lat="47.17207" lon="-1.86815">
        <ele>91</ele>
        <time>2020-12-29T12:35:20.000Z</time>
      </trkpt>
      <trkpt lat="47.17212" lon="-1.86828">
        <ele>91</ele>
        <time>2020-12-29T12:35:22.000Z</time>
      </trkpt>
      <trkpt lat="47.17216" lon="-1.86841">
        <ele>91</ele>
        <time>2020-12-29T12:35:24.000Z</time>
      </trkpt>
      <trkpt lat="47.17221" lon="-1.86854">
        <ele>91</ele>
        <time>2020-12-29T12:35:26.000Z</time>
      </trkpt>
      <trkpt lat="47.17225" lon="-1.86867">
        <ele>91</ele>
        <time>2020-12-29T12:35:28.000Z</time>
      </trkpt>
      <trkpt lat="47.17229" lon="-1.8688">
        <ele>90</ele>
        <time>2020-12-29T12:35:30.000Z</time>
      </trkpt>
      <trkpt lat="47.17233" lon="-1.86892">
        <ele>90</ele>
        <time>2020-12-29T12:35:32.000Z</time>
      </trkpt>
      <trkpt lat="47.17237" lon="-1.86905">
        <ele>90</ele>
        <time>2020-12-29T12:35:34.000Z</time>
      </trkpt>
      <trkpt lat="47.17242" lon="-1.86917">
        <ele>91</ele>
        <time>2020-12-29T12:35:36.000Z</time>
      </trkpt>
      <trkpt lat="47.17246" lon="-1.8693">
        <ele>91</ele>
        <time>2020-12-29T12:35:38.000Z</time>
      </trkpt>
      <trkpt lat="47.1725" lon="-1.86943">
        <ele>91</ele>
        <time>2020-12-29T12:35:40.000Z</time>
      </trkpt>
      <trkpt lat="47.17254" lon="-1.86955">
        <ele>91</ele>
        <time>2020-12-29T12:35:42.000Z</time>
      </trkpt>
      <trkpt lat="47.17258" lon="-1.86967">
        <ele>92</ele>
        <time>2020-12-29T12:35:44.000Z</time>
      </trkpt>
      <trkpt lat="47.17262" lon="-1.86979">
        <ele>92</ele>
        <time>2020-12-29T12:35:46.000Z</time>
      </trkpt>
      <trkpt lat="47.17266" lon="-1.86992">
        <ele>93</ele>
        <time>2020-12-29T12:35:48.000Z</time>
      </trkpt>
      <trkpt lat="47.1727" lon="-1.87004">
        <ele>93</ele>
        <time>2020-12-29T12:35:50.000Z</time>
      </trkpt>
      <trkpt lat="47.17276" lon="-1.87021">
        <ele>93</ele>
        <time>2020-12-29T12:35:53.000Z</time>
      </trkpt>
      <trkpt lat="47.17282" lon="-1.87038">
        <ele>94</ele>
        <time>2020-12-29T12:35:56.000Z</time>
      </trkpt>
      <trkpt lat="47.17286" lon="-1.8705">
        <ele>94</ele>
        <time>2020-12-29T12:35:58.000Z</time>
      </trkpt>
      <trkpt lat="47.1729" lon="-1.87063">
        <ele>94</ele>
        <time>2020-12-29T12:36:00.000Z</time>
      </trkpt>
      <trkpt lat="47.17294" lon="-1.87075">
        <ele>94</ele>
        <time>2020-12-29T12:36:02.000Z</time>
      </trkpt>
      <trkpt lat="47.17298" lon="-1.87087">
        <ele>94</ele>
        <time>2020-12-29T12:36:04.000Z</time>
      </trkpt>
      <trkpt lat="47.17303" lon="-1.87103">
        <ele>94</ele>
        <time>2020-12-29T12:36:07.000Z</time>
      </trkpt>
      <trkpt lat="47.17308" lon="-1.87116">
        <ele>94</ele>
        <time>2020-12-29T12:36:10.000Z</time>
      </trkpt>
      <trkpt lat="47.17314" lon="-1.87133">
        <ele>95</ele>
        <time>2020-12-29T12:36:13.000Z</time>
      </trkpt>
      <trkpt lat="47.17319" lon="-1.87145">
        <ele>96</ele>
        <time>2020-12-29T12:36:15.000Z</time>
      </trkpt>
      <trkpt lat="47.17322" lon="-1.87158">
        <ele>95</ele>
        <time>2020-12-29T12:36:17.000Z</time>
      </trkpt>
      <trkpt lat="47.17326" lon="-1.87171">
        <ele>96</ele>
        <time>2020-12-29T12:36:19.000Z</time>
      </trkpt>
      <trkpt lat="47.17329" lon="-1.87184">
        <ele>96</ele>
        <time>2020-12-29T12:36:21.000Z</time>
      </trkpt>
      <trkpt lat="47.17332" lon="-1.87198">
        <ele>95</ele>
        <time>2020-12-29T12:36:23.000Z</time>
      </trkpt>
      <trkpt lat="47.17335" lon="-1.87211">
        <ele>96</ele>
        <time>2020-12-29T12:36:25.000Z</time>
      </trkpt>
      <trkpt lat="47.17337" lon="-1.87224">
        <ele>96</ele>
        <time>2020-12-29T12:36:27.000Z</time>
      </trkpt>
      <trkpt lat="47.17339" lon="-1.87238">
        <ele>96</ele>
        <time>2020-12-29T12:36:29.000Z</time>
      </trkpt>
      <trkpt lat="47.17341" lon="-1.87257">
        <ele>96</ele>
        <time>2020-12-29T12:36:32.000Z</time>
      </trkpt>
      <trkpt lat="47.17342" lon="-1.87277">
        <ele>96</ele>
        <time>2020-12-29T12:36:35.000Z</time>
      </trkpt>
      <trkpt lat="47.17343" lon="-1.8729">
        <ele>96</ele>
        <time>2020-12-29T12:36:37.000Z</time>
      </trkpt>
      <trkpt lat="47.17344" lon="-1.87304">
        <ele>97</ele>
        <time>2020-12-29T12:36:39.000Z</time>
      </trkpt>
      <trkpt lat="47.17345" lon="-1.87318">
        <ele>97</ele>
        <time>2020-12-29T12:36:41.000Z</time>
      </trkpt>
      <trkpt lat="47.17346" lon="-1.87331">
        <ele>97</ele>
        <time>2020-12-29T12:36:43.000Z</time>
      </trkpt>
      <trkpt lat="47.17347" lon="-1.87345">
        <ele>97</ele>
        <time>2020-12-29T12:36:45.000Z</time>
      </trkpt>
      <trkpt lat="47.17348" lon="-1.87365">
        <ele>98</ele>
        <time>2020-12-29T12:36:48.000Z</time>
      </trkpt>
      <trkpt lat="47.17349" lon="-1.87379">
        <ele>98</ele>
        <time>2020-12-29T12:36:50.000Z</time>
      </trkpt>
      <trkpt lat="47.1735" lon="-1.87392">
        <ele>99</ele>
        <time>2020-12-29T12:36:52.000Z</time>
      </trkpt>
      <trkpt lat="47.17351" lon="-1.87412">
        <ele>99</ele>
        <time>2020-12-29T12:36:55.000Z</time>
      </trkpt>
      <trkpt lat="47.17352" lon="-1.87426">
        <ele>99</ele>
        <time>2020-12-29T12:36:57.000Z</time>
      </trkpt>
      <trkpt lat="47.17353" lon="-1.8744">
        <ele>99</ele>
        <time>2020-12-29T12:36:59.000Z</time>
      </trkpt>
      <trkpt lat="47.17354" lon="-1.87453">
        <ele>99</ele>
        <time>2020-12-29T12:37:01.000Z</time>
      </trkpt>
      <trkpt lat="47.17355" lon="-1.87467">
        <ele>99</ele>
        <time>2020-12-29T12:37:03.000Z</time>
      </trkpt>
      <trkpt lat="47.17356" lon="-1.8748">
        <ele>99</ele>
        <time>2020-12-29T12:37:05.000Z</time>
      </trkpt>
      <trkpt lat="47.17357" lon="-1.87493">
        <ele>100</ele>
        <time>2020-12-29T12:37:07.000Z</time>
      </trkpt>
      <trkpt lat="47.17358" lon="-1.87514">
        <ele>100</ele>
        <time>2020-12-29T12:37:10.000Z</time>
      </trkpt>
      <trkpt lat="47.17359" lon="-1.87527">
        <ele>100</ele>
        <time>2020-12-29T12:37:12.000Z</time>
      </trkpt>
      <trkpt lat="47.17359" lon="-1.87541">
        <ele>100</ele>
        <time>2020-12-29T12:37:14.000Z</time>
      </trkpt>
      <trkpt lat="47.1736" lon="-1.87554">
        <ele>100</ele>
        <time>2020-12-29T12:37:16.000Z</time>
      </trkpt>
      <trkpt lat="47.17361" lon="-1.87568">
        <ele>100</ele>
        <time>2020-12-29T12:37:18.000Z</time>
      </trkpt>
      <trkpt lat="47.17362" lon="-1.87581">
        <ele>100</ele>
        <time>2020-12-29T12:37:20.000Z</time>
      </trkpt>
      <trkpt lat="47.17363" lon="-1.87595">
        <ele>100</ele>
        <time>2020-12-29T12:37:22.000Z</time>
      </trkpt>
      <trkpt lat="47.17364" lon="-1.87608">
        <ele>101</ele>
        <time>2020-12-29T12:37:24.000Z</time>
      </trkpt>
      <trkpt lat="47.17365" lon="-1.87622">
        <ele>101</ele>
        <time>2020-12-29T12:37:26.000Z</time>
      </trkpt>
      <trkpt lat="47.17365" lon="-1.87636">
        <ele>101</ele>
        <time>2020-12-29T12:37:28.000Z</time>
      </trkpt>
      <trkpt lat="47.17366" lon="-1.87649">
        <ele>101</ele>
        <time>2020-12-29T12:37:30.000Z</time>
      </trkpt>
      <trkpt lat="47.17367" lon="-1.87663">
        <ele>101</ele>
        <time>2020-12-29T12:37:32.000Z</time>
      </trkpt>
      <trkpt lat="47.17368" lon="-1.87677">
        <ele>102</ele>
        <time>2020-12-29T12:37:34.000Z</time>
      </trkpt>
      <trkpt lat="47.17369" lon="-1.87691">
        <ele>101</ele>
        <time>2020-12-29T12:37:36.000Z</time>
      </trkpt>
      <trkpt lat="47.17371" lon="-1.87705">
        <ele>102</ele>
        <time>2020-12-29T12:37:38.000Z</time>
      </trkpt>
      <trkpt lat="47.17372" lon="-1.87718">
        <ele>102</ele>
        <time>2020-12-29T12:37:40.000Z</time>
      </trkpt>
      <trkpt lat="47.17374" lon="-1.87731">
        <ele>102</ele>
        <time>2020-12-29T12:37:42.000Z</time>
      </trkpt>
      <trkpt lat="47.17376" lon="-1.87744">
        <ele>102</ele>
        <time>2020-12-29T12:37:44.000Z</time>
      </trkpt>
      <trkpt lat="47.17377" lon="-1.87758">
        <ele>103</ele>
        <time>2020-12-29T12:37:46.000Z</time>
      </trkpt>
      <trkpt lat="47.17379" lon="-1.87771">
        <ele>103</ele>
        <time>2020-12-29T12:37:48.000Z</time>
      </trkpt>
      <trkpt lat="47.1738" lon="-1.87784">
        <ele>103</ele>
        <time>2020-12-29T12:37:50.000Z</time>
      </trkpt>
      <trkpt lat="47.17384" lon="-1.87803">
        <ele>103</ele>
        <time>2020-12-29T12:37:53.000Z</time>
      </trkpt>
      <trkpt lat="47.17389" lon="-1.8782">
        <ele>102</ele>
        <time>2020-12-29T12:37:56.000Z</time>
      </trkpt>
      <trkpt lat="47.17394" lon="-1.87838">
        <ele>103</ele>
        <time>2020-12-29T12:37:59.000Z</time>
      </trkpt>
      <trkpt lat="47.17399" lon="-1.8785">
        <ele>103</ele>
        <time>2020-12-29T12:38:01.000Z</time>
      </trkpt>
      <trkpt lat="47.17403" lon="-1.87863">
        <ele>104</ele>
        <time>2020-12-29T12:38:03.000Z</time>
      </trkpt>
      <trkpt lat="47.17406" lon="-1.87879">
        <ele>105</ele>
        <time>2020-12-29T12:38:05.000Z</time>
      </trkpt>
      <trkpt lat="47.17408" lon="-1.87893">
        <ele>105</ele>
        <time>2020-12-29T12:38:07.000Z</time>
      </trkpt>
      <trkpt lat="47.17408" lon="-1.87908">
        <ele>105</ele>
        <time>2020-12-29T12:38:09.000Z</time>
      </trkpt>
      <trkpt lat="47.17409" lon="-1.87928">
        <ele>105</ele>
        <time>2020-12-29T12:38:12.000Z</time>
      </trkpt>
      <trkpt lat="47.17411" lon="-1.87941">
        <ele>106</ele>
        <time>2020-12-29T12:38:14.000Z</time>
      </trkpt>
      <trkpt lat="47.17412" lon="-1.87956">
        <ele>107</ele>
        <time>2020-12-29T12:38:16.000Z</time>
      </trkpt>
      <trkpt lat="47.17413" lon="-1.87969">
        <ele>107</ele>
        <time>2020-12-29T12:38:18.000Z</time>
      </trkpt>
      <trkpt lat="47.17414" lon="-1.87982">
        <ele>107</ele>
        <time>2020-12-29T12:38:20.000Z</time>
      </trkpt>
      <trkpt lat="47.17415" lon="-1.88003">
        <ele>108</ele>
        <time>2020-12-29T12:38:23.000Z</time>
      </trkpt>
      <trkpt lat="47.17417" lon="-1.88022">
        <ele>108</ele>
        <time>2020-12-29T12:38:26.000Z</time>
      </trkpt>
      <trkpt lat="47.17418" lon="-1.88039">
        <ele>109</ele>
        <time>2020-12-29T12:38:29.000Z</time>
      </trkpt>
      <trkpt lat="47.17417" lon="-1.88056">
        <ele>111</ele>
        <time>2020-12-29T12:38:32.000Z</time>
      </trkpt>
      <trkpt lat="47.1741" lon="-1.88066">
        <ele>111</ele>
        <time>2020-12-29T12:38:34.000Z</time>
      </trkpt>
      <trkpt lat="47.17401" lon="-1.88073">
        <ele>110</ele>
        <time>2020-12-29T12:38:36.000Z</time>
      </trkpt>
      <trkpt lat="47.17392" lon="-1.88079">
        <ele>111</ele>
        <time>2020-12-29T12:38:38.000Z</time>
      </trkpt>
      <trkpt lat="47.17383" lon="-1.88085">
        <ele>110</ele>
        <time>2020-12-29T12:38:40.000Z</time>
      </trkpt>
      <trkpt lat="47.17374" lon="-1.88091">
        <ele>110</ele>
        <time>2020-12-29T12:38:42.000Z</time>
      </trkpt>
      <trkpt lat="47.17365" lon="-1.88097">
        <ele>109</ele>
        <time>2020-12-29T12:38:44.000Z</time>
      </trkpt>
      <trkpt lat="47.17356" lon="-1.88104">
        <ele>109</ele>
        <time>2020-12-29T12:38:46.000Z</time>
      </trkpt>
      <trkpt lat="47.17348" lon="-1.88115">
        <ele>109</ele>
        <time>2020-12-29T12:38:48.000Z</time>
      </trkpt>
      <trkpt lat="47.17343" lon="-1.88128">
        <ele>108</ele>
        <time>2020-12-29T12:38:50.000Z</time>
      </trkpt>
      <trkpt lat="47.17342" lon="-1.88144">
        <ele>107</ele>
        <time>2020-12-29T12:38:52.000Z</time>
      </trkpt>
      <trkpt lat="47.17345" lon="-1.88159">
        <ele>107</ele>
        <time>2020-12-29T12:38:54.000Z</time>
      </trkpt>
      <trkpt lat="47.17349" lon="-1.88173">
        <ele>107</ele>
        <time>2020-12-29T12:38:56.000Z</time>
      </trkpt>
      <trkpt lat="47.17354" lon="-1.88188">
        <ele>107</ele>
        <time>2020-12-29T12:38:58.000Z</time>
      </trkpt>
      <trkpt lat="47.17358" lon="-1.88202">
        <ele>106</ele>
        <time>2020-12-29T12:39:00.000Z</time>
      </trkpt>
      <trkpt lat="47.17362" lon="-1.88217">
        <ele>106</ele>
        <time>2020-12-29T12:39:02.000Z</time>
      </trkpt>
      <trkpt lat="47.17365" lon="-1.88234">
        <ele>106</ele>
        <time>2020-12-29T12:39:04.000Z</time>
      </trkpt>
      <trkpt lat="47.17367" lon="-1.8825">
        <ele>105</ele>
        <time>2020-12-29T12:39:06.000Z</time>
      </trkpt>
      <trkpt lat="47.17367" lon="-1.88267">
        <ele>105</ele>
        <time>2020-12-29T12:39:08.000Z</time>
      </trkpt>
      <trkpt lat="47.17368" lon="-1.88283">
        <ele>105</ele>
        <time>2020-12-29T12:39:10.000Z</time>
      </trkpt>
      <trkpt lat="47.17369" lon="-1.88299">
        <ele>105</ele>
        <time>2020-12-29T12:39:12.000Z</time>
      </trkpt>
      <trkpt lat="47.1737" lon="-1.88315">
        <ele>105</ele>
        <time>2020-12-29T12:39:14.000Z</time>
      </trkpt>
      <trkpt lat="47.17371" lon="-1.88331">
        <ele>105</ele>
        <time>2020-12-29T12:39:16.000Z</time>
      </trkpt>
      <trkpt lat="47.17372" lon="-1.88347">
        <ele>105</ele>
        <time>2020-12-29T12:39:18.000Z</time>
      </trkpt>
      <trkpt lat="47.17373" lon="-1.88363">
        <ele>105</ele>
        <time>2020-12-29T12:39:20.000Z</time>
      </trkpt>
      <trkpt lat="47.17374" lon="-1.88379">
        <ele>105</ele>
        <time>2020-12-29T12:39:22.000Z</time>
      </trkpt>
      <trkpt lat="47.17375" lon="-1.88394">
        <ele>105</ele>
        <time>2020-12-29T12:39:24.000Z</time>
      </trkpt>
      <trkpt lat="47.17376" lon="-1.88409">
        <ele>105</ele>
        <time>2020-12-29T12:39:26.000Z</time>
      </trkpt>
      <trkpt lat="47.17377" lon="-1.88424">
        <ele>106</ele>
        <time>2020-12-29T12:39:28.000Z</time>
      </trkpt>
      <trkpt lat="47.17378" lon="-1.88438">
        <ele>106</ele>
        <time>2020-12-29T12:39:30.000Z</time>
      </trkpt>
      <trkpt lat="47.17378" lon="-1.88452">
        <ele>106</ele>
        <time>2020-12-29T12:39:32.000Z</time>
      </trkpt>
      <trkpt lat="47.17379" lon="-1.88467">
        <ele>106</ele>
        <time>2020-12-29T12:39:34.000Z</time>
      </trkpt>
      <trkpt lat="47.1738" lon="-1.88482">
        <ele>106</ele>
        <time>2020-12-29T12:39:36.000Z</time>
      </trkpt>
      <trkpt lat="47.1738" lon="-1.88495">
        <ele>106</ele>
        <time>2020-12-29T12:39:38.000Z</time>
      </trkpt>
      <trkpt lat="47.17381" lon="-1.88511">
        <ele>105</ele>
        <time>2020-12-29T12:39:40.000Z</time>
      </trkpt>
      <trkpt lat="47.17382" lon="-1.88526">
        <ele>105</ele>
        <time>2020-12-29T12:39:42.000Z</time>
      </trkpt>
      <trkpt lat="47.17383" lon="-1.88541">
        <ele>105</ele>
        <time>2020-12-29T12:39:44.000Z</time>
      </trkpt>
      <trkpt lat="47.17384" lon="-1.88556">
        <ele>106</ele>
        <time>2020-12-29T12:39:46.000Z</time>
      </trkpt>
      <trkpt lat="47.17384" lon="-1.88571">
        <ele>106</ele>
        <time>2020-12-29T12:39:48.000Z</time>
      </trkpt>
      <trkpt lat="47.17385" lon="-1.88586">
        <ele>106</ele>
        <time>2020-12-29T12:39:50.000Z</time>
      </trkpt>
      <trkpt lat="47.17386" lon="-1.88601">
        <ele>106</ele>
        <time>2020-12-29T12:39:52.000Z</time>
      </trkpt>
      <trkpt lat="47.17387" lon="-1.88615">
        <ele>106</ele>
        <time>2020-12-29T12:39:54.000Z</time>
      </trkpt>
      <trkpt lat="47.17388" lon="-1.88631">
        <ele>106</ele>
        <time>2020-12-29T12:39:56.000Z</time>
      </trkpt>
      <trkpt lat="47.17389" lon="-1.88646">
        <ele>106</ele>
        <time>2020-12-29T12:39:58.000Z</time>
      </trkpt>
      <trkpt lat="47.1739" lon="-1.8866">
        <ele>106</ele>
        <time>2020-12-29T12:40:00.000Z</time>
      </trkpt>
      <trkpt lat="47.1739" lon="-1.88675">
        <ele>106</ele>
        <time>2020-12-29T12:40:02.000Z</time>
      </trkpt>
      <trkpt lat="47.17391" lon="-1.8869">
        <ele>106</ele>
        <time>2020-12-29T12:40:04.000Z</time>
      </trkpt>
      <trkpt lat="47.17392" lon="-1.88706">
        <ele>106</ele>
        <time>2020-12-29T12:40:06.000Z</time>
      </trkpt>
      <trkpt lat="47.17393" lon="-1.88721">
        <ele>106</ele>
        <time>2020-12-29T12:40:08.000Z</time>
      </trkpt>
      <trkpt lat="47.17394" lon="-1.88736">
        <ele>106</ele>
        <time>2020-12-29T12:40:10.000Z</time>
      </trkpt>
      <trkpt lat="47.17394" lon="-1.88751">
        <ele>105</ele>
        <time>2020-12-29T12:40:12.000Z</time>
      </trkpt>
      <trkpt lat="47.17395" lon="-1.88766">
        <ele>106</ele>
        <time>2020-12-29T12:40:14.000Z</time>
      </trkpt>
      <trkpt lat="47.17396" lon="-1.8878">
        <ele>105</ele>
        <time>2020-12-29T12:40:16.000Z</time>
      </trkpt>
      <trkpt lat="47.17397" lon="-1.88795">
        <ele>106</ele>
        <time>2020-12-29T12:40:18.000Z</time>
      </trkpt>
      <trkpt lat="47.17399" lon="-1.8881">
        <ele>105</ele>
        <time>2020-12-29T12:40:20.000Z</time>
      </trkpt>
      <trkpt lat="47.17401" lon="-1.88825">
        <ele>105</ele>
        <time>2020-12-29T12:40:22.000Z</time>
      </trkpt>
      <trkpt lat="47.17405" lon="-1.8884">
        <ele>105</ele>
        <time>2020-12-29T12:40:24.000Z</time>
      </trkpt>
      <trkpt lat="47.17407" lon="-1.88855">
        <ele>105</ele>
        <time>2020-12-29T12:40:26.000Z</time>
      </trkpt>
      <trkpt lat="47.17411" lon="-1.8887">
        <ele>105</ele>
        <time>2020-12-29T12:40:28.000Z</time>
      </trkpt>
      <trkpt lat="47.17415" lon="-1.88884">
        <ele>105</ele>
        <time>2020-12-29T12:40:30.000Z</time>
      </trkpt>
      <trkpt lat="47.17418" lon="-1.88898">
        <ele>105</ele>
        <time>2020-12-29T12:40:32.000Z</time>
      </trkpt>
      <trkpt lat="47.17421" lon="-1.88912">
        <ele>105</ele>
        <time>2020-12-29T12:40:34.000Z</time>
      </trkpt>
      <trkpt lat="47.17424" lon="-1.88926">
        <ele>105</ele>
        <time>2020-12-29T12:40:36.000Z</time>
      </trkpt>
      <trkpt lat="47.17427" lon="-1.8894">
        <ele>105</ele>
        <time>2020-12-29T12:40:38.000Z</time>
      </trkpt>
      <trkpt lat="47.1743" lon="-1.88955">
        <ele>105</ele>
        <time>2020-12-29T12:40:40.000Z</time>
      </trkpt>
      <trkpt lat="47.17433" lon="-1.88969">
        <ele>106</ele>
        <time>2020-12-29T12:40:42.000Z</time>
      </trkpt>
      <trkpt lat="47.17436" lon="-1.88984">
        <ele>106</ele>
        <time>2020-12-29T12:40:44.000Z</time>
      </trkpt>
      <trkpt lat="47.1744" lon="-1.88999">
        <ele>106</ele>
        <time>2020-12-29T12:40:46.000Z</time>
      </trkpt>
      <trkpt lat="47.17443" lon="-1.89013">
        <ele>105</ele>
        <time>2020-12-29T12:40:48.000Z</time>
      </trkpt>
      <trkpt lat="47.17446" lon="-1.89027">
        <ele>105</ele>
        <time>2020-12-29T12:40:50.000Z</time>
      </trkpt>
      <trkpt lat="47.17449" lon="-1.89042">
        <ele>105</ele>
        <time>2020-12-29T12:40:52.000Z</time>
      </trkpt>
      <trkpt lat="47.17452" lon="-1.89056">
        <ele>105</ele>
        <time>2020-12-29T12:40:54.000Z</time>
      </trkpt>
      <trkpt lat="47.17455" lon="-1.89071">
        <ele>106</ele>
        <time>2020-12-29T12:40:56.000Z</time>
      </trkpt>
      <trkpt lat="47.17458" lon="-1.89084">
        <ele>106</ele>
        <time>2020-12-29T12:40:58.000Z</time>
      </trkpt>
      <trkpt lat="47.17462" lon="-1.89098">
        <ele>106</ele>
        <time>2020-12-29T12:41:00.000Z</time>
      </trkpt>
      <trkpt lat="47.17464" lon="-1.89113">
        <ele>107</ele>
        <time>2020-12-29T12:41:02.000Z</time>
      </trkpt>
      <trkpt lat="47.17467" lon="-1.89128">
        <ele>107</ele>
        <time>2020-12-29T12:41:04.000Z</time>
      </trkpt>
      <trkpt lat="47.17471" lon="-1.89142">
        <ele>107</ele>
        <time>2020-12-29T12:41:06.000Z</time>
      </trkpt>
      <trkpt lat="47.17473" lon="-1.89157">
        <ele>107</ele>
        <time>2020-12-29T12:41:08.000Z</time>
      </trkpt>
      <trkpt lat="47.17476" lon="-1.89171">
        <ele>107</ele>
        <time>2020-12-29T12:41:10.000Z</time>
      </trkpt>
      <trkpt lat="47.17478" lon="-1.89186">
        <ele>106</ele>
        <time>2020-12-29T12:41:12.000Z</time>
      </trkpt>
      <trkpt lat="47.1748" lon="-1.89202">
        <ele>107</ele>
        <time>2020-12-29T12:41:14.000Z</time>
      </trkpt>
      <trkpt lat="47.1748" lon="-1.89218">
        <ele>107</ele>
        <time>2020-12-29T12:41:16.000Z</time>
      </trkpt>
      <trkpt lat="47.1748" lon="-1.89234">
        <ele>107</ele>
        <time>2020-12-29T12:41:18.000Z</time>
      </trkpt>
      <trkpt lat="47.17479" lon="-1.8925">
        <ele>107</ele>
        <time>2020-12-29T12:41:20.000Z</time>
      </trkpt>
      <trkpt lat="47.17478" lon="-1.89266">
        <ele>107</ele>
        <time>2020-12-29T12:41:22.000Z</time>
      </trkpt>
      <trkpt lat="47.17476" lon="-1.89282">
        <ele>107</ele>
        <time>2020-12-29T12:41:24.000Z</time>
      </trkpt>
      <trkpt lat="47.17475" lon="-1.89298">
        <ele>107</ele>
        <time>2020-12-29T12:41:26.000Z</time>
      </trkpt>
      <trkpt lat="47.17473" lon="-1.89314">
        <ele>106</ele>
        <time>2020-12-29T12:41:28.000Z</time>
      </trkpt>
      <trkpt lat="47.17473" lon="-1.8933">
        <ele>106</ele>
        <time>2020-12-29T12:41:30.000Z</time>
      </trkpt>
      <trkpt lat="47.17472" lon="-1.89345">
        <ele>106</ele>
        <time>2020-12-29T12:41:32.000Z</time>
      </trkpt>
      <trkpt lat="47.17472" lon="-1.8936">
        <ele>107</ele>
        <time>2020-12-29T12:41:34.000Z</time>
      </trkpt>
      <trkpt lat="47.17473" lon="-1.89375">
        <ele>107</ele>
        <time>2020-12-29T12:41:36.000Z</time>
      </trkpt>
      <trkpt lat="47.17473" lon="-1.8939">
        <ele>107</ele>
        <time>2020-12-29T12:41:38.000Z</time>
      </trkpt>
      <trkpt lat="47.17475" lon="-1.89405">
        <ele>107</ele>
        <time>2020-12-29T12:41:40.000Z</time>
      </trkpt>
      <trkpt lat="47.17477" lon="-1.8942">
        <ele>107</ele>
        <time>2020-12-29T12:41:42.000Z</time>
      </trkpt>
      <trkpt lat="47.17478" lon="-1.89436">
        <ele>107</ele>
        <time>2020-12-29T12:41:44.000Z</time>
      </trkpt>
      <trkpt lat="47.17479" lon="-1.89453">
        <ele>107</ele>
        <time>2020-12-29T12:41:46.000Z</time>
      </trkpt>
      <trkpt lat="47.1748" lon="-1.8947">
        <ele>107</ele>
        <time>2020-12-29T12:41:48.000Z</time>
      </trkpt>
      <trkpt lat="47.17482" lon="-1.89486">
        <ele>107</ele>
        <time>2020-12-29T12:41:50.000Z</time>
      </trkpt>
      <trkpt lat="47.17483" lon="-1.89502">
        <ele>107</ele>
        <time>2020-12-29T12:41:52.000Z</time>
      </trkpt>
      <trkpt lat="47.17485" lon="-1.89519">
        <ele>106</ele>
        <time>2020-12-29T12:41:54.000Z</time>
      </trkpt>
      <trkpt lat="47.17486" lon="-1.89535">
        <ele>107</ele>
        <time>2020-12-29T12:41:56.000Z</time>
      </trkpt>
      <trkpt lat="47.17487" lon="-1.89552">
        <ele>108</ele>
        <time>2020-12-29T12:41:58.000Z</time>
      </trkpt>
      <trkpt lat="47.17488" lon="-1.89569">
        <ele>108</ele>
        <time>2020-12-29T12:42:00.000Z</time>
      </trkpt>
      <trkpt lat="47.17487" lon="-1.89586">
        <ele>107</ele>
        <time>2020-12-29T12:42:02.000Z</time>
      </trkpt>
      <trkpt lat="47.17485" lon="-1.89604">
        <ele>108</ele>
        <time>2020-12-29T12:42:04.000Z</time>
      </trkpt>
      <trkpt lat="47.17482" lon="-1.8962">
        <ele>107</ele>
        <time>2020-12-29T12:42:06.000Z</time>
      </trkpt>
      <trkpt lat="47.17479" lon="-1.89636">
        <ele>107</ele>
        <time>2020-12-29T12:42:08.000Z</time>
      </trkpt>
      <trkpt lat="47.17476" lon="-1.89652">
        <ele>106</ele>
        <time>2020-12-29T12:42:10.000Z</time>
      </trkpt>
      <trkpt lat="47.17473" lon="-1.89667">
        <ele>107</ele>
        <time>2020-12-29T12:42:12.000Z</time>
      </trkpt>
      <trkpt lat="47.1747" lon="-1.89683">
        <ele>106</ele>
        <time>2020-12-29T12:42:14.000Z</time>
      </trkpt>
      <trkpt lat="47.17466" lon="-1.89699">
        <ele>107</ele>
        <time>2020-12-29T12:42:16.000Z</time>
      </trkpt>
      <trkpt lat="47.17463" lon="-1.89714">
        <ele>107</ele>
        <time>2020-12-29T12:42:18.000Z</time>
      </trkpt>
      <trkpt lat="47.1746" lon="-1.8973">
        <ele>107</ele>
        <time>2020-12-29T12:42:20.000Z</time>
      </trkpt>
      <trkpt lat="47.17456" lon="-1.89746">
        <ele>107</ele>
        <time>2020-12-29T12:42:22.000Z</time>
      </trkpt>
      <trkpt lat="47.17452" lon="-1.89761">
        <ele>107</ele>
        <time>2020-12-29T12:42:24.000Z</time>
      </trkpt>
      <trkpt lat="47.17449" lon="-1.89776">
        <ele>107</ele>
        <time>2020-12-29T12:42:26.000Z</time>
      </trkpt>
      <trkpt lat="47.17445" lon="-1.89792">
        <ele>107</ele>
        <time>2020-12-29T12:42:28.000Z</time>
      </trkpt>
      <trkpt lat="47.17442" lon="-1.89808">
        <ele>107</ele>
        <time>2020-12-29T12:42:30.000Z</time>
      </trkpt>
      <trkpt lat="47.17439" lon="-1.89823">
        <ele>108</ele>
        <time>2020-12-29T12:42:32.000Z</time>
      </trkpt>
      <trkpt lat="47.17435" lon="-1.8984">
        <ele>108</ele>
        <time>2020-12-29T12:42:34.000Z</time>
      </trkpt>
      <trkpt lat="47.17432" lon="-1.89856">
        <ele>108</ele>
        <time>2020-12-29T12:42:36.000Z</time>
      </trkpt>
      <trkpt lat="47.17429" lon="-1.89871">
        <ele>109</ele>
        <time>2020-12-29T12:42:38.000Z</time>
      </trkpt>
      <trkpt lat="47.17426" lon="-1.89887">
        <ele>110</ele>
        <time>2020-12-29T12:42:40.000Z</time>
      </trkpt>
      <trkpt lat="47.17422" lon="-1.89902">
        <ele>110</ele>
        <time>2020-12-29T12:42:42.000Z</time>
      </trkpt>
      <trkpt lat="47.17418" lon="-1.89918">
        <ele>109</ele>
        <time>2020-12-29T12:42:44.000Z</time>
      </trkpt>
      <trkpt lat="47.17415" lon="-1.89933">
        <ele>109</ele>
        <time>2020-12-29T12:42:46.000Z</time>
      </trkpt>
      <trkpt lat="47.1741" lon="-1.89951">
        <ele>108</ele>
        <time>2020-12-29T12:42:49.000Z</time>
      </trkpt>
      <trkpt lat="47.17407" lon="-1.89967">
        <ele>109</ele>
        <time>2020-12-29T12:42:52.000Z</time>
      </trkpt>
      <trkpt lat="47.17403" lon="-1.89981">
        <ele>108</ele>
        <time>2020-12-29T12:42:54.000Z</time>
      </trkpt>
      <trkpt lat="47.17399" lon="-1.89997">
        <ele>108</ele>
        <time>2020-12-29T12:42:56.000Z</time>
      </trkpt>
      <trkpt lat="47.17395" lon="-1.90013">
        <ele>109</ele>
        <time>2020-12-29T12:42:58.000Z</time>
      </trkpt>
      <trkpt lat="47.1739" lon="-1.90031">
        <ele>109</ele>
        <time>2020-12-29T12:43:00.000Z</time>
      </trkpt>
      <trkpt lat="47.17385" lon="-1.90048">
        <ele>109</ele>
        <time>2020-12-29T12:43:02.000Z</time>
      </trkpt>
      <trkpt lat="47.1738" lon="-1.90064">
        <ele>108</ele>
        <time>2020-12-29T12:43:04.000Z</time>
      </trkpt>
      <trkpt lat="47.17376" lon="-1.90081">
        <ele>108</ele>
        <time>2020-12-29T12:43:06.000Z</time>
      </trkpt>
      <trkpt lat="47.17372" lon="-1.90097">
        <ele>108</ele>
        <time>2020-12-29T12:43:08.000Z</time>
      </trkpt>
      <trkpt lat="47.17368" lon="-1.90113">
        <ele>109</ele>
        <time>2020-12-29T12:43:10.000Z</time>
      </trkpt>
      <trkpt lat="47.17363" lon="-1.90129">
        <ele>108</ele>
        <time>2020-12-29T12:43:12.000Z</time>
      </trkpt>
      <trkpt lat="47.17359" lon="-1.90145">
        <ele>108</ele>
        <time>2020-12-29T12:43:14.000Z</time>
      </trkpt>
      <trkpt lat="47.17354" lon="-1.90161">
        <ele>109</ele>
        <time>2020-12-29T12:43:16.000Z</time>
      </trkpt>
      <trkpt lat="47.17349" lon="-1.90177">
        <ele>109</ele>
        <time>2020-12-29T12:43:18.000Z</time>
      </trkpt>
      <trkpt lat="47.17345" lon="-1.90193">
        <ele>109</ele>
        <time>2020-12-29T12:43:20.000Z</time>
      </trkpt>
      <trkpt lat="47.17341" lon="-1.90208">
        <ele>110</ele>
        <time>2020-12-29T12:43:22.000Z</time>
      </trkpt>
      <trkpt lat="47.17338" lon="-1.90224">
        <ele>110</ele>
        <time>2020-12-29T12:43:24.000Z</time>
      </trkpt>
      <trkpt lat="47.17333" lon="-1.90241">
        <ele>109</ele>
        <time>2020-12-29T12:43:26.000Z</time>
      </trkpt>
      <trkpt lat="47.17328" lon="-1.90257">
        <ele>110</ele>
        <time>2020-12-29T12:43:28.000Z</time>
      </trkpt>
      <trkpt lat="47.17324" lon="-1.90273">
        <ele>109</ele>
        <time>2020-12-29T12:43:30.000Z</time>
      </trkpt>
      <trkpt lat="47.17319" lon="-1.90289">
        <ele>109</ele>
        <time>2020-12-29T12:43:32.000Z</time>
      </trkpt>
      <trkpt lat="47.17315" lon="-1.90305">
        <ele>109</ele>
        <time>2020-12-29T12:43:34.000Z</time>
      </trkpt>
      <trkpt lat="47.1731" lon="-1.90321">
        <ele>109</ele>
        <time>2020-12-29T12:43:36.000Z</time>
      </trkpt>
      <trkpt lat="47.17305" lon="-1.90337">
        <ele>109</ele>
        <time>2020-12-29T12:43:38.000Z</time>
      </trkpt>
      <trkpt lat="47.17301" lon="-1.90354">
        <ele>108</ele>
        <time>2020-12-29T12:43:40.000Z</time>
      </trkpt>
      <trkpt lat="47.17297" lon="-1.9037">
        <ele>108</ele>
        <time>2020-12-29T12:43:42.000Z</time>
      </trkpt>
      <trkpt lat="47.17293" lon="-1.90387">
        <ele>108</ele>
        <time>2020-12-29T12:43:44.000Z</time>
      </trkpt>
      <trkpt lat="47.1729" lon="-1.90404">
        <ele>107</ele>
        <time>2020-12-29T12:43:46.000Z</time>
      </trkpt>
      <trkpt lat="47.17287" lon="-1.90421">
        <ele>108</ele>
        <time>2020-12-29T12:43:48.000Z</time>
      </trkpt>
      <trkpt lat="47.17286" lon="-1.90439">
        <ele>108</ele>
        <time>2020-12-29T12:43:50.000Z</time>
      </trkpt>
      <trkpt lat="47.17284" lon="-1.90457">
        <ele>107</ele>
        <time>2020-12-29T12:43:52.000Z</time>
      </trkpt>
      <trkpt lat="47.17283" lon="-1.90474">
        <ele>107</ele>
        <time>2020-12-29T12:43:54.000Z</time>
      </trkpt>
      <trkpt lat="47.17282" lon="-1.90492">
        <ele>107</ele>
        <time>2020-12-29T12:43:56.000Z</time>
      </trkpt>
      <trkpt lat="47.17281" lon="-1.9051">
        <ele>107</ele>
        <time>2020-12-29T12:43:58.000Z</time>
      </trkpt>
      <trkpt lat="47.17279" lon="-1.90528">
        <ele>107</ele>
        <time>2020-12-29T12:44:00.000Z</time>
      </trkpt>
      <trkpt lat="47.17278" lon="-1.90547">
        <ele>107</ele>
        <time>2020-12-29T12:44:02.000Z</time>
      </trkpt>
      <trkpt lat="47.17277" lon="-1.90566">
        <ele>107</ele>
        <time>2020-12-29T12:44:04.000Z</time>
      </trkpt>
      <trkpt lat="47.17276" lon="-1.90585">
        <ele>107</ele>
        <time>2020-12-29T12:44:06.000Z</time>
      </trkpt>
      <trkpt lat="47.17275" lon="-1.90604">
        <ele>107</ele>
        <time>2020-12-29T12:44:08.000Z</time>
      </trkpt>
      <trkpt lat="47.17273" lon="-1.90623">
        <ele>106</ele>
        <time>2020-12-29T12:44:10.000Z</time>
      </trkpt>
      <trkpt lat="47.17272" lon="-1.90642">
        <ele>106</ele>
        <time>2020-12-29T12:44:12.000Z</time>
      </trkpt>
      <trkpt lat="47.17271" lon="-1.90662">
        <ele>106</ele>
        <time>2020-12-29T12:44:14.000Z</time>
      </trkpt>
      <trkpt lat="47.1727" lon="-1.90682">
        <ele>106</ele>
        <time>2020-12-29T12:44:16.000Z</time>
      </trkpt>
      <trkpt lat="47.17269" lon="-1.90701">
        <ele>106</ele>
        <time>2020-12-29T12:44:18.000Z</time>
      </trkpt>
      <trkpt lat="47.17268" lon="-1.90721">
        <ele>107</ele>
        <time>2020-12-29T12:44:20.000Z</time>
      </trkpt>
      <trkpt lat="47.17266" lon="-1.9075">
        <ele>106</ele>
        <time>2020-12-29T12:44:23.000Z</time>
      </trkpt>
      <trkpt lat="47.17265" lon="-1.90769">
        <ele>105</ele>
        <time>2020-12-29T12:44:25.000Z</time>
      </trkpt>
      <trkpt lat="47.17263" lon="-1.90787">
        <ele>105</ele>
        <time>2020-12-29T12:44:27.000Z</time>
      </trkpt>
      <trkpt lat="47.1726" lon="-1.90804">
        <ele>105</ele>
        <time>2020-12-29T12:44:29.000Z</time>
      </trkpt>
      <trkpt lat="47.17255" lon="-1.90822">
        <ele>105</ele>
        <time>2020-12-29T12:44:31.000Z</time>
      </trkpt>
      <trkpt lat="47.17249" lon="-1.90841">
        <ele>104</ele>
        <time>2020-12-29T12:44:33.000Z</time>
      </trkpt>
      <trkpt lat="47.17244" lon="-1.9086">
        <ele>104</ele>
        <time>2020-12-29T12:44:35.000Z</time>
      </trkpt>
      <trkpt lat="47.17238" lon="-1.90878">
        <ele>104</ele>
        <time>2020-12-29T12:44:37.000Z</time>
      </trkpt>
      <trkpt lat="47.17233" lon="-1.90895">
        <ele>104</ele>
        <time>2020-12-29T12:44:39.000Z</time>
      </trkpt>
      <trkpt lat="47.17227" lon="-1.90912">
        <ele>104</ele>
        <time>2020-12-29T12:44:41.000Z</time>
      </trkpt>
      <trkpt lat="47.17221" lon="-1.90931">
        <ele>104</ele>
        <time>2020-12-29T12:44:43.000Z</time>
      </trkpt>
      <trkpt lat="47.17215" lon="-1.90949">
        <ele>104</ele>
        <time>2020-12-29T12:44:45.000Z</time>
      </trkpt>
      <trkpt lat="47.17208" lon="-1.90966">
        <ele>104</ele>
        <time>2020-12-29T12:44:47.000Z</time>
      </trkpt>
      <trkpt lat="47.17198" lon="-1.9098">
        <ele>104</ele>
        <time>2020-12-29T12:44:49.000Z</time>
      </trkpt>
      <trkpt lat="47.17189" lon="-1.90995">
        <ele>104</ele>
        <time>2020-12-29T12:44:51.000Z</time>
      </trkpt>
      <trkpt lat="47.1718" lon="-1.91008">
        <ele>104</ele>
        <time>2020-12-29T12:44:53.000Z</time>
      </trkpt>
      <trkpt lat="47.17167" lon="-1.91028">
        <ele>103</ele>
        <time>2020-12-29T12:44:56.000Z</time>
      </trkpt>
      <trkpt lat="47.17158" lon="-1.91042">
        <ele>103</ele>
        <time>2020-12-29T12:44:58.000Z</time>
      </trkpt>
      <trkpt lat="47.17149" lon="-1.91055">
        <ele>103</ele>
        <time>2020-12-29T12:45:00.000Z</time>
      </trkpt>
      <trkpt lat="47.1714" lon="-1.91069">
        <ele>103</ele>
        <time>2020-12-29T12:45:02.000Z</time>
      </trkpt>
      <trkpt lat="47.17131" lon="-1.91082">
        <ele>103</ele>
        <time>2020-12-29T12:45:04.000Z</time>
      </trkpt>
      <trkpt lat="47.17122" lon="-1.91096">
        <ele>103</ele>
        <time>2020-12-29T12:45:06.000Z</time>
      </trkpt>
      <trkpt lat="47.17113" lon="-1.9111">
        <ele>103</ele>
        <time>2020-12-29T12:45:08.000Z</time>
      </trkpt>
      <trkpt lat="47.171" lon="-1.91131">
        <ele>103</ele>
        <time>2020-12-29T12:45:11.000Z</time>
      </trkpt>
      <trkpt lat="47.1709" lon="-1.91144">
        <ele>103</ele>
        <time>2020-12-29T12:45:13.000Z</time>
      </trkpt>
      <trkpt lat="47.17077" lon="-1.91164">
        <ele>104</ele>
        <time>2020-12-29T12:45:16.000Z</time>
      </trkpt>
      <trkpt lat="47.17064" lon="-1.91185">
        <ele>104</ele>
        <time>2020-12-29T12:45:19.000Z</time>
      </trkpt>
      <trkpt lat="47.17055" lon="-1.912">
        <ele>104</ele>
        <time>2020-12-29T12:45:21.000Z</time>
      </trkpt>
      <trkpt lat="47.17046" lon="-1.91213">
        <ele>104</ele>
        <time>2020-12-29T12:45:23.000Z</time>
      </trkpt>
      <trkpt lat="47.17036" lon="-1.91226">
        <ele>104</ele>
        <time>2020-12-29T12:45:25.000Z</time>
      </trkpt>
      <trkpt lat="47.17026" lon="-1.91238">
        <ele>104</ele>
        <time>2020-12-29T12:45:27.000Z</time>
      </trkpt>
      <trkpt lat="47.17016" lon="-1.91249">
        <ele>104</ele>
        <time>2020-12-29T12:45:29.000Z</time>
      </trkpt>
      <trkpt lat="47.17006" lon="-1.9126">
        <ele>104</ele>
        <time>2020-12-29T12:45:31.000Z</time>
      </trkpt>
      <trkpt lat="47.16989" lon="-1.91272">
        <ele>104</ele>
        <time>2020-12-29T12:45:34.000Z</time>
      </trkpt>
      <trkpt lat="47.16976" lon="-1.91279">
        <ele>103</ele>
        <time>2020-12-29T12:45:36.000Z</time>
      </trkpt>
      <trkpt lat="47.16956" lon="-1.9129">
        <ele>103</ele>
        <time>2020-12-29T12:45:39.000Z</time>
      </trkpt>
      <trkpt lat="47.16944" lon="-1.91296">
        <ele>103</ele>
        <time>2020-12-29T12:45:41.000Z</time>
      </trkpt>
      <trkpt lat="47.16932" lon="-1.91303">
        <ele>103</ele>
        <time>2020-12-29T12:45:43.000Z</time>
      </trkpt>
      <trkpt lat="47.1692" lon="-1.91309">
        <ele>103</ele>
        <time>2020-12-29T12:45:45.000Z</time>
      </trkpt>
      <trkpt lat="47.16908" lon="-1.91317">
        <ele>103</ele>
        <time>2020-12-29T12:45:47.000Z</time>
      </trkpt>
      <trkpt lat="47.16897" lon="-1.91325">
        <ele>102</ele>
        <time>2020-12-29T12:45:49.000Z</time>
      </trkpt>
      <trkpt lat="47.16882" lon="-1.91343">
        <ele>102</ele>
        <time>2020-12-29T12:45:52.000Z</time>
      </trkpt>
      <trkpt lat="47.16872" lon="-1.91365">
        <ele>102</ele>
        <time>2020-12-29T12:45:55.000Z</time>
      </trkpt>
      <trkpt lat="47.16866" lon="-1.9138">
        <ele>102</ele>
        <time>2020-12-29T12:45:57.000Z</time>
      </trkpt>
      <trkpt lat="47.16862" lon="-1.91396">
        <ele>102</ele>
        <time>2020-12-29T12:45:59.000Z</time>
      </trkpt>
      <trkpt lat="47.16855" lon="-1.9142">
        <ele>102</ele>
        <time>2020-12-29T12:46:02.000Z</time>
      </trkpt>
      <trkpt lat="47.16849" lon="-1.91436">
        <ele>102</ele>
        <time>2020-12-29T12:46:04.000Z</time>
      </trkpt>
      <trkpt lat="47.16845" lon="-1.91454">
        <ele>102</ele>
        <time>2020-12-29T12:46:06.000Z</time>
      </trkpt>
      <trkpt lat="47.1684" lon="-1.9147">
        <ele>102</ele>
        <time>2020-12-29T12:46:08.000Z</time>
      </trkpt>
      <trkpt lat="47.16835" lon="-1.91487">
        <ele>103</ele>
        <time>2020-12-29T12:46:10.000Z</time>
      </trkpt>
      <trkpt lat="47.16829" lon="-1.91504">
        <ele>103</ele>
        <time>2020-12-29T12:46:12.000Z</time>
      </trkpt>
      <trkpt lat="47.16824" lon="-1.91519">
        <ele>103</ele>
        <time>2020-12-29T12:46:14.000Z</time>
      </trkpt>
      <trkpt lat="47.16818" lon="-1.91534">
        <ele>103</ele>
        <time>2020-12-29T12:46:16.000Z</time>
      </trkpt>
      <trkpt lat="47.16808" lon="-1.91557">
        <ele>103</ele>
        <time>2020-12-29T12:46:19.000Z</time>
      </trkpt>
      <trkpt lat="47.16801" lon="-1.91571">
        <ele>103</ele>
        <time>2020-12-29T12:46:21.000Z</time>
      </trkpt>
      <trkpt lat="47.16793" lon="-1.91585">
        <ele>103</ele>
        <time>2020-12-29T12:46:23.000Z</time>
      </trkpt>
      <trkpt lat="47.16785" lon="-1.91599">
        <ele>103</ele>
        <time>2020-12-29T12:46:25.000Z</time>
      </trkpt>
      <trkpt lat="47.16777" lon="-1.91613">
        <ele>104</ele>
        <time>2020-12-29T12:46:27.000Z</time>
      </trkpt>
      <trkpt lat="47.1677" lon="-1.91626">
        <ele>104</ele>
        <time>2020-12-29T12:46:29.000Z</time>
      </trkpt>
      <trkpt lat="47.16762" lon="-1.9164">
        <ele>105</ele>
        <time>2020-12-29T12:46:31.000Z</time>
      </trkpt>
      <trkpt lat="47.16754" lon="-1.91655">
        <ele>105</ele>
        <time>2020-12-29T12:46:33.000Z</time>
      </trkpt>
      <trkpt lat="47.16745" lon="-1.91668">
        <ele>105</ele>
        <time>2020-12-29T12:46:35.000Z</time>
      </trkpt>
      <trkpt lat="47.16737" lon="-1.91683">
        <ele>105</ele>
        <time>2020-12-29T12:46:37.000Z</time>
      </trkpt>
      <trkpt lat="47.16729" lon="-1.91697">
        <ele>106</ele>
        <time>2020-12-29T12:46:39.000Z</time>
      </trkpt>
      <trkpt lat="47.16721" lon="-1.91711">
        <ele>106</ele>
        <time>2020-12-29T12:46:41.000Z</time>
      </trkpt>
      <trkpt lat="47.16712" lon="-1.91725">
        <ele>105</ele>
        <time>2020-12-29T12:46:43.000Z</time>
      </trkpt>
      <trkpt lat="47.16702" lon="-1.9174">
        <ele>104</ele>
        <time>2020-12-29T12:46:45.000Z</time>
      </trkpt>
      <trkpt lat="47.16694" lon="-1.91754">
        <ele>104</ele>
        <time>2020-12-29T12:46:47.000Z</time>
      </trkpt>
      <trkpt lat="47.16686" lon="-1.91769">
        <ele>104</ele>
        <time>2020-12-29T12:46:49.000Z</time>
      </trkpt>
      <trkpt lat="47.16678" lon="-1.91784">
        <ele>104</ele>
        <time>2020-12-29T12:46:51.000Z</time>
      </trkpt>
      <trkpt lat="47.1667" lon="-1.91799">
        <ele>104</ele>
        <time>2020-12-29T12:46:53.000Z</time>
      </trkpt>
      <trkpt lat="47.16663" lon="-1.91814">
        <ele>104</ele>
        <time>2020-12-29T12:46:55.000Z</time>
      </trkpt>
      <trkpt lat="47.16656" lon="-1.91829">
        <ele>104</ele>
        <time>2020-12-29T12:46:57.000Z</time>
      </trkpt>
      <trkpt lat="47.16648" lon="-1.91845">
        <ele>104</ele>
        <time>2020-12-29T12:46:59.000Z</time>
      </trkpt>
      <trkpt lat="47.16641" lon="-1.91862">
        <ele>104</ele>
        <time>2020-12-29T12:47:01.000Z</time>
      </trkpt>
      <trkpt lat="47.16634" lon="-1.91878">
        <ele>104</ele>
        <time>2020-12-29T12:47:03.000Z</time>
      </trkpt>
      <trkpt lat="47.16627" lon="-1.91894">
        <ele>104</ele>
        <time>2020-12-29T12:47:05.000Z</time>
      </trkpt>
      <trkpt lat="47.1662" lon="-1.9191">
        <ele>104</ele>
        <time>2020-12-29T12:47:07.000Z</time>
      </trkpt>
      <trkpt lat="47.16613" lon="-1.91926">
        <ele>104</ele>
        <time>2020-12-29T12:47:09.000Z</time>
      </trkpt>
      <trkpt lat="47.16606" lon="-1.91941">
        <ele>105</ele>
        <time>2020-12-29T12:47:11.000Z</time>
      </trkpt>
      <trkpt lat="47.16598" lon="-1.91956">
        <ele>104</ele>
        <time>2020-12-29T12:47:13.000Z</time>
      </trkpt>
      <trkpt lat="47.16591" lon="-1.91971">
        <ele>104</ele>
        <time>2020-12-29T12:47:15.000Z</time>
      </trkpt>
      <trkpt lat="47.16584" lon="-1.91987">
        <ele>104</ele>
        <time>2020-12-29T12:47:17.000Z</time>
      </trkpt>
      <trkpt lat="47.16577" lon="-1.92002">
        <ele>104</ele>
        <time>2020-12-29T12:47:19.000Z</time>
      </trkpt>
      <trkpt lat="47.1657" lon="-1.92018">
        <ele>104</ele>
        <time>2020-12-29T12:47:21.000Z</time>
      </trkpt>
      <trkpt lat="47.16563" lon="-1.92033">
        <ele>103</ele>
        <time>2020-12-29T12:47:23.000Z</time>
      </trkpt>
      <trkpt lat="47.16557" lon="-1.92049">
        <ele>103</ele>
        <time>2020-12-29T12:47:25.000Z</time>
      </trkpt>
      <trkpt lat="47.1655" lon="-1.92064">
        <ele>103</ele>
        <time>2020-12-29T12:47:27.000Z</time>
      </trkpt>
      <trkpt lat="47.16545" lon="-1.92081">
        <ele>103</ele>
        <time>2020-12-29T12:47:29.000Z</time>
      </trkpt>
      <trkpt lat="47.16539" lon="-1.92097">
        <ele>103</ele>
        <time>2020-12-29T12:47:31.000Z</time>
      </trkpt>
      <trkpt lat="47.16533" lon="-1.92114">
        <ele>103</ele>
        <time>2020-12-29T12:47:33.000Z</time>
      </trkpt>
      <trkpt lat="47.16528" lon="-1.92131">
        <ele>102</ele>
        <time>2020-12-29T12:47:35.000Z</time>
      </trkpt>
      <trkpt lat="47.16524" lon="-1.92149">
        <ele>103</ele>
        <time>2020-12-29T12:47:37.000Z</time>
      </trkpt>
      <trkpt lat="47.16521" lon="-1.92167">
        <ele>103</ele>
        <time>2020-12-29T12:47:39.000Z</time>
      </trkpt>
      <trkpt lat="47.1652" lon="-1.92185">
        <ele>102</ele>
        <time>2020-12-29T12:47:41.000Z</time>
      </trkpt>
      <trkpt lat="47.1652" lon="-1.92203">
        <ele>102</ele>
        <time>2020-12-29T12:47:43.000Z</time>
      </trkpt>
      <trkpt lat="47.16523" lon="-1.92222">
        <ele>102</ele>
        <time>2020-12-29T12:47:45.000Z</time>
      </trkpt>
      <trkpt lat="47.16527" lon="-1.9224">
        <ele>102</ele>
        <time>2020-12-29T12:47:47.000Z</time>
      </trkpt>
      <trkpt lat="47.1653" lon="-1.92259">
        <ele>102</ele>
        <time>2020-12-29T12:47:49.000Z</time>
      </trkpt>
      <trkpt lat="47.16534" lon="-1.92277">
        <ele>102</ele>
        <time>2020-12-29T12:47:51.000Z</time>
      </trkpt>
      <trkpt lat="47.16537" lon="-1.92295">
        <ele>101</ele>
        <time>2020-12-29T12:47:53.000Z</time>
      </trkpt>
      <trkpt lat="47.1654" lon="-1.92314">
        <ele>101</ele>
        <time>2020-12-29T12:47:55.000Z</time>
      </trkpt>
      <trkpt lat="47.16543" lon="-1.92332">
        <ele>101</ele>
        <time>2020-12-29T12:47:57.000Z</time>
      </trkpt>
      <trkpt lat="47.16546" lon="-1.92349">
        <ele>100</ele>
        <time>2020-12-29T12:47:59.000Z</time>
      </trkpt>
      <trkpt lat="47.16549" lon="-1.92367">
        <ele>99</ele>
        <time>2020-12-29T12:48:01.000Z</time>
      </trkpt>
      <trkpt lat="47.16553" lon="-1.92384">
        <ele>99</ele>
        <time>2020-12-29T12:48:03.000Z</time>
      </trkpt>
      <trkpt lat="47.16556" lon="-1.92401">
        <ele>98</ele>
        <time>2020-12-29T12:48:05.000Z</time>
      </trkpt>
      <trkpt lat="47.16559" lon="-1.9242">
        <ele>98</ele>
        <time>2020-12-29T12:48:07.000Z</time>
      </trkpt>
      <trkpt lat="47.16562" lon="-1.92448">
        <ele>98</ele>
        <time>2020-12-29T12:48:10.000Z</time>
      </trkpt>
      <trkpt lat="47.16562" lon="-1.92468">
        <ele>97</ele>
        <time>2020-12-29T12:48:12.000Z</time>
      </trkpt>
      <trkpt lat="47.16559" lon="-1.92488">
        <ele>98</ele>
        <time>2020-12-29T12:48:14.000Z</time>
      </trkpt>
      <trkpt lat="47.16554" lon="-1.92506">
        <ele>98</ele>
        <time>2020-12-29T12:48:16.000Z</time>
      </trkpt>
      <trkpt lat="47.16545" lon="-1.92523">
        <ele>98</ele>
        <time>2020-12-29T12:48:18.000Z</time>
      </trkpt>
      <trkpt lat="47.16537" lon="-1.92539">
        <ele>98</ele>
        <time>2020-12-29T12:48:20.000Z</time>
      </trkpt>
      <trkpt lat="47.16527" lon="-1.92554">
        <ele>98</ele>
        <time>2020-12-29T12:48:22.000Z</time>
      </trkpt>
      <trkpt lat="47.16516" lon="-1.92567">
        <ele>98</ele>
        <time>2020-12-29T12:48:24.000Z</time>
      </trkpt>
      <trkpt lat="47.16505" lon="-1.92579">
        <ele>98</ele>
        <time>2020-12-29T12:48:26.000Z</time>
      </trkpt>
      <trkpt lat="47.16494" lon="-1.92591">
        <ele>98</ele>
        <time>2020-12-29T12:48:28.000Z</time>
      </trkpt>
      <trkpt lat="47.16482" lon="-1.92602">
        <ele>98</ele>
        <time>2020-12-29T12:48:30.000Z</time>
      </trkpt>
      <trkpt lat="47.1647" lon="-1.92613">
        <ele>97</ele>
        <time>2020-12-29T12:48:32.000Z</time>
      </trkpt>
      <trkpt lat="47.16459" lon="-1.92623">
        <ele>96</ele>
        <time>2020-12-29T12:48:34.000Z</time>
      </trkpt>
      <trkpt lat="47.16447" lon="-1.92634">
        <ele>96</ele>
        <time>2020-12-29T12:48:36.000Z</time>
      </trkpt>
      <trkpt lat="47.16435" lon="-1.92646">
        <ele>96</ele>
        <time>2020-12-29T12:48:38.000Z</time>
      </trkpt>
      <trkpt lat="47.16424" lon="-1.92658">
        <ele>95</ele>
        <time>2020-12-29T12:48:40.000Z</time>
      </trkpt>
      <trkpt lat="47.16414" lon="-1.92671">
        <ele>94</ele>
        <time>2020-12-29T12:48:42.000Z</time>
      </trkpt>
      <trkpt lat="47.16404" lon="-1.92685">
        <ele>94</ele>
        <time>2020-12-29T12:48:44.000Z</time>
      </trkpt>
      <trkpt lat="47.16395" lon="-1.927">
        <ele>94</ele>
        <time>2020-12-29T12:48:46.000Z</time>
      </trkpt>
      <trkpt lat="47.16387" lon="-1.92715">
        <ele>94</ele>
        <time>2020-12-29T12:48:48.000Z</time>
      </trkpt>
      <trkpt lat="47.16377" lon="-1.9273">
        <ele>94</ele>
        <time>2020-12-29T12:48:50.000Z</time>
      </trkpt>
      <trkpt lat="47.16368" lon="-1.92745">
        <ele>94</ele>
        <time>2020-12-29T12:48:52.000Z</time>
      </trkpt>
      <trkpt lat="47.16359" lon="-1.92758">
        <ele>94</ele>
        <time>2020-12-29T12:48:54.000Z</time>
      </trkpt>
      <trkpt lat="47.1635" lon="-1.92772">
        <ele>94</ele>
        <time>2020-12-29T12:48:56.000Z</time>
      </trkpt>
      <trkpt lat="47.16341" lon="-1.92787">
        <ele>94</ele>
        <time>2020-12-29T12:48:58.000Z</time>
      </trkpt>
      <trkpt lat="47.16332" lon="-1.928">
        <ele>95</ele>
        <time>2020-12-29T12:49:00.000Z</time>
      </trkpt>
      <trkpt lat="47.16323" lon="-1.92814">
        <ele>95</ele>
        <time>2020-12-29T12:49:02.000Z</time>
      </trkpt>
      <trkpt lat="47.16313" lon="-1.92827">
        <ele>94</ele>
        <time>2020-12-29T12:49:04.000Z</time>
      </trkpt>
      <trkpt lat="47.16303" lon="-1.9284">
        <ele>94</ele>
        <time>2020-12-29T12:49:06.000Z</time>
      </trkpt>
      <trkpt lat="47.16292" lon="-1.92853">
        <ele>95</ele>
        <time>2020-12-29T12:49:08.000Z</time>
      </trkpt>
      <trkpt lat="47.16281" lon="-1.92865">
        <ele>95</ele>
        <time>2020-12-29T12:49:10.000Z</time>
      </trkpt>
      <trkpt lat="47.16269" lon="-1.92876">
        <ele>93</ele>
        <time>2020-12-29T12:49:12.000Z</time>
      </trkpt>
      <trkpt lat="47.16257" lon="-1.92887">
        <ele>92</ele>
        <time>2020-12-29T12:49:14.000Z</time>
      </trkpt>
      <trkpt lat="47.16245" lon="-1.92898">
        <ele>92</ele>
        <time>2020-12-29T12:49:16.000Z</time>
      </trkpt>
      <trkpt lat="47.16233" lon="-1.92909">
        <ele>91</ele>
        <time>2020-12-29T12:49:18.000Z</time>
      </trkpt>
      <trkpt lat="47.16222" lon="-1.9292">
        <ele>90</ele>
        <time>2020-12-29T12:49:20.000Z</time>
      </trkpt>
      <trkpt lat="47.16211" lon="-1.92931">
        <ele>89</ele>
        <time>2020-12-29T12:49:22.000Z</time>
      </trkpt>
      <trkpt lat="47.16199" lon="-1.92941">
        <ele>89</ele>
        <time>2020-12-29T12:49:24.000Z</time>
      </trkpt>
      <trkpt lat="47.16187" lon="-1.92952">
        <ele>88</ele>
        <time>2020-12-29T12:49:26.000Z</time>
      </trkpt>
      <trkpt lat="47.16176" lon="-1.92962">
        <ele>88</ele>
        <time>2020-12-29T12:49:28.000Z</time>
      </trkpt>
      <trkpt lat="47.16165" lon="-1.92971">
        <ele>87</ele>
        <time>2020-12-29T12:49:30.000Z</time>
      </trkpt>
      <trkpt lat="47.16153" lon="-1.9298">
        <ele>88</ele>
        <time>2020-12-29T12:49:32.000Z</time>
      </trkpt>
      <trkpt lat="47.16141" lon="-1.92987">
        <ele>88</ele>
        <time>2020-12-29T12:49:34.000Z</time>
      </trkpt>
      <trkpt lat="47.16129" lon="-1.92994">
        <ele>88</ele>
        <time>2020-12-29T12:49:36.000Z</time>
      </trkpt>
      <trkpt lat="47.16117" lon="-1.93001">
        <ele>88</ele>
        <time>2020-12-29T12:49:38.000Z</time>
      </trkpt>
      <trkpt lat="47.16106" lon="-1.93008">
        <ele>88</ele>
        <time>2020-12-29T12:49:40.000Z</time>
      </trkpt>
      <trkpt lat="47.16094" lon="-1.93014">
        <ele>88</ele>
        <time>2020-12-29T12:49:42.000Z</time>
      </trkpt>
      <trkpt lat="47.16082" lon="-1.93021">
        <ele>88</ele>
        <time>2020-12-29T12:49:44.000Z</time>
      </trkpt>
      <trkpt lat="47.16071" lon="-1.93028">
        <ele>88</ele>
        <time>2020-12-29T12:49:46.000Z</time>
      </trkpt>
      <trkpt lat="47.16059" lon="-1.93035">
        <ele>88</ele>
        <time>2020-12-29T12:49:48.000Z</time>
      </trkpt>
      <trkpt lat="47.16047" lon="-1.93042">
        <ele>87</ele>
        <time>2020-12-29T12:49:50.000Z</time>
      </trkpt>
      <trkpt lat="47.16033" lon="-1.93049">
        <ele>87</ele>
        <time>2020-12-29T12:49:52.000Z</time>
      </trkpt>
      <trkpt lat="47.16021" lon="-1.93056">
        <ele>86</ele>
        <time>2020-12-29T12:49:54.000Z</time>
      </trkpt>
      <trkpt lat="47.1601" lon="-1.93065">
        <ele>86</ele>
        <time>2020-12-29T12:49:56.000Z</time>
      </trkpt>
      <trkpt lat="47.16001" lon="-1.9308">
        <ele>86</ele>
        <time>2020-12-29T12:49:58.000Z</time>
      </trkpt>
      <trkpt lat="47.15994" lon="-1.93097">
        <ele>86</ele>
        <time>2020-12-29T12:50:00.000Z</time>
      </trkpt>
      <trkpt lat="47.15991" lon="-1.93115">
        <ele>86</ele>
        <time>2020-12-29T12:50:02.000Z</time>
      </trkpt>
      <trkpt lat="47.1599" lon="-1.93133">
        <ele>86</ele>
        <time>2020-12-29T12:50:04.000Z</time>
      </trkpt>
      <trkpt lat="47.15991" lon="-1.93151">
        <ele>87</ele>
        <time>2020-12-29T12:50:06.000Z</time>
      </trkpt>
      <trkpt lat="47.15993" lon="-1.93169">
        <ele>87</ele>
        <time>2020-12-29T12:50:08.000Z</time>
      </trkpt>
      <trkpt lat="47.15996" lon="-1.93186">
        <ele>87</ele>
        <time>2020-12-29T12:50:10.000Z</time>
      </trkpt>
      <trkpt lat="47.15998" lon="-1.93203">
        <ele>88</ele>
        <time>2020-12-29T12:50:12.000Z</time>
      </trkpt>
      <trkpt lat="47.15999" lon="-1.93221">
        <ele>89</ele>
        <time>2020-12-29T12:50:14.000Z</time>
      </trkpt>
      <trkpt lat="47.16002" lon="-1.93238">
        <ele>89</ele>
        <time>2020-12-29T12:50:16.000Z</time>
      </trkpt>
      <trkpt lat="47.16004" lon="-1.93253">
        <ele>89</ele>
        <time>2020-12-29T12:50:18.000Z</time>
      </trkpt>
      <trkpt lat="47.16005" lon="-1.93267">
        <ele>89</ele>
        <time>2020-12-29T12:50:20.000Z</time>
      </trkpt>
      <trkpt lat="47.16007" lon="-1.93282">
        <ele>89</ele>
        <time>2020-12-29T12:50:22.000Z</time>
      </trkpt>
      <trkpt lat="47.16009" lon="-1.93296">
        <ele>89</ele>
        <time>2020-12-29T12:50:24.000Z</time>
      </trkpt>
      <trkpt lat="47.1601" lon="-1.93311">
        <ele>89</ele>
        <time>2020-12-29T12:50:26.000Z</time>
      </trkpt>
      <trkpt lat="47.1601" lon="-1.93328">
        <ele>90</ele>
        <time>2020-12-29T12:50:28.000Z</time>
      </trkpt>
      <trkpt lat="47.16008" lon="-1.93344">
        <ele>90</ele>
        <time>2020-12-29T12:50:30.000Z</time>
      </trkpt>
      <trkpt lat="47.16007" lon="-1.93359">
        <ele>90</ele>
        <time>2020-12-29T12:50:32.000Z</time>
      </trkpt>
      <trkpt lat="47.16005" lon="-1.93375">
        <ele>90</ele>
        <time>2020-12-29T12:50:34.000Z</time>
      </trkpt>
      <trkpt lat="47.16001" lon="-1.9339">
        <ele>91</ele>
        <time>2020-12-29T12:50:36.000Z</time>
      </trkpt>
      <trkpt lat="47.15997" lon="-1.93405">
        <ele>92</ele>
        <time>2020-12-29T12:50:38.000Z</time>
      </trkpt>
      <trkpt lat="47.15992" lon="-1.93418">
        <ele>92</ele>
        <time>2020-12-29T12:50:40.000Z</time>
      </trkpt>
      <trkpt lat="47.15986" lon="-1.93432">
        <ele>92</ele>
        <time>2020-12-29T12:50:42.000Z</time>
      </trkpt>
      <trkpt lat="47.15981" lon="-1.93447">
        <ele>92</ele>
        <time>2020-12-29T12:50:44.000Z</time>
      </trkpt>
      <trkpt lat="47.15973" lon="-1.9346">
        <ele>92</ele>
        <time>2020-12-29T12:50:46.000Z</time>
      </trkpt>
      <trkpt lat="47.15964" lon="-1.93471">
        <ele>93</ele>
        <time>2020-12-29T12:50:48.000Z</time>
      </trkpt>
      <trkpt lat="47.15955" lon="-1.93482">
        <ele>93</ele>
        <time>2020-12-29T12:50:50.000Z</time>
      </trkpt>
      <trkpt lat="47.15947" lon="-1.93493">
        <ele>92</ele>
        <time>2020-12-29T12:50:52.000Z</time>
      </trkpt>
      <trkpt lat="47.15938" lon="-1.93504">
        <ele>93</ele>
        <time>2020-12-29T12:50:54.000Z</time>
      </trkpt>
      <trkpt lat="47.15929" lon="-1.93514">
        <ele>92</ele>
        <time>2020-12-29T12:50:56.000Z</time>
      </trkpt>
      <trkpt lat="47.1592" lon="-1.93524">
        <ele>93</ele>
        <time>2020-12-29T12:50:58.000Z</time>
      </trkpt>
      <trkpt lat="47.15911" lon="-1.93534">
        <ele>93</ele>
        <time>2020-12-29T12:51:00.000Z</time>
      </trkpt>
      <trkpt lat="47.159" lon="-1.9354">
        <ele>92</ele>
        <time>2020-12-29T12:51:02.000Z</time>
      </trkpt>
      <trkpt lat="47.15887" lon="-1.93544">
        <ele>92</ele>
        <time>2020-12-29T12:51:04.000Z</time>
      </trkpt>
      <trkpt lat="47.15875" lon="-1.93549">
        <ele>91</ele>
        <time>2020-12-29T12:51:06.000Z</time>
      </trkpt>
      <trkpt lat="47.15862" lon="-1.93553">
        <ele>92</ele>
        <time>2020-12-29T12:51:08.000Z</time>
      </trkpt>
      <trkpt lat="47.1585" lon="-1.93559">
        <ele>91</ele>
        <time>2020-12-29T12:51:10.000Z</time>
      </trkpt>
      <trkpt lat="47.15837" lon="-1.93565">
        <ele>91</ele>
        <time>2020-12-29T12:51:12.000Z</time>
      </trkpt>
      <trkpt lat="47.15824" lon="-1.93572">
        <ele>90</ele>
        <time>2020-12-29T12:51:14.000Z</time>
      </trkpt>
      <trkpt lat="47.1581" lon="-1.93579">
        <ele>90</ele>
        <time>2020-12-29T12:51:16.000Z</time>
      </trkpt>
      <trkpt lat="47.15797" lon="-1.93585">
        <ele>89</ele>
        <time>2020-12-29T12:51:18.000Z</time>
      </trkpt>
      <trkpt lat="47.15784" lon="-1.93592">
        <ele>89</ele>
        <time>2020-12-29T12:51:20.000Z</time>
      </trkpt>
      <trkpt lat="47.15771" lon="-1.93598">
        <ele>89</ele>
        <time>2020-12-29T12:51:22.000Z</time>
      </trkpt>
      <trkpt lat="47.15758" lon="-1.93605">
        <ele>89</ele>
        <time>2020-12-29T12:51:24.000Z</time>
      </trkpt>
      <trkpt lat="47.15745" lon="-1.93611">
        <ele>89</ele>
        <time>2020-12-29T12:51:26.000Z</time>
      </trkpt>
      <trkpt lat="47.15732" lon="-1.93617">
        <ele>88</ele>
        <time>2020-12-29T12:51:28.000Z</time>
      </trkpt>
      <trkpt lat="47.15719" lon="-1.93622">
        <ele>88</ele>
        <time>2020-12-29T12:51:30.000Z</time>
      </trkpt>
      <trkpt lat="47.15706" lon="-1.93629">
        <ele>87</ele>
        <time>2020-12-29T12:51:32.000Z</time>
      </trkpt>
      <trkpt lat="47.15694" lon="-1.93635">
        <ele>87</ele>
        <time>2020-12-29T12:51:34.000Z</time>
      </trkpt>
      <trkpt lat="47.15681" lon="-1.93641">
        <ele>87</ele>
        <time>2020-12-29T12:51:36.000Z</time>
      </trkpt>
      <trkpt lat="47.15669" lon="-1.93648">
        <ele>87</ele>
        <time>2020-12-29T12:51:38.000Z</time>
      </trkpt>
      <trkpt lat="47.15656" lon="-1.93654">
        <ele>87</ele>
        <time>2020-12-29T12:51:40.000Z</time>
      </trkpt>
      <trkpt lat="47.15643" lon="-1.9366">
        <ele>87</ele>
        <time>2020-12-29T12:51:42.000Z</time>
      </trkpt>
      <trkpt lat="47.15631" lon="-1.93667">
        <ele>87</ele>
        <time>2020-12-29T12:51:44.000Z</time>
      </trkpt>
      <trkpt lat="47.15619" lon="-1.93673">
        <ele>87</ele>
        <time>2020-12-29T12:51:46.000Z</time>
      </trkpt>
      <trkpt lat="47.15607" lon="-1.93679">
        <ele>87</ele>
        <time>2020-12-29T12:51:48.000Z</time>
      </trkpt>
      <trkpt lat="47.15594" lon="-1.93686">
        <ele>87</ele>
        <time>2020-12-29T12:51:50.000Z</time>
      </trkpt>
      <trkpt lat="47.15582" lon="-1.93691">
        <ele>87</ele>
        <time>2020-12-29T12:51:52.000Z</time>
      </trkpt>
      <trkpt lat="47.15569" lon="-1.93697">
        <ele>87</ele>
        <time>2020-12-29T12:51:54.000Z</time>
      </trkpt>
      <trkpt lat="47.15557" lon="-1.93702">
        <ele>86</ele>
        <time>2020-12-29T12:51:56.000Z</time>
      </trkpt>
      <trkpt lat="47.15544" lon="-1.93708">
        <ele>87</ele>
        <time>2020-12-29T12:51:58.000Z</time>
      </trkpt>
      <trkpt lat="47.15531" lon="-1.93713">
        <ele>87</ele>
        <time>2020-12-29T12:52:00.000Z</time>
      </trkpt>
      <trkpt lat="47.15518" lon="-1.93718">
        <ele>87</ele>
        <time>2020-12-29T12:52:02.000Z</time>
      </trkpt>
      <trkpt lat="47.15505" lon="-1.93723">
        <ele>87</ele>
        <time>2020-12-29T12:52:04.000Z</time>
      </trkpt>
      <trkpt lat="47.15492" lon="-1.93728">
        <ele>87</ele>
        <time>2020-12-29T12:52:06.000Z</time>
      </trkpt>
      <trkpt lat="47.15479" lon="-1.93732">
        <ele>86</ele>
        <time>2020-12-29T12:52:08.000Z</time>
      </trkpt>
      <trkpt lat="47.15466" lon="-1.93735">
        <ele>86</ele>
        <time>2020-12-29T12:52:10.000Z</time>
      </trkpt>
      <trkpt lat="47.15452" lon="-1.93739">
        <ele>86</ele>
        <time>2020-12-29T12:52:12.000Z</time>
      </trkpt>
      <trkpt lat="47.15439" lon="-1.93744">
        <ele>86</ele>
        <time>2020-12-29T12:52:14.000Z</time>
      </trkpt>
      <trkpt lat="47.15427" lon="-1.93747">
        <ele>86</ele>
        <time>2020-12-29T12:52:16.000Z</time>
      </trkpt>
      <trkpt lat="47.15414" lon="-1.93751">
        <ele>86</ele>
        <time>2020-12-29T12:52:18.000Z</time>
      </trkpt>
      <trkpt lat="47.15401" lon="-1.93754">
        <ele>85</ele>
        <time>2020-12-29T12:52:20.000Z</time>
      </trkpt>
      <trkpt lat="47.15388" lon="-1.93756">
        <ele>85</ele>
        <time>2020-12-29T12:52:22.000Z</time>
      </trkpt>
      <trkpt lat="47.15375" lon="-1.93758">
        <ele>85</ele>
        <time>2020-12-29T12:52:24.000Z</time>
      </trkpt>
      <trkpt lat="47.15361" lon="-1.93761">
        <ele>85</ele>
        <time>2020-12-29T12:52:26.000Z</time>
      </trkpt>
      <trkpt lat="47.15348" lon="-1.93765">
        <ele>86</ele>
        <time>2020-12-29T12:52:28.000Z</time>
      </trkpt>
      <trkpt lat="47.15335" lon="-1.93769">
        <ele>85</ele>
        <time>2020-12-29T12:52:30.000Z</time>
      </trkpt>
      <trkpt lat="47.15322" lon="-1.93772">
        <ele>85</ele>
        <time>2020-12-29T12:52:32.000Z</time>
      </trkpt>
      <trkpt lat="47.15308" lon="-1.93772">
        <ele>84</ele>
        <time>2020-12-29T12:52:34.000Z</time>
      </trkpt>
      <trkpt lat="47.15294" lon="-1.93771">
        <ele>84</ele>
        <time>2020-12-29T12:52:36.000Z</time>
      </trkpt>
      <trkpt lat="47.1528" lon="-1.93769">
        <ele>84</ele>
        <time>2020-12-29T12:52:38.000Z</time>
      </trkpt>
      <trkpt lat="47.15266" lon="-1.93765">
        <ele>84</ele>
        <time>2020-12-29T12:52:40.000Z</time>
      </trkpt>
      <trkpt lat="47.15252" lon="-1.93763">
        <ele>83</ele>
        <time>2020-12-29T12:52:42.000Z</time>
      </trkpt>
      <trkpt lat="47.15239" lon="-1.93761">
        <ele>83</ele>
        <time>2020-12-29T12:52:44.000Z</time>
      </trkpt>
      <trkpt lat="47.15225" lon="-1.93761">
        <ele>84</ele>
        <time>2020-12-29T12:52:46.000Z</time>
      </trkpt>
      <trkpt lat="47.15211" lon="-1.93761">
        <ele>83</ele>
        <time>2020-12-29T12:52:48.000Z</time>
      </trkpt>
      <trkpt lat="47.15197" lon="-1.93761">
        <ele>83</ele>
        <time>2020-12-29T12:52:50.000Z</time>
      </trkpt>
      <trkpt lat="47.15183" lon="-1.93759">
        <ele>83</ele>
        <time>2020-12-29T12:52:52.000Z</time>
      </trkpt>
      <trkpt lat="47.15169" lon="-1.93757">
        <ele>83</ele>
        <time>2020-12-29T12:52:54.000Z</time>
      </trkpt>
      <trkpt lat="47.15155" lon="-1.93755">
        <ele>83</ele>
        <time>2020-12-29T12:52:56.000Z</time>
      </trkpt>
      <trkpt lat="47.1514" lon="-1.93752">
        <ele>82</ele>
        <time>2020-12-29T12:52:58.000Z</time>
      </trkpt>
      <trkpt lat="47.15126" lon="-1.9375">
        <ele>82</ele>
        <time>2020-12-29T12:53:00.000Z</time>
      </trkpt>
      <trkpt lat="47.15113" lon="-1.93748">
        <ele>82</ele>
        <time>2020-12-29T12:53:02.000Z</time>
      </trkpt>
      <trkpt lat="47.15099" lon="-1.93747">
        <ele>82</ele>
        <time>2020-12-29T12:53:04.000Z</time>
      </trkpt>
      <trkpt lat="47.15084" lon="-1.93745">
        <ele>82</ele>
        <time>2020-12-29T12:53:06.000Z</time>
      </trkpt>
      <trkpt lat="47.1507" lon="-1.93743">
        <ele>81</ele>
        <time>2020-12-29T12:53:08.000Z</time>
      </trkpt>
      <trkpt lat="47.15054" lon="-1.93745">
        <ele>80</ele>
        <time>2020-12-29T12:53:10.000Z</time>
      </trkpt>
      <trkpt lat="47.1504" lon="-1.93746">
        <ele>80</ele>
        <time>2020-12-29T12:53:12.000Z</time>
      </trkpt>
      <trkpt lat="47.15025" lon="-1.93748">
        <ele>79</ele>
        <time>2020-12-29T12:53:14.000Z</time>
      </trkpt>
      <trkpt lat="47.15011" lon="-1.93751">
        <ele>79</ele>
        <time>2020-12-29T12:53:16.000Z</time>
      </trkpt>
      <trkpt lat="47.14996" lon="-1.93755">
        <ele>79</ele>
        <time>2020-12-29T12:53:18.000Z</time>
      </trkpt>
      <trkpt lat="47.14982" lon="-1.93758">
        <ele>79</ele>
        <time>2020-12-29T12:53:20.000Z</time>
      </trkpt>
      <trkpt lat="47.14968" lon="-1.9376">
        <ele>79</ele>
        <time>2020-12-29T12:53:22.000Z</time>
      </trkpt>
      <trkpt lat="47.14953" lon="-1.93761">
        <ele>79</ele>
        <time>2020-12-29T12:53:24.000Z</time>
      </trkpt>
      <trkpt lat="47.14939" lon="-1.93762">
        <ele>79</ele>
        <time>2020-12-29T12:53:26.000Z</time>
      </trkpt>
      <trkpt lat="47.14925" lon="-1.93762">
        <ele>79</ele>
        <time>2020-12-29T12:53:28.000Z</time>
      </trkpt>
      <trkpt lat="47.14911" lon="-1.93763">
        <ele>78</ele>
        <time>2020-12-29T12:53:30.000Z</time>
      </trkpt>
      <trkpt lat="47.14897" lon="-1.93763">
        <ele>78</ele>
        <time>2020-12-29T12:53:32.000Z</time>
      </trkpt>
      <trkpt lat="47.14882" lon="-1.93762">
        <ele>77</ele>
        <time>2020-12-29T12:53:34.000Z</time>
      </trkpt>
      <trkpt lat="47.14868" lon="-1.93762">
        <ele>77</ele>
        <time>2020-12-29T12:53:36.000Z</time>
      </trkpt>
      <trkpt lat="47.14853" lon="-1.93761">
        <ele>76</ele>
        <time>2020-12-29T12:53:38.000Z</time>
      </trkpt>
      <trkpt lat="47.14839" lon="-1.9376">
        <ele>75</ele>
        <time>2020-12-29T12:53:40.000Z</time>
      </trkpt>
      <trkpt lat="47.14824" lon="-1.9376">
        <ele>75</ele>
        <time>2020-12-29T12:53:42.000Z</time>
      </trkpt>
      <trkpt lat="47.14809" lon="-1.93759">
        <ele>75</ele>
        <time>2020-12-29T12:53:44.000Z</time>
      </trkpt>
      <trkpt lat="47.14794" lon="-1.93758">
        <ele>74</ele>
        <time>2020-12-29T12:53:46.000Z</time>
      </trkpt>
      <trkpt lat="47.1478" lon="-1.93757">
        <ele>73</ele>
        <time>2020-12-29T12:53:48.000Z</time>
      </trkpt>
      <trkpt lat="47.14764" lon="-1.93755">
        <ele>72</ele>
        <time>2020-12-29T12:53:50.000Z</time>
      </trkpt>
      <trkpt lat="47.1475" lon="-1.93754">
        <ele>72</ele>
        <time>2020-12-29T12:53:52.000Z</time>
      </trkpt>
      <trkpt lat="47.14736" lon="-1.93753">
        <ele>72</ele>
        <time>2020-12-29T12:53:54.000Z</time>
      </trkpt>
      <trkpt lat="47.14722" lon="-1.93752">
        <ele>72</ele>
        <time>2020-12-29T12:53:56.000Z</time>
      </trkpt>
      <trkpt lat="47.14708" lon="-1.93753">
        <ele>71</ele>
        <time>2020-12-29T12:53:58.000Z</time>
      </trkpt>
      <trkpt lat="47.14694" lon="-1.93754">
        <ele>71</ele>
        <time>2020-12-29T12:54:00.000Z</time>
      </trkpt>
      <trkpt lat="47.1468" lon="-1.93758">
        <ele>71</ele>
        <time>2020-12-29T12:54:02.000Z</time>
      </trkpt>
      <trkpt lat="47.14667" lon="-1.93762">
        <ele>71</ele>
        <time>2020-12-29T12:54:04.000Z</time>
      </trkpt>
      <trkpt lat="47.14655" lon="-1.93768">
        <ele>71</ele>
        <time>2020-12-29T12:54:06.000Z</time>
      </trkpt>
      <trkpt lat="47.14643" lon="-1.93774">
        <ele>71</ele>
        <time>2020-12-29T12:54:08.000Z</time>
      </trkpt>
      <trkpt lat="47.14631" lon="-1.93779">
        <ele>71</ele>
        <time>2020-12-29T12:54:10.000Z</time>
      </trkpt>
      <trkpt lat="47.14619" lon="-1.93785">
        <ele>71</ele>
        <time>2020-12-29T12:54:12.000Z</time>
      </trkpt>
      <trkpt lat="47.14607" lon="-1.93791">
        <ele>72</ele>
        <time>2020-12-29T12:54:14.000Z</time>
      </trkpt>
      <trkpt lat="47.14593" lon="-1.93797">
        <ele>71</ele>
        <time>2020-12-29T12:54:16.000Z</time>
      </trkpt>
      <trkpt lat="47.1458" lon="-1.93803">
        <ele>71</ele>
        <time>2020-12-29T12:54:18.000Z</time>
      </trkpt>
      <trkpt lat="47.14568" lon="-1.9381">
        <ele>72</ele>
        <time>2020-12-29T12:54:20.000Z</time>
      </trkpt>
      <trkpt lat="47.14555" lon="-1.93816">
        <ele>72</ele>
        <time>2020-12-29T12:54:22.000Z</time>
      </trkpt>
      <trkpt lat="47.14543" lon="-1.93823">
        <ele>72</ele>
        <time>2020-12-29T12:54:24.000Z</time>
      </trkpt>
      <trkpt lat="47.14531" lon="-1.93831">
        <ele>72</ele>
        <time>2020-12-29T12:54:26.000Z</time>
      </trkpt>
      <trkpt lat="47.14518" lon="-1.93838">
        <ele>71</ele>
        <time>2020-12-29T12:54:28.000Z</time>
      </trkpt>
      <trkpt lat="47.14506" lon="-1.93845">
        <ele>72</ele>
        <time>2020-12-29T12:54:30.000Z</time>
      </trkpt>
      <trkpt lat="47.14494" lon="-1.93853">
        <ele>72</ele>
        <time>2020-12-29T12:54:32.000Z</time>
      </trkpt>
      <trkpt lat="47.14482" lon="-1.9386">
        <ele>72</ele>
        <time>2020-12-29T12:54:34.000Z</time>
      </trkpt>
      <trkpt lat="47.1447" lon="-1.93866">
        <ele>72</ele>
        <time>2020-12-29T12:54:36.000Z</time>
      </trkpt>
      <trkpt lat="47.14457" lon="-1.93872">
        <ele>72</ele>
        <time>2020-12-29T12:54:38.000Z</time>
      </trkpt>
      <trkpt lat="47.14445" lon="-1.93878">
        <ele>72</ele>
        <time>2020-12-29T12:54:40.000Z</time>
      </trkpt>
      <trkpt lat="47.14433" lon="-1.93883">
        <ele>71</ele>
        <time>2020-12-29T12:54:42.000Z</time>
      </trkpt>
      <trkpt lat="47.1442" lon="-1.93888">
        <ele>71</ele>
        <time>2020-12-29T12:54:44.000Z</time>
      </trkpt>
      <trkpt lat="47.14408" lon="-1.93892">
        <ele>71</ele>
        <time>2020-12-29T12:54:46.000Z</time>
      </trkpt>
      <trkpt lat="47.14395" lon="-1.93895">
        <ele>71</ele>
        <time>2020-12-29T12:54:48.000Z</time>
      </trkpt>
      <trkpt lat="47.14382" lon="-1.93899">
        <ele>71</ele>
        <time>2020-12-29T12:54:50.000Z</time>
      </trkpt>
      <trkpt lat="47.14369" lon="-1.93901">
        <ele>71</ele>
        <time>2020-12-29T12:54:52.000Z</time>
      </trkpt>
      <trkpt lat="47.14356" lon="-1.93903">
        <ele>71</ele>
        <time>2020-12-29T12:54:54.000Z</time>
      </trkpt>
      <trkpt lat="47.14344" lon="-1.93902">
        <ele>70</ele>
        <time>2020-12-29T12:54:56.000Z</time>
      </trkpt>
      <trkpt lat="47.14331" lon="-1.93901">
        <ele>70</ele>
        <time>2020-12-29T12:54:58.000Z</time>
      </trkpt>
      <trkpt lat="47.14317" lon="-1.93899">
        <ele>69</ele>
        <time>2020-12-29T12:55:00.000Z</time>
      </trkpt>
      <trkpt lat="47.14303" lon="-1.93896">
        <ele>68</ele>
        <time>2020-12-29T12:55:02.000Z</time>
      </trkpt>
      <trkpt lat="47.14288" lon="-1.93892">
        <ele>68</ele>
        <time>2020-12-29T12:55:04.000Z</time>
      </trkpt>
      <trkpt lat="47.14273" lon="-1.93888">
        <ele>68</ele>
        <time>2020-12-29T12:55:06.000Z</time>
      </trkpt>
      <trkpt lat="47.14259" lon="-1.93885">
        <ele>68</ele>
        <time>2020-12-29T12:55:08.000Z</time>
      </trkpt>
      <trkpt lat="47.14245" lon="-1.93881">
        <ele>68</ele>
        <time>2020-12-29T12:55:10.000Z</time>
      </trkpt>
      <trkpt lat="47.14231" lon="-1.93878">
        <ele>68</ele>
        <time>2020-12-29T12:55:12.000Z</time>
      </trkpt>
      <trkpt lat="47.14217" lon="-1.93874">
        <ele>69</ele>
        <time>2020-12-29T12:55:14.000Z</time>
      </trkpt>
      <trkpt lat="47.14204" lon="-1.93869">
        <ele>69</ele>
        <time>2020-12-29T12:55:16.000Z</time>
      </trkpt>
      <trkpt lat="47.14191" lon="-1.93865">
        <ele>70</ele>
        <time>2020-12-29T12:55:18.000Z</time>
      </trkpt>
      <trkpt lat="47.14176" lon="-1.93859">
        <ele>69</ele>
        <time>2020-12-29T12:55:20.000Z</time>
      </trkpt>
      <trkpt lat="47.14161" lon="-1.93853">
        <ele>69</ele>
        <time>2020-12-29T12:55:22.000Z</time>
      </trkpt>
      <trkpt lat="47.14147" lon="-1.93847">
        <ele>69</ele>
        <time>2020-12-29T12:55:24.000Z</time>
      </trkpt>
      <trkpt lat="47.14134" lon="-1.93842">
        <ele>68</ele>
        <time>2020-12-29T12:55:26.000Z</time>
      </trkpt>
      <trkpt lat="47.1412" lon="-1.93837">
        <ele>68</ele>
        <time>2020-12-29T12:55:28.000Z</time>
      </trkpt>
      <trkpt lat="47.14107" lon="-1.93834">
        <ele>68</ele>
        <time>2020-12-29T12:55:30.000Z</time>
      </trkpt>
      <trkpt lat="47.14092" lon="-1.93833">
        <ele>68</ele>
        <time>2020-12-29T12:55:32.000Z</time>
      </trkpt>
      <trkpt lat="47.14078" lon="-1.93832">
        <ele>67</ele>
        <time>2020-12-29T12:55:34.000Z</time>
      </trkpt>
      <trkpt lat="47.14064" lon="-1.93833">
        <ele>66</ele>
        <time>2020-12-29T12:55:36.000Z</time>
      </trkpt>
      <trkpt lat="47.14051" lon="-1.93834">
        <ele>66</ele>
        <time>2020-12-29T12:55:38.000Z</time>
      </trkpt>
      <trkpt lat="47.14038" lon="-1.93836">
        <ele>66</ele>
        <time>2020-12-29T12:55:40.000Z</time>
      </trkpt>
      <trkpt lat="47.14024" lon="-1.93837">
        <ele>65</ele>
        <time>2020-12-29T12:55:42.000Z</time>
      </trkpt>
      <trkpt lat="47.14011" lon="-1.93838">
        <ele>64</ele>
        <time>2020-12-29T12:55:44.000Z</time>
      </trkpt>
      <trkpt lat="47.13996" lon="-1.93838">
        <ele>63</ele>
        <time>2020-12-29T12:55:46.000Z</time>
      </trkpt>
      <trkpt lat="47.13982" lon="-1.93837">
        <ele>63</ele>
        <time>2020-12-29T12:55:48.000Z</time>
      </trkpt>
      <trkpt lat="47.13966" lon="-1.93836">
        <ele>62</ele>
        <time>2020-12-29T12:55:50.000Z</time>
      </trkpt>
      <trkpt lat="47.13952" lon="-1.93835">
        <ele>61</ele>
        <time>2020-12-29T12:55:52.000Z</time>
      </trkpt>
      <trkpt lat="47.13938" lon="-1.93834">
        <ele>61</ele>
        <time>2020-12-29T12:55:54.000Z</time>
      </trkpt>
      <trkpt lat="47.13924" lon="-1.93833">
        <ele>61</ele>
        <time>2020-12-29T12:55:56.000Z</time>
      </trkpt>
      <trkpt lat="47.13909" lon="-1.93832">
        <ele>60</ele>
        <time>2020-12-29T12:55:58.000Z</time>
      </trkpt>
      <trkpt lat="47.13895" lon="-1.93831">
        <ele>60</ele>
        <time>2020-12-29T12:56:00.000Z</time>
      </trkpt>
      <trkpt lat="47.13881" lon="-1.93829">
        <ele>59</ele>
        <time>2020-12-29T12:56:02.000Z</time>
      </trkpt>
      <trkpt lat="47.13867" lon="-1.93827">
        <ele>59</ele>
        <time>2020-12-29T12:56:04.000Z</time>
      </trkpt>
      <trkpt lat="47.13853" lon="-1.93826">
        <ele>59</ele>
        <time>2020-12-29T12:56:06.000Z</time>
      </trkpt>
      <trkpt lat="47.1384" lon="-1.93824">
        <ele>59</ele>
        <time>2020-12-29T12:56:08.000Z</time>
      </trkpt>
      <trkpt lat="47.13827" lon="-1.93824">
        <ele>59</ele>
        <time>2020-12-29T12:56:10.000Z</time>
      </trkpt>
      <trkpt lat="47.13814" lon="-1.93823">
        <ele>59</ele>
        <time>2020-12-29T12:56:12.000Z</time>
      </trkpt>
      <trkpt lat="47.13801" lon="-1.93822">
        <ele>59</ele>
        <time>2020-12-29T12:56:14.000Z</time>
      </trkpt>
      <trkpt lat="47.13788" lon="-1.93821">
        <ele>60</ele>
        <time>2020-12-29T12:56:16.000Z</time>
      </trkpt>
      <trkpt lat="47.13774" lon="-1.9382">
        <ele>60</ele>
        <time>2020-12-29T12:56:18.000Z</time>
      </trkpt>
      <trkpt lat="47.13761" lon="-1.93819">
        <ele>60</ele>
        <time>2020-12-29T12:56:20.000Z</time>
      </trkpt>
      <trkpt lat="47.13747" lon="-1.93818">
        <ele>60</ele>
        <time>2020-12-29T12:56:22.000Z</time>
      </trkpt>
      <trkpt lat="47.13734" lon="-1.93817">
        <ele>59</ele>
        <time>2020-12-29T12:56:24.000Z</time>
      </trkpt>
      <trkpt lat="47.13721" lon="-1.93818">
        <ele>59</ele>
        <time>2020-12-29T12:56:26.000Z</time>
      </trkpt>
      <trkpt lat="47.13708" lon="-1.9382">
        <ele>58</ele>
        <time>2020-12-29T12:56:28.000Z</time>
      </trkpt>
      <trkpt lat="47.13694" lon="-1.93822">
        <ele>58</ele>
        <time>2020-12-29T12:56:30.000Z</time>
      </trkpt>
      <trkpt lat="47.1368" lon="-1.93826">
        <ele>57</ele>
        <time>2020-12-29T12:56:32.000Z</time>
      </trkpt>
      <trkpt lat="47.13666" lon="-1.93831">
        <ele>57</ele>
        <time>2020-12-29T12:56:34.000Z</time>
      </trkpt>
      <trkpt lat="47.13654" lon="-1.9384">
        <ele>57</ele>
        <time>2020-12-29T12:56:36.000Z</time>
      </trkpt>
      <trkpt lat="47.13642" lon="-1.93848">
        <ele>57</ele>
        <time>2020-12-29T12:56:38.000Z</time>
      </trkpt>
      <trkpt lat="47.13631" lon="-1.93857">
        <ele>58</ele>
        <time>2020-12-29T12:56:40.000Z</time>
      </trkpt>
      <trkpt lat="47.1362" lon="-1.93865">
        <ele>58</ele>
        <time>2020-12-29T12:56:42.000Z</time>
      </trkpt>
      <trkpt lat="47.13608" lon="-1.93873">
        <ele>58</ele>
        <time>2020-12-29T12:56:44.000Z</time>
      </trkpt>
      <trkpt lat="47.13597" lon="-1.9388">
        <ele>59</ele>
        <time>2020-12-29T12:56:46.000Z</time>
      </trkpt>
      <trkpt lat="47.13586" lon="-1.93887">
        <ele>59</ele>
        <time>2020-12-29T12:56:48.000Z</time>
      </trkpt>
      <trkpt lat="47.13574" lon="-1.93894">
        <ele>59</ele>
        <time>2020-12-29T12:56:50.000Z</time>
      </trkpt>
      <trkpt lat="47.13562" lon="-1.93901">
        <ele>59</ele>
        <time>2020-12-29T12:56:52.000Z</time>
      </trkpt>
      <trkpt lat="47.13551" lon="-1.93908">
        <ele>59</ele>
        <time>2020-12-29T12:56:54.000Z</time>
      </trkpt>
      <trkpt lat="47.1354" lon="-1.93913">
        <ele>60</ele>
        <time>2020-12-29T12:56:56.000Z</time>
      </trkpt>
      <trkpt lat="47.13528" lon="-1.93919">
        <ele>59</ele>
        <time>2020-12-29T12:56:58.000Z</time>
      </trkpt>
      <trkpt lat="47.13516" lon="-1.93924">
        <ele>59</ele>
        <time>2020-12-29T12:57:00.000Z</time>
      </trkpt>
      <trkpt lat="47.13503" lon="-1.9393">
        <ele>58</ele>
        <time>2020-12-29T12:57:02.000Z</time>
      </trkpt>
      <trkpt lat="47.13492" lon="-1.93936">
        <ele>58</ele>
        <time>2020-12-29T12:57:04.000Z</time>
      </trkpt>
      <trkpt lat="47.1348" lon="-1.93942">
        <ele>58</ele>
        <time>2020-12-29T12:57:06.000Z</time>
      </trkpt>
      <trkpt lat="47.13468" lon="-1.93948">
        <ele>57</ele>
        <time>2020-12-29T12:57:08.000Z</time>
      </trkpt>
      <trkpt lat="47.13456" lon="-1.93954">
        <ele>57</ele>
        <time>2020-12-29T12:57:10.000Z</time>
      </trkpt>
      <trkpt lat="47.13444" lon="-1.9396">
        <ele>58</ele>
        <time>2020-12-29T12:57:12.000Z</time>
      </trkpt>
      <trkpt lat="47.13432" lon="-1.93967">
        <ele>57</ele>
        <time>2020-12-29T12:57:14.000Z</time>
      </trkpt>
      <trkpt lat="47.1342" lon="-1.93973">
        <ele>57</ele>
        <time>2020-12-29T12:57:16.000Z</time>
      </trkpt>
      <trkpt lat="47.1341" lon="-1.9398">
        <ele>57</ele>
        <time>2020-12-29T12:57:18.000Z</time>
      </trkpt>
      <trkpt lat="47.13399" lon="-1.93989">
        <ele>57</ele>
        <time>2020-12-29T12:57:20.000Z</time>
      </trkpt>
      <trkpt lat="47.13388" lon="-1.93997">
        <ele>57</ele>
        <time>2020-12-29T12:57:22.000Z</time>
      </trkpt>
      <trkpt lat="47.13378" lon="-1.94004">
        <ele>57</ele>
        <time>2020-12-29T12:57:24.000Z</time>
      </trkpt>
      <trkpt lat="47.13369" lon="-1.94012">
        <ele>57</ele>
        <time>2020-12-29T12:57:26.000Z</time>
      </trkpt>
      <trkpt lat="47.13359" lon="-1.94015">
        <ele>57</ele>
        <time>2020-12-29T12:57:28.000Z</time>
      </trkpt>
      <trkpt lat="47.13347" lon="-1.94009">
        <ele>56</ele>
        <time>2020-12-29T12:57:30.000Z</time>
      </trkpt>
      <trkpt lat="47.13335" lon="-1.94">
        <ele>55</ele>
        <time>2020-12-29T12:57:32.000Z</time>
      </trkpt>
      <trkpt lat="47.13321" lon="-1.93993">
        <ele>55</ele>
        <time>2020-12-29T12:57:34.000Z</time>
      </trkpt>
      <trkpt lat="47.13308" lon="-1.93988">
        <ele>55</ele>
        <time>2020-12-29T12:57:36.000Z</time>
      </trkpt>
      <trkpt lat="47.13294" lon="-1.93985">
        <ele>55</ele>
        <time>2020-12-29T12:57:38.000Z</time>
      </trkpt>
      <trkpt lat="47.13281" lon="-1.93983">
        <ele>55</ele>
        <time>2020-12-29T12:57:40.000Z</time>
      </trkpt>
      <trkpt lat="47.13268" lon="-1.93984">
        <ele>56</ele>
        <time>2020-12-29T12:57:42.000Z</time>
      </trkpt>
      <trkpt lat="47.13256" lon="-1.93985">
        <ele>57</ele>
        <time>2020-12-29T12:57:44.000Z</time>
      </trkpt>
      <trkpt lat="47.13243" lon="-1.93985">
        <ele>57</ele>
        <time>2020-12-29T12:57:46.000Z</time>
      </trkpt>
      <trkpt lat="47.1323" lon="-1.93985">
        <ele>57</ele>
        <time>2020-12-29T12:57:48.000Z</time>
      </trkpt>
      <trkpt lat="47.13217" lon="-1.93985">
        <ele>58</ele>
        <time>2020-12-29T12:57:50.000Z</time>
      </trkpt>
      <trkpt lat="47.13205" lon="-1.93986">
        <ele>58</ele>
        <time>2020-12-29T12:57:52.000Z</time>
      </trkpt>
      <trkpt lat="47.13192" lon="-1.93986">
        <ele>58</ele>
        <time>2020-12-29T12:57:54.000Z</time>
      </trkpt>
      <trkpt lat="47.1318" lon="-1.93987">
        <ele>59</ele>
        <time>2020-12-29T12:57:56.000Z</time>
      </trkpt>
      <trkpt lat="47.13167" lon="-1.93987">
        <ele>59</ele>
        <time>2020-12-29T12:57:58.000Z</time>
      </trkpt>
      <trkpt lat="47.13155" lon="-1.93987">
        <ele>59</ele>
        <time>2020-12-29T12:58:00.000Z</time>
      </trkpt>
      <trkpt lat="47.13142" lon="-1.93988">
        <ele>60</ele>
        <time>2020-12-29T12:58:02.000Z</time>
      </trkpt>
      <trkpt lat="47.13129" lon="-1.93989">
        <ele>59</ele>
        <time>2020-12-29T12:58:04.000Z</time>
      </trkpt>
      <trkpt lat="47.13116" lon="-1.93989">
        <ele>60</ele>
        <time>2020-12-29T12:58:06.000Z</time>
      </trkpt>
      <trkpt lat="47.13103" lon="-1.93989">
        <ele>60</ele>
        <time>2020-12-29T12:58:08.000Z</time>
      </trkpt>
      <trkpt lat="47.13091" lon="-1.93989">
        <ele>59</ele>
        <time>2020-12-29T12:58:10.000Z</time>
      </trkpt>
      <trkpt lat="47.13079" lon="-1.93989">
        <ele>59</ele>
        <time>2020-12-29T12:58:12.000Z</time>
      </trkpt>
      <trkpt lat="47.13066" lon="-1.9399">
        <ele>59</ele>
        <time>2020-12-29T12:58:14.000Z</time>
      </trkpt>
      <trkpt lat="47.13053" lon="-1.9399">
        <ele>59</ele>
        <time>2020-12-29T12:58:16.000Z</time>
      </trkpt>
      <trkpt lat="47.13041" lon="-1.9399">
        <ele>59</ele>
        <time>2020-12-29T12:58:18.000Z</time>
      </trkpt>
      <trkpt lat="47.13029" lon="-1.9399">
        <ele>59</ele>
        <time>2020-12-29T12:58:20.000Z</time>
      </trkpt>
      <trkpt lat="47.13016" lon="-1.9399">
        <ele>59</ele>
        <time>2020-12-29T12:58:22.000Z</time>
      </trkpt>
      <trkpt lat="47.13003" lon="-1.93991">
        <ele>59</ele>
        <time>2020-12-29T12:58:24.000Z</time>
      </trkpt>
      <trkpt lat="47.12991" lon="-1.93991">
        <ele>59</ele>
        <time>2020-12-29T12:58:26.000Z</time>
      </trkpt>
      <trkpt lat="47.12979" lon="-1.93992">
        <ele>59</ele>
        <time>2020-12-29T12:58:28.000Z</time>
      </trkpt>
      <trkpt lat="47.12966" lon="-1.93992">
        <ele>59</ele>
        <time>2020-12-29T12:58:30.000Z</time>
      </trkpt>
      <trkpt lat="47.12954" lon="-1.93993">
        <ele>59</ele>
        <time>2020-12-29T12:58:32.000Z</time>
      </trkpt>
      <trkpt lat="47.12942" lon="-1.93993">
        <ele>59</ele>
        <time>2020-12-29T12:58:34.000Z</time>
      </trkpt>
      <trkpt lat="47.1293" lon="-1.93993">
        <ele>60</ele>
        <time>2020-12-29T12:58:36.000Z</time>
      </trkpt>
      <trkpt lat="47.12917" lon="-1.93994">
        <ele>60</ele>
        <time>2020-12-29T12:58:38.000Z</time>
      </trkpt>
      <trkpt lat="47.12905" lon="-1.93995">
        <ele>60</ele>
        <time>2020-12-29T12:58:40.000Z</time>
      </trkpt>
      <trkpt lat="47.12892" lon="-1.93995">
        <ele>60</ele>
        <time>2020-12-29T12:58:42.000Z</time>
      </trkpt>
      <trkpt lat="47.1288" lon="-1.93995">
        <ele>61</ele>
        <time>2020-12-29T12:58:44.000Z</time>
      </trkpt>
      <trkpt lat="47.12868" lon="-1.93996">
        <ele>60</ele>
        <time>2020-12-29T12:58:46.000Z</time>
      </trkpt>
      <trkpt lat="47.12855" lon="-1.93997">
        <ele>61</ele>
        <time>2020-12-29T12:58:48.000Z</time>
      </trkpt>
      <trkpt lat="47.12843" lon="-1.93998">
        <ele>61</ele>
        <time>2020-12-29T12:58:50.000Z</time>
      </trkpt>
      <trkpt lat="47.12831" lon="-1.93999">
        <ele>62</ele>
        <time>2020-12-29T12:58:52.000Z</time>
      </trkpt>
      <trkpt lat="47.12818" lon="-1.93999">
        <ele>61</ele>
        <time>2020-12-29T12:58:54.000Z</time>
      </trkpt>
      <trkpt lat="47.12805" lon="-1.93998">
        <ele>61</ele>
        <time>2020-12-29T12:58:56.000Z</time>
      </trkpt>
      <trkpt lat="47.12792" lon="-1.93999">
        <ele>60</ele>
        <time>2020-12-29T12:58:58.000Z</time>
      </trkpt>
      <trkpt lat="47.12779" lon="-1.93998">
        <ele>61</ele>
        <time>2020-12-29T12:59:00.000Z</time>
      </trkpt>
      <trkpt lat="47.12766" lon="-1.93999">
        <ele>61</ele>
        <time>2020-12-29T12:59:02.000Z</time>
      </trkpt>
      <trkpt lat="47.12754" lon="-1.93999">
        <ele>61</ele>
        <time>2020-12-29T12:59:04.000Z</time>
      </trkpt>
      <trkpt lat="47.12742" lon="-1.93999">
        <ele>60</ele>
        <time>2020-12-29T12:59:06.000Z</time>
      </trkpt>
      <trkpt lat="47.12729" lon="-1.94">
        <ele>61</ele>
        <time>2020-12-29T12:59:08.000Z</time>
      </trkpt>
      <trkpt lat="47.12717" lon="-1.94001">
        <ele>61</ele>
        <time>2020-12-29T12:59:10.000Z</time>
      </trkpt>
      <trkpt lat="47.12704" lon="-1.94002">
        <ele>61</ele>
        <time>2020-12-29T12:59:12.000Z</time>
      </trkpt>
      <trkpt lat="47.12691" lon="-1.94003">
        <ele>61</ele>
        <time>2020-12-29T12:59:14.000Z</time>
      </trkpt>
      <trkpt lat="47.12677" lon="-1.94003">
        <ele>62</ele>
        <time>2020-12-29T12:59:16.000Z</time>
      </trkpt>
      <trkpt lat="47.12664" lon="-1.94003">
        <ele>61</ele>
        <time>2020-12-29T12:59:18.000Z</time>
      </trkpt>
      <trkpt lat="47.12651" lon="-1.94004">
        <ele>61</ele>
        <time>2020-12-29T12:59:20.000Z</time>
      </trkpt>
      <trkpt lat="47.12637" lon="-1.94004">
        <ele>61</ele>
        <time>2020-12-29T12:59:22.000Z</time>
      </trkpt>
      <trkpt lat="47.12624" lon="-1.94004">
        <ele>61</ele>
        <time>2020-12-29T12:59:24.000Z</time>
      </trkpt>
      <trkpt lat="47.12611" lon="-1.94005">
        <ele>61</ele>
        <time>2020-12-29T12:59:26.000Z</time>
      </trkpt>
      <trkpt lat="47.12598" lon="-1.94005">
        <ele>61</ele>
        <time>2020-12-29T12:59:28.000Z</time>
      </trkpt>
      <trkpt lat="47.12585" lon="-1.94004">
        <ele>61</ele>
        <time>2020-12-29T12:59:30.000Z</time>
      </trkpt>
      <trkpt lat="47.12573" lon="-1.94005">
        <ele>61</ele>
        <time>2020-12-29T12:59:32.000Z</time>
      </trkpt>
      <trkpt lat="47.1256" lon="-1.94006">
        <ele>62</ele>
        <time>2020-12-29T12:59:34.000Z</time>
      </trkpt>
      <trkpt lat="47.12548" lon="-1.94007">
        <ele>63</ele>
        <time>2020-12-29T12:59:36.000Z</time>
      </trkpt>
      <trkpt lat="47.12537" lon="-1.94008">
        <ele>63</ele>
        <time>2020-12-29T12:59:38.000Z</time>
      </trkpt>
      <trkpt lat="47.12525" lon="-1.94008">
        <ele>64</ele>
        <time>2020-12-29T12:59:40.000Z</time>
      </trkpt>
      <trkpt lat="47.12513" lon="-1.94008">
        <ele>65</ele>
        <time>2020-12-29T12:59:42.000Z</time>
      </trkpt>
      <trkpt lat="47.125" lon="-1.94009">
        <ele>65</ele>
        <time>2020-12-29T12:59:44.000Z</time>
      </trkpt>
      <trkpt lat="47.12487" lon="-1.9401">
        <ele>65</ele>
        <time>2020-12-29T12:59:46.000Z</time>
      </trkpt>
      <trkpt lat="47.12473" lon="-1.9401">
        <ele>64</ele>
        <time>2020-12-29T12:59:48.000Z</time>
      </trkpt>
      <trkpt lat="47.1246" lon="-1.94011">
        <ele>64</ele>
        <time>2020-12-29T12:59:50.000Z</time>
      </trkpt>
      <trkpt lat="47.12447" lon="-1.94012">
        <ele>64</ele>
        <time>2020-12-29T12:59:52.000Z</time>
      </trkpt>
      <trkpt lat="47.12435" lon="-1.94013">
        <ele>64</ele>
        <time>2020-12-29T12:59:54.000Z</time>
      </trkpt>
      <trkpt lat="47.12422" lon="-1.94013">
        <ele>64</ele>
        <time>2020-12-29T12:59:56.000Z</time>
      </trkpt>
      <trkpt lat="47.12407" lon="-1.94013">
        <ele>63</ele>
        <time>2020-12-29T12:59:58.000Z</time>
      </trkpt>
      <trkpt lat="47.12392" lon="-1.94013">
        <ele>62</ele>
        <time>2020-12-29T13:00:00.000Z</time>
      </trkpt>
      <trkpt lat="47.12378" lon="-1.94012">
        <ele>62</ele>
        <time>2020-12-29T13:00:02.000Z</time>
      </trkpt>
      <trkpt lat="47.12365" lon="-1.94013">
        <ele>61</ele>
        <time>2020-12-29T13:00:04.000Z</time>
      </trkpt>
      <trkpt lat="47.12352" lon="-1.94013">
        <ele>61</ele>
        <time>2020-12-29T13:00:06.000Z</time>
      </trkpt>
      <trkpt lat="47.12339" lon="-1.94013">
        <ele>60</ele>
        <time>2020-12-29T13:00:08.000Z</time>
      </trkpt>
      <trkpt lat="47.12326" lon="-1.94014">
        <ele>61</ele>
        <time>2020-12-29T13:00:10.000Z</time>
      </trkpt>
      <trkpt lat="47.12313" lon="-1.94016">
        <ele>61</ele>
        <time>2020-12-29T13:00:12.000Z</time>
      </trkpt>
      <trkpt lat="47.123" lon="-1.94019">
        <ele>62</ele>
        <time>2020-12-29T13:00:14.000Z</time>
      </trkpt>
      <trkpt lat="47.12288" lon="-1.94024">
        <ele>62</ele>
        <time>2020-12-29T13:00:16.000Z</time>
      </trkpt>
      <trkpt lat="47.12275" lon="-1.94029">
        <ele>62</ele>
        <time>2020-12-29T13:00:18.000Z</time>
      </trkpt>
      <trkpt lat="47.12263" lon="-1.94035">
        <ele>62</ele>
        <time>2020-12-29T13:00:20.000Z</time>
      </trkpt>
      <trkpt lat="47.12252" lon="-1.94042">
        <ele>62</ele>
        <time>2020-12-29T13:00:22.000Z</time>
      </trkpt>
      <trkpt lat="47.12239" lon="-1.94046">
        <ele>62</ele>
        <time>2020-12-29T13:00:24.000Z</time>
      </trkpt>
      <trkpt lat="47.12227" lon="-1.94049">
        <ele>62</ele>
        <time>2020-12-29T13:00:26.000Z</time>
      </trkpt>
      <trkpt lat="47.12214" lon="-1.9405">
        <ele>62</ele>
        <time>2020-12-29T13:00:28.000Z</time>
      </trkpt>
      <trkpt lat="47.12201" lon="-1.94051">
        <ele>62</ele>
        <time>2020-12-29T13:00:30.000Z</time>
      </trkpt>
      <trkpt lat="47.12189" lon="-1.9405">
        <ele>62</ele>
        <time>2020-12-29T13:00:32.000Z</time>
      </trkpt>
      <trkpt lat="47.12177" lon="-1.94049">
        <ele>63</ele>
        <time>2020-12-29T13:00:34.000Z</time>
      </trkpt>
      <trkpt lat="47.12165" lon="-1.94045">
        <ele>63</ele>
        <time>2020-12-29T13:00:36.000Z</time>
      </trkpt>
      <trkpt lat="47.12154" lon="-1.94043">
        <ele>63</ele>
        <time>2020-12-29T13:00:38.000Z</time>
      </trkpt>
      <trkpt lat="47.12142" lon="-1.9404">
        <ele>63</ele>
        <time>2020-12-29T13:00:40.000Z</time>
      </trkpt>
      <trkpt lat="47.12131" lon="-1.94038">
        <ele>64</ele>
        <time>2020-12-29T13:00:42.000Z</time>
      </trkpt>
      <trkpt lat="47.12119" lon="-1.94036">
        <ele>63</ele>
        <time>2020-12-29T13:00:44.000Z</time>
      </trkpt>
      <trkpt lat="47.12107" lon="-1.94033">
        <ele>63</ele>
        <time>2020-12-29T13:00:46.000Z</time>
      </trkpt>
      <trkpt lat="47.12095" lon="-1.9403">
        <ele>62</ele>
        <time>2020-12-29T13:00:48.000Z</time>
      </trkpt>
      <trkpt lat="47.12081" lon="-1.94027">
        <ele>62</ele>
        <time>2020-12-29T13:00:50.000Z</time>
      </trkpt>
      <trkpt lat="47.12065" lon="-1.94023">
        <ele>60</ele>
        <time>2020-12-29T13:00:52.000Z</time>
      </trkpt>
      <trkpt lat="47.12048" lon="-1.9402">
        <ele>60</ele>
        <time>2020-12-29T13:00:54.000Z</time>
      </trkpt>
      <trkpt lat="47.12032" lon="-1.94018">
        <ele>60</ele>
        <time>2020-12-29T13:00:56.000Z</time>
      </trkpt>
      <trkpt lat="47.12018" lon="-1.94019">
        <ele>59</ele>
        <time>2020-12-29T13:00:58.000Z</time>
      </trkpt>
      <trkpt lat="47.12005" lon="-1.94023">
        <ele>59</ele>
        <time>2020-12-29T13:01:00.000Z</time>
      </trkpt>
      <trkpt lat="47.11992" lon="-1.94027">
        <ele>60</ele>
        <time>2020-12-29T13:01:02.000Z</time>
      </trkpt>
      <trkpt lat="47.1198" lon="-1.94032">
        <ele>60</ele>
        <time>2020-12-29T13:01:04.000Z</time>
      </trkpt>
      <trkpt lat="47.11968" lon="-1.94037">
        <ele>60</ele>
        <time>2020-12-29T13:01:06.000Z</time>
      </trkpt>
      <trkpt lat="47.11956" lon="-1.94041">
        <ele>60</ele>
        <time>2020-12-29T13:01:08.000Z</time>
      </trkpt>
      <trkpt lat="47.11942" lon="-1.94046">
        <ele>60</ele>
        <time>2020-12-29T13:01:10.000Z</time>
      </trkpt>
      <trkpt lat="47.11929" lon="-1.94051">
        <ele>60</ele>
        <time>2020-12-29T13:01:12.000Z</time>
      </trkpt>
      <trkpt lat="47.11916" lon="-1.94056">
        <ele>59</ele>
        <time>2020-12-29T13:01:14.000Z</time>
      </trkpt>
      <trkpt lat="47.11903" lon="-1.94061">
        <ele>59</ele>
        <time>2020-12-29T13:01:16.000Z</time>
      </trkpt>
      <trkpt lat="47.1189" lon="-1.94066">
        <ele>59</ele>
        <time>2020-12-29T13:01:18.000Z</time>
      </trkpt>
      <trkpt lat="47.11877" lon="-1.94071">
        <ele>59</ele>
        <time>2020-12-29T13:01:20.000Z</time>
      </trkpt>
      <trkpt lat="47.11864" lon="-1.94075">
        <ele>59</ele>
        <time>2020-12-29T13:01:22.000Z</time>
      </trkpt>
      <trkpt lat="47.11851" lon="-1.9408">
        <ele>58</ele>
        <time>2020-12-29T13:01:24.000Z</time>
      </trkpt>
      <trkpt lat="47.11839" lon="-1.94086">
        <ele>59</ele>
        <time>2020-12-29T13:01:26.000Z</time>
      </trkpt>
      <trkpt lat="47.11826" lon="-1.94091">
        <ele>59</ele>
        <time>2020-12-29T13:01:28.000Z</time>
      </trkpt>
      <trkpt lat="47.11815" lon="-1.94097">
        <ele>59</ele>
        <time>2020-12-29T13:01:30.000Z</time>
      </trkpt>
      <trkpt lat="47.11803" lon="-1.94103">
        <ele>59</ele>
        <time>2020-12-29T13:01:32.000Z</time>
      </trkpt>
      <trkpt lat="47.11791" lon="-1.94109">
        <ele>59</ele>
        <time>2020-12-29T13:01:34.000Z</time>
      </trkpt>
      <trkpt lat="47.1178" lon="-1.94115">
        <ele>59</ele>
        <time>2020-12-29T13:01:36.000Z</time>
      </trkpt>
      <trkpt lat="47.11769" lon="-1.94121">
        <ele>59</ele>
        <time>2020-12-29T13:01:38.000Z</time>
      </trkpt>
      <trkpt lat="47.11758" lon="-1.94126">
        <ele>59</ele>
        <time>2020-12-29T13:01:40.000Z</time>
      </trkpt>
      <trkpt lat="47.11747" lon="-1.94132">
        <ele>59</ele>
        <time>2020-12-29T13:01:42.000Z</time>
      </trkpt>
      <trkpt lat="47.11737" lon="-1.94137">
        <ele>59</ele>
        <time>2020-12-29T13:01:44.000Z</time>
      </trkpt>
      <trkpt lat="47.11728" lon="-1.94142">
        <ele>59</ele>
        <time>2020-12-29T13:01:46.000Z</time>
      </trkpt>
      <trkpt lat="47.11723" lon="-1.94158">
        <ele>60</ele>
        <time>2020-12-29T13:01:49.000Z</time>
      </trkpt>
      <trkpt lat="47.11724" lon="-1.94172">
        <ele>60</ele>
        <time>2020-12-29T13:01:51.000Z</time>
      </trkpt>
      <trkpt lat="47.11726" lon="-1.94185">
        <ele>60</ele>
        <time>2020-12-29T13:01:53.000Z</time>
      </trkpt>
      <trkpt lat="47.11728" lon="-1.94198">
        <ele>60</ele>
        <time>2020-12-29T13:01:55.000Z</time>
      </trkpt>
      <trkpt lat="47.11726" lon="-1.94213">
        <ele>59</ele>
        <time>2020-12-29T13:02:00.000Z</time>
      </trkpt>
      <trkpt lat="47.11713" lon="-1.94218">
        <ele>59</ele>
        <time>2020-12-29T13:02:03.000Z</time>
      </trkpt>
      <trkpt lat="47.11702" lon="-1.94221">
        <ele>60</ele>
        <time>2020-12-29T13:02:05.000Z</time>
      </trkpt>
      <trkpt lat="47.11692" lon="-1.94221">
        <ele>59</ele>
        <time>2020-12-29T13:02:07.000Z</time>
      </trkpt>
      <trkpt lat="47.11684" lon="-1.94227">
        <ele>59</ele>
        <time>2020-12-29T13:02:11.000Z</time>
      </trkpt>
      <trkpt lat="47.11672" lon="-1.94225">
        <ele>58</ele>
        <time>2020-12-29T13:02:14.000Z</time>
      </trkpt>
      <trkpt lat="47.11661" lon="-1.94224">
        <ele>58</ele>
        <time>2020-12-29T13:02:17.000Z</time>
      </trkpt>
      <trkpt lat="47.11651" lon="-1.94236">
        <ele>58</ele>
        <time>2020-12-29T13:02:20.000Z</time>
      </trkpt>
      <trkpt lat="47.11644" lon="-1.94246">
        <ele>58</ele>
        <time>2020-12-29T13:02:23.000Z</time>
      </trkpt>
      <trkpt lat="47.11634" lon="-1.9425">
        <ele>57</ele>
        <time>2020-12-29T13:02:28.000Z</time>
      </trkpt>
      <trkpt lat="47.11627" lon="-1.94238">
        <ele>58</ele>
        <time>2020-12-29T13:02:30.000Z</time>
      </trkpt>
      <trkpt lat="47.1162" lon="-1.94227">
        <ele>59</ele>
        <time>2020-12-29T13:02:32.000Z</time>
      </trkpt>
      <trkpt lat="47.11614" lon="-1.94214">
        <ele>59</ele>
        <time>2020-12-29T13:02:34.000Z</time>
      </trkpt>
      <trkpt lat="47.11609" lon="-1.94202">
        <ele>60</ele>
        <time>2020-12-29T13:02:36.000Z</time>
      </trkpt>
      <trkpt lat="47.11598" lon="-1.94197">
        <ele>61</ele>
        <time>2020-12-29T13:02:39.000Z</time>
      </trkpt>
      <trkpt lat="47.11591" lon="-1.94207">
        <ele>60</ele>
        <time>2020-12-29T13:02:41.000Z</time>
      </trkpt>
      <trkpt lat="47.11583" lon="-1.94218">
        <ele>60</ele>
        <time>2020-12-29T13:02:43.000Z</time>
      </trkpt>
      <trkpt lat="47.11573" lon="-1.9423">
        <ele>60</ele>
        <time>2020-12-29T13:02:45.000Z</time>
      </trkpt>
      <trkpt lat="47.11562" lon="-1.94241">
        <ele>60</ele>
        <time>2020-12-29T13:02:47.000Z</time>
      </trkpt>
      <trkpt lat="47.11552" lon="-1.94252">
        <ele>61</ele>
        <time>2020-12-29T13:02:49.000Z</time>
      </trkpt>
      <trkpt lat="47.11541" lon="-1.94262">
        <ele>61</ele>
        <time>2020-12-29T13:02:51.000Z</time>
      </trkpt>
      <trkpt lat="47.11529" lon="-1.94271">
        <ele>61</ele>
        <time>2020-12-29T13:02:53.000Z</time>
      </trkpt>
      <trkpt lat="47.11518" lon="-1.94277">
        <ele>61</ele>
        <time>2020-12-29T13:02:55.000Z</time>
      </trkpt>
      <trkpt lat="47.11505" lon="-1.94283">
        <ele>60</ele>
        <time>2020-12-29T13:02:57.000Z</time>
      </trkpt>
      <trkpt lat="47.11493" lon="-1.94287">
        <ele>60</ele>
        <time>2020-12-29T13:02:59.000Z</time>
      </trkpt>
      <trkpt lat="47.1148" lon="-1.94291">
        <ele>60</ele>
        <time>2020-12-29T13:03:01.000Z</time>
      </trkpt>
      <trkpt lat="47.11468" lon="-1.94294">
        <ele>60</ele>
        <time>2020-12-29T13:03:03.000Z</time>
      </trkpt>
      <trkpt lat="47.11455" lon="-1.94298">
        <ele>60</ele>
        <time>2020-12-29T13:03:05.000Z</time>
      </trkpt>
      <trkpt lat="47.11443" lon="-1.94301">
        <ele>60</ele>
        <time>2020-12-29T13:03:07.000Z</time>
      </trkpt>
      <trkpt lat="47.11431" lon="-1.94304">
        <ele>59</ele>
        <time>2020-12-29T13:03:09.000Z</time>
      </trkpt>
      <trkpt lat="47.11419" lon="-1.94308">
        <ele>59</ele>
        <time>2020-12-29T13:03:11.000Z</time>
      </trkpt>
      <trkpt lat="47.11407" lon="-1.94311">
        <ele>58</ele>
        <time>2020-12-29T13:03:13.000Z</time>
      </trkpt>
      <trkpt lat="47.11395" lon="-1.94315">
        <ele>58</ele>
        <time>2020-12-29T13:03:15.000Z</time>
      </trkpt>
      <trkpt lat="47.11383" lon="-1.94318">
        <ele>58</ele>
        <time>2020-12-29T13:03:17.000Z</time>
      </trkpt>
      <trkpt lat="47.11371" lon="-1.94321">
        <ele>58</ele>
        <time>2020-12-29T13:03:19.000Z</time>
      </trkpt>
      <trkpt lat="47.11359" lon="-1.94325">
        <ele>58</ele>
        <time>2020-12-29T13:03:21.000Z</time>
      </trkpt>
      <trkpt lat="47.11348" lon="-1.9433">
        <ele>58</ele>
        <time>2020-12-29T13:03:23.000Z</time>
      </trkpt>
      <trkpt lat="47.11338" lon="-1.94339">
        <ele>58</ele>
        <time>2020-12-29T13:03:25.000Z</time>
      </trkpt>
      <trkpt lat="47.11329" lon="-1.9435">
        <ele>58</ele>
        <time>2020-12-29T13:03:27.000Z</time>
      </trkpt>
      <trkpt lat="47.11322" lon="-1.94365">
        <ele>58</ele>
        <time>2020-12-29T13:03:29.000Z</time>
      </trkpt>
      <trkpt lat="47.11316" lon="-1.94381">
        <ele>58</ele>
        <time>2020-12-29T13:03:31.000Z</time>
      </trkpt>
      <trkpt lat="47.11311" lon="-1.94398">
        <ele>59</ele>
        <time>2020-12-29T13:03:33.000Z</time>
      </trkpt>
      <trkpt lat="47.11306" lon="-1.94414">
        <ele>58</ele>
        <time>2020-12-29T13:03:35.000Z</time>
      </trkpt>
      <trkpt lat="47.113" lon="-1.9443">
        <ele>58</ele>
        <time>2020-12-29T13:03:37.000Z</time>
      </trkpt>
      <trkpt lat="47.11296" lon="-1.94445">
        <ele>58</ele>
        <time>2020-12-29T13:03:39.000Z</time>
      </trkpt>
      <trkpt lat="47.1129" lon="-1.94459">
        <ele>58</ele>
        <time>2020-12-29T13:03:41.000Z</time>
      </trkpt>
      <trkpt lat="47.11283" lon="-1.94475">
        <ele>59</ele>
        <time>2020-12-29T13:03:43.000Z</time>
      </trkpt>
      <trkpt lat="47.11276" lon="-1.9449">
        <ele>60</ele>
        <time>2020-12-29T13:03:45.000Z</time>
      </trkpt>
      <trkpt lat="47.1127" lon="-1.94505">
        <ele>60</ele>
        <time>2020-12-29T13:03:47.000Z</time>
      </trkpt>
      <trkpt lat="47.11263" lon="-1.94521">
        <ele>60</ele>
        <time>2020-12-29T13:03:49.000Z</time>
      </trkpt>
      <trkpt lat="47.11258" lon="-1.94537">
        <ele>61</ele>
        <time>2020-12-29T13:03:51.000Z</time>
      </trkpt>
      <trkpt lat="47.11252" lon="-1.94554">
        <ele>62</ele>
        <time>2020-12-29T13:03:53.000Z</time>
      </trkpt>
      <trkpt lat="47.11247" lon="-1.9457">
        <ele>62</ele>
        <time>2020-12-29T13:03:55.000Z</time>
      </trkpt>
      <trkpt lat="47.11243" lon="-1.94587">
        <ele>62</ele>
        <time>2020-12-29T13:03:57.000Z</time>
      </trkpt>
      <trkpt lat="47.11238" lon="-1.94603">
        <ele>62</ele>
        <time>2020-12-29T13:03:59.000Z</time>
      </trkpt>
      <trkpt lat="47.11233" lon="-1.94619">
        <ele>62</ele>
        <time>2020-12-29T13:04:01.000Z</time>
      </trkpt>
      <trkpt lat="47.11228" lon="-1.94635">
        <ele>62</ele>
        <time>2020-12-29T13:04:03.000Z</time>
      </trkpt>
      <trkpt lat="47.11224" lon="-1.94651">
        <ele>62</ele>
        <time>2020-12-29T13:04:05.000Z</time>
      </trkpt>
      <trkpt lat="47.11219" lon="-1.94667">
        <ele>62</ele>
        <time>2020-12-29T13:04:07.000Z</time>
      </trkpt>
      <trkpt lat="47.11212" lon="-1.94683">
        <ele>62</ele>
        <time>2020-12-29T13:04:09.000Z</time>
      </trkpt>
      <trkpt lat="47.11205" lon="-1.94698">
        <ele>62</ele>
        <time>2020-12-29T13:04:11.000Z</time>
      </trkpt>
      <trkpt lat="47.11196" lon="-1.94711">
        <ele>62</ele>
        <time>2020-12-29T13:04:13.000Z</time>
      </trkpt>
      <trkpt lat="47.11187" lon="-1.94724">
        <ele>61</ele>
        <time>2020-12-29T13:04:15.000Z</time>
      </trkpt>
      <trkpt lat="47.11179" lon="-1.94738">
        <ele>61</ele>
        <time>2020-12-29T13:04:17.000Z</time>
      </trkpt>
      <trkpt lat="47.1117" lon="-1.94752">
        <ele>61</ele>
        <time>2020-12-29T13:04:19.000Z</time>
      </trkpt>
      <trkpt lat="47.11162" lon="-1.94765">
        <ele>62</ele>
        <time>2020-12-29T13:04:21.000Z</time>
      </trkpt>
      <trkpt lat="47.11153" lon="-1.94779">
        <ele>62</ele>
        <time>2020-12-29T13:04:23.000Z</time>
      </trkpt>
      <trkpt lat="47.11145" lon="-1.94792">
        <ele>62</ele>
        <time>2020-12-29T13:04:25.000Z</time>
      </trkpt>
      <trkpt lat="47.11136" lon="-1.94805">
        <ele>62</ele>
        <time>2020-12-29T13:04:27.000Z</time>
      </trkpt>
      <trkpt lat="47.11128" lon="-1.9482">
        <ele>62</ele>
        <time>2020-12-29T13:04:29.000Z</time>
      </trkpt>
      <trkpt lat="47.1112" lon="-1.94834">
        <ele>62</ele>
        <time>2020-12-29T13:04:31.000Z</time>
      </trkpt>
      <trkpt lat="47.11114" lon="-1.94851">
        <ele>63</ele>
        <time>2020-12-29T13:04:33.000Z</time>
      </trkpt>
      <trkpt lat="47.11108" lon="-1.94868">
        <ele>63</ele>
        <time>2020-12-29T13:04:35.000Z</time>
      </trkpt>
      <trkpt lat="47.11101" lon="-1.94885">
        <ele>62</ele>
        <time>2020-12-29T13:04:37.000Z</time>
      </trkpt>
      <trkpt lat="47.11095" lon="-1.94901">
        <ele>62</ele>
        <time>2020-12-29T13:04:39.000Z</time>
      </trkpt>
      <trkpt lat="47.11087" lon="-1.94916">
        <ele>62</ele>
        <time>2020-12-29T13:04:41.000Z</time>
      </trkpt>
      <trkpt lat="47.11078" lon="-1.94931">
        <ele>61</ele>
        <time>2020-12-29T13:04:43.000Z</time>
      </trkpt>
      <trkpt lat="47.11069" lon="-1.94944">
        <ele>61</ele>
        <time>2020-12-29T13:04:45.000Z</time>
      </trkpt>
      <trkpt lat="47.11059" lon="-1.94957">
        <ele>61</ele>
        <time>2020-12-29T13:04:47.000Z</time>
      </trkpt>
      <trkpt lat="47.11049" lon="-1.94968">
        <ele>61</ele>
        <time>2020-12-29T13:04:49.000Z</time>
      </trkpt>
      <trkpt lat="47.11038" lon="-1.94979">
        <ele>61</ele>
        <time>2020-12-29T13:04:51.000Z</time>
      </trkpt>
      <trkpt lat="47.11027" lon="-1.9499">
        <ele>61</ele>
        <time>2020-12-29T13:04:53.000Z</time>
      </trkpt>
      <trkpt lat="47.11017" lon="-1.95001">
        <ele>62</ele>
        <time>2020-12-29T13:04:55.000Z</time>
      </trkpt>
      <trkpt lat="47.11007" lon="-1.95013">
        <ele>61</ele>
        <time>2020-12-29T13:04:57.000Z</time>
      </trkpt>
      <trkpt lat="47.10997" lon="-1.95025">
        <ele>61</ele>
        <time>2020-12-29T13:04:59.000Z</time>
      </trkpt>
      <trkpt lat="47.10988" lon="-1.95039">
        <ele>62</ele>
        <time>2020-12-29T13:05:01.000Z</time>
      </trkpt>
      <trkpt lat="47.10981" lon="-1.95054">
        <ele>63</ele>
        <time>2020-12-29T13:05:03.000Z</time>
      </trkpt>
      <trkpt lat="47.10972" lon="-1.95068">
        <ele>63</ele>
        <time>2020-12-29T13:05:05.000Z</time>
      </trkpt>
      <trkpt lat="47.10963" lon="-1.95082">
        <ele>63</ele>
        <time>2020-12-29T13:05:07.000Z</time>
      </trkpt>
      <trkpt lat="47.10955" lon="-1.95095">
        <ele>63</ele>
        <time>2020-12-29T13:05:09.000Z</time>
      </trkpt>
      <trkpt lat="47.10947" lon="-1.9511">
        <ele>63</ele>
        <time>2020-12-29T13:05:11.000Z</time>
      </trkpt>
      <trkpt lat="47.10939" lon="-1.95124">
        <ele>63</ele>
        <time>2020-12-29T13:05:13.000Z</time>
      </trkpt>
      <trkpt lat="47.10931" lon="-1.95137">
        <ele>63</ele>
        <time>2020-12-29T13:05:15.000Z</time>
      </trkpt>
      <trkpt lat="47.10924" lon="-1.95151">
        <ele>63</ele>
        <time>2020-12-29T13:05:17.000Z</time>
      </trkpt>
      <trkpt lat="47.10916" lon="-1.95165">
        <ele>62</ele>
        <time>2020-12-29T13:05:19.000Z</time>
      </trkpt>
      <trkpt lat="47.10908" lon="-1.95179">
        <ele>62</ele>
        <time>2020-12-29T13:05:21.000Z</time>
      </trkpt>
      <trkpt lat="47.109" lon="-1.95193">
        <ele>63</ele>
        <time>2020-12-29T13:05:23.000Z</time>
      </trkpt>
      <trkpt lat="47.10891" lon="-1.95208">
        <ele>63</ele>
        <time>2020-12-29T13:05:25.000Z</time>
      </trkpt>
      <trkpt lat="47.10882" lon="-1.95222">
        <ele>64</ele>
        <time>2020-12-29T13:05:27.000Z</time>
      </trkpt>
      <trkpt lat="47.10873" lon="-1.95236">
        <ele>63</ele>
        <time>2020-12-29T13:05:29.000Z</time>
      </trkpt>
      <trkpt lat="47.10865" lon="-1.95249">
        <ele>63</ele>
        <time>2020-12-29T13:05:31.000Z</time>
      </trkpt>
      <trkpt lat="47.10857" lon="-1.95262">
        <ele>63</ele>
        <time>2020-12-29T13:05:33.000Z</time>
      </trkpt>
      <trkpt lat="47.10848" lon="-1.95277">
        <ele>63</ele>
        <time>2020-12-29T13:05:35.000Z</time>
      </trkpt>
      <trkpt lat="47.1084" lon="-1.95289">
        <ele>63</ele>
        <time>2020-12-29T13:05:37.000Z</time>
      </trkpt>
      <trkpt lat="47.10833" lon="-1.95302">
        <ele>63</ele>
        <time>2020-12-29T13:05:39.000Z</time>
      </trkpt>
      <trkpt lat="47.10824" lon="-1.95316">
        <ele>63</ele>
        <time>2020-12-29T13:05:41.000Z</time>
      </trkpt>
      <trkpt lat="47.10817" lon="-1.95328">
        <ele>63</ele>
        <time>2020-12-29T13:05:43.000Z</time>
      </trkpt>
      <trkpt lat="47.1081" lon="-1.95341">
        <ele>64</ele>
        <time>2020-12-29T13:05:45.000Z</time>
      </trkpt>
      <trkpt lat="47.10803" lon="-1.95354">
        <ele>64</ele>
        <time>2020-12-29T13:05:47.000Z</time>
      </trkpt>
      <trkpt lat="47.10795" lon="-1.95366">
        <ele>64</ele>
        <time>2020-12-29T13:05:49.000Z</time>
      </trkpt>
      <trkpt lat="47.10788" lon="-1.95379">
        <ele>65</ele>
        <time>2020-12-29T13:05:51.000Z</time>
      </trkpt>
      <trkpt lat="47.10781" lon="-1.95391">
        <ele>65</ele>
        <time>2020-12-29T13:05:53.000Z</time>
      </trkpt>
      <trkpt lat="47.10773" lon="-1.95403">
        <ele>65</ele>
        <time>2020-12-29T13:05:55.000Z</time>
      </trkpt>
      <trkpt lat="47.10766" lon="-1.95416">
        <ele>65</ele>
        <time>2020-12-29T13:05:57.000Z</time>
      </trkpt>
      <trkpt lat="47.10759" lon="-1.95428">
        <ele>66</ele>
        <time>2020-12-29T13:05:59.000Z</time>
      </trkpt>
      <trkpt lat="47.10751" lon="-1.95441">
        <ele>66</ele>
        <time>2020-12-29T13:06:01.000Z</time>
      </trkpt>
      <trkpt lat="47.10742" lon="-1.95453">
        <ele>65</ele>
        <time>2020-12-29T13:06:03.000Z</time>
      </trkpt>
      <trkpt lat="47.10734" lon="-1.95466">
        <ele>66</ele>
        <time>2020-12-29T13:06:05.000Z</time>
      </trkpt>
      <trkpt lat="47.10725" lon="-1.95477">
        <ele>66</ele>
        <time>2020-12-29T13:06:07.000Z</time>
      </trkpt>
      <trkpt lat="47.10716" lon="-1.95488">
        <ele>66</ele>
        <time>2020-12-29T13:06:09.000Z</time>
      </trkpt>
      <trkpt lat="47.10707" lon="-1.95499">
        <ele>66</ele>
        <time>2020-12-29T13:06:11.000Z</time>
      </trkpt>
      <trkpt lat="47.10698" lon="-1.9551">
        <ele>67</ele>
        <time>2020-12-29T13:06:13.000Z</time>
      </trkpt>
      <trkpt lat="47.10687" lon="-1.95521">
        <ele>67</ele>
        <time>2020-12-29T13:06:15.000Z</time>
      </trkpt>
      <trkpt lat="47.10678" lon="-1.95532">
        <ele>66</ele>
        <time>2020-12-29T13:06:17.000Z</time>
      </trkpt>
      <trkpt lat="47.10668" lon="-1.95543">
        <ele>66</ele>
        <time>2020-12-29T13:06:19.000Z</time>
      </trkpt>
      <trkpt lat="47.10658" lon="-1.95553">
        <ele>67</ele>
        <time>2020-12-29T13:06:21.000Z</time>
      </trkpt>
      <trkpt lat="47.10647" lon="-1.95564">
        <ele>67</ele>
        <time>2020-12-29T13:06:23.000Z</time>
      </trkpt>
      <trkpt lat="47.10637" lon="-1.95574">
        <ele>67</ele>
        <time>2020-12-29T13:06:25.000Z</time>
      </trkpt>
      <trkpt lat="47.10627" lon="-1.95584">
        <ele>67</ele>
        <time>2020-12-29T13:06:27.000Z</time>
      </trkpt>
      <trkpt lat="47.10617" lon="-1.95593">
        <ele>67</ele>
        <time>2020-12-29T13:06:29.000Z</time>
      </trkpt>
      <trkpt lat="47.10606" lon="-1.95602">
        <ele>67</ele>
        <time>2020-12-29T13:06:31.000Z</time>
      </trkpt>
      <trkpt lat="47.10594" lon="-1.95608">
        <ele>67</ele>
        <time>2020-12-29T13:06:33.000Z</time>
      </trkpt>
      <trkpt lat="47.10582" lon="-1.95614">
        <ele>67</ele>
        <time>2020-12-29T13:06:35.000Z</time>
      </trkpt>
      <trkpt lat="47.1057" lon="-1.9562">
        <ele>67</ele>
        <time>2020-12-29T13:06:37.000Z</time>
      </trkpt>
      <trkpt lat="47.10557" lon="-1.95626">
        <ele>67</ele>
        <time>2020-12-29T13:06:39.000Z</time>
      </trkpt>
      <trkpt lat="47.10545" lon="-1.95632">
        <ele>67</ele>
        <time>2020-12-29T13:06:41.000Z</time>
      </trkpt>
      <trkpt lat="47.10533" lon="-1.95637">
        <ele>66</ele>
        <time>2020-12-29T13:06:43.000Z</time>
      </trkpt>
      <trkpt lat="47.1052" lon="-1.95643">
        <ele>66</ele>
        <time>2020-12-29T13:06:45.000Z</time>
      </trkpt>
      <trkpt lat="47.10508" lon="-1.95649">
        <ele>66</ele>
        <time>2020-12-29T13:06:47.000Z</time>
      </trkpt>
      <trkpt lat="47.10495" lon="-1.95655">
        <ele>66</ele>
        <time>2020-12-29T13:06:49.000Z</time>
      </trkpt>
      <trkpt lat="47.10483" lon="-1.95661">
        <ele>66</ele>
        <time>2020-12-29T13:06:51.000Z</time>
      </trkpt>
      <trkpt lat="47.10471" lon="-1.95667">
        <ele>66</ele>
        <time>2020-12-29T13:06:53.000Z</time>
      </trkpt>
      <trkpt lat="47.10458" lon="-1.95672">
        <ele>66</ele>
        <time>2020-12-29T13:06:55.000Z</time>
      </trkpt>
      <trkpt lat="47.10447" lon="-1.95678">
        <ele>66</ele>
        <time>2020-12-29T13:06:57.000Z</time>
      </trkpt>
      <trkpt lat="47.10434" lon="-1.95685">
        <ele>66</ele>
        <time>2020-12-29T13:06:59.000Z</time>
      </trkpt>
      <trkpt lat="47.10422" lon="-1.95691">
        <ele>66</ele>
        <time>2020-12-29T13:07:01.000Z</time>
      </trkpt>
      <trkpt lat="47.1041" lon="-1.95697">
        <ele>66</ele>
        <time>2020-12-29T13:07:03.000Z</time>
      </trkpt>
      <trkpt lat="47.10397" lon="-1.95703">
        <ele>66</ele>
        <time>2020-12-29T13:07:05.000Z</time>
      </trkpt>
      <trkpt lat="47.10385" lon="-1.95709">
        <ele>66</ele>
        <time>2020-12-29T13:07:07.000Z</time>
      </trkpt>
      <trkpt lat="47.10373" lon="-1.95715">
        <ele>66</ele>
        <time>2020-12-29T13:07:09.000Z</time>
      </trkpt>
      <trkpt lat="47.1036" lon="-1.9572">
        <ele>66</ele>
        <time>2020-12-29T13:07:11.000Z</time>
      </trkpt>
      <trkpt lat="47.10348" lon="-1.95726">
        <ele>66</ele>
        <time>2020-12-29T13:07:13.000Z</time>
      </trkpt>
      <trkpt lat="47.10335" lon="-1.95732">
        <ele>66</ele>
        <time>2020-12-29T13:07:15.000Z</time>
      </trkpt>
      <trkpt lat="47.10323" lon="-1.95738">
        <ele>66</ele>
        <time>2020-12-29T13:07:17.000Z</time>
      </trkpt>
      <trkpt lat="47.10311" lon="-1.95743">
        <ele>66</ele>
        <time>2020-12-29T13:07:19.000Z</time>
      </trkpt>
      <trkpt lat="47.10299" lon="-1.9575">
        <ele>66</ele>
        <time>2020-12-29T13:07:21.000Z</time>
      </trkpt>
      <trkpt lat="47.10287" lon="-1.95756">
        <ele>66</ele>
        <time>2020-12-29T13:07:23.000Z</time>
      </trkpt>
      <trkpt lat="47.10274" lon="-1.95762">
        <ele>66</ele>
        <time>2020-12-29T13:07:25.000Z</time>
      </trkpt>
      <trkpt lat="47.10262" lon="-1.95767">
        <ele>66</ele>
        <time>2020-12-29T13:07:27.000Z</time>
      </trkpt>
      <trkpt lat="47.1025" lon="-1.95773">
        <ele>66</ele>
        <time>2020-12-29T13:07:29.000Z</time>
      </trkpt>
      <trkpt lat="47.10237" lon="-1.95779">
        <ele>66</ele>
        <time>2020-12-29T13:07:31.000Z</time>
      </trkpt>
      <trkpt lat="47.10225" lon="-1.95785">
        <ele>66</ele>
        <time>2020-12-29T13:07:33.000Z</time>
      </trkpt>
      <trkpt lat="47.10213" lon="-1.95793">
        <ele>66</ele>
        <time>2020-12-29T13:07:35.000Z</time>
      </trkpt>
      <trkpt lat="47.10201" lon="-1.95801">
        <ele>67</ele>
        <time>2020-12-29T13:07:37.000Z</time>
      </trkpt>
      <trkpt lat="47.1019" lon="-1.9581">
        <ele>67</ele>
        <time>2020-12-29T13:07:39.000Z</time>
      </trkpt>
      <trkpt lat="47.10179" lon="-1.95818">
        <ele>68</ele>
        <time>2020-12-29T13:07:41.000Z</time>
      </trkpt>
      <trkpt lat="47.10167" lon="-1.95827">
        <ele>68</ele>
        <time>2020-12-29T13:07:43.000Z</time>
      </trkpt>
      <trkpt lat="47.10156" lon="-1.95836">
        <ele>67</ele>
        <time>2020-12-29T13:07:45.000Z</time>
      </trkpt>
      <trkpt lat="47.10146" lon="-1.95845">
        <ele>68</ele>
        <time>2020-12-29T13:07:47.000Z</time>
      </trkpt>
      <trkpt lat="47.10135" lon="-1.95854">
        <ele>68</ele>
        <time>2020-12-29T13:07:49.000Z</time>
      </trkpt>
      <trkpt lat="47.10123" lon="-1.95862">
        <ele>67</ele>
        <time>2020-12-29T13:07:51.000Z</time>
      </trkpt>
      <trkpt lat="47.10112" lon="-1.95871">
        <ele>67</ele>
        <time>2020-12-29T13:07:53.000Z</time>
      </trkpt>
      <trkpt lat="47.101" lon="-1.9588">
        <ele>67</ele>
        <time>2020-12-29T13:07:55.000Z</time>
      </trkpt>
      <trkpt lat="47.10089" lon="-1.95888">
        <ele>66</ele>
        <time>2020-12-29T13:07:57.000Z</time>
      </trkpt>
      <trkpt lat="47.10078" lon="-1.95897">
        <ele>66</ele>
        <time>2020-12-29T13:07:59.000Z</time>
      </trkpt>
      <trkpt lat="47.10066" lon="-1.95906">
        <ele>65</ele>
        <time>2020-12-29T13:08:01.000Z</time>
      </trkpt>
      <trkpt lat="47.10055" lon="-1.95915">
        <ele>65</ele>
        <time>2020-12-29T13:08:03.000Z</time>
      </trkpt>
      <trkpt lat="47.10043" lon="-1.95924">
        <ele>65</ele>
        <time>2020-12-29T13:08:05.000Z</time>
      </trkpt>
      <trkpt lat="47.1003" lon="-1.95934">
        <ele>64</ele>
        <time>2020-12-29T13:08:07.000Z</time>
      </trkpt>
      <trkpt lat="47.10018" lon="-1.95943">
        <ele>63</ele>
        <time>2020-12-29T13:08:09.000Z</time>
      </trkpt>
      <trkpt lat="47.10006" lon="-1.95953">
        <ele>64</ele>
        <time>2020-12-29T13:08:11.000Z</time>
      </trkpt>
      <trkpt lat="47.09993" lon="-1.95962">
        <ele>63</ele>
        <time>2020-12-29T13:08:13.000Z</time>
      </trkpt>
      <trkpt lat="47.09981" lon="-1.9597">
        <ele>63</ele>
        <time>2020-12-29T13:08:15.000Z</time>
      </trkpt>
      <trkpt lat="47.09968" lon="-1.95979">
        <ele>63</ele>
        <time>2020-12-29T13:08:17.000Z</time>
      </trkpt>
      <trkpt lat="47.09956" lon="-1.95987">
        <ele>63</ele>
        <time>2020-12-29T13:08:19.000Z</time>
      </trkpt>
      <trkpt lat="47.09945" lon="-1.95995">
        <ele>63</ele>
        <time>2020-12-29T13:08:21.000Z</time>
      </trkpt>
      <trkpt lat="47.09934" lon="-1.96003">
        <ele>63</ele>
        <time>2020-12-29T13:08:23.000Z</time>
      </trkpt>
      <trkpt lat="47.09923" lon="-1.9601">
        <ele>63</ele>
        <time>2020-12-29T13:08:25.000Z</time>
      </trkpt>
      <trkpt lat="47.09912" lon="-1.96016">
        <ele>64</ele>
        <time>2020-12-29T13:08:27.000Z</time>
      </trkpt>
      <trkpt lat="47.09902" lon="-1.96023">
        <ele>64</ele>
        <time>2020-12-29T13:08:29.000Z</time>
      </trkpt>
      <trkpt lat="47.09892" lon="-1.9603">
        <ele>64</ele>
        <time>2020-12-29T13:08:31.000Z</time>
      </trkpt>
      <trkpt lat="47.09881" lon="-1.96036">
        <ele>64</ele>
        <time>2020-12-29T13:08:33.000Z</time>
      </trkpt>
      <trkpt lat="47.0987" lon="-1.96044">
        <ele>64</ele>
        <time>2020-12-29T13:08:35.000Z</time>
      </trkpt>
      <trkpt lat="47.09858" lon="-1.96051">
        <ele>64</ele>
        <time>2020-12-29T13:08:37.000Z</time>
      </trkpt>
      <trkpt lat="47.09847" lon="-1.96059">
        <ele>64</ele>
        <time>2020-12-29T13:08:39.000Z</time>
      </trkpt>
      <trkpt lat="47.09834" lon="-1.96067">
        <ele>64</ele>
        <time>2020-12-29T13:08:41.000Z</time>
      </trkpt>
      <trkpt lat="47.09822" lon="-1.96076">
        <ele>65</ele>
        <time>2020-12-29T13:08:43.000Z</time>
      </trkpt>
      <trkpt lat="47.09809" lon="-1.96085">
        <ele>65</ele>
        <time>2020-12-29T13:08:45.000Z</time>
      </trkpt>
      <trkpt lat="47.09798" lon="-1.96093">
        <ele>66</ele>
        <time>2020-12-29T13:08:47.000Z</time>
      </trkpt>
      <trkpt lat="47.09787" lon="-1.961">
        <ele>66</ele>
        <time>2020-12-29T13:08:49.000Z</time>
      </trkpt>
      <trkpt lat="47.09776" lon="-1.96108">
        <ele>66</ele>
        <time>2020-12-29T13:08:51.000Z</time>
      </trkpt>
      <trkpt lat="47.09764" lon="-1.96116">
        <ele>66</ele>
        <time>2020-12-29T13:08:53.000Z</time>
      </trkpt>
      <trkpt lat="47.09752" lon="-1.96124">
        <ele>66</ele>
        <time>2020-12-29T13:08:55.000Z</time>
      </trkpt>
      <trkpt lat="47.0974" lon="-1.96131">
        <ele>66</ele>
        <time>2020-12-29T13:08:57.000Z</time>
      </trkpt>
      <trkpt lat="47.09728" lon="-1.96138">
        <ele>67</ele>
        <time>2020-12-29T13:08:59.000Z</time>
      </trkpt>
      <trkpt lat="47.09717" lon="-1.96144">
        <ele>67</ele>
        <time>2020-12-29T13:09:01.000Z</time>
      </trkpt>
      <trkpt lat="47.09705" lon="-1.9615">
        <ele>67</ele>
        <time>2020-12-29T13:09:03.000Z</time>
      </trkpt>
      <trkpt lat="47.09693" lon="-1.96156">
        <ele>67</ele>
        <time>2020-12-29T13:09:05.000Z</time>
      </trkpt>
      <trkpt lat="47.09681" lon="-1.96161">
        <ele>67</ele>
        <time>2020-12-29T13:09:07.000Z</time>
      </trkpt>
      <trkpt lat="47.09669" lon="-1.96167">
        <ele>67</ele>
        <time>2020-12-29T13:09:09.000Z</time>
      </trkpt>
      <trkpt lat="47.09657" lon="-1.96173">
        <ele>67</ele>
        <time>2020-12-29T13:09:11.000Z</time>
      </trkpt>
      <trkpt lat="47.09645" lon="-1.96178">
        <ele>67</ele>
        <time>2020-12-29T13:09:13.000Z</time>
      </trkpt>
      <trkpt lat="47.09634" lon="-1.96184">
        <ele>67</ele>
        <time>2020-12-29T13:09:15.000Z</time>
      </trkpt>
      <trkpt lat="47.09622" lon="-1.96189">
        <ele>67</ele>
        <time>2020-12-29T13:09:17.000Z</time>
      </trkpt>
      <trkpt lat="47.0961" lon="-1.96195">
        <ele>67</ele>
        <time>2020-12-29T13:09:19.000Z</time>
      </trkpt>
      <trkpt lat="47.09599" lon="-1.96201">
        <ele>67</ele>
        <time>2020-12-29T13:09:21.000Z</time>
      </trkpt>
      <trkpt lat="47.09587" lon="-1.96206">
        <ele>67</ele>
        <time>2020-12-29T13:09:23.000Z</time>
      </trkpt>
      <trkpt lat="47.09576" lon="-1.96213">
        <ele>68</ele>
        <time>2020-12-29T13:09:25.000Z</time>
      </trkpt>
      <trkpt lat="47.09566" lon="-1.96219">
        <ele>68</ele>
        <time>2020-12-29T13:09:27.000Z</time>
      </trkpt>
      <trkpt lat="47.09555" lon="-1.96224">
        <ele>68</ele>
        <time>2020-12-29T13:09:29.000Z</time>
      </trkpt>
      <trkpt lat="47.09543" lon="-1.96228">
        <ele>68</ele>
        <time>2020-12-29T13:09:31.000Z</time>
      </trkpt>
      <trkpt lat="47.09532" lon="-1.9623">
        <ele>68</ele>
        <time>2020-12-29T13:09:33.000Z</time>
      </trkpt>
      <trkpt lat="47.09519" lon="-1.96231">
        <ele>68</ele>
        <time>2020-12-29T13:09:35.000Z</time>
      </trkpt>
      <trkpt lat="47.09506" lon="-1.96232">
        <ele>68</ele>
        <time>2020-12-29T13:09:37.000Z</time>
      </trkpt>
      <trkpt lat="47.09492" lon="-1.96231">
        <ele>68</ele>
        <time>2020-12-29T13:09:39.000Z</time>
      </trkpt>
      <trkpt lat="47.09479" lon="-1.9623">
        <ele>67</ele>
        <time>2020-12-29T13:09:41.000Z</time>
      </trkpt>
      <trkpt lat="47.09465" lon="-1.96229">
        <ele>67</ele>
        <time>2020-12-29T13:09:43.000Z</time>
      </trkpt>
      <trkpt lat="47.09452" lon="-1.96229">
        <ele>67</ele>
        <time>2020-12-29T13:09:45.000Z</time>
      </trkpt>
      <trkpt lat="47.09439" lon="-1.9623">
        <ele>67</ele>
        <time>2020-12-29T13:09:47.000Z</time>
      </trkpt>
      <trkpt lat="47.09426" lon="-1.9623">
        <ele>66</ele>
        <time>2020-12-29T13:09:49.000Z</time>
      </trkpt>
      <trkpt lat="47.09412" lon="-1.96231">
        <ele>66</ele>
        <time>2020-12-29T13:09:51.000Z</time>
      </trkpt>
      <trkpt lat="47.09399" lon="-1.96234">
        <ele>66</ele>
        <time>2020-12-29T13:09:53.000Z</time>
      </trkpt>
      <trkpt lat="47.09386" lon="-1.96236">
        <ele>65</ele>
        <time>2020-12-29T13:09:55.000Z</time>
      </trkpt>
      <trkpt lat="47.09372" lon="-1.96239">
        <ele>65</ele>
        <time>2020-12-29T13:09:57.000Z</time>
      </trkpt>
      <trkpt lat="47.0936" lon="-1.96243">
        <ele>65</ele>
        <time>2020-12-29T13:09:59.000Z</time>
      </trkpt>
      <trkpt lat="47.09346" lon="-1.96248">
        <ele>64</ele>
        <time>2020-12-29T13:10:01.000Z</time>
      </trkpt>
      <trkpt lat="47.09332" lon="-1.96253">
        <ele>64</ele>
        <time>2020-12-29T13:10:03.000Z</time>
      </trkpt>
      <trkpt lat="47.09319" lon="-1.96258">
        <ele>64</ele>
        <time>2020-12-29T13:10:05.000Z</time>
      </trkpt>
      <trkpt lat="47.09306" lon="-1.96264">
        <ele>63</ele>
        <time>2020-12-29T13:10:07.000Z</time>
      </trkpt>
      <trkpt lat="47.09294" lon="-1.9627">
        <ele>64</ele>
        <time>2020-12-29T13:10:09.000Z</time>
      </trkpt>
      <trkpt lat="47.09282" lon="-1.96278">
        <ele>64</ele>
        <time>2020-12-29T13:10:11.000Z</time>
      </trkpt>
      <trkpt lat="47.0927" lon="-1.96286">
        <ele>63</ele>
        <time>2020-12-29T13:10:13.000Z</time>
      </trkpt>
      <trkpt lat="47.09259" lon="-1.96294">
        <ele>63</ele>
        <time>2020-12-29T13:10:15.000Z</time>
      </trkpt>
      <trkpt lat="47.09247" lon="-1.96303">
        <ele>63</ele>
        <time>2020-12-29T13:10:17.000Z</time>
      </trkpt>
      <trkpt lat="47.09236" lon="-1.96313">
        <ele>63</ele>
        <time>2020-12-29T13:10:19.000Z</time>
      </trkpt>
      <trkpt lat="47.09225" lon="-1.96322">
        <ele>63</ele>
        <time>2020-12-29T13:10:21.000Z</time>
      </trkpt>
      <trkpt lat="47.09214" lon="-1.96333">
        <ele>63</ele>
        <time>2020-12-29T13:10:23.000Z</time>
      </trkpt>
      <trkpt lat="47.09203" lon="-1.96343">
        <ele>63</ele>
        <time>2020-12-29T13:10:25.000Z</time>
      </trkpt>
      <trkpt lat="47.09194" lon="-1.96353">
        <ele>63</ele>
        <time>2020-12-29T13:10:27.000Z</time>
      </trkpt>
      <trkpt lat="47.09184" lon="-1.96363">
        <ele>64</ele>
        <time>2020-12-29T13:10:29.000Z</time>
      </trkpt>
      <trkpt lat="47.09174" lon="-1.96373">
        <ele>64</ele>
        <time>2020-12-29T13:10:31.000Z</time>
      </trkpt>
      <trkpt lat="47.09165" lon="-1.96382">
        <ele>65</ele>
        <time>2020-12-29T13:10:33.000Z</time>
      </trkpt>
      <trkpt lat="47.09155" lon="-1.96391">
        <ele>65</ele>
        <time>2020-12-29T13:10:35.000Z</time>
      </trkpt>
      <trkpt lat="47.09145" lon="-1.96401">
        <ele>65</ele>
        <time>2020-12-29T13:10:37.000Z</time>
      </trkpt>
      <trkpt lat="47.09136" lon="-1.96411">
        <ele>65</ele>
        <time>2020-12-29T13:10:39.000Z</time>
      </trkpt>
      <trkpt lat="47.09127" lon="-1.9642">
        <ele>66</ele>
        <time>2020-12-29T13:10:41.000Z</time>
      </trkpt>
      <trkpt lat="47.09117" lon="-1.9643">
        <ele>66</ele>
        <time>2020-12-29T13:10:43.000Z</time>
      </trkpt>
      <trkpt lat="47.09109" lon="-1.96439">
        <ele>66</ele>
        <time>2020-12-29T13:10:45.000Z</time>
      </trkpt>
      <trkpt lat="47.09099" lon="-1.96449">
        <ele>66</ele>
        <time>2020-12-29T13:10:47.000Z</time>
      </trkpt>
      <trkpt lat="47.0909" lon="-1.96458">
        <ele>67</ele>
        <time>2020-12-29T13:10:49.000Z</time>
      </trkpt>
      <trkpt lat="47.09081" lon="-1.96467">
        <ele>67</ele>
        <time>2020-12-29T13:10:51.000Z</time>
      </trkpt>
      <trkpt lat="47.09072" lon="-1.96477">
        <ele>67</ele>
        <time>2020-12-29T13:10:53.000Z</time>
      </trkpt>
      <trkpt lat="47.09062" lon="-1.96486">
        <ele>67</ele>
        <time>2020-12-29T13:10:55.000Z</time>
      </trkpt>
      <trkpt lat="47.09054" lon="-1.96496">
        <ele>68</ele>
        <time>2020-12-29T13:10:57.000Z</time>
      </trkpt>
      <trkpt lat="47.09045" lon="-1.96505">
        <ele>68</ele>
        <time>2020-12-29T13:10:59.000Z</time>
      </trkpt>
      <trkpt lat="47.09036" lon="-1.96514">
        <ele>68</ele>
        <time>2020-12-29T13:11:01.000Z</time>
      </trkpt>
      <trkpt lat="47.09027" lon="-1.96523">
        <ele>68</ele>
        <time>2020-12-29T13:11:03.000Z</time>
      </trkpt>
      <trkpt lat="47.09017" lon="-1.96532">
        <ele>68</ele>
        <time>2020-12-29T13:11:05.000Z</time>
      </trkpt>
      <trkpt lat="47.09008" lon="-1.96541">
        <ele>68</ele>
        <time>2020-12-29T13:11:07.000Z</time>
      </trkpt>
      <trkpt lat="47.08999" lon="-1.9655">
        <ele>68</ele>
        <time>2020-12-29T13:11:09.000Z</time>
      </trkpt>
      <trkpt lat="47.0899" lon="-1.96559">
        <ele>69</ele>
        <time>2020-12-29T13:11:11.000Z</time>
      </trkpt>
      <trkpt lat="47.08981" lon="-1.96569">
        <ele>68</ele>
        <time>2020-12-29T13:11:13.000Z</time>
      </trkpt>
      <trkpt lat="47.08971" lon="-1.96578">
        <ele>69</ele>
        <time>2020-12-29T13:11:15.000Z</time>
      </trkpt>
      <trkpt lat="47.08962" lon="-1.96588">
        <ele>69</ele>
        <time>2020-12-29T13:11:17.000Z</time>
      </trkpt>
      <trkpt lat="47.08953" lon="-1.96597">
        <ele>69</ele>
        <time>2020-12-29T13:11:19.000Z</time>
      </trkpt>
      <trkpt lat="47.08944" lon="-1.96607">
        <ele>69</ele>
        <time>2020-12-29T13:11:21.000Z</time>
      </trkpt>
      <trkpt lat="47.08934" lon="-1.96616">
        <ele>69</ele>
        <time>2020-12-29T13:11:23.000Z</time>
      </trkpt>
      <trkpt lat="47.08925" lon="-1.96626">
        <ele>70</ele>
        <time>2020-12-29T13:11:25.000Z</time>
      </trkpt>
      <trkpt lat="47.08916" lon="-1.96635">
        <ele>70</ele>
        <time>2020-12-29T13:11:27.000Z</time>
      </trkpt>
      <trkpt lat="47.08907" lon="-1.96644">
        <ele>70</ele>
        <time>2020-12-29T13:11:29.000Z</time>
      </trkpt>
      <trkpt lat="47.08899" lon="-1.96653">
        <ele>70</ele>
        <time>2020-12-29T13:11:31.000Z</time>
      </trkpt>
      <trkpt lat="47.0889" lon="-1.96663">
        <ele>70</ele>
        <time>2020-12-29T13:11:33.000Z</time>
      </trkpt>
      <trkpt lat="47.0888" lon="-1.96673">
        <ele>70</ele>
        <time>2020-12-29T13:11:35.000Z</time>
      </trkpt>
      <trkpt lat="47.0887" lon="-1.96683">
        <ele>70</ele>
        <time>2020-12-29T13:11:37.000Z</time>
      </trkpt>
      <trkpt lat="47.0886" lon="-1.96693">
        <ele>70</ele>
        <time>2020-12-29T13:11:39.000Z</time>
      </trkpt>
      <trkpt lat="47.0885" lon="-1.96703">
        <ele>70</ele>
        <time>2020-12-29T13:11:41.000Z</time>
      </trkpt>
      <trkpt lat="47.0884" lon="-1.96712">
        <ele>70</ele>
        <time>2020-12-29T13:11:43.000Z</time>
      </trkpt>
      <trkpt lat="47.08831" lon="-1.96722">
        <ele>70</ele>
        <time>2020-12-29T13:11:45.000Z</time>
      </trkpt>
      <trkpt lat="47.08822" lon="-1.9673">
        <ele>71</ele>
        <time>2020-12-29T13:11:47.000Z</time>
      </trkpt>
      <trkpt lat="47.08812" lon="-1.9674">
        <ele>70</ele>
        <time>2020-12-29T13:11:49.000Z</time>
      </trkpt>
      <trkpt lat="47.08803" lon="-1.96749">
        <ele>70</ele>
        <time>2020-12-29T13:11:51.000Z</time>
      </trkpt>
      <trkpt lat="47.08794" lon="-1.96759">
        <ele>70</ele>
        <time>2020-12-29T13:11:53.000Z</time>
      </trkpt>
      <trkpt lat="47.08784" lon="-1.9677">
        <ele>70</ele>
        <time>2020-12-29T13:11:55.000Z</time>
      </trkpt>
      <trkpt lat="47.08774" lon="-1.96779">
        <ele>70</ele>
        <time>2020-12-29T13:11:57.000Z</time>
      </trkpt>
      <trkpt lat="47.08765" lon="-1.96789">
        <ele>70</ele>
        <time>2020-12-29T13:11:59.000Z</time>
      </trkpt>
      <trkpt lat="47.08755" lon="-1.96799">
        <ele>70</ele>
        <time>2020-12-29T13:12:01.000Z</time>
      </trkpt>
      <trkpt lat="47.08745" lon="-1.96808">
        <ele>70</ele>
        <time>2020-12-29T13:12:03.000Z</time>
      </trkpt>
      <trkpt lat="47.08736" lon="-1.96817">
        <ele>71</ele>
        <time>2020-12-29T13:12:05.000Z</time>
      </trkpt>
      <trkpt lat="47.08726" lon="-1.96828">
        <ele>71</ele>
        <time>2020-12-29T13:12:07.000Z</time>
      </trkpt>
      <trkpt lat="47.08717" lon="-1.96838">
        <ele>71</ele>
        <time>2020-12-29T13:12:09.000Z</time>
      </trkpt>
      <trkpt lat="47.08707" lon="-1.96848">
        <ele>70</ele>
        <time>2020-12-29T13:12:11.000Z</time>
      </trkpt>
      <trkpt lat="47.08698" lon="-1.96857">
        <ele>70</ele>
        <time>2020-12-29T13:12:13.000Z</time>
      </trkpt>
      <trkpt lat="47.08689" lon="-1.96867">
        <ele>71</ele>
        <time>2020-12-29T13:12:15.000Z</time>
      </trkpt>
      <trkpt lat="47.08679" lon="-1.96879">
        <ele>71</ele>
        <time>2020-12-29T13:12:17.000Z</time>
      </trkpt>
      <trkpt lat="47.08669" lon="-1.96891">
        <ele>71</ele>
        <time>2020-12-29T13:12:19.000Z</time>
      </trkpt>
      <trkpt lat="47.0866" lon="-1.96904">
        <ele>71</ele>
        <time>2020-12-29T13:12:21.000Z</time>
      </trkpt>
      <trkpt lat="47.0865" lon="-1.96917">
        <ele>71</ele>
        <time>2020-12-29T13:12:23.000Z</time>
      </trkpt>
      <trkpt lat="47.08641" lon="-1.9693">
        <ele>70</ele>
        <time>2020-12-29T13:12:25.000Z</time>
      </trkpt>
      <trkpt lat="47.08632" lon="-1.96943">
        <ele>70</ele>
        <time>2020-12-29T13:12:27.000Z</time>
      </trkpt>
      <trkpt lat="47.08623" lon="-1.96956">
        <ele>70</ele>
        <time>2020-12-29T13:12:29.000Z</time>
      </trkpt>
      <trkpt lat="47.08614" lon="-1.96968">
        <ele>70</ele>
        <time>2020-12-29T13:12:31.000Z</time>
      </trkpt>
      <trkpt lat="47.08605" lon="-1.9698">
        <ele>71</ele>
        <time>2020-12-29T13:12:33.000Z</time>
      </trkpt>
      <trkpt lat="47.08596" lon="-1.96992">
        <ele>71</ele>
        <time>2020-12-29T13:12:35.000Z</time>
      </trkpt>
      <trkpt lat="47.08586" lon="-1.97004">
        <ele>71</ele>
        <time>2020-12-29T13:12:37.000Z</time>
      </trkpt>
      <trkpt lat="47.08576" lon="-1.97014">
        <ele>71</ele>
        <time>2020-12-29T13:12:39.000Z</time>
      </trkpt>
      <trkpt lat="47.08566" lon="-1.97024">
        <ele>71</ele>
        <time>2020-12-29T13:12:41.000Z</time>
      </trkpt>
      <trkpt lat="47.08555" lon="-1.97033">
        <ele>71</ele>
        <time>2020-12-29T13:12:43.000Z</time>
      </trkpt>
      <trkpt lat="47.08544" lon="-1.97042">
        <ele>71</ele>
        <time>2020-12-29T13:12:45.000Z</time>
      </trkpt>
      <trkpt lat="47.08533" lon="-1.9705">
        <ele>70</ele>
        <time>2020-12-29T13:12:47.000Z</time>
      </trkpt>
      <trkpt lat="47.08521" lon="-1.9706">
        <ele>71</ele>
        <time>2020-12-29T13:12:49.000Z</time>
      </trkpt>
      <trkpt lat="47.0851" lon="-1.97069">
        <ele>71</ele>
        <time>2020-12-29T13:12:51.000Z</time>
      </trkpt>
      <trkpt lat="47.08499" lon="-1.97077">
        <ele>71</ele>
        <time>2020-12-29T13:12:53.000Z</time>
      </trkpt>
      <trkpt lat="47.08488" lon="-1.97086">
        <ele>71</ele>
        <time>2020-12-29T13:12:55.000Z</time>
      </trkpt>
      <trkpt lat="47.08477" lon="-1.97095">
        <ele>71</ele>
        <time>2020-12-29T13:12:57.000Z</time>
      </trkpt>
      <trkpt lat="47.08465" lon="-1.97104">
        <ele>71</ele>
        <time>2020-12-29T13:12:59.000Z</time>
      </trkpt>
      <trkpt lat="47.08453" lon="-1.97112">
        <ele>71</ele>
        <time>2020-12-29T13:13:01.000Z</time>
      </trkpt>
      <trkpt lat="47.08441" lon="-1.97121">
        <ele>71</ele>
        <time>2020-12-29T13:13:03.000Z</time>
      </trkpt>
      <trkpt lat="47.0843" lon="-1.9713">
        <ele>70</ele>
        <time>2020-12-29T13:13:05.000Z</time>
      </trkpt>
      <trkpt lat="47.08418" lon="-1.97139">
        <ele>70</ele>
        <time>2020-12-29T13:13:07.000Z</time>
      </trkpt>
      <trkpt lat="47.08407" lon="-1.97148">
        <ele>70</ele>
        <time>2020-12-29T13:13:09.000Z</time>
      </trkpt>
      <trkpt lat="47.08396" lon="-1.97158">
        <ele>70</ele>
        <time>2020-12-29T13:13:11.000Z</time>
      </trkpt>
      <trkpt lat="47.08386" lon="-1.97167">
        <ele>70</ele>
        <time>2020-12-29T13:13:13.000Z</time>
      </trkpt>
      <trkpt lat="47.08375" lon="-1.97177">
        <ele>70</ele>
        <time>2020-12-29T13:13:15.000Z</time>
      </trkpt>
      <trkpt lat="47.08364" lon="-1.97186">
        <ele>70</ele>
        <time>2020-12-29T13:13:17.000Z</time>
      </trkpt>
      <trkpt lat="47.08353" lon="-1.97196">
        <ele>70</ele>
        <time>2020-12-29T13:13:19.000Z</time>
      </trkpt>
      <trkpt lat="47.08342" lon="-1.97205">
        <ele>70</ele>
        <time>2020-12-29T13:13:21.000Z</time>
      </trkpt>
      <trkpt lat="47.08332" lon="-1.97215">
        <ele>70</ele>
        <time>2020-12-29T13:13:23.000Z</time>
      </trkpt>
      <trkpt lat="47.08321" lon="-1.97224">
        <ele>71</ele>
        <time>2020-12-29T13:13:25.000Z</time>
      </trkpt>
      <trkpt lat="47.08311" lon="-1.97234">
        <ele>71</ele>
        <time>2020-12-29T13:13:27.000Z</time>
      </trkpt>
      <trkpt lat="47.083" lon="-1.97243">
        <ele>71</ele>
        <time>2020-12-29T13:13:29.000Z</time>
      </trkpt>
      <trkpt lat="47.08289" lon="-1.97253">
        <ele>72</ele>
        <time>2020-12-29T13:13:31.000Z</time>
      </trkpt>
      <trkpt lat="47.08279" lon="-1.97262">
        <ele>72</ele>
        <time>2020-12-29T13:13:33.000Z</time>
      </trkpt>
      <trkpt lat="47.08267" lon="-1.97271">
        <ele>72</ele>
        <time>2020-12-29T13:13:35.000Z</time>
      </trkpt>
      <trkpt lat="47.08256" lon="-1.9728">
        <ele>72</ele>
        <time>2020-12-29T13:13:37.000Z</time>
      </trkpt>
      <trkpt lat="47.08246" lon="-1.9729">
        <ele>72</ele>
        <time>2020-12-29T13:13:39.000Z</time>
      </trkpt>
      <trkpt lat="47.08234" lon="-1.973">
        <ele>72</ele>
        <time>2020-12-29T13:13:41.000Z</time>
      </trkpt>
      <trkpt lat="47.08224" lon="-1.97309">
        <ele>72</ele>
        <time>2020-12-29T13:13:43.000Z</time>
      </trkpt>
      <trkpt lat="47.08213" lon="-1.97319">
        <ele>72</ele>
        <time>2020-12-29T13:13:45.000Z</time>
      </trkpt>
      <trkpt lat="47.08202" lon="-1.97327">
        <ele>72</ele>
        <time>2020-12-29T13:13:47.000Z</time>
      </trkpt>
      <trkpt lat="47.08191" lon="-1.97336">
        <ele>71</ele>
        <time>2020-12-29T13:13:49.000Z</time>
      </trkpt>
      <trkpt lat="47.08179" lon="-1.97344">
        <ele>71</ele>
        <time>2020-12-29T13:13:51.000Z</time>
      </trkpt>
      <trkpt lat="47.08167" lon="-1.97352">
        <ele>71</ele>
        <time>2020-12-29T13:13:53.000Z</time>
      </trkpt>
      <trkpt lat="47.08156" lon="-1.97359">
        <ele>71</ele>
        <time>2020-12-29T13:13:55.000Z</time>
      </trkpt>
      <trkpt lat="47.08143" lon="-1.97366">
        <ele>71</ele>
        <time>2020-12-29T13:13:57.000Z</time>
      </trkpt>
      <trkpt lat="47.0813" lon="-1.97374">
        <ele>71</ele>
        <time>2020-12-29T13:13:59.000Z</time>
      </trkpt>
      <trkpt lat="47.08119" lon="-1.97382">
        <ele>72</ele>
        <time>2020-12-29T13:14:01.000Z</time>
      </trkpt>
      <trkpt lat="47.08107" lon="-1.97389">
        <ele>71</ele>
        <time>2020-12-29T13:14:03.000Z</time>
      </trkpt>
      <trkpt lat="47.08094" lon="-1.97397">
        <ele>71</ele>
        <time>2020-12-29T13:14:05.000Z</time>
      </trkpt>
      <trkpt lat="47.08082" lon="-1.97405">
        <ele>71</ele>
        <time>2020-12-29T13:14:07.000Z</time>
      </trkpt>
      <trkpt lat="47.08068" lon="-1.97413">
        <ele>70</ele>
        <time>2020-12-29T13:14:09.000Z</time>
      </trkpt>
      <trkpt lat="47.08055" lon="-1.9742">
        <ele>70</ele>
        <time>2020-12-29T13:14:11.000Z</time>
      </trkpt>
      <trkpt lat="47.08043" lon="-1.97428">
        <ele>70</ele>
        <time>2020-12-29T13:14:13.000Z</time>
      </trkpt>
      <trkpt lat="47.08031" lon="-1.97436">
        <ele>70</ele>
        <time>2020-12-29T13:14:15.000Z</time>
      </trkpt>
      <trkpt lat="47.08018" lon="-1.97444">
        <ele>71</ele>
        <time>2020-12-29T13:14:17.000Z</time>
      </trkpt>
      <trkpt lat="47.08006" lon="-1.97452">
        <ele>71</ele>
        <time>2020-12-29T13:14:19.000Z</time>
      </trkpt>
      <trkpt lat="47.07993" lon="-1.97459">
        <ele>70</ele>
        <time>2020-12-29T13:14:21.000Z</time>
      </trkpt>
      <trkpt lat="47.0798" lon="-1.97467">
        <ele>70</ele>
        <time>2020-12-29T13:14:23.000Z</time>
      </trkpt>
      <trkpt lat="47.07967" lon="-1.97474">
        <ele>68</ele>
        <time>2020-12-29T13:14:25.000Z</time>
      </trkpt>
      <trkpt lat="47.07954" lon="-1.97482">
        <ele>68</ele>
        <time>2020-12-29T13:14:27.000Z</time>
      </trkpt>
      <trkpt lat="47.07941" lon="-1.9749">
        <ele>68</ele>
        <time>2020-12-29T13:14:29.000Z</time>
      </trkpt>
      <trkpt lat="47.07929" lon="-1.97497">
        <ele>68</ele>
        <time>2020-12-29T13:14:31.000Z</time>
      </trkpt>
      <trkpt lat="47.07917" lon="-1.97505">
        <ele>68</ele>
        <time>2020-12-29T13:14:33.000Z</time>
      </trkpt>
      <trkpt lat="47.07904" lon="-1.97513">
        <ele>68</ele>
        <time>2020-12-29T13:14:35.000Z</time>
      </trkpt>
      <trkpt lat="47.07892" lon="-1.9752">
        <ele>68</ele>
        <time>2020-12-29T13:14:37.000Z</time>
      </trkpt>
      <trkpt lat="47.0788" lon="-1.97527">
        <ele>68</ele>
        <time>2020-12-29T13:14:39.000Z</time>
      </trkpt>
      <trkpt lat="47.07867" lon="-1.97533">
        <ele>68</ele>
        <time>2020-12-29T13:14:41.000Z</time>
      </trkpt>
      <trkpt lat="47.07854" lon="-1.9754">
        <ele>67</ele>
        <time>2020-12-29T13:14:43.000Z</time>
      </trkpt>
      <trkpt lat="47.07841" lon="-1.97547">
        <ele>67</ele>
        <time>2020-12-29T13:14:45.000Z</time>
      </trkpt>
      <trkpt lat="47.07827" lon="-1.97552">
        <ele>67</ele>
        <time>2020-12-29T13:14:47.000Z</time>
      </trkpt>
      <trkpt lat="47.07814" lon="-1.97557">
        <ele>68</ele>
        <time>2020-12-29T13:14:49.000Z</time>
      </trkpt>
      <trkpt lat="47.078" lon="-1.97561">
        <ele>67</ele>
        <time>2020-12-29T13:14:51.000Z</time>
      </trkpt>
      <trkpt lat="47.07787" lon="-1.97564">
        <ele>66</ele>
        <time>2020-12-29T13:14:53.000Z</time>
      </trkpt>
      <trkpt lat="47.07773" lon="-1.97567">
        <ele>66</ele>
        <time>2020-12-29T13:14:55.000Z</time>
      </trkpt>
      <trkpt lat="47.07759" lon="-1.97571">
        <ele>65</ele>
        <time>2020-12-29T13:14:57.000Z</time>
      </trkpt>
      <trkpt lat="47.07746" lon="-1.97575">
        <ele>66</ele>
        <time>2020-12-29T13:14:59.000Z</time>
      </trkpt>
      <trkpt lat="47.07732" lon="-1.97579">
        <ele>66</ele>
        <time>2020-12-29T13:15:01.000Z</time>
      </trkpt>
      <trkpt lat="47.07718" lon="-1.97582">
        <ele>65</ele>
        <time>2020-12-29T13:15:03.000Z</time>
      </trkpt>
      <trkpt lat="47.07705" lon="-1.97585">
        <ele>65</ele>
        <time>2020-12-29T13:15:05.000Z</time>
      </trkpt>
      <trkpt lat="47.07691" lon="-1.97589">
        <ele>65</ele>
        <time>2020-12-29T13:15:07.000Z</time>
      </trkpt>
      <trkpt lat="47.07678" lon="-1.97593">
        <ele>66</ele>
        <time>2020-12-29T13:15:09.000Z</time>
      </trkpt>
      <trkpt lat="47.07665" lon="-1.97596">
        <ele>66</ele>
        <time>2020-12-29T13:15:11.000Z</time>
      </trkpt>
      <trkpt lat="47.07651" lon="-1.976">
        <ele>66</ele>
        <time>2020-12-29T13:15:13.000Z</time>
      </trkpt>
      <trkpt lat="47.07638" lon="-1.97604">
        <ele>66</ele>
        <time>2020-12-29T13:15:15.000Z</time>
      </trkpt>
      <trkpt lat="47.07626" lon="-1.97607">
        <ele>66</ele>
        <time>2020-12-29T13:15:17.000Z</time>
      </trkpt>
      <trkpt lat="47.07613" lon="-1.9761">
        <ele>66</ele>
        <time>2020-12-29T13:15:19.000Z</time>
      </trkpt>
      <trkpt lat="47.07601" lon="-1.97613">
        <ele>66</ele>
        <time>2020-12-29T13:15:21.000Z</time>
      </trkpt>
      <trkpt lat="47.07589" lon="-1.97617">
        <ele>66</ele>
        <time>2020-12-29T13:15:23.000Z</time>
      </trkpt>
      <trkpt lat="47.07577" lon="-1.97622">
        <ele>66</ele>
        <time>2020-12-29T13:15:25.000Z</time>
      </trkpt>
      <trkpt lat="47.07565" lon="-1.97626">
        <ele>66</ele>
        <time>2020-12-29T13:15:27.000Z</time>
      </trkpt>
      <trkpt lat="47.07553" lon="-1.97631">
        <ele>66</ele>
        <time>2020-12-29T13:15:29.000Z</time>
      </trkpt>
      <trkpt lat="47.07541" lon="-1.97636">
        <ele>66</ele>
        <time>2020-12-29T13:15:31.000Z</time>
      </trkpt>
      <trkpt lat="47.07529" lon="-1.97642">
        <ele>66</ele>
        <time>2020-12-29T13:15:33.000Z</time>
      </trkpt>
      <trkpt lat="47.07518" lon="-1.97649">
        <ele>66</ele>
        <time>2020-12-29T13:15:35.000Z</time>
      </trkpt>
      <trkpt lat="47.07507" lon="-1.97657">
        <ele>66</ele>
        <time>2020-12-29T13:15:37.000Z</time>
      </trkpt>
      <trkpt lat="47.07497" lon="-1.97664">
        <ele>67</ele>
        <time>2020-12-29T13:15:39.000Z</time>
      </trkpt>
      <trkpt lat="47.07487" lon="-1.97671">
        <ele>66</ele>
        <time>2020-12-29T13:15:41.000Z</time>
      </trkpt>
      <trkpt lat="47.07477" lon="-1.97678">
        <ele>66</ele>
        <time>2020-12-29T13:15:43.000Z</time>
      </trkpt>
      <trkpt lat="47.07466" lon="-1.97686">
        <ele>66</ele>
        <time>2020-12-29T13:15:45.000Z</time>
      </trkpt>
      <trkpt lat="47.07455" lon="-1.97695">
        <ele>66</ele>
        <time>2020-12-29T13:15:47.000Z</time>
      </trkpt>
      <trkpt lat="47.07443" lon="-1.97705">
        <ele>66</ele>
        <time>2020-12-29T13:15:49.000Z</time>
      </trkpt>
      <trkpt lat="47.0743" lon="-1.97715">
        <ele>66</ele>
        <time>2020-12-29T13:15:51.000Z</time>
      </trkpt>
      <trkpt lat="47.07416" lon="-1.97724">
        <ele>66</ele>
        <time>2020-12-29T13:15:53.000Z</time>
      </trkpt>
      <trkpt lat="47.07401" lon="-1.97732">
        <ele>66</ele>
        <time>2020-12-29T13:15:55.000Z</time>
      </trkpt>
      <trkpt lat="47.07387" lon="-1.97739">
        <ele>66</ele>
        <time>2020-12-29T13:15:57.000Z</time>
      </trkpt>
      <trkpt lat="47.07371" lon="-1.97745">
        <ele>66</ele>
        <time>2020-12-29T13:15:59.000Z</time>
      </trkpt>
      <trkpt lat="47.07355" lon="-1.9775">
        <ele>66</ele>
        <time>2020-12-29T13:16:01.000Z</time>
      </trkpt>
      <trkpt lat="47.07339" lon="-1.97754">
        <ele>65</ele>
        <time>2020-12-29T13:16:03.000Z</time>
      </trkpt>
      <trkpt lat="47.07321" lon="-1.97756">
        <ele>64</ele>
        <time>2020-12-29T13:16:05.000Z</time>
      </trkpt>
      <trkpt lat="47.07305" lon="-1.97758">
        <ele>64</ele>
        <time>2020-12-29T13:16:07.000Z</time>
      </trkpt>
      <trkpt lat="47.07288" lon="-1.97757">
        <ele>64</ele>
        <time>2020-12-29T13:16:09.000Z</time>
      </trkpt>
      <trkpt lat="47.07272" lon="-1.97756">
        <ele>63</ele>
        <time>2020-12-29T13:16:11.000Z</time>
      </trkpt>
      <trkpt lat="47.07256" lon="-1.97754">
        <ele>62</ele>
        <time>2020-12-29T13:16:13.000Z</time>
      </trkpt>
      <trkpt lat="47.0724" lon="-1.97752">
        <ele>62</ele>
        <time>2020-12-29T13:16:15.000Z</time>
      </trkpt>
      <trkpt lat="47.07224" lon="-1.97749">
        <ele>62</ele>
        <time>2020-12-29T13:16:17.000Z</time>
      </trkpt>
      <trkpt lat="47.0721" lon="-1.97748">
        <ele>61</ele>
        <time>2020-12-29T13:16:19.000Z</time>
      </trkpt>
      <trkpt lat="47.07196" lon="-1.97747">
        <ele>60</ele>
        <time>2020-12-29T13:16:21.000Z</time>
      </trkpt>
      <trkpt lat="47.07181" lon="-1.97746">
        <ele>60</ele>
        <time>2020-12-29T13:16:23.000Z</time>
      </trkpt>
      <trkpt lat="47.07167" lon="-1.97746">
        <ele>59</ele>
        <time>2020-12-29T13:16:25.000Z</time>
      </trkpt>
      <trkpt lat="47.07153" lon="-1.97747">
        <ele>59</ele>
        <time>2020-12-29T13:16:27.000Z</time>
      </trkpt>
      <trkpt lat="47.0714" lon="-1.97748">
        <ele>59</ele>
        <time>2020-12-29T13:16:29.000Z</time>
      </trkpt>
      <trkpt lat="47.07127" lon="-1.97749">
        <ele>59</ele>
        <time>2020-12-29T13:16:31.000Z</time>
      </trkpt>
      <trkpt lat="47.07113" lon="-1.97751">
        <ele>59</ele>
        <time>2020-12-29T13:16:33.000Z</time>
      </trkpt>
      <trkpt lat="47.071" lon="-1.97754">
        <ele>58</ele>
        <time>2020-12-29T13:16:35.000Z</time>
      </trkpt>
      <trkpt lat="47.07087" lon="-1.97756">
        <ele>57</ele>
        <time>2020-12-29T13:16:37.000Z</time>
      </trkpt>
      <trkpt lat="47.07074" lon="-1.9776">
        <ele>57</ele>
        <time>2020-12-29T13:16:39.000Z</time>
      </trkpt>
      <trkpt lat="47.07061" lon="-1.97765">
        <ele>57</ele>
        <time>2020-12-29T13:16:41.000Z</time>
      </trkpt>
      <trkpt lat="47.0705" lon="-1.97769">
        <ele>56</ele>
        <time>2020-12-29T13:16:43.000Z</time>
      </trkpt>
      <trkpt lat="47.07038" lon="-1.97774">
        <ele>56</ele>
        <time>2020-12-29T13:16:45.000Z</time>
      </trkpt>
      <trkpt lat="47.07027" lon="-1.97781">
        <ele>56</ele>
        <time>2020-12-29T13:16:47.000Z</time>
      </trkpt>
      <trkpt lat="47.07017" lon="-1.97786">
        <ele>56</ele>
        <time>2020-12-29T13:16:49.000Z</time>
      </trkpt>
      <trkpt lat="47.07006" lon="-1.97792">
        <ele>56</ele>
        <time>2020-12-29T13:16:51.000Z</time>
      </trkpt>
      <trkpt lat="47.06996" lon="-1.97797">
        <ele>57</ele>
        <time>2020-12-29T13:16:53.000Z</time>
      </trkpt>
      <trkpt lat="47.06986" lon="-1.97803">
        <ele>57</ele>
        <time>2020-12-29T13:16:55.000Z</time>
      </trkpt>
      <trkpt lat="47.06975" lon="-1.9781">
        <ele>58</ele>
        <time>2020-12-29T13:16:57.000Z</time>
      </trkpt>
      <trkpt lat="47.06964" lon="-1.97816">
        <ele>58</ele>
        <time>2020-12-29T13:16:59.000Z</time>
      </trkpt>
      <trkpt lat="47.06953" lon="-1.97822">
        <ele>59</ele>
        <time>2020-12-29T13:17:01.000Z</time>
      </trkpt>
      <trkpt lat="47.06943" lon="-1.97827">
        <ele>59</ele>
        <time>2020-12-29T13:17:03.000Z</time>
      </trkpt>
      <trkpt lat="47.06932" lon="-1.97832">
        <ele>59</ele>
        <time>2020-12-29T13:17:05.000Z</time>
      </trkpt>
      <trkpt lat="47.06923" lon="-1.97838">
        <ele>59</ele>
        <time>2020-12-29T13:17:07.000Z</time>
      </trkpt>
      <trkpt lat="47.06914" lon="-1.97843">
        <ele>59</ele>
        <time>2020-12-29T13:17:09.000Z</time>
      </trkpt>
      <trkpt lat="47.06904" lon="-1.97848">
        <ele>59</ele>
        <time>2020-12-29T13:17:11.000Z</time>
      </trkpt>
      <trkpt lat="47.06895" lon="-1.97854">
        <ele>60</ele>
        <time>2020-12-29T13:17:13.000Z</time>
      </trkpt>
      <trkpt lat="47.06885" lon="-1.9786">
        <ele>61</ele>
        <time>2020-12-29T13:17:15.000Z</time>
      </trkpt>
      <trkpt lat="47.06876" lon="-1.97866">
        <ele>61</ele>
        <time>2020-12-29T13:17:17.000Z</time>
      </trkpt>
      <trkpt lat="47.06866" lon="-1.97873">
        <ele>61</ele>
        <time>2020-12-29T13:17:19.000Z</time>
      </trkpt>
      <trkpt lat="47.06857" lon="-1.9788">
        <ele>61</ele>
        <time>2020-12-29T13:17:21.000Z</time>
      </trkpt>
      <trkpt lat="47.06848" lon="-1.97888">
        <ele>61</ele>
        <time>2020-12-29T13:17:23.000Z</time>
      </trkpt>
      <trkpt lat="47.06838" lon="-1.97896">
        <ele>61</ele>
        <time>2020-12-29T13:17:25.000Z</time>
      </trkpt>
      <trkpt lat="47.06829" lon="-1.97905">
        <ele>62</ele>
        <time>2020-12-29T13:17:27.000Z</time>
      </trkpt>
      <trkpt lat="47.06821" lon="-1.97915">
        <ele>62</ele>
        <time>2020-12-29T13:17:29.000Z</time>
      </trkpt>
      <trkpt lat="47.06812" lon="-1.97924">
        <ele>62</ele>
        <time>2020-12-29T13:17:31.000Z</time>
      </trkpt>
      <trkpt lat="47.06804" lon="-1.97933">
        <ele>63</ele>
        <time>2020-12-29T13:17:33.000Z</time>
      </trkpt>
      <trkpt lat="47.06795" lon="-1.97943">
        <ele>64</ele>
        <time>2020-12-29T13:17:35.000Z</time>
      </trkpt>
      <trkpt lat="47.06787" lon="-1.97952">
        <ele>64</ele>
        <time>2020-12-29T13:17:37.000Z</time>
      </trkpt>
      <trkpt lat="47.06779" lon="-1.97962">
        <ele>64</ele>
        <time>2020-12-29T13:17:39.000Z</time>
      </trkpt>
      <trkpt lat="47.0677" lon="-1.97971">
        <ele>65</ele>
        <time>2020-12-29T13:17:41.000Z</time>
      </trkpt>
      <trkpt lat="47.06762" lon="-1.97981">
        <ele>66</ele>
        <time>2020-12-29T13:17:43.000Z</time>
      </trkpt>
      <trkpt lat="47.06754" lon="-1.97991">
        <ele>66</ele>
        <time>2020-12-29T13:17:45.000Z</time>
      </trkpt>
      <trkpt lat="47.06747" lon="-1.98">
        <ele>67</ele>
        <time>2020-12-29T13:17:47.000Z</time>
      </trkpt>
      <trkpt lat="47.06739" lon="-1.98009">
        <ele>67</ele>
        <time>2020-12-29T13:17:49.000Z</time>
      </trkpt>
      <trkpt lat="47.06731" lon="-1.98018">
        <ele>67</ele>
        <time>2020-12-29T13:17:51.000Z</time>
      </trkpt>
      <trkpt lat="47.06722" lon="-1.98028">
        <ele>68</ele>
        <time>2020-12-29T13:17:53.000Z</time>
      </trkpt>
      <trkpt lat="47.06714" lon="-1.98037">
        <ele>68</ele>
        <time>2020-12-29T13:17:55.000Z</time>
      </trkpt>
      <trkpt lat="47.06705" lon="-1.98046">
        <ele>68</ele>
        <time>2020-12-29T13:17:57.000Z</time>
      </trkpt>
      <trkpt lat="47.06697" lon="-1.98056">
        <ele>68</ele>
        <time>2020-12-29T13:17:59.000Z</time>
      </trkpt>
      <trkpt lat="47.06689" lon="-1.98065">
        <ele>68</ele>
        <time>2020-12-29T13:18:01.000Z</time>
      </trkpt>
      <trkpt lat="47.0668" lon="-1.98073">
        <ele>68</ele>
        <time>2020-12-29T13:18:03.000Z</time>
      </trkpt>
      <trkpt lat="47.0667" lon="-1.98081">
        <ele>68</ele>
        <time>2020-12-29T13:18:05.000Z</time>
      </trkpt>
      <trkpt lat="47.0666" lon="-1.98087">
        <ele>68</ele>
        <time>2020-12-29T13:18:07.000Z</time>
      </trkpt>
      <trkpt lat="47.0665" lon="-1.98094">
        <ele>68</ele>
        <time>2020-12-29T13:18:09.000Z</time>
      </trkpt>
      <trkpt lat="47.0664" lon="-1.98101">
        <ele>67</ele>
        <time>2020-12-29T13:18:11.000Z</time>
      </trkpt>
      <trkpt lat="47.0663" lon="-1.98107">
        <ele>67</ele>
        <time>2020-12-29T13:18:13.000Z</time>
      </trkpt>
      <trkpt lat="47.06619" lon="-1.98114">
        <ele>67</ele>
        <time>2020-12-29T13:18:15.000Z</time>
      </trkpt>
      <trkpt lat="47.06607" lon="-1.98121">
        <ele>66</ele>
        <time>2020-12-29T13:18:17.000Z</time>
      </trkpt>
      <trkpt lat="47.06595" lon="-1.98128">
        <ele>66</ele>
        <time>2020-12-29T13:18:19.000Z</time>
      </trkpt>
      <trkpt lat="47.06582" lon="-1.98139">
        <ele>65</ele>
        <time>2020-12-29T13:18:21.000Z</time>
      </trkpt>
      <trkpt lat="47.06571" lon="-1.98153">
        <ele>64</ele>
        <time>2020-12-29T13:18:23.000Z</time>
      </trkpt>
      <trkpt lat="47.06563" lon="-1.9817">
        <ele>64</ele>
        <time>2020-12-29T13:18:25.000Z</time>
      </trkpt>
      <trkpt lat="47.06556" lon="-1.98188">
        <ele>63</ele>
        <time>2020-12-29T13:18:27.000Z</time>
      </trkpt>
      <trkpt lat="47.0655" lon="-1.98204">
        <ele>62</ele>
        <time>2020-12-29T13:18:29.000Z</time>
      </trkpt>
      <trkpt lat="47.06544" lon="-1.9822">
        <ele>62</ele>
        <time>2020-12-29T13:18:31.000Z</time>
      </trkpt>
      <trkpt lat="47.06537" lon="-1.98235">
        <ele>61</ele>
        <time>2020-12-29T13:18:33.000Z</time>
      </trkpt>
      <trkpt lat="47.0653" lon="-1.98246">
        <ele>61</ele>
        <time>2020-12-29T13:18:35.000Z</time>
      </trkpt>
      <trkpt lat="47.06522" lon="-1.98239">
        <ele>61</ele>
        <time>2020-12-29T13:18:37.000Z</time>
      </trkpt>
      <trkpt lat="47.06519" lon="-1.9822">
        <ele>60</ele>
        <time>2020-12-29T13:18:39.000Z</time>
      </trkpt>
      <trkpt lat="47.06516" lon="-1.98201">
        <ele>59</ele>
        <time>2020-12-29T13:18:41.000Z</time>
      </trkpt>
      <trkpt lat="47.06513" lon="-1.98182">
        <ele>58</ele>
        <time>2020-12-29T13:18:43.000Z</time>
      </trkpt>
      <trkpt lat="47.06509" lon="-1.98162">
        <ele>58</ele>
        <time>2020-12-29T13:18:45.000Z</time>
      </trkpt>
      <trkpt lat="47.06506" lon="-1.9814">
        <ele>57</ele>
        <time>2020-12-29T13:18:47.000Z</time>
      </trkpt>
      <trkpt lat="47.06505" lon="-1.98117">
        <ele>57</ele>
        <time>2020-12-29T13:18:49.000Z</time>
      </trkpt>
      <trkpt lat="47.06505" lon="-1.98096">
        <ele>57</ele>
        <time>2020-12-29T13:18:51.000Z</time>
      </trkpt>
      <trkpt lat="47.06508" lon="-1.98074">
        <ele>58</ele>
        <time>2020-12-29T13:18:53.000Z</time>
      </trkpt>
      <trkpt lat="47.0651" lon="-1.98051">
        <ele>58</ele>
        <time>2020-12-29T13:18:55.000Z</time>
      </trkpt>
      <trkpt lat="47.06508" lon="-1.98031">
        <ele>57</ele>
        <time>2020-12-29T13:18:57.000Z</time>
      </trkpt>
      <trkpt lat="47.06502" lon="-1.98013">
        <ele>57</ele>
        <time>2020-12-29T13:18:59.000Z</time>
      </trkpt>
      <trkpt lat="47.06498" lon="-1.97996">
        <ele>57</ele>
        <time>2020-12-29T13:19:01.000Z</time>
      </trkpt>
      <trkpt lat="47.06494" lon="-1.9798">
        <ele>57</ele>
        <time>2020-12-29T13:19:03.000Z</time>
      </trkpt>
      <trkpt lat="47.06489" lon="-1.97965">
        <ele>57</ele>
        <time>2020-12-29T13:19:05.000Z</time>
      </trkpt>
      <trkpt lat="47.06485" lon="-1.9795">
        <ele>57</ele>
        <time>2020-12-29T13:19:07.000Z</time>
      </trkpt>
      <trkpt lat="47.06482" lon="-1.97935">
        <ele>58</ele>
        <time>2020-12-29T13:19:09.000Z</time>
      </trkpt>
      <trkpt lat="47.0648" lon="-1.97919">
        <ele>58</ele>
        <time>2020-12-29T13:19:11.000Z</time>
      </trkpt>
      <trkpt lat="47.06479" lon="-1.97905">
        <ele>58</ele>
        <time>2020-12-29T13:19:13.000Z</time>
      </trkpt>
      <trkpt lat="47.06477" lon="-1.9789">
        <ele>58</ele>
        <time>2020-12-29T13:19:15.000Z</time>
      </trkpt>
      <trkpt lat="47.06475" lon="-1.97877">
        <ele>58</ele>
        <time>2020-12-29T13:19:17.000Z</time>
      </trkpt>
      <trkpt lat="47.06471" lon="-1.97863">
        <ele>58</ele>
        <time>2020-12-29T13:19:19.000Z</time>
      </trkpt>
      <trkpt lat="47.06461" lon="-1.97855">
        <ele>58</ele>
        <time>2020-12-29T13:19:22.000Z</time>
      </trkpt>
      <trkpt lat="47.06451" lon="-1.97853">
        <ele>59</ele>
        <time>2020-12-29T13:19:24.000Z</time>
      </trkpt>
      <trkpt lat="47.0644" lon="-1.97851">
        <ele>59</ele>
        <time>2020-12-29T13:19:26.000Z</time>
      </trkpt>
      <trkpt lat="47.06428" lon="-1.97849">
        <ele>60</ele>
        <time>2020-12-29T13:19:28.000Z</time>
      </trkpt>
      <trkpt lat="47.06416" lon="-1.97848">
        <ele>61</ele>
        <time>2020-12-29T13:19:30.000Z</time>
      </trkpt>
      <trkpt lat="47.06402" lon="-1.97846">
        <ele>61</ele>
        <time>2020-12-29T13:19:32.000Z</time>
      </trkpt>
      <trkpt lat="47.06388" lon="-1.97845">
        <ele>60</ele>
        <time>2020-12-29T13:19:34.000Z</time>
      </trkpt>
      <trkpt lat="47.06373" lon="-1.97845">
        <ele>60</ele>
        <time>2020-12-29T13:19:36.000Z</time>
      </trkpt>
      <trkpt lat="47.06358" lon="-1.97844">
        <ele>59</ele>
        <time>2020-12-29T13:19:38.000Z</time>
      </trkpt>
      <trkpt lat="47.06342" lon="-1.97842">
        <ele>58</ele>
        <time>2020-12-29T13:19:40.000Z</time>
      </trkpt>
      <trkpt lat="47.06326" lon="-1.97835">
        <ele>58</ele>
        <time>2020-12-29T13:19:42.000Z</time>
      </trkpt>
      <trkpt lat="47.06313" lon="-1.97828">
        <ele>58</ele>
        <time>2020-12-29T13:19:44.000Z</time>
      </trkpt>
      <trkpt lat="47.06301" lon="-1.97822">
        <ele>59</ele>
        <time>2020-12-29T13:19:46.000Z</time>
      </trkpt>
      <trkpt lat="47.06289" lon="-1.97817">
        <ele>59</ele>
        <time>2020-12-29T13:19:48.000Z</time>
      </trkpt>
      <trkpt lat="47.06277" lon="-1.97814">
        <ele>60</ele>
        <time>2020-12-29T13:19:50.000Z</time>
      </trkpt>
      <trkpt lat="47.06264" lon="-1.97813">
        <ele>60</ele>
        <time>2020-12-29T13:19:52.000Z</time>
      </trkpt>
      <trkpt lat="47.06252" lon="-1.97815">
        <ele>60</ele>
        <time>2020-12-29T13:19:54.000Z</time>
      </trkpt>
      <trkpt lat="47.0624" lon="-1.97817">
        <ele>60</ele>
        <time>2020-12-29T13:19:56.000Z</time>
      </trkpt>
      <trkpt lat="47.06228" lon="-1.9782">
        <ele>60</ele>
        <time>2020-12-29T13:19:58.000Z</time>
      </trkpt>
      <trkpt lat="47.06216" lon="-1.97823">
        <ele>60</ele>
        <time>2020-12-29T13:20:00.000Z</time>
      </trkpt>
      <trkpt lat="47.06204" lon="-1.97823">
        <ele>60</ele>
        <time>2020-12-29T13:20:02.000Z</time>
      </trkpt>
      <trkpt lat="47.06192" lon="-1.97822">
        <ele>60</ele>
        <time>2020-12-29T13:20:04.000Z</time>
      </trkpt>
      <trkpt lat="47.06181" lon="-1.97821">
        <ele>60</ele>
        <time>2020-12-29T13:20:06.000Z</time>
      </trkpt>
      <trkpt lat="47.06169" lon="-1.9782">
        <ele>60</ele>
        <time>2020-12-29T13:20:08.000Z</time>
      </trkpt>
      <trkpt lat="47.06158" lon="-1.97818">
        <ele>60</ele>
        <time>2020-12-29T13:20:10.000Z</time>
      </trkpt>
      <trkpt lat="47.06147" lon="-1.97817">
        <ele>60</ele>
        <time>2020-12-29T13:20:12.000Z</time>
      </trkpt>
      <trkpt lat="47.06134" lon="-1.97815">
        <ele>60</ele>
        <time>2020-12-29T13:20:14.000Z</time>
      </trkpt>
      <trkpt lat="47.06122" lon="-1.9781">
        <ele>59</ele>
        <time>2020-12-29T13:20:16.000Z</time>
      </trkpt>
      <trkpt lat="47.06109" lon="-1.97804">
        <ele>59</ele>
        <time>2020-12-29T13:20:18.000Z</time>
      </trkpt>
      <trkpt lat="47.06097" lon="-1.97798">
        <ele>59</ele>
        <time>2020-12-29T13:20:20.000Z</time>
      </trkpt>
      <trkpt lat="47.06086" lon="-1.97791">
        <ele>59</ele>
        <time>2020-12-29T13:20:22.000Z</time>
      </trkpt>
      <trkpt lat="47.06076" lon="-1.9778">
        <ele>58</ele>
        <time>2020-12-29T13:20:24.000Z</time>
      </trkpt>
      <trkpt lat="47.06068" lon="-1.97767">
        <ele>58</ele>
        <time>2020-12-29T13:20:26.000Z</time>
      </trkpt>
      <trkpt lat="47.0606" lon="-1.97754">
        <ele>58</ele>
        <time>2020-12-29T13:20:28.000Z</time>
      </trkpt>
      <trkpt lat="47.06053" lon="-1.97739">
        <ele>59</ele>
        <time>2020-12-29T13:20:30.000Z</time>
      </trkpt>
      <trkpt lat="47.06047" lon="-1.97724">
        <ele>59</ele>
        <time>2020-12-29T13:20:32.000Z</time>
      </trkpt>
      <trkpt lat="47.0604" lon="-1.9771">
        <ele>59</ele>
        <time>2020-12-29T13:20:34.000Z</time>
      </trkpt>
      <trkpt lat="47.06036" lon="-1.97693">
        <ele>59</ele>
        <time>2020-12-29T13:20:36.000Z</time>
      </trkpt>
      <trkpt lat="47.06034" lon="-1.97677">
        <ele>60</ele>
        <time>2020-12-29T13:20:38.000Z</time>
      </trkpt>
      <trkpt lat="47.06034" lon="-1.97661">
        <ele>60</ele>
        <time>2020-12-29T13:20:40.000Z</time>
      </trkpt>
      <trkpt lat="47.06035" lon="-1.97643">
        <ele>60</ele>
        <time>2020-12-29T13:20:42.000Z</time>
      </trkpt>
      <trkpt lat="47.06032" lon="-1.97628">
        <ele>60</ele>
        <time>2020-12-29T13:20:44.000Z</time>
      </trkpt>
      <trkpt lat="47.06027" lon="-1.97612">
        <ele>60</ele>
        <time>2020-12-29T13:20:46.000Z</time>
      </trkpt>
      <trkpt lat="47.06024" lon="-1.97597">
        <ele>60</ele>
        <time>2020-12-29T13:20:48.000Z</time>
      </trkpt>
      <trkpt lat="47.06019" lon="-1.97582">
        <ele>60</ele>
        <time>2020-12-29T13:20:50.000Z</time>
      </trkpt>
      <trkpt lat="47.06013" lon="-1.97567">
        <ele>60</ele>
        <time>2020-12-29T13:20:52.000Z</time>
      </trkpt>
      <trkpt lat="47.06008" lon="-1.97553">
        <ele>60</ele>
        <time>2020-12-29T13:20:54.000Z</time>
      </trkpt>
      <trkpt lat="47.06002" lon="-1.97538">
        <ele>60</ele>
        <time>2020-12-29T13:20:56.000Z</time>
      </trkpt>
      <trkpt lat="47.05996" lon="-1.97524">
        <ele>60</ele>
        <time>2020-12-29T13:20:58.000Z</time>
      </trkpt>
      <trkpt lat="47.0599" lon="-1.97508">
        <ele>60</ele>
        <time>2020-12-29T13:21:00.000Z</time>
      </trkpt>
      <trkpt lat="47.05983" lon="-1.97494">
        <ele>61</ele>
        <time>2020-12-29T13:21:02.000Z</time>
      </trkpt>
      <trkpt lat="47.05977" lon="-1.97478">
        <ele>60</ele>
        <time>2020-12-29T13:21:04.000Z</time>
      </trkpt>
      <trkpt lat="47.05969" lon="-1.97463">
        <ele>61</ele>
        <time>2020-12-29T13:21:06.000Z</time>
      </trkpt>
      <trkpt lat="47.05961" lon="-1.97449">
        <ele>61</ele>
        <time>2020-12-29T13:21:08.000Z</time>
      </trkpt>
      <trkpt lat="47.05952" lon="-1.97435">
        <ele>60</ele>
        <time>2020-12-29T13:21:10.000Z</time>
      </trkpt>
      <trkpt lat="47.05943" lon="-1.97419">
        <ele>61</ele>
        <time>2020-12-29T13:21:12.000Z</time>
      </trkpt>
      <trkpt lat="47.05935" lon="-1.97403">
        <ele>60</ele>
        <time>2020-12-29T13:21:14.000Z</time>
      </trkpt>
      <trkpt lat="47.05927" lon="-1.97387">
        <ele>60</ele>
        <time>2020-12-29T13:21:16.000Z</time>
      </trkpt>
      <trkpt lat="47.05922" lon="-1.97367">
        <ele>60</ele>
        <time>2020-12-29T13:21:18.000Z</time>
      </trkpt>
      <trkpt lat="47.05916" lon="-1.97348">
        <ele>59</ele>
        <time>2020-12-29T13:21:20.000Z</time>
      </trkpt>
      <trkpt lat="47.05911" lon="-1.9733">
        <ele>58</ele>
        <time>2020-12-29T13:21:22.000Z</time>
      </trkpt>
      <trkpt lat="47.05904" lon="-1.97311">
        <ele>58</ele>
        <time>2020-12-29T13:21:24.000Z</time>
      </trkpt>
      <trkpt lat="47.05898" lon="-1.97294">
        <ele>58</ele>
        <time>2020-12-29T13:21:26.000Z</time>
      </trkpt>
      <trkpt lat="47.05892" lon="-1.97275">
        <ele>58</ele>
        <time>2020-12-29T13:21:28.000Z</time>
      </trkpt>
      <trkpt lat="47.05885" lon="-1.97257">
        <ele>58</ele>
        <time>2020-12-29T13:21:30.000Z</time>
      </trkpt>
      <trkpt lat="47.05878" lon="-1.9724">
        <ele>58</ele>
        <time>2020-12-29T13:21:32.000Z</time>
      </trkpt>
      <trkpt lat="47.05871" lon="-1.97222">
        <ele>58</ele>
        <time>2020-12-29T13:21:34.000Z</time>
      </trkpt>
      <trkpt lat="47.05862" lon="-1.97204">
        <ele>57</ele>
        <time>2020-12-29T13:21:36.000Z</time>
      </trkpt>
      <trkpt lat="47.05848" lon="-1.97197">
        <ele>57</ele>
        <time>2020-12-29T13:21:38.000Z</time>
      </trkpt>
      <trkpt lat="47.05832" lon="-1.97198">
        <ele>56</ele>
        <time>2020-12-29T13:21:40.000Z</time>
      </trkpt>
      <trkpt lat="47.05815" lon="-1.97199">
        <ele>55</ele>
        <time>2020-12-29T13:21:42.000Z</time>
      </trkpt>
      <trkpt lat="47.05799" lon="-1.97201">
        <ele>54</ele>
        <time>2020-12-29T13:21:44.000Z</time>
      </trkpt>
      <trkpt lat="47.05784" lon="-1.97202">
        <ele>54</ele>
        <time>2020-12-29T13:21:46.000Z</time>
      </trkpt>
      <trkpt lat="47.05769" lon="-1.97203">
        <ele>53</ele>
        <time>2020-12-29T13:21:48.000Z</time>
      </trkpt>
      <trkpt lat="47.05754" lon="-1.97204">
        <ele>53</ele>
        <time>2020-12-29T13:21:50.000Z</time>
      </trkpt>
      <trkpt lat="47.05741" lon="-1.97204">
        <ele>53</ele>
        <time>2020-12-29T13:21:52.000Z</time>
      </trkpt>
      <trkpt lat="47.05728" lon="-1.97205">
        <ele>54</ele>
        <time>2020-12-29T13:21:54.000Z</time>
      </trkpt>
      <trkpt lat="47.05715" lon="-1.97204">
        <ele>56</ele>
        <time>2020-12-29T13:21:56.000Z</time>
      </trkpt>
      <trkpt lat="47.05702" lon="-1.97201">
        <ele>56</ele>
        <time>2020-12-29T13:21:58.000Z</time>
      </trkpt>
      <trkpt lat="47.05689" lon="-1.97196">
        <ele>55</ele>
        <time>2020-12-29T13:22:00.000Z</time>
      </trkpt>
      <trkpt lat="47.05676" lon="-1.97191">
        <ele>55</ele>
        <time>2020-12-29T13:22:02.000Z</time>
      </trkpt>
      <trkpt lat="47.05663" lon="-1.97183">
        <ele>55</ele>
        <time>2020-12-29T13:22:04.000Z</time>
      </trkpt>
      <trkpt lat="47.05651" lon="-1.97177">
        <ele>55</ele>
        <time>2020-12-29T13:22:06.000Z</time>
      </trkpt>
      <trkpt lat="47.05639" lon="-1.9717">
        <ele>56</ele>
        <time>2020-12-29T13:22:08.000Z</time>
      </trkpt>
      <trkpt lat="47.05627" lon="-1.97162">
        <ele>57</ele>
        <time>2020-12-29T13:22:10.000Z</time>
      </trkpt>
      <trkpt lat="47.05616" lon="-1.97154">
        <ele>58</ele>
        <time>2020-12-29T13:22:12.000Z</time>
      </trkpt>
      <trkpt lat="47.05606" lon="-1.97141">
        <ele>59</ele>
        <time>2020-12-29T13:22:14.000Z</time>
      </trkpt>
      <trkpt lat="47.05593" lon="-1.97118">
        <ele>60</ele>
        <time>2020-12-29T13:22:17.000Z</time>
      </trkpt>
      <trkpt lat="47.0558" lon="-1.97095">
        <ele>60</ele>
        <time>2020-12-29T13:22:20.000Z</time>
      </trkpt>
      <trkpt lat="47.05571" lon="-1.97081">
        <ele>60</ele>
        <time>2020-12-29T13:22:22.000Z</time>
      </trkpt>
      <trkpt lat="47.05562" lon="-1.97067">
        <ele>60</ele>
        <time>2020-12-29T13:22:24.000Z</time>
      </trkpt>
      <trkpt lat="47.05551" lon="-1.97043">
        <ele>61</ele>
        <time>2020-12-29T13:22:27.000Z</time>
      </trkpt>
      <trkpt lat="47.05544" lon="-1.97016">
        <ele>61</ele>
        <time>2020-12-29T13:22:30.000Z</time>
      </trkpt>
      <trkpt lat="47.05544" lon="-1.96997">
        <ele>61</ele>
        <time>2020-12-29T13:22:32.000Z</time>
      </trkpt>
      <trkpt lat="47.05545" lon="-1.96977">
        <ele>61</ele>
        <time>2020-12-29T13:22:34.000Z</time>
      </trkpt>
      <trkpt lat="47.05545" lon="-1.96957">
        <ele>62</ele>
        <time>2020-12-29T13:22:36.000Z</time>
      </trkpt>
      <trkpt lat="47.05539" lon="-1.96929">
        <ele>62</ele>
        <time>2020-12-29T13:22:39.000Z</time>
      </trkpt>
      <trkpt lat="47.05532" lon="-1.96912">
        <ele>62</ele>
        <time>2020-12-29T13:22:41.000Z</time>
      </trkpt>
      <trkpt lat="47.05525" lon="-1.96896">
        <ele>61</ele>
        <time>2020-12-29T13:22:43.000Z</time>
      </trkpt>
      <trkpt lat="47.05517" lon="-1.9688">
        <ele>61</ele>
        <time>2020-12-29T13:22:45.000Z</time>
      </trkpt>
      <trkpt lat="47.05509" lon="-1.96865">
        <ele>61</ele>
        <time>2020-12-29T13:22:47.000Z</time>
      </trkpt>
      <trkpt lat="47.05502" lon="-1.9685">
        <ele>61</ele>
        <time>2020-12-29T13:22:49.000Z</time>
      </trkpt>
      <trkpt lat="47.05488" lon="-1.96828">
        <ele>60</ele>
        <time>2020-12-29T13:22:52.000Z</time>
      </trkpt>
      <trkpt lat="47.05478" lon="-1.96815">
        <ele>60</ele>
        <time>2020-12-29T13:22:54.000Z</time>
      </trkpt>
      <trkpt lat="47.05464" lon="-1.96795">
        <ele>59</ele>
        <time>2020-12-29T13:22:57.000Z</time>
      </trkpt>
      <trkpt lat="47.05454" lon="-1.96782">
        <ele>59</ele>
        <time>2020-12-29T13:22:59.000Z</time>
      </trkpt>
      <trkpt lat="47.05442" lon="-1.96757">
        <ele>59</ele>
        <time>2020-12-29T13:23:02.000Z</time>
      </trkpt>
      <trkpt lat="47.05436" lon="-1.96739">
        <ele>59</ele>
        <time>2020-12-29T13:23:04.000Z</time>
      </trkpt>
      <trkpt lat="47.05431" lon="-1.9672">
        <ele>59</ele>
        <time>2020-12-29T13:23:06.000Z</time>
      </trkpt>
      <trkpt lat="47.05426" lon="-1.96701">
        <ele>58</ele>
        <time>2020-12-29T13:23:08.000Z</time>
      </trkpt>
      <trkpt lat="47.0542" lon="-1.96683">
        <ele>58</ele>
        <time>2020-12-29T13:23:10.000Z</time>
      </trkpt>
      <trkpt lat="47.05408" lon="-1.96657">
        <ele>57</ele>
        <time>2020-12-29T13:23:13.000Z</time>
      </trkpt>
      <trkpt lat="47.05398" lon="-1.96642">
        <ele>58</ele>
        <time>2020-12-29T13:23:15.000Z</time>
      </trkpt>
      <trkpt lat="47.05387" lon="-1.96628">
        <ele>57</ele>
        <time>2020-12-29T13:23:17.000Z</time>
      </trkpt>
      <trkpt lat="47.05376" lon="-1.96614">
        <ele>58</ele>
        <time>2020-12-29T13:23:19.000Z</time>
      </trkpt>
      <trkpt lat="47.05365" lon="-1.966">
        <ele>58</ele>
        <time>2020-12-29T13:23:21.000Z</time>
      </trkpt>
      <trkpt lat="47.05349" lon="-1.96579">
        <ele>58</ele>
        <time>2020-12-29T13:23:24.000Z</time>
      </trkpt>
      <trkpt lat="47.05332" lon="-1.96559">
        <ele>58</ele>
        <time>2020-12-29T13:23:27.000Z</time>
      </trkpt>
      <trkpt lat="47.0532" lon="-1.96547">
        <ele>58</ele>
        <time>2020-12-29T13:23:29.000Z</time>
      </trkpt>
      <trkpt lat="47.05308" lon="-1.96535">
        <ele>58</ele>
        <time>2020-12-29T13:23:31.000Z</time>
      </trkpt>
      <trkpt lat="47.05296" lon="-1.96525">
        <ele>58</ele>
        <time>2020-12-29T13:23:33.000Z</time>
      </trkpt>
      <trkpt lat="47.05284" lon="-1.96514">
        <ele>58</ele>
        <time>2020-12-29T13:23:35.000Z</time>
      </trkpt>
      <trkpt lat="47.05274" lon="-1.96505">
        <ele>58</ele>
        <time>2020-12-29T13:23:37.000Z</time>
      </trkpt>
      <trkpt lat="47.05263" lon="-1.96494">
        <ele>58</ele>
        <time>2020-12-29T13:23:39.000Z</time>
      </trkpt>
      <trkpt lat="47.05251" lon="-1.96483">
        <ele>60</ele>
        <time>2020-12-29T13:23:41.000Z</time>
      </trkpt>
      <trkpt lat="47.05233" lon="-1.96466">
        <ele>58</ele>
        <time>2020-12-29T13:23:44.000Z</time>
      </trkpt>
      <trkpt lat="47.05222" lon="-1.96455">
        <ele>59</ele>
        <time>2020-12-29T13:23:46.000Z</time>
      </trkpt>
      <trkpt lat="47.0521" lon="-1.96444">
        <ele>59</ele>
        <time>2020-12-29T13:23:48.000Z</time>
      </trkpt>
      <trkpt lat="47.05199" lon="-1.96433">
        <ele>59</ele>
        <time>2020-12-29T13:23:50.000Z</time>
      </trkpt>
      <trkpt lat="47.05188" lon="-1.96421">
        <ele>59</ele>
        <time>2020-12-29T13:23:52.000Z</time>
      </trkpt>
      <trkpt lat="47.05177" lon="-1.96409">
        <ele>60</ele>
        <time>2020-12-29T13:23:54.000Z</time>
      </trkpt>
      <trkpt lat="47.05162" lon="-1.9639">
        <ele>60</ele>
        <time>2020-12-29T13:23:57.000Z</time>
      </trkpt>
      <trkpt lat="47.05154" lon="-1.96377">
        <ele>60</ele>
        <time>2020-12-29T13:23:59.000Z</time>
      </trkpt>
      <trkpt lat="47.05146" lon="-1.96363">
        <ele>60</ele>
        <time>2020-12-29T13:24:01.000Z</time>
      </trkpt>
      <trkpt lat="47.05137" lon="-1.96353">
        <ele>61</ele>
        <time>2020-12-29T13:24:03.000Z</time>
      </trkpt>
      <trkpt lat="47.05125" lon="-1.96355">
        <ele>61</ele>
        <time>2020-12-29T13:24:05.000Z</time>
      </trkpt>
      <trkpt lat="47.05115" lon="-1.96363">
        <ele>61</ele>
        <time>2020-12-29T13:24:07.000Z</time>
      </trkpt>
      <trkpt lat="47.05103" lon="-1.96359">
        <ele>60</ele>
        <time>2020-12-29T13:24:09.000Z</time>
      </trkpt>
      <trkpt lat="47.05095" lon="-1.96344">
        <ele>60</ele>
        <time>2020-12-29T13:24:11.000Z</time>
      </trkpt>
      <trkpt lat="47.05091" lon="-1.96325">
        <ele>60</ele>
        <time>2020-12-29T13:24:13.000Z</time>
      </trkpt>
      <trkpt lat="47.05082" lon="-1.96309">
        <ele>59</ele>
        <time>2020-12-29T13:24:15.000Z</time>
      </trkpt>
      <trkpt lat="47.05073" lon="-1.96293">
        <ele>59</ele>
        <time>2020-12-29T13:24:17.000Z</time>
      </trkpt>
      <trkpt lat="47.05063" lon="-1.96278">
        <ele>60</ele>
        <time>2020-12-29T13:24:19.000Z</time>
      </trkpt>
      <trkpt lat="47.05054" lon="-1.96262">
        <ele>60</ele>
        <time>2020-12-29T13:24:21.000Z</time>
      </trkpt>
      <trkpt lat="47.05045" lon="-1.96246">
        <ele>60</ele>
        <time>2020-12-29T13:24:23.000Z</time>
      </trkpt>
      <trkpt lat="47.05037" lon="-1.9623">
        <ele>61</ele>
        <time>2020-12-29T13:24:25.000Z</time>
      </trkpt>
      <trkpt lat="47.05028" lon="-1.96215">
        <ele>62</ele>
        <time>2020-12-29T13:24:27.000Z</time>
      </trkpt>
      <trkpt lat="47.05019" lon="-1.962">
        <ele>63</ele>
        <time>2020-12-29T13:24:29.000Z</time>
      </trkpt>
      <trkpt lat="47.0501" lon="-1.96185">
        <ele>63</ele>
        <time>2020-12-29T13:24:31.000Z</time>
      </trkpt>
      <trkpt lat="47.05001" lon="-1.96169">
        <ele>62</ele>
        <time>2020-12-29T13:24:33.000Z</time>
      </trkpt>
      <trkpt lat="47.04991" lon="-1.96153">
        <ele>62</ele>
        <time>2020-12-29T13:24:35.000Z</time>
      </trkpt>
      <trkpt lat="47.04982" lon="-1.96137">
        <ele>62</ele>
        <time>2020-12-29T13:24:37.000Z</time>
      </trkpt>
      <trkpt lat="47.04973" lon="-1.96122">
        <ele>62</ele>
        <time>2020-12-29T13:24:39.000Z</time>
      </trkpt>
      <trkpt lat="47.04964" lon="-1.96106">
        <ele>62</ele>
        <time>2020-12-29T13:24:41.000Z</time>
      </trkpt>
      <trkpt lat="47.04955" lon="-1.96091">
        <ele>62</ele>
        <time>2020-12-29T13:24:43.000Z</time>
      </trkpt>
      <trkpt lat="47.04946" lon="-1.96076">
        <ele>63</ele>
        <time>2020-12-29T13:24:45.000Z</time>
      </trkpt>
      <trkpt lat="47.04937" lon="-1.96061">
        <ele>63</ele>
        <time>2020-12-29T13:24:47.000Z</time>
      </trkpt>
      <trkpt lat="47.04928" lon="-1.96047">
        <ele>63</ele>
        <time>2020-12-29T13:24:49.000Z</time>
      </trkpt>
      <trkpt lat="47.04918" lon="-1.96032">
        <ele>63</ele>
        <time>2020-12-29T13:24:51.000Z</time>
      </trkpt>
      <trkpt lat="47.04909" lon="-1.96018">
        <ele>63</ele>
        <time>2020-12-29T13:24:53.000Z</time>
      </trkpt>
      <trkpt lat="47.049" lon="-1.96005">
        <ele>64</ele>
        <time>2020-12-29T13:24:55.000Z</time>
      </trkpt>
      <trkpt lat="47.0489" lon="-1.95992">
        <ele>63</ele>
        <time>2020-12-29T13:24:57.000Z</time>
      </trkpt>
      <trkpt lat="47.04881" lon="-1.95978">
        <ele>63</ele>
        <time>2020-12-29T13:24:59.000Z</time>
      </trkpt>
      <trkpt lat="47.0487" lon="-1.95964">
        <ele>63</ele>
        <time>2020-12-29T13:25:01.000Z</time>
      </trkpt>
      <trkpt lat="47.04859" lon="-1.9595">
        <ele>63</ele>
        <time>2020-12-29T13:25:03.000Z</time>
      </trkpt>
      <trkpt lat="47.04848" lon="-1.95936">
        <ele>63</ele>
        <time>2020-12-29T13:25:05.000Z</time>
      </trkpt>
      <trkpt lat="47.04837" lon="-1.95923">
        <ele>64</ele>
        <time>2020-12-29T13:25:07.000Z</time>
      </trkpt>
      <trkpt lat="47.04827" lon="-1.9591">
        <ele>64</ele>
        <time>2020-12-29T13:25:09.000Z</time>
      </trkpt>
      <trkpt lat="47.04816" lon="-1.95898">
        <ele>64</ele>
        <time>2020-12-29T13:25:11.000Z</time>
      </trkpt>
      <trkpt lat="47.04805" lon="-1.95888">
        <ele>64</ele>
        <time>2020-12-29T13:25:13.000Z</time>
      </trkpt>
      <trkpt lat="47.04793" lon="-1.95882">
        <ele>63</ele>
        <time>2020-12-29T13:25:15.000Z</time>
      </trkpt>
      <trkpt lat="47.0478" lon="-1.95883">
        <ele>63</ele>
        <time>2020-12-29T13:25:17.000Z</time>
      </trkpt>
      <trkpt lat="47.04767" lon="-1.95875">
        <ele>62</ele>
        <time>2020-12-29T13:25:19.000Z</time>
      </trkpt>
      <trkpt lat="47.04764" lon="-1.95857">
        <ele>62</ele>
        <time>2020-12-29T13:25:21.000Z</time>
      </trkpt>
      <trkpt lat="47.04773" lon="-1.95841">
        <ele>62</ele>
        <time>2020-12-29T13:25:23.000Z</time>
      </trkpt>
      <trkpt lat="47.04784" lon="-1.95833">
        <ele>62</ele>
        <time>2020-12-29T13:25:25.000Z</time>
      </trkpt>
      <trkpt lat="47.04789" lon="-1.95818">
        <ele>62</ele>
        <time>2020-12-29T13:25:27.000Z</time>
      </trkpt>
      <trkpt lat="47.04783" lon="-1.95798">
        <ele>62</ele>
        <time>2020-12-29T13:25:29.000Z</time>
      </trkpt>
      <trkpt lat="47.04771" lon="-1.95781">
        <ele>61</ele>
        <time>2020-12-29T13:25:31.000Z</time>
      </trkpt>
      <trkpt lat="47.04759" lon="-1.95761">
        <ele>60</ele>
        <time>2020-12-29T13:25:33.000Z</time>
      </trkpt>
      <trkpt lat="47.04748" lon="-1.95742">
        <ele>59</ele>
        <time>2020-12-29T13:25:35.000Z</time>
      </trkpt>
      <trkpt lat="47.04736" lon="-1.95724">
        <ele>58</ele>
        <time>2020-12-29T13:25:37.000Z</time>
      </trkpt>
      <trkpt lat="47.04725" lon="-1.95705">
        <ele>57</ele>
        <time>2020-12-29T13:25:39.000Z</time>
      </trkpt>
      <trkpt lat="47.04714" lon="-1.95686">
        <ele>57</ele>
        <time>2020-12-29T13:25:41.000Z</time>
      </trkpt>
      <trkpt lat="47.04702" lon="-1.95666">
        <ele>56</ele>
        <time>2020-12-29T13:25:43.000Z</time>
      </trkpt>
      <trkpt lat="47.0469" lon="-1.95646">
        <ele>56</ele>
        <time>2020-12-29T13:25:45.000Z</time>
      </trkpt>
      <trkpt lat="47.04679" lon="-1.95628">
        <ele>56</ele>
        <time>2020-12-29T13:25:47.000Z</time>
      </trkpt>
      <trkpt lat="47.04668" lon="-1.95611">
        <ele>56</ele>
        <time>2020-12-29T13:25:49.000Z</time>
      </trkpt>
      <trkpt lat="47.04657" lon="-1.95593">
        <ele>56</ele>
        <time>2020-12-29T13:25:51.000Z</time>
      </trkpt>
      <trkpt lat="47.04647" lon="-1.95575">
        <ele>56</ele>
        <time>2020-12-29T13:25:53.000Z</time>
      </trkpt>
      <trkpt lat="47.04635" lon="-1.95558">
        <ele>56</ele>
        <time>2020-12-29T13:25:55.000Z</time>
      </trkpt>
      <trkpt lat="47.04625" lon="-1.95538">
        <ele>56</ele>
        <time>2020-12-29T13:25:57.000Z</time>
      </trkpt>
      <trkpt lat="47.04615" lon="-1.9552">
        <ele>55</ele>
        <time>2020-12-29T13:25:59.000Z</time>
      </trkpt>
      <trkpt lat="47.04604" lon="-1.95501">
        <ele>55</ele>
        <time>2020-12-29T13:26:01.000Z</time>
      </trkpt>
      <trkpt lat="47.04593" lon="-1.95484">
        <ele>55</ele>
        <time>2020-12-29T13:26:03.000Z</time>
      </trkpt>
      <trkpt lat="47.04582" lon="-1.95467">
        <ele>54</ele>
        <time>2020-12-29T13:26:05.000Z</time>
      </trkpt>
      <trkpt lat="47.04572" lon="-1.9545">
        <ele>54</ele>
        <time>2020-12-29T13:26:07.000Z</time>
      </trkpt>
      <trkpt lat="47.04562" lon="-1.95433">
        <ele>55</ele>
        <time>2020-12-29T13:26:09.000Z</time>
      </trkpt>
      <trkpt lat="47.04552" lon="-1.95416">
        <ele>54</ele>
        <time>2020-12-29T13:26:11.000Z</time>
      </trkpt>
      <trkpt lat="47.04541" lon="-1.95399">
        <ele>54</ele>
        <time>2020-12-29T13:26:13.000Z</time>
      </trkpt>
      <trkpt lat="47.04531" lon="-1.95382">
        <ele>54</ele>
        <time>2020-12-29T13:26:15.000Z</time>
      </trkpt>
      <trkpt lat="47.04521" lon="-1.95367">
        <ele>55</ele>
        <time>2020-12-29T13:26:17.000Z</time>
      </trkpt>
      <trkpt lat="47.04512" lon="-1.95352">
        <ele>54</ele>
        <time>2020-12-29T13:26:19.000Z</time>
      </trkpt>
      <trkpt lat="47.04503" lon="-1.95336">
        <ele>55</ele>
        <time>2020-12-29T13:26:21.000Z</time>
      </trkpt>
      <trkpt lat="47.04494" lon="-1.95321">
        <ele>54</ele>
        <time>2020-12-29T13:26:23.000Z</time>
      </trkpt>
      <trkpt lat="47.04484" lon="-1.95306">
        <ele>55</ele>
        <time>2020-12-29T13:26:25.000Z</time>
      </trkpt>
      <trkpt lat="47.04473" lon="-1.953">
        <ele>55</ele>
        <time>2020-12-29T13:26:27.000Z</time>
      </trkpt>
      <trkpt lat="47.04459" lon="-1.95298">
        <ele>54</ele>
        <time>2020-12-29T13:26:29.000Z</time>
      </trkpt>
      <trkpt lat="47.04446" lon="-1.95299">
        <ele>55</ele>
        <time>2020-12-29T13:26:31.000Z</time>
      </trkpt>
      <trkpt lat="47.04434" lon="-1.95306">
        <ele>54</ele>
        <time>2020-12-29T13:26:33.000Z</time>
      </trkpt>
      <trkpt lat="47.04421" lon="-1.95313">
        <ele>54</ele>
        <time>2020-12-29T13:26:35.000Z</time>
      </trkpt>
      <trkpt lat="47.04409" lon="-1.95321">
        <ele>54</ele>
        <time>2020-12-29T13:26:37.000Z</time>
      </trkpt>
      <trkpt lat="47.04397" lon="-1.95328">
        <ele>54</ele>
        <time>2020-12-29T13:26:39.000Z</time>
      </trkpt>
      <trkpt lat="47.04384" lon="-1.95333">
        <ele>54</ele>
        <time>2020-12-29T13:26:41.000Z</time>
      </trkpt>
      <trkpt lat="47.04371" lon="-1.95338">
        <ele>54</ele>
        <time>2020-12-29T13:26:43.000Z</time>
      </trkpt>
      <trkpt lat="47.04359" lon="-1.95343">
        <ele>54</ele>
        <time>2020-12-29T13:26:45.000Z</time>
      </trkpt>
      <trkpt lat="47.04347" lon="-1.95351">
        <ele>53</ele>
        <time>2020-12-29T13:26:47.000Z</time>
      </trkpt>
      <trkpt lat="47.04336" lon="-1.95358">
        <ele>53</ele>
        <time>2020-12-29T13:26:49.000Z</time>
      </trkpt>
      <trkpt lat="47.04326" lon="-1.95364">
        <ele>53</ele>
        <time>2020-12-29T13:26:51.000Z</time>
      </trkpt>
      <trkpt lat="47.04315" lon="-1.95366">
        <ele>53</ele>
        <time>2020-12-29T13:26:53.000Z</time>
      </trkpt>
      <trkpt lat="47.04302" lon="-1.9536">
        <ele>53</ele>
        <time>2020-12-29T13:26:55.000Z</time>
      </trkpt>
      <trkpt lat="47.04291" lon="-1.95349">
        <ele>54</ele>
        <time>2020-12-29T13:26:57.000Z</time>
      </trkpt>
      <trkpt lat="47.04282" lon="-1.95333">
        <ele>54</ele>
        <time>2020-12-29T13:26:59.000Z</time>
      </trkpt>
      <trkpt lat="47.04275" lon="-1.95318">
        <ele>54</ele>
        <time>2020-12-29T13:27:01.000Z</time>
      </trkpt>
      <trkpt lat="47.04266" lon="-1.95305">
        <ele>53</ele>
        <time>2020-12-29T13:27:03.000Z</time>
      </trkpt>
      <trkpt lat="47.0426" lon="-1.9529">
        <ele>56</ele>
        <time>2020-12-29T13:27:05.000Z</time>
      </trkpt>
      <trkpt lat="47.04253" lon="-1.95274">
        <ele>56</ele>
        <time>2020-12-29T13:27:07.000Z</time>
      </trkpt>
      <trkpt lat="47.04246" lon="-1.95257">
        <ele>56</ele>
        <time>2020-12-29T13:27:09.000Z</time>
      </trkpt>
      <trkpt lat="47.04239" lon="-1.95243">
        <ele>57</ele>
        <time>2020-12-29T13:27:11.000Z</time>
      </trkpt>
      <trkpt lat="47.04233" lon="-1.95232">
        <ele>58</ele>
        <time>2020-12-29T13:27:13.000Z</time>
      </trkpt>
      <trkpt lat="47.0424" lon="-1.95214">
        <ele>58</ele>
        <time>2020-12-29T13:27:15.000Z</time>
      </trkpt>
      <trkpt lat="47.04245" lon="-1.95198">
        <ele>57</ele>
        <time>2020-12-29T13:27:17.000Z</time>
      </trkpt>
      <trkpt lat="47.04249" lon="-1.95179">
        <ele>58</ele>
        <time>2020-12-29T13:27:19.000Z</time>
      </trkpt>
      <trkpt lat="47.04257" lon="-1.95163">
        <ele>58</ele>
        <time>2020-12-29T13:27:21.000Z</time>
      </trkpt>
      <trkpt lat="47.04268" lon="-1.95152">
        <ele>57</ele>
        <time>2020-12-29T13:27:23.000Z</time>
      </trkpt>
      <trkpt lat="47.04278" lon="-1.95141">
        <ele>57</ele>
        <time>2020-12-29T13:27:25.000Z</time>
      </trkpt>
      <trkpt lat="47.04287" lon="-1.95131">
        <ele>57</ele>
        <time>2020-12-29T13:27:27.000Z</time>
      </trkpt>
      <trkpt lat="47.04296" lon="-1.95122">
        <ele>56</ele>
        <time>2020-12-29T13:27:29.000Z</time>
      </trkpt>
      <trkpt lat="47.04305" lon="-1.95112">
        <ele>57</ele>
        <time>2020-12-29T13:27:31.000Z</time>
      </trkpt>
      <trkpt lat="47.04315" lon="-1.95102">
        <ele>57</ele>
        <time>2020-12-29T13:27:33.000Z</time>
      </trkpt>
      <trkpt lat="47.04322" lon="-1.95091">
        <ele>57</ele>
        <time>2020-12-29T13:27:35.000Z</time>
      </trkpt>
      <trkpt lat="47.04328" lon="-1.9508">
        <ele>57</ele>
        <time>2020-12-29T13:27:37.000Z</time>
      </trkpt>
      <trkpt lat="47.04328" lon="-1.95062">
        <ele>57</ele>
        <time>2020-12-29T13:27:40.000Z</time>
      </trkpt>
      <trkpt lat="47.04319" lon="-1.9505">
        <ele>57</ele>
        <time>2020-12-29T13:27:42.000Z</time>
      </trkpt>
      <trkpt lat="47.04307" lon="-1.9504">
        <ele>58</ele>
        <time>2020-12-29T13:27:44.000Z</time>
      </trkpt>
      <trkpt lat="47.04297" lon="-1.95029">
        <ele>58</ele>
        <time>2020-12-29T13:27:46.000Z</time>
      </trkpt>
      <trkpt lat="47.04286" lon="-1.95016">
        <ele>58</ele>
        <time>2020-12-29T13:27:48.000Z</time>
      </trkpt>
      <trkpt lat="47.04276" lon="-1.95003">
        <ele>58</ele>
        <time>2020-12-29T13:27:50.000Z</time>
      </trkpt>
      <trkpt lat="47.04266" lon="-1.94989">
        <ele>59</ele>
        <time>2020-12-29T13:27:52.000Z</time>
      </trkpt>
      <trkpt lat="47.04257" lon="-1.94976">
        <ele>59</ele>
        <time>2020-12-29T13:27:54.000Z</time>
      </trkpt>
      <trkpt lat="47.04247" lon="-1.94962">
        <ele>59</ele>
        <time>2020-12-29T13:27:56.000Z</time>
      </trkpt>
      <trkpt lat="47.04237" lon="-1.94948">
        <ele>59</ele>
        <time>2020-12-29T13:27:58.000Z</time>
      </trkpt>
      <trkpt lat="47.04228" lon="-1.94934">
        <ele>59</ele>
        <time>2020-12-29T13:28:00.000Z</time>
      </trkpt>
      <trkpt lat="47.04218" lon="-1.94921">
        <ele>59</ele>
        <time>2020-12-29T13:28:02.000Z</time>
      </trkpt>
      <trkpt lat="47.04209" lon="-1.94908">
        <ele>59</ele>
        <time>2020-12-29T13:28:04.000Z</time>
      </trkpt>
      <trkpt lat="47.04198" lon="-1.94895">
        <ele>60</ele>
        <time>2020-12-29T13:28:06.000Z</time>
      </trkpt>
      <trkpt lat="47.04187" lon="-1.94882">
        <ele>60</ele>
        <time>2020-12-29T13:28:08.000Z</time>
      </trkpt>
      <trkpt lat="47.04178" lon="-1.9487">
        <ele>59</ele>
        <time>2020-12-29T13:28:10.000Z</time>
      </trkpt>
      <trkpt lat="47.04168" lon="-1.94857">
        <ele>59</ele>
        <time>2020-12-29T13:28:12.000Z</time>
      </trkpt>
      <trkpt lat="47.04159" lon="-1.94844">
        <ele>60</ele>
        <time>2020-12-29T13:28:14.000Z</time>
      </trkpt>
      <trkpt lat="47.0415" lon="-1.94831">
        <ele>59</ele>
        <time>2020-12-29T13:28:16.000Z</time>
      </trkpt>
      <trkpt lat="47.04141" lon="-1.94817">
        <ele>59</ele>
        <time>2020-12-29T13:28:18.000Z</time>
      </trkpt>
      <trkpt lat="47.04132" lon="-1.94804">
        <ele>60</ele>
        <time>2020-12-29T13:28:20.000Z</time>
      </trkpt>
      <trkpt lat="47.04123" lon="-1.94789">
        <ele>60</ele>
        <time>2020-12-29T13:28:22.000Z</time>
      </trkpt>
      <trkpt lat="47.04116" lon="-1.94772">
        <ele>60</ele>
        <time>2020-12-29T13:28:24.000Z</time>
      </trkpt>
      <trkpt lat="47.04108" lon="-1.94755">
        <ele>60</ele>
        <time>2020-12-29T13:28:26.000Z</time>
      </trkpt>
      <trkpt lat="47.04101" lon="-1.94738">
        <ele>60</ele>
        <time>2020-12-29T13:28:28.000Z</time>
      </trkpt>
      <trkpt lat="47.04095" lon="-1.94721">
        <ele>60</ele>
        <time>2020-12-29T13:28:30.000Z</time>
      </trkpt>
      <trkpt lat="47.04088" lon="-1.94704">
        <ele>60</ele>
        <time>2020-12-29T13:28:32.000Z</time>
      </trkpt>
      <trkpt lat="47.04081" lon="-1.94688">
        <ele>59</ele>
        <time>2020-12-29T13:28:34.000Z</time>
      </trkpt>
      <trkpt lat="47.04073" lon="-1.9467">
        <ele>59</ele>
        <time>2020-12-29T13:28:36.000Z</time>
      </trkpt>
      <trkpt lat="47.04066" lon="-1.94653">
        <ele>59</ele>
        <time>2020-12-29T13:28:38.000Z</time>
      </trkpt>
      <trkpt lat="47.04059" lon="-1.94636">
        <ele>59</ele>
        <time>2020-12-29T13:28:40.000Z</time>
      </trkpt>
      <trkpt lat="47.04051" lon="-1.94619">
        <ele>58</ele>
        <time>2020-12-29T13:28:42.000Z</time>
      </trkpt>
      <trkpt lat="47.04044" lon="-1.94601">
        <ele>58</ele>
        <time>2020-12-29T13:28:44.000Z</time>
      </trkpt>
      <trkpt lat="47.04037" lon="-1.94582">
        <ele>57</ele>
        <time>2020-12-29T13:28:46.000Z</time>
      </trkpt>
      <trkpt lat="47.0403" lon="-1.94563">
        <ele>56</ele>
        <time>2020-12-29T13:28:48.000Z</time>
      </trkpt>
      <trkpt lat="47.04023" lon="-1.94545">
        <ele>56</ele>
        <time>2020-12-29T13:28:50.000Z</time>
      </trkpt>
      <trkpt lat="47.04015" lon="-1.94527">
        <ele>55</ele>
        <time>2020-12-29T13:28:52.000Z</time>
      </trkpt>
      <trkpt lat="47.04005" lon="-1.94511">
        <ele>55</ele>
        <time>2020-12-29T13:28:54.000Z</time>
      </trkpt>
      <trkpt lat="47.03995" lon="-1.94504">
        <ele>55</ele>
        <time>2020-12-29T13:28:56.000Z</time>
      </trkpt>
      <trkpt lat="47.03983" lon="-1.94499">
        <ele>55</ele>
        <time>2020-12-29T13:28:59.000Z</time>
      </trkpt>
      <trkpt lat="47.03973" lon="-1.94492">
        <ele>54</ele>
        <time>2020-12-29T13:29:03.000Z</time>
      </trkpt>
      <trkpt lat="47.03964" lon="-1.94474">
        <ele>54</ele>
        <time>2020-12-29T13:29:06.000Z</time>
      </trkpt>
      <trkpt lat="47.03961" lon="-1.94454">
        <ele>55</ele>
        <time>2020-12-29T13:29:08.000Z</time>
      </trkpt>
      <trkpt lat="47.0396" lon="-1.94434">
        <ele>55</ele>
        <time>2020-12-29T13:29:10.000Z</time>
      </trkpt>
      <trkpt lat="47.03956" lon="-1.94414">
        <ele>55</ele>
        <time>2020-12-29T13:29:12.000Z</time>
      </trkpt>
      <trkpt lat="47.03952" lon="-1.94394">
        <ele>56</ele>
        <time>2020-12-29T13:29:14.000Z</time>
      </trkpt>
      <trkpt lat="47.03948" lon="-1.94375">
        <ele>55</ele>
        <time>2020-12-29T13:29:16.000Z</time>
      </trkpt>
      <trkpt lat="47.03942" lon="-1.94356">
        <ele>55</ele>
        <time>2020-12-29T13:29:18.000Z</time>
      </trkpt>
      <trkpt lat="47.03937" lon="-1.94337">
        <ele>55</ele>
        <time>2020-12-29T13:29:20.000Z</time>
      </trkpt>
      <trkpt lat="47.0393" lon="-1.94318">
        <ele>56</ele>
        <time>2020-12-29T13:29:22.000Z</time>
      </trkpt>
      <trkpt lat="47.03924" lon="-1.943">
        <ele>56</ele>
        <time>2020-12-29T13:29:24.000Z</time>
      </trkpt>
      <trkpt lat="47.03918" lon="-1.94282">
        <ele>56</ele>
        <time>2020-12-29T13:29:26.000Z</time>
      </trkpt>
      <trkpt lat="47.03911" lon="-1.94265">
        <ele>56</ele>
        <time>2020-12-29T13:29:28.000Z</time>
      </trkpt>
      <trkpt lat="47.03904" lon="-1.94246">
        <ele>57</ele>
        <time>2020-12-29T13:29:30.000Z</time>
      </trkpt>
      <trkpt lat="47.03896" lon="-1.94229">
        <ele>57</ele>
        <time>2020-12-29T13:29:32.000Z</time>
      </trkpt>
      <trkpt lat="47.03889" lon="-1.94211">
        <ele>58</ele>
        <time>2020-12-29T13:29:34.000Z</time>
      </trkpt>
      <trkpt lat="47.03882" lon="-1.94193">
        <ele>59</ele>
        <time>2020-12-29T13:29:36.000Z</time>
      </trkpt>
      <trkpt lat="47.03875" lon="-1.94175">
        <ele>60</ele>
        <time>2020-12-29T13:29:38.000Z</time>
      </trkpt>
      <trkpt lat="47.03868" lon="-1.94158">
        <ele>60</ele>
        <time>2020-12-29T13:29:40.000Z</time>
      </trkpt>
      <trkpt lat="47.03861" lon="-1.94141">
        <ele>60</ele>
        <time>2020-12-29T13:29:42.000Z</time>
      </trkpt>
      <trkpt lat="47.03854" lon="-1.94124">
        <ele>61</ele>
        <time>2020-12-29T13:29:44.000Z</time>
      </trkpt>
      <trkpt lat="47.03847" lon="-1.94107">
        <ele>61</ele>
        <time>2020-12-29T13:29:46.000Z</time>
      </trkpt>
      <trkpt lat="47.0384" lon="-1.94089">
        <ele>61</ele>
        <time>2020-12-29T13:29:48.000Z</time>
      </trkpt>
      <trkpt lat="47.03833" lon="-1.94071">
        <ele>61</ele>
        <time>2020-12-29T13:29:50.000Z</time>
      </trkpt>
      <trkpt lat="47.03826" lon="-1.94054">
        <ele>62</ele>
        <time>2020-12-29T13:29:52.000Z</time>
      </trkpt>
      <trkpt lat="47.03819" lon="-1.94036">
        <ele>62</ele>
        <time>2020-12-29T13:29:54.000Z</time>
      </trkpt>
      <trkpt lat="47.03812" lon="-1.94019">
        <ele>62</ele>
        <time>2020-12-29T13:29:56.000Z</time>
      </trkpt>
      <trkpt lat="47.03805" lon="-1.94002">
        <ele>62</ele>
        <time>2020-12-29T13:29:58.000Z</time>
      </trkpt>
      <trkpt lat="47.03798" lon="-1.93985">
        <ele>62</ele>
        <time>2020-12-29T13:30:00.000Z</time>
      </trkpt>
      <trkpt lat="47.03791" lon="-1.93968">
        <ele>62</ele>
        <time>2020-12-29T13:30:02.000Z</time>
      </trkpt>
      <trkpt lat="47.03784" lon="-1.9395">
        <ele>62</ele>
        <time>2020-12-29T13:30:04.000Z</time>
      </trkpt>
      <trkpt lat="47.03777" lon="-1.93933">
        <ele>62</ele>
        <time>2020-12-29T13:30:06.000Z</time>
      </trkpt>
      <trkpt lat="47.03771" lon="-1.93916">
        <ele>62</ele>
        <time>2020-12-29T13:30:08.000Z</time>
      </trkpt>
      <trkpt lat="47.03764" lon="-1.93899">
        <ele>62</ele>
        <time>2020-12-29T13:30:10.000Z</time>
      </trkpt>
      <trkpt lat="47.03757" lon="-1.93881">
        <ele>62</ele>
        <time>2020-12-29T13:30:12.000Z</time>
      </trkpt>
      <trkpt lat="47.0375" lon="-1.93863">
        <ele>61</ele>
        <time>2020-12-29T13:30:14.000Z</time>
      </trkpt>
      <trkpt lat="47.03743" lon="-1.93845">
        <ele>61</ele>
        <time>2020-12-29T13:30:16.000Z</time>
      </trkpt>
      <trkpt lat="47.03736" lon="-1.93828">
        <ele>61</ele>
        <time>2020-12-29T13:30:18.000Z</time>
      </trkpt>
      <trkpt lat="47.03729" lon="-1.93811">
        <ele>61</ele>
        <time>2020-12-29T13:30:20.000Z</time>
      </trkpt>
      <trkpt lat="47.03722" lon="-1.93794">
        <ele>61</ele>
        <time>2020-12-29T13:30:22.000Z</time>
      </trkpt>
      <trkpt lat="47.03715" lon="-1.93777">
        <ele>61</ele>
        <time>2020-12-29T13:30:24.000Z</time>
      </trkpt>
      <trkpt lat="47.03707" lon="-1.9376">
        <ele>61</ele>
        <time>2020-12-29T13:30:26.000Z</time>
      </trkpt>
      <trkpt lat="47.03701" lon="-1.93743">
        <ele>61</ele>
        <time>2020-12-29T13:30:28.000Z</time>
      </trkpt>
      <trkpt lat="47.03694" lon="-1.93726">
        <ele>61</ele>
        <time>2020-12-29T13:30:30.000Z</time>
      </trkpt>
      <trkpt lat="47.03687" lon="-1.93708">
        <ele>61</ele>
        <time>2020-12-29T13:30:32.000Z</time>
      </trkpt>
      <trkpt lat="47.0368" lon="-1.93691">
        <ele>61</ele>
        <time>2020-12-29T13:30:34.000Z</time>
      </trkpt>
      <trkpt lat="47.03674" lon="-1.93674">
        <ele>61</ele>
        <time>2020-12-29T13:30:36.000Z</time>
      </trkpt>
      <trkpt lat="47.03667" lon="-1.93656">
        <ele>61</ele>
        <time>2020-12-29T13:30:38.000Z</time>
      </trkpt>
      <trkpt lat="47.0366" lon="-1.93639">
        <ele>61</ele>
        <time>2020-12-29T13:30:40.000Z</time>
      </trkpt>
      <trkpt lat="47.03653" lon="-1.93622">
        <ele>62</ele>
        <time>2020-12-29T13:30:42.000Z</time>
      </trkpt>
      <trkpt lat="47.03646" lon="-1.93605">
        <ele>62</ele>
        <time>2020-12-29T13:30:44.000Z</time>
      </trkpt>
      <trkpt lat="47.03639" lon="-1.93588">
        <ele>62</ele>
        <time>2020-12-29T13:30:46.000Z</time>
      </trkpt>
      <trkpt lat="47.03633" lon="-1.93571">
        <ele>61</ele>
        <time>2020-12-29T13:30:48.000Z</time>
      </trkpt>
      <trkpt lat="47.03626" lon="-1.93554">
        <ele>61</ele>
        <time>2020-12-29T13:30:50.000Z</time>
      </trkpt>
      <trkpt lat="47.03619" lon="-1.93536">
        <ele>61</ele>
        <time>2020-12-29T13:30:52.000Z</time>
      </trkpt>
      <trkpt lat="47.03612" lon="-1.9352">
        <ele>61</ele>
        <time>2020-12-29T13:30:54.000Z</time>
      </trkpt>
      <trkpt lat="47.03605" lon="-1.93503">
        <ele>61</ele>
        <time>2020-12-29T13:30:56.000Z</time>
      </trkpt>
      <trkpt lat="47.03599" lon="-1.93485">
        <ele>61</ele>
        <time>2020-12-29T13:30:58.000Z</time>
      </trkpt>
      <trkpt lat="47.03592" lon="-1.93468">
        <ele>60</ele>
        <time>2020-12-29T13:31:00.000Z</time>
      </trkpt>
      <trkpt lat="47.03584" lon="-1.9345">
        <ele>60</ele>
        <time>2020-12-29T13:31:02.000Z</time>
      </trkpt>
      <trkpt lat="47.03577" lon="-1.93432">
        <ele>60</ele>
        <time>2020-12-29T13:31:04.000Z</time>
      </trkpt>
      <trkpt lat="47.0357" lon="-1.93413">
        <ele>60</ele>
        <time>2020-12-29T13:31:06.000Z</time>
      </trkpt>
      <trkpt lat="47.03563" lon="-1.93395">
        <ele>60</ele>
        <time>2020-12-29T13:31:08.000Z</time>
      </trkpt>
      <trkpt lat="47.03555" lon="-1.93377">
        <ele>59</ele>
        <time>2020-12-29T13:31:10.000Z</time>
      </trkpt>
      <trkpt lat="47.03547" lon="-1.93358">
        <ele>59</ele>
        <time>2020-12-29T13:31:12.000Z</time>
      </trkpt>
      <trkpt lat="47.0354" lon="-1.93339">
        <ele>59</ele>
        <time>2020-12-29T13:31:14.000Z</time>
      </trkpt>
      <trkpt lat="47.03532" lon="-1.9332">
        <ele>58</ele>
        <time>2020-12-29T13:31:16.000Z</time>
      </trkpt>
      <trkpt lat="47.03524" lon="-1.93301">
        <ele>58</ele>
        <time>2020-12-29T13:31:18.000Z</time>
      </trkpt>
      <trkpt lat="47.03516" lon="-1.93282">
        <ele>59</ele>
        <time>2020-12-29T13:31:20.000Z</time>
      </trkpt>
      <trkpt lat="47.03509" lon="-1.93262">
        <ele>59</ele>
        <time>2020-12-29T13:31:22.000Z</time>
      </trkpt>
      <trkpt lat="47.03501" lon="-1.93242">
        <ele>59</ele>
        <time>2020-12-29T13:31:24.000Z</time>
      </trkpt>
      <trkpt lat="47.03493" lon="-1.93223">
        <ele>59</ele>
        <time>2020-12-29T13:31:26.000Z</time>
      </trkpt>
      <trkpt lat="47.03485" lon="-1.93203">
        <ele>59</ele>
        <time>2020-12-29T13:31:28.000Z</time>
      </trkpt>
      <trkpt lat="47.03477" lon="-1.93183">
        <ele>59</ele>
        <time>2020-12-29T13:31:30.000Z</time>
      </trkpt>
      <trkpt lat="47.03469" lon="-1.93164">
        <ele>60</ele>
        <time>2020-12-29T13:31:32.000Z</time>
      </trkpt>
      <trkpt lat="47.03461" lon="-1.93144">
        <ele>59</ele>
        <time>2020-12-29T13:31:34.000Z</time>
      </trkpt>
      <trkpt lat="47.03453" lon="-1.93124">
        <ele>60</ele>
        <time>2020-12-29T13:31:36.000Z</time>
      </trkpt>
      <trkpt lat="47.03445" lon="-1.93104">
        <ele>60</ele>
        <time>2020-12-29T13:31:38.000Z</time>
      </trkpt>
      <trkpt lat="47.03436" lon="-1.93083">
        <ele>60</ele>
        <time>2020-12-29T13:31:40.000Z</time>
      </trkpt>
      <trkpt lat="47.03428" lon="-1.93062">
        <ele>60</ele>
        <time>2020-12-29T13:31:42.000Z</time>
      </trkpt>
      <trkpt lat="47.0342" lon="-1.93041">
        <ele>60</ele>
        <time>2020-12-29T13:31:44.000Z</time>
      </trkpt>
      <trkpt lat="47.03412" lon="-1.9302">
        <ele>60</ele>
        <time>2020-12-29T13:31:46.000Z</time>
      </trkpt>
      <trkpt lat="47.03403" lon="-1.92999">
        <ele>60</ele>
        <time>2020-12-29T13:31:48.000Z</time>
      </trkpt>
      <trkpt lat="47.03395" lon="-1.92978">
        <ele>60</ele>
        <time>2020-12-29T13:31:50.000Z</time>
      </trkpt>
      <trkpt lat="47.03386" lon="-1.92957">
        <ele>60</ele>
        <time>2020-12-29T13:31:52.000Z</time>
      </trkpt>
      <trkpt lat="47.03377" lon="-1.92935">
        <ele>60</ele>
        <time>2020-12-29T13:31:54.000Z</time>
      </trkpt>
      <trkpt lat="47.03369" lon="-1.92914">
        <ele>60</ele>
        <time>2020-12-29T13:31:56.000Z</time>
      </trkpt>
      <trkpt lat="47.03361" lon="-1.92894">
        <ele>60</ele>
        <time>2020-12-29T13:31:58.000Z</time>
      </trkpt>
      <trkpt lat="47.03353" lon="-1.92873">
        <ele>60</ele>
        <time>2020-12-29T13:32:00.000Z</time>
      </trkpt>
      <trkpt lat="47.03345" lon="-1.92853">
        <ele>59</ele>
        <time>2020-12-29T13:32:02.000Z</time>
      </trkpt>
      <trkpt lat="47.03337" lon="-1.92833">
        <ele>59</ele>
        <time>2020-12-29T13:32:04.000Z</time>
      </trkpt>
      <trkpt lat="47.03329" lon="-1.92814">
        <ele>59</ele>
        <time>2020-12-29T13:32:06.000Z</time>
      </trkpt>
      <trkpt lat="47.03321" lon="-1.92795">
        <ele>59</ele>
        <time>2020-12-29T13:32:08.000Z</time>
      </trkpt>
      <trkpt lat="47.03314" lon="-1.92776">
        <ele>59</ele>
        <time>2020-12-29T13:32:10.000Z</time>
      </trkpt>
      <trkpt lat="47.03307" lon="-1.92758">
        <ele>59</ele>
        <time>2020-12-29T13:32:12.000Z</time>
      </trkpt>
      <trkpt lat="47.03299" lon="-1.92739">
        <ele>59</ele>
        <time>2020-12-29T13:32:14.000Z</time>
      </trkpt>
      <trkpt lat="47.03293" lon="-1.92719">
        <ele>59</ele>
        <time>2020-12-29T13:32:16.000Z</time>
      </trkpt>
      <trkpt lat="47.03287" lon="-1.927">
        <ele>59</ele>
        <time>2020-12-29T13:32:18.000Z</time>
      </trkpt>
      <trkpt lat="47.03282" lon="-1.92681">
        <ele>58</ele>
        <time>2020-12-29T13:32:20.000Z</time>
      </trkpt>
      <trkpt lat="47.03277" lon="-1.9266">
        <ele>59</ele>
        <time>2020-12-29T13:32:22.000Z</time>
      </trkpt>
      <trkpt lat="47.03274" lon="-1.92639">
        <ele>58</ele>
        <time>2020-12-29T13:32:24.000Z</time>
      </trkpt>
      <trkpt lat="47.0327" lon="-1.92619">
        <ele>58</ele>
        <time>2020-12-29T13:32:26.000Z</time>
      </trkpt>
      <trkpt lat="47.03267" lon="-1.92598">
        <ele>59</ele>
        <time>2020-12-29T13:32:28.000Z</time>
      </trkpt>
      <trkpt lat="47.03263" lon="-1.92578">
        <ele>59</ele>
        <time>2020-12-29T13:32:30.000Z</time>
      </trkpt>
      <trkpt lat="47.0326" lon="-1.92557">
        <ele>58</ele>
        <time>2020-12-29T13:32:32.000Z</time>
      </trkpt>
      <trkpt lat="47.03257" lon="-1.92537">
        <ele>58</ele>
        <time>2020-12-29T13:32:34.000Z</time>
      </trkpt>
      <trkpt lat="47.03254" lon="-1.92517">
        <ele>59</ele>
        <time>2020-12-29T13:32:36.000Z</time>
      </trkpt>
      <trkpt lat="47.03251" lon="-1.92496">
        <ele>58</ele>
        <time>2020-12-29T13:32:38.000Z</time>
      </trkpt>
      <trkpt lat="47.03248" lon="-1.92474">
        <ele>58</ele>
        <time>2020-12-29T13:32:40.000Z</time>
      </trkpt>
      <trkpt lat="47.03246" lon="-1.92453">
        <ele>58</ele>
        <time>2020-12-29T13:32:42.000Z</time>
      </trkpt>
      <trkpt lat="47.03243" lon="-1.92432">
        <ele>59</ele>
        <time>2020-12-29T13:32:44.000Z</time>
      </trkpt>
      <trkpt lat="47.0324" lon="-1.92411">
        <ele>59</ele>
        <time>2020-12-29T13:32:46.000Z</time>
      </trkpt>
      <trkpt lat="47.03237" lon="-1.9239">
        <ele>59</ele>
        <time>2020-12-29T13:32:48.000Z</time>
      </trkpt>
      <trkpt lat="47.03234" lon="-1.9237">
        <ele>58</ele>
        <time>2020-12-29T13:32:50.000Z</time>
      </trkpt>
      <trkpt lat="47.03231" lon="-1.92349">
        <ele>59</ele>
        <time>2020-12-29T13:32:52.000Z</time>
      </trkpt>
      <trkpt lat="47.03229" lon="-1.92327">
        <ele>59</ele>
        <time>2020-12-29T13:32:54.000Z</time>
      </trkpt>
      <trkpt lat="47.03226" lon="-1.92307">
        <ele>59</ele>
        <time>2020-12-29T13:32:56.000Z</time>
      </trkpt>
      <trkpt lat="47.03223" lon="-1.92286">
        <ele>59</ele>
        <time>2020-12-29T13:32:58.000Z</time>
      </trkpt>
      <trkpt lat="47.03221" lon="-1.92265">
        <ele>59</ele>
        <time>2020-12-29T13:33:00.000Z</time>
      </trkpt>
      <trkpt lat="47.03218" lon="-1.92244">
        <ele>59</ele>
        <time>2020-12-29T13:33:02.000Z</time>
      </trkpt>
      <trkpt lat="47.03215" lon="-1.92223">
        <ele>60</ele>
        <time>2020-12-29T13:33:04.000Z</time>
      </trkpt>
      <trkpt lat="47.03213" lon="-1.92202">
        <ele>60</ele>
        <time>2020-12-29T13:33:06.000Z</time>
      </trkpt>
      <trkpt lat="47.0321" lon="-1.9218">
        <ele>60</ele>
        <time>2020-12-29T13:33:08.000Z</time>
      </trkpt>
      <trkpt lat="47.03206" lon="-1.92158">
        <ele>60</ele>
        <time>2020-12-29T13:33:10.000Z</time>
      </trkpt>
      <trkpt lat="47.03203" lon="-1.92136">
        <ele>60</ele>
        <time>2020-12-29T13:33:12.000Z</time>
      </trkpt>
      <trkpt lat="47.032" lon="-1.92113">
        <ele>60</ele>
        <time>2020-12-29T13:33:14.000Z</time>
      </trkpt>
      <trkpt lat="47.03196" lon="-1.92091">
        <ele>61</ele>
        <time>2020-12-29T13:33:16.000Z</time>
      </trkpt>
      <trkpt lat="47.03193" lon="-1.9207">
        <ele>61</ele>
        <time>2020-12-29T13:33:18.000Z</time>
      </trkpt>
      <trkpt lat="47.0319" lon="-1.92047">
        <ele>61</ele>
        <time>2020-12-29T13:33:20.000Z</time>
      </trkpt>
      <trkpt lat="47.03188" lon="-1.92025">
        <ele>60</ele>
        <time>2020-12-29T13:33:22.000Z</time>
      </trkpt>
      <trkpt lat="47.03185" lon="-1.92003">
        <ele>61</ele>
        <time>2020-12-29T13:33:24.000Z</time>
      </trkpt>
      <trkpt lat="47.03182" lon="-1.91981">
        <ele>60</ele>
        <time>2020-12-29T13:33:26.000Z</time>
      </trkpt>
      <trkpt lat="47.03178" lon="-1.91959">
        <ele>61</ele>
        <time>2020-12-29T13:33:28.000Z</time>
      </trkpt>
      <trkpt lat="47.03175" lon="-1.91937">
        <ele>61</ele>
        <time>2020-12-29T13:33:30.000Z</time>
      </trkpt>
      <trkpt lat="47.03172" lon="-1.91914">
        <ele>61</ele>
        <time>2020-12-29T13:33:32.000Z</time>
      </trkpt>
      <trkpt lat="47.03169" lon="-1.91892">
        <ele>61</ele>
        <time>2020-12-29T13:33:34.000Z</time>
      </trkpt>
      <trkpt lat="47.03166" lon="-1.91869">
        <ele>61</ele>
        <time>2020-12-29T13:33:36.000Z</time>
      </trkpt>
      <trkpt lat="47.03163" lon="-1.91847">
        <ele>61</ele>
        <time>2020-12-29T13:33:38.000Z</time>
      </trkpt>
      <trkpt lat="47.0316" lon="-1.91825">
        <ele>61</ele>
        <time>2020-12-29T13:33:40.000Z</time>
      </trkpt>
      <trkpt lat="47.03157" lon="-1.91802">
        <ele>61</ele>
        <time>2020-12-29T13:33:42.000Z</time>
      </trkpt>
      <trkpt lat="47.03154" lon="-1.9178">
        <ele>61</ele>
        <time>2020-12-29T13:33:44.000Z</time>
      </trkpt>
      <trkpt lat="47.03151" lon="-1.91757">
        <ele>61</ele>
        <time>2020-12-29T13:33:46.000Z</time>
      </trkpt>
      <trkpt lat="47.03148" lon="-1.91735">
        <ele>61</ele>
        <time>2020-12-29T13:33:48.000Z</time>
      </trkpt>
      <trkpt lat="47.03144" lon="-1.91712">
        <ele>61</ele>
        <time>2020-12-29T13:33:50.000Z</time>
      </trkpt>
      <trkpt lat="47.03141" lon="-1.91688">
        <ele>60</ele>
        <time>2020-12-29T13:33:52.000Z</time>
      </trkpt>
      <trkpt lat="47.03138" lon="-1.91665">
        <ele>60</ele>
        <time>2020-12-29T13:33:54.000Z</time>
      </trkpt>
      <trkpt lat="47.03135" lon="-1.9164">
        <ele>60</ele>
        <time>2020-12-29T13:33:56.000Z</time>
      </trkpt>
      <trkpt lat="47.03131" lon="-1.91616">
        <ele>59</ele>
        <time>2020-12-29T13:33:58.000Z</time>
      </trkpt>
      <trkpt lat="47.03128" lon="-1.91591">
        <ele>59</ele>
        <time>2020-12-29T13:34:00.000Z</time>
      </trkpt>
      <trkpt lat="47.03124" lon="-1.91566">
        <ele>58</ele>
        <time>2020-12-29T13:34:02.000Z</time>
      </trkpt>
      <trkpt lat="47.03121" lon="-1.9154">
        <ele>58</ele>
        <time>2020-12-29T13:34:04.000Z</time>
      </trkpt>
      <trkpt lat="47.03119" lon="-1.91527">
        <ele>58</ele>
        <time>2020-12-29T13:34:05.000Z</time>
      </trkpt>
      <trkpt lat="47.03117" lon="-1.91513">
        <ele>58</ele>
        <time>2020-12-29T13:34:06.000Z</time>
      </trkpt>
      <trkpt lat="47.03115" lon="-1.915">
        <ele>58</ele>
        <time>2020-12-29T13:34:07.000Z</time>
      </trkpt>
      <trkpt lat="47.03113" lon="-1.91487">
        <ele>58</ele>
        <time>2020-12-29T13:34:08.000Z</time>
      </trkpt>
      <trkpt lat="47.03111" lon="-1.91473">
        <ele>58</ele>
        <time>2020-12-29T13:34:09.000Z</time>
      </trkpt>
      <trkpt lat="47.0311" lon="-1.9146">
        <ele>57</ele>
        <time>2020-12-29T13:34:10.000Z</time>
      </trkpt>
      <trkpt lat="47.03108" lon="-1.91447">
        <ele>57</ele>
        <time>2020-12-29T13:34:11.000Z</time>
      </trkpt>
      <trkpt lat="47.03106" lon="-1.91434">
        <ele>57</ele>
        <time>2020-12-29T13:34:12.000Z</time>
      </trkpt>
      <trkpt lat="47.03105" lon="-1.9142">
        <ele>57</ele>
        <time>2020-12-29T13:34:13.000Z</time>
      </trkpt>
      <trkpt lat="47.03101" lon="-1.91395">
        <ele>57</ele>
        <time>2020-12-29T13:34:15.000Z</time>
      </trkpt>
      <trkpt lat="47.03097" lon="-1.9137">
        <ele>57</ele>
        <time>2020-12-29T13:34:17.000Z</time>
      </trkpt>
      <trkpt lat="47.03094" lon="-1.91346">
        <ele>57</ele>
        <time>2020-12-29T13:34:19.000Z</time>
      </trkpt>
      <trkpt lat="47.03091" lon="-1.91322">
        <ele>57</ele>
        <time>2020-12-29T13:34:21.000Z</time>
      </trkpt>
      <trkpt lat="47.03088" lon="-1.91298">
        <ele>57</ele>
        <time>2020-12-29T13:34:23.000Z</time>
      </trkpt>
      <trkpt lat="47.03085" lon="-1.91275">
        <ele>57</ele>
        <time>2020-12-29T13:34:25.000Z</time>
      </trkpt>
      <trkpt lat="47.03082" lon="-1.91251">
        <ele>58</ele>
        <time>2020-12-29T13:34:27.000Z</time>
      </trkpt>
      <trkpt lat="47.03079" lon="-1.91228">
        <ele>58</ele>
        <time>2020-12-29T13:34:29.000Z</time>
      </trkpt>
      <trkpt lat="47.03075" lon="-1.91206">
        <ele>58</ele>
        <time>2020-12-29T13:34:31.000Z</time>
      </trkpt>
      <trkpt lat="47.03072" lon="-1.91182">
        <ele>58</ele>
        <time>2020-12-29T13:34:33.000Z</time>
      </trkpt>
      <trkpt lat="47.03069" lon="-1.91158">
        <ele>58</ele>
        <time>2020-12-29T13:34:35.000Z</time>
      </trkpt>
      <trkpt lat="47.03066" lon="-1.91136">
        <ele>58</ele>
        <time>2020-12-29T13:34:37.000Z</time>
      </trkpt>
      <trkpt lat="47.03063" lon="-1.91113">
        <ele>58</ele>
        <time>2020-12-29T13:34:39.000Z</time>
      </trkpt>
      <trkpt lat="47.0306" lon="-1.9109">
        <ele>58</ele>
        <time>2020-12-29T13:34:41.000Z</time>
      </trkpt>
      <trkpt lat="47.03057" lon="-1.91067">
        <ele>58</ele>
        <time>2020-12-29T13:34:43.000Z</time>
      </trkpt>
      <trkpt lat="47.03054" lon="-1.91045">
        <ele>58</ele>
        <time>2020-12-29T13:34:45.000Z</time>
      </trkpt>
      <trkpt lat="47.03051" lon="-1.91022">
        <ele>58</ele>
        <time>2020-12-29T13:34:47.000Z</time>
      </trkpt>
      <trkpt lat="47.03048" lon="-1.90999">
        <ele>58</ele>
        <time>2020-12-29T13:34:49.000Z</time>
      </trkpt>
      <trkpt lat="47.03045" lon="-1.90975">
        <ele>58</ele>
        <time>2020-12-29T13:34:51.000Z</time>
      </trkpt>
      <trkpt lat="47.03042" lon="-1.90953">
        <ele>58</ele>
        <time>2020-12-29T13:34:53.000Z</time>
      </trkpt>
      <trkpt lat="47.03038" lon="-1.9093">
        <ele>58</ele>
        <time>2020-12-29T13:34:55.000Z</time>
      </trkpt>
      <trkpt lat="47.03035" lon="-1.90907">
        <ele>58</ele>
        <time>2020-12-29T13:34:57.000Z</time>
      </trkpt>
      <trkpt lat="47.03032" lon="-1.90884">
        <ele>58</ele>
        <time>2020-12-29T13:34:59.000Z</time>
      </trkpt>
      <trkpt lat="47.03029" lon="-1.9086">
        <ele>58</ele>
        <time>2020-12-29T13:35:01.000Z</time>
      </trkpt>
      <trkpt lat="47.03026" lon="-1.90837">
        <ele>57</ele>
        <time>2020-12-29T13:35:03.000Z</time>
      </trkpt>
      <trkpt lat="47.03023" lon="-1.90814">
        <ele>57</ele>
        <time>2020-12-29T13:35:05.000Z</time>
      </trkpt>
      <trkpt lat="47.0302" lon="-1.90791">
        <ele>58</ele>
        <time>2020-12-29T13:35:07.000Z</time>
      </trkpt>
      <trkpt lat="47.03017" lon="-1.90769">
        <ele>57</ele>
        <time>2020-12-29T13:35:09.000Z</time>
      </trkpt>
      <trkpt lat="47.03014" lon="-1.90747">
        <ele>57</ele>
        <time>2020-12-29T13:35:11.000Z</time>
      </trkpt>
      <trkpt lat="47.03011" lon="-1.90725">
        <ele>57</ele>
        <time>2020-12-29T13:35:13.000Z</time>
      </trkpt>
      <trkpt lat="47.03008" lon="-1.90703">
        <ele>57</ele>
        <time>2020-12-29T13:35:15.000Z</time>
      </trkpt>
      <trkpt lat="47.03006" lon="-1.9068">
        <ele>57</ele>
        <time>2020-12-29T13:35:17.000Z</time>
      </trkpt>
      <trkpt lat="47.03002" lon="-1.90658">
        <ele>58</ele>
        <time>2020-12-29T13:35:19.000Z</time>
      </trkpt>
      <trkpt lat="47.03" lon="-1.90635">
        <ele>58</ele>
        <time>2020-12-29T13:35:21.000Z</time>
      </trkpt>
      <trkpt lat="47.02996" lon="-1.90613">
        <ele>57</ele>
        <time>2020-12-29T13:35:23.000Z</time>
      </trkpt>
      <trkpt lat="47.02993" lon="-1.90591">
        <ele>57</ele>
        <time>2020-12-29T13:35:25.000Z</time>
      </trkpt>
      <trkpt lat="47.02991" lon="-1.90568">
        <ele>57</ele>
        <time>2020-12-29T13:35:27.000Z</time>
      </trkpt>
      <trkpt lat="47.02988" lon="-1.90546">
        <ele>58</ele>
        <time>2020-12-29T13:35:29.000Z</time>
      </trkpt>
      <trkpt lat="47.02986" lon="-1.90527">
        <ele>58</ele>
        <time>2020-12-29T13:35:31.000Z</time>
      </trkpt>
      <trkpt lat="47.02983" lon="-1.90511">
        <ele>58</ele>
        <time>2020-12-29T13:35:33.000Z</time>
      </trkpt>
      <trkpt lat="47.02977" lon="-1.90496">
        <ele>58</ele>
        <time>2020-12-29T13:35:35.000Z</time>
      </trkpt>
      <trkpt lat="47.02974" lon="-1.90478">
        <ele>58</ele>
        <time>2020-12-29T13:35:37.000Z</time>
      </trkpt>
      <trkpt lat="47.02973" lon="-1.90457">
        <ele>59</ele>
        <time>2020-12-29T13:35:39.000Z</time>
      </trkpt>
      <trkpt lat="47.02971" lon="-1.90435">
        <ele>58</ele>
        <time>2020-12-29T13:35:41.000Z</time>
      </trkpt>
      <trkpt lat="47.02968" lon="-1.90414">
        <ele>58</ele>
        <time>2020-12-29T13:35:43.000Z</time>
      </trkpt>
      <trkpt lat="47.02965" lon="-1.90391">
        <ele>58</ele>
        <time>2020-12-29T13:35:45.000Z</time>
      </trkpt>
      <trkpt lat="47.02962" lon="-1.90368">
        <ele>58</ele>
        <time>2020-12-29T13:35:47.000Z</time>
      </trkpt>
      <trkpt lat="47.02959" lon="-1.90346">
        <ele>58</ele>
        <time>2020-12-29T13:35:49.000Z</time>
      </trkpt>
      <trkpt lat="47.02956" lon="-1.90324">
        <ele>58</ele>
        <time>2020-12-29T13:35:51.000Z</time>
      </trkpt>
      <trkpt lat="47.02953" lon="-1.90302">
        <ele>58</ele>
        <time>2020-12-29T13:35:53.000Z</time>
      </trkpt>
      <trkpt lat="47.0295" lon="-1.90281">
        <ele>57</ele>
        <time>2020-12-29T13:35:55.000Z</time>
      </trkpt>
      <trkpt lat="47.02947" lon="-1.90259">
        <ele>58</ele>
        <time>2020-12-29T13:35:57.000Z</time>
      </trkpt>
      <trkpt lat="47.02945" lon="-1.90237">
        <ele>58</ele>
        <time>2020-12-29T13:35:59.000Z</time>
      </trkpt>
      <trkpt lat="47.02942" lon="-1.90216">
        <ele>57</ele>
        <time>2020-12-29T13:36:01.000Z</time>
      </trkpt>
      <trkpt lat="47.02939" lon="-1.90193">
        <ele>57</ele>
        <time>2020-12-29T13:36:03.000Z</time>
      </trkpt>
      <trkpt lat="47.02936" lon="-1.90171">
        <ele>57</ele>
        <time>2020-12-29T13:36:05.000Z</time>
      </trkpt>
      <trkpt lat="47.02933" lon="-1.90149">
        <ele>57</ele>
        <time>2020-12-29T13:36:07.000Z</time>
      </trkpt>
      <trkpt lat="47.0293" lon="-1.90128">
        <ele>57</ele>
        <time>2020-12-29T13:36:09.000Z</time>
      </trkpt>
      <trkpt lat="47.02928" lon="-1.90106">
        <ele>56</ele>
        <time>2020-12-29T13:36:11.000Z</time>
      </trkpt>
      <trkpt lat="47.02925" lon="-1.90084">
        <ele>56</ele>
        <time>2020-12-29T13:36:13.000Z</time>
      </trkpt>
      <trkpt lat="47.02922" lon="-1.90062">
        <ele>56</ele>
        <time>2020-12-29T13:36:15.000Z</time>
      </trkpt>
      <trkpt lat="47.02919" lon="-1.90041">
        <ele>56</ele>
        <time>2020-12-29T13:36:17.000Z</time>
      </trkpt>
      <trkpt lat="47.02915" lon="-1.90019">
        <ele>56</ele>
        <time>2020-12-29T13:36:19.000Z</time>
      </trkpt>
      <trkpt lat="47.02913" lon="-1.89997">
        <ele>56</ele>
        <time>2020-12-29T13:36:21.000Z</time>
      </trkpt>
      <trkpt lat="47.0291" lon="-1.89976">
        <ele>56</ele>
        <time>2020-12-29T13:36:23.000Z</time>
      </trkpt>
      <trkpt lat="47.02906" lon="-1.89955">
        <ele>56</ele>
        <time>2020-12-29T13:36:25.000Z</time>
      </trkpt>
      <trkpt lat="47.02903" lon="-1.89934">
        <ele>56</ele>
        <time>2020-12-29T13:36:27.000Z</time>
      </trkpt>
      <trkpt lat="47.029" lon="-1.89914">
        <ele>56</ele>
        <time>2020-12-29T13:36:29.000Z</time>
      </trkpt>
      <trkpt lat="47.02897" lon="-1.89893">
        <ele>56</ele>
        <time>2020-12-29T13:36:31.000Z</time>
      </trkpt>
      <trkpt lat="47.02895" lon="-1.89872">
        <ele>57</ele>
        <time>2020-12-29T13:36:33.000Z</time>
      </trkpt>
      <trkpt lat="47.02892" lon="-1.89851">
        <ele>56</ele>
        <time>2020-12-29T13:36:35.000Z</time>
      </trkpt>
      <trkpt lat="47.02889" lon="-1.89831">
        <ele>56</ele>
        <time>2020-12-29T13:36:37.000Z</time>
      </trkpt>
      <trkpt lat="47.02886" lon="-1.8981">
        <ele>56</ele>
        <time>2020-12-29T13:36:39.000Z</time>
      </trkpt>
      <trkpt lat="47.02883" lon="-1.89789">
        <ele>56</ele>
        <time>2020-12-29T13:36:41.000Z</time>
      </trkpt>
      <trkpt lat="47.0288" lon="-1.89768">
        <ele>56</ele>
        <time>2020-12-29T13:36:43.000Z</time>
      </trkpt>
      <trkpt lat="47.02878" lon="-1.89748">
        <ele>56</ele>
        <time>2020-12-29T13:36:45.000Z</time>
      </trkpt>
      <trkpt lat="47.02875" lon="-1.89727">
        <ele>56</ele>
        <time>2020-12-29T13:36:47.000Z</time>
      </trkpt>
      <trkpt lat="47.02872" lon="-1.89707">
        <ele>56</ele>
        <time>2020-12-29T13:36:49.000Z</time>
      </trkpt>
      <trkpt lat="47.0287" lon="-1.89686">
        <ele>56</ele>
        <time>2020-12-29T13:36:51.000Z</time>
      </trkpt>
      <trkpt lat="47.02867" lon="-1.89665">
        <ele>57</ele>
        <time>2020-12-29T13:36:53.000Z</time>
      </trkpt>
      <trkpt lat="47.02864" lon="-1.89645">
        <ele>57</ele>
        <time>2020-12-29T13:36:55.000Z</time>
      </trkpt>
      <trkpt lat="47.02861" lon="-1.89625">
        <ele>57</ele>
        <time>2020-12-29T13:36:57.000Z</time>
      </trkpt>
      <trkpt lat="47.02858" lon="-1.89604">
        <ele>57</ele>
        <time>2020-12-29T13:36:59.000Z</time>
      </trkpt>
      <trkpt lat="47.02856" lon="-1.89584">
        <ele>57</ele>
        <time>2020-12-29T13:37:01.000Z</time>
      </trkpt>
      <trkpt lat="47.02853" lon="-1.89563">
        <ele>57</ele>
        <time>2020-12-29T13:37:03.000Z</time>
      </trkpt>
      <trkpt lat="47.0285" lon="-1.89542">
        <ele>57</ele>
        <time>2020-12-29T13:37:05.000Z</time>
      </trkpt>
      <trkpt lat="47.02847" lon="-1.89521">
        <ele>56</ele>
        <time>2020-12-29T13:37:07.000Z</time>
      </trkpt>
      <trkpt lat="47.02844" lon="-1.895">
        <ele>57</ele>
        <time>2020-12-29T13:37:09.000Z</time>
      </trkpt>
      <trkpt lat="47.02842" lon="-1.89477">
        <ele>56</ele>
        <time>2020-12-29T13:37:11.000Z</time>
      </trkpt>
      <trkpt lat="47.02839" lon="-1.89456">
        <ele>56</ele>
        <time>2020-12-29T13:37:13.000Z</time>
      </trkpt>
      <trkpt lat="47.02836" lon="-1.89434">
        <ele>56</ele>
        <time>2020-12-29T13:37:15.000Z</time>
      </trkpt>
      <trkpt lat="47.02833" lon="-1.89413">
        <ele>56</ele>
        <time>2020-12-29T13:37:17.000Z</time>
      </trkpt>
      <trkpt lat="47.0283" lon="-1.89392">
        <ele>56</ele>
        <time>2020-12-29T13:37:19.000Z</time>
      </trkpt>
      <trkpt lat="47.02828" lon="-1.89371">
        <ele>56</ele>
        <time>2020-12-29T13:37:21.000Z</time>
      </trkpt>
      <trkpt lat="47.02825" lon="-1.8935">
        <ele>56</ele>
        <time>2020-12-29T13:37:23.000Z</time>
      </trkpt>
      <trkpt lat="47.02821" lon="-1.8933">
        <ele>56</ele>
        <time>2020-12-29T13:37:25.000Z</time>
      </trkpt>
      <trkpt lat="47.02819" lon="-1.89309">
        <ele>56</ele>
        <time>2020-12-29T13:37:27.000Z</time>
      </trkpt>
      <trkpt lat="47.02816" lon="-1.89287">
        <ele>56</ele>
        <time>2020-12-29T13:37:29.000Z</time>
      </trkpt>
      <trkpt lat="47.02813" lon="-1.89266">
        <ele>57</ele>
        <time>2020-12-29T13:37:31.000Z</time>
      </trkpt>
      <trkpt lat="47.0281" lon="-1.89244">
        <ele>56</ele>
        <time>2020-12-29T13:37:33.000Z</time>
      </trkpt>
      <trkpt lat="47.02807" lon="-1.89222">
        <ele>56</ele>
        <time>2020-12-29T13:37:35.000Z</time>
      </trkpt>
      <trkpt lat="47.02804" lon="-1.89201">
        <ele>56</ele>
        <time>2020-12-29T13:37:37.000Z</time>
      </trkpt>
      <trkpt lat="47.02801" lon="-1.89179">
        <ele>56</ele>
        <time>2020-12-29T13:37:39.000Z</time>
      </trkpt>
      <trkpt lat="47.02798" lon="-1.89158">
        <ele>56</ele>
        <time>2020-12-29T13:37:41.000Z</time>
      </trkpt>
      <trkpt lat="47.02796" lon="-1.89136">
        <ele>56</ele>
        <time>2020-12-29T13:37:43.000Z</time>
      </trkpt>
      <trkpt lat="47.02793" lon="-1.89114">
        <ele>55</ele>
        <time>2020-12-29T13:37:45.000Z</time>
      </trkpt>
      <trkpt lat="47.0279" lon="-1.89093">
        <ele>55</ele>
        <time>2020-12-29T13:37:47.000Z</time>
      </trkpt>
      <trkpt lat="47.02787" lon="-1.89072">
        <ele>55</ele>
        <time>2020-12-29T13:37:49.000Z</time>
      </trkpt>
      <trkpt lat="47.02784" lon="-1.8905">
        <ele>55</ele>
        <time>2020-12-29T13:37:51.000Z</time>
      </trkpt>
      <trkpt lat="47.02781" lon="-1.89029">
        <ele>55</ele>
        <time>2020-12-29T13:37:53.000Z</time>
      </trkpt>
      <trkpt lat="47.02778" lon="-1.89008">
        <ele>55</ele>
        <time>2020-12-29T13:37:55.000Z</time>
      </trkpt>
      <trkpt lat="47.02775" lon="-1.88986">
        <ele>56</ele>
        <time>2020-12-29T13:37:57.000Z</time>
      </trkpt>
      <trkpt lat="47.02772" lon="-1.88965">
        <ele>56</ele>
        <time>2020-12-29T13:37:59.000Z</time>
      </trkpt>
      <trkpt lat="47.02769" lon="-1.88944">
        <ele>56</ele>
        <time>2020-12-29T13:38:01.000Z</time>
      </trkpt>
      <trkpt lat="47.02766" lon="-1.88921">
        <ele>55</ele>
        <time>2020-12-29T13:38:03.000Z</time>
      </trkpt>
      <trkpt lat="47.02763" lon="-1.88899">
        <ele>55</ele>
        <time>2020-12-29T13:38:05.000Z</time>
      </trkpt>
      <trkpt lat="47.0276" lon="-1.88877">
        <ele>55</ele>
        <time>2020-12-29T13:38:07.000Z</time>
      </trkpt>
      <trkpt lat="47.02757" lon="-1.88855">
        <ele>54</ele>
        <time>2020-12-29T13:38:09.000Z</time>
      </trkpt>
      <trkpt lat="47.02755" lon="-1.88832">
        <ele>54</ele>
        <time>2020-12-29T13:38:11.000Z</time>
      </trkpt>
      <trkpt lat="47.02752" lon="-1.8881">
        <ele>54</ele>
        <time>2020-12-29T13:38:13.000Z</time>
      </trkpt>
      <trkpt lat="47.02748" lon="-1.88787">
        <ele>54</ele>
        <time>2020-12-29T13:38:15.000Z</time>
      </trkpt>
      <trkpt lat="47.02746" lon="-1.88765">
        <ele>54</ele>
        <time>2020-12-29T13:38:17.000Z</time>
      </trkpt>
      <trkpt lat="47.02742" lon="-1.88742">
        <ele>54</ele>
        <time>2020-12-29T13:38:19.000Z</time>
      </trkpt>
      <trkpt lat="47.02739" lon="-1.88719">
        <ele>54</ele>
        <time>2020-12-29T13:38:21.000Z</time>
      </trkpt>
      <trkpt lat="47.02736" lon="-1.88696">
        <ele>54</ele>
        <time>2020-12-29T13:38:23.000Z</time>
      </trkpt>
      <trkpt lat="47.02733" lon="-1.88672">
        <ele>54</ele>
        <time>2020-12-29T13:38:25.000Z</time>
      </trkpt>
      <trkpt lat="47.02729" lon="-1.88648">
        <ele>54</ele>
        <time>2020-12-29T13:38:27.000Z</time>
      </trkpt>
      <trkpt lat="47.02726" lon="-1.88624">
        <ele>54</ele>
        <time>2020-12-29T13:38:29.000Z</time>
      </trkpt>
      <trkpt lat="47.02723" lon="-1.886">
        <ele>54</ele>
        <time>2020-12-29T13:38:31.000Z</time>
      </trkpt>
      <trkpt lat="47.0272" lon="-1.88576">
        <ele>54</ele>
        <time>2020-12-29T13:38:33.000Z</time>
      </trkpt>
      <trkpt lat="47.02716" lon="-1.88552">
        <ele>54</ele>
        <time>2020-12-29T13:38:35.000Z</time>
      </trkpt>
      <trkpt lat="47.02713" lon="-1.88529">
        <ele>54</ele>
        <time>2020-12-29T13:38:37.000Z</time>
      </trkpt>
      <trkpt lat="47.0271" lon="-1.88506">
        <ele>54</ele>
        <time>2020-12-29T13:38:39.000Z</time>
      </trkpt>
      <trkpt lat="47.02707" lon="-1.88483">
        <ele>54</ele>
        <time>2020-12-29T13:38:41.000Z</time>
      </trkpt>
      <trkpt lat="47.02704" lon="-1.88459">
        <ele>54</ele>
        <time>2020-12-29T13:38:43.000Z</time>
      </trkpt>
      <trkpt lat="47.027" lon="-1.88436">
        <ele>54</ele>
        <time>2020-12-29T13:38:45.000Z</time>
      </trkpt>
      <trkpt lat="47.02697" lon="-1.88414">
        <ele>54</ele>
        <time>2020-12-29T13:38:47.000Z</time>
      </trkpt>
      <trkpt lat="47.02694" lon="-1.88391">
        <ele>54</ele>
        <time>2020-12-29T13:38:49.000Z</time>
      </trkpt>
      <trkpt lat="47.02691" lon="-1.88368">
        <ele>54</ele>
        <time>2020-12-29T13:38:51.000Z</time>
      </trkpt>
      <trkpt lat="47.02688" lon="-1.88345">
        <ele>54</ele>
        <time>2020-12-29T13:38:53.000Z</time>
      </trkpt>
      <trkpt lat="47.02685" lon="-1.88323">
        <ele>54</ele>
        <time>2020-12-29T13:38:55.000Z</time>
      </trkpt>
      <trkpt lat="47.02682" lon="-1.883">
        <ele>54</ele>
        <time>2020-12-29T13:38:57.000Z</time>
      </trkpt>
      <trkpt lat="47.02679" lon="-1.88278">
        <ele>54</ele>
        <time>2020-12-29T13:38:59.000Z</time>
      </trkpt>
      <trkpt lat="47.02676" lon="-1.88256">
        <ele>54</ele>
        <time>2020-12-29T13:39:01.000Z</time>
      </trkpt>
      <trkpt lat="47.02673" lon="-1.88234">
        <ele>54</ele>
        <time>2020-12-29T13:39:03.000Z</time>
      </trkpt>
      <trkpt lat="47.0267" lon="-1.88212">
        <ele>54</ele>
        <time>2020-12-29T13:39:05.000Z</time>
      </trkpt>
      <trkpt lat="47.02667" lon="-1.88189">
        <ele>55</ele>
        <time>2020-12-29T13:39:07.000Z</time>
      </trkpt>
      <trkpt lat="47.02664" lon="-1.88167">
        <ele>55</ele>
        <time>2020-12-29T13:39:09.000Z</time>
      </trkpt>
      <trkpt lat="47.02661" lon="-1.88145">
        <ele>54</ele>
        <time>2020-12-29T13:39:11.000Z</time>
      </trkpt>
      <trkpt lat="47.02658" lon="-1.88123">
        <ele>54</ele>
        <time>2020-12-29T13:39:13.000Z</time>
      </trkpt>
      <trkpt lat="47.02655" lon="-1.88102">
        <ele>54</ele>
        <time>2020-12-29T13:39:15.000Z</time>
      </trkpt>
      <trkpt lat="47.02652" lon="-1.8808">
        <ele>54</ele>
        <time>2020-12-29T13:39:17.000Z</time>
      </trkpt>
      <trkpt lat="47.02649" lon="-1.88058">
        <ele>54</ele>
        <time>2020-12-29T13:39:19.000Z</time>
      </trkpt>
      <trkpt lat="47.02646" lon="-1.88036">
        <ele>54</ele>
        <time>2020-12-29T13:39:21.000Z</time>
      </trkpt>
      <trkpt lat="47.02642" lon="-1.88016">
        <ele>54</ele>
        <time>2020-12-29T13:39:23.000Z</time>
      </trkpt>
      <trkpt lat="47.02636" lon="-1.87995">
        <ele>54</ele>
        <time>2020-12-29T13:39:25.000Z</time>
      </trkpt>
      <trkpt lat="47.02629" lon="-1.87976">
        <ele>54</ele>
        <time>2020-12-29T13:39:27.000Z</time>
      </trkpt>
      <trkpt lat="47.02622" lon="-1.87957">
        <ele>54</ele>
        <time>2020-12-29T13:39:29.000Z</time>
      </trkpt>
      <trkpt lat="47.02613" lon="-1.87939">
        <ele>55</ele>
        <time>2020-12-29T13:39:31.000Z</time>
      </trkpt>
      <trkpt lat="47.02603" lon="-1.87924">
        <ele>55</ele>
        <time>2020-12-29T13:39:33.000Z</time>
      </trkpt>
      <trkpt lat="47.02594" lon="-1.87907">
        <ele>55</ele>
        <time>2020-12-29T13:39:35.000Z</time>
      </trkpt>
      <trkpt lat="47.02583" lon="-1.87892">
        <ele>55</ele>
        <time>2020-12-29T13:39:37.000Z</time>
      </trkpt>
      <trkpt lat="47.02574" lon="-1.87876">
        <ele>55</ele>
        <time>2020-12-29T13:39:39.000Z</time>
      </trkpt>
      <trkpt lat="47.02565" lon="-1.8786">
        <ele>55</ele>
        <time>2020-12-29T13:39:41.000Z</time>
      </trkpt>
      <trkpt lat="47.02556" lon="-1.87844">
        <ele>55</ele>
        <time>2020-12-29T13:39:43.000Z</time>
      </trkpt>
      <trkpt lat="47.02546" lon="-1.87829">
        <ele>55</ele>
        <time>2020-12-29T13:39:45.000Z</time>
      </trkpt>
      <trkpt lat="47.02538" lon="-1.87814">
        <ele>55</ele>
        <time>2020-12-29T13:39:47.000Z</time>
      </trkpt>
      <trkpt lat="47.0253" lon="-1.87798">
        <ele>56</ele>
        <time>2020-12-29T13:39:49.000Z</time>
      </trkpt>
      <trkpt lat="47.0252" lon="-1.87783">
        <ele>56</ele>
        <time>2020-12-29T13:39:51.000Z</time>
      </trkpt>
      <trkpt lat="47.0251" lon="-1.87767">
        <ele>55</ele>
        <time>2020-12-29T13:39:53.000Z</time>
      </trkpt>
      <trkpt lat="47.025" lon="-1.87752">
        <ele>55</ele>
        <time>2020-12-29T13:39:55.000Z</time>
      </trkpt>
      <trkpt lat="47.0249" lon="-1.87737">
        <ele>55</ele>
        <time>2020-12-29T13:39:57.000Z</time>
      </trkpt>
      <trkpt lat="47.02483" lon="-1.87722">
        <ele>56</ele>
        <time>2020-12-29T13:39:59.000Z</time>
      </trkpt>
      <trkpt lat="47.02475" lon="-1.87709">
        <ele>56</ele>
        <time>2020-12-29T13:40:01.000Z</time>
      </trkpt>
      <trkpt lat="47.02468" lon="-1.87697">
        <ele>55</ele>
        <time>2020-12-29T13:40:03.000Z</time>
      </trkpt>
      <trkpt lat="47.02464" lon="-1.87685">
        <ele>56</ele>
        <time>2020-12-29T13:40:05.000Z</time>
      </trkpt>
      <trkpt lat="47.02469" lon="-1.87668">
        <ele>56</ele>
        <time>2020-12-29T13:40:07.000Z</time>
      </trkpt>
      <trkpt lat="47.02471" lon="-1.87646">
        <ele>56</ele>
        <time>2020-12-29T13:40:09.000Z</time>
      </trkpt>
      <trkpt lat="47.02474" lon="-1.87623">
        <ele>56</ele>
        <time>2020-12-29T13:40:11.000Z</time>
      </trkpt>
      <trkpt lat="47.02478" lon="-1.87601">
        <ele>56</ele>
        <time>2020-12-29T13:40:13.000Z</time>
      </trkpt>
      <trkpt lat="47.02484" lon="-1.87578">
        <ele>56</ele>
        <time>2020-12-29T13:40:15.000Z</time>
      </trkpt>
      <trkpt lat="47.02483" lon="-1.87555">
        <ele>56</ele>
        <time>2020-12-29T13:40:17.000Z</time>
      </trkpt>
      <trkpt lat="47.02479" lon="-1.87532">
        <ele>56</ele>
        <time>2020-12-29T13:40:19.000Z</time>
      </trkpt>
      <trkpt lat="47.02476" lon="-1.87509">
        <ele>56</ele>
        <time>2020-12-29T13:40:21.000Z</time>
      </trkpt>
      <trkpt lat="47.02472" lon="-1.87487">
        <ele>56</ele>
        <time>2020-12-29T13:40:23.000Z</time>
      </trkpt>
      <trkpt lat="47.02468" lon="-1.87465">
        <ele>56</ele>
        <time>2020-12-29T13:40:25.000Z</time>
      </trkpt>
      <trkpt lat="47.02464" lon="-1.87444">
        <ele>56</ele>
        <time>2020-12-29T13:40:27.000Z</time>
      </trkpt>
      <trkpt lat="47.02457" lon="-1.87424">
        <ele>56</ele>
        <time>2020-12-29T13:40:29.000Z</time>
      </trkpt>
      <trkpt lat="47.02451" lon="-1.87403">
        <ele>56</ele>
        <time>2020-12-29T13:40:31.000Z</time>
      </trkpt>
      <trkpt lat="47.02445" lon="-1.87383">
        <ele>56</ele>
        <time>2020-12-29T13:40:33.000Z</time>
      </trkpt>
      <trkpt lat="47.02442" lon="-1.87361">
        <ele>56</ele>
        <time>2020-12-29T13:40:35.000Z</time>
      </trkpt>
      <trkpt lat="47.02441" lon="-1.87339">
        <ele>56</ele>
        <time>2020-12-29T13:40:37.000Z</time>
      </trkpt>
      <trkpt lat="47.0244" lon="-1.87317">
        <ele>56</ele>
        <time>2020-12-29T13:40:39.000Z</time>
      </trkpt>
      <trkpt lat="47.02439" lon="-1.87296">
        <ele>56</ele>
        <time>2020-12-29T13:40:41.000Z</time>
      </trkpt>
      <trkpt lat="47.02439" lon="-1.87274">
        <ele>56</ele>
        <time>2020-12-29T13:40:43.000Z</time>
      </trkpt>
      <trkpt lat="47.02438" lon="-1.87254">
        <ele>55</ele>
        <time>2020-12-29T13:40:45.000Z</time>
      </trkpt>
      <trkpt lat="47.02437" lon="-1.87233">
        <ele>55</ele>
        <time>2020-12-29T13:40:47.000Z</time>
      </trkpt>
      <trkpt lat="47.02436" lon="-1.87213">
        <ele>54</ele>
        <time>2020-12-29T13:40:49.000Z</time>
      </trkpt>
      <trkpt lat="47.02435" lon="-1.87192">
        <ele>54</ele>
        <time>2020-12-29T13:40:51.000Z</time>
      </trkpt>
      <trkpt lat="47.02433" lon="-1.87171">
        <ele>54</ele>
        <time>2020-12-29T13:40:53.000Z</time>
      </trkpt>
      <trkpt lat="47.02432" lon="-1.8715">
        <ele>54</ele>
        <time>2020-12-29T13:40:55.000Z</time>
      </trkpt>
      <trkpt lat="47.0243" lon="-1.87128">
        <ele>54</ele>
        <time>2020-12-29T13:40:57.000Z</time>
      </trkpt>
      <trkpt lat="47.02428" lon="-1.87108">
        <ele>55</ele>
        <time>2020-12-29T13:40:59.000Z</time>
      </trkpt>
      <trkpt lat="47.02426" lon="-1.87087">
        <ele>55</ele>
        <time>2020-12-29T13:41:01.000Z</time>
      </trkpt>
      <trkpt lat="47.02423" lon="-1.87067">
        <ele>54</ele>
        <time>2020-12-29T13:41:03.000Z</time>
      </trkpt>
      <trkpt lat="47.02421" lon="-1.87046">
        <ele>55</ele>
        <time>2020-12-29T13:41:05.000Z</time>
      </trkpt>
      <trkpt lat="47.02416" lon="-1.87025">
        <ele>55</ele>
        <time>2020-12-29T13:41:07.000Z</time>
      </trkpt>
      <trkpt lat="47.02411" lon="-1.87005">
        <ele>55</ele>
        <time>2020-12-29T13:41:09.000Z</time>
      </trkpt>
      <trkpt lat="47.02405" lon="-1.86986">
        <ele>55</ele>
        <time>2020-12-29T13:41:11.000Z</time>
      </trkpt>
      <trkpt lat="47.02399" lon="-1.86966">
        <ele>56</ele>
        <time>2020-12-29T13:41:13.000Z</time>
      </trkpt>
      <trkpt lat="47.02393" lon="-1.86945">
        <ele>56</ele>
        <time>2020-12-29T13:41:15.000Z</time>
      </trkpt>
      <trkpt lat="47.02387" lon="-1.86925">
        <ele>56</ele>
        <time>2020-12-29T13:41:17.000Z</time>
      </trkpt>
      <trkpt lat="47.02381" lon="-1.86904">
        <ele>57</ele>
        <time>2020-12-29T13:41:19.000Z</time>
      </trkpt>
      <trkpt lat="47.02375" lon="-1.86884">
        <ele>57</ele>
        <time>2020-12-29T13:41:21.000Z</time>
      </trkpt>
      <trkpt lat="47.02369" lon="-1.86864">
        <ele>57</ele>
        <time>2020-12-29T13:41:23.000Z</time>
      </trkpt>
      <trkpt lat="47.02363" lon="-1.86844">
        <ele>57</ele>
        <time>2020-12-29T13:41:25.000Z</time>
      </trkpt>
      <trkpt lat="47.02358" lon="-1.86824">
        <ele>58</ele>
        <time>2020-12-29T13:41:27.000Z</time>
      </trkpt>
      <trkpt lat="47.02354" lon="-1.86805">
        <ele>58</ele>
        <time>2020-12-29T13:41:29.000Z</time>
      </trkpt>
      <trkpt lat="47.02349" lon="-1.86786">
        <ele>58</ele>
        <time>2020-12-29T13:41:31.000Z</time>
      </trkpt>
      <trkpt lat="47.02345" lon="-1.86767">
        <ele>59</ele>
        <time>2020-12-29T13:41:33.000Z</time>
      </trkpt>
      <trkpt lat="47.02339" lon="-1.86747">
        <ele>60</ele>
        <time>2020-12-29T13:41:35.000Z</time>
      </trkpt>
      <trkpt lat="47.02335" lon="-1.86727">
        <ele>60</ele>
        <time>2020-12-29T13:41:37.000Z</time>
      </trkpt>
      <trkpt lat="47.02332" lon="-1.86707">
        <ele>61</ele>
        <time>2020-12-29T13:41:39.000Z</time>
      </trkpt>
      <trkpt lat="47.02328" lon="-1.86689">
        <ele>61</ele>
        <time>2020-12-29T13:41:41.000Z</time>
      </trkpt>
      <trkpt lat="47.02324" lon="-1.8667">
        <ele>61</ele>
        <time>2020-12-29T13:41:43.000Z</time>
      </trkpt>
      <trkpt lat="47.0232" lon="-1.86651">
        <ele>61</ele>
        <time>2020-12-29T13:41:45.000Z</time>
      </trkpt>
      <trkpt lat="47.02316" lon="-1.86633">
        <ele>61</ele>
        <time>2020-12-29T13:41:47.000Z</time>
      </trkpt>
      <trkpt lat="47.02312" lon="-1.86615">
        <ele>61</ele>
        <time>2020-12-29T13:41:49.000Z</time>
      </trkpt>
      <trkpt lat="47.02309" lon="-1.86596">
        <ele>62</ele>
        <time>2020-12-29T13:41:51.000Z</time>
      </trkpt>
      <trkpt lat="47.02305" lon="-1.86578">
        <ele>62</ele>
        <time>2020-12-29T13:41:53.000Z</time>
      </trkpt>
      <trkpt lat="47.02301" lon="-1.86559">
        <ele>63</ele>
        <time>2020-12-29T13:41:55.000Z</time>
      </trkpt>
      <trkpt lat="47.02298" lon="-1.86541">
        <ele>63</ele>
        <time>2020-12-29T13:41:57.000Z</time>
      </trkpt>
      <trkpt lat="47.02294" lon="-1.86522">
        <ele>63</ele>
        <time>2020-12-29T13:41:59.000Z</time>
      </trkpt>
      <trkpt lat="47.02291" lon="-1.86503">
        <ele>64</ele>
        <time>2020-12-29T13:42:01.000Z</time>
      </trkpt>
      <trkpt lat="47.02289" lon="-1.86485">
        <ele>64</ele>
        <time>2020-12-29T13:42:03.000Z</time>
      </trkpt>
      <trkpt lat="47.02287" lon="-1.86466">
        <ele>64</ele>
        <time>2020-12-29T13:42:05.000Z</time>
      </trkpt>
      <trkpt lat="47.02286" lon="-1.86445">
        <ele>64</ele>
        <time>2020-12-29T13:42:07.000Z</time>
      </trkpt>
      <trkpt lat="47.02285" lon="-1.86426">
        <ele>65</ele>
        <time>2020-12-29T13:42:09.000Z</time>
      </trkpt>
      <trkpt lat="47.02285" lon="-1.86406">
        <ele>65</ele>
        <time>2020-12-29T13:42:11.000Z</time>
      </trkpt>
      <trkpt lat="47.02285" lon="-1.86387">
        <ele>65</ele>
        <time>2020-12-29T13:42:13.000Z</time>
      </trkpt>
      <trkpt lat="47.02285" lon="-1.86368">
        <ele>65</ele>
        <time>2020-12-29T13:42:15.000Z</time>
      </trkpt>
      <trkpt lat="47.02285" lon="-1.8635">
        <ele>66</ele>
        <time>2020-12-29T13:42:17.000Z</time>
      </trkpt>
      <trkpt lat="47.02286" lon="-1.86331">
        <ele>65</ele>
        <time>2020-12-29T13:42:19.000Z</time>
      </trkpt>
      <trkpt lat="47.02286" lon="-1.86311">
        <ele>65</ele>
        <time>2020-12-29T13:42:21.000Z</time>
      </trkpt>
      <trkpt lat="47.02286" lon="-1.86292">
        <ele>65</ele>
        <time>2020-12-29T13:42:23.000Z</time>
      </trkpt>
      <trkpt lat="47.02288" lon="-1.86273">
        <ele>66</ele>
        <time>2020-12-29T13:42:25.000Z</time>
      </trkpt>
      <trkpt lat="47.02294" lon="-1.86256">
        <ele>66</ele>
        <time>2020-12-29T13:42:27.000Z</time>
      </trkpt>
      <trkpt lat="47.02304" lon="-1.8624">
        <ele>66</ele>
        <time>2020-12-29T13:42:29.000Z</time>
      </trkpt>
      <trkpt lat="47.02315" lon="-1.86229">
        <ele>66</ele>
        <time>2020-12-29T13:42:31.000Z</time>
      </trkpt>
      <trkpt lat="47.02326" lon="-1.86219">
        <ele>67</ele>
        <time>2020-12-29T13:42:33.000Z</time>
      </trkpt>
      <trkpt lat="47.02337" lon="-1.8621">
        <ele>67</ele>
        <time>2020-12-29T13:42:35.000Z</time>
      </trkpt>
      <trkpt lat="47.02349" lon="-1.862">
        <ele>67</ele>
        <time>2020-12-29T13:42:37.000Z</time>
      </trkpt>
      <trkpt lat="47.02359" lon="-1.86191">
        <ele>68</ele>
        <time>2020-12-29T13:42:39.000Z</time>
      </trkpt>
      <trkpt lat="47.02369" lon="-1.86181">
        <ele>68</ele>
        <time>2020-12-29T13:42:41.000Z</time>
      </trkpt>
      <trkpt lat="47.0238" lon="-1.8617">
        <ele>68</ele>
        <time>2020-12-29T13:42:43.000Z</time>
      </trkpt>
      <trkpt lat="47.02389" lon="-1.86158">
        <ele>68</ele>
        <time>2020-12-29T13:42:45.000Z</time>
      </trkpt>
      <trkpt lat="47.024" lon="-1.86144">
        <ele>68</ele>
        <time>2020-12-29T13:42:47.000Z</time>
      </trkpt>
      <trkpt lat="47.0241" lon="-1.8613">
        <ele>68</ele>
        <time>2020-12-29T13:42:49.000Z</time>
      </trkpt>
      <trkpt lat="47.02419" lon="-1.86115">
        <ele>68</ele>
        <time>2020-12-29T13:42:51.000Z</time>
      </trkpt>
      <trkpt lat="47.02428" lon="-1.86101">
        <ele>68</ele>
        <time>2020-12-29T13:42:53.000Z</time>
      </trkpt>
      <trkpt lat="47.02436" lon="-1.86086">
        <ele>68</ele>
        <time>2020-12-29T13:42:55.000Z</time>
      </trkpt>
      <trkpt lat="47.02445" lon="-1.86071">
        <ele>68</ele>
        <time>2020-12-29T13:42:57.000Z</time>
      </trkpt>
      <trkpt lat="47.02454" lon="-1.86057">
        <ele>69</ele>
        <time>2020-12-29T13:42:59.000Z</time>
      </trkpt>
      <trkpt lat="47.02462" lon="-1.86043">
        <ele>69</ele>
        <time>2020-12-29T13:43:01.000Z</time>
      </trkpt>
      <trkpt lat="47.0247" lon="-1.86029">
        <ele>69</ele>
        <time>2020-12-29T13:43:03.000Z</time>
      </trkpt>
      <trkpt lat="47.02479" lon="-1.86015">
        <ele>70</ele>
        <time>2020-12-29T13:43:05.000Z</time>
      </trkpt>
      <trkpt lat="47.02488" lon="-1.86">
        <ele>70</ele>
        <time>2020-12-29T13:43:07.000Z</time>
      </trkpt>
      <trkpt lat="47.02497" lon="-1.85986">
        <ele>70</ele>
        <time>2020-12-29T13:43:09.000Z</time>
      </trkpt>
      <trkpt lat="47.02506" lon="-1.85971">
        <ele>70</ele>
        <time>2020-12-29T13:43:11.000Z</time>
      </trkpt>
      <trkpt lat="47.02515" lon="-1.85957">
        <ele>70</ele>
        <time>2020-12-29T13:43:13.000Z</time>
      </trkpt>
      <trkpt lat="47.02524" lon="-1.85943">
        <ele>70</ele>
        <time>2020-12-29T13:43:15.000Z</time>
      </trkpt>
      <trkpt lat="47.02532" lon="-1.85928">
        <ele>70</ele>
        <time>2020-12-29T13:43:17.000Z</time>
      </trkpt>
      <trkpt lat="47.02541" lon="-1.85914">
        <ele>70</ele>
        <time>2020-12-29T13:43:19.000Z</time>
      </trkpt>
      <trkpt lat="47.0255" lon="-1.859">
        <ele>70</ele>
        <time>2020-12-29T13:43:21.000Z</time>
      </trkpt>
      <trkpt lat="47.02558" lon="-1.85885">
        <ele>70</ele>
        <time>2020-12-29T13:43:23.000Z</time>
      </trkpt>
      <trkpt lat="47.02566" lon="-1.8587">
        <ele>70</ele>
        <time>2020-12-29T13:43:25.000Z</time>
      </trkpt>
      <trkpt lat="47.02575" lon="-1.85856">
        <ele>71</ele>
        <time>2020-12-29T13:43:27.000Z</time>
      </trkpt>
      <trkpt lat="47.02585" lon="-1.85841">
        <ele>71</ele>
        <time>2020-12-29T13:43:29.000Z</time>
      </trkpt>
      <trkpt lat="47.02594" lon="-1.85826">
        <ele>71</ele>
        <time>2020-12-29T13:43:31.000Z</time>
      </trkpt>
      <trkpt lat="47.02602" lon="-1.85811">
        <ele>70</ele>
        <time>2020-12-29T13:43:33.000Z</time>
      </trkpt>
      <trkpt lat="47.02611" lon="-1.85797">
        <ele>70</ele>
        <time>2020-12-29T13:43:35.000Z</time>
      </trkpt>
      <trkpt lat="47.0262" lon="-1.85783">
        <ele>70</ele>
        <time>2020-12-29T13:43:37.000Z</time>
      </trkpt>
      <trkpt lat="47.02629" lon="-1.85768">
        <ele>70</ele>
        <time>2020-12-29T13:43:39.000Z</time>
      </trkpt>
      <trkpt lat="47.02637" lon="-1.85754">
        <ele>70</ele>
        <time>2020-12-29T13:43:41.000Z</time>
      </trkpt>
      <trkpt lat="47.02646" lon="-1.85739">
        <ele>70</ele>
        <time>2020-12-29T13:43:43.000Z</time>
      </trkpt>
      <trkpt lat="47.02655" lon="-1.85724">
        <ele>70</ele>
        <time>2020-12-29T13:43:45.000Z</time>
      </trkpt>
      <trkpt lat="47.02664" lon="-1.85708">
        <ele>70</ele>
        <time>2020-12-29T13:43:47.000Z</time>
      </trkpt>
      <trkpt lat="47.02674" lon="-1.85694">
        <ele>69</ele>
        <time>2020-12-29T13:43:49.000Z</time>
      </trkpt>
      <trkpt lat="47.02684" lon="-1.8568">
        <ele>69</ele>
        <time>2020-12-29T13:43:51.000Z</time>
      </trkpt>
      <trkpt lat="47.02695" lon="-1.85668">
        <ele>69</ele>
        <time>2020-12-29T13:43:53.000Z</time>
      </trkpt>
      <trkpt lat="47.02708" lon="-1.85657">
        <ele>68</ele>
        <time>2020-12-29T13:43:55.000Z</time>
      </trkpt>
      <trkpt lat="47.02721" lon="-1.85648">
        <ele>67</ele>
        <time>2020-12-29T13:43:57.000Z</time>
      </trkpt>
      <trkpt lat="47.02736" lon="-1.85641">
        <ele>66</ele>
        <time>2020-12-29T13:43:59.000Z</time>
      </trkpt>
      <trkpt lat="47.02752" lon="-1.85635">
        <ele>65</ele>
        <time>2020-12-29T13:44:01.000Z</time>
      </trkpt>
      <trkpt lat="47.02768" lon="-1.85629">
        <ele>65</ele>
        <time>2020-12-29T13:44:03.000Z</time>
      </trkpt>
      <trkpt lat="47.02783" lon="-1.85623">
        <ele>64</ele>
        <time>2020-12-29T13:44:05.000Z</time>
      </trkpt>
      <trkpt lat="47.02798" lon="-1.85615">
        <ele>64</ele>
        <time>2020-12-29T13:44:07.000Z</time>
      </trkpt>
      <trkpt lat="47.02811" lon="-1.85605">
        <ele>63</ele>
        <time>2020-12-29T13:44:09.000Z</time>
      </trkpt>
      <trkpt lat="47.02822" lon="-1.85592">
        <ele>64</ele>
        <time>2020-12-29T13:44:11.000Z</time>
      </trkpt>
      <trkpt lat="47.02833" lon="-1.85579">
        <ele>63</ele>
        <time>2020-12-29T13:44:13.000Z</time>
      </trkpt>
      <trkpt lat="47.02843" lon="-1.85564">
        <ele>63</ele>
        <time>2020-12-29T13:44:15.000Z</time>
      </trkpt>
      <trkpt lat="47.02852" lon="-1.85549">
        <ele>63</ele>
        <time>2020-12-29T13:44:17.000Z</time>
      </trkpt>
      <trkpt lat="47.0286" lon="-1.85535">
        <ele>63</ele>
        <time>2020-12-29T13:44:19.000Z</time>
      </trkpt>
      <trkpt lat="47.02868" lon="-1.85521">
        <ele>64</ele>
        <time>2020-12-29T13:44:21.000Z</time>
      </trkpt>
      <trkpt lat="47.02876" lon="-1.85508">
        <ele>64</ele>
        <time>2020-12-29T13:44:23.000Z</time>
      </trkpt>
      <trkpt lat="47.02885" lon="-1.85494">
        <ele>65</ele>
        <time>2020-12-29T13:44:25.000Z</time>
      </trkpt>
      <trkpt lat="47.02894" lon="-1.85481">
        <ele>65</ele>
        <time>2020-12-29T13:44:27.000Z</time>
      </trkpt>
      <trkpt lat="47.02903" lon="-1.85468">
        <ele>66</ele>
        <time>2020-12-29T13:44:29.000Z</time>
      </trkpt>
      <trkpt lat="47.02912" lon="-1.85456">
        <ele>66</ele>
        <time>2020-12-29T13:44:31.000Z</time>
      </trkpt>
      <trkpt lat="47.02921" lon="-1.85443">
        <ele>66</ele>
        <time>2020-12-29T13:44:33.000Z</time>
      </trkpt>
      <trkpt lat="47.0293" lon="-1.85432">
        <ele>66</ele>
        <time>2020-12-29T13:44:35.000Z</time>
      </trkpt>
      <trkpt lat="47.02938" lon="-1.85419">
        <ele>67</ele>
        <time>2020-12-29T13:44:37.000Z</time>
      </trkpt>
      <trkpt lat="47.02946" lon="-1.85407">
        <ele>67</ele>
        <time>2020-12-29T13:44:39.000Z</time>
      </trkpt>
      <trkpt lat="47.02954" lon="-1.85395">
        <ele>68</ele>
        <time>2020-12-29T13:44:41.000Z</time>
      </trkpt>
      <trkpt lat="47.02962" lon="-1.85383">
        <ele>68</ele>
        <time>2020-12-29T13:44:43.000Z</time>
      </trkpt>
      <trkpt lat="47.02969" lon="-1.85371">
        <ele>69</ele>
        <time>2020-12-29T13:44:45.000Z</time>
      </trkpt>
      <trkpt lat="47.02977" lon="-1.85359">
        <ele>69</ele>
        <time>2020-12-29T13:44:47.000Z</time>
      </trkpt>
      <trkpt lat="47.02984" lon="-1.85347">
        <ele>70</ele>
        <time>2020-12-29T13:44:49.000Z</time>
      </trkpt>
      <trkpt lat="47.02991" lon="-1.85336">
        <ele>70</ele>
        <time>2020-12-29T13:44:51.000Z</time>
      </trkpt>
      <trkpt lat="47.02998" lon="-1.85325">
        <ele>70</ele>
        <time>2020-12-29T13:44:53.000Z</time>
      </trkpt>
      <trkpt lat="47.03006" lon="-1.85314">
        <ele>71</ele>
        <time>2020-12-29T13:44:55.000Z</time>
      </trkpt>
      <trkpt lat="47.03013" lon="-1.85303">
        <ele>71</ele>
        <time>2020-12-29T13:44:57.000Z</time>
      </trkpt>
      <trkpt lat="47.03021" lon="-1.85292">
        <ele>71</ele>
        <time>2020-12-29T13:44:59.000Z</time>
      </trkpt>
      <trkpt lat="47.03028" lon="-1.8528">
        <ele>71</ele>
        <time>2020-12-29T13:45:01.000Z</time>
      </trkpt>
      <trkpt lat="47.03035" lon="-1.85269">
        <ele>72</ele>
        <time>2020-12-29T13:45:03.000Z</time>
      </trkpt>
      <trkpt lat="47.03042" lon="-1.85258">
        <ele>72</ele>
        <time>2020-12-29T13:45:05.000Z</time>
      </trkpt>
      <trkpt lat="47.03049" lon="-1.85247">
        <ele>72</ele>
        <time>2020-12-29T13:45:07.000Z</time>
      </trkpt>
      <trkpt lat="47.03056" lon="-1.85237">
        <ele>73</ele>
        <time>2020-12-29T13:45:09.000Z</time>
      </trkpt>
      <trkpt lat="47.03063" lon="-1.85225">
        <ele>73</ele>
        <time>2020-12-29T13:45:11.000Z</time>
      </trkpt>
      <trkpt lat="47.03069" lon="-1.85213">
        <ele>73</ele>
        <time>2020-12-29T13:45:13.000Z</time>
      </trkpt>
      <trkpt lat="47.03075" lon="-1.85202">
        <ele>74</ele>
        <time>2020-12-29T13:45:15.000Z</time>
      </trkpt>
      <trkpt lat="47.03081" lon="-1.85189">
        <ele>74</ele>
        <time>2020-12-29T13:45:17.000Z</time>
      </trkpt>
      <trkpt lat="47.03087" lon="-1.85177">
        <ele>75</ele>
        <time>2020-12-29T13:45:19.000Z</time>
      </trkpt>
      <trkpt lat="47.03092" lon="-1.85164">
        <ele>76</ele>
        <time>2020-12-29T13:45:21.000Z</time>
      </trkpt>
      <trkpt lat="47.03096" lon="-1.85151">
        <ele>76</ele>
        <time>2020-12-29T13:45:23.000Z</time>
      </trkpt>
      <trkpt lat="47.031" lon="-1.85137">
        <ele>77</ele>
        <time>2020-12-29T13:45:25.000Z</time>
      </trkpt>
      <trkpt lat="47.03104" lon="-1.85123">
        <ele>77</ele>
        <time>2020-12-29T13:45:27.000Z</time>
      </trkpt>
      <trkpt lat="47.03106" lon="-1.85108">
        <ele>77</ele>
        <time>2020-12-29T13:45:29.000Z</time>
      </trkpt>
      <trkpt lat="47.03109" lon="-1.85093">
        <ele>77</ele>
        <time>2020-12-29T13:45:31.000Z</time>
      </trkpt>
      <trkpt lat="47.03111" lon="-1.85078">
        <ele>77</ele>
        <time>2020-12-29T13:45:33.000Z</time>
      </trkpt>
      <trkpt lat="47.03112" lon="-1.85062">
        <ele>77</ele>
        <time>2020-12-29T13:45:35.000Z</time>
      </trkpt>
      <trkpt lat="47.03112" lon="-1.85046">
        <ele>77</ele>
        <time>2020-12-29T13:45:37.000Z</time>
      </trkpt>
      <trkpt lat="47.03113" lon="-1.85031">
        <ele>77</ele>
        <time>2020-12-29T13:45:39.000Z</time>
      </trkpt>
      <trkpt lat="47.03113" lon="-1.85014">
        <ele>77</ele>
        <time>2020-12-29T13:45:41.000Z</time>
      </trkpt>
      <trkpt lat="47.03112" lon="-1.84998">
        <ele>77</ele>
        <time>2020-12-29T13:45:43.000Z</time>
      </trkpt>
      <trkpt lat="47.03111" lon="-1.84981">
        <ele>77</ele>
        <time>2020-12-29T13:45:45.000Z</time>
      </trkpt>
      <trkpt lat="47.0311" lon="-1.84964">
        <ele>77</ele>
        <time>2020-12-29T13:45:47.000Z</time>
      </trkpt>
      <trkpt lat="47.03108" lon="-1.84947">
        <ele>77</ele>
        <time>2020-12-29T13:45:49.000Z</time>
      </trkpt>
      <trkpt lat="47.03107" lon="-1.84931">
        <ele>77</ele>
        <time>2020-12-29T13:45:51.000Z</time>
      </trkpt>
      <trkpt lat="47.03106" lon="-1.84914">
        <ele>77</ele>
        <time>2020-12-29T13:45:53.000Z</time>
      </trkpt>
      <trkpt lat="47.03106" lon="-1.84897">
        <ele>78</ele>
        <time>2020-12-29T13:45:55.000Z</time>
      </trkpt>
      <trkpt lat="47.03106" lon="-1.8488">
        <ele>78</ele>
        <time>2020-12-29T13:45:57.000Z</time>
      </trkpt>
      <trkpt lat="47.03107" lon="-1.84863">
        <ele>78</ele>
        <time>2020-12-29T13:45:59.000Z</time>
      </trkpt>
      <trkpt lat="47.03109" lon="-1.84845">
        <ele>78</ele>
        <time>2020-12-29T13:46:01.000Z</time>
      </trkpt>
      <trkpt lat="47.03112" lon="-1.84826">
        <ele>78</ele>
        <time>2020-12-29T13:46:03.000Z</time>
      </trkpt>
      <trkpt lat="47.03115" lon="-1.84807">
        <ele>78</ele>
        <time>2020-12-29T13:46:05.000Z</time>
      </trkpt>
      <trkpt lat="47.03118" lon="-1.84788">
        <ele>77</ele>
        <time>2020-12-29T13:46:07.000Z</time>
      </trkpt>
      <trkpt lat="47.03121" lon="-1.8477">
        <ele>77</ele>
        <time>2020-12-29T13:46:09.000Z</time>
      </trkpt>
      <trkpt lat="47.03123" lon="-1.84751">
        <ele>77</ele>
        <time>2020-12-29T13:46:11.000Z</time>
      </trkpt>
      <trkpt lat="47.03124" lon="-1.84732">
        <ele>78</ele>
        <time>2020-12-29T13:46:13.000Z</time>
      </trkpt>
      <trkpt lat="47.03125" lon="-1.84713">
        <ele>77</ele>
        <time>2020-12-29T13:46:15.000Z</time>
      </trkpt>
      <trkpt lat="47.03125" lon="-1.84694">
        <ele>77</ele>
        <time>2020-12-29T13:46:17.000Z</time>
      </trkpt>
      <trkpt lat="47.03126" lon="-1.84674">
        <ele>77</ele>
        <time>2020-12-29T13:46:19.000Z</time>
      </trkpt>
      <trkpt lat="47.03126" lon="-1.84655">
        <ele>77</ele>
        <time>2020-12-29T13:46:21.000Z</time>
      </trkpt>
      <trkpt lat="47.03126" lon="-1.84636">
        <ele>77</ele>
        <time>2020-12-29T13:46:23.000Z</time>
      </trkpt>
      <trkpt lat="47.03125" lon="-1.84616">
        <ele>77</ele>
        <time>2020-12-29T13:46:25.000Z</time>
      </trkpt>
      <trkpt lat="47.03126" lon="-1.84597">
        <ele>77</ele>
        <time>2020-12-29T13:46:27.000Z</time>
      </trkpt>
      <trkpt lat="47.03126" lon="-1.84577">
        <ele>78</ele>
        <time>2020-12-29T13:46:29.000Z</time>
      </trkpt>
      <trkpt lat="47.03126" lon="-1.84556">
        <ele>77</ele>
        <time>2020-12-29T13:46:31.000Z</time>
      </trkpt>
      <trkpt lat="47.03126" lon="-1.84536">
        <ele>78</ele>
        <time>2020-12-29T13:46:33.000Z</time>
      </trkpt>
      <trkpt lat="47.03126" lon="-1.84517">
        <ele>78</ele>
        <time>2020-12-29T13:46:35.000Z</time>
      </trkpt>
      <trkpt lat="47.03126" lon="-1.84497">
        <ele>78</ele>
        <time>2020-12-29T13:46:37.000Z</time>
      </trkpt>
      <trkpt lat="47.03126" lon="-1.84477">
        <ele>78</ele>
        <time>2020-12-29T13:46:39.000Z</time>
      </trkpt>
      <trkpt lat="47.03126" lon="-1.84457">
        <ele>78</ele>
        <time>2020-12-29T13:46:41.000Z</time>
      </trkpt>
      <trkpt lat="47.03126" lon="-1.84438">
        <ele>77</ele>
        <time>2020-12-29T13:46:43.000Z</time>
      </trkpt>
      <trkpt lat="47.03127" lon="-1.84419">
        <ele>77</ele>
        <time>2020-12-29T13:46:45.000Z</time>
      </trkpt>
      <trkpt lat="47.03127" lon="-1.84399">
        <ele>78</ele>
        <time>2020-12-29T13:46:47.000Z</time>
      </trkpt>
      <trkpt lat="47.03127" lon="-1.8438">
        <ele>78</ele>
        <time>2020-12-29T13:46:49.000Z</time>
      </trkpt>
      <trkpt lat="47.03127" lon="-1.8436">
        <ele>78</ele>
        <time>2020-12-29T13:46:51.000Z</time>
      </trkpt>
      <trkpt lat="47.03127" lon="-1.8434">
        <ele>78</ele>
        <time>2020-12-29T13:46:53.000Z</time>
      </trkpt>
      <trkpt lat="47.03126" lon="-1.8432">
        <ele>79</ele>
        <time>2020-12-29T13:46:55.000Z</time>
      </trkpt>
      <trkpt lat="47.03127" lon="-1.843">
        <ele>79</ele>
        <time>2020-12-29T13:46:57.000Z</time>
      </trkpt>
      <trkpt lat="47.03127" lon="-1.84281">
        <ele>79</ele>
        <time>2020-12-29T13:46:59.000Z</time>
      </trkpt>
      <trkpt lat="47.03127" lon="-1.84261">
        <ele>79</ele>
        <time>2020-12-29T13:47:01.000Z</time>
      </trkpt>
      <trkpt lat="47.03127" lon="-1.84241">
        <ele>79</ele>
        <time>2020-12-29T13:47:03.000Z</time>
      </trkpt>
      <trkpt lat="47.03127" lon="-1.84221">
        <ele>79</ele>
        <time>2020-12-29T13:47:05.000Z</time>
      </trkpt>
      <trkpt lat="47.03127" lon="-1.842">
        <ele>79</ele>
        <time>2020-12-29T13:47:07.000Z</time>
      </trkpt>
      <trkpt lat="47.03127" lon="-1.8418">
        <ele>79</ele>
        <time>2020-12-29T13:47:09.000Z</time>
      </trkpt>
      <trkpt lat="47.03128" lon="-1.84159">
        <ele>78</ele>
        <time>2020-12-29T13:47:11.000Z</time>
      </trkpt>
      <trkpt lat="47.03129" lon="-1.84139">
        <ele>78</ele>
        <time>2020-12-29T13:47:13.000Z</time>
      </trkpt>
      <trkpt lat="47.03129" lon="-1.84118">
        <ele>77</ele>
        <time>2020-12-29T13:47:15.000Z</time>
      </trkpt>
      <trkpt lat="47.03129" lon="-1.84098">
        <ele>77</ele>
        <time>2020-12-29T13:47:17.000Z</time>
      </trkpt>
      <trkpt lat="47.03129" lon="-1.84078">
        <ele>77</ele>
        <time>2020-12-29T13:47:19.000Z</time>
      </trkpt>
      <trkpt lat="47.0313" lon="-1.84058">
        <ele>77</ele>
        <time>2020-12-29T13:47:21.000Z</time>
      </trkpt>
      <trkpt lat="47.0313" lon="-1.84037">
        <ele>77</ele>
        <time>2020-12-29T13:47:23.000Z</time>
      </trkpt>
      <trkpt lat="47.0313" lon="-1.84016">
        <ele>77</ele>
        <time>2020-12-29T13:47:25.000Z</time>
      </trkpt>
      <trkpt lat="47.03131" lon="-1.83997">
        <ele>77</ele>
        <time>2020-12-29T13:47:27.000Z</time>
      </trkpt>
      <trkpt lat="47.03131" lon="-1.83977">
        <ele>77</ele>
        <time>2020-12-29T13:47:29.000Z</time>
      </trkpt>
      <trkpt lat="47.03131" lon="-1.83958">
        <ele>77</ele>
        <time>2020-12-29T13:47:31.000Z</time>
      </trkpt>
      <trkpt lat="47.03131" lon="-1.83939">
        <ele>78</ele>
        <time>2020-12-29T13:47:33.000Z</time>
      </trkpt>
      <trkpt lat="47.03131" lon="-1.83921">
        <ele>78</ele>
        <time>2020-12-29T13:47:35.000Z</time>
      </trkpt>
      <trkpt lat="47.03131" lon="-1.83902">
        <ele>78</ele>
        <time>2020-12-29T13:47:37.000Z</time>
      </trkpt>
      <trkpt lat="47.03131" lon="-1.83883">
        <ele>78</ele>
        <time>2020-12-29T13:47:39.000Z</time>
      </trkpt>
      <trkpt lat="47.03131" lon="-1.83864">
        <ele>78</ele>
        <time>2020-12-29T13:47:41.000Z</time>
      </trkpt>
      <trkpt lat="47.03131" lon="-1.83845">
        <ele>78</ele>
        <time>2020-12-29T13:47:43.000Z</time>
      </trkpt>
      <trkpt lat="47.03131" lon="-1.83826">
        <ele>79</ele>
        <time>2020-12-29T13:47:45.000Z</time>
      </trkpt>
      <trkpt lat="47.03131" lon="-1.83807">
        <ele>79</ele>
        <time>2020-12-29T13:47:47.000Z</time>
      </trkpt>
      <trkpt lat="47.03131" lon="-1.83788">
        <ele>79</ele>
        <time>2020-12-29T13:47:49.000Z</time>
      </trkpt>
      <trkpt lat="47.03131" lon="-1.83769">
        <ele>79</ele>
        <time>2020-12-29T13:47:51.000Z</time>
      </trkpt>
      <trkpt lat="47.03131" lon="-1.8375">
        <ele>79</ele>
        <time>2020-12-29T13:47:53.000Z</time>
      </trkpt>
      <trkpt lat="47.03132" lon="-1.83731">
        <ele>79</ele>
        <time>2020-12-29T13:47:55.000Z</time>
      </trkpt>
      <trkpt lat="47.03132" lon="-1.83712">
        <ele>80</ele>
        <time>2020-12-29T13:47:57.000Z</time>
      </trkpt>
      <trkpt lat="47.03133" lon="-1.83692">
        <ele>80</ele>
        <time>2020-12-29T13:47:59.000Z</time>
      </trkpt>
      <trkpt lat="47.03134" lon="-1.83673">
        <ele>80</ele>
        <time>2020-12-29T13:48:01.000Z</time>
      </trkpt>
      <trkpt lat="47.03136" lon="-1.83654">
        <ele>80</ele>
        <time>2020-12-29T13:48:03.000Z</time>
      </trkpt>
      <trkpt lat="47.03138" lon="-1.83635">
        <ele>80</ele>
        <time>2020-12-29T13:48:05.000Z</time>
      </trkpt>
      <trkpt lat="47.03139" lon="-1.83617">
        <ele>80</ele>
        <time>2020-12-29T13:48:07.000Z</time>
      </trkpt>
      <trkpt lat="47.03141" lon="-1.83598">
        <ele>80</ele>
        <time>2020-12-29T13:48:09.000Z</time>
      </trkpt>
      <trkpt lat="47.03144" lon="-1.83579">
        <ele>80</ele>
        <time>2020-12-29T13:48:11.000Z</time>
      </trkpt>
      <trkpt lat="47.03147" lon="-1.8356">
        <ele>80</ele>
        <time>2020-12-29T13:48:13.000Z</time>
      </trkpt>
      <trkpt lat="47.0315" lon="-1.83541">
        <ele>80</ele>
        <time>2020-12-29T13:48:15.000Z</time>
      </trkpt>
      <trkpt lat="47.03152" lon="-1.83523">
        <ele>79</ele>
        <time>2020-12-29T13:48:17.000Z</time>
      </trkpt>
      <trkpt lat="47.03155" lon="-1.83503">
        <ele>79</ele>
        <time>2020-12-29T13:48:19.000Z</time>
      </trkpt>
      <trkpt lat="47.03158" lon="-1.83483">
        <ele>79</ele>
        <time>2020-12-29T13:48:21.000Z</time>
      </trkpt>
      <trkpt lat="47.03161" lon="-1.83463">
        <ele>79</ele>
        <time>2020-12-29T13:48:23.000Z</time>
      </trkpt>
      <trkpt lat="47.03164" lon="-1.83442">
        <ele>78</ele>
        <time>2020-12-29T13:48:25.000Z</time>
      </trkpt>
      <trkpt lat="47.03164" lon="-1.83421">
        <ele>77</ele>
        <time>2020-12-29T13:48:27.000Z</time>
      </trkpt>
      <trkpt lat="47.03163" lon="-1.834">
        <ele>77</ele>
        <time>2020-12-29T13:48:29.000Z</time>
      </trkpt>
      <trkpt lat="47.0316" lon="-1.83379">
        <ele>76</ele>
        <time>2020-12-29T13:48:31.000Z</time>
      </trkpt>
      <trkpt lat="47.03156" lon="-1.83358">
        <ele>76</ele>
        <time>2020-12-29T13:48:33.000Z</time>
      </trkpt>
      <trkpt lat="47.0315" lon="-1.83337">
        <ele>76</ele>
        <time>2020-12-29T13:48:35.000Z</time>
      </trkpt>
      <trkpt lat="47.03144" lon="-1.83317">
        <ele>76</ele>
        <time>2020-12-29T13:48:37.000Z</time>
      </trkpt>
      <trkpt lat="47.03138" lon="-1.83296">
        <ele>76</ele>
        <time>2020-12-29T13:48:39.000Z</time>
      </trkpt>
      <trkpt lat="47.03131" lon="-1.83275">
        <ele>75</ele>
        <time>2020-12-29T13:48:41.000Z</time>
      </trkpt>
      <trkpt lat="47.03125" lon="-1.83254">
        <ele>75</ele>
        <time>2020-12-29T13:48:43.000Z</time>
      </trkpt>
      <trkpt lat="47.03118" lon="-1.83233">
        <ele>74</ele>
        <time>2020-12-29T13:48:45.000Z</time>
      </trkpt>
      <trkpt lat="47.03111" lon="-1.83211">
        <ele>74</ele>
        <time>2020-12-29T13:48:47.000Z</time>
      </trkpt>
      <trkpt lat="47.03105" lon="-1.83188">
        <ele>73</ele>
        <time>2020-12-29T13:48:49.000Z</time>
      </trkpt>
      <trkpt lat="47.03097" lon="-1.83167">
        <ele>73</ele>
        <time>2020-12-29T13:48:51.000Z</time>
      </trkpt>
      <trkpt lat="47.03091" lon="-1.83145">
        <ele>72</ele>
        <time>2020-12-29T13:48:53.000Z</time>
      </trkpt>
      <trkpt lat="47.03084" lon="-1.83124">
        <ele>72</ele>
        <time>2020-12-29T13:48:55.000Z</time>
      </trkpt>
      <trkpt lat="47.03076" lon="-1.83102">
        <ele>72</ele>
        <time>2020-12-29T13:48:57.000Z</time>
      </trkpt>
      <trkpt lat="47.03067" lon="-1.83082">
        <ele>72</ele>
        <time>2020-12-29T13:48:59.000Z</time>
      </trkpt>
      <trkpt lat="47.03057" lon="-1.83062">
        <ele>72</ele>
        <time>2020-12-29T13:49:01.000Z</time>
      </trkpt>
      <trkpt lat="47.03048" lon="-1.83043">
        <ele>72</ele>
        <time>2020-12-29T13:49:03.000Z</time>
      </trkpt>
      <trkpt lat="47.03039" lon="-1.83023">
        <ele>71</ele>
        <time>2020-12-29T13:49:05.000Z</time>
      </trkpt>
      <trkpt lat="47.03028" lon="-1.83004">
        <ele>71</ele>
        <time>2020-12-29T13:49:07.000Z</time>
      </trkpt>
      <trkpt lat="47.03018" lon="-1.82985">
        <ele>71</ele>
        <time>2020-12-29T13:49:09.000Z</time>
      </trkpt>
      <trkpt lat="47.03008" lon="-1.82966">
        <ele>71</ele>
        <time>2020-12-29T13:49:11.000Z</time>
      </trkpt>
      <trkpt lat="47.02998" lon="-1.82947">
        <ele>71</ele>
        <time>2020-12-29T13:49:13.000Z</time>
      </trkpt>
      <trkpt lat="47.02989" lon="-1.82929">
        <ele>72</ele>
        <time>2020-12-29T13:49:15.000Z</time>
      </trkpt>
      <trkpt lat="47.0298" lon="-1.8291">
        <ele>71</ele>
        <time>2020-12-29T13:49:17.000Z</time>
      </trkpt>
      <trkpt lat="47.02972" lon="-1.82892">
        <ele>71</ele>
        <time>2020-12-29T13:49:19.000Z</time>
      </trkpt>
      <trkpt lat="47.02964" lon="-1.82872">
        <ele>71</ele>
        <time>2020-12-29T13:49:21.000Z</time>
      </trkpt>
      <trkpt lat="47.02955" lon="-1.82853">
        <ele>71</ele>
        <time>2020-12-29T13:49:23.000Z</time>
      </trkpt>
      <trkpt lat="47.02948" lon="-1.82835">
        <ele>70</ele>
        <time>2020-12-29T13:49:25.000Z</time>
      </trkpt>
      <trkpt lat="47.02939" lon="-1.82815">
        <ele>70</ele>
        <time>2020-12-29T13:49:27.000Z</time>
      </trkpt>
      <trkpt lat="47.02931" lon="-1.82796">
        <ele>70</ele>
        <time>2020-12-29T13:49:29.000Z</time>
      </trkpt>
      <trkpt lat="47.02922" lon="-1.82776">
        <ele>69</ele>
        <time>2020-12-29T13:49:31.000Z</time>
      </trkpt>
      <trkpt lat="47.02914" lon="-1.82756">
        <ele>69</ele>
        <time>2020-12-29T13:49:33.000Z</time>
      </trkpt>
      <trkpt lat="47.02907" lon="-1.82737">
        <ele>68</ele>
        <time>2020-12-29T13:49:35.000Z</time>
      </trkpt>
      <trkpt lat="47.02899" lon="-1.82718">
        <ele>68</ele>
        <time>2020-12-29T13:49:37.000Z</time>
      </trkpt>
      <trkpt lat="47.02891" lon="-1.82697">
        <ele>68</ele>
        <time>2020-12-29T13:49:39.000Z</time>
      </trkpt>
      <trkpt lat="47.02883" lon="-1.82675">
        <ele>68</ele>
        <time>2020-12-29T13:49:41.000Z</time>
      </trkpt>
      <trkpt lat="47.02875" lon="-1.82656">
        <ele>68</ele>
        <time>2020-12-29T13:49:43.000Z</time>
      </trkpt>
      <trkpt lat="47.02867" lon="-1.82635">
        <ele>68</ele>
        <time>2020-12-29T13:49:45.000Z</time>
      </trkpt>
      <trkpt lat="47.02859" lon="-1.82616">
        <ele>69</ele>
        <time>2020-12-29T13:49:47.000Z</time>
      </trkpt>
      <trkpt lat="47.02851" lon="-1.82597">
        <ele>70</ele>
        <time>2020-12-29T13:49:49.000Z</time>
      </trkpt>
      <trkpt lat="47.02842" lon="-1.8258">
        <ele>69</ele>
        <time>2020-12-29T13:49:51.000Z</time>
      </trkpt>
      <trkpt lat="47.02833" lon="-1.82564">
        <ele>69</ele>
        <time>2020-12-29T13:49:53.000Z</time>
      </trkpt>
      <trkpt lat="47.02823" lon="-1.82548">
        <ele>70</ele>
        <time>2020-12-29T13:49:55.000Z</time>
      </trkpt>
      <trkpt lat="47.02814" lon="-1.82532">
        <ele>70</ele>
        <time>2020-12-29T13:49:57.000Z</time>
      </trkpt>
      <trkpt lat="47.02805" lon="-1.82518">
        <ele>70</ele>
        <time>2020-12-29T13:49:59.000Z</time>
      </trkpt>
      <trkpt lat="47.02796" lon="-1.82505">
        <ele>70</ele>
        <time>2020-12-29T13:50:01.000Z</time>
      </trkpt>
      <trkpt lat="47.02787" lon="-1.82492">
        <ele>71</ele>
        <time>2020-12-29T13:50:03.000Z</time>
      </trkpt>
      <trkpt lat="47.0278" lon="-1.8248">
        <ele>71</ele>
        <time>2020-12-29T13:50:05.000Z</time>
      </trkpt>
      <trkpt lat="47.02772" lon="-1.82467">
        <ele>71</ele>
        <time>2020-12-29T13:50:07.000Z</time>
      </trkpt>
      <trkpt lat="47.02763" lon="-1.82455">
        <ele>72</ele>
        <time>2020-12-29T13:50:09.000Z</time>
      </trkpt>
      <trkpt lat="47.02754" lon="-1.82444">
        <ele>72</ele>
        <time>2020-12-29T13:50:11.000Z</time>
      </trkpt>
      <trkpt lat="47.02747" lon="-1.82431">
        <ele>71</ele>
        <time>2020-12-29T13:50:13.000Z</time>
      </trkpt>
      <trkpt lat="47.02739" lon="-1.82418">
        <ele>72</ele>
        <time>2020-12-29T13:50:15.000Z</time>
      </trkpt>
      <trkpt lat="47.02731" lon="-1.82405">
        <ele>72</ele>
        <time>2020-12-29T13:50:17.000Z</time>
      </trkpt>
      <trkpt lat="47.02722" lon="-1.8239">
        <ele>73</ele>
        <time>2020-12-29T13:50:19.000Z</time>
      </trkpt>
      <trkpt lat="47.02713" lon="-1.82377">
        <ele>74</ele>
        <time>2020-12-29T13:50:21.000Z</time>
      </trkpt>
      <trkpt lat="47.02704" lon="-1.82363">
        <ele>75</ele>
        <time>2020-12-29T13:50:23.000Z</time>
      </trkpt>
      <trkpt lat="47.02695" lon="-1.8235">
        <ele>75</ele>
        <time>2020-12-29T13:50:25.000Z</time>
      </trkpt>
      <trkpt lat="47.02686" lon="-1.82336">
        <ele>75</ele>
        <time>2020-12-29T13:50:27.000Z</time>
      </trkpt>
      <trkpt lat="47.02678" lon="-1.82324">
        <ele>76</ele>
        <time>2020-12-29T13:50:29.000Z</time>
      </trkpt>
      <trkpt lat="47.02669" lon="-1.82311">
        <ele>76</ele>
        <time>2020-12-29T13:50:31.000Z</time>
      </trkpt>
      <trkpt lat="47.0266" lon="-1.82298">
        <ele>76</ele>
        <time>2020-12-29T13:50:33.000Z</time>
      </trkpt>
      <trkpt lat="47.02652" lon="-1.82285">
        <ele>76</ele>
        <time>2020-12-29T13:50:35.000Z</time>
      </trkpt>
      <trkpt lat="47.02644" lon="-1.82272">
        <ele>77</ele>
        <time>2020-12-29T13:50:37.000Z</time>
      </trkpt>
      <trkpt lat="47.02637" lon="-1.82257">
        <ele>77</ele>
        <time>2020-12-29T13:50:39.000Z</time>
      </trkpt>
      <trkpt lat="47.0263" lon="-1.82242">
        <ele>77</ele>
        <time>2020-12-29T13:50:41.000Z</time>
      </trkpt>
      <trkpt lat="47.02624" lon="-1.82226">
        <ele>77</ele>
        <time>2020-12-29T13:50:43.000Z</time>
      </trkpt>
      <trkpt lat="47.02619" lon="-1.8221">
        <ele>77</ele>
        <time>2020-12-29T13:50:45.000Z</time>
      </trkpt>
      <trkpt lat="47.02614" lon="-1.82193">
        <ele>77</ele>
        <time>2020-12-29T13:50:47.000Z</time>
      </trkpt>
      <trkpt lat="47.02608" lon="-1.82178">
        <ele>77</ele>
        <time>2020-12-29T13:50:49.000Z</time>
      </trkpt>
      <trkpt lat="47.02603" lon="-1.82162">
        <ele>77</ele>
        <time>2020-12-29T13:50:51.000Z</time>
      </trkpt>
      <trkpt lat="47.02598" lon="-1.82147">
        <ele>77</ele>
        <time>2020-12-29T13:50:53.000Z</time>
      </trkpt>
      <trkpt lat="47.02594" lon="-1.82132">
        <ele>76</ele>
        <time>2020-12-29T13:50:55.000Z</time>
      </trkpt>
      <trkpt lat="47.02589" lon="-1.82116">
        <ele>77</ele>
        <time>2020-12-29T13:50:57.000Z</time>
      </trkpt>
      <trkpt lat="47.02585" lon="-1.821">
        <ele>76</ele>
        <time>2020-12-29T13:50:59.000Z</time>
      </trkpt>
      <trkpt lat="47.02579" lon="-1.82086">
        <ele>76</ele>
        <time>2020-12-29T13:51:02.000Z</time>
      </trkpt>
      <trkpt lat="47.02574" lon="-1.82074">
        <ele>76</ele>
        <time>2020-12-29T13:51:06.000Z</time>
      </trkpt>
      <trkpt lat="47.02571" lon="-1.82062">
        <ele>76</ele>
        <time>2020-12-29T13:51:08.000Z</time>
      </trkpt>
      <trkpt lat="47.02566" lon="-1.82046">
        <ele>76</ele>
        <time>2020-12-29T13:51:10.000Z</time>
      </trkpt>
      <trkpt lat="47.02561" lon="-1.82029">
        <ele>76</ele>
        <time>2020-12-29T13:51:12.000Z</time>
      </trkpt>
      <trkpt lat="47.02555" lon="-1.82012">
        <ele>76</ele>
        <time>2020-12-29T13:51:14.000Z</time>
      </trkpt>
      <trkpt lat="47.02549" lon="-1.81994">
        <ele>76</ele>
        <time>2020-12-29T13:51:16.000Z</time>
      </trkpt>
      <trkpt lat="47.02542" lon="-1.81976">
        <ele>75</ele>
        <time>2020-12-29T13:51:18.000Z</time>
      </trkpt>
      <trkpt lat="47.02536" lon="-1.81958">
        <ele>75</ele>
        <time>2020-12-29T13:51:20.000Z</time>
      </trkpt>
      <trkpt lat="47.02529" lon="-1.81939">
        <ele>75</ele>
        <time>2020-12-29T13:51:22.000Z</time>
      </trkpt>
      <trkpt lat="47.02523" lon="-1.81919">
        <ele>74</ele>
        <time>2020-12-29T13:51:24.000Z</time>
      </trkpt>
      <trkpt lat="47.02516" lon="-1.819">
        <ele>74</ele>
        <time>2020-12-29T13:51:26.000Z</time>
      </trkpt>
      <trkpt lat="47.02509" lon="-1.8188">
        <ele>74</ele>
        <time>2020-12-29T13:51:28.000Z</time>
      </trkpt>
      <trkpt lat="47.02502" lon="-1.81861">
        <ele>73</ele>
        <time>2020-12-29T13:51:30.000Z</time>
      </trkpt>
      <trkpt lat="47.02495" lon="-1.81841">
        <ele>73</ele>
        <time>2020-12-29T13:51:32.000Z</time>
      </trkpt>
      <trkpt lat="47.02488" lon="-1.81821">
        <ele>73</ele>
        <time>2020-12-29T13:51:34.000Z</time>
      </trkpt>
      <trkpt lat="47.02481" lon="-1.81801">
        <ele>73</ele>
        <time>2020-12-29T13:51:36.000Z</time>
      </trkpt>
      <trkpt lat="47.02475" lon="-1.81781">
        <ele>73</ele>
        <time>2020-12-29T13:51:38.000Z</time>
      </trkpt>
      <trkpt lat="47.02468" lon="-1.81762">
        <ele>73</ele>
        <time>2020-12-29T13:51:40.000Z</time>
      </trkpt>
      <trkpt lat="47.02461" lon="-1.81743">
        <ele>73</ele>
        <time>2020-12-29T13:51:42.000Z</time>
      </trkpt>
      <trkpt lat="47.02454" lon="-1.81725">
        <ele>73</ele>
        <time>2020-12-29T13:51:44.000Z</time>
      </trkpt>
      <trkpt lat="47.02448" lon="-1.81707">
        <ele>73</ele>
        <time>2020-12-29T13:51:46.000Z</time>
      </trkpt>
      <trkpt lat="47.02441" lon="-1.81688">
        <ele>73</ele>
        <time>2020-12-29T13:51:48.000Z</time>
      </trkpt>
      <trkpt lat="47.02435" lon="-1.8167">
        <ele>74</ele>
        <time>2020-12-29T13:51:50.000Z</time>
      </trkpt>
      <trkpt lat="47.02429" lon="-1.81652">
        <ele>74</ele>
        <time>2020-12-29T13:51:52.000Z</time>
      </trkpt>
      <trkpt lat="47.02423" lon="-1.81634">
        <ele>74</ele>
        <time>2020-12-29T13:51:54.000Z</time>
      </trkpt>
      <trkpt lat="47.02416" lon="-1.81617">
        <ele>74</ele>
        <time>2020-12-29T13:51:56.000Z</time>
      </trkpt>
      <trkpt lat="47.0241" lon="-1.816">
        <ele>74</ele>
        <time>2020-12-29T13:51:58.000Z</time>
      </trkpt>
      <trkpt lat="47.02404" lon="-1.81582">
        <ele>74</ele>
        <time>2020-12-29T13:52:00.000Z</time>
      </trkpt>
      <trkpt lat="47.02399" lon="-1.81564">
        <ele>73</ele>
        <time>2020-12-29T13:52:02.000Z</time>
      </trkpt>
      <trkpt lat="47.02393" lon="-1.81545">
        <ele>73</ele>
        <time>2020-12-29T13:52:04.000Z</time>
      </trkpt>
      <trkpt lat="47.02388" lon="-1.81527">
        <ele>72</ele>
        <time>2020-12-29T13:52:06.000Z</time>
      </trkpt>
      <trkpt lat="47.02382" lon="-1.81508">
        <ele>72</ele>
        <time>2020-12-29T13:52:08.000Z</time>
      </trkpt>
      <trkpt lat="47.02375" lon="-1.81488">
        <ele>71</ele>
        <time>2020-12-29T13:52:10.000Z</time>
      </trkpt>
      <trkpt lat="47.02368" lon="-1.81469">
        <ele>70</ele>
        <time>2020-12-29T13:52:12.000Z</time>
      </trkpt>
      <trkpt lat="47.02362" lon="-1.81449">
        <ele>70</ele>
        <time>2020-12-29T13:52:14.000Z</time>
      </trkpt>
      <trkpt lat="47.02355" lon="-1.8143">
        <ele>69</ele>
        <time>2020-12-29T13:52:16.000Z</time>
      </trkpt>
      <trkpt lat="47.02349" lon="-1.8141">
        <ele>69</ele>
        <time>2020-12-29T13:52:18.000Z</time>
      </trkpt>
      <trkpt lat="47.02342" lon="-1.8139">
        <ele>69</ele>
        <time>2020-12-29T13:52:20.000Z</time>
      </trkpt>
      <trkpt lat="47.02335" lon="-1.8137">
        <ele>68</ele>
        <time>2020-12-29T13:52:22.000Z</time>
      </trkpt>
      <trkpt lat="47.02328" lon="-1.8135">
        <ele>67</ele>
        <time>2020-12-29T13:52:24.000Z</time>
      </trkpt>
      <trkpt lat="47.0232" lon="-1.8133">
        <ele>66</ele>
        <time>2020-12-29T13:52:26.000Z</time>
      </trkpt>
      <trkpt lat="47.02313" lon="-1.81309">
        <ele>66</ele>
        <time>2020-12-29T13:52:28.000Z</time>
      </trkpt>
      <trkpt lat="47.02305" lon="-1.81287">
        <ele>65</ele>
        <time>2020-12-29T13:52:30.000Z</time>
      </trkpt>
      <trkpt lat="47.02299" lon="-1.81266">
        <ele>64</ele>
        <time>2020-12-29T13:52:32.000Z</time>
      </trkpt>
      <trkpt lat="47.02292" lon="-1.81244">
        <ele>65</ele>
        <time>2020-12-29T13:52:34.000Z</time>
      </trkpt>
      <trkpt lat="47.02285" lon="-1.81224">
        <ele>64</ele>
        <time>2020-12-29T13:52:36.000Z</time>
      </trkpt>
      <trkpt lat="47.02278" lon="-1.81204">
        <ele>64</ele>
        <time>2020-12-29T13:52:38.000Z</time>
      </trkpt>
      <trkpt lat="47.02272" lon="-1.81185">
        <ele>65</ele>
        <time>2020-12-29T13:52:40.000Z</time>
      </trkpt>
      <trkpt lat="47.02265" lon="-1.81166">
        <ele>65</ele>
        <time>2020-12-29T13:52:42.000Z</time>
      </trkpt>
      <trkpt lat="47.02259" lon="-1.81148">
        <ele>64</ele>
        <time>2020-12-29T13:52:44.000Z</time>
      </trkpt>
      <trkpt lat="47.02253" lon="-1.8113">
        <ele>65</ele>
        <time>2020-12-29T13:52:46.000Z</time>
      </trkpt>
      <trkpt lat="47.02247" lon="-1.81112">
        <ele>65</ele>
        <time>2020-12-29T13:52:48.000Z</time>
      </trkpt>
      <trkpt lat="47.02241" lon="-1.81095">
        <ele>65</ele>
        <time>2020-12-29T13:52:50.000Z</time>
      </trkpt>
      <trkpt lat="47.02233" lon="-1.81079">
        <ele>65</ele>
        <time>2020-12-29T13:52:52.000Z</time>
      </trkpt>
      <trkpt lat="47.02225" lon="-1.81064">
        <ele>66</ele>
        <time>2020-12-29T13:52:54.000Z</time>
      </trkpt>
      <trkpt lat="47.02218" lon="-1.81049">
        <ele>66</ele>
        <time>2020-12-29T13:52:56.000Z</time>
      </trkpt>
      <trkpt lat="47.0221" lon="-1.81034">
        <ele>66</ele>
        <time>2020-12-29T13:52:58.000Z</time>
      </trkpt>
      <trkpt lat="47.02202" lon="-1.8102">
        <ele>66</ele>
        <time>2020-12-29T13:53:00.000Z</time>
      </trkpt>
      <trkpt lat="47.02194" lon="-1.81006">
        <ele>67</ele>
        <time>2020-12-29T13:53:02.000Z</time>
      </trkpt>
      <trkpt lat="47.02187" lon="-1.80992">
        <ele>67</ele>
        <time>2020-12-29T13:53:04.000Z</time>
      </trkpt>
      <trkpt lat="47.0218" lon="-1.80978">
        <ele>67</ele>
        <time>2020-12-29T13:53:06.000Z</time>
      </trkpt>
      <trkpt lat="47.02173" lon="-1.80963">
        <ele>68</ele>
        <time>2020-12-29T13:53:08.000Z</time>
      </trkpt>
      <trkpt lat="47.02166" lon="-1.8095">
        <ele>69</ele>
        <time>2020-12-29T13:53:10.000Z</time>
      </trkpt>
      <trkpt lat="47.02159" lon="-1.80936">
        <ele>70</ele>
        <time>2020-12-29T13:53:12.000Z</time>
      </trkpt>
      <trkpt lat="47.02151" lon="-1.80922">
        <ele>70</ele>
        <time>2020-12-29T13:53:14.000Z</time>
      </trkpt>
      <trkpt lat="47.02143" lon="-1.80908">
        <ele>71</ele>
        <time>2020-12-29T13:53:16.000Z</time>
      </trkpt>
      <trkpt lat="47.02136" lon="-1.80893">
        <ele>72</ele>
        <time>2020-12-29T13:53:18.000Z</time>
      </trkpt>
      <trkpt lat="47.02129" lon="-1.80877">
        <ele>73</ele>
        <time>2020-12-29T13:53:20.000Z</time>
      </trkpt>
      <trkpt lat="47.02123" lon="-1.80861">
        <ele>73</ele>
        <time>2020-12-29T13:53:22.000Z</time>
      </trkpt>
      <trkpt lat="47.02118" lon="-1.80844">
        <ele>73</ele>
        <time>2020-12-29T13:53:24.000Z</time>
      </trkpt>
      <trkpt lat="47.02116" lon="-1.80827">
        <ele>73</ele>
        <time>2020-12-29T13:53:26.000Z</time>
      </trkpt>
      <trkpt lat="47.02114" lon="-1.8081">
        <ele>73</ele>
        <time>2020-12-29T13:53:28.000Z</time>
      </trkpt>
      <trkpt lat="47.02113" lon="-1.80791">
        <ele>72</ele>
        <time>2020-12-29T13:53:30.000Z</time>
      </trkpt>
      <trkpt lat="47.02113" lon="-1.80773">
        <ele>72</ele>
        <time>2020-12-29T13:53:32.000Z</time>
      </trkpt>
      <trkpt lat="47.02112" lon="-1.80755">
        <ele>72</ele>
        <time>2020-12-29T13:53:34.000Z</time>
      </trkpt>
      <trkpt lat="47.02112" lon="-1.80737">
        <ele>72</ele>
        <time>2020-12-29T13:53:36.000Z</time>
      </trkpt>
      <trkpt lat="47.02112" lon="-1.80718">
        <ele>72</ele>
        <time>2020-12-29T13:53:38.000Z</time>
      </trkpt>
      <trkpt lat="47.02112" lon="-1.80698">
        <ele>72</ele>
        <time>2020-12-29T13:53:40.000Z</time>
      </trkpt>
      <trkpt lat="47.02111" lon="-1.80678">
        <ele>72</ele>
        <time>2020-12-29T13:53:42.000Z</time>
      </trkpt>
      <trkpt lat="47.0211" lon="-1.80657">
        <ele>71</ele>
        <time>2020-12-29T13:53:44.000Z</time>
      </trkpt>
      <trkpt lat="47.0211" lon="-1.80635">
        <ele>70</ele>
        <time>2020-12-29T13:53:46.000Z</time>
      </trkpt>
      <trkpt lat="47.02109" lon="-1.80612">
        <ele>70</ele>
        <time>2020-12-29T13:53:48.000Z</time>
      </trkpt>
      <trkpt lat="47.02109" lon="-1.80588">
        <ele>70</ele>
        <time>2020-12-29T13:53:50.000Z</time>
      </trkpt>
      <trkpt lat="47.02108" lon="-1.80563">
        <ele>69</ele>
        <time>2020-12-29T13:53:52.000Z</time>
      </trkpt>
      <trkpt lat="47.02108" lon="-1.80539">
        <ele>68</ele>
        <time>2020-12-29T13:53:54.000Z</time>
      </trkpt>
      <trkpt lat="47.02108" lon="-1.80514">
        <ele>67</ele>
        <time>2020-12-29T13:53:56.000Z</time>
      </trkpt>
      <trkpt lat="47.02107" lon="-1.80489">
        <ele>67</ele>
        <time>2020-12-29T13:53:58.000Z</time>
      </trkpt>
      <trkpt lat="47.02107" lon="-1.80462">
        <ele>66</ele>
        <time>2020-12-29T13:54:00.000Z</time>
      </trkpt>
      <trkpt lat="47.02106" lon="-1.80436">
        <ele>65</ele>
        <time>2020-12-29T13:54:02.000Z</time>
      </trkpt>
      <trkpt lat="47.02106" lon="-1.80423">
        <ele>65</ele>
        <time>2020-12-29T13:54:03.000Z</time>
      </trkpt>
      <trkpt lat="47.02106" lon="-1.80409">
        <ele>64</ele>
        <time>2020-12-29T13:54:04.000Z</time>
      </trkpt>
      <trkpt lat="47.02105" lon="-1.80395">
        <ele>64</ele>
        <time>2020-12-29T13:54:05.000Z</time>
      </trkpt>
      <trkpt lat="47.02105" lon="-1.80382">
        <ele>64</ele>
        <time>2020-12-29T13:54:06.000Z</time>
      </trkpt>
      <trkpt lat="47.02105" lon="-1.80368">
        <ele>63</ele>
        <time>2020-12-29T13:54:07.000Z</time>
      </trkpt>
      <trkpt lat="47.02105" lon="-1.80355">
        <ele>63</ele>
        <time>2020-12-29T13:54:08.000Z</time>
      </trkpt>
      <trkpt lat="47.02105" lon="-1.80342">
        <ele>62</ele>
        <time>2020-12-29T13:54:09.000Z</time>
      </trkpt>
      <trkpt lat="47.02105" lon="-1.80328">
        <ele>62</ele>
        <time>2020-12-29T13:54:10.000Z</time>
      </trkpt>
      <trkpt lat="47.02105" lon="-1.80314">
        <ele>61</ele>
        <time>2020-12-29T13:54:11.000Z</time>
      </trkpt>
      <trkpt lat="47.02104" lon="-1.80301">
        <ele>61</ele>
        <time>2020-12-29T13:54:12.000Z</time>
      </trkpt>
      <trkpt lat="47.02104" lon="-1.80287">
        <ele>60</ele>
        <time>2020-12-29T13:54:13.000Z</time>
      </trkpt>
      <trkpt lat="47.02104" lon="-1.80273">
        <ele>60</ele>
        <time>2020-12-29T13:54:14.000Z</time>
      </trkpt>
      <trkpt lat="47.02104" lon="-1.80259">
        <ele>60</ele>
        <time>2020-12-29T13:54:15.000Z</time>
      </trkpt>
      <trkpt lat="47.02104" lon="-1.80246">
        <ele>59</ele>
        <time>2020-12-29T13:54:16.000Z</time>
      </trkpt>
      <trkpt lat="47.02104" lon="-1.80232">
        <ele>59</ele>
        <time>2020-12-29T13:54:17.000Z</time>
      </trkpt>
      <trkpt lat="47.02104" lon="-1.80218">
        <ele>59</ele>
        <time>2020-12-29T13:54:18.000Z</time>
      </trkpt>
      <trkpt lat="47.02104" lon="-1.80204">
        <ele>59</ele>
        <time>2020-12-29T13:54:19.000Z</time>
      </trkpt>
      <trkpt lat="47.02103" lon="-1.8019">
        <ele>59</ele>
        <time>2020-12-29T13:54:20.000Z</time>
      </trkpt>
      <trkpt lat="47.02103" lon="-1.80177">
        <ele>59</ele>
        <time>2020-12-29T13:54:21.000Z</time>
      </trkpt>
      <trkpt lat="47.02103" lon="-1.80164">
        <ele>58</ele>
        <time>2020-12-29T13:54:22.000Z</time>
      </trkpt>
      <trkpt lat="47.02103" lon="-1.8015">
        <ele>58</ele>
        <time>2020-12-29T13:54:23.000Z</time>
      </trkpt>
      <trkpt lat="47.02102" lon="-1.80124">
        <ele>58</ele>
        <time>2020-12-29T13:54:25.000Z</time>
      </trkpt>
      <trkpt lat="47.02102" lon="-1.8011">
        <ele>58</ele>
        <time>2020-12-29T13:54:26.000Z</time>
      </trkpt>
      <trkpt lat="47.02101" lon="-1.80084">
        <ele>58</ele>
        <time>2020-12-29T13:54:28.000Z</time>
      </trkpt>
      <trkpt lat="47.02101" lon="-1.80071">
        <ele>58</ele>
        <time>2020-12-29T13:54:29.000Z</time>
      </trkpt>
      <trkpt lat="47.02101" lon="-1.80044">
        <ele>57</ele>
        <time>2020-12-29T13:54:31.000Z</time>
      </trkpt>
      <trkpt lat="47.021" lon="-1.80031">
        <ele>57</ele>
        <time>2020-12-29T13:54:32.000Z</time>
      </trkpt>
      <trkpt lat="47.021" lon="-1.80018">
        <ele>57</ele>
        <time>2020-12-29T13:54:33.000Z</time>
      </trkpt>
      <trkpt lat="47.02099" lon="-1.80004">
        <ele>56</ele>
        <time>2020-12-29T13:54:34.000Z</time>
      </trkpt>
      <trkpt lat="47.02098" lon="-1.79978">
        <ele>56</ele>
        <time>2020-12-29T13:54:36.000Z</time>
      </trkpt>
      <trkpt lat="47.02097" lon="-1.79965">
        <ele>56</ele>
        <time>2020-12-29T13:54:37.000Z</time>
      </trkpt>
      <trkpt lat="47.02096" lon="-1.79951">
        <ele>56</ele>
        <time>2020-12-29T13:54:38.000Z</time>
      </trkpt>
      <trkpt lat="47.02095" lon="-1.79937">
        <ele>56</ele>
        <time>2020-12-29T13:54:39.000Z</time>
      </trkpt>
      <trkpt lat="47.02094" lon="-1.79924">
        <ele>56</ele>
        <time>2020-12-29T13:54:40.000Z</time>
      </trkpt>
      <trkpt lat="47.02092" lon="-1.79911">
        <ele>55</ele>
        <time>2020-12-29T13:54:41.000Z</time>
      </trkpt>
      <trkpt lat="47.02091" lon="-1.79897">
        <ele>55</ele>
        <time>2020-12-29T13:54:42.000Z</time>
      </trkpt>
      <trkpt lat="47.0209" lon="-1.79884">
        <ele>55</ele>
        <time>2020-12-29T13:54:43.000Z</time>
      </trkpt>
      <trkpt lat="47.02088" lon="-1.79859">
        <ele>55</ele>
        <time>2020-12-29T13:54:45.000Z</time>
      </trkpt>
      <trkpt lat="47.02087" lon="-1.79846">
        <ele>55</ele>
        <time>2020-12-29T13:54:46.000Z</time>
      </trkpt>
      <trkpt lat="47.02086" lon="-1.79832">
        <ele>55</ele>
        <time>2020-12-29T13:54:47.000Z</time>
      </trkpt>
      <trkpt lat="47.02085" lon="-1.79807">
        <ele>55</ele>
        <time>2020-12-29T13:54:49.000Z</time>
      </trkpt>
      <trkpt lat="47.02084" lon="-1.79782">
        <ele>56</ele>
        <time>2020-12-29T13:54:51.000Z</time>
      </trkpt>
      <trkpt lat="47.02083" lon="-1.79759">
        <ele>55</ele>
        <time>2020-12-29T13:54:53.000Z</time>
      </trkpt>
      <trkpt lat="47.02084" lon="-1.79737">
        <ele>56</ele>
        <time>2020-12-29T13:54:55.000Z</time>
      </trkpt>
      <trkpt lat="47.02084" lon="-1.79716">
        <ele>56</ele>
        <time>2020-12-29T13:54:57.000Z</time>
      </trkpt>
      <trkpt lat="47.02084" lon="-1.79694">
        <ele>57</ele>
        <time>2020-12-29T13:54:59.000Z</time>
      </trkpt>
      <trkpt lat="47.02083" lon="-1.79672">
        <ele>57</ele>
        <time>2020-12-29T13:55:01.000Z</time>
      </trkpt>
      <trkpt lat="47.02083" lon="-1.79651">
        <ele>57</ele>
        <time>2020-12-29T13:55:03.000Z</time>
      </trkpt>
      <trkpt lat="47.02083" lon="-1.79628">
        <ele>57</ele>
        <time>2020-12-29T13:55:05.000Z</time>
      </trkpt>
      <trkpt lat="47.02082" lon="-1.79607">
        <ele>57</ele>
        <time>2020-12-29T13:55:07.000Z</time>
      </trkpt>
      <trkpt lat="47.02082" lon="-1.79584">
        <ele>57</ele>
        <time>2020-12-29T13:55:09.000Z</time>
      </trkpt>
      <trkpt lat="47.02082" lon="-1.79562">
        <ele>56</ele>
        <time>2020-12-29T13:55:11.000Z</time>
      </trkpt>
      <trkpt lat="47.02084" lon="-1.79539">
        <ele>56</ele>
        <time>2020-12-29T13:55:13.000Z</time>
      </trkpt>
      <trkpt lat="47.02084" lon="-1.79516">
        <ele>55</ele>
        <time>2020-12-29T13:55:15.000Z</time>
      </trkpt>
      <trkpt lat="47.02084" lon="-1.79491">
        <ele>55</ele>
        <time>2020-12-29T13:55:17.000Z</time>
      </trkpt>
      <trkpt lat="47.02084" lon="-1.79468">
        <ele>54</ele>
        <time>2020-12-29T13:55:19.000Z</time>
      </trkpt>
      <trkpt lat="47.02085" lon="-1.79445">
        <ele>54</ele>
        <time>2020-12-29T13:55:21.000Z</time>
      </trkpt>
      <trkpt lat="47.02086" lon="-1.79426">
        <ele>54</ele>
        <time>2020-12-29T13:55:23.000Z</time>
      </trkpt>
      <trkpt lat="47.02084" lon="-1.7941">
        <ele>55</ele>
        <time>2020-12-29T13:55:25.000Z</time>
      </trkpt>
      <trkpt lat="47.02091" lon="-1.79394">
        <ele>55</ele>
        <time>2020-12-29T13:55:27.000Z</time>
      </trkpt>
      <trkpt lat="47.02098" lon="-1.79373">
        <ele>55</ele>
        <time>2020-12-29T13:55:29.000Z</time>
      </trkpt>
      <trkpt lat="47.02103" lon="-1.79353">
        <ele>56</ele>
        <time>2020-12-29T13:55:31.000Z</time>
      </trkpt>
      <trkpt lat="47.02108" lon="-1.79332">
        <ele>55</ele>
        <time>2020-12-29T13:55:33.000Z</time>
      </trkpt>
      <trkpt lat="47.02113" lon="-1.79311">
        <ele>55</ele>
        <time>2020-12-29T13:55:35.000Z</time>
      </trkpt>
      <trkpt lat="47.02118" lon="-1.79291">
        <ele>55</ele>
        <time>2020-12-29T13:55:37.000Z</time>
      </trkpt>
      <trkpt lat="47.02123" lon="-1.79272">
        <ele>54</ele>
        <time>2020-12-29T13:55:39.000Z</time>
      </trkpt>
      <trkpt lat="47.02127" lon="-1.79253">
        <ele>54</ele>
        <time>2020-12-29T13:55:41.000Z</time>
      </trkpt>
      <trkpt lat="47.02132" lon="-1.79235">
        <ele>54</ele>
        <time>2020-12-29T13:55:43.000Z</time>
      </trkpt>
      <trkpt lat="47.02137" lon="-1.79218">
        <ele>55</ele>
        <time>2020-12-29T13:55:45.000Z</time>
      </trkpt>
      <trkpt lat="47.02141" lon="-1.792">
        <ele>55</ele>
        <time>2020-12-29T13:55:47.000Z</time>
      </trkpt>
      <trkpt lat="47.02146" lon="-1.79182">
        <ele>54</ele>
        <time>2020-12-29T13:55:49.000Z</time>
      </trkpt>
      <trkpt lat="47.02151" lon="-1.79163">
        <ele>55</ele>
        <time>2020-12-29T13:55:51.000Z</time>
      </trkpt>
      <trkpt lat="47.02156" lon="-1.79143">
        <ele>55</ele>
        <time>2020-12-29T13:55:53.000Z</time>
      </trkpt>
      <trkpt lat="47.02162" lon="-1.79123">
        <ele>54</ele>
        <time>2020-12-29T13:55:55.000Z</time>
      </trkpt>
      <trkpt lat="47.02168" lon="-1.79102">
        <ele>54</ele>
        <time>2020-12-29T13:55:57.000Z</time>
      </trkpt>
      <trkpt lat="47.02173" lon="-1.79083">
        <ele>54</ele>
        <time>2020-12-29T13:55:59.000Z</time>
      </trkpt>
      <trkpt lat="47.02179" lon="-1.79064">
        <ele>54</ele>
        <time>2020-12-29T13:56:01.000Z</time>
      </trkpt>
      <trkpt lat="47.02186" lon="-1.79046">
        <ele>53</ele>
        <time>2020-12-29T13:56:03.000Z</time>
      </trkpt>
      <trkpt lat="47.02194" lon="-1.79029">
        <ele>53</ele>
        <time>2020-12-29T13:56:05.000Z</time>
      </trkpt>
      <trkpt lat="47.02203" lon="-1.79013">
        <ele>54</ele>
        <time>2020-12-29T13:56:07.000Z</time>
      </trkpt>
      <trkpt lat="47.02212" lon="-1.78999">
        <ele>53</ele>
        <time>2020-12-29T13:56:09.000Z</time>
      </trkpt>
      <trkpt lat="47.02222" lon="-1.78984">
        <ele>54</ele>
        <time>2020-12-29T13:56:11.000Z</time>
      </trkpt>
      <trkpt lat="47.02231" lon="-1.78972">
        <ele>54</ele>
        <time>2020-12-29T13:56:13.000Z</time>
      </trkpt>
      <trkpt lat="47.02241" lon="-1.7896">
        <ele>55</ele>
        <time>2020-12-29T13:56:15.000Z</time>
      </trkpt>
      <trkpt lat="47.02251" lon="-1.78949">
        <ele>55</ele>
        <time>2020-12-29T13:56:17.000Z</time>
      </trkpt>
      <trkpt lat="47.02261" lon="-1.78939">
        <ele>55</ele>
        <time>2020-12-29T13:56:19.000Z</time>
      </trkpt>
      <trkpt lat="47.02272" lon="-1.7893">
        <ele>55</ele>
        <time>2020-12-29T13:56:21.000Z</time>
      </trkpt>
      <trkpt lat="47.02282" lon="-1.78921">
        <ele>55</ele>
        <time>2020-12-29T13:56:23.000Z</time>
      </trkpt>
      <trkpt lat="47.02293" lon="-1.78912">
        <ele>55</ele>
        <time>2020-12-29T13:56:25.000Z</time>
      </trkpt>
      <trkpt lat="47.02305" lon="-1.78905">
        <ele>55</ele>
        <time>2020-12-29T13:56:27.000Z</time>
      </trkpt>
      <trkpt lat="47.02317" lon="-1.78898">
        <ele>57</ele>
        <time>2020-12-29T13:56:29.000Z</time>
      </trkpt>
      <trkpt lat="47.0233" lon="-1.7889">
        <ele>57</ele>
        <time>2020-12-29T13:56:31.000Z</time>
      </trkpt>
      <trkpt lat="47.0234" lon="-1.78884">
        <ele>57</ele>
        <time>2020-12-29T13:56:33.000Z</time>
      </trkpt>
      <trkpt lat="47.02352" lon="-1.78877">
        <ele>56</ele>
        <time>2020-12-29T13:56:35.000Z</time>
      </trkpt>
      <trkpt lat="47.02362" lon="-1.7887">
        <ele>56</ele>
        <time>2020-12-29T13:56:37.000Z</time>
      </trkpt>
      <trkpt lat="47.02373" lon="-1.78862">
        <ele>57</ele>
        <time>2020-12-29T13:56:39.000Z</time>
      </trkpt>
      <trkpt lat="47.02385" lon="-1.78855">
        <ele>57</ele>
        <time>2020-12-29T13:56:41.000Z</time>
      </trkpt>
      <trkpt lat="47.02396" lon="-1.78847">
        <ele>58</ele>
        <time>2020-12-29T13:56:43.000Z</time>
      </trkpt>
      <trkpt lat="47.02408" lon="-1.78838">
        <ele>58</ele>
        <time>2020-12-29T13:56:45.000Z</time>
      </trkpt>
      <trkpt lat="47.02421" lon="-1.78829">
        <ele>58</ele>
        <time>2020-12-29T13:56:47.000Z</time>
      </trkpt>
      <trkpt lat="47.02434" lon="-1.78821">
        <ele>57</ele>
        <time>2020-12-29T13:56:49.000Z</time>
      </trkpt>
      <trkpt lat="47.02446" lon="-1.78814">
        <ele>57</ele>
        <time>2020-12-29T13:56:51.000Z</time>
      </trkpt>
      <trkpt lat="47.02459" lon="-1.78805">
        <ele>57</ele>
        <time>2020-12-29T13:56:53.000Z</time>
      </trkpt>
      <trkpt lat="47.02471" lon="-1.78798">
        <ele>56</ele>
        <time>2020-12-29T13:56:55.000Z</time>
      </trkpt>
      <trkpt lat="47.02483" lon="-1.78789">
        <ele>57</ele>
        <time>2020-12-29T13:56:57.000Z</time>
      </trkpt>
      <trkpt lat="47.02495" lon="-1.78782">
        <ele>57</ele>
        <time>2020-12-29T13:56:59.000Z</time>
      </trkpt>
      <trkpt lat="47.02508" lon="-1.78774">
        <ele>57</ele>
        <time>2020-12-29T13:57:01.000Z</time>
      </trkpt>
      <trkpt lat="47.0252" lon="-1.78766">
        <ele>57</ele>
        <time>2020-12-29T13:57:03.000Z</time>
      </trkpt>
      <trkpt lat="47.02532" lon="-1.78757">
        <ele>57</ele>
        <time>2020-12-29T13:57:05.000Z</time>
      </trkpt>
      <trkpt lat="47.02544" lon="-1.7875">
        <ele>57</ele>
        <time>2020-12-29T13:57:07.000Z</time>
      </trkpt>
      <trkpt lat="47.02556" lon="-1.78743">
        <ele>57</ele>
        <time>2020-12-29T13:57:09.000Z</time>
      </trkpt>
      <trkpt lat="47.02567" lon="-1.78736">
        <ele>56</ele>
        <time>2020-12-29T13:57:11.000Z</time>
      </trkpt>
      <trkpt lat="47.02578" lon="-1.78728">
        <ele>56</ele>
        <time>2020-12-29T13:57:13.000Z</time>
      </trkpt>
      <trkpt lat="47.02591" lon="-1.7872">
        <ele>56</ele>
        <time>2020-12-29T13:57:15.000Z</time>
      </trkpt>
      <trkpt lat="47.02602" lon="-1.78712">
        <ele>55</ele>
        <time>2020-12-29T13:57:17.000Z</time>
      </trkpt>
      <trkpt lat="47.02614" lon="-1.78704">
        <ele>56</ele>
        <time>2020-12-29T13:57:19.000Z</time>
      </trkpt>
      <trkpt lat="47.02626" lon="-1.78695">
        <ele>55</ele>
        <time>2020-12-29T13:57:21.000Z</time>
      </trkpt>
      <trkpt lat="47.02639" lon="-1.78687">
        <ele>54</ele>
        <time>2020-12-29T13:57:23.000Z</time>
      </trkpt>
      <trkpt lat="47.02651" lon="-1.78679">
        <ele>55</ele>
        <time>2020-12-29T13:57:25.000Z</time>
      </trkpt>
      <trkpt lat="47.02664" lon="-1.78671">
        <ele>55</ele>
        <time>2020-12-29T13:57:27.000Z</time>
      </trkpt>
      <trkpt lat="47.02676" lon="-1.78663">
        <ele>54</ele>
        <time>2020-12-29T13:57:29.000Z</time>
      </trkpt>
      <trkpt lat="47.02689" lon="-1.78656">
        <ele>54</ele>
        <time>2020-12-29T13:57:31.000Z</time>
      </trkpt>
      <trkpt lat="47.02702" lon="-1.78647">
        <ele>55</ele>
        <time>2020-12-29T13:57:33.000Z</time>
      </trkpt>
      <trkpt lat="47.02713" lon="-1.78638">
        <ele>55</ele>
        <time>2020-12-29T13:57:35.000Z</time>
      </trkpt>
      <trkpt lat="47.02725" lon="-1.7863">
        <ele>55</ele>
        <time>2020-12-29T13:57:37.000Z</time>
      </trkpt>
      <trkpt lat="47.02737" lon="-1.78622">
        <ele>55</ele>
        <time>2020-12-29T13:57:39.000Z</time>
      </trkpt>
      <trkpt lat="47.0275" lon="-1.78614">
        <ele>55</ele>
        <time>2020-12-29T13:57:41.000Z</time>
      </trkpt>
      <trkpt lat="47.02762" lon="-1.78606">
        <ele>54</ele>
        <time>2020-12-29T13:57:43.000Z</time>
      </trkpt>
      <trkpt lat="47.02774" lon="-1.78598">
        <ele>54</ele>
        <time>2020-12-29T13:57:45.000Z</time>
      </trkpt>
      <trkpt lat="47.02785" lon="-1.78591">
        <ele>54</ele>
        <time>2020-12-29T13:57:47.000Z</time>
      </trkpt>
      <trkpt lat="47.02797" lon="-1.78582">
        <ele>55</ele>
        <time>2020-12-29T13:57:49.000Z</time>
      </trkpt>
      <trkpt lat="47.02809" lon="-1.78574">
        <ele>55</ele>
        <time>2020-12-29T13:57:51.000Z</time>
      </trkpt>
      <trkpt lat="47.02819" lon="-1.78565">
        <ele>56</ele>
        <time>2020-12-29T13:57:53.000Z</time>
      </trkpt>
      <trkpt lat="47.0283" lon="-1.78558">
        <ele>57</ele>
        <time>2020-12-29T13:57:55.000Z</time>
      </trkpt>
      <trkpt lat="47.02839" lon="-1.78549">
        <ele>57</ele>
        <time>2020-12-29T13:57:57.000Z</time>
      </trkpt>
      <trkpt lat="47.02849" lon="-1.78541">
        <ele>58</ele>
        <time>2020-12-29T13:57:59.000Z</time>
      </trkpt>
      <trkpt lat="47.02858" lon="-1.78533">
        <ele>59</ele>
        <time>2020-12-29T13:58:01.000Z</time>
      </trkpt>
      <trkpt lat="47.02867" lon="-1.78524">
        <ele>59</ele>
        <time>2020-12-29T13:58:03.000Z</time>
      </trkpt>
      <trkpt lat="47.02876" lon="-1.78516">
        <ele>59</ele>
        <time>2020-12-29T13:58:05.000Z</time>
      </trkpt>
      <trkpt lat="47.02885" lon="-1.78506">
        <ele>59</ele>
        <time>2020-12-29T13:58:07.000Z</time>
      </trkpt>
      <trkpt lat="47.02893" lon="-1.78497">
        <ele>59</ele>
        <time>2020-12-29T13:58:09.000Z</time>
      </trkpt>
      <trkpt lat="47.02901" lon="-1.78489">
        <ele>59</ele>
        <time>2020-12-29T13:58:11.000Z</time>
      </trkpt>
      <trkpt lat="47.0291" lon="-1.7848">
        <ele>59</ele>
        <time>2020-12-29T13:58:13.000Z</time>
      </trkpt>
      <trkpt lat="47.02918" lon="-1.78472">
        <ele>59</ele>
        <time>2020-12-29T13:58:15.000Z</time>
      </trkpt>
      <trkpt lat="47.02927" lon="-1.78464">
        <ele>59</ele>
        <time>2020-12-29T13:58:17.000Z</time>
      </trkpt>
      <trkpt lat="47.02938" lon="-1.78455">
        <ele>59</ele>
        <time>2020-12-29T13:58:19.000Z</time>
      </trkpt>
      <trkpt lat="47.02947" lon="-1.78446">
        <ele>59</ele>
        <time>2020-12-29T13:58:21.000Z</time>
      </trkpt>
      <trkpt lat="47.02957" lon="-1.78438">
        <ele>59</ele>
        <time>2020-12-29T13:58:23.000Z</time>
      </trkpt>
      <trkpt lat="47.02966" lon="-1.78429">
        <ele>60</ele>
        <time>2020-12-29T13:58:25.000Z</time>
      </trkpt>
      <trkpt lat="47.02975" lon="-1.78421">
        <ele>60</ele>
        <time>2020-12-29T13:58:27.000Z</time>
      </trkpt>
      <trkpt lat="47.02984" lon="-1.78412">
        <ele>61</ele>
        <time>2020-12-29T13:58:29.000Z</time>
      </trkpt>
      <trkpt lat="47.02992" lon="-1.78404">
        <ele>62</ele>
        <time>2020-12-29T13:58:31.000Z</time>
      </trkpt>
      <trkpt lat="47.03001" lon="-1.78396">
        <ele>62</ele>
        <time>2020-12-29T13:58:33.000Z</time>
      </trkpt>
      <trkpt lat="47.0301" lon="-1.78389">
        <ele>63</ele>
        <time>2020-12-29T13:58:35.000Z</time>
      </trkpt>
      <trkpt lat="47.03019" lon="-1.78381">
        <ele>63</ele>
        <time>2020-12-29T13:58:37.000Z</time>
      </trkpt>
      <trkpt lat="47.03026" lon="-1.78374">
        <ele>63</ele>
        <time>2020-12-29T13:58:39.000Z</time>
      </trkpt>
      <trkpt lat="47.03034" lon="-1.78366">
        <ele>65</ele>
        <time>2020-12-29T13:58:41.000Z</time>
      </trkpt>
      <trkpt lat="47.03042" lon="-1.78358">
        <ele>66</ele>
        <time>2020-12-29T13:58:43.000Z</time>
      </trkpt>
      <trkpt lat="47.03051" lon="-1.78349">
        <ele>66</ele>
        <time>2020-12-29T13:58:45.000Z</time>
      </trkpt>
      <trkpt lat="47.0306" lon="-1.78341">
        <ele>66</ele>
        <time>2020-12-29T13:58:47.000Z</time>
      </trkpt>
      <trkpt lat="47.03069" lon="-1.78331">
        <ele>66</ele>
        <time>2020-12-29T13:58:49.000Z</time>
      </trkpt>
      <trkpt lat="47.03078" lon="-1.78321">
        <ele>66</ele>
        <time>2020-12-29T13:58:51.000Z</time>
      </trkpt>
      <trkpt lat="47.03089" lon="-1.78311">
        <ele>67</ele>
        <time>2020-12-29T13:58:53.000Z</time>
      </trkpt>
      <trkpt lat="47.03098" lon="-1.78303">
        <ele>67</ele>
        <time>2020-12-29T13:58:55.000Z</time>
      </trkpt>
      <trkpt lat="47.03109" lon="-1.78294">
        <ele>66</ele>
        <time>2020-12-29T13:58:57.000Z</time>
      </trkpt>
      <trkpt lat="47.03119" lon="-1.78284">
        <ele>66</ele>
        <time>2020-12-29T13:58:59.000Z</time>
      </trkpt>
      <trkpt lat="47.0313" lon="-1.78274">
        <ele>67</ele>
        <time>2020-12-29T13:59:01.000Z</time>
      </trkpt>
      <trkpt lat="47.0314" lon="-1.78264">
        <ele>66</ele>
        <time>2020-12-29T13:59:03.000Z</time>
      </trkpt>
      <trkpt lat="47.0315" lon="-1.78255">
        <ele>66</ele>
        <time>2020-12-29T13:59:05.000Z</time>
      </trkpt>
      <trkpt lat="47.0316" lon="-1.78244">
        <ele>66</ele>
        <time>2020-12-29T13:59:07.000Z</time>
      </trkpt>
      <trkpt lat="47.0317" lon="-1.78235">
        <ele>66</ele>
        <time>2020-12-29T13:59:09.000Z</time>
      </trkpt>
      <trkpt lat="47.03181" lon="-1.78225">
        <ele>66</ele>
        <time>2020-12-29T13:59:11.000Z</time>
      </trkpt>
      <trkpt lat="47.03192" lon="-1.78214">
        <ele>66</ele>
        <time>2020-12-29T13:59:13.000Z</time>
      </trkpt>
      <trkpt lat="47.03204" lon="-1.78203">
        <ele>66</ele>
        <time>2020-12-29T13:59:15.000Z</time>
      </trkpt>
      <trkpt lat="47.03216" lon="-1.78192">
        <ele>65</ele>
        <time>2020-12-29T13:59:17.000Z</time>
      </trkpt>
      <trkpt lat="47.03228" lon="-1.78181">
        <ele>65</ele>
        <time>2020-12-29T13:59:19.000Z</time>
      </trkpt>
      <trkpt lat="47.0324" lon="-1.7817">
        <ele>65</ele>
        <time>2020-12-29T13:59:21.000Z</time>
      </trkpt>
      <trkpt lat="47.03251" lon="-1.78159">
        <ele>65</ele>
        <time>2020-12-29T13:59:23.000Z</time>
      </trkpt>
      <trkpt lat="47.03262" lon="-1.78149">
        <ele>65</ele>
        <time>2020-12-29T13:59:25.000Z</time>
      </trkpt>
      <trkpt lat="47.03273" lon="-1.78138">
        <ele>65</ele>
        <time>2020-12-29T13:59:27.000Z</time>
      </trkpt>
      <trkpt lat="47.03284" lon="-1.78127">
        <ele>65</ele>
        <time>2020-12-29T13:59:29.000Z</time>
      </trkpt>
      <trkpt lat="47.03295" lon="-1.78117">
        <ele>65</ele>
        <time>2020-12-29T13:59:31.000Z</time>
      </trkpt>
      <trkpt lat="47.03306" lon="-1.78107">
        <ele>65</ele>
        <time>2020-12-29T13:59:33.000Z</time>
      </trkpt>
      <trkpt lat="47.03316" lon="-1.78097">
        <ele>65</ele>
        <time>2020-12-29T13:59:35.000Z</time>
      </trkpt>
      <trkpt lat="47.03327" lon="-1.78086">
        <ele>65</ele>
        <time>2020-12-29T13:59:37.000Z</time>
      </trkpt>
      <trkpt lat="47.03337" lon="-1.78076">
        <ele>65</ele>
        <time>2020-12-29T13:59:39.000Z</time>
      </trkpt>
      <trkpt lat="47.03348" lon="-1.78067">
        <ele>66</ele>
        <time>2020-12-29T13:59:41.000Z</time>
      </trkpt>
      <trkpt lat="47.03357" lon="-1.78057">
        <ele>66</ele>
        <time>2020-12-29T13:59:43.000Z</time>
      </trkpt>
      <trkpt lat="47.03367" lon="-1.78048">
        <ele>66</ele>
        <time>2020-12-29T13:59:45.000Z</time>
      </trkpt>
      <trkpt lat="47.03377" lon="-1.78039">
        <ele>67</ele>
        <time>2020-12-29T13:59:47.000Z</time>
      </trkpt>
      <trkpt lat="47.03386" lon="-1.7803">
        <ele>67</ele>
        <time>2020-12-29T13:59:49.000Z</time>
      </trkpt>
      <trkpt lat="47.03396" lon="-1.78021">
        <ele>67</ele>
        <time>2020-12-29T13:59:51.000Z</time>
      </trkpt>
      <trkpt lat="47.03405" lon="-1.78012">
        <ele>67</ele>
        <time>2020-12-29T13:59:53.000Z</time>
      </trkpt>
      <trkpt lat="47.03415" lon="-1.78002">
        <ele>68</ele>
        <time>2020-12-29T13:59:55.000Z</time>
      </trkpt>
      <trkpt lat="47.03425" lon="-1.77992">
        <ele>68</ele>
        <time>2020-12-29T13:59:57.000Z</time>
      </trkpt>
      <trkpt lat="47.03436" lon="-1.77982">
        <ele>68</ele>
        <time>2020-12-29T13:59:59.000Z</time>
      </trkpt>
      <trkpt lat="47.03447" lon="-1.77972">
        <ele>68</ele>
        <time>2020-12-29T14:00:01.000Z</time>
      </trkpt>
      <trkpt lat="47.03458" lon="-1.77962">
        <ele>68</ele>
        <time>2020-12-29T14:00:03.000Z</time>
      </trkpt>
      <trkpt lat="47.03469" lon="-1.77952">
        <ele>68</ele>
        <time>2020-12-29T14:00:05.000Z</time>
      </trkpt>
      <trkpt lat="47.0348" lon="-1.77942">
        <ele>67</ele>
        <time>2020-12-29T14:00:07.000Z</time>
      </trkpt>
      <trkpt lat="47.0349" lon="-1.77931">
        <ele>67</ele>
        <time>2020-12-29T14:00:09.000Z</time>
      </trkpt>
      <trkpt lat="47.03501" lon="-1.77921">
        <ele>68</ele>
        <time>2020-12-29T14:00:11.000Z</time>
      </trkpt>
      <trkpt lat="47.03511" lon="-1.77911">
        <ele>68</ele>
        <time>2020-12-29T14:00:13.000Z</time>
      </trkpt>
      <trkpt lat="47.03522" lon="-1.77901">
        <ele>68</ele>
        <time>2020-12-29T14:00:15.000Z</time>
      </trkpt>
      <trkpt lat="47.03533" lon="-1.77891">
        <ele>68</ele>
        <time>2020-12-29T14:00:17.000Z</time>
      </trkpt>
      <trkpt lat="47.03545" lon="-1.77881">
        <ele>68</ele>
        <time>2020-12-29T14:00:19.000Z</time>
      </trkpt>
      <trkpt lat="47.03556" lon="-1.77873">
        <ele>68</ele>
        <time>2020-12-29T14:00:21.000Z</time>
      </trkpt>
      <trkpt lat="47.03567" lon="-1.77864">
        <ele>68</ele>
        <time>2020-12-29T14:00:23.000Z</time>
      </trkpt>
      <trkpt lat="47.03578" lon="-1.77856">
        <ele>68</ele>
        <time>2020-12-29T14:00:25.000Z</time>
      </trkpt>
      <trkpt lat="47.0359" lon="-1.77847">
        <ele>68</ele>
        <time>2020-12-29T14:00:27.000Z</time>
      </trkpt>
      <trkpt lat="47.03602" lon="-1.77839">
        <ele>69</ele>
        <time>2020-12-29T14:00:29.000Z</time>
      </trkpt>
      <trkpt lat="47.03613" lon="-1.77831">
        <ele>69</ele>
        <time>2020-12-29T14:00:31.000Z</time>
      </trkpt>
      <trkpt lat="47.03625" lon="-1.77823">
        <ele>69</ele>
        <time>2020-12-29T14:00:33.000Z</time>
      </trkpt>
      <trkpt lat="47.03636" lon="-1.77815">
        <ele>69</ele>
        <time>2020-12-29T14:00:35.000Z</time>
      </trkpt>
      <trkpt lat="47.03647" lon="-1.77807">
        <ele>70</ele>
        <time>2020-12-29T14:00:37.000Z</time>
      </trkpt>
      <trkpt lat="47.03658" lon="-1.77799">
        <ele>70</ele>
        <time>2020-12-29T14:00:39.000Z</time>
      </trkpt>
      <trkpt lat="47.0367" lon="-1.77791">
        <ele>70</ele>
        <time>2020-12-29T14:00:41.000Z</time>
      </trkpt>
      <trkpt lat="47.03681" lon="-1.77783">
        <ele>70</ele>
        <time>2020-12-29T14:00:43.000Z</time>
      </trkpt>
      <trkpt lat="47.03692" lon="-1.77775">
        <ele>70</ele>
        <time>2020-12-29T14:00:45.000Z</time>
      </trkpt>
      <trkpt lat="47.03703" lon="-1.77767">
        <ele>70</ele>
        <time>2020-12-29T14:00:47.000Z</time>
      </trkpt>
      <trkpt lat="47.03715" lon="-1.77758">
        <ele>70</ele>
        <time>2020-12-29T14:00:49.000Z</time>
      </trkpt>
      <trkpt lat="47.03726" lon="-1.7775">
        <ele>70</ele>
        <time>2020-12-29T14:00:51.000Z</time>
      </trkpt>
      <trkpt lat="47.03737" lon="-1.77742">
        <ele>70</ele>
        <time>2020-12-29T14:00:53.000Z</time>
      </trkpt>
      <trkpt lat="47.03749" lon="-1.77734">
        <ele>70</ele>
        <time>2020-12-29T14:00:55.000Z</time>
      </trkpt>
      <trkpt lat="47.0376" lon="-1.77726">
        <ele>70</ele>
        <time>2020-12-29T14:00:57.000Z</time>
      </trkpt>
      <trkpt lat="47.03771" lon="-1.77718">
        <ele>71</ele>
        <time>2020-12-29T14:00:59.000Z</time>
      </trkpt>
      <trkpt lat="47.03783" lon="-1.77711">
        <ele>71</ele>
        <time>2020-12-29T14:01:01.000Z</time>
      </trkpt>
      <trkpt lat="47.03794" lon="-1.77703">
        <ele>71</ele>
        <time>2020-12-29T14:01:03.000Z</time>
      </trkpt>
      <trkpt lat="47.03805" lon="-1.77695">
        <ele>71</ele>
        <time>2020-12-29T14:01:05.000Z</time>
      </trkpt>
      <trkpt lat="47.03816" lon="-1.77687">
        <ele>72</ele>
        <time>2020-12-29T14:01:07.000Z</time>
      </trkpt>
      <trkpt lat="47.03828" lon="-1.77679">
        <ele>71</ele>
        <time>2020-12-29T14:01:09.000Z</time>
      </trkpt>
      <trkpt lat="47.03839" lon="-1.77672">
        <ele>71</ele>
        <time>2020-12-29T14:01:11.000Z</time>
      </trkpt>
      <trkpt lat="47.0385" lon="-1.77664">
        <ele>71</ele>
        <time>2020-12-29T14:01:13.000Z</time>
      </trkpt>
      <trkpt lat="47.03861" lon="-1.77657">
        <ele>71</ele>
        <time>2020-12-29T14:01:15.000Z</time>
      </trkpt>
      <trkpt lat="47.0387" lon="-1.7765">
        <ele>70</ele>
        <time>2020-12-29T14:01:17.000Z</time>
      </trkpt>
      <trkpt lat="47.0388" lon="-1.77643">
        <ele>71</ele>
        <time>2020-12-29T14:01:19.000Z</time>
      </trkpt>
      <trkpt lat="47.0389" lon="-1.77636">
        <ele>72</ele>
        <time>2020-12-29T14:01:21.000Z</time>
      </trkpt>
      <trkpt lat="47.03899" lon="-1.7763">
        <ele>72</ele>
        <time>2020-12-29T14:01:23.000Z</time>
      </trkpt>
      <trkpt lat="47.03909" lon="-1.77623">
        <ele>72</ele>
        <time>2020-12-29T14:01:25.000Z</time>
      </trkpt>
      <trkpt lat="47.03919" lon="-1.77616">
        <ele>72</ele>
        <time>2020-12-29T14:01:27.000Z</time>
      </trkpt>
      <trkpt lat="47.03929" lon="-1.77609">
        <ele>73</ele>
        <time>2020-12-29T14:01:29.000Z</time>
      </trkpt>
      <trkpt lat="47.03938" lon="-1.77602">
        <ele>73</ele>
        <time>2020-12-29T14:01:31.000Z</time>
      </trkpt>
      <trkpt lat="47.03948" lon="-1.77595">
        <ele>73</ele>
        <time>2020-12-29T14:01:33.000Z</time>
      </trkpt>
      <trkpt lat="47.03957" lon="-1.77588">
        <ele>74</ele>
        <time>2020-12-29T14:01:35.000Z</time>
      </trkpt>
      <trkpt lat="47.03968" lon="-1.77582">
        <ele>74</ele>
        <time>2020-12-29T14:01:37.000Z</time>
      </trkpt>
      <trkpt lat="47.03977" lon="-1.77575">
        <ele>74</ele>
        <time>2020-12-29T14:01:39.000Z</time>
      </trkpt>
      <trkpt lat="47.03988" lon="-1.77567">
        <ele>75</ele>
        <time>2020-12-29T14:01:41.000Z</time>
      </trkpt>
      <trkpt lat="47.03998" lon="-1.7756">
        <ele>75</ele>
        <time>2020-12-29T14:01:43.000Z</time>
      </trkpt>
      <trkpt lat="47.04008" lon="-1.77553">
        <ele>75</ele>
        <time>2020-12-29T14:01:45.000Z</time>
      </trkpt>
      <trkpt lat="47.04018" lon="-1.77547">
        <ele>75</ele>
        <time>2020-12-29T14:01:47.000Z</time>
      </trkpt>
      <trkpt lat="47.04028" lon="-1.7754">
        <ele>75</ele>
        <time>2020-12-29T14:01:49.000Z</time>
      </trkpt>
      <trkpt lat="47.04042" lon="-1.7753">
        <ele>76</ele>
        <time>2020-12-29T14:01:52.000Z</time>
      </trkpt>
      <trkpt lat="47.04057" lon="-1.77519">
        <ele>76</ele>
        <time>2020-12-29T14:01:55.000Z</time>
      </trkpt>
      <trkpt lat="47.04067" lon="-1.77512">
        <ele>76</ele>
        <time>2020-12-29T14:01:57.000Z</time>
      </trkpt>
      <trkpt lat="47.04076" lon="-1.77505">
        <ele>77</ele>
        <time>2020-12-29T14:01:59.000Z</time>
      </trkpt>
      <trkpt lat="47.04086" lon="-1.77499">
        <ele>77</ele>
        <time>2020-12-29T14:02:01.000Z</time>
      </trkpt>
      <trkpt lat="47.04101" lon="-1.77488">
        <ele>77</ele>
        <time>2020-12-29T14:02:04.000Z</time>
      </trkpt>
      <trkpt lat="47.04111" lon="-1.7748">
        <ele>78</ele>
        <time>2020-12-29T14:02:06.000Z</time>
      </trkpt>
      <trkpt lat="47.04121" lon="-1.77473">
        <ele>78</ele>
        <time>2020-12-29T14:02:08.000Z</time>
      </trkpt>
      <trkpt lat="47.04131" lon="-1.77465">
        <ele>77</ele>
        <time>2020-12-29T14:02:10.000Z</time>
      </trkpt>
      <trkpt lat="47.04142" lon="-1.77458">
        <ele>78</ele>
        <time>2020-12-29T14:02:12.000Z</time>
      </trkpt>
      <trkpt lat="47.04153" lon="-1.77451">
        <ele>78</ele>
        <time>2020-12-29T14:02:14.000Z</time>
      </trkpt>
      <trkpt lat="47.04164" lon="-1.77443">
        <ele>78</ele>
        <time>2020-12-29T14:02:16.000Z</time>
      </trkpt>
      <trkpt lat="47.04174" lon="-1.77436">
        <ele>78</ele>
        <time>2020-12-29T14:02:18.000Z</time>
      </trkpt>
      <trkpt lat="47.04185" lon="-1.77429">
        <ele>78</ele>
        <time>2020-12-29T14:02:20.000Z</time>
      </trkpt>
      <trkpt lat="47.04196" lon="-1.77421">
        <ele>78</ele>
        <time>2020-12-29T14:02:22.000Z</time>
      </trkpt>
      <trkpt lat="47.04207" lon="-1.77413">
        <ele>78</ele>
        <time>2020-12-29T14:02:24.000Z</time>
      </trkpt>
      <trkpt lat="47.04224" lon="-1.77401">
        <ele>77</ele>
        <time>2020-12-29T14:02:27.000Z</time>
      </trkpt>
      <trkpt lat="47.04236" lon="-1.77393">
        <ele>77</ele>
        <time>2020-12-29T14:02:29.000Z</time>
      </trkpt>
      <trkpt lat="47.04246" lon="-1.77385">
        <ele>77</ele>
        <time>2020-12-29T14:02:31.000Z</time>
      </trkpt>
      <trkpt lat="47.04257" lon="-1.77377">
        <ele>78</ele>
        <time>2020-12-29T14:02:33.000Z</time>
      </trkpt>
      <trkpt lat="47.04268" lon="-1.77369">
        <ele>78</ele>
        <time>2020-12-29T14:02:35.000Z</time>
      </trkpt>
      <trkpt lat="47.04286" lon="-1.77356">
        <ele>78</ele>
        <time>2020-12-29T14:02:38.000Z</time>
      </trkpt>
      <trkpt lat="47.04299" lon="-1.77348">
        <ele>78</ele>
        <time>2020-12-29T14:02:40.000Z</time>
      </trkpt>
      <trkpt lat="47.04311" lon="-1.7734">
        <ele>77</ele>
        <time>2020-12-29T14:02:42.000Z</time>
      </trkpt>
      <trkpt lat="47.04323" lon="-1.77331">
        <ele>77</ele>
        <time>2020-12-29T14:02:44.000Z</time>
      </trkpt>
      <trkpt lat="47.04336" lon="-1.77323">
        <ele>77</ele>
        <time>2020-12-29T14:02:46.000Z</time>
      </trkpt>
      <trkpt lat="47.04354" lon="-1.77311">
        <ele>77</ele>
        <time>2020-12-29T14:02:49.000Z</time>
      </trkpt>
      <trkpt lat="47.04366" lon="-1.77302">
        <ele>77</ele>
        <time>2020-12-29T14:02:51.000Z</time>
      </trkpt>
      <trkpt lat="47.04378" lon="-1.77294">
        <ele>77</ele>
        <time>2020-12-29T14:02:53.000Z</time>
      </trkpt>
      <trkpt lat="47.0439" lon="-1.77285">
        <ele>77</ele>
        <time>2020-12-29T14:02:55.000Z</time>
      </trkpt>
      <trkpt lat="47.04401" lon="-1.77277">
        <ele>77</ele>
        <time>2020-12-29T14:02:57.000Z</time>
      </trkpt>
      <trkpt lat="47.04413" lon="-1.77269">
        <ele>77</ele>
        <time>2020-12-29T14:02:59.000Z</time>
      </trkpt>
      <trkpt lat="47.04431" lon="-1.77256">
        <ele>77</ele>
        <time>2020-12-29T14:03:02.000Z</time>
      </trkpt>
      <trkpt lat="47.04443" lon="-1.77248">
        <ele>76</ele>
        <time>2020-12-29T14:03:04.000Z</time>
      </trkpt>
      <trkpt lat="47.0446" lon="-1.77235">
        <ele>77</ele>
        <time>2020-12-29T14:03:07.000Z</time>
      </trkpt>
      <trkpt lat="47.04472" lon="-1.77227">
        <ele>77</ele>
        <time>2020-12-29T14:03:09.000Z</time>
      </trkpt>
      <trkpt lat="47.04484" lon="-1.77219">
        <ele>76</ele>
        <time>2020-12-29T14:03:11.000Z</time>
      </trkpt>
      <trkpt lat="47.04496" lon="-1.77211">
        <ele>76</ele>
        <time>2020-12-29T14:03:13.000Z</time>
      </trkpt>
      <trkpt lat="47.04508" lon="-1.77202">
        <ele>75</ele>
        <time>2020-12-29T14:03:15.000Z</time>
      </trkpt>
      <trkpt lat="47.04526" lon="-1.7719">
        <ele>75</ele>
        <time>2020-12-29T14:03:18.000Z</time>
      </trkpt>
      <trkpt lat="47.04546" lon="-1.77177">
        <ele>75</ele>
        <time>2020-12-29T14:03:21.000Z</time>
      </trkpt>
      <trkpt lat="47.04559" lon="-1.77169">
        <ele>75</ele>
        <time>2020-12-29T14:03:23.000Z</time>
      </trkpt>
      <trkpt lat="47.04572" lon="-1.77161">
        <ele>74</ele>
        <time>2020-12-29T14:03:25.000Z</time>
      </trkpt>
      <trkpt lat="47.04585" lon="-1.77154">
        <ele>75</ele>
        <time>2020-12-29T14:03:27.000Z</time>
      </trkpt>
      <trkpt lat="47.04597" lon="-1.77147">
        <ele>75</ele>
        <time>2020-12-29T14:03:29.000Z</time>
      </trkpt>
      <trkpt lat="47.0461" lon="-1.77141">
        <ele>75</ele>
        <time>2020-12-29T14:03:31.000Z</time>
      </trkpt>
      <trkpt lat="47.04623" lon="-1.77135">
        <ele>75</ele>
        <time>2020-12-29T14:03:33.000Z</time>
      </trkpt>
      <trkpt lat="47.04636" lon="-1.77128">
        <ele>75</ele>
        <time>2020-12-29T14:03:35.000Z</time>
      </trkpt>
      <trkpt lat="47.04649" lon="-1.77122">
        <ele>75</ele>
        <time>2020-12-29T14:03:37.000Z</time>
      </trkpt>
      <trkpt lat="47.04663" lon="-1.77116">
        <ele>74</ele>
        <time>2020-12-29T14:03:39.000Z</time>
      </trkpt>
      <trkpt lat="47.04676" lon="-1.7711">
        <ele>74</ele>
        <time>2020-12-29T14:03:41.000Z</time>
      </trkpt>
      <trkpt lat="47.04689" lon="-1.77104">
        <ele>73</ele>
        <time>2020-12-29T14:03:43.000Z</time>
      </trkpt>
      <trkpt lat="47.04701" lon="-1.77098">
        <ele>73</ele>
        <time>2020-12-29T14:03:45.000Z</time>
      </trkpt>
      <trkpt lat="47.04713" lon="-1.77092">
        <ele>73</ele>
        <time>2020-12-29T14:03:47.000Z</time>
      </trkpt>
      <trkpt lat="47.04727" lon="-1.77086">
        <ele>73</ele>
        <time>2020-12-29T14:03:49.000Z</time>
      </trkpt>
      <trkpt lat="47.0474" lon="-1.77079">
        <ele>73</ele>
        <time>2020-12-29T14:03:51.000Z</time>
      </trkpt>
      <trkpt lat="47.04753" lon="-1.77072">
        <ele>74</ele>
        <time>2020-12-29T14:03:53.000Z</time>
      </trkpt>
      <trkpt lat="47.04766" lon="-1.77066">
        <ele>73</ele>
        <time>2020-12-29T14:03:55.000Z</time>
      </trkpt>
      <trkpt lat="47.04779" lon="-1.7706">
        <ele>73</ele>
        <time>2020-12-29T14:03:57.000Z</time>
      </trkpt>
      <trkpt lat="47.04791" lon="-1.77054">
        <ele>73</ele>
        <time>2020-12-29T14:03:59.000Z</time>
      </trkpt>
      <trkpt lat="47.04803" lon="-1.77048">
        <ele>73</ele>
        <time>2020-12-29T14:04:01.000Z</time>
      </trkpt>
      <trkpt lat="47.04816" lon="-1.77042">
        <ele>73</ele>
        <time>2020-12-29T14:04:03.000Z</time>
      </trkpt>
      <trkpt lat="47.0483" lon="-1.77035">
        <ele>73</ele>
        <time>2020-12-29T14:04:05.000Z</time>
      </trkpt>
      <trkpt lat="47.04842" lon="-1.77029">
        <ele>73</ele>
        <time>2020-12-29T14:04:07.000Z</time>
      </trkpt>
      <trkpt lat="47.04855" lon="-1.77023">
        <ele>72</ele>
        <time>2020-12-29T14:04:09.000Z</time>
      </trkpt>
      <trkpt lat="47.04867" lon="-1.77017">
        <ele>72</ele>
        <time>2020-12-29T14:04:11.000Z</time>
      </trkpt>
      <trkpt lat="47.0488" lon="-1.77011">
        <ele>72</ele>
        <time>2020-12-29T14:04:13.000Z</time>
      </trkpt>
      <trkpt lat="47.04894" lon="-1.77004">
        <ele>72</ele>
        <time>2020-12-29T14:04:15.000Z</time>
      </trkpt>
      <trkpt lat="47.04906" lon="-1.76998">
        <ele>72</ele>
        <time>2020-12-29T14:04:17.000Z</time>
      </trkpt>
      <trkpt lat="47.04919" lon="-1.76992">
        <ele>72</ele>
        <time>2020-12-29T14:04:19.000Z</time>
      </trkpt>
      <trkpt lat="47.04932" lon="-1.76986">
        <ele>72</ele>
        <time>2020-12-29T14:04:21.000Z</time>
      </trkpt>
      <trkpt lat="47.04945" lon="-1.7698">
        <ele>72</ele>
        <time>2020-12-29T14:04:23.000Z</time>
      </trkpt>
      <trkpt lat="47.04958" lon="-1.76973">
        <ele>71</ele>
        <time>2020-12-29T14:04:25.000Z</time>
      </trkpt>
      <trkpt lat="47.04971" lon="-1.76968">
        <ele>72</ele>
        <time>2020-12-29T14:04:27.000Z</time>
      </trkpt>
      <trkpt lat="47.04984" lon="-1.76961">
        <ele>72</ele>
        <time>2020-12-29T14:04:29.000Z</time>
      </trkpt>
      <trkpt lat="47.04997" lon="-1.76955">
        <ele>71</ele>
        <time>2020-12-29T14:04:31.000Z</time>
      </trkpt>
      <trkpt lat="47.0501" lon="-1.76948">
        <ele>71</ele>
        <time>2020-12-29T14:04:33.000Z</time>
      </trkpt>
      <trkpt lat="47.05023" lon="-1.76943">
        <ele>71</ele>
        <time>2020-12-29T14:04:35.000Z</time>
      </trkpt>
      <trkpt lat="47.05036" lon="-1.76936">
        <ele>71</ele>
        <time>2020-12-29T14:04:37.000Z</time>
      </trkpt>
      <trkpt lat="47.05049" lon="-1.7693">
        <ele>71</ele>
        <time>2020-12-29T14:04:39.000Z</time>
      </trkpt>
      <trkpt lat="47.05062" lon="-1.76924">
        <ele>71</ele>
        <time>2020-12-29T14:04:41.000Z</time>
      </trkpt>
      <trkpt lat="47.05074" lon="-1.76918">
        <ele>71</ele>
        <time>2020-12-29T14:04:43.000Z</time>
      </trkpt>
      <trkpt lat="47.05087" lon="-1.76911">
        <ele>71</ele>
        <time>2020-12-29T14:04:45.000Z</time>
      </trkpt>
      <trkpt lat="47.051" lon="-1.76906">
        <ele>71</ele>
        <time>2020-12-29T14:04:47.000Z</time>
      </trkpt>
      <trkpt lat="47.05113" lon="-1.769">
        <ele>70</ele>
        <time>2020-12-29T14:04:49.000Z</time>
      </trkpt>
      <trkpt lat="47.05125" lon="-1.76894">
        <ele>70</ele>
        <time>2020-12-29T14:04:51.000Z</time>
      </trkpt>
      <trkpt lat="47.05138" lon="-1.76888">
        <ele>71</ele>
        <time>2020-12-29T14:04:53.000Z</time>
      </trkpt>
      <trkpt lat="47.0515" lon="-1.76882">
        <ele>71</ele>
        <time>2020-12-29T14:04:55.000Z</time>
      </trkpt>
      <trkpt lat="47.05162" lon="-1.76875">
        <ele>71</ele>
        <time>2020-12-29T14:04:57.000Z</time>
      </trkpt>
      <trkpt lat="47.05174" lon="-1.7687">
        <ele>72</ele>
        <time>2020-12-29T14:04:59.000Z</time>
      </trkpt>
      <trkpt lat="47.05187" lon="-1.76864">
        <ele>72</ele>
        <time>2020-12-29T14:05:01.000Z</time>
      </trkpt>
      <trkpt lat="47.052" lon="-1.76858">
        <ele>73</ele>
        <time>2020-12-29T14:05:03.000Z</time>
      </trkpt>
      <trkpt lat="47.05212" lon="-1.76852">
        <ele>72</ele>
        <time>2020-12-29T14:05:05.000Z</time>
      </trkpt>
      <trkpt lat="47.05224" lon="-1.76846">
        <ele>72</ele>
        <time>2020-12-29T14:05:07.000Z</time>
      </trkpt>
      <trkpt lat="47.05237" lon="-1.7684">
        <ele>72</ele>
        <time>2020-12-29T14:05:09.000Z</time>
      </trkpt>
      <trkpt lat="47.0525" lon="-1.76834">
        <ele>72</ele>
        <time>2020-12-29T14:05:11.000Z</time>
      </trkpt>
      <trkpt lat="47.05262" lon="-1.76828">
        <ele>72</ele>
        <time>2020-12-29T14:05:13.000Z</time>
      </trkpt>
      <trkpt lat="47.05275" lon="-1.76822">
        <ele>72</ele>
        <time>2020-12-29T14:05:15.000Z</time>
      </trkpt>
      <trkpt lat="47.05288" lon="-1.76817">
        <ele>71</ele>
        <time>2020-12-29T14:05:17.000Z</time>
      </trkpt>
      <trkpt lat="47.05301" lon="-1.76811">
        <ele>71</ele>
        <time>2020-12-29T14:05:19.000Z</time>
      </trkpt>
      <trkpt lat="47.05314" lon="-1.76805">
        <ele>71</ele>
        <time>2020-12-29T14:05:21.000Z</time>
      </trkpt>
      <trkpt lat="47.05326" lon="-1.76798">
        <ele>70</ele>
        <time>2020-12-29T14:05:23.000Z</time>
      </trkpt>
      <trkpt lat="47.05338" lon="-1.76792">
        <ele>70</ele>
        <time>2020-12-29T14:05:25.000Z</time>
      </trkpt>
      <trkpt lat="47.05351" lon="-1.76786">
        <ele>69</ele>
        <time>2020-12-29T14:05:27.000Z</time>
      </trkpt>
      <trkpt lat="47.05364" lon="-1.7678">
        <ele>69</ele>
        <time>2020-12-29T14:05:29.000Z</time>
      </trkpt>
      <trkpt lat="47.05377" lon="-1.76774">
        <ele>69</ele>
        <time>2020-12-29T14:05:31.000Z</time>
      </trkpt>
      <trkpt lat="47.05389" lon="-1.76768">
        <ele>69</ele>
        <time>2020-12-29T14:05:33.000Z</time>
      </trkpt>
      <trkpt lat="47.05402" lon="-1.76762">
        <ele>69</ele>
        <time>2020-12-29T14:05:35.000Z</time>
      </trkpt>
      <trkpt lat="47.05415" lon="-1.76756">
        <ele>68</ele>
        <time>2020-12-29T14:05:37.000Z</time>
      </trkpt>
      <trkpt lat="47.05427" lon="-1.76749">
        <ele>68</ele>
        <time>2020-12-29T14:05:39.000Z</time>
      </trkpt>
      <trkpt lat="47.0544" lon="-1.76743">
        <ele>68</ele>
        <time>2020-12-29T14:05:41.000Z</time>
      </trkpt>
      <trkpt lat="47.05452" lon="-1.76737">
        <ele>68</ele>
        <time>2020-12-29T14:05:43.000Z</time>
      </trkpt>
      <trkpt lat="47.05465" lon="-1.7673">
        <ele>69</ele>
        <time>2020-12-29T14:05:45.000Z</time>
      </trkpt>
      <trkpt lat="47.05478" lon="-1.76725">
        <ele>69</ele>
        <time>2020-12-29T14:05:47.000Z</time>
      </trkpt>
      <trkpt lat="47.0549" lon="-1.76718">
        <ele>68</ele>
        <time>2020-12-29T14:05:49.000Z</time>
      </trkpt>
      <trkpt lat="47.05504" lon="-1.76712">
        <ele>69</ele>
        <time>2020-12-29T14:05:51.000Z</time>
      </trkpt>
      <trkpt lat="47.05517" lon="-1.76706">
        <ele>69</ele>
        <time>2020-12-29T14:05:53.000Z</time>
      </trkpt>
      <trkpt lat="47.05529" lon="-1.76699">
        <ele>69</ele>
        <time>2020-12-29T14:05:55.000Z</time>
      </trkpt>
      <trkpt lat="47.05541" lon="-1.76692">
        <ele>70</ele>
        <time>2020-12-29T14:05:57.000Z</time>
      </trkpt>
      <trkpt lat="47.05554" lon="-1.76685">
        <ele>70</ele>
        <time>2020-12-29T14:05:59.000Z</time>
      </trkpt>
      <trkpt lat="47.05566" lon="-1.76679">
        <ele>70</ele>
        <time>2020-12-29T14:06:01.000Z</time>
      </trkpt>
      <trkpt lat="47.05579" lon="-1.76673">
        <ele>69</ele>
        <time>2020-12-29T14:06:03.000Z</time>
      </trkpt>
      <trkpt lat="47.05593" lon="-1.76667">
        <ele>70</ele>
        <time>2020-12-29T14:06:05.000Z</time>
      </trkpt>
      <trkpt lat="47.05604" lon="-1.76662">
        <ele>70</ele>
        <time>2020-12-29T14:06:07.000Z</time>
      </trkpt>
      <trkpt lat="47.05617" lon="-1.76656">
        <ele>70</ele>
        <time>2020-12-29T14:06:09.000Z</time>
      </trkpt>
      <trkpt lat="47.05629" lon="-1.7665">
        <ele>70</ele>
        <time>2020-12-29T14:06:11.000Z</time>
      </trkpt>
      <trkpt lat="47.05644" lon="-1.76643">
        <ele>70</ele>
        <time>2020-12-29T14:06:13.000Z</time>
      </trkpt>
      <trkpt lat="47.05658" lon="-1.76635">
        <ele>69</ele>
        <time>2020-12-29T14:06:15.000Z</time>
      </trkpt>
      <trkpt lat="47.05672" lon="-1.76629">
        <ele>69</ele>
        <time>2020-12-29T14:06:17.000Z</time>
      </trkpt>
      <trkpt lat="47.05685" lon="-1.76623">
        <ele>69</ele>
        <time>2020-12-29T14:06:19.000Z</time>
      </trkpt>
      <trkpt lat="47.057" lon="-1.76617">
        <ele>69</ele>
        <time>2020-12-29T14:06:21.000Z</time>
      </trkpt>
      <trkpt lat="47.05713" lon="-1.76611">
        <ele>69</ele>
        <time>2020-12-29T14:06:23.000Z</time>
      </trkpt>
      <trkpt lat="47.05727" lon="-1.76604">
        <ele>70</ele>
        <time>2020-12-29T14:06:25.000Z</time>
      </trkpt>
      <trkpt lat="47.05739" lon="-1.76598">
        <ele>70</ele>
        <time>2020-12-29T14:06:27.000Z</time>
      </trkpt>
      <trkpt lat="47.05752" lon="-1.76593">
        <ele>70</ele>
        <time>2020-12-29T14:06:29.000Z</time>
      </trkpt>
      <trkpt lat="47.05764" lon="-1.76587">
        <ele>70</ele>
        <time>2020-12-29T14:06:31.000Z</time>
      </trkpt>
      <trkpt lat="47.05775" lon="-1.76581">
        <ele>70</ele>
        <time>2020-12-29T14:06:33.000Z</time>
      </trkpt>
      <trkpt lat="47.05787" lon="-1.76576">
        <ele>70</ele>
        <time>2020-12-29T14:06:35.000Z</time>
      </trkpt>
      <trkpt lat="47.05798" lon="-1.7657">
        <ele>70</ele>
        <time>2020-12-29T14:06:37.000Z</time>
      </trkpt>
      <trkpt lat="47.0581" lon="-1.76565">
        <ele>70</ele>
        <time>2020-12-29T14:06:39.000Z</time>
      </trkpt>
      <trkpt lat="47.05823" lon="-1.7656">
        <ele>70</ele>
        <time>2020-12-29T14:06:41.000Z</time>
      </trkpt>
      <trkpt lat="47.05834" lon="-1.76554">
        <ele>70</ele>
        <time>2020-12-29T14:06:43.000Z</time>
      </trkpt>
      <trkpt lat="47.05846" lon="-1.76549">
        <ele>71</ele>
        <time>2020-12-29T14:06:45.000Z</time>
      </trkpt>
      <trkpt lat="47.05858" lon="-1.76543">
        <ele>71</ele>
        <time>2020-12-29T14:06:47.000Z</time>
      </trkpt>
      <trkpt lat="47.0587" lon="-1.76537">
        <ele>71</ele>
        <time>2020-12-29T14:06:49.000Z</time>
      </trkpt>
      <trkpt lat="47.05881" lon="-1.76532">
        <ele>71</ele>
        <time>2020-12-29T14:06:51.000Z</time>
      </trkpt>
      <trkpt lat="47.05892" lon="-1.76527">
        <ele>71</ele>
        <time>2020-12-29T14:06:53.000Z</time>
      </trkpt>
      <trkpt lat="47.05904" lon="-1.76522">
        <ele>71</ele>
        <time>2020-12-29T14:06:55.000Z</time>
      </trkpt>
      <trkpt lat="47.05915" lon="-1.76516">
        <ele>71</ele>
        <time>2020-12-29T14:06:57.000Z</time>
      </trkpt>
      <trkpt lat="47.05926" lon="-1.7651">
        <ele>72</ele>
        <time>2020-12-29T14:06:59.000Z</time>
      </trkpt>
      <trkpt lat="47.05938" lon="-1.76505">
        <ele>72</ele>
        <time>2020-12-29T14:07:01.000Z</time>
      </trkpt>
      <trkpt lat="47.0595" lon="-1.76499">
        <ele>72</ele>
        <time>2020-12-29T14:07:03.000Z</time>
      </trkpt>
      <trkpt lat="47.05961" lon="-1.76493">
        <ele>72</ele>
        <time>2020-12-29T14:07:05.000Z</time>
      </trkpt>
      <trkpt lat="47.05973" lon="-1.76488">
        <ele>73</ele>
        <time>2020-12-29T14:07:07.000Z</time>
      </trkpt>
      <trkpt lat="47.05985" lon="-1.76482">
        <ele>72</ele>
        <time>2020-12-29T14:07:09.000Z</time>
      </trkpt>
      <trkpt lat="47.05997" lon="-1.76477">
        <ele>73</ele>
        <time>2020-12-29T14:07:11.000Z</time>
      </trkpt>
      <trkpt lat="47.06009" lon="-1.76472">
        <ele>73</ele>
        <time>2020-12-29T14:07:13.000Z</time>
      </trkpt>
      <trkpt lat="47.0602" lon="-1.76467">
        <ele>72</ele>
        <time>2020-12-29T14:07:15.000Z</time>
      </trkpt>
      <trkpt lat="47.06032" lon="-1.7646">
        <ele>73</ele>
        <time>2020-12-29T14:07:17.000Z</time>
      </trkpt>
      <trkpt lat="47.06043" lon="-1.76454">
        <ele>73</ele>
        <time>2020-12-29T14:07:19.000Z</time>
      </trkpt>
      <trkpt lat="47.06055" lon="-1.76449">
        <ele>73</ele>
        <time>2020-12-29T14:07:21.000Z</time>
      </trkpt>
      <trkpt lat="47.06067" lon="-1.76444">
        <ele>73</ele>
        <time>2020-12-29T14:07:23.000Z</time>
      </trkpt>
      <trkpt lat="47.06079" lon="-1.76439">
        <ele>73</ele>
        <time>2020-12-29T14:07:25.000Z</time>
      </trkpt>
      <trkpt lat="47.0609" lon="-1.76433">
        <ele>73</ele>
        <time>2020-12-29T14:07:27.000Z</time>
      </trkpt>
      <trkpt lat="47.06102" lon="-1.76428">
        <ele>74</ele>
        <time>2020-12-29T14:07:29.000Z</time>
      </trkpt>
      <trkpt lat="47.06114" lon="-1.76422">
        <ele>74</ele>
        <time>2020-12-29T14:07:31.000Z</time>
      </trkpt>
      <trkpt lat="47.06125" lon="-1.76417">
        <ele>74</ele>
        <time>2020-12-29T14:07:33.000Z</time>
      </trkpt>
      <trkpt lat="47.06137" lon="-1.7641">
        <ele>74</ele>
        <time>2020-12-29T14:07:35.000Z</time>
      </trkpt>
      <trkpt lat="47.06148" lon="-1.76405">
        <ele>73</ele>
        <time>2020-12-29T14:07:37.000Z</time>
      </trkpt>
      <trkpt lat="47.06159" lon="-1.764">
        <ele>74</ele>
        <time>2020-12-29T14:07:39.000Z</time>
      </trkpt>
      <trkpt lat="47.06171" lon="-1.76394">
        <ele>74</ele>
        <time>2020-12-29T14:07:41.000Z</time>
      </trkpt>
      <trkpt lat="47.06182" lon="-1.76389">
        <ele>74</ele>
        <time>2020-12-29T14:07:43.000Z</time>
      </trkpt>
      <trkpt lat="47.06193" lon="-1.76384">
        <ele>74</ele>
        <time>2020-12-29T14:07:45.000Z</time>
      </trkpt>
      <trkpt lat="47.06204" lon="-1.76379">
        <ele>75</ele>
        <time>2020-12-29T14:07:47.000Z</time>
      </trkpt>
      <trkpt lat="47.06215" lon="-1.76373">
        <ele>75</ele>
        <time>2020-12-29T14:07:49.000Z</time>
      </trkpt>
      <trkpt lat="47.06227" lon="-1.76367">
        <ele>75</ele>
        <time>2020-12-29T14:07:51.000Z</time>
      </trkpt>
      <trkpt lat="47.06238" lon="-1.7636">
        <ele>75</ele>
        <time>2020-12-29T14:07:53.000Z</time>
      </trkpt>
      <trkpt lat="47.06249" lon="-1.76354">
        <ele>76</ele>
        <time>2020-12-29T14:07:55.000Z</time>
      </trkpt>
      <trkpt lat="47.06261" lon="-1.76348">
        <ele>76</ele>
        <time>2020-12-29T14:07:57.000Z</time>
      </trkpt>
      <trkpt lat="47.06273" lon="-1.76342">
        <ele>76</ele>
        <time>2020-12-29T14:07:59.000Z</time>
      </trkpt>
      <trkpt lat="47.06285" lon="-1.76336">
        <ele>76</ele>
        <time>2020-12-29T14:08:01.000Z</time>
      </trkpt>
      <trkpt lat="47.06297" lon="-1.7633">
        <ele>76</ele>
        <time>2020-12-29T14:08:03.000Z</time>
      </trkpt>
      <trkpt lat="47.0631" lon="-1.76324">
        <ele>77</ele>
        <time>2020-12-29T14:08:05.000Z</time>
      </trkpt>
      <trkpt lat="47.06322" lon="-1.76318">
        <ele>77</ele>
        <time>2020-12-29T14:08:07.000Z</time>
      </trkpt>
      <trkpt lat="47.06334" lon="-1.76311">
        <ele>78</ele>
        <time>2020-12-29T14:08:09.000Z</time>
      </trkpt>
      <trkpt lat="47.06347" lon="-1.76306">
        <ele>78</ele>
        <time>2020-12-29T14:08:11.000Z</time>
      </trkpt>
      <trkpt lat="47.0636" lon="-1.76301">
        <ele>79</ele>
        <time>2020-12-29T14:08:13.000Z</time>
      </trkpt>
      <trkpt lat="47.06372" lon="-1.76296">
        <ele>79</ele>
        <time>2020-12-29T14:08:15.000Z</time>
      </trkpt>
      <trkpt lat="47.06384" lon="-1.7629">
        <ele>79</ele>
        <time>2020-12-29T14:08:17.000Z</time>
      </trkpt>
      <trkpt lat="47.06396" lon="-1.76284">
        <ele>80</ele>
        <time>2020-12-29T14:08:19.000Z</time>
      </trkpt>
      <trkpt lat="47.06408" lon="-1.76279">
        <ele>80</ele>
        <time>2020-12-29T14:08:21.000Z</time>
      </trkpt>
      <trkpt lat="47.0642" lon="-1.76274">
        <ele>81</ele>
        <time>2020-12-29T14:08:23.000Z</time>
      </trkpt>
      <trkpt lat="47.06433" lon="-1.76268">
        <ele>82</ele>
        <time>2020-12-29T14:08:25.000Z</time>
      </trkpt>
      <trkpt lat="47.06445" lon="-1.76262">
        <ele>81</ele>
        <time>2020-12-29T14:08:27.000Z</time>
      </trkpt>
      <trkpt lat="47.06457" lon="-1.76256">
        <ele>82</ele>
        <time>2020-12-29T14:08:29.000Z</time>
      </trkpt>
      <trkpt lat="47.06469" lon="-1.76251">
        <ele>82</ele>
        <time>2020-12-29T14:08:31.000Z</time>
      </trkpt>
      <trkpt lat="47.06482" lon="-1.76245">
        <ele>82</ele>
        <time>2020-12-29T14:08:33.000Z</time>
      </trkpt>
      <trkpt lat="47.06494" lon="-1.76239">
        <ele>82</ele>
        <time>2020-12-29T14:08:35.000Z</time>
      </trkpt>
      <trkpt lat="47.06506" lon="-1.76233">
        <ele>82</ele>
        <time>2020-12-29T14:08:37.000Z</time>
      </trkpt>
      <trkpt lat="47.06518" lon="-1.76228">
        <ele>83</ele>
        <time>2020-12-29T14:08:39.000Z</time>
      </trkpt>
      <trkpt lat="47.06531" lon="-1.76222">
        <ele>84</ele>
        <time>2020-12-29T14:08:41.000Z</time>
      </trkpt>
      <trkpt lat="47.06543" lon="-1.76216">
        <ele>84</ele>
        <time>2020-12-29T14:08:43.000Z</time>
      </trkpt>
      <trkpt lat="47.06555" lon="-1.76209">
        <ele>84</ele>
        <time>2020-12-29T14:08:45.000Z</time>
      </trkpt>
      <trkpt lat="47.06567" lon="-1.76204">
        <ele>83</ele>
        <time>2020-12-29T14:08:47.000Z</time>
      </trkpt>
      <trkpt lat="47.06579" lon="-1.76197">
        <ele>83</ele>
        <time>2020-12-29T14:08:49.000Z</time>
      </trkpt>
      <trkpt lat="47.06592" lon="-1.76192">
        <ele>83</ele>
        <time>2020-12-29T14:08:51.000Z</time>
      </trkpt>
      <trkpt lat="47.06605" lon="-1.76186">
        <ele>82</ele>
        <time>2020-12-29T14:08:53.000Z</time>
      </trkpt>
      <trkpt lat="47.06618" lon="-1.76181">
        <ele>81</ele>
        <time>2020-12-29T14:08:55.000Z</time>
      </trkpt>
      <trkpt lat="47.06632" lon="-1.76174">
        <ele>81</ele>
        <time>2020-12-29T14:08:57.000Z</time>
      </trkpt>
      <trkpt lat="47.06646" lon="-1.76168">
        <ele>80</ele>
        <time>2020-12-29T14:08:59.000Z</time>
      </trkpt>
      <trkpt lat="47.0666" lon="-1.76162">
        <ele>80</ele>
        <time>2020-12-29T14:09:01.000Z</time>
      </trkpt>
      <trkpt lat="47.06676" lon="-1.76155">
        <ele>79</ele>
        <time>2020-12-29T14:09:03.000Z</time>
      </trkpt>
      <trkpt lat="47.06691" lon="-1.76148">
        <ele>78</ele>
        <time>2020-12-29T14:09:05.000Z</time>
      </trkpt>
      <trkpt lat="47.06708" lon="-1.76141">
        <ele>78</ele>
        <time>2020-12-29T14:09:07.000Z</time>
      </trkpt>
      <trkpt lat="47.06724" lon="-1.76133">
        <ele>77</ele>
        <time>2020-12-29T14:09:09.000Z</time>
      </trkpt>
      <trkpt lat="47.06741" lon="-1.76125">
        <ele>77</ele>
        <time>2020-12-29T14:09:11.000Z</time>
      </trkpt>
      <trkpt lat="47.06757" lon="-1.76118">
        <ele>76</ele>
        <time>2020-12-29T14:09:13.000Z</time>
      </trkpt>
      <trkpt lat="47.06766" lon="-1.76115">
        <ele>76</ele>
        <time>2020-12-29T14:09:14.000Z</time>
      </trkpt>
      <trkpt lat="47.06783" lon="-1.76107">
        <ele>75</ele>
        <time>2020-12-29T14:09:16.000Z</time>
      </trkpt>
      <trkpt lat="47.06792" lon="-1.76103">
        <ele>75</ele>
        <time>2020-12-29T14:09:17.000Z</time>
      </trkpt>
      <trkpt lat="47.06801" lon="-1.76099">
        <ele>75</ele>
        <time>2020-12-29T14:09:18.000Z</time>
      </trkpt>
      <trkpt lat="47.06818" lon="-1.76091">
        <ele>74</ele>
        <time>2020-12-29T14:09:20.000Z</time>
      </trkpt>
      <trkpt lat="47.06827" lon="-1.76087">
        <ele>74</ele>
        <time>2020-12-29T14:09:21.000Z</time>
      </trkpt>
      <trkpt lat="47.06844" lon="-1.7608">
        <ele>73</ele>
        <time>2020-12-29T14:09:23.000Z</time>
      </trkpt>
      <trkpt lat="47.06861" lon="-1.76072">
        <ele>72</ele>
        <time>2020-12-29T14:09:25.000Z</time>
      </trkpt>
      <trkpt lat="47.06878" lon="-1.76064">
        <ele>72</ele>
        <time>2020-12-29T14:09:27.000Z</time>
      </trkpt>
      <trkpt lat="47.06886" lon="-1.7606">
        <ele>72</ele>
        <time>2020-12-29T14:09:28.000Z</time>
      </trkpt>
      <trkpt lat="47.06895" lon="-1.76055">
        <ele>72</ele>
        <time>2020-12-29T14:09:29.000Z</time>
      </trkpt>
      <trkpt lat="47.06911" lon="-1.76045">
        <ele>72</ele>
        <time>2020-12-29T14:09:31.000Z</time>
      </trkpt>
      <trkpt lat="47.06927" lon="-1.76033">
        <ele>71</ele>
        <time>2020-12-29T14:09:33.000Z</time>
      </trkpt>
      <trkpt lat="47.06941" lon="-1.7602">
        <ele>71</ele>
        <time>2020-12-29T14:09:35.000Z</time>
      </trkpt>
      <trkpt lat="47.06955" lon="-1.76005">
        <ele>70</ele>
        <time>2020-12-29T14:09:37.000Z</time>
      </trkpt>
      <trkpt lat="47.06969" lon="-1.75989">
        <ele>70</ele>
        <time>2020-12-29T14:09:39.000Z</time>
      </trkpt>
      <trkpt lat="47.06976" lon="-1.75981">
        <ele>71</ele>
        <time>2020-12-29T14:09:40.000Z</time>
      </trkpt>
      <trkpt lat="47.06989" lon="-1.75965">
        <ele>71</ele>
        <time>2020-12-29T14:09:42.000Z</time>
      </trkpt>
      <trkpt lat="47.07003" lon="-1.75949">
        <ele>71</ele>
        <time>2020-12-29T14:09:44.000Z</time>
      </trkpt>
      <trkpt lat="47.07016" lon="-1.75934">
        <ele>71</ele>
        <time>2020-12-29T14:09:46.000Z</time>
      </trkpt>
      <trkpt lat="47.0703" lon="-1.75919">
        <ele>71</ele>
        <time>2020-12-29T14:09:48.000Z</time>
      </trkpt>
      <trkpt lat="47.07042" lon="-1.75903">
        <ele>73</ele>
        <time>2020-12-29T14:09:50.000Z</time>
      </trkpt>
      <trkpt lat="47.07055" lon="-1.75887">
        <ele>73</ele>
        <time>2020-12-29T14:09:52.000Z</time>
      </trkpt>
      <trkpt lat="47.07068" lon="-1.75871">
        <ele>72</ele>
        <time>2020-12-29T14:09:54.000Z</time>
      </trkpt>
      <trkpt lat="47.07081" lon="-1.75855">
        <ele>70</ele>
        <time>2020-12-29T14:09:56.000Z</time>
      </trkpt>
      <trkpt lat="47.07094" lon="-1.7584">
        <ele>70</ele>
        <time>2020-12-29T14:09:58.000Z</time>
      </trkpt>
      <trkpt lat="47.07107" lon="-1.75825">
        <ele>70</ele>
        <time>2020-12-29T14:10:00.000Z</time>
      </trkpt>
      <trkpt lat="47.0712" lon="-1.7581">
        <ele>70</ele>
        <time>2020-12-29T14:10:02.000Z</time>
      </trkpt>
      <trkpt lat="47.07134" lon="-1.75796">
        <ele>69</ele>
        <time>2020-12-29T14:10:04.000Z</time>
      </trkpt>
      <trkpt lat="47.07147" lon="-1.75781">
        <ele>69</ele>
        <time>2020-12-29T14:10:06.000Z</time>
      </trkpt>
      <trkpt lat="47.07159" lon="-1.75766">
        <ele>68</ele>
        <time>2020-12-29T14:10:08.000Z</time>
      </trkpt>
      <trkpt lat="47.07172" lon="-1.75752">
        <ele>68</ele>
        <time>2020-12-29T14:10:10.000Z</time>
      </trkpt>
      <trkpt lat="47.07186" lon="-1.75737">
        <ele>67</ele>
        <time>2020-12-29T14:10:12.000Z</time>
      </trkpt>
      <trkpt lat="47.07199" lon="-1.75721">
        <ele>66</ele>
        <time>2020-12-29T14:10:14.000Z</time>
      </trkpt>
      <trkpt lat="47.07212" lon="-1.75707">
        <ele>65</ele>
        <time>2020-12-29T14:10:16.000Z</time>
      </trkpt>
      <trkpt lat="47.07225" lon="-1.75691">
        <ele>65</ele>
        <time>2020-12-29T14:10:18.000Z</time>
      </trkpt>
      <trkpt lat="47.07237" lon="-1.75677">
        <ele>65</ele>
        <time>2020-12-29T14:10:20.000Z</time>
      </trkpt>
      <trkpt lat="47.0725" lon="-1.75662">
        <ele>65</ele>
        <time>2020-12-29T14:10:22.000Z</time>
      </trkpt>
      <trkpt lat="47.07263" lon="-1.75648">
        <ele>65</ele>
        <time>2020-12-29T14:10:24.000Z</time>
      </trkpt>
      <trkpt lat="47.07277" lon="-1.75635">
        <ele>65</ele>
        <time>2020-12-29T14:10:26.000Z</time>
      </trkpt>
      <trkpt lat="47.07291" lon="-1.75625">
        <ele>66</ele>
        <time>2020-12-29T14:10:28.000Z</time>
      </trkpt>
      <trkpt lat="47.07305" lon="-1.75617">
        <ele>66</ele>
        <time>2020-12-29T14:10:30.000Z</time>
      </trkpt>
      <trkpt lat="47.0732" lon="-1.75609">
        <ele>66</ele>
        <time>2020-12-29T14:10:32.000Z</time>
      </trkpt>
      <trkpt lat="47.07334" lon="-1.75604">
        <ele>66</ele>
        <time>2020-12-29T14:10:34.000Z</time>
      </trkpt>
      <trkpt lat="47.07349" lon="-1.75597">
        <ele>65</ele>
        <time>2020-12-29T14:10:36.000Z</time>
      </trkpt>
      <trkpt lat="47.07364" lon="-1.75591">
        <ele>65</ele>
        <time>2020-12-29T14:10:38.000Z</time>
      </trkpt>
      <trkpt lat="47.07378" lon="-1.75585">
        <ele>65</ele>
        <time>2020-12-29T14:10:40.000Z</time>
      </trkpt>
      <trkpt lat="47.07393" lon="-1.7558">
        <ele>65</ele>
        <time>2020-12-29T14:10:42.000Z</time>
      </trkpt>
      <trkpt lat="47.07409" lon="-1.75574">
        <ele>64</ele>
        <time>2020-12-29T14:10:44.000Z</time>
      </trkpt>
      <trkpt lat="47.07425" lon="-1.75568">
        <ele>64</ele>
        <time>2020-12-29T14:10:46.000Z</time>
      </trkpt>
      <trkpt lat="47.07441" lon="-1.75562">
        <ele>63</ele>
        <time>2020-12-29T14:10:48.000Z</time>
      </trkpt>
      <trkpt lat="47.07457" lon="-1.75556">
        <ele>62</ele>
        <time>2020-12-29T14:10:50.000Z</time>
      </trkpt>
      <trkpt lat="47.07472" lon="-1.7555">
        <ele>62</ele>
        <time>2020-12-29T14:10:52.000Z</time>
      </trkpt>
      <trkpt lat="47.07488" lon="-1.75544">
        <ele>61</ele>
        <time>2020-12-29T14:10:54.000Z</time>
      </trkpt>
      <trkpt lat="47.07504" lon="-1.75538">
        <ele>61</ele>
        <time>2020-12-29T14:10:56.000Z</time>
      </trkpt>
      <trkpt lat="47.0752" lon="-1.75533">
        <ele>60</ele>
        <time>2020-12-29T14:10:58.000Z</time>
      </trkpt>
      <trkpt lat="47.07535" lon="-1.75526">
        <ele>60</ele>
        <time>2020-12-29T14:11:00.000Z</time>
      </trkpt>
      <trkpt lat="47.07551" lon="-1.7552">
        <ele>60</ele>
        <time>2020-12-29T14:11:02.000Z</time>
      </trkpt>
      <trkpt lat="47.07567" lon="-1.75514">
        <ele>60</ele>
        <time>2020-12-29T14:11:04.000Z</time>
      </trkpt>
      <trkpt lat="47.07583" lon="-1.75507">
        <ele>59</ele>
        <time>2020-12-29T14:11:06.000Z</time>
      </trkpt>
      <trkpt lat="47.07598" lon="-1.75501">
        <ele>59</ele>
        <time>2020-12-29T14:11:08.000Z</time>
      </trkpt>
      <trkpt lat="47.07613" lon="-1.75495">
        <ele>59</ele>
        <time>2020-12-29T14:11:10.000Z</time>
      </trkpt>
      <trkpt lat="47.07628" lon="-1.75489">
        <ele>59</ele>
        <time>2020-12-29T14:11:12.000Z</time>
      </trkpt>
      <trkpt lat="47.07644" lon="-1.75483">
        <ele>58</ele>
        <time>2020-12-29T14:11:14.000Z</time>
      </trkpt>
      <trkpt lat="47.0766" lon="-1.75478">
        <ele>57</ele>
        <time>2020-12-29T14:11:16.000Z</time>
      </trkpt>
      <trkpt lat="47.07675" lon="-1.75471">
        <ele>57</ele>
        <time>2020-12-29T14:11:18.000Z</time>
      </trkpt>
      <trkpt lat="47.0769" lon="-1.75466">
        <ele>56</ele>
        <time>2020-12-29T14:11:20.000Z</time>
      </trkpt>
      <trkpt lat="47.07705" lon="-1.7546">
        <ele>56</ele>
        <time>2020-12-29T14:11:22.000Z</time>
      </trkpt>
      <trkpt lat="47.0772" lon="-1.75454">
        <ele>56</ele>
        <time>2020-12-29T14:11:24.000Z</time>
      </trkpt>
      <trkpt lat="47.07735" lon="-1.75448">
        <ele>56</ele>
        <time>2020-12-29T14:11:26.000Z</time>
      </trkpt>
      <trkpt lat="47.07749" lon="-1.75443">
        <ele>55</ele>
        <time>2020-12-29T14:11:28.000Z</time>
      </trkpt>
      <trkpt lat="47.07764" lon="-1.75437">
        <ele>55</ele>
        <time>2020-12-29T14:11:30.000Z</time>
      </trkpt>
      <trkpt lat="47.07779" lon="-1.75432">
        <ele>54</ele>
        <time>2020-12-29T14:11:32.000Z</time>
      </trkpt>
      <trkpt lat="47.07793" lon="-1.75426">
        <ele>54</ele>
        <time>2020-12-29T14:11:34.000Z</time>
      </trkpt>
      <trkpt lat="47.07805" lon="-1.7542">
        <ele>54</ele>
        <time>2020-12-29T14:11:36.000Z</time>
      </trkpt>
      <trkpt lat="47.07809" lon="-1.75402">
        <ele>53</ele>
        <time>2020-12-29T14:11:38.000Z</time>
      </trkpt>
      <trkpt lat="47.07802" lon="-1.75384">
        <ele>53</ele>
        <time>2020-12-29T14:11:40.000Z</time>
      </trkpt>
      <trkpt lat="47.07793" lon="-1.75366">
        <ele>53</ele>
        <time>2020-12-29T14:11:42.000Z</time>
      </trkpt>
      <trkpt lat="47.07785" lon="-1.75348">
        <ele>53</ele>
        <time>2020-12-29T14:11:44.000Z</time>
      </trkpt>
      <trkpt lat="47.07776" lon="-1.75331">
        <ele>53</ele>
        <time>2020-12-29T14:11:46.000Z</time>
      </trkpt>
      <trkpt lat="47.07768" lon="-1.75312">
        <ele>54</ele>
        <time>2020-12-29T14:11:48.000Z</time>
      </trkpt>
      <trkpt lat="47.07759" lon="-1.75293">
        <ele>54</ele>
        <time>2020-12-29T14:11:50.000Z</time>
      </trkpt>
      <trkpt lat="47.07752" lon="-1.75275">
        <ele>54</ele>
        <time>2020-12-29T14:11:52.000Z</time>
      </trkpt>
      <trkpt lat="47.07744" lon="-1.75256">
        <ele>54</ele>
        <time>2020-12-29T14:11:54.000Z</time>
      </trkpt>
      <trkpt lat="47.07737" lon="-1.75236">
        <ele>54</ele>
        <time>2020-12-29T14:11:56.000Z</time>
      </trkpt>
      <trkpt lat="47.07731" lon="-1.75217">
        <ele>54</ele>
        <time>2020-12-29T14:11:58.000Z</time>
      </trkpt>
      <trkpt lat="47.07725" lon="-1.75198">
        <ele>55</ele>
        <time>2020-12-29T14:12:00.000Z</time>
      </trkpt>
      <trkpt lat="47.0772" lon="-1.75178">
        <ele>56</ele>
        <time>2020-12-29T14:12:02.000Z</time>
      </trkpt>
      <trkpt lat="47.07716" lon="-1.75158">
        <ele>56</ele>
        <time>2020-12-29T14:12:04.000Z</time>
      </trkpt>
      <trkpt lat="47.07712" lon="-1.75138">
        <ele>56</ele>
        <time>2020-12-29T14:12:06.000Z</time>
      </trkpt>
      <trkpt lat="47.07709" lon="-1.75119">
        <ele>56</ele>
        <time>2020-12-29T14:12:08.000Z</time>
      </trkpt>
      <trkpt lat="47.07708" lon="-1.75102">
        <ele>56</ele>
        <time>2020-12-29T14:12:10.000Z</time>
      </trkpt>
      <trkpt lat="47.07707" lon="-1.75083">
        <ele>55</ele>
        <time>2020-12-29T14:12:12.000Z</time>
      </trkpt>
      <trkpt lat="47.07709" lon="-1.75066">
        <ele>55</ele>
        <time>2020-12-29T14:12:14.000Z</time>
      </trkpt>
      <trkpt lat="47.07723" lon="-1.75058">
        <ele>54</ele>
        <time>2020-12-29T14:12:16.000Z</time>
      </trkpt>
      <trkpt lat="47.07739" lon="-1.75056">
        <ele>53</ele>
        <time>2020-12-29T14:12:18.000Z</time>
      </trkpt>
      <trkpt lat="47.07754" lon="-1.75055">
        <ele>53</ele>
        <time>2020-12-29T14:12:20.000Z</time>
      </trkpt>
      <trkpt lat="47.07769" lon="-1.75054">
        <ele>53</ele>
        <time>2020-12-29T14:12:22.000Z</time>
      </trkpt>
      <trkpt lat="47.07784" lon="-1.75054">
        <ele>53</ele>
        <time>2020-12-29T14:12:24.000Z</time>
      </trkpt>
      <trkpt lat="47.07799" lon="-1.75053">
        <ele>52</ele>
        <time>2020-12-29T14:12:26.000Z</time>
      </trkpt>
      <trkpt lat="47.07813" lon="-1.75053">
        <ele>52</ele>
        <time>2020-12-29T14:12:28.000Z</time>
      </trkpt>
      <trkpt lat="47.07828" lon="-1.75051">
        <ele>51</ele>
        <time>2020-12-29T14:12:30.000Z</time>
      </trkpt>
      <trkpt lat="47.07843" lon="-1.75047">
        <ele>51</ele>
        <time>2020-12-29T14:12:32.000Z</time>
      </trkpt>
      <trkpt lat="47.07856" lon="-1.75041">
        <ele>50</ele>
        <time>2020-12-29T14:12:34.000Z</time>
      </trkpt>
      <trkpt lat="47.0787" lon="-1.75033">
        <ele>50</ele>
        <time>2020-12-29T14:12:36.000Z</time>
      </trkpt>
      <trkpt lat="47.07883" lon="-1.75026">
        <ele>51</ele>
        <time>2020-12-29T14:12:38.000Z</time>
      </trkpt>
      <trkpt lat="47.07896" lon="-1.75018">
        <ele>50</ele>
        <time>2020-12-29T14:12:40.000Z</time>
      </trkpt>
      <trkpt lat="47.07909" lon="-1.75009">
        <ele>50</ele>
        <time>2020-12-29T14:12:42.000Z</time>
      </trkpt>
      <trkpt lat="47.07922" lon="-1.75">
        <ele>50</ele>
        <time>2020-12-29T14:12:44.000Z</time>
      </trkpt>
      <trkpt lat="47.07934" lon="-1.74992">
        <ele>51</ele>
        <time>2020-12-29T14:12:46.000Z</time>
      </trkpt>
      <trkpt lat="47.07946" lon="-1.74985">
        <ele>51</ele>
        <time>2020-12-29T14:12:48.000Z</time>
      </trkpt>
      <trkpt lat="47.0796" lon="-1.74977">
        <ele>51</ele>
        <time>2020-12-29T14:12:50.000Z</time>
      </trkpt>
      <trkpt lat="47.07975" lon="-1.74969">
        <ele>51</ele>
        <time>2020-12-29T14:12:52.000Z</time>
      </trkpt>
      <trkpt lat="47.07988" lon="-1.74961">
        <ele>51</ele>
        <time>2020-12-29T14:12:54.000Z</time>
      </trkpt>
      <trkpt lat="47.08001" lon="-1.74955">
        <ele>50</ele>
        <time>2020-12-29T14:12:56.000Z</time>
      </trkpt>
      <trkpt lat="47.08013" lon="-1.74947">
        <ele>50</ele>
        <time>2020-12-29T14:12:58.000Z</time>
      </trkpt>
      <trkpt lat="47.08025" lon="-1.7494">
        <ele>51</ele>
        <time>2020-12-29T14:13:00.000Z</time>
      </trkpt>
      <trkpt lat="47.08035" lon="-1.74932">
        <ele>51</ele>
        <time>2020-12-29T14:13:02.000Z</time>
      </trkpt>
      <trkpt lat="47.08046" lon="-1.74922">
        <ele>51</ele>
        <time>2020-12-29T14:13:04.000Z</time>
      </trkpt>
      <trkpt lat="47.08057" lon="-1.74909">
        <ele>50</ele>
        <time>2020-12-29T14:13:06.000Z</time>
      </trkpt>
      <trkpt lat="47.08069" lon="-1.74897">
        <ele>50</ele>
        <time>2020-12-29T14:13:08.000Z</time>
      </trkpt>
      <trkpt lat="47.08084" lon="-1.74886">
        <ele>50</ele>
        <time>2020-12-29T14:13:10.000Z</time>
      </trkpt>
      <trkpt lat="47.08099" lon="-1.74879">
        <ele>51</ele>
        <time>2020-12-29T14:13:12.000Z</time>
      </trkpt>
      <trkpt lat="47.08115" lon="-1.74875">
        <ele>50</ele>
        <time>2020-12-29T14:13:14.000Z</time>
      </trkpt>
      <trkpt lat="47.08127" lon="-1.74873">
        <ele>50</ele>
        <time>2020-12-29T14:13:16.000Z</time>
      </trkpt>
      <trkpt lat="47.08139" lon="-1.74866">
        <ele>49</ele>
        <time>2020-12-29T14:13:18.000Z</time>
      </trkpt>
      <trkpt lat="47.08152" lon="-1.74859">
        <ele>50</ele>
        <time>2020-12-29T14:13:20.000Z</time>
      </trkpt>
      <trkpt lat="47.08165" lon="-1.7485">
        <ele>50</ele>
        <time>2020-12-29T14:13:22.000Z</time>
      </trkpt>
      <trkpt lat="47.08178" lon="-1.74838">
        <ele>50</ele>
        <time>2020-12-29T14:13:24.000Z</time>
      </trkpt>
      <trkpt lat="47.08189" lon="-1.74824">
        <ele>49</ele>
        <time>2020-12-29T14:13:26.000Z</time>
      </trkpt>
      <trkpt lat="47.08196" lon="-1.74806">
        <ele>49</ele>
        <time>2020-12-29T14:13:28.000Z</time>
      </trkpt>
      <trkpt lat="47.08199" lon="-1.74786">
        <ele>47</ele>
        <time>2020-12-29T14:13:30.000Z</time>
      </trkpt>
      <trkpt lat="47.08203" lon="-1.74766">
        <ele>47</ele>
        <time>2020-12-29T14:13:32.000Z</time>
      </trkpt>
      <trkpt lat="47.08206" lon="-1.74745">
        <ele>47</ele>
        <time>2020-12-29T14:13:34.000Z</time>
      </trkpt>
      <trkpt lat="47.08212" lon="-1.74726">
        <ele>48</ele>
        <time>2020-12-29T14:13:36.000Z</time>
      </trkpt>
      <trkpt lat="47.08221" lon="-1.74709">
        <ele>48</ele>
        <time>2020-12-29T14:13:38.000Z</time>
      </trkpt>
      <trkpt lat="47.08231" lon="-1.74694">
        <ele>49</ele>
        <time>2020-12-29T14:13:40.000Z</time>
      </trkpt>
      <trkpt lat="47.08241" lon="-1.74679">
        <ele>49</ele>
        <time>2020-12-29T14:13:42.000Z</time>
      </trkpt>
      <trkpt lat="47.08251" lon="-1.74663">
        <ele>49</ele>
        <time>2020-12-29T14:13:44.000Z</time>
      </trkpt>
      <trkpt lat="47.08262" lon="-1.74648">
        <ele>49</ele>
        <time>2020-12-29T14:13:46.000Z</time>
      </trkpt>
      <trkpt lat="47.08272" lon="-1.74634">
        <ele>49</ele>
        <time>2020-12-29T14:13:48.000Z</time>
      </trkpt>
      <trkpt lat="47.08282" lon="-1.74619">
        <ele>49</ele>
        <time>2020-12-29T14:13:50.000Z</time>
      </trkpt>
      <trkpt lat="47.08292" lon="-1.74605">
        <ele>49</ele>
        <time>2020-12-29T14:13:52.000Z</time>
      </trkpt>
      <trkpt lat="47.08303" lon="-1.74592">
        <ele>50</ele>
        <time>2020-12-29T14:13:54.000Z</time>
      </trkpt>
      <trkpt lat="47.08315" lon="-1.74581">
        <ele>51</ele>
        <time>2020-12-29T14:13:56.000Z</time>
      </trkpt>
      <trkpt lat="47.08328" lon="-1.74573">
        <ele>51</ele>
        <time>2020-12-29T14:13:58.000Z</time>
      </trkpt>
      <trkpt lat="47.08342" lon="-1.74567">
        <ele>51</ele>
        <time>2020-12-29T14:14:00.000Z</time>
      </trkpt>
      <trkpt lat="47.08355" lon="-1.74561">
        <ele>50</ele>
        <time>2020-12-29T14:14:02.000Z</time>
      </trkpt>
      <trkpt lat="47.08365" lon="-1.74554">
        <ele>50</ele>
        <time>2020-12-29T14:14:04.000Z</time>
      </trkpt>
      <trkpt lat="47.08375" lon="-1.74542">
        <ele>50</ele>
        <time>2020-12-29T14:14:06.000Z</time>
      </trkpt>
      <trkpt lat="47.08387" lon="-1.74529">
        <ele>50</ele>
        <time>2020-12-29T14:14:08.000Z</time>
      </trkpt>
      <trkpt lat="47.084" lon="-1.74515">
        <ele>50</ele>
        <time>2020-12-29T14:14:10.000Z</time>
      </trkpt>
      <trkpt lat="47.08413" lon="-1.74502">
        <ele>50</ele>
        <time>2020-12-29T14:14:12.000Z</time>
      </trkpt>
      <trkpt lat="47.08425" lon="-1.74488">
        <ele>50</ele>
        <time>2020-12-29T14:14:14.000Z</time>
      </trkpt>
      <trkpt lat="47.08437" lon="-1.74475">
        <ele>50</ele>
        <time>2020-12-29T14:14:16.000Z</time>
      </trkpt>
      <trkpt lat="47.08448" lon="-1.74462">
        <ele>50</ele>
        <time>2020-12-29T14:14:18.000Z</time>
      </trkpt>
      <trkpt lat="47.08458" lon="-1.74449">
        <ele>50</ele>
        <time>2020-12-29T14:14:20.000Z</time>
      </trkpt>
      <trkpt lat="47.08469" lon="-1.74437">
        <ele>50</ele>
        <time>2020-12-29T14:14:22.000Z</time>
      </trkpt>
      <trkpt lat="47.08478" lon="-1.74425">
        <ele>50</ele>
        <time>2020-12-29T14:14:24.000Z</time>
      </trkpt>
      <trkpt lat="47.08487" lon="-1.74412">
        <ele>50</ele>
        <time>2020-12-29T14:14:26.000Z</time>
      </trkpt>
      <trkpt lat="47.08496" lon="-1.74401">
        <ele>50</ele>
        <time>2020-12-29T14:14:28.000Z</time>
      </trkpt>
      <trkpt lat="47.08507" lon="-1.74389">
        <ele>51</ele>
        <time>2020-12-29T14:14:30.000Z</time>
      </trkpt>
      <trkpt lat="47.08517" lon="-1.74376">
        <ele>51</ele>
        <time>2020-12-29T14:14:32.000Z</time>
      </trkpt>
      <trkpt lat="47.08525" lon="-1.74361">
        <ele>50</ele>
        <time>2020-12-29T14:14:34.000Z</time>
      </trkpt>
      <trkpt lat="47.0853" lon="-1.74343">
        <ele>50</ele>
        <time>2020-12-29T14:14:36.000Z</time>
      </trkpt>
      <trkpt lat="47.08531" lon="-1.74327">
        <ele>50</ele>
        <time>2020-12-29T14:14:38.000Z</time>
      </trkpt>
      <trkpt lat="47.08532" lon="-1.74311">
        <ele>50</ele>
        <time>2020-12-29T14:14:40.000Z</time>
      </trkpt>
      <trkpt lat="47.08538" lon="-1.74294">
        <ele>51</ele>
        <time>2020-12-29T14:14:42.000Z</time>
      </trkpt>
      <trkpt lat="47.08547" lon="-1.74277">
        <ele>51</ele>
        <time>2020-12-29T14:14:44.000Z</time>
      </trkpt>
      <trkpt lat="47.08557" lon="-1.74262">
        <ele>51</ele>
        <time>2020-12-29T14:14:46.000Z</time>
      </trkpt>
      <trkpt lat="47.08567" lon="-1.74248">
        <ele>50</ele>
        <time>2020-12-29T14:14:48.000Z</time>
      </trkpt>
      <trkpt lat="47.08578" lon="-1.74234">
        <ele>50</ele>
        <time>2020-12-29T14:14:50.000Z</time>
      </trkpt>
      <trkpt lat="47.0859" lon="-1.74221">
        <ele>50</ele>
        <time>2020-12-29T14:14:52.000Z</time>
      </trkpt>
      <trkpt lat="47.08604" lon="-1.74207">
        <ele>51</ele>
        <time>2020-12-29T14:14:54.000Z</time>
      </trkpt>
      <trkpt lat="47.08617" lon="-1.74194">
        <ele>51</ele>
        <time>2020-12-29T14:14:56.000Z</time>
      </trkpt>
      <trkpt lat="47.08628" lon="-1.74181">
        <ele>51</ele>
        <time>2020-12-29T14:14:58.000Z</time>
      </trkpt>
      <trkpt lat="47.08639" lon="-1.74168">
        <ele>51</ele>
        <time>2020-12-29T14:15:00.000Z</time>
      </trkpt>
      <trkpt lat="47.08649" lon="-1.74154">
        <ele>52</ele>
        <time>2020-12-29T14:15:02.000Z</time>
      </trkpt>
      <trkpt lat="47.08658" lon="-1.7414">
        <ele>52</ele>
        <time>2020-12-29T14:15:04.000Z</time>
      </trkpt>
      <trkpt lat="47.08666" lon="-1.74123">
        <ele>52</ele>
        <time>2020-12-29T14:15:06.000Z</time>
      </trkpt>
      <trkpt lat="47.08673" lon="-1.74106">
        <ele>52</ele>
        <time>2020-12-29T14:15:08.000Z</time>
      </trkpt>
      <trkpt lat="47.0868" lon="-1.74089">
        <ele>52</ele>
        <time>2020-12-29T14:15:10.000Z</time>
      </trkpt>
      <trkpt lat="47.08687" lon="-1.74071">
        <ele>51</ele>
        <time>2020-12-29T14:15:12.000Z</time>
      </trkpt>
      <trkpt lat="47.08694" lon="-1.74053">
        <ele>51</ele>
        <time>2020-12-29T14:15:14.000Z</time>
      </trkpt>
      <trkpt lat="47.08701" lon="-1.74035">
        <ele>51</ele>
        <time>2020-12-29T14:15:16.000Z</time>
      </trkpt>
      <trkpt lat="47.08709" lon="-1.74016">
        <ele>51</ele>
        <time>2020-12-29T14:15:18.000Z</time>
      </trkpt>
      <trkpt lat="47.08717" lon="-1.73999">
        <ele>51</ele>
        <time>2020-12-29T14:15:20.000Z</time>
      </trkpt>
      <trkpt lat="47.08725" lon="-1.73982">
        <ele>51</ele>
        <time>2020-12-29T14:15:22.000Z</time>
      </trkpt>
      <trkpt lat="47.08732" lon="-1.73965">
        <ele>51</ele>
        <time>2020-12-29T14:15:24.000Z</time>
      </trkpt>
      <trkpt lat="47.08738" lon="-1.73949">
        <ele>51</ele>
        <time>2020-12-29T14:15:26.000Z</time>
      </trkpt>
      <trkpt lat="47.08746" lon="-1.73933">
        <ele>51</ele>
        <time>2020-12-29T14:15:28.000Z</time>
      </trkpt>
      <trkpt lat="47.08756" lon="-1.73915">
        <ele>50</ele>
        <time>2020-12-29T14:15:30.000Z</time>
      </trkpt>
      <trkpt lat="47.08765" lon="-1.73898">
        <ele>51</ele>
        <time>2020-12-29T14:15:32.000Z</time>
      </trkpt>
      <trkpt lat="47.08774" lon="-1.73881">
        <ele>50</ele>
        <time>2020-12-29T14:15:34.000Z</time>
      </trkpt>
      <trkpt lat="47.08783" lon="-1.73864">
        <ele>51</ele>
        <time>2020-12-29T14:15:36.000Z</time>
      </trkpt>
      <trkpt lat="47.08793" lon="-1.73849">
        <ele>51</ele>
        <time>2020-12-29T14:15:38.000Z</time>
      </trkpt>
      <trkpt lat="47.08804" lon="-1.73836">
        <ele>51</ele>
        <time>2020-12-29T14:15:40.000Z</time>
      </trkpt>
      <trkpt lat="47.08813" lon="-1.73823">
        <ele>50</ele>
        <time>2020-12-29T14:15:42.000Z</time>
      </trkpt>
      <trkpt lat="47.08824" lon="-1.7381">
        <ele>50</ele>
        <time>2020-12-29T14:15:44.000Z</time>
      </trkpt>
      <trkpt lat="47.08835" lon="-1.73797">
        <ele>50</ele>
        <time>2020-12-29T14:15:46.000Z</time>
      </trkpt>
      <trkpt lat="47.08846" lon="-1.73783">
        <ele>50</ele>
        <time>2020-12-29T14:15:48.000Z</time>
      </trkpt>
      <trkpt lat="47.08856" lon="-1.73768">
        <ele>49</ele>
        <time>2020-12-29T14:15:50.000Z</time>
      </trkpt>
      <trkpt lat="47.08865" lon="-1.73753">
        <ele>49</ele>
        <time>2020-12-29T14:15:52.000Z</time>
      </trkpt>
      <trkpt lat="47.08873" lon="-1.73737">
        <ele>49</ele>
        <time>2020-12-29T14:15:54.000Z</time>
      </trkpt>
      <trkpt lat="47.08881" lon="-1.73721">
        <ele>48</ele>
        <time>2020-12-29T14:15:56.000Z</time>
      </trkpt>
      <trkpt lat="47.08889" lon="-1.73705">
        <ele>48</ele>
        <time>2020-12-29T14:15:58.000Z</time>
      </trkpt>
      <trkpt lat="47.08896" lon="-1.73689">
        <ele>48</ele>
        <time>2020-12-29T14:16:00.000Z</time>
      </trkpt>
      <trkpt lat="47.08904" lon="-1.73673">
        <ele>48</ele>
        <time>2020-12-29T14:16:02.000Z</time>
      </trkpt>
      <trkpt lat="47.0891" lon="-1.73657">
        <ele>48</ele>
        <time>2020-12-29T14:16:04.000Z</time>
      </trkpt>
      <trkpt lat="47.08914" lon="-1.73638">
        <ele>48</ele>
        <time>2020-12-29T14:16:06.000Z</time>
      </trkpt>
      <trkpt lat="47.08917" lon="-1.73618">
        <ele>49</ele>
        <time>2020-12-29T14:16:08.000Z</time>
      </trkpt>
      <trkpt lat="47.0892" lon="-1.73598">
        <ele>49</ele>
        <time>2020-12-29T14:16:10.000Z</time>
      </trkpt>
      <trkpt lat="47.08922" lon="-1.73579">
        <ele>49</ele>
        <time>2020-12-29T14:16:12.000Z</time>
      </trkpt>
      <trkpt lat="47.08926" lon="-1.73559">
        <ele>49</ele>
        <time>2020-12-29T14:16:14.000Z</time>
      </trkpt>
      <trkpt lat="47.08931" lon="-1.73539">
        <ele>49</ele>
        <time>2020-12-29T14:16:16.000Z</time>
      </trkpt>
      <trkpt lat="47.08936" lon="-1.73519">
        <ele>49</ele>
        <time>2020-12-29T14:16:18.000Z</time>
      </trkpt>
      <trkpt lat="47.0894" lon="-1.735">
        <ele>49</ele>
        <time>2020-12-29T14:16:20.000Z</time>
      </trkpt>
      <trkpt lat="47.08946" lon="-1.73481">
        <ele>49</ele>
        <time>2020-12-29T14:16:22.000Z</time>
      </trkpt>
      <trkpt lat="47.08953" lon="-1.73462">
        <ele>50</ele>
        <time>2020-12-29T14:16:24.000Z</time>
      </trkpt>
      <trkpt lat="47.08961" lon="-1.73447">
        <ele>50</ele>
        <time>2020-12-29T14:16:26.000Z</time>
      </trkpt>
      <trkpt lat="47.08971" lon="-1.73431">
        <ele>50</ele>
        <time>2020-12-29T14:16:28.000Z</time>
      </trkpt>
      <trkpt lat="47.0898" lon="-1.73419">
        <ele>50</ele>
        <time>2020-12-29T14:16:30.000Z</time>
      </trkpt>
      <trkpt lat="47.08992" lon="-1.73407">
        <ele>50</ele>
        <time>2020-12-29T14:16:32.000Z</time>
      </trkpt>
      <trkpt lat="47.09003" lon="-1.73396">
        <ele>49</ele>
        <time>2020-12-29T14:16:34.000Z</time>
      </trkpt>
      <trkpt lat="47.09015" lon="-1.73385">
        <ele>50</ele>
        <time>2020-12-29T14:16:36.000Z</time>
      </trkpt>
      <trkpt lat="47.09026" lon="-1.73375">
        <ele>50</ele>
        <time>2020-12-29T14:16:38.000Z</time>
      </trkpt>
      <trkpt lat="47.09036" lon="-1.73365">
        <ele>50</ele>
        <time>2020-12-29T14:16:40.000Z</time>
      </trkpt>
      <trkpt lat="47.09047" lon="-1.73355">
        <ele>49</ele>
        <time>2020-12-29T14:16:42.000Z</time>
      </trkpt>
      <trkpt lat="47.09057" lon="-1.73345">
        <ele>49</ele>
        <time>2020-12-29T14:16:44.000Z</time>
      </trkpt>
      <trkpt lat="47.09067" lon="-1.73335">
        <ele>49</ele>
        <time>2020-12-29T14:16:46.000Z</time>
      </trkpt>
      <trkpt lat="47.0908" lon="-1.73324">
        <ele>48</ele>
        <time>2020-12-29T14:16:48.000Z</time>
      </trkpt>
      <trkpt lat="47.09094" lon="-1.73313">
        <ele>50</ele>
        <time>2020-12-29T14:16:50.000Z</time>
      </trkpt>
      <trkpt lat="47.09108" lon="-1.73302">
        <ele>51</ele>
        <time>2020-12-29T14:16:52.000Z</time>
      </trkpt>
      <trkpt lat="47.09123" lon="-1.73292">
        <ele>51</ele>
        <time>2020-12-29T14:16:54.000Z</time>
      </trkpt>
      <trkpt lat="47.09136" lon="-1.73281">
        <ele>51</ele>
        <time>2020-12-29T14:16:56.000Z</time>
      </trkpt>
      <trkpt lat="47.09148" lon="-1.73272">
        <ele>51</ele>
        <time>2020-12-29T14:16:58.000Z</time>
      </trkpt>
      <trkpt lat="47.09161" lon="-1.73263">
        <ele>51</ele>
        <time>2020-12-29T14:17:00.000Z</time>
      </trkpt>
      <trkpt lat="47.09173" lon="-1.73253">
        <ele>50</ele>
        <time>2020-12-29T14:17:02.000Z</time>
      </trkpt>
      <trkpt lat="47.09185" lon="-1.73245">
        <ele>51</ele>
        <time>2020-12-29T14:17:04.000Z</time>
      </trkpt>
      <trkpt lat="47.09196" lon="-1.73236">
        <ele>51</ele>
        <time>2020-12-29T14:17:06.000Z</time>
      </trkpt>
      <trkpt lat="47.09208" lon="-1.73227">
        <ele>51</ele>
        <time>2020-12-29T14:17:08.000Z</time>
      </trkpt>
      <trkpt lat="47.0922" lon="-1.73218">
        <ele>51</ele>
        <time>2020-12-29T14:17:10.000Z</time>
      </trkpt>
      <trkpt lat="47.0923" lon="-1.73208">
        <ele>51</ele>
        <time>2020-12-29T14:17:12.000Z</time>
      </trkpt>
      <trkpt lat="47.09241" lon="-1.73199">
        <ele>51</ele>
        <time>2020-12-29T14:17:14.000Z</time>
      </trkpt>
      <trkpt lat="47.09252" lon="-1.7319">
        <ele>51</ele>
        <time>2020-12-29T14:17:16.000Z</time>
      </trkpt>
      <trkpt lat="47.09262" lon="-1.73181">
        <ele>51</ele>
        <time>2020-12-29T14:17:18.000Z</time>
      </trkpt>
      <trkpt lat="47.09273" lon="-1.73172">
        <ele>51</ele>
        <time>2020-12-29T14:17:20.000Z</time>
      </trkpt>
      <trkpt lat="47.09284" lon="-1.73163">
        <ele>51</ele>
        <time>2020-12-29T14:17:22.000Z</time>
      </trkpt>
      <trkpt lat="47.09297" lon="-1.73154">
        <ele>51</ele>
        <time>2020-12-29T14:17:24.000Z</time>
      </trkpt>
      <trkpt lat="47.09309" lon="-1.73144">
        <ele>50</ele>
        <time>2020-12-29T14:17:26.000Z</time>
      </trkpt>
      <trkpt lat="47.09323" lon="-1.73134">
        <ele>50</ele>
        <time>2020-12-29T14:17:28.000Z</time>
      </trkpt>
      <trkpt lat="47.09335" lon="-1.73125">
        <ele>51</ele>
        <time>2020-12-29T14:17:30.000Z</time>
      </trkpt>
      <trkpt lat="47.09346" lon="-1.73115">
        <ele>51</ele>
        <time>2020-12-29T14:17:32.000Z</time>
      </trkpt>
      <trkpt lat="47.09357" lon="-1.73107">
        <ele>51</ele>
        <time>2020-12-29T14:17:34.000Z</time>
      </trkpt>
      <trkpt lat="47.09368" lon="-1.73096">
        <ele>50</ele>
        <time>2020-12-29T14:17:36.000Z</time>
      </trkpt>
      <trkpt lat="47.09376" lon="-1.73084">
        <ele>50</ele>
        <time>2020-12-29T14:17:38.000Z</time>
      </trkpt>
      <trkpt lat="47.0938" lon="-1.73068">
        <ele>50</ele>
        <time>2020-12-29T14:17:40.000Z</time>
      </trkpt>
      <trkpt lat="47.09382" lon="-1.73048">
        <ele>50</ele>
        <time>2020-12-29T14:17:42.000Z</time>
      </trkpt>
      <trkpt lat="47.09385" lon="-1.73027">
        <ele>50</ele>
        <time>2020-12-29T14:17:44.000Z</time>
      </trkpt>
      <trkpt lat="47.09387" lon="-1.73006">
        <ele>51</ele>
        <time>2020-12-29T14:17:46.000Z</time>
      </trkpt>
      <trkpt lat="47.09389" lon="-1.72985">
        <ele>52</ele>
        <time>2020-12-29T14:17:48.000Z</time>
      </trkpt>
      <trkpt lat="47.09393" lon="-1.72966">
        <ele>52</ele>
        <time>2020-12-29T14:17:50.000Z</time>
      </trkpt>
      <trkpt lat="47.09399" lon="-1.72948">
        <ele>52</ele>
        <time>2020-12-29T14:17:52.000Z</time>
      </trkpt>
      <trkpt lat="47.09407" lon="-1.72933">
        <ele>51</ele>
        <time>2020-12-29T14:17:54.000Z</time>
      </trkpt>
      <trkpt lat="47.09414" lon="-1.72917">
        <ele>52</ele>
        <time>2020-12-29T14:17:56.000Z</time>
      </trkpt>
      <trkpt lat="47.09421" lon="-1.72903">
        <ele>52</ele>
        <time>2020-12-29T14:17:58.000Z</time>
      </trkpt>
      <trkpt lat="47.09428" lon="-1.72887">
        <ele>52</ele>
        <time>2020-12-29T14:18:00.000Z</time>
      </trkpt>
      <trkpt lat="47.09436" lon="-1.72871">
        <ele>53</ele>
        <time>2020-12-29T14:18:02.000Z</time>
      </trkpt>
      <trkpt lat="47.09443" lon="-1.72856">
        <ele>53</ele>
        <time>2020-12-29T14:18:04.000Z</time>
      </trkpt>
      <trkpt lat="47.09451" lon="-1.72841">
        <ele>52</ele>
        <time>2020-12-29T14:18:06.000Z</time>
      </trkpt>
      <trkpt lat="47.09459" lon="-1.72826">
        <ele>52</ele>
        <time>2020-12-29T14:18:08.000Z</time>
      </trkpt>
      <trkpt lat="47.09465" lon="-1.7281">
        <ele>52</ele>
        <time>2020-12-29T14:18:10.000Z</time>
      </trkpt>
      <trkpt lat="47.09472" lon="-1.72796">
        <ele>52</ele>
        <time>2020-12-29T14:18:12.000Z</time>
      </trkpt>
      <trkpt lat="47.0948" lon="-1.7278">
        <ele>51</ele>
        <time>2020-12-29T14:18:14.000Z</time>
      </trkpt>
      <trkpt lat="47.09488" lon="-1.72765">
        <ele>51</ele>
        <time>2020-12-29T14:18:16.000Z</time>
      </trkpt>
      <trkpt lat="47.09495" lon="-1.7275">
        <ele>51</ele>
        <time>2020-12-29T14:18:18.000Z</time>
      </trkpt>
      <trkpt lat="47.09503" lon="-1.72734">
        <ele>52</ele>
        <time>2020-12-29T14:18:20.000Z</time>
      </trkpt>
      <trkpt lat="47.0951" lon="-1.72719">
        <ele>52</ele>
        <time>2020-12-29T14:18:22.000Z</time>
      </trkpt>
      <trkpt lat="47.09518" lon="-1.72703">
        <ele>52</ele>
        <time>2020-12-29T14:18:24.000Z</time>
      </trkpt>
      <trkpt lat="47.09527" lon="-1.72689">
        <ele>52</ele>
        <time>2020-12-29T14:18:26.000Z</time>
      </trkpt>
      <trkpt lat="47.09538" lon="-1.72681">
        <ele>51</ele>
        <time>2020-12-29T14:18:28.000Z</time>
      </trkpt>
      <trkpt lat="47.0955" lon="-1.72678">
        <ele>52</ele>
        <time>2020-12-29T14:18:30.000Z</time>
      </trkpt>
      <trkpt lat="47.09562" lon="-1.72682">
        <ele>52</ele>
        <time>2020-12-29T14:18:32.000Z</time>
      </trkpt>
      <trkpt lat="47.09573" lon="-1.72686">
        <ele>52</ele>
        <time>2020-12-29T14:18:34.000Z</time>
      </trkpt>
      <trkpt lat="47.09584" lon="-1.72692">
        <ele>52</ele>
        <time>2020-12-29T14:18:36.000Z</time>
      </trkpt>
      <trkpt lat="47.09595" lon="-1.72697">
        <ele>53</ele>
        <time>2020-12-29T14:18:38.000Z</time>
      </trkpt>
      <trkpt lat="47.09606" lon="-1.72703">
        <ele>53</ele>
        <time>2020-12-29T14:18:40.000Z</time>
      </trkpt>
      <trkpt lat="47.09618" lon="-1.72708">
        <ele>54</ele>
        <time>2020-12-29T14:18:42.000Z</time>
      </trkpt>
      <trkpt lat="47.09631" lon="-1.72714">
        <ele>55</ele>
        <time>2020-12-29T14:18:44.000Z</time>
      </trkpt>
      <trkpt lat="47.09643" lon="-1.72719">
        <ele>55</ele>
        <time>2020-12-29T14:18:46.000Z</time>
      </trkpt>
      <trkpt lat="47.09656" lon="-1.72722">
        <ele>56</ele>
        <time>2020-12-29T14:18:48.000Z</time>
      </trkpt>
      <trkpt lat="47.09668" lon="-1.72725">
        <ele>55</ele>
        <time>2020-12-29T14:18:50.000Z</time>
      </trkpt>
      <trkpt lat="47.0968" lon="-1.72728">
        <ele>55</ele>
        <time>2020-12-29T14:18:52.000Z</time>
      </trkpt>
      <trkpt lat="47.09691" lon="-1.72733">
        <ele>55</ele>
        <time>2020-12-29T14:18:54.000Z</time>
      </trkpt>
      <trkpt lat="47.09701" lon="-1.72742">
        <ele>55</ele>
        <time>2020-12-29T14:18:56.000Z</time>
      </trkpt>
      <trkpt lat="47.09711" lon="-1.72754">
        <ele>55</ele>
        <time>2020-12-29T14:18:58.000Z</time>
      </trkpt>
      <trkpt lat="47.09718" lon="-1.72769">
        <ele>55</ele>
        <time>2020-12-29T14:19:00.000Z</time>
      </trkpt>
      <trkpt lat="47.09725" lon="-1.72785">
        <ele>55</ele>
        <time>2020-12-29T14:19:02.000Z</time>
      </trkpt>
      <trkpt lat="47.09732" lon="-1.72799">
        <ele>55</ele>
        <time>2020-12-29T14:19:04.000Z</time>
      </trkpt>
      <trkpt lat="47.09738" lon="-1.72814">
        <ele>55</ele>
        <time>2020-12-29T14:19:06.000Z</time>
      </trkpt>
      <trkpt lat="47.09745" lon="-1.72829">
        <ele>55</ele>
        <time>2020-12-29T14:19:08.000Z</time>
      </trkpt>
      <trkpt lat="47.0975" lon="-1.72843">
        <ele>55</ele>
        <time>2020-12-29T14:19:10.000Z</time>
      </trkpt>
      <trkpt lat="47.09756" lon="-1.72857">
        <ele>55</ele>
        <time>2020-12-29T14:19:12.000Z</time>
      </trkpt>
      <trkpt lat="47.09763" lon="-1.72868">
        <ele>55</ele>
        <time>2020-12-29T14:19:14.000Z</time>
      </trkpt>
      <trkpt lat="47.09774" lon="-1.72872">
        <ele>55</ele>
        <time>2020-12-29T14:19:16.000Z</time>
      </trkpt>
      <trkpt lat="47.09784" lon="-1.72864">
        <ele>54</ele>
        <time>2020-12-29T14:19:18.000Z</time>
      </trkpt>
      <trkpt lat="47.09793" lon="-1.72851">
        <ele>55</ele>
        <time>2020-12-29T14:19:20.000Z</time>
      </trkpt>
      <trkpt lat="47.09803" lon="-1.72841">
        <ele>55</ele>
        <time>2020-12-29T14:19:22.000Z</time>
      </trkpt>
      <trkpt lat="47.09814" lon="-1.72833">
        <ele>54</ele>
        <time>2020-12-29T14:19:24.000Z</time>
      </trkpt>
      <trkpt lat="47.09826" lon="-1.72826">
        <ele>55</ele>
        <time>2020-12-29T14:19:26.000Z</time>
      </trkpt>
      <trkpt lat="47.09838" lon="-1.7282">
        <ele>55</ele>
        <time>2020-12-29T14:19:28.000Z</time>
      </trkpt>
      <trkpt lat="47.0985" lon="-1.72815">
        <ele>55</ele>
        <time>2020-12-29T14:19:30.000Z</time>
      </trkpt>
      <trkpt lat="47.09862" lon="-1.72807">
        <ele>56</ele>
        <time>2020-12-29T14:19:32.000Z</time>
      </trkpt>
      <trkpt lat="47.09875" lon="-1.728">
        <ele>56</ele>
        <time>2020-12-29T14:19:34.000Z</time>
      </trkpt>
      <trkpt lat="47.09887" lon="-1.72793">
        <ele>56</ele>
        <time>2020-12-29T14:19:36.000Z</time>
      </trkpt>
      <trkpt lat="47.09899" lon="-1.72786">
        <ele>57</ele>
        <time>2020-12-29T14:19:38.000Z</time>
      </trkpt>
      <trkpt lat="47.09912" lon="-1.7278">
        <ele>57</ele>
        <time>2020-12-29T14:19:40.000Z</time>
      </trkpt>
      <trkpt lat="47.09924" lon="-1.72773">
        <ele>57</ele>
        <time>2020-12-29T14:19:42.000Z</time>
      </trkpt>
      <trkpt lat="47.09936" lon="-1.72767">
        <ele>57</ele>
        <time>2020-12-29T14:19:44.000Z</time>
      </trkpt>
      <trkpt lat="47.09948" lon="-1.7276">
        <ele>57</ele>
        <time>2020-12-29T14:19:46.000Z</time>
      </trkpt>
      <trkpt lat="47.09961" lon="-1.72754">
        <ele>56</ele>
        <time>2020-12-29T14:19:48.000Z</time>
      </trkpt>
      <trkpt lat="47.09973" lon="-1.72747">
        <ele>56</ele>
        <time>2020-12-29T14:19:50.000Z</time>
      </trkpt>
      <trkpt lat="47.09985" lon="-1.7274">
        <ele>56</ele>
        <time>2020-12-29T14:19:52.000Z</time>
      </trkpt>
      <trkpt lat="47.09997" lon="-1.72732">
        <ele>56</ele>
        <time>2020-12-29T14:19:54.000Z</time>
      </trkpt>
      <trkpt lat="47.10009" lon="-1.72723">
        <ele>56</ele>
        <time>2020-12-29T14:19:56.000Z</time>
      </trkpt>
      <trkpt lat="47.10021" lon="-1.72713">
        <ele>56</ele>
        <time>2020-12-29T14:19:58.000Z</time>
      </trkpt>
      <trkpt lat="47.10032" lon="-1.72703">
        <ele>56</ele>
        <time>2020-12-29T14:20:00.000Z</time>
      </trkpt>
      <trkpt lat="47.10044" lon="-1.72692">
        <ele>55</ele>
        <time>2020-12-29T14:20:02.000Z</time>
      </trkpt>
      <trkpt lat="47.10055" lon="-1.72683">
        <ele>56</ele>
        <time>2020-12-29T14:20:04.000Z</time>
      </trkpt>
      <trkpt lat="47.10066" lon="-1.72672">
        <ele>56</ele>
        <time>2020-12-29T14:20:06.000Z</time>
      </trkpt>
      <trkpt lat="47.10077" lon="-1.72661">
        <ele>56</ele>
        <time>2020-12-29T14:20:08.000Z</time>
      </trkpt>
      <trkpt lat="47.10088" lon="-1.72649">
        <ele>57</ele>
        <time>2020-12-29T14:20:10.000Z</time>
      </trkpt>
      <trkpt lat="47.101" lon="-1.72637">
        <ele>57</ele>
        <time>2020-12-29T14:20:12.000Z</time>
      </trkpt>
      <trkpt lat="47.10111" lon="-1.72626">
        <ele>57</ele>
        <time>2020-12-29T14:20:14.000Z</time>
      </trkpt>
      <trkpt lat="47.10122" lon="-1.72614">
        <ele>58</ele>
        <time>2020-12-29T14:20:16.000Z</time>
      </trkpt>
      <trkpt lat="47.10133" lon="-1.72603">
        <ele>58</ele>
        <time>2020-12-29T14:20:18.000Z</time>
      </trkpt>
      <trkpt lat="47.10143" lon="-1.72591">
        <ele>58</ele>
        <time>2020-12-29T14:20:20.000Z</time>
      </trkpt>
      <trkpt lat="47.10153" lon="-1.72579">
        <ele>58</ele>
        <time>2020-12-29T14:20:22.000Z</time>
      </trkpt>
      <trkpt lat="47.10165" lon="-1.72565">
        <ele>57</ele>
        <time>2020-12-29T14:20:24.000Z</time>
      </trkpt>
      <trkpt lat="47.10175" lon="-1.72551">
        <ele>57</ele>
        <time>2020-12-29T14:20:26.000Z</time>
      </trkpt>
      <trkpt lat="47.10185" lon="-1.72536">
        <ele>57</ele>
        <time>2020-12-29T14:20:28.000Z</time>
      </trkpt>
      <trkpt lat="47.10195" lon="-1.72522">
        <ele>57</ele>
        <time>2020-12-29T14:20:30.000Z</time>
      </trkpt>
      <trkpt lat="47.10205" lon="-1.72506">
        <ele>56</ele>
        <time>2020-12-29T14:20:32.000Z</time>
      </trkpt>
      <trkpt lat="47.10214" lon="-1.7249">
        <ele>56</ele>
        <time>2020-12-29T14:20:34.000Z</time>
      </trkpt>
      <trkpt lat="47.10223" lon="-1.72474">
        <ele>56</ele>
        <time>2020-12-29T14:20:36.000Z</time>
      </trkpt>
      <trkpt lat="47.10232" lon="-1.72458">
        <ele>56</ele>
        <time>2020-12-29T14:20:38.000Z</time>
      </trkpt>
      <trkpt lat="47.10241" lon="-1.72441">
        <ele>56</ele>
        <time>2020-12-29T14:20:40.000Z</time>
      </trkpt>
      <trkpt lat="47.10251" lon="-1.72426">
        <ele>56</ele>
        <time>2020-12-29T14:20:42.000Z</time>
      </trkpt>
      <trkpt lat="47.10263" lon="-1.72413">
        <ele>57</ele>
        <time>2020-12-29T14:20:44.000Z</time>
      </trkpt>
      <trkpt lat="47.10277" lon="-1.72403">
        <ele>57</ele>
        <time>2020-12-29T14:20:46.000Z</time>
      </trkpt>
      <trkpt lat="47.10291" lon="-1.72394">
        <ele>57</ele>
        <time>2020-12-29T14:20:48.000Z</time>
      </trkpt>
      <trkpt lat="47.10306" lon="-1.72386">
        <ele>56</ele>
        <time>2020-12-29T14:20:50.000Z</time>
      </trkpt>
      <trkpt lat="47.1032" lon="-1.7238">
        <ele>56</ele>
        <time>2020-12-29T14:20:52.000Z</time>
      </trkpt>
      <trkpt lat="47.10334" lon="-1.72373">
        <ele>55</ele>
        <time>2020-12-29T14:20:54.000Z</time>
      </trkpt>
      <trkpt lat="47.10348" lon="-1.72366">
        <ele>54</ele>
        <time>2020-12-29T14:20:56.000Z</time>
      </trkpt>
      <trkpt lat="47.10362" lon="-1.72358">
        <ele>54</ele>
        <time>2020-12-29T14:20:58.000Z</time>
      </trkpt>
      <trkpt lat="47.10375" lon="-1.72352">
        <ele>54</ele>
        <time>2020-12-29T14:21:00.000Z</time>
      </trkpt>
      <trkpt lat="47.10389" lon="-1.72344">
        <ele>54</ele>
        <time>2020-12-29T14:21:02.000Z</time>
      </trkpt>
      <trkpt lat="47.10402" lon="-1.72338">
        <ele>54</ele>
        <time>2020-12-29T14:21:04.000Z</time>
      </trkpt>
      <trkpt lat="47.10415" lon="-1.72331">
        <ele>54</ele>
        <time>2020-12-29T14:21:06.000Z</time>
      </trkpt>
      <trkpt lat="47.10428" lon="-1.72323">
        <ele>55</ele>
        <time>2020-12-29T14:21:08.000Z</time>
      </trkpt>
      <trkpt lat="47.10441" lon="-1.72316">
        <ele>56</ele>
        <time>2020-12-29T14:21:10.000Z</time>
      </trkpt>
      <trkpt lat="47.10455" lon="-1.72309">
        <ele>56</ele>
        <time>2020-12-29T14:21:12.000Z</time>
      </trkpt>
      <trkpt lat="47.10468" lon="-1.72302">
        <ele>56</ele>
        <time>2020-12-29T14:21:14.000Z</time>
      </trkpt>
      <trkpt lat="47.10481" lon="-1.72295">
        <ele>56</ele>
        <time>2020-12-29T14:21:16.000Z</time>
      </trkpt>
      <trkpt lat="47.10494" lon="-1.72287">
        <ele>56</ele>
        <time>2020-12-29T14:21:18.000Z</time>
      </trkpt>
      <trkpt lat="47.10507" lon="-1.72278">
        <ele>56</ele>
        <time>2020-12-29T14:21:20.000Z</time>
      </trkpt>
      <trkpt lat="47.1052" lon="-1.72265">
        <ele>56</ele>
        <time>2020-12-29T14:21:22.000Z</time>
      </trkpt>
      <trkpt lat="47.10532" lon="-1.72251">
        <ele>55</ele>
        <time>2020-12-29T14:21:24.000Z</time>
      </trkpt>
      <trkpt lat="47.10542" lon="-1.72236">
        <ele>54</ele>
        <time>2020-12-29T14:21:26.000Z</time>
      </trkpt>
      <trkpt lat="47.10552" lon="-1.7222">
        <ele>54</ele>
        <time>2020-12-29T14:21:28.000Z</time>
      </trkpt>
      <trkpt lat="47.10562" lon="-1.72205">
        <ele>54</ele>
        <time>2020-12-29T14:21:30.000Z</time>
      </trkpt>
      <trkpt lat="47.10572" lon="-1.7219">
        <ele>53</ele>
        <time>2020-12-29T14:21:32.000Z</time>
      </trkpt>
      <trkpt lat="47.10582" lon="-1.72176">
        <ele>52</ele>
        <time>2020-12-29T14:21:34.000Z</time>
      </trkpt>
      <trkpt lat="47.10592" lon="-1.72162">
        <ele>52</ele>
        <time>2020-12-29T14:21:36.000Z</time>
      </trkpt>
      <trkpt lat="47.10602" lon="-1.7215">
        <ele>52</ele>
        <time>2020-12-29T14:21:38.000Z</time>
      </trkpt>
      <trkpt lat="47.10613" lon="-1.72139">
        <ele>53</ele>
        <time>2020-12-29T14:21:40.000Z</time>
      </trkpt>
      <trkpt lat="47.10625" lon="-1.72131">
        <ele>53</ele>
        <time>2020-12-29T14:21:42.000Z</time>
      </trkpt>
      <trkpt lat="47.10639" lon="-1.72126">
        <ele>53</ele>
        <time>2020-12-29T14:21:44.000Z</time>
      </trkpt>
      <trkpt lat="47.10653" lon="-1.72122">
        <ele>52</ele>
        <time>2020-12-29T14:21:46.000Z</time>
      </trkpt>
      <trkpt lat="47.10666" lon="-1.72118">
        <ele>52</ele>
        <time>2020-12-29T14:21:48.000Z</time>
      </trkpt>
      <trkpt lat="47.10679" lon="-1.72114">
        <ele>53</ele>
        <time>2020-12-29T14:21:50.000Z</time>
      </trkpt>
      <trkpt lat="47.10692" lon="-1.7211">
        <ele>53</ele>
        <time>2020-12-29T14:21:52.000Z</time>
      </trkpt>
      <trkpt lat="47.10705" lon="-1.72106">
        <ele>53</ele>
        <time>2020-12-29T14:21:54.000Z</time>
      </trkpt>
      <trkpt lat="47.10718" lon="-1.72102">
        <ele>53</ele>
        <time>2020-12-29T14:21:56.000Z</time>
      </trkpt>
      <trkpt lat="47.1073" lon="-1.72099">
        <ele>53</ele>
        <time>2020-12-29T14:21:58.000Z</time>
      </trkpt>
      <trkpt lat="47.10744" lon="-1.72097">
        <ele>52</ele>
        <time>2020-12-29T14:22:00.000Z</time>
      </trkpt>
      <trkpt lat="47.10757" lon="-1.72097">
        <ele>52</ele>
        <time>2020-12-29T14:22:02.000Z</time>
      </trkpt>
      <trkpt lat="47.10771" lon="-1.721">
        <ele>52</ele>
        <time>2020-12-29T14:22:04.000Z</time>
      </trkpt>
      <trkpt lat="47.10784" lon="-1.72105">
        <ele>52</ele>
        <time>2020-12-29T14:22:06.000Z</time>
      </trkpt>
      <trkpt lat="47.10796" lon="-1.72111">
        <ele>52</ele>
        <time>2020-12-29T14:22:08.000Z</time>
      </trkpt>
      <trkpt lat="47.10807" lon="-1.7212">
        <ele>52</ele>
        <time>2020-12-29T14:22:10.000Z</time>
      </trkpt>
      <trkpt lat="47.10817" lon="-1.7213">
        <ele>52</ele>
        <time>2020-12-29T14:22:12.000Z</time>
      </trkpt>
      <trkpt lat="47.10826" lon="-1.7214">
        <ele>53</ele>
        <time>2020-12-29T14:22:14.000Z</time>
      </trkpt>
      <trkpt lat="47.10837" lon="-1.72141">
        <ele>53</ele>
        <time>2020-12-29T14:22:16.000Z</time>
      </trkpt>
      <trkpt lat="47.10849" lon="-1.72137">
        <ele>53</ele>
        <time>2020-12-29T14:22:18.000Z</time>
      </trkpt>
      <trkpt lat="47.1086" lon="-1.72129">
        <ele>53</ele>
        <time>2020-12-29T14:22:20.000Z</time>
      </trkpt>
      <trkpt lat="47.1087" lon="-1.72115">
        <ele>53</ele>
        <time>2020-12-29T14:22:22.000Z</time>
      </trkpt>
      <trkpt lat="47.1088" lon="-1.72101">
        <ele>53</ele>
        <time>2020-12-29T14:22:24.000Z</time>
      </trkpt>
      <trkpt lat="47.1089" lon="-1.72086">
        <ele>53</ele>
        <time>2020-12-29T14:22:26.000Z</time>
      </trkpt>
      <trkpt lat="47.10899" lon="-1.72072">
        <ele>53</ele>
        <time>2020-12-29T14:22:28.000Z</time>
      </trkpt>
      <trkpt lat="47.10909" lon="-1.72058">
        <ele>54</ele>
        <time>2020-12-29T14:22:30.000Z</time>
      </trkpt>
      <trkpt lat="47.10918" lon="-1.72044">
        <ele>54</ele>
        <time>2020-12-29T14:22:32.000Z</time>
      </trkpt>
      <trkpt lat="47.10927" lon="-1.7203">
        <ele>54</ele>
        <time>2020-12-29T14:22:34.000Z</time>
      </trkpt>
      <trkpt lat="47.10937" lon="-1.72016">
        <ele>53</ele>
        <time>2020-12-29T14:22:36.000Z</time>
      </trkpt>
      <trkpt lat="47.10947" lon="-1.72002">
        <ele>53</ele>
        <time>2020-12-29T14:22:38.000Z</time>
      </trkpt>
      <trkpt lat="47.10957" lon="-1.71989">
        <ele>53</ele>
        <time>2020-12-29T14:22:40.000Z</time>
      </trkpt>
      <trkpt lat="47.10967" lon="-1.71974">
        <ele>54</ele>
        <time>2020-12-29T14:22:42.000Z</time>
      </trkpt>
      <trkpt lat="47.10976" lon="-1.71961">
        <ele>54</ele>
        <time>2020-12-29T14:22:44.000Z</time>
      </trkpt>
      <trkpt lat="47.10986" lon="-1.71946">
        <ele>54</ele>
        <time>2020-12-29T14:22:46.000Z</time>
      </trkpt>
      <trkpt lat="47.10996" lon="-1.71932">
        <ele>54</ele>
        <time>2020-12-29T14:22:48.000Z</time>
      </trkpt>
      <trkpt lat="47.11006" lon="-1.71918">
        <ele>54</ele>
        <time>2020-12-29T14:22:50.000Z</time>
      </trkpt>
      <trkpt lat="47.11015" lon="-1.71906">
        <ele>54</ele>
        <time>2020-12-29T14:22:52.000Z</time>
      </trkpt>
      <trkpt lat="47.11025" lon="-1.71892">
        <ele>54</ele>
        <time>2020-12-29T14:22:54.000Z</time>
      </trkpt>
      <trkpt lat="47.11034" lon="-1.71878">
        <ele>53</ele>
        <time>2020-12-29T14:22:56.000Z</time>
      </trkpt>
      <trkpt lat="47.11043" lon="-1.71864">
        <ele>54</ele>
        <time>2020-12-29T14:22:58.000Z</time>
      </trkpt>
      <trkpt lat="47.11053" lon="-1.7185">
        <ele>54</ele>
        <time>2020-12-29T14:23:00.000Z</time>
      </trkpt>
      <trkpt lat="47.11064" lon="-1.71839">
        <ele>53</ele>
        <time>2020-12-29T14:23:02.000Z</time>
      </trkpt>
      <trkpt lat="47.11075" lon="-1.71826">
        <ele>54</ele>
        <time>2020-12-29T14:23:04.000Z</time>
      </trkpt>
      <trkpt lat="47.11085" lon="-1.71814">
        <ele>53</ele>
        <time>2020-12-29T14:23:06.000Z</time>
      </trkpt>
      <trkpt lat="47.11096" lon="-1.71804">
        <ele>53</ele>
        <time>2020-12-29T14:23:08.000Z</time>
      </trkpt>
      <trkpt lat="47.11108" lon="-1.71793">
        <ele>53</ele>
        <time>2020-12-29T14:23:10.000Z</time>
      </trkpt>
      <trkpt lat="47.11119" lon="-1.71783">
        <ele>53</ele>
        <time>2020-12-29T14:23:12.000Z</time>
      </trkpt>
      <trkpt lat="47.11131" lon="-1.71772">
        <ele>53</ele>
        <time>2020-12-29T14:23:14.000Z</time>
      </trkpt>
      <trkpt lat="47.11143" lon="-1.71762">
        <ele>52</ele>
        <time>2020-12-29T14:23:16.000Z</time>
      </trkpt>
      <trkpt lat="47.11155" lon="-1.71752">
        <ele>51</ele>
        <time>2020-12-29T14:23:18.000Z</time>
      </trkpt>
      <trkpt lat="47.11167" lon="-1.71742">
        <ele>51</ele>
        <time>2020-12-29T14:23:20.000Z</time>
      </trkpt>
      <trkpt lat="47.11178" lon="-1.71731">
        <ele>51</ele>
        <time>2020-12-29T14:23:22.000Z</time>
      </trkpt>
      <trkpt lat="47.1119" lon="-1.71721">
        <ele>51</ele>
        <time>2020-12-29T14:23:24.000Z</time>
      </trkpt>
      <trkpt lat="47.11201" lon="-1.71711">
        <ele>51</ele>
        <time>2020-12-29T14:23:26.000Z</time>
      </trkpt>
      <trkpt lat="47.11213" lon="-1.71701">
        <ele>51</ele>
        <time>2020-12-29T14:23:28.000Z</time>
      </trkpt>
      <trkpt lat="47.11225" lon="-1.71691">
        <ele>51</ele>
        <time>2020-12-29T14:23:30.000Z</time>
      </trkpt>
      <trkpt lat="47.11236" lon="-1.71681">
        <ele>51</ele>
        <time>2020-12-29T14:23:32.000Z</time>
      </trkpt>
      <trkpt lat="47.11248" lon="-1.71674">
        <ele>51</ele>
        <time>2020-12-29T14:23:34.000Z</time>
      </trkpt>
      <trkpt lat="47.11261" lon="-1.71672">
        <ele>52</ele>
        <time>2020-12-29T14:23:36.000Z</time>
      </trkpt>
      <trkpt lat="47.11274" lon="-1.71673">
        <ele>52</ele>
        <time>2020-12-29T14:23:38.000Z</time>
      </trkpt>
      <trkpt lat="47.11287" lon="-1.71672">
        <ele>52</ele>
        <time>2020-12-29T14:23:40.000Z</time>
      </trkpt>
      <trkpt lat="47.11299" lon="-1.71667">
        <ele>52</ele>
        <time>2020-12-29T14:23:42.000Z</time>
      </trkpt>
      <trkpt lat="47.11311" lon="-1.7166">
        <ele>52</ele>
        <time>2020-12-29T14:23:44.000Z</time>
      </trkpt>
      <trkpt lat="47.11322" lon="-1.71652">
        <ele>52</ele>
        <time>2020-12-29T14:23:46.000Z</time>
      </trkpt>
      <trkpt lat="47.11332" lon="-1.71644">
        <ele>51</ele>
        <time>2020-12-29T14:23:48.000Z</time>
      </trkpt>
      <trkpt lat="47.11341" lon="-1.71635">
        <ele>50</ele>
        <time>2020-12-29T14:23:50.000Z</time>
      </trkpt>
      <trkpt lat="47.1135" lon="-1.71623">
        <ele>50</ele>
        <time>2020-12-29T14:23:52.000Z</time>
      </trkpt>
      <trkpt lat="47.11357" lon="-1.71607">
        <ele>50</ele>
        <time>2020-12-29T14:23:54.000Z</time>
      </trkpt>
      <trkpt lat="47.11365" lon="-1.7159">
        <ele>50</ele>
        <time>2020-12-29T14:23:56.000Z</time>
      </trkpt>
      <trkpt lat="47.11373" lon="-1.71575">
        <ele>50</ele>
        <time>2020-12-29T14:23:58.000Z</time>
      </trkpt>
      <trkpt lat="47.11382" lon="-1.71558">
        <ele>50</ele>
        <time>2020-12-29T14:24:00.000Z</time>
      </trkpt>
      <trkpt lat="47.11389" lon="-1.71542">
        <ele>50</ele>
        <time>2020-12-29T14:24:02.000Z</time>
      </trkpt>
      <trkpt lat="47.11398" lon="-1.71526">
        <ele>49</ele>
        <time>2020-12-29T14:24:04.000Z</time>
      </trkpt>
      <trkpt lat="47.11406" lon="-1.71509">
        <ele>49</ele>
        <time>2020-12-29T14:24:06.000Z</time>
      </trkpt>
      <trkpt lat="47.11414" lon="-1.71493">
        <ele>49</ele>
        <time>2020-12-29T14:24:08.000Z</time>
      </trkpt>
      <trkpt lat="47.11422" lon="-1.71477">
        <ele>49</ele>
        <time>2020-12-29T14:24:10.000Z</time>
      </trkpt>
      <trkpt lat="47.1143" lon="-1.71462">
        <ele>49</ele>
        <time>2020-12-29T14:24:12.000Z</time>
      </trkpt>
      <trkpt lat="47.11438" lon="-1.71447">
        <ele>49</ele>
        <time>2020-12-29T14:24:14.000Z</time>
      </trkpt>
      <trkpt lat="47.11446" lon="-1.71431">
        <ele>49</ele>
        <time>2020-12-29T14:24:16.000Z</time>
      </trkpt>
      <trkpt lat="47.11454" lon="-1.71416">
        <ele>50</ele>
        <time>2020-12-29T14:24:18.000Z</time>
      </trkpt>
      <trkpt lat="47.11462" lon="-1.714">
        <ele>50</ele>
        <time>2020-12-29T14:24:20.000Z</time>
      </trkpt>
      <trkpt lat="47.11469" lon="-1.71385">
        <ele>50</ele>
        <time>2020-12-29T14:24:22.000Z</time>
      </trkpt>
      <trkpt lat="47.11477" lon="-1.7137">
        <ele>51</ele>
        <time>2020-12-29T14:24:24.000Z</time>
      </trkpt>
      <trkpt lat="47.11485" lon="-1.71354">
        <ele>50</ele>
        <time>2020-12-29T14:24:26.000Z</time>
      </trkpt>
      <trkpt lat="47.11493" lon="-1.71339">
        <ele>50</ele>
        <time>2020-12-29T14:24:28.000Z</time>
      </trkpt>
      <trkpt lat="47.115" lon="-1.71323">
        <ele>50</ele>
        <time>2020-12-29T14:24:30.000Z</time>
      </trkpt>
      <trkpt lat="47.11508" lon="-1.71308">
        <ele>50</ele>
        <time>2020-12-29T14:24:32.000Z</time>
      </trkpt>
      <trkpt lat="47.11516" lon="-1.71293">
        <ele>51</ele>
        <time>2020-12-29T14:24:34.000Z</time>
      </trkpt>
      <trkpt lat="47.11524" lon="-1.71278">
        <ele>51</ele>
        <time>2020-12-29T14:24:36.000Z</time>
      </trkpt>
      <trkpt lat="47.11532" lon="-1.71263">
        <ele>51</ele>
        <time>2020-12-29T14:24:38.000Z</time>
      </trkpt>
      <trkpt lat="47.1154" lon="-1.71249">
        <ele>52</ele>
        <time>2020-12-29T14:24:40.000Z</time>
      </trkpt>
      <trkpt lat="47.11548" lon="-1.71235">
        <ele>52</ele>
        <time>2020-12-29T14:24:42.000Z</time>
      </trkpt>
      <trkpt lat="47.11556" lon="-1.71221">
        <ele>52</ele>
        <time>2020-12-29T14:24:44.000Z</time>
      </trkpt>
      <trkpt lat="47.11566" lon="-1.71208">
        <ele>52</ele>
        <time>2020-12-29T14:24:46.000Z</time>
      </trkpt>
      <trkpt lat="47.11575" lon="-1.71195">
        <ele>53</ele>
        <time>2020-12-29T14:24:48.000Z</time>
      </trkpt>
      <trkpt lat="47.11584" lon="-1.71182">
        <ele>53</ele>
        <time>2020-12-29T14:24:50.000Z</time>
      </trkpt>
      <trkpt lat="47.11595" lon="-1.7117">
        <ele>53</ele>
        <time>2020-12-29T14:24:52.000Z</time>
      </trkpt>
      <trkpt lat="47.11607" lon="-1.71158">
        <ele>53</ele>
        <time>2020-12-29T14:24:54.000Z</time>
      </trkpt>
      <trkpt lat="47.11618" lon="-1.71147">
        <ele>53</ele>
        <time>2020-12-29T14:24:56.000Z</time>
      </trkpt>
      <trkpt lat="47.11629" lon="-1.71136">
        <ele>52</ele>
        <time>2020-12-29T14:24:58.000Z</time>
      </trkpt>
      <trkpt lat="47.1164" lon="-1.71126">
        <ele>53</ele>
        <time>2020-12-29T14:25:00.000Z</time>
      </trkpt>
      <trkpt lat="47.11651" lon="-1.71117">
        <ele>53</ele>
        <time>2020-12-29T14:25:02.000Z</time>
      </trkpt>
      <trkpt lat="47.11663" lon="-1.71109">
        <ele>53</ele>
        <time>2020-12-29T14:25:04.000Z</time>
      </trkpt>
      <trkpt lat="47.11675" lon="-1.711">
        <ele>53</ele>
        <time>2020-12-29T14:25:06.000Z</time>
      </trkpt>
      <trkpt lat="47.11686" lon="-1.71092">
        <ele>53</ele>
        <time>2020-12-29T14:25:08.000Z</time>
      </trkpt>
      <trkpt lat="47.11698" lon="-1.71084">
        <ele>53</ele>
        <time>2020-12-29T14:25:10.000Z</time>
      </trkpt>
      <trkpt lat="47.1171" lon="-1.71076">
        <ele>53</ele>
        <time>2020-12-29T14:25:12.000Z</time>
      </trkpt>
      <trkpt lat="47.11723" lon="-1.71069">
        <ele>52</ele>
        <time>2020-12-29T14:25:14.000Z</time>
      </trkpt>
      <trkpt lat="47.11735" lon="-1.71062">
        <ele>52</ele>
        <time>2020-12-29T14:25:16.000Z</time>
      </trkpt>
      <trkpt lat="47.11746" lon="-1.71054">
        <ele>53</ele>
        <time>2020-12-29T14:25:18.000Z</time>
      </trkpt>
      <trkpt lat="47.11759" lon="-1.71046">
        <ele>53</ele>
        <time>2020-12-29T14:25:20.000Z</time>
      </trkpt>
      <trkpt lat="47.11771" lon="-1.71038">
        <ele>52</ele>
        <time>2020-12-29T14:25:22.000Z</time>
      </trkpt>
      <trkpt lat="47.11783" lon="-1.7103">
        <ele>52</ele>
        <time>2020-12-29T14:25:24.000Z</time>
      </trkpt>
      <trkpt lat="47.11795" lon="-1.71022">
        <ele>52</ele>
        <time>2020-12-29T14:25:26.000Z</time>
      </trkpt>
      <trkpt lat="47.11807" lon="-1.71013">
        <ele>52</ele>
        <time>2020-12-29T14:25:28.000Z</time>
      </trkpt>
      <trkpt lat="47.11819" lon="-1.71005">
        <ele>52</ele>
        <time>2020-12-29T14:25:30.000Z</time>
      </trkpt>
      <trkpt lat="47.11831" lon="-1.70997">
        <ele>52</ele>
        <time>2020-12-29T14:25:32.000Z</time>
      </trkpt>
      <trkpt lat="47.11844" lon="-1.70989">
        <ele>52</ele>
        <time>2020-12-29T14:25:34.000Z</time>
      </trkpt>
      <trkpt lat="47.11856" lon="-1.70981">
        <ele>52</ele>
        <time>2020-12-29T14:25:36.000Z</time>
      </trkpt>
      <trkpt lat="47.11867" lon="-1.70973">
        <ele>53</ele>
        <time>2020-12-29T14:25:38.000Z</time>
      </trkpt>
      <trkpt lat="47.11879" lon="-1.70966">
        <ele>53</ele>
        <time>2020-12-29T14:25:40.000Z</time>
      </trkpt>
      <trkpt lat="47.11891" lon="-1.70959">
        <ele>53</ele>
        <time>2020-12-29T14:25:42.000Z</time>
      </trkpt>
      <trkpt lat="47.11903" lon="-1.70951">
        <ele>53</ele>
        <time>2020-12-29T14:25:44.000Z</time>
      </trkpt>
      <trkpt lat="47.11915" lon="-1.70943">
        <ele>53</ele>
        <time>2020-12-29T14:25:46.000Z</time>
      </trkpt>
      <trkpt lat="47.11927" lon="-1.70935">
        <ele>53</ele>
        <time>2020-12-29T14:25:48.000Z</time>
      </trkpt>
      <trkpt lat="47.11939" lon="-1.70928">
        <ele>53</ele>
        <time>2020-12-29T14:25:50.000Z</time>
      </trkpt>
      <trkpt lat="47.1195" lon="-1.7092">
        <ele>53</ele>
        <time>2020-12-29T14:25:52.000Z</time>
      </trkpt>
      <trkpt lat="47.11961" lon="-1.70912">
        <ele>53</ele>
        <time>2020-12-29T14:25:54.000Z</time>
      </trkpt>
      <trkpt lat="47.11973" lon="-1.70905">
        <ele>53</ele>
        <time>2020-12-29T14:25:56.000Z</time>
      </trkpt>
      <trkpt lat="47.11984" lon="-1.70898">
        <ele>53</ele>
        <time>2020-12-29T14:25:58.000Z</time>
      </trkpt>
      <trkpt lat="47.11996" lon="-1.70891">
        <ele>53</ele>
        <time>2020-12-29T14:26:00.000Z</time>
      </trkpt>
      <trkpt lat="47.12008" lon="-1.70884">
        <ele>53</ele>
        <time>2020-12-29T14:26:02.000Z</time>
      </trkpt>
      <trkpt lat="47.12019" lon="-1.70876">
        <ele>53</ele>
        <time>2020-12-29T14:26:04.000Z</time>
      </trkpt>
      <trkpt lat="47.12031" lon="-1.70868">
        <ele>54</ele>
        <time>2020-12-29T14:26:06.000Z</time>
      </trkpt>
      <trkpt lat="47.12043" lon="-1.70861">
        <ele>54</ele>
        <time>2020-12-29T14:26:08.000Z</time>
      </trkpt>
      <trkpt lat="47.12054" lon="-1.70853">
        <ele>54</ele>
        <time>2020-12-29T14:26:10.000Z</time>
      </trkpt>
      <trkpt lat="47.12065" lon="-1.70845">
        <ele>54</ele>
        <time>2020-12-29T14:26:12.000Z</time>
      </trkpt>
      <trkpt lat="47.12077" lon="-1.70838">
        <ele>54</ele>
        <time>2020-12-29T14:26:14.000Z</time>
      </trkpt>
      <trkpt lat="47.12088" lon="-1.7083">
        <ele>53</ele>
        <time>2020-12-29T14:26:16.000Z</time>
      </trkpt>
      <trkpt lat="47.121" lon="-1.70823">
        <ele>53</ele>
        <time>2020-12-29T14:26:18.000Z</time>
      </trkpt>
      <trkpt lat="47.12111" lon="-1.70816">
        <ele>53</ele>
        <time>2020-12-29T14:26:20.000Z</time>
      </trkpt>
      <trkpt lat="47.12123" lon="-1.70809">
        <ele>53</ele>
        <time>2020-12-29T14:26:22.000Z</time>
      </trkpt>
      <trkpt lat="47.12135" lon="-1.70801">
        <ele>53</ele>
        <time>2020-12-29T14:26:24.000Z</time>
      </trkpt>
      <trkpt lat="47.12146" lon="-1.70793">
        <ele>52</ele>
        <time>2020-12-29T14:26:26.000Z</time>
      </trkpt>
      <trkpt lat="47.12158" lon="-1.70785">
        <ele>53</ele>
        <time>2020-12-29T14:26:28.000Z</time>
      </trkpt>
      <trkpt lat="47.1217" lon="-1.70778">
        <ele>52</ele>
        <time>2020-12-29T14:26:30.000Z</time>
      </trkpt>
      <trkpt lat="47.12182" lon="-1.7077">
        <ele>52</ele>
        <time>2020-12-29T14:26:32.000Z</time>
      </trkpt>
      <trkpt lat="47.12193" lon="-1.70761">
        <ele>52</ele>
        <time>2020-12-29T14:26:34.000Z</time>
      </trkpt>
      <trkpt lat="47.12205" lon="-1.70752">
        <ele>52</ele>
        <time>2020-12-29T14:26:36.000Z</time>
      </trkpt>
      <trkpt lat="47.12217" lon="-1.70742">
        <ele>51</ele>
        <time>2020-12-29T14:26:38.000Z</time>
      </trkpt>
      <trkpt lat="47.12228" lon="-1.70731">
        <ele>51</ele>
        <time>2020-12-29T14:26:40.000Z</time>
      </trkpt>
      <trkpt lat="47.12239" lon="-1.70719">
        <ele>51</ele>
        <time>2020-12-29T14:26:42.000Z</time>
      </trkpt>
      <trkpt lat="47.1225" lon="-1.70705">
        <ele>51</ele>
        <time>2020-12-29T14:26:44.000Z</time>
      </trkpt>
      <trkpt lat="47.1226" lon="-1.70692">
        <ele>50</ele>
        <time>2020-12-29T14:26:46.000Z</time>
      </trkpt>
      <trkpt lat="47.1227" lon="-1.70677">
        <ele>50</ele>
        <time>2020-12-29T14:26:48.000Z</time>
      </trkpt>
      <trkpt lat="47.12281" lon="-1.70663">
        <ele>50</ele>
        <time>2020-12-29T14:26:50.000Z</time>
      </trkpt>
      <trkpt lat="47.1229" lon="-1.70649">
        <ele>50</ele>
        <time>2020-12-29T14:26:52.000Z</time>
      </trkpt>
      <trkpt lat="47.12299" lon="-1.70635">
        <ele>50</ele>
        <time>2020-12-29T14:26:54.000Z</time>
      </trkpt>
      <trkpt lat="47.12309" lon="-1.7062">
        <ele>50</ele>
        <time>2020-12-29T14:26:56.000Z</time>
      </trkpt>
      <trkpt lat="47.12319" lon="-1.70606">
        <ele>50</ele>
        <time>2020-12-29T14:26:58.000Z</time>
      </trkpt>
      <trkpt lat="47.12328" lon="-1.70592">
        <ele>50</ele>
        <time>2020-12-29T14:27:00.000Z</time>
      </trkpt>
      <trkpt lat="47.12338" lon="-1.70577">
        <ele>50</ele>
        <time>2020-12-29T14:27:02.000Z</time>
      </trkpt>
      <trkpt lat="47.12347" lon="-1.70562">
        <ele>50</ele>
        <time>2020-12-29T14:27:04.000Z</time>
      </trkpt>
      <trkpt lat="47.12356" lon="-1.70547">
        <ele>50</ele>
        <time>2020-12-29T14:27:06.000Z</time>
      </trkpt>
      <trkpt lat="47.12364" lon="-1.70531">
        <ele>50</ele>
        <time>2020-12-29T14:27:08.000Z</time>
      </trkpt>
      <trkpt lat="47.12371" lon="-1.70514">
        <ele>49</ele>
        <time>2020-12-29T14:27:10.000Z</time>
      </trkpt>
      <trkpt lat="47.12377" lon="-1.70497">
        <ele>49</ele>
        <time>2020-12-29T14:27:12.000Z</time>
      </trkpt>
      <trkpt lat="47.12383" lon="-1.70478">
        <ele>50</ele>
        <time>2020-12-29T14:27:14.000Z</time>
      </trkpt>
      <trkpt lat="47.12387" lon="-1.70461">
        <ele>50</ele>
        <time>2020-12-29T14:27:16.000Z</time>
      </trkpt>
      <trkpt lat="47.12392" lon="-1.70442">
        <ele>50</ele>
        <time>2020-12-29T14:27:18.000Z</time>
      </trkpt>
      <trkpt lat="47.12395" lon="-1.70425">
        <ele>50</ele>
        <time>2020-12-29T14:27:20.000Z</time>
      </trkpt>
      <trkpt lat="47.12398" lon="-1.70407">
        <ele>51</ele>
        <time>2020-12-29T14:27:22.000Z</time>
      </trkpt>
      <trkpt lat="47.12401" lon="-1.70389">
        <ele>51</ele>
        <time>2020-12-29T14:27:24.000Z</time>
      </trkpt>
      <trkpt lat="47.12405" lon="-1.7037">
        <ele>52</ele>
        <time>2020-12-29T14:27:26.000Z</time>
      </trkpt>
      <trkpt lat="47.12409" lon="-1.70353">
        <ele>52</ele>
        <time>2020-12-29T14:27:28.000Z</time>
      </trkpt>
      <trkpt lat="47.12414" lon="-1.70334">
        <ele>52</ele>
        <time>2020-12-29T14:27:30.000Z</time>
      </trkpt>
      <trkpt lat="47.12419" lon="-1.70316">
        <ele>53</ele>
        <time>2020-12-29T14:27:32.000Z</time>
      </trkpt>
      <trkpt lat="47.12426" lon="-1.70301">
        <ele>53</ele>
        <time>2020-12-29T14:27:34.000Z</time>
      </trkpt>
      <trkpt lat="47.12433" lon="-1.70286">
        <ele>53</ele>
        <time>2020-12-29T14:27:36.000Z</time>
      </trkpt>
      <trkpt lat="47.12444" lon="-1.70274">
        <ele>52</ele>
        <time>2020-12-29T14:27:38.000Z</time>
      </trkpt>
      <trkpt lat="47.12455" lon="-1.70264">
        <ele>52</ele>
        <time>2020-12-29T14:27:40.000Z</time>
      </trkpt>
      <trkpt lat="47.12469" lon="-1.70256">
        <ele>52</ele>
        <time>2020-12-29T14:27:42.000Z</time>
      </trkpt>
      <trkpt lat="47.12483" lon="-1.70249">
        <ele>52</ele>
        <time>2020-12-29T14:27:44.000Z</time>
      </trkpt>
      <trkpt lat="47.12497" lon="-1.70241">
        <ele>51</ele>
        <time>2020-12-29T14:27:46.000Z</time>
      </trkpt>
      <trkpt lat="47.1251" lon="-1.70234">
        <ele>51</ele>
        <time>2020-12-29T14:27:48.000Z</time>
      </trkpt>
      <trkpt lat="47.12524" lon="-1.70228">
        <ele>50</ele>
        <time>2020-12-29T14:27:50.000Z</time>
      </trkpt>
      <trkpt lat="47.12536" lon="-1.70221">
        <ele>50</ele>
        <time>2020-12-29T14:27:52.000Z</time>
      </trkpt>
      <trkpt lat="47.12549" lon="-1.70213">
        <ele>50</ele>
        <time>2020-12-29T14:27:54.000Z</time>
      </trkpt>
      <trkpt lat="47.12563" lon="-1.70208">
        <ele>50</ele>
        <time>2020-12-29T14:27:56.000Z</time>
      </trkpt>
      <trkpt lat="47.12577" lon="-1.70201">
        <ele>50</ele>
        <time>2020-12-29T14:27:58.000Z</time>
      </trkpt>
      <trkpt lat="47.1259" lon="-1.70195">
        <ele>49</ele>
        <time>2020-12-29T14:28:00.000Z</time>
      </trkpt>
      <trkpt lat="47.12602" lon="-1.70188">
        <ele>49</ele>
        <time>2020-12-29T14:28:02.000Z</time>
      </trkpt>
      <trkpt lat="47.12614" lon="-1.70181">
        <ele>49</ele>
        <time>2020-12-29T14:28:04.000Z</time>
      </trkpt>
      <trkpt lat="47.12626" lon="-1.70175">
        <ele>49</ele>
        <time>2020-12-29T14:28:06.000Z</time>
      </trkpt>
      <trkpt lat="47.12639" lon="-1.70168">
        <ele>49</ele>
        <time>2020-12-29T14:28:08.000Z</time>
      </trkpt>
      <trkpt lat="47.12651" lon="-1.70162">
        <ele>50</ele>
        <time>2020-12-29T14:28:10.000Z</time>
      </trkpt>
      <trkpt lat="47.12664" lon="-1.70156">
        <ele>49</ele>
        <time>2020-12-29T14:28:12.000Z</time>
      </trkpt>
      <trkpt lat="47.12677" lon="-1.7015">
        <ele>48</ele>
        <time>2020-12-29T14:28:14.000Z</time>
      </trkpt>
      <trkpt lat="47.1269" lon="-1.70144">
        <ele>48</ele>
        <time>2020-12-29T14:28:16.000Z</time>
      </trkpt>
      <trkpt lat="47.12701" lon="-1.70138">
        <ele>48</ele>
        <time>2020-12-29T14:28:18.000Z</time>
      </trkpt>
      <trkpt lat="47.12713" lon="-1.70131">
        <ele>48</ele>
        <time>2020-12-29T14:28:20.000Z</time>
      </trkpt>
      <trkpt lat="47.12725" lon="-1.70125">
        <ele>49</ele>
        <time>2020-12-29T14:28:22.000Z</time>
      </trkpt>
      <trkpt lat="47.12738" lon="-1.70118">
        <ele>48</ele>
        <time>2020-12-29T14:28:24.000Z</time>
      </trkpt>
      <trkpt lat="47.1275" lon="-1.70112">
        <ele>49</ele>
        <time>2020-12-29T14:28:26.000Z</time>
      </trkpt>
      <trkpt lat="47.12762" lon="-1.70106">
        <ele>49</ele>
        <time>2020-12-29T14:28:28.000Z</time>
      </trkpt>
      <trkpt lat="47.12774" lon="-1.701">
        <ele>49</ele>
        <time>2020-12-29T14:28:30.000Z</time>
      </trkpt>
      <trkpt lat="47.12786" lon="-1.70094">
        <ele>49</ele>
        <time>2020-12-29T14:28:32.000Z</time>
      </trkpt>
      <trkpt lat="47.12798" lon="-1.70087">
        <ele>49</ele>
        <time>2020-12-29T14:28:34.000Z</time>
      </trkpt>
      <trkpt lat="47.12811" lon="-1.70081">
        <ele>48</ele>
        <time>2020-12-29T14:28:36.000Z</time>
      </trkpt>
      <trkpt lat="47.12822" lon="-1.70076">
        <ele>48</ele>
        <time>2020-12-29T14:28:38.000Z</time>
      </trkpt>
      <trkpt lat="47.12834" lon="-1.70069">
        <ele>48</ele>
        <time>2020-12-29T14:28:40.000Z</time>
      </trkpt>
      <trkpt lat="47.12846" lon="-1.70062">
        <ele>49</ele>
        <time>2020-12-29T14:28:42.000Z</time>
      </trkpt>
      <trkpt lat="47.12858" lon="-1.70056">
        <ele>49</ele>
        <time>2020-12-29T14:28:44.000Z</time>
      </trkpt>
      <trkpt lat="47.1287" lon="-1.7005">
        <ele>49</ele>
        <time>2020-12-29T14:28:46.000Z</time>
      </trkpt>
      <trkpt lat="47.12881" lon="-1.70043">
        <ele>50</ele>
        <time>2020-12-29T14:28:48.000Z</time>
      </trkpt>
      <trkpt lat="47.12893" lon="-1.70037">
        <ele>50</ele>
        <time>2020-12-29T14:28:50.000Z</time>
      </trkpt>
      <trkpt lat="47.12905" lon="-1.70031">
        <ele>50</ele>
        <time>2020-12-29T14:28:52.000Z</time>
      </trkpt>
      <trkpt lat="47.12917" lon="-1.70024">
        <ele>50</ele>
        <time>2020-12-29T14:28:54.000Z</time>
      </trkpt>
      <trkpt lat="47.12929" lon="-1.70018">
        <ele>50</ele>
        <time>2020-12-29T14:28:56.000Z</time>
      </trkpt>
      <trkpt lat="47.12941" lon="-1.70012">
        <ele>50</ele>
        <time>2020-12-29T14:28:58.000Z</time>
      </trkpt>
      <trkpt lat="47.12954" lon="-1.70004">
        <ele>50</ele>
        <time>2020-12-29T14:29:00.000Z</time>
      </trkpt>
      <trkpt lat="47.12965" lon="-1.69999">
        <ele>50</ele>
        <time>2020-12-29T14:29:02.000Z</time>
      </trkpt>
      <trkpt lat="47.12978" lon="-1.69993">
        <ele>49</ele>
        <time>2020-12-29T14:29:04.000Z</time>
      </trkpt>
      <trkpt lat="47.12989" lon="-1.69987">
        <ele>49</ele>
        <time>2020-12-29T14:29:06.000Z</time>
      </trkpt>
      <trkpt lat="47.13002" lon="-1.69981">
        <ele>49</ele>
        <time>2020-12-29T14:29:08.000Z</time>
      </trkpt>
      <trkpt lat="47.13014" lon="-1.69973">
        <ele>49</ele>
        <time>2020-12-29T14:29:10.000Z</time>
      </trkpt>
      <trkpt lat="47.13026" lon="-1.69967">
        <ele>49</ele>
        <time>2020-12-29T14:29:12.000Z</time>
      </trkpt>
      <trkpt lat="47.13039" lon="-1.69961">
        <ele>49</ele>
        <time>2020-12-29T14:29:14.000Z</time>
      </trkpt>
      <trkpt lat="47.1305" lon="-1.69955">
        <ele>49</ele>
        <time>2020-12-29T14:29:16.000Z</time>
      </trkpt>
      <trkpt lat="47.13062" lon="-1.69948">
        <ele>49</ele>
        <time>2020-12-29T14:29:18.000Z</time>
      </trkpt>
      <trkpt lat="47.13074" lon="-1.69941">
        <ele>49</ele>
        <time>2020-12-29T14:29:20.000Z</time>
      </trkpt>
      <trkpt lat="47.13085" lon="-1.69935">
        <ele>48</ele>
        <time>2020-12-29T14:29:22.000Z</time>
      </trkpt>
      <trkpt lat="47.13097" lon="-1.69929">
        <ele>48</ele>
        <time>2020-12-29T14:29:24.000Z</time>
      </trkpt>
      <trkpt lat="47.13109" lon="-1.69923">
        <ele>48</ele>
        <time>2020-12-29T14:29:26.000Z</time>
      </trkpt>
      <trkpt lat="47.13122" lon="-1.69917">
        <ele>48</ele>
        <time>2020-12-29T14:29:28.000Z</time>
      </trkpt>
      <trkpt lat="47.13133" lon="-1.69911">
        <ele>48</ele>
        <time>2020-12-29T14:29:30.000Z</time>
      </trkpt>
      <trkpt lat="47.13144" lon="-1.69905">
        <ele>49</ele>
        <time>2020-12-29T14:29:32.000Z</time>
      </trkpt>
      <trkpt lat="47.13156" lon="-1.69899">
        <ele>49</ele>
        <time>2020-12-29T14:29:34.000Z</time>
      </trkpt>
      <trkpt lat="47.13167" lon="-1.69892">
        <ele>49</ele>
        <time>2020-12-29T14:29:36.000Z</time>
      </trkpt>
      <trkpt lat="47.1318" lon="-1.69885">
        <ele>50</ele>
        <time>2020-12-29T14:29:38.000Z</time>
      </trkpt>
      <trkpt lat="47.13192" lon="-1.69878">
        <ele>51</ele>
        <time>2020-12-29T14:29:40.000Z</time>
      </trkpt>
      <trkpt lat="47.13203" lon="-1.69872">
        <ele>52</ele>
        <time>2020-12-29T14:29:42.000Z</time>
      </trkpt>
      <trkpt lat="47.13216" lon="-1.69865">
        <ele>52</ele>
        <time>2020-12-29T14:29:44.000Z</time>
      </trkpt>
      <trkpt lat="47.1323" lon="-1.69857">
        <ele>51</ele>
        <time>2020-12-29T14:29:46.000Z</time>
      </trkpt>
      <trkpt lat="47.13243" lon="-1.69852">
        <ele>52</ele>
        <time>2020-12-29T14:29:48.000Z</time>
      </trkpt>
      <trkpt lat="47.13256" lon="-1.69846">
        <ele>52</ele>
        <time>2020-12-29T14:29:50.000Z</time>
      </trkpt>
      <trkpt lat="47.13269" lon="-1.6984">
        <ele>52</ele>
        <time>2020-12-29T14:29:52.000Z</time>
      </trkpt>
      <trkpt lat="47.13282" lon="-1.69833">
        <ele>52</ele>
        <time>2020-12-29T14:29:54.000Z</time>
      </trkpt>
      <trkpt lat="47.13295" lon="-1.69826">
        <ele>52</ele>
        <time>2020-12-29T14:29:56.000Z</time>
      </trkpt>
      <trkpt lat="47.13308" lon="-1.69819">
        <ele>52</ele>
        <time>2020-12-29T14:29:58.000Z</time>
      </trkpt>
      <trkpt lat="47.13321" lon="-1.69813">
        <ele>52</ele>
        <time>2020-12-29T14:30:00.000Z</time>
      </trkpt>
      <trkpt lat="47.13334" lon="-1.69806">
        <ele>53</ele>
        <time>2020-12-29T14:30:02.000Z</time>
      </trkpt>
      <trkpt lat="47.13347" lon="-1.69799">
        <ele>54</ele>
        <time>2020-12-29T14:30:04.000Z</time>
      </trkpt>
      <trkpt lat="47.1336" lon="-1.69792">
        <ele>54</ele>
        <time>2020-12-29T14:30:06.000Z</time>
      </trkpt>
      <trkpt lat="47.13373" lon="-1.69786">
        <ele>54</ele>
        <time>2020-12-29T14:30:08.000Z</time>
      </trkpt>
      <trkpt lat="47.13385" lon="-1.69779">
        <ele>54</ele>
        <time>2020-12-29T14:30:10.000Z</time>
      </trkpt>
      <trkpt lat="47.13396" lon="-1.69771">
        <ele>54</ele>
        <time>2020-12-29T14:30:12.000Z</time>
      </trkpt>
      <trkpt lat="47.13407" lon="-1.69762">
        <ele>54</ele>
        <time>2020-12-29T14:30:14.000Z</time>
      </trkpt>
      <trkpt lat="47.13418" lon="-1.69754">
        <ele>54</ele>
        <time>2020-12-29T14:30:16.000Z</time>
      </trkpt>
      <trkpt lat="47.1343" lon="-1.69748">
        <ele>53</ele>
        <time>2020-12-29T14:30:18.000Z</time>
      </trkpt>
      <trkpt lat="47.13442" lon="-1.69743">
        <ele>53</ele>
        <time>2020-12-29T14:30:20.000Z</time>
      </trkpt>
      <trkpt lat="47.13455" lon="-1.69738">
        <ele>53</ele>
        <time>2020-12-29T14:30:22.000Z</time>
      </trkpt>
      <trkpt lat="47.13469" lon="-1.69735">
        <ele>53</ele>
        <time>2020-12-29T14:30:24.000Z</time>
      </trkpt>
      <trkpt lat="47.13484" lon="-1.69734">
        <ele>52</ele>
        <time>2020-12-29T14:30:26.000Z</time>
      </trkpt>
      <trkpt lat="47.13498" lon="-1.69733">
        <ele>51</ele>
        <time>2020-12-29T14:30:28.000Z</time>
      </trkpt>
      <trkpt lat="47.13512" lon="-1.69733">
        <ele>51</ele>
        <time>2020-12-29T14:30:30.000Z</time>
      </trkpt>
      <trkpt lat="47.13526" lon="-1.69733">
        <ele>51</ele>
        <time>2020-12-29T14:30:32.000Z</time>
      </trkpt>
      <trkpt lat="47.1354" lon="-1.69734">
        <ele>50</ele>
        <time>2020-12-29T14:30:34.000Z</time>
      </trkpt>
      <trkpt lat="47.13553" lon="-1.69733">
        <ele>51</ele>
        <time>2020-12-29T14:30:36.000Z</time>
      </trkpt>
      <trkpt lat="47.13565" lon="-1.69733">
        <ele>51</ele>
        <time>2020-12-29T14:30:38.000Z</time>
      </trkpt>
      <trkpt lat="47.13579" lon="-1.69733">
        <ele>51</ele>
        <time>2020-12-29T14:30:40.000Z</time>
      </trkpt>
      <trkpt lat="47.13592" lon="-1.69733">
        <ele>51</ele>
        <time>2020-12-29T14:30:42.000Z</time>
      </trkpt>
      <trkpt lat="47.13605" lon="-1.69733">
        <ele>51</ele>
        <time>2020-12-29T14:30:44.000Z</time>
      </trkpt>
      <trkpt lat="47.13618" lon="-1.69734">
        <ele>52</ele>
        <time>2020-12-29T14:30:46.000Z</time>
      </trkpt>
      <trkpt lat="47.13631" lon="-1.69734">
        <ele>52</ele>
        <time>2020-12-29T14:30:48.000Z</time>
      </trkpt>
      <trkpt lat="47.13644" lon="-1.69734">
        <ele>52</ele>
        <time>2020-12-29T14:30:50.000Z</time>
      </trkpt>
      <trkpt lat="47.13657" lon="-1.69735">
        <ele>52</ele>
        <time>2020-12-29T14:30:52.000Z</time>
      </trkpt>
      <trkpt lat="47.13669" lon="-1.69735">
        <ele>52</ele>
        <time>2020-12-29T14:30:54.000Z</time>
      </trkpt>
      <trkpt lat="47.13682" lon="-1.69735">
        <ele>52</ele>
        <time>2020-12-29T14:30:56.000Z</time>
      </trkpt>
      <trkpt lat="47.13695" lon="-1.69735">
        <ele>52</ele>
        <time>2020-12-29T14:30:58.000Z</time>
      </trkpt>
      <trkpt lat="47.13708" lon="-1.69735">
        <ele>52</ele>
        <time>2020-12-29T14:31:00.000Z</time>
      </trkpt>
      <trkpt lat="47.1372" lon="-1.69733">
        <ele>52</ele>
        <time>2020-12-29T14:31:02.000Z</time>
      </trkpt>
      <trkpt lat="47.13732" lon="-1.69732">
        <ele>52</ele>
        <time>2020-12-29T14:31:04.000Z</time>
      </trkpt>
      <trkpt lat="47.13745" lon="-1.69728">
        <ele>51</ele>
        <time>2020-12-29T14:31:06.000Z</time>
      </trkpt>
      <trkpt lat="47.13756" lon="-1.69726">
        <ele>51</ele>
        <time>2020-12-29T14:31:08.000Z</time>
      </trkpt>
      <trkpt lat="47.13768" lon="-1.69724">
        <ele>52</ele>
        <time>2020-12-29T14:31:10.000Z</time>
      </trkpt>
      <trkpt lat="47.1378" lon="-1.69723">
        <ele>52</ele>
        <time>2020-12-29T14:31:12.000Z</time>
      </trkpt>
      <trkpt lat="47.13793" lon="-1.69723">
        <ele>52</ele>
        <time>2020-12-29T14:31:14.000Z</time>
      </trkpt>
      <trkpt lat="47.13804" lon="-1.69723">
        <ele>52</ele>
        <time>2020-12-29T14:31:16.000Z</time>
      </trkpt>
      <trkpt lat="47.13816" lon="-1.69724">
        <ele>52</ele>
        <time>2020-12-29T14:31:18.000Z</time>
      </trkpt>
      <trkpt lat="47.13828" lon="-1.69725">
        <ele>53</ele>
        <time>2020-12-29T14:31:20.000Z</time>
      </trkpt>
      <trkpt lat="47.13841" lon="-1.69724">
        <ele>53</ele>
        <time>2020-12-29T14:31:22.000Z</time>
      </trkpt>
      <trkpt lat="47.13853" lon="-1.69722">
        <ele>53</ele>
        <time>2020-12-29T14:31:24.000Z</time>
      </trkpt>
      <trkpt lat="47.13865" lon="-1.6972">
        <ele>53</ele>
        <time>2020-12-29T14:31:26.000Z</time>
      </trkpt>
      <trkpt lat="47.13878" lon="-1.69719">
        <ele>54</ele>
        <time>2020-12-29T14:31:28.000Z</time>
      </trkpt>
      <trkpt lat="47.1389" lon="-1.69716">
        <ele>53</ele>
        <time>2020-12-29T14:31:30.000Z</time>
      </trkpt>
      <trkpt lat="47.13902" lon="-1.69715">
        <ele>53</ele>
        <time>2020-12-29T14:31:32.000Z</time>
      </trkpt>
      <trkpt lat="47.13914" lon="-1.69715">
        <ele>53</ele>
        <time>2020-12-29T14:31:34.000Z</time>
      </trkpt>
      <trkpt lat="47.13926" lon="-1.69715">
        <ele>54</ele>
        <time>2020-12-29T14:31:36.000Z</time>
      </trkpt>
      <trkpt lat="47.13938" lon="-1.69715">
        <ele>54</ele>
        <time>2020-12-29T14:31:38.000Z</time>
      </trkpt>
      <trkpt lat="47.13951" lon="-1.69715">
        <ele>54</ele>
        <time>2020-12-29T14:31:40.000Z</time>
      </trkpt>
      <trkpt lat="47.13963" lon="-1.69714">
        <ele>55</ele>
        <time>2020-12-29T14:31:42.000Z</time>
      </trkpt>
      <trkpt lat="47.13974" lon="-1.69716">
        <ele>55</ele>
        <time>2020-12-29T14:31:44.000Z</time>
      </trkpt>
      <trkpt lat="47.13987" lon="-1.69716">
        <ele>56</ele>
        <time>2020-12-29T14:31:46.000Z</time>
      </trkpt>
      <trkpt lat="47.14" lon="-1.69717">
        <ele>56</ele>
        <time>2020-12-29T14:31:48.000Z</time>
      </trkpt>
      <trkpt lat="47.14013" lon="-1.69718">
        <ele>56</ele>
        <time>2020-12-29T14:31:50.000Z</time>
      </trkpt>
      <trkpt lat="47.14025" lon="-1.69719">
        <ele>56</ele>
        <time>2020-12-29T14:31:52.000Z</time>
      </trkpt>
      <trkpt lat="47.14038" lon="-1.69721">
        <ele>58</ele>
        <time>2020-12-29T14:31:54.000Z</time>
      </trkpt>
      <trkpt lat="47.14051" lon="-1.69723">
        <ele>58</ele>
        <time>2020-12-29T14:31:56.000Z</time>
      </trkpt>
      <trkpt lat="47.14064" lon="-1.69725">
        <ele>58</ele>
        <time>2020-12-29T14:31:58.000Z</time>
      </trkpt>
      <trkpt lat="47.14077" lon="-1.69725">
        <ele>58</ele>
        <time>2020-12-29T14:32:00.000Z</time>
      </trkpt>
      <trkpt lat="47.14089" lon="-1.69724">
        <ele>58</ele>
        <time>2020-12-29T14:32:02.000Z</time>
      </trkpt>
      <trkpt lat="47.14102" lon="-1.69723">
        <ele>57</ele>
        <time>2020-12-29T14:32:04.000Z</time>
      </trkpt>
      <trkpt lat="47.14116" lon="-1.69722">
        <ele>56</ele>
        <time>2020-12-29T14:32:06.000Z</time>
      </trkpt>
      <trkpt lat="47.1413" lon="-1.6972">
        <ele>57</ele>
        <time>2020-12-29T14:32:08.000Z</time>
      </trkpt>
      <trkpt lat="47.14143" lon="-1.69719">
        <ele>56</ele>
        <time>2020-12-29T14:32:10.000Z</time>
      </trkpt>
      <trkpt lat="47.14156" lon="-1.69716">
        <ele>56</ele>
        <time>2020-12-29T14:32:12.000Z</time>
      </trkpt>
      <trkpt lat="47.14169" lon="-1.69713">
        <ele>56</ele>
        <time>2020-12-29T14:32:14.000Z</time>
      </trkpt>
      <trkpt lat="47.14182" lon="-1.69712">
        <ele>56</ele>
        <time>2020-12-29T14:32:16.000Z</time>
      </trkpt>
      <trkpt lat="47.14195" lon="-1.6971">
        <ele>56</ele>
        <time>2020-12-29T14:32:18.000Z</time>
      </trkpt>
      <trkpt lat="47.14208" lon="-1.69708">
        <ele>56</ele>
        <time>2020-12-29T14:32:20.000Z</time>
      </trkpt>
      <trkpt lat="47.14221" lon="-1.69706">
        <ele>56</ele>
        <time>2020-12-29T14:32:22.000Z</time>
      </trkpt>
      <trkpt lat="47.14233" lon="-1.69705">
        <ele>56</ele>
        <time>2020-12-29T14:32:24.000Z</time>
      </trkpt>
      <trkpt lat="47.14245" lon="-1.69703">
        <ele>57</ele>
        <time>2020-12-29T14:32:26.000Z</time>
      </trkpt>
      <trkpt lat="47.14256" lon="-1.69701">
        <ele>57</ele>
        <time>2020-12-29T14:32:28.000Z</time>
      </trkpt>
      <trkpt lat="47.14268" lon="-1.69701">
        <ele>57</ele>
        <time>2020-12-29T14:32:30.000Z</time>
      </trkpt>
      <trkpt lat="47.1428" lon="-1.69702">
        <ele>57</ele>
        <time>2020-12-29T14:32:32.000Z</time>
      </trkpt>
      <trkpt lat="47.14292" lon="-1.69704">
        <ele>58</ele>
        <time>2020-12-29T14:32:34.000Z</time>
      </trkpt>
      <trkpt lat="47.14303" lon="-1.69705">
        <ele>58</ele>
        <time>2020-12-29T14:32:36.000Z</time>
      </trkpt>
      <trkpt lat="47.14313" lon="-1.69705">
        <ele>58</ele>
        <time>2020-12-29T14:32:38.000Z</time>
      </trkpt>
      <trkpt lat="47.14325" lon="-1.69699">
        <ele>58</ele>
        <time>2020-12-29T14:32:41.000Z</time>
      </trkpt>
      <trkpt lat="47.1433" lon="-1.69689">
        <ele>58</ele>
        <time>2020-12-29T14:32:43.000Z</time>
      </trkpt>
      <trkpt lat="47.14333" lon="-1.69674">
        <ele>58</ele>
        <time>2020-12-29T14:32:45.000Z</time>
      </trkpt>
      <trkpt lat="47.14336" lon="-1.6966">
        <ele>59</ele>
        <time>2020-12-29T14:32:47.000Z</time>
      </trkpt>
      <trkpt lat="47.14339" lon="-1.69644">
        <ele>60</ele>
        <time>2020-12-29T14:32:49.000Z</time>
      </trkpt>
      <trkpt lat="47.14343" lon="-1.69629">
        <ele>61</ele>
        <time>2020-12-29T14:32:51.000Z</time>
      </trkpt>
      <trkpt lat="47.14347" lon="-1.69615">
        <ele>61</ele>
        <time>2020-12-29T14:32:53.000Z</time>
      </trkpt>
      <trkpt lat="47.14352" lon="-1.69601">
        <ele>61</ele>
        <time>2020-12-29T14:32:55.000Z</time>
      </trkpt>
      <trkpt lat="47.14356" lon="-1.69587">
        <ele>62</ele>
        <time>2020-12-29T14:32:57.000Z</time>
      </trkpt>
      <trkpt lat="47.1436" lon="-1.69572">
        <ele>62</ele>
        <time>2020-12-29T14:32:59.000Z</time>
      </trkpt>
      <trkpt lat="47.14365" lon="-1.69558">
        <ele>62</ele>
        <time>2020-12-29T14:33:01.000Z</time>
      </trkpt>
      <trkpt lat="47.14368" lon="-1.69544">
        <ele>63</ele>
        <time>2020-12-29T14:33:03.000Z</time>
      </trkpt>
      <trkpt lat="47.14371" lon="-1.69529">
        <ele>63</ele>
        <time>2020-12-29T14:33:05.000Z</time>
      </trkpt>
      <trkpt lat="47.14373" lon="-1.69514">
        <ele>64</ele>
        <time>2020-12-29T14:33:07.000Z</time>
      </trkpt>
      <trkpt lat="47.14375" lon="-1.69498">
        <ele>64</ele>
        <time>2020-12-29T14:33:09.000Z</time>
      </trkpt>
      <trkpt lat="47.14376" lon="-1.69482">
        <ele>64</ele>
        <time>2020-12-29T14:33:11.000Z</time>
      </trkpt>
      <trkpt lat="47.14376" lon="-1.69467">
        <ele>64</ele>
        <time>2020-12-29T14:33:13.000Z</time>
      </trkpt>
      <trkpt lat="47.14376" lon="-1.69451">
        <ele>65</ele>
        <time>2020-12-29T14:33:15.000Z</time>
      </trkpt>
      <trkpt lat="47.14377" lon="-1.69436">
        <ele>65</ele>
        <time>2020-12-29T14:33:17.000Z</time>
      </trkpt>
      <trkpt lat="47.14377" lon="-1.69421">
        <ele>66</ele>
        <time>2020-12-29T14:33:19.000Z</time>
      </trkpt>
      <trkpt lat="47.14379" lon="-1.69404">
        <ele>66</ele>
        <time>2020-12-29T14:33:22.000Z</time>
      </trkpt>
      <trkpt lat="47.14381" lon="-1.6939">
        <ele>67</ele>
        <time>2020-12-29T14:33:25.000Z</time>
      </trkpt>
      <trkpt lat="47.14382" lon="-1.69374">
        <ele>67</ele>
        <time>2020-12-29T14:33:29.000Z</time>
      </trkpt>
      <trkpt lat="47.14384" lon="-1.69354">
        <ele>67</ele>
        <time>2020-12-29T14:33:32.000Z</time>
      </trkpt>
      <trkpt lat="47.14385" lon="-1.69336">
        <ele>66</ele>
        <time>2020-12-29T14:33:34.000Z</time>
      </trkpt>
      <trkpt lat="47.14387" lon="-1.69319">
        <ele>66</ele>
        <time>2020-12-29T14:33:36.000Z</time>
      </trkpt>
      <trkpt lat="47.14389" lon="-1.69301">
        <ele>67</ele>
        <time>2020-12-29T14:33:38.000Z</time>
      </trkpt>
      <trkpt lat="47.1439" lon="-1.69282">
        <ele>67</ele>
        <time>2020-12-29T14:33:40.000Z</time>
      </trkpt>
      <trkpt lat="47.1439" lon="-1.69264">
        <ele>68</ele>
        <time>2020-12-29T14:33:42.000Z</time>
      </trkpt>
      <trkpt lat="47.1439" lon="-1.69246">
        <ele>68</ele>
        <time>2020-12-29T14:33:44.000Z</time>
      </trkpt>
      <trkpt lat="47.1439" lon="-1.69228">
        <ele>68</ele>
        <time>2020-12-29T14:33:46.000Z</time>
      </trkpt>
      <trkpt lat="47.1439" lon="-1.69209">
        <ele>69</ele>
        <time>2020-12-29T14:33:48.000Z</time>
      </trkpt>
      <trkpt lat="47.1439" lon="-1.69191">
        <ele>69</ele>
        <time>2020-12-29T14:33:50.000Z</time>
      </trkpt>
      <trkpt lat="47.14391" lon="-1.69172">
        <ele>69</ele>
        <time>2020-12-29T14:33:52.000Z</time>
      </trkpt>
      <trkpt lat="47.14391" lon="-1.69154">
        <ele>69</ele>
        <time>2020-12-29T14:33:54.000Z</time>
      </trkpt>
      <trkpt lat="47.14391" lon="-1.69136">
        <ele>69</ele>
        <time>2020-12-29T14:33:56.000Z</time>
      </trkpt>
      <trkpt lat="47.14391" lon="-1.69118">
        <ele>69</ele>
        <time>2020-12-29T14:33:58.000Z</time>
      </trkpt>
      <trkpt lat="47.14391" lon="-1.69101">
        <ele>70</ele>
        <time>2020-12-29T14:34:00.000Z</time>
      </trkpt>
      <trkpt lat="47.14392" lon="-1.69082">
        <ele>69</ele>
        <time>2020-12-29T14:34:02.000Z</time>
      </trkpt>
      <trkpt lat="47.14392" lon="-1.69064">
        <ele>69</ele>
        <time>2020-12-29T14:34:04.000Z</time>
      </trkpt>
      <trkpt lat="47.14393" lon="-1.69046">
        <ele>69</ele>
        <time>2020-12-29T14:34:06.000Z</time>
      </trkpt>
      <trkpt lat="47.14393" lon="-1.69029">
        <ele>69</ele>
        <time>2020-12-29T14:34:08.000Z</time>
      </trkpt>
      <trkpt lat="47.14394" lon="-1.69011">
        <ele>69</ele>
        <time>2020-12-29T14:34:10.000Z</time>
      </trkpt>
      <trkpt lat="47.14395" lon="-1.68993">
        <ele>68</ele>
        <time>2020-12-29T14:34:12.000Z</time>
      </trkpt>
      <trkpt lat="47.14395" lon="-1.68976">
        <ele>68</ele>
        <time>2020-12-29T14:34:14.000Z</time>
      </trkpt>
      <trkpt lat="47.14395" lon="-1.68957">
        <ele>68</ele>
        <time>2020-12-29T14:34:16.000Z</time>
      </trkpt>
      <trkpt lat="47.14396" lon="-1.68938">
        <ele>68</ele>
        <time>2020-12-29T14:34:18.000Z</time>
      </trkpt>
      <trkpt lat="47.14397" lon="-1.68919">
        <ele>68</ele>
        <time>2020-12-29T14:34:20.000Z</time>
      </trkpt>
      <trkpt lat="47.14397" lon="-1.689">
        <ele>68</ele>
        <time>2020-12-29T14:34:22.000Z</time>
      </trkpt>
      <trkpt lat="47.14399" lon="-1.68882">
        <ele>68</ele>
        <time>2020-12-29T14:34:24.000Z</time>
      </trkpt>
      <trkpt lat="47.14402" lon="-1.68863">
        <ele>68</ele>
        <time>2020-12-29T14:34:26.000Z</time>
      </trkpt>
      <trkpt lat="47.14404" lon="-1.68844">
        <ele>68</ele>
        <time>2020-12-29T14:34:28.000Z</time>
      </trkpt>
      <trkpt lat="47.14405" lon="-1.68825">
        <ele>68</ele>
        <time>2020-12-29T14:34:30.000Z</time>
      </trkpt>
      <trkpt lat="47.14407" lon="-1.68805">
        <ele>67</ele>
        <time>2020-12-29T14:34:32.000Z</time>
      </trkpt>
      <trkpt lat="47.14408" lon="-1.68786">
        <ele>67</ele>
        <time>2020-12-29T14:34:34.000Z</time>
      </trkpt>
      <trkpt lat="47.1441" lon="-1.68766">
        <ele>66</ele>
        <time>2020-12-29T14:34:36.000Z</time>
      </trkpt>
      <trkpt lat="47.1441" lon="-1.68746">
        <ele>67</ele>
        <time>2020-12-29T14:34:38.000Z</time>
      </trkpt>
      <trkpt lat="47.14412" lon="-1.68726">
        <ele>66</ele>
        <time>2020-12-29T14:34:40.000Z</time>
      </trkpt>
      <trkpt lat="47.14414" lon="-1.68708">
        <ele>66</ele>
        <time>2020-12-29T14:34:42.000Z</time>
      </trkpt>
      <trkpt lat="47.14413" lon="-1.68693">
        <ele>66</ele>
        <time>2020-12-29T14:34:44.000Z</time>
      </trkpt>
      <trkpt lat="47.14407" lon="-1.68676">
        <ele>66</ele>
        <time>2020-12-29T14:34:46.000Z</time>
      </trkpt>
      <trkpt lat="47.14405" lon="-1.68659">
        <ele>65</ele>
        <time>2020-12-29T14:34:48.000Z</time>
      </trkpt>
      <trkpt lat="47.14399" lon="-1.68643">
        <ele>65</ele>
        <time>2020-12-29T14:34:50.000Z</time>
      </trkpt>
      <trkpt lat="47.14393" lon="-1.68627">
        <ele>65</ele>
        <time>2020-12-29T14:34:52.000Z</time>
      </trkpt>
      <trkpt lat="47.14391" lon="-1.68607">
        <ele>64</ele>
        <time>2020-12-29T14:34:54.000Z</time>
      </trkpt>
      <trkpt lat="47.14388" lon="-1.68588">
        <ele>64</ele>
        <time>2020-12-29T14:34:56.000Z</time>
      </trkpt>
      <trkpt lat="47.14388" lon="-1.68567">
        <ele>64</ele>
        <time>2020-12-29T14:34:58.000Z</time>
      </trkpt>
      <trkpt lat="47.14387" lon="-1.68547">
        <ele>64</ele>
        <time>2020-12-29T14:35:00.000Z</time>
      </trkpt>
      <trkpt lat="47.14387" lon="-1.68527">
        <ele>64</ele>
        <time>2020-12-29T14:35:02.000Z</time>
      </trkpt>
      <trkpt lat="47.14388" lon="-1.68508">
        <ele>64</ele>
        <time>2020-12-29T14:35:04.000Z</time>
      </trkpt>
      <trkpt lat="47.1439" lon="-1.68489">
        <ele>64</ele>
        <time>2020-12-29T14:35:06.000Z</time>
      </trkpt>
      <trkpt lat="47.14391" lon="-1.68469">
        <ele>64</ele>
        <time>2020-12-29T14:35:08.000Z</time>
      </trkpt>
      <trkpt lat="47.14392" lon="-1.6845">
        <ele>64</ele>
        <time>2020-12-29T14:35:10.000Z</time>
      </trkpt>
      <trkpt lat="47.14394" lon="-1.68429">
        <ele>63</ele>
        <time>2020-12-29T14:35:12.000Z</time>
      </trkpt>
      <trkpt lat="47.14396" lon="-1.68409">
        <ele>63</ele>
        <time>2020-12-29T14:35:14.000Z</time>
      </trkpt>
      <trkpt lat="47.14396" lon="-1.68389">
        <ele>62</ele>
        <time>2020-12-29T14:35:16.000Z</time>
      </trkpt>
      <trkpt lat="47.14395" lon="-1.6837">
        <ele>62</ele>
        <time>2020-12-29T14:35:18.000Z</time>
      </trkpt>
      <trkpt lat="47.14393" lon="-1.68352">
        <ele>62</ele>
        <time>2020-12-29T14:35:20.000Z</time>
      </trkpt>
      <trkpt lat="47.1439" lon="-1.68332">
        <ele>61</ele>
        <time>2020-12-29T14:35:22.000Z</time>
      </trkpt>
      <trkpt lat="47.14386" lon="-1.68313">
        <ele>61</ele>
        <time>2020-12-29T14:35:24.000Z</time>
      </trkpt>
      <trkpt lat="47.14381" lon="-1.68294">
        <ele>61</ele>
        <time>2020-12-29T14:35:26.000Z</time>
      </trkpt>
      <trkpt lat="47.14376" lon="-1.68277">
        <ele>62</ele>
        <time>2020-12-29T14:35:28.000Z</time>
      </trkpt>
      <trkpt lat="47.14372" lon="-1.68259">
        <ele>62</ele>
        <time>2020-12-29T14:35:30.000Z</time>
      </trkpt>
      <trkpt lat="47.1437" lon="-1.68241">
        <ele>63</ele>
        <time>2020-12-29T14:35:32.000Z</time>
      </trkpt>
      <trkpt lat="47.1437" lon="-1.68222">
        <ele>63</ele>
        <time>2020-12-29T14:35:34.000Z</time>
      </trkpt>
      <trkpt lat="47.14372" lon="-1.68203">
        <ele>64</ele>
        <time>2020-12-29T14:35:36.000Z</time>
      </trkpt>
      <trkpt lat="47.14371" lon="-1.68183">
        <ele>64</ele>
        <time>2020-12-29T14:35:38.000Z</time>
      </trkpt>
      <trkpt lat="47.14368" lon="-1.68165">
        <ele>65</ele>
        <time>2020-12-29T14:35:40.000Z</time>
      </trkpt>
      <trkpt lat="47.14367" lon="-1.68148">
        <ele>65</ele>
        <time>2020-12-29T14:35:42.000Z</time>
      </trkpt>
      <trkpt lat="47.14368" lon="-1.68131">
        <ele>65</ele>
        <time>2020-12-29T14:35:44.000Z</time>
      </trkpt>
      <trkpt lat="47.14368" lon="-1.68116">
        <ele>65</ele>
        <time>2020-12-29T14:35:47.000Z</time>
      </trkpt>
      <trkpt lat="47.14367" lon="-1.68103">
        <ele>65</ele>
        <time>2020-12-29T14:35:49.000Z</time>
      </trkpt>
      <trkpt lat="47.14365" lon="-1.68083">
        <ele>66</ele>
        <time>2020-12-29T14:35:51.000Z</time>
      </trkpt>
      <trkpt lat="47.14365" lon="-1.68062">
        <ele>66</ele>
        <time>2020-12-29T14:35:53.000Z</time>
      </trkpt>
      <trkpt lat="47.14364" lon="-1.68041">
        <ele>66</ele>
        <time>2020-12-29T14:35:55.000Z</time>
      </trkpt>
      <trkpt lat="47.14363" lon="-1.6802">
        <ele>65</ele>
        <time>2020-12-29T14:35:57.000Z</time>
      </trkpt>
      <trkpt lat="47.14362" lon="-1.67999">
        <ele>65</ele>
        <time>2020-12-29T14:35:59.000Z</time>
      </trkpt>
      <trkpt lat="47.1436" lon="-1.6798">
        <ele>66</ele>
        <time>2020-12-29T14:36:01.000Z</time>
      </trkpt>
      <trkpt lat="47.14359" lon="-1.6796">
        <ele>65</ele>
        <time>2020-12-29T14:36:03.000Z</time>
      </trkpt>
      <trkpt lat="47.14357" lon="-1.67941">
        <ele>65</ele>
        <time>2020-12-29T14:36:05.000Z</time>
      </trkpt>
      <trkpt lat="47.14356" lon="-1.67923">
        <ele>65</ele>
        <time>2020-12-29T14:36:07.000Z</time>
      </trkpt>
      <trkpt lat="47.14351" lon="-1.67905">
        <ele>64</ele>
        <time>2020-12-29T14:36:09.000Z</time>
      </trkpt>
      <trkpt lat="47.14344" lon="-1.67889">
        <ele>64</ele>
        <time>2020-12-29T14:36:11.000Z</time>
      </trkpt>
      <trkpt lat="47.14339" lon="-1.67872">
        <ele>64</ele>
        <time>2020-12-29T14:36:13.000Z</time>
      </trkpt>
      <trkpt lat="47.14341" lon="-1.67852">
        <ele>64</ele>
        <time>2020-12-29T14:36:15.000Z</time>
      </trkpt>
      <trkpt lat="47.14343" lon="-1.67832">
        <ele>64</ele>
        <time>2020-12-29T14:36:17.000Z</time>
      </trkpt>
      <trkpt lat="47.14343" lon="-1.67811">
        <ele>64</ele>
        <time>2020-12-29T14:36:19.000Z</time>
      </trkpt>
      <trkpt lat="47.1434" lon="-1.67791">
        <ele>64</ele>
        <time>2020-12-29T14:36:21.000Z</time>
      </trkpt>
      <trkpt lat="47.14337" lon="-1.67773">
        <ele>63</ele>
        <time>2020-12-29T14:36:23.000Z</time>
      </trkpt>
      <trkpt lat="47.14332" lon="-1.67755">
        <ele>63</ele>
        <time>2020-12-29T14:36:25.000Z</time>
      </trkpt>
      <trkpt lat="47.14328" lon="-1.67737">
        <ele>64</ele>
        <time>2020-12-29T14:36:27.000Z</time>
      </trkpt>
      <trkpt lat="47.14323" lon="-1.67719">
        <ele>64</ele>
        <time>2020-12-29T14:36:29.000Z</time>
      </trkpt>
      <trkpt lat="47.14318" lon="-1.677">
        <ele>64</ele>
        <time>2020-12-29T14:36:31.000Z</time>
      </trkpt>
      <trkpt lat="47.14313" lon="-1.67681">
        <ele>65</ele>
        <time>2020-12-29T14:36:33.000Z</time>
      </trkpt>
      <trkpt lat="47.1431" lon="-1.67661">
        <ele>64</ele>
        <time>2020-12-29T14:36:35.000Z</time>
      </trkpt>
      <trkpt lat="47.14308" lon="-1.67641">
        <ele>64</ele>
        <time>2020-12-29T14:36:37.000Z</time>
      </trkpt>
      <trkpt lat="47.14306" lon="-1.6762">
        <ele>63</ele>
        <time>2020-12-29T14:36:39.000Z</time>
      </trkpt>
      <trkpt lat="47.14305" lon="-1.67598">
        <ele>63</ele>
        <time>2020-12-29T14:36:41.000Z</time>
      </trkpt>
      <trkpt lat="47.14303" lon="-1.67577">
        <ele>63</ele>
        <time>2020-12-29T14:36:43.000Z</time>
      </trkpt>
      <trkpt lat="47.14301" lon="-1.67557">
        <ele>63</ele>
        <time>2020-12-29T14:36:45.000Z</time>
      </trkpt>
      <trkpt lat="47.14299" lon="-1.67537">
        <ele>63</ele>
        <time>2020-12-29T14:36:47.000Z</time>
      </trkpt>
      <trkpt lat="47.14295" lon="-1.67517">
        <ele>63</ele>
        <time>2020-12-29T14:36:49.000Z</time>
      </trkpt>
      <trkpt lat="47.14291" lon="-1.67498">
        <ele>63</ele>
        <time>2020-12-29T14:36:51.000Z</time>
      </trkpt>
      <trkpt lat="47.14286" lon="-1.67478">
        <ele>63</ele>
        <time>2020-12-29T14:36:53.000Z</time>
      </trkpt>
      <trkpt lat="47.14281" lon="-1.6746">
        <ele>63</ele>
        <time>2020-12-29T14:36:55.000Z</time>
      </trkpt>
      <trkpt lat="47.14275" lon="-1.67442">
        <ele>63</ele>
        <time>2020-12-29T14:36:57.000Z</time>
      </trkpt>
      <trkpt lat="47.1427" lon="-1.67425">
        <ele>64</ele>
        <time>2020-12-29T14:36:59.000Z</time>
      </trkpt>
      <trkpt lat="47.14263" lon="-1.67409">
        <ele>64</ele>
        <time>2020-12-29T14:37:01.000Z</time>
      </trkpt>
      <trkpt lat="47.14257" lon="-1.67394">
        <ele>65</ele>
        <time>2020-12-29T14:37:03.000Z</time>
      </trkpt>
      <trkpt lat="47.14251" lon="-1.67379">
        <ele>65</ele>
        <time>2020-12-29T14:37:05.000Z</time>
      </trkpt>
      <trkpt lat="47.14244" lon="-1.67365">
        <ele>65</ele>
        <time>2020-12-29T14:37:07.000Z</time>
      </trkpt>
      <trkpt lat="47.14239" lon="-1.6735">
        <ele>64</ele>
        <time>2020-12-29T14:37:09.000Z</time>
      </trkpt>
      <trkpt lat="47.14233" lon="-1.67336">
        <ele>64</ele>
        <time>2020-12-29T14:37:11.000Z</time>
      </trkpt>
      <trkpt lat="47.14228" lon="-1.67322">
        <ele>64</ele>
        <time>2020-12-29T14:37:13.000Z</time>
      </trkpt>
      <trkpt lat="47.14222" lon="-1.67308">
        <ele>64</ele>
        <time>2020-12-29T14:37:15.000Z</time>
      </trkpt>
      <trkpt lat="47.14215" lon="-1.67293">
        <ele>64</ele>
        <time>2020-12-29T14:37:17.000Z</time>
      </trkpt>
      <trkpt lat="47.14209" lon="-1.67278">
        <ele>64</ele>
        <time>2020-12-29T14:37:19.000Z</time>
      </trkpt>
      <trkpt lat="47.14202" lon="-1.6726">
        <ele>64</ele>
        <time>2020-12-29T14:37:21.000Z</time>
      </trkpt>
      <trkpt lat="47.14195" lon="-1.67242">
        <ele>64</ele>
        <time>2020-12-29T14:37:23.000Z</time>
      </trkpt>
      <trkpt lat="47.14191" lon="-1.6722">
        <ele>64</ele>
        <time>2020-12-29T14:37:25.000Z</time>
      </trkpt>
      <trkpt lat="47.14186" lon="-1.67197">
        <ele>63</ele>
        <time>2020-12-29T14:37:27.000Z</time>
      </trkpt>
      <trkpt lat="47.14182" lon="-1.67176">
        <ele>63</ele>
        <time>2020-12-29T14:37:29.000Z</time>
      </trkpt>
      <trkpt lat="47.14178" lon="-1.67154">
        <ele>63</ele>
        <time>2020-12-29T14:37:31.000Z</time>
      </trkpt>
      <trkpt lat="47.14174" lon="-1.67133">
        <ele>63</ele>
        <time>2020-12-29T14:37:33.000Z</time>
      </trkpt>
      <trkpt lat="47.14171" lon="-1.67112">
        <ele>63</ele>
        <time>2020-12-29T14:37:35.000Z</time>
      </trkpt>
      <trkpt lat="47.14168" lon="-1.67091">
        <ele>64</ele>
        <time>2020-12-29T14:37:37.000Z</time>
      </trkpt>
      <trkpt lat="47.14166" lon="-1.6707">
        <ele>63</ele>
        <time>2020-12-29T14:37:39.000Z</time>
      </trkpt>
      <trkpt lat="47.14164" lon="-1.67049">
        <ele>63</ele>
        <time>2020-12-29T14:37:41.000Z</time>
      </trkpt>
      <trkpt lat="47.14162" lon="-1.67028">
        <ele>64</ele>
        <time>2020-12-29T14:37:43.000Z</time>
      </trkpt>
      <trkpt lat="47.14161" lon="-1.67006">
        <ele>64</ele>
        <time>2020-12-29T14:37:45.000Z</time>
      </trkpt>
      <trkpt lat="47.14161" lon="-1.66984">
        <ele>63</ele>
        <time>2020-12-29T14:37:47.000Z</time>
      </trkpt>
      <trkpt lat="47.14161" lon="-1.66962">
        <ele>63</ele>
        <time>2020-12-29T14:37:49.000Z</time>
      </trkpt>
      <trkpt lat="47.14162" lon="-1.66941">
        <ele>63</ele>
        <time>2020-12-29T14:37:51.000Z</time>
      </trkpt>
      <trkpt lat="47.14164" lon="-1.66919">
        <ele>63</ele>
        <time>2020-12-29T14:37:53.000Z</time>
      </trkpt>
      <trkpt lat="47.14168" lon="-1.66898">
        <ele>63</ele>
        <time>2020-12-29T14:37:55.000Z</time>
      </trkpt>
      <trkpt lat="47.14174" lon="-1.66879">
        <ele>63</ele>
        <time>2020-12-29T14:37:57.000Z</time>
      </trkpt>
      <trkpt lat="47.1418" lon="-1.6686">
        <ele>63</ele>
        <time>2020-12-29T14:37:59.000Z</time>
      </trkpt>
      <trkpt lat="47.14187" lon="-1.6684">
        <ele>62</ele>
        <time>2020-12-29T14:38:01.000Z</time>
      </trkpt>
      <trkpt lat="47.14194" lon="-1.66819">
        <ele>62</ele>
        <time>2020-12-29T14:38:03.000Z</time>
      </trkpt>
      <trkpt lat="47.14201" lon="-1.66798">
        <ele>61</ele>
        <time>2020-12-29T14:38:05.000Z</time>
      </trkpt>
      <trkpt lat="47.14208" lon="-1.66778">
        <ele>61</ele>
        <time>2020-12-29T14:38:07.000Z</time>
      </trkpt>
      <trkpt lat="47.14215" lon="-1.66759">
        <ele>61</ele>
        <time>2020-12-29T14:38:09.000Z</time>
      </trkpt>
      <trkpt lat="47.14222" lon="-1.6674">
        <ele>60</ele>
        <time>2020-12-29T14:38:11.000Z</time>
      </trkpt>
      <trkpt lat="47.14228" lon="-1.66722">
        <ele>60</ele>
        <time>2020-12-29T14:38:13.000Z</time>
      </trkpt>
      <trkpt lat="47.14234" lon="-1.66703">
        <ele>60</ele>
        <time>2020-12-29T14:38:15.000Z</time>
      </trkpt>
      <trkpt lat="47.1424" lon="-1.66685">
        <ele>60</ele>
        <time>2020-12-29T14:38:17.000Z</time>
      </trkpt>
      <trkpt lat="47.14246" lon="-1.66666">
        <ele>61</ele>
        <time>2020-12-29T14:38:19.000Z</time>
      </trkpt>
      <trkpt lat="47.14252" lon="-1.66648">
        <ele>61</ele>
        <time>2020-12-29T14:38:21.000Z</time>
      </trkpt>
      <trkpt lat="47.14258" lon="-1.66631">
        <ele>61</ele>
        <time>2020-12-29T14:38:23.000Z</time>
      </trkpt>
      <trkpt lat="47.14264" lon="-1.66612">
        <ele>62</ele>
        <time>2020-12-29T14:38:25.000Z</time>
      </trkpt>
      <trkpt lat="47.14269" lon="-1.66594">
        <ele>62</ele>
        <time>2020-12-29T14:38:27.000Z</time>
      </trkpt>
      <trkpt lat="47.14274" lon="-1.66575">
        <ele>62</ele>
        <time>2020-12-29T14:38:29.000Z</time>
      </trkpt>
      <trkpt lat="47.14279" lon="-1.66558">
        <ele>63</ele>
        <time>2020-12-29T14:38:31.000Z</time>
      </trkpt>
      <trkpt lat="47.14283" lon="-1.66539">
        <ele>63</ele>
        <time>2020-12-29T14:38:33.000Z</time>
      </trkpt>
      <trkpt lat="47.14288" lon="-1.66521">
        <ele>63</ele>
        <time>2020-12-29T14:38:35.000Z</time>
      </trkpt>
      <trkpt lat="47.14292" lon="-1.66503">
        <ele>64</ele>
        <time>2020-12-29T14:38:37.000Z</time>
      </trkpt>
      <trkpt lat="47.14296" lon="-1.66485">
        <ele>64</ele>
        <time>2020-12-29T14:38:39.000Z</time>
      </trkpt>
      <trkpt lat="47.14301" lon="-1.66466">
        <ele>64</ele>
        <time>2020-12-29T14:38:41.000Z</time>
      </trkpt>
      <trkpt lat="47.14305" lon="-1.66447">
        <ele>64</ele>
        <time>2020-12-29T14:38:43.000Z</time>
      </trkpt>
      <trkpt lat="47.1431" lon="-1.66429">
        <ele>64</ele>
        <time>2020-12-29T14:38:45.000Z</time>
      </trkpt>
      <trkpt lat="47.14315" lon="-1.6641">
        <ele>65</ele>
        <time>2020-12-29T14:38:47.000Z</time>
      </trkpt>
      <trkpt lat="47.14319" lon="-1.66392">
        <ele>65</ele>
        <time>2020-12-29T14:38:49.000Z</time>
      </trkpt>
      <trkpt lat="47.14324" lon="-1.66373">
        <ele>65</ele>
        <time>2020-12-29T14:38:51.000Z</time>
      </trkpt>
      <trkpt lat="47.14328" lon="-1.66354">
        <ele>65</ele>
        <time>2020-12-29T14:38:53.000Z</time>
      </trkpt>
      <trkpt lat="47.14332" lon="-1.66336">
        <ele>65</ele>
        <time>2020-12-29T14:38:55.000Z</time>
      </trkpt>
      <trkpt lat="47.14337" lon="-1.66318">
        <ele>65</ele>
        <time>2020-12-29T14:38:57.000Z</time>
      </trkpt>
      <trkpt lat="47.14341" lon="-1.66299">
        <ele>65</ele>
        <time>2020-12-29T14:38:59.000Z</time>
      </trkpt>
      <trkpt lat="47.14345" lon="-1.6628">
        <ele>65</ele>
        <time>2020-12-29T14:39:01.000Z</time>
      </trkpt>
      <trkpt lat="47.14348" lon="-1.66263">
        <ele>65</ele>
        <time>2020-12-29T14:39:03.000Z</time>
      </trkpt>
      <trkpt lat="47.14352" lon="-1.66245">
        <ele>66</ele>
        <time>2020-12-29T14:39:05.000Z</time>
      </trkpt>
      <trkpt lat="47.14357" lon="-1.66226">
        <ele>65</ele>
        <time>2020-12-29T14:39:07.000Z</time>
      </trkpt>
      <trkpt lat="47.14361" lon="-1.66209">
        <ele>66</ele>
        <time>2020-12-29T14:39:09.000Z</time>
      </trkpt>
      <trkpt lat="47.1436" lon="-1.66193">
        <ele>66</ele>
        <time>2020-12-29T14:39:11.000Z</time>
      </trkpt>
      <trkpt lat="47.14361" lon="-1.66178">
        <ele>66</ele>
        <time>2020-12-29T14:39:13.000Z</time>
      </trkpt>
      <trkpt lat="47.14369" lon="-1.66162">
        <ele>65</ele>
        <time>2020-12-29T14:39:16.000Z</time>
      </trkpt>
      <trkpt lat="47.14374" lon="-1.66149">
        <ele>65</ele>
        <time>2020-12-29T14:39:18.000Z</time>
      </trkpt>
      <trkpt lat="47.14377" lon="-1.66131">
        <ele>65</ele>
        <time>2020-12-29T14:39:20.000Z</time>
      </trkpt>
      <trkpt lat="47.14379" lon="-1.66112">
        <ele>65</ele>
        <time>2020-12-29T14:39:22.000Z</time>
      </trkpt>
      <trkpt lat="47.14381" lon="-1.66093">
        <ele>66</ele>
        <time>2020-12-29T14:39:24.000Z</time>
      </trkpt>
      <trkpt lat="47.14383" lon="-1.66073">
        <ele>66</ele>
        <time>2020-12-29T14:39:26.000Z</time>
      </trkpt>
      <trkpt lat="47.14384" lon="-1.66054">
        <ele>66</ele>
        <time>2020-12-29T14:39:28.000Z</time>
      </trkpt>
      <trkpt lat="47.14386" lon="-1.66034">
        <ele>66</ele>
        <time>2020-12-29T14:39:30.000Z</time>
      </trkpt>
      <trkpt lat="47.14387" lon="-1.66015">
        <ele>66</ele>
        <time>2020-12-29T14:39:32.000Z</time>
      </trkpt>
      <trkpt lat="47.14389" lon="-1.65996">
        <ele>66</ele>
        <time>2020-12-29T14:39:34.000Z</time>
      </trkpt>
      <trkpt lat="47.14389" lon="-1.65977">
        <ele>66</ele>
        <time>2020-12-29T14:39:36.000Z</time>
      </trkpt>
      <trkpt lat="47.14391" lon="-1.65958">
        <ele>66</ele>
        <time>2020-12-29T14:39:38.000Z</time>
      </trkpt>
      <trkpt lat="47.14392" lon="-1.65939">
        <ele>66</ele>
        <time>2020-12-29T14:39:40.000Z</time>
      </trkpt>
      <trkpt lat="47.14392" lon="-1.65919">
        <ele>66</ele>
        <time>2020-12-29T14:39:42.000Z</time>
      </trkpt>
      <trkpt lat="47.14393" lon="-1.659">
        <ele>66</ele>
        <time>2020-12-29T14:39:44.000Z</time>
      </trkpt>
      <trkpt lat="47.14394" lon="-1.6588">
        <ele>65</ele>
        <time>2020-12-29T14:39:46.000Z</time>
      </trkpt>
      <trkpt lat="47.14396" lon="-1.65862">
        <ele>65</ele>
        <time>2020-12-29T14:39:48.000Z</time>
      </trkpt>
      <trkpt lat="47.14397" lon="-1.65842">
        <ele>65</ele>
        <time>2020-12-29T14:39:50.000Z</time>
      </trkpt>
      <trkpt lat="47.14399" lon="-1.65822">
        <ele>65</ele>
        <time>2020-12-29T14:39:52.000Z</time>
      </trkpt>
      <trkpt lat="47.14402" lon="-1.65803">
        <ele>65</ele>
        <time>2020-12-29T14:39:54.000Z</time>
      </trkpt>
      <trkpt lat="47.14405" lon="-1.65783">
        <ele>64</ele>
        <time>2020-12-29T14:39:56.000Z</time>
      </trkpt>
      <trkpt lat="47.14407" lon="-1.65764">
        <ele>64</ele>
        <time>2020-12-29T14:39:58.000Z</time>
      </trkpt>
      <trkpt lat="47.14409" lon="-1.65744">
        <ele>64</ele>
        <time>2020-12-29T14:40:00.000Z</time>
      </trkpt>
      <trkpt lat="47.14413" lon="-1.65724">
        <ele>64</ele>
        <time>2020-12-29T14:40:02.000Z</time>
      </trkpt>
      <trkpt lat="47.14417" lon="-1.65705">
        <ele>64</ele>
        <time>2020-12-29T14:40:04.000Z</time>
      </trkpt>
      <trkpt lat="47.14421" lon="-1.65686">
        <ele>65</ele>
        <time>2020-12-29T14:40:06.000Z</time>
      </trkpt>
      <trkpt lat="47.14426" lon="-1.65668">
        <ele>65</ele>
        <time>2020-12-29T14:40:08.000Z</time>
      </trkpt>
      <trkpt lat="47.14432" lon="-1.6565">
        <ele>65</ele>
        <time>2020-12-29T14:40:10.000Z</time>
      </trkpt>
      <trkpt lat="47.14439" lon="-1.65632">
        <ele>64</ele>
        <time>2020-12-29T14:40:12.000Z</time>
      </trkpt>
      <trkpt lat="47.14444" lon="-1.65615">
        <ele>64</ele>
        <time>2020-12-29T14:40:14.000Z</time>
      </trkpt>
      <trkpt lat="47.14451" lon="-1.65598">
        <ele>64</ele>
        <time>2020-12-29T14:40:16.000Z</time>
      </trkpt>
      <trkpt lat="47.14461" lon="-1.65573">
        <ele>64</ele>
        <time>2020-12-29T14:40:19.000Z</time>
      </trkpt>
      <trkpt lat="47.14467" lon="-1.65557">
        <ele>65</ele>
        <time>2020-12-29T14:40:21.000Z</time>
      </trkpt>
      <trkpt lat="47.14474" lon="-1.65541">
        <ele>65</ele>
        <time>2020-12-29T14:40:23.000Z</time>
      </trkpt>
      <trkpt lat="47.1448" lon="-1.65525">
        <ele>65</ele>
        <time>2020-12-29T14:40:25.000Z</time>
      </trkpt>
      <trkpt lat="47.14487" lon="-1.65509">
        <ele>65</ele>
        <time>2020-12-29T14:40:27.000Z</time>
      </trkpt>
      <trkpt lat="47.14494" lon="-1.65494">
        <ele>65</ele>
        <time>2020-12-29T14:40:29.000Z</time>
      </trkpt>
      <trkpt lat="47.145" lon="-1.65478">
        <ele>65</ele>
        <time>2020-12-29T14:40:31.000Z</time>
      </trkpt>
      <trkpt lat="47.14507" lon="-1.65462">
        <ele>65</ele>
        <time>2020-12-29T14:40:33.000Z</time>
      </trkpt>
      <trkpt lat="47.14513" lon="-1.65446">
        <ele>65</ele>
        <time>2020-12-29T14:40:35.000Z</time>
      </trkpt>
      <trkpt lat="47.1452" lon="-1.65421">
        <ele>65</ele>
        <time>2020-12-29T14:40:38.000Z</time>
      </trkpt>
      <trkpt lat="47.14524" lon="-1.65403">
        <ele>65</ele>
        <time>2020-12-29T14:40:40.000Z</time>
      </trkpt>
      <trkpt lat="47.14524" lon="-1.65385">
        <ele>65</ele>
        <time>2020-12-29T14:40:42.000Z</time>
      </trkpt>
      <trkpt lat="47.14528" lon="-1.65369">
        <ele>65</ele>
        <time>2020-12-29T14:40:44.000Z</time>
      </trkpt>
      <trkpt lat="47.14531" lon="-1.65352">
        <ele>65</ele>
        <time>2020-12-29T14:40:46.000Z</time>
      </trkpt>
      <trkpt lat="47.14538" lon="-1.65326">
        <ele>66</ele>
        <time>2020-12-29T14:40:49.000Z</time>
      </trkpt>
      <trkpt lat="47.14546" lon="-1.65304">
        <ele>66</ele>
        <time>2020-12-29T14:40:52.000Z</time>
      </trkpt>
      <trkpt lat="47.14554" lon="-1.65278">
        <ele>67</ele>
        <time>2020-12-29T14:40:55.000Z</time>
      </trkpt>
      <trkpt lat="47.1456" lon="-1.65251">
        <ele>67</ele>
        <time>2020-12-29T14:40:58.000Z</time>
      </trkpt>
      <trkpt lat="47.14565" lon="-1.65234">
        <ele>67</ele>
        <time>2020-12-29T14:41:00.000Z</time>
      </trkpt>
      <trkpt lat="47.14568" lon="-1.65217">
        <ele>67</ele>
        <time>2020-12-29T14:41:02.000Z</time>
      </trkpt>
      <trkpt lat="47.14572" lon="-1.65199">
        <ele>68</ele>
        <time>2020-12-29T14:41:04.000Z</time>
      </trkpt>
      <trkpt lat="47.14579" lon="-1.65174">
        <ele>68</ele>
        <time>2020-12-29T14:41:07.000Z</time>
      </trkpt>
      <trkpt lat="47.14584" lon="-1.65158">
        <ele>68</ele>
        <time>2020-12-29T14:41:09.000Z</time>
      </trkpt>
      <trkpt lat="47.14589" lon="-1.65142">
        <ele>68</ele>
        <time>2020-12-29T14:41:11.000Z</time>
      </trkpt>
      <trkpt lat="47.14595" lon="-1.65126">
        <ele>68</ele>
        <time>2020-12-29T14:41:13.000Z</time>
      </trkpt>
      <trkpt lat="47.14603" lon="-1.65102">
        <ele>68</ele>
        <time>2020-12-29T14:41:16.000Z</time>
      </trkpt>
      <trkpt lat="47.14613" lon="-1.65078">
        <ele>68</ele>
        <time>2020-12-29T14:41:19.000Z</time>
      </trkpt>
      <trkpt lat="47.14619" lon="-1.65062">
        <ele>69</ele>
        <time>2020-12-29T14:41:21.000Z</time>
      </trkpt>
      <trkpt lat="47.14626" lon="-1.65046">
        <ele>69</ele>
        <time>2020-12-29T14:41:23.000Z</time>
      </trkpt>
      <trkpt lat="47.14632" lon="-1.6503">
        <ele>68</ele>
        <time>2020-12-29T14:41:25.000Z</time>
      </trkpt>
      <trkpt lat="47.14639" lon="-1.65014">
        <ele>68</ele>
        <time>2020-12-29T14:41:27.000Z</time>
      </trkpt>
      <trkpt lat="47.14644" lon="-1.64999">
        <ele>69</ele>
        <time>2020-12-29T14:41:29.000Z</time>
      </trkpt>
      <trkpt lat="47.14652" lon="-1.64974">
        <ele>69</ele>
        <time>2020-12-29T14:41:32.000Z</time>
      </trkpt>
      <trkpt lat="47.14659" lon="-1.64958">
        <ele>68</ele>
        <time>2020-12-29T14:41:34.000Z</time>
      </trkpt>
      <trkpt lat="47.14665" lon="-1.64942">
        <ele>69</ele>
        <time>2020-12-29T14:41:36.000Z</time>
      </trkpt>
      <trkpt lat="47.14671" lon="-1.64926">
        <ele>69</ele>
        <time>2020-12-29T14:41:38.000Z</time>
      </trkpt>
      <trkpt lat="47.14679" lon="-1.64902">
        <ele>69</ele>
        <time>2020-12-29T14:41:41.000Z</time>
      </trkpt>
      <trkpt lat="47.14684" lon="-1.64887">
        <ele>69</ele>
        <time>2020-12-29T14:41:43.000Z</time>
      </trkpt>
      <trkpt lat="47.14689" lon="-1.64871">
        <ele>69</ele>
        <time>2020-12-29T14:41:45.000Z</time>
      </trkpt>
      <trkpt lat="47.14694" lon="-1.64855">
        <ele>69</ele>
        <time>2020-12-29T14:41:47.000Z</time>
      </trkpt>
      <trkpt lat="47.14698" lon="-1.64839">
        <ele>69</ele>
        <time>2020-12-29T14:41:49.000Z</time>
      </trkpt>
      <trkpt lat="47.14702" lon="-1.64823">
        <ele>70</ele>
        <time>2020-12-29T14:41:51.000Z</time>
      </trkpt>
      <trkpt lat="47.14707" lon="-1.64805">
        <ele>70</ele>
        <time>2020-12-29T14:41:53.000Z</time>
      </trkpt>
      <trkpt lat="47.14712" lon="-1.64787">
        <ele>70</ele>
        <time>2020-12-29T14:41:55.000Z</time>
      </trkpt>
      <trkpt lat="47.14716" lon="-1.64769">
        <ele>70</ele>
        <time>2020-12-29T14:41:57.000Z</time>
      </trkpt>
      <trkpt lat="47.14721" lon="-1.64752">
        <ele>70</ele>
        <time>2020-12-29T14:41:59.000Z</time>
      </trkpt>
      <trkpt lat="47.14725" lon="-1.64734">
        <ele>71</ele>
        <time>2020-12-29T14:42:01.000Z</time>
      </trkpt>
      <trkpt lat="47.14729" lon="-1.64716">
        <ele>71</ele>
        <time>2020-12-29T14:42:03.000Z</time>
      </trkpt>
      <trkpt lat="47.14732" lon="-1.64698">
        <ele>71</ele>
        <time>2020-12-29T14:42:05.000Z</time>
      </trkpt>
      <trkpt lat="47.14735" lon="-1.6468">
        <ele>72</ele>
        <time>2020-12-29T14:42:07.000Z</time>
      </trkpt>
      <trkpt lat="47.14738" lon="-1.64662">
        <ele>72</ele>
        <time>2020-12-29T14:42:09.000Z</time>
      </trkpt>
      <trkpt lat="47.14741" lon="-1.64643">
        <ele>72</ele>
        <time>2020-12-29T14:42:11.000Z</time>
      </trkpt>
      <trkpt lat="47.14743" lon="-1.64625">
        <ele>72</ele>
        <time>2020-12-29T14:42:13.000Z</time>
      </trkpt>
      <trkpt lat="47.14746" lon="-1.64607">
        <ele>72</ele>
        <time>2020-12-29T14:42:15.000Z</time>
      </trkpt>
      <trkpt lat="47.1475" lon="-1.6458">
        <ele>73</ele>
        <time>2020-12-29T14:42:18.000Z</time>
      </trkpt>
      <trkpt lat="47.14753" lon="-1.64562">
        <ele>74</ele>
        <time>2020-12-29T14:42:20.000Z</time>
      </trkpt>
      <trkpt lat="47.14755" lon="-1.64544">
        <ele>74</ele>
        <time>2020-12-29T14:42:22.000Z</time>
      </trkpt>
      <trkpt lat="47.14758" lon="-1.64526">
        <ele>74</ele>
        <time>2020-12-29T14:42:24.000Z</time>
      </trkpt>
      <trkpt lat="47.14761" lon="-1.64507">
        <ele>74</ele>
        <time>2020-12-29T14:42:26.000Z</time>
      </trkpt>
      <trkpt lat="47.14764" lon="-1.64488">
        <ele>74</ele>
        <time>2020-12-29T14:42:28.000Z</time>
      </trkpt>
      <trkpt lat="47.14767" lon="-1.6447">
        <ele>74</ele>
        <time>2020-12-29T14:42:30.000Z</time>
      </trkpt>
      <trkpt lat="47.1477" lon="-1.64452">
        <ele>74</ele>
        <time>2020-12-29T14:42:32.000Z</time>
      </trkpt>
      <trkpt lat="47.14775" lon="-1.64425">
        <ele>75</ele>
        <time>2020-12-29T14:42:35.000Z</time>
      </trkpt>
      <trkpt lat="47.14778" lon="-1.64407">
        <ele>75</ele>
        <time>2020-12-29T14:42:37.000Z</time>
      </trkpt>
      <trkpt lat="47.14782" lon="-1.64391">
        <ele>75</ele>
        <time>2020-12-29T14:42:39.000Z</time>
      </trkpt>
      <trkpt lat="47.14785" lon="-1.64372">
        <ele>74</ele>
        <time>2020-12-29T14:42:41.000Z</time>
      </trkpt>
      <trkpt lat="47.1479" lon="-1.64354">
        <ele>74</ele>
        <time>2020-12-29T14:42:43.000Z</time>
      </trkpt>
      <trkpt lat="47.14795" lon="-1.64335">
        <ele>74</ele>
        <time>2020-12-29T14:42:45.000Z</time>
      </trkpt>
      <trkpt lat="47.148" lon="-1.64317">
        <ele>75</ele>
        <time>2020-12-29T14:42:47.000Z</time>
      </trkpt>
      <trkpt lat="47.14805" lon="-1.64299">
        <ele>74</ele>
        <time>2020-12-29T14:42:49.000Z</time>
      </trkpt>
      <trkpt lat="47.14811" lon="-1.6428">
        <ele>74</ele>
        <time>2020-12-29T14:42:51.000Z</time>
      </trkpt>
      <trkpt lat="47.14816" lon="-1.64263">
        <ele>74</ele>
        <time>2020-12-29T14:42:53.000Z</time>
      </trkpt>
      <trkpt lat="47.14821" lon="-1.64246">
        <ele>75</ele>
        <time>2020-12-29T14:42:55.000Z</time>
      </trkpt>
      <trkpt lat="47.14826" lon="-1.64228">
        <ele>75</ele>
        <time>2020-12-29T14:42:57.000Z</time>
      </trkpt>
      <trkpt lat="47.14832" lon="-1.64211">
        <ele>75</ele>
        <time>2020-12-29T14:42:59.000Z</time>
      </trkpt>
      <trkpt lat="47.14837" lon="-1.64193">
        <ele>75</ele>
        <time>2020-12-29T14:43:01.000Z</time>
      </trkpt>
      <trkpt lat="47.14843" lon="-1.64176">
        <ele>75</ele>
        <time>2020-12-29T14:43:03.000Z</time>
      </trkpt>
      <trkpt lat="47.14849" lon="-1.64158">
        <ele>75</ele>
        <time>2020-12-29T14:43:05.000Z</time>
      </trkpt>
      <trkpt lat="47.14855" lon="-1.64141">
        <ele>74</ele>
        <time>2020-12-29T14:43:07.000Z</time>
      </trkpt>
      <trkpt lat="47.14862" lon="-1.64123">
        <ele>74</ele>
        <time>2020-12-29T14:43:09.000Z</time>
      </trkpt>
      <trkpt lat="47.14868" lon="-1.64106">
        <ele>74</ele>
        <time>2020-12-29T14:43:11.000Z</time>
      </trkpt>
      <trkpt lat="47.14875" lon="-1.6409">
        <ele>73</ele>
        <time>2020-12-29T14:43:13.000Z</time>
      </trkpt>
      <trkpt lat="47.14879" lon="-1.64073">
        <ele>73</ele>
        <time>2020-12-29T14:43:15.000Z</time>
      </trkpt>
      <trkpt lat="47.14882" lon="-1.64055">
        <ele>73</ele>
        <time>2020-12-29T14:43:17.000Z</time>
      </trkpt>
      <trkpt lat="47.14884" lon="-1.64037">
        <ele>73</ele>
        <time>2020-12-29T14:43:19.000Z</time>
      </trkpt>
      <trkpt lat="47.14892" lon="-1.64023">
        <ele>72</ele>
        <time>2020-12-29T14:43:21.000Z</time>
      </trkpt>
      <trkpt lat="47.14903" lon="-1.64018">
        <ele>71</ele>
        <time>2020-12-29T14:43:23.000Z</time>
      </trkpt>
      <trkpt lat="47.14913" lon="-1.64006">
        <ele>72</ele>
        <time>2020-12-29T14:43:25.000Z</time>
      </trkpt>
      <trkpt lat="47.14921" lon="-1.63989">
        <ele>71</ele>
        <time>2020-12-29T14:43:27.000Z</time>
      </trkpt>
      <trkpt lat="47.14931" lon="-1.63972">
        <ele>71</ele>
        <time>2020-12-29T14:43:29.000Z</time>
      </trkpt>
      <trkpt lat="47.1494" lon="-1.63956">
        <ele>71</ele>
        <time>2020-12-29T14:43:31.000Z</time>
      </trkpt>
      <trkpt lat="47.1495" lon="-1.6394">
        <ele>71</ele>
        <time>2020-12-29T14:43:33.000Z</time>
      </trkpt>
      <trkpt lat="47.1496" lon="-1.63924">
        <ele>71</ele>
        <time>2020-12-29T14:43:35.000Z</time>
      </trkpt>
      <trkpt lat="47.14971" lon="-1.63909">
        <ele>71</ele>
        <time>2020-12-29T14:43:37.000Z</time>
      </trkpt>
      <trkpt lat="47.14982" lon="-1.63893">
        <ele>71</ele>
        <time>2020-12-29T14:43:39.000Z</time>
      </trkpt>
      <trkpt lat="47.14993" lon="-1.63877">
        <ele>71</ele>
        <time>2020-12-29T14:43:41.000Z</time>
      </trkpt>
      <trkpt lat="47.15004" lon="-1.63861">
        <ele>71</ele>
        <time>2020-12-29T14:43:43.000Z</time>
      </trkpt>
      <trkpt lat="47.15015" lon="-1.63846">
        <ele>71</ele>
        <time>2020-12-29T14:43:45.000Z</time>
      </trkpt>
      <trkpt lat="47.15026" lon="-1.63831">
        <ele>71</ele>
        <time>2020-12-29T14:43:47.000Z</time>
      </trkpt>
      <trkpt lat="47.15037" lon="-1.63817">
        <ele>71</ele>
        <time>2020-12-29T14:43:49.000Z</time>
      </trkpt>
      <trkpt lat="47.15048" lon="-1.63802">
        <ele>71</ele>
        <time>2020-12-29T14:43:51.000Z</time>
      </trkpt>
      <trkpt lat="47.15059" lon="-1.63788">
        <ele>71</ele>
        <time>2020-12-29T14:43:53.000Z</time>
      </trkpt>
      <trkpt lat="47.15071" lon="-1.63774">
        <ele>71</ele>
        <time>2020-12-29T14:43:55.000Z</time>
      </trkpt>
      <trkpt lat="47.15082" lon="-1.6376">
        <ele>70</ele>
        <time>2020-12-29T14:43:57.000Z</time>
      </trkpt>
      <trkpt lat="47.15093" lon="-1.63747">
        <ele>70</ele>
        <time>2020-12-29T14:43:59.000Z</time>
      </trkpt>
      <trkpt lat="47.15105" lon="-1.63734">
        <ele>70</ele>
        <time>2020-12-29T14:44:01.000Z</time>
      </trkpt>
      <trkpt lat="47.15122" lon="-1.63715">
        <ele>71</ele>
        <time>2020-12-29T14:44:04.000Z</time>
      </trkpt>
      <trkpt lat="47.15134" lon="-1.63703">
        <ele>70</ele>
        <time>2020-12-29T14:44:06.000Z</time>
      </trkpt>
      <trkpt lat="47.15146" lon="-1.63691">
        <ele>70</ele>
        <time>2020-12-29T14:44:08.000Z</time>
      </trkpt>
      <trkpt lat="47.15158" lon="-1.63679">
        <ele>71</ele>
        <time>2020-12-29T14:44:10.000Z</time>
      </trkpt>
      <trkpt lat="47.15171" lon="-1.63668">
        <ele>71</ele>
        <time>2020-12-29T14:44:12.000Z</time>
      </trkpt>
      <trkpt lat="47.15183" lon="-1.63657">
        <ele>70</ele>
        <time>2020-12-29T14:44:14.000Z</time>
      </trkpt>
      <trkpt lat="47.15196" lon="-1.63645">
        <ele>71</ele>
        <time>2020-12-29T14:44:16.000Z</time>
      </trkpt>
      <trkpt lat="47.15208" lon="-1.63635">
        <ele>70</ele>
        <time>2020-12-29T14:44:18.000Z</time>
      </trkpt>
      <trkpt lat="47.1522" lon="-1.63623">
        <ele>70</ele>
        <time>2020-12-29T14:44:20.000Z</time>
      </trkpt>
      <trkpt lat="47.15233" lon="-1.63612">
        <ele>71</ele>
        <time>2020-12-29T14:44:22.000Z</time>
      </trkpt>
      <trkpt lat="47.15245" lon="-1.63601">
        <ele>71</ele>
        <time>2020-12-29T14:44:24.000Z</time>
      </trkpt>
      <trkpt lat="47.15257" lon="-1.6359">
        <ele>71</ele>
        <time>2020-12-29T14:44:26.000Z</time>
      </trkpt>
      <trkpt lat="47.15269" lon="-1.63578">
        <ele>71</ele>
        <time>2020-12-29T14:44:28.000Z</time>
      </trkpt>
      <trkpt lat="47.15281" lon="-1.63567">
        <ele>70</ele>
        <time>2020-12-29T14:44:30.000Z</time>
      </trkpt>
      <trkpt lat="47.15293" lon="-1.63557">
        <ele>70</ele>
        <time>2020-12-29T14:44:32.000Z</time>
      </trkpt>
      <trkpt lat="47.15305" lon="-1.63546">
        <ele>70</ele>
        <time>2020-12-29T14:44:34.000Z</time>
      </trkpt>
      <trkpt lat="47.15317" lon="-1.63535">
        <ele>70</ele>
        <time>2020-12-29T14:44:36.000Z</time>
      </trkpt>
      <trkpt lat="47.15329" lon="-1.63524">
        <ele>70</ele>
        <time>2020-12-29T14:44:38.000Z</time>
      </trkpt>
      <trkpt lat="47.15342" lon="-1.63513">
        <ele>70</ele>
        <time>2020-12-29T14:44:40.000Z</time>
      </trkpt>
      <trkpt lat="47.15354" lon="-1.63502">
        <ele>70</ele>
        <time>2020-12-29T14:44:42.000Z</time>
      </trkpt>
      <trkpt lat="47.15367" lon="-1.63491">
        <ele>70</ele>
        <time>2020-12-29T14:44:44.000Z</time>
      </trkpt>
      <trkpt lat="47.15379" lon="-1.63481">
        <ele>70</ele>
        <time>2020-12-29T14:44:46.000Z</time>
      </trkpt>
      <trkpt lat="47.15391" lon="-1.63469">
        <ele>69</ele>
        <time>2020-12-29T14:44:48.000Z</time>
      </trkpt>
      <trkpt lat="47.15403" lon="-1.63459">
        <ele>69</ele>
        <time>2020-12-29T14:44:50.000Z</time>
      </trkpt>
      <trkpt lat="47.15415" lon="-1.63448">
        <ele>69</ele>
        <time>2020-12-29T14:44:52.000Z</time>
      </trkpt>
      <trkpt lat="47.15428" lon="-1.63438">
        <ele>69</ele>
        <time>2020-12-29T14:44:54.000Z</time>
      </trkpt>
      <trkpt lat="47.1544" lon="-1.63425">
        <ele>69</ele>
        <time>2020-12-29T14:44:56.000Z</time>
      </trkpt>
      <trkpt lat="47.15452" lon="-1.63412">
        <ele>68</ele>
        <time>2020-12-29T14:44:58.000Z</time>
      </trkpt>
      <trkpt lat="47.15464" lon="-1.63402">
        <ele>68</ele>
        <time>2020-12-29T14:45:00.000Z</time>
      </trkpt>
      <trkpt lat="47.15478" lon="-1.63392">
        <ele>68</ele>
        <time>2020-12-29T14:45:02.000Z</time>
      </trkpt>
      <trkpt lat="47.15491" lon="-1.63383">
        <ele>67</ele>
        <time>2020-12-29T14:45:04.000Z</time>
      </trkpt>
      <trkpt lat="47.15504" lon="-1.63372">
        <ele>67</ele>
        <time>2020-12-29T14:45:06.000Z</time>
      </trkpt>
      <trkpt lat="47.15518" lon="-1.63361">
        <ele>67</ele>
        <time>2020-12-29T14:45:08.000Z</time>
      </trkpt>
      <trkpt lat="47.15531" lon="-1.6335">
        <ele>66</ele>
        <time>2020-12-29T14:45:10.000Z</time>
      </trkpt>
      <trkpt lat="47.15544" lon="-1.63338">
        <ele>65</ele>
        <time>2020-12-29T14:45:12.000Z</time>
      </trkpt>
      <trkpt lat="47.15558" lon="-1.63326">
        <ele>65</ele>
        <time>2020-12-29T14:45:14.000Z</time>
      </trkpt>
      <trkpt lat="47.15571" lon="-1.63314">
        <ele>65</ele>
        <time>2020-12-29T14:45:16.000Z</time>
      </trkpt>
      <trkpt lat="47.15585" lon="-1.63301">
        <ele>65</ele>
        <time>2020-12-29T14:45:18.000Z</time>
      </trkpt>
      <trkpt lat="47.15599" lon="-1.63289">
        <ele>65</ele>
        <time>2020-12-29T14:45:20.000Z</time>
      </trkpt>
      <trkpt lat="47.15613" lon="-1.63277">
        <ele>65</ele>
        <time>2020-12-29T14:45:22.000Z</time>
      </trkpt>
      <trkpt lat="47.15626" lon="-1.63265">
        <ele>65</ele>
        <time>2020-12-29T14:45:24.000Z</time>
      </trkpt>
      <trkpt lat="47.15639" lon="-1.63252">
        <ele>65</ele>
        <time>2020-12-29T14:45:26.000Z</time>
      </trkpt>
      <trkpt lat="47.15652" lon="-1.6324">
        <ele>65</ele>
        <time>2020-12-29T14:45:28.000Z</time>
      </trkpt>
      <trkpt lat="47.15665" lon="-1.63229">
        <ele>65</ele>
        <time>2020-12-29T14:45:30.000Z</time>
      </trkpt>
      <trkpt lat="47.15678" lon="-1.63218">
        <ele>65</ele>
        <time>2020-12-29T14:45:32.000Z</time>
      </trkpt>
      <trkpt lat="47.15691" lon="-1.63207">
        <ele>65</ele>
        <time>2020-12-29T14:45:34.000Z</time>
      </trkpt>
      <trkpt lat="47.15703" lon="-1.63196">
        <ele>65</ele>
        <time>2020-12-29T14:45:36.000Z</time>
      </trkpt>
      <trkpt lat="47.15715" lon="-1.63185">
        <ele>66</ele>
        <time>2020-12-29T14:45:38.000Z</time>
      </trkpt>
      <trkpt lat="47.15727" lon="-1.63174">
        <ele>65</ele>
        <time>2020-12-29T14:45:40.000Z</time>
      </trkpt>
      <trkpt lat="47.15739" lon="-1.63162">
        <ele>65</ele>
        <time>2020-12-29T14:45:42.000Z</time>
      </trkpt>
      <trkpt lat="47.1575" lon="-1.63148">
        <ele>64</ele>
        <time>2020-12-29T14:45:44.000Z</time>
      </trkpt>
      <trkpt lat="47.15765" lon="-1.63142">
        <ele>64</ele>
        <time>2020-12-29T14:45:46.000Z</time>
      </trkpt>
      <trkpt lat="47.15778" lon="-1.63131">
        <ele>63</ele>
        <time>2020-12-29T14:45:48.000Z</time>
      </trkpt>
      <trkpt lat="47.15791" lon="-1.63119">
        <ele>63</ele>
        <time>2020-12-29T14:45:50.000Z</time>
      </trkpt>
      <trkpt lat="47.15803" lon="-1.63108">
        <ele>62</ele>
        <time>2020-12-29T14:45:52.000Z</time>
      </trkpt>
      <trkpt lat="47.15816" lon="-1.63096">
        <ele>61</ele>
        <time>2020-12-29T14:45:54.000Z</time>
      </trkpt>
      <trkpt lat="47.1583" lon="-1.63085">
        <ele>61</ele>
        <time>2020-12-29T14:45:56.000Z</time>
      </trkpt>
      <trkpt lat="47.15844" lon="-1.63072">
        <ele>60</ele>
        <time>2020-12-29T14:45:58.000Z</time>
      </trkpt>
      <trkpt lat="47.15858" lon="-1.63061">
        <ele>60</ele>
        <time>2020-12-29T14:46:00.000Z</time>
      </trkpt>
      <trkpt lat="47.15871" lon="-1.63048">
        <ele>59</ele>
        <time>2020-12-29T14:46:02.000Z</time>
      </trkpt>
      <trkpt lat="47.15884" lon="-1.63035">
        <ele>59</ele>
        <time>2020-12-29T14:46:04.000Z</time>
      </trkpt>
      <trkpt lat="47.15897" lon="-1.63024">
        <ele>59</ele>
        <time>2020-12-29T14:46:06.000Z</time>
      </trkpt>
      <trkpt lat="47.15911" lon="-1.63012">
        <ele>59</ele>
        <time>2020-12-29T14:46:08.000Z</time>
      </trkpt>
      <trkpt lat="47.15923" lon="-1.63001">
        <ele>59</ele>
        <time>2020-12-29T14:46:10.000Z</time>
      </trkpt>
      <trkpt lat="47.15935" lon="-1.6299">
        <ele>59</ele>
        <time>2020-12-29T14:46:12.000Z</time>
      </trkpt>
      <trkpt lat="47.15946" lon="-1.62981">
        <ele>60</ele>
        <time>2020-12-29T14:46:14.000Z</time>
      </trkpt>
      <trkpt lat="47.15957" lon="-1.62971">
        <ele>60</ele>
        <time>2020-12-29T14:46:16.000Z</time>
      </trkpt>
      <trkpt lat="47.15967" lon="-1.62962">
        <ele>60</ele>
        <time>2020-12-29T14:46:18.000Z</time>
      </trkpt>
      <trkpt lat="47.15977" lon="-1.62953">
        <ele>61</ele>
        <time>2020-12-29T14:46:20.000Z</time>
      </trkpt>
      <trkpt lat="47.15987" lon="-1.62944">
        <ele>62</ele>
        <time>2020-12-29T14:46:22.000Z</time>
      </trkpt>
      <trkpt lat="47.15996" lon="-1.62935">
        <ele>62</ele>
        <time>2020-12-29T14:46:24.000Z</time>
      </trkpt>
      <trkpt lat="47.16006" lon="-1.62926">
        <ele>63</ele>
        <time>2020-12-29T14:46:26.000Z</time>
      </trkpt>
      <trkpt lat="47.16016" lon="-1.62917">
        <ele>64</ele>
        <time>2020-12-29T14:46:28.000Z</time>
      </trkpt>
      <trkpt lat="47.16026" lon="-1.62908">
        <ele>65</ele>
        <time>2020-12-29T14:46:30.000Z</time>
      </trkpt>
      <trkpt lat="47.16036" lon="-1.629">
        <ele>65</ele>
        <time>2020-12-29T14:46:32.000Z</time>
      </trkpt>
      <trkpt lat="47.16045" lon="-1.62891">
        <ele>66</ele>
        <time>2020-12-29T14:46:34.000Z</time>
      </trkpt>
      <trkpt lat="47.16055" lon="-1.62883">
        <ele>66</ele>
        <time>2020-12-29T14:46:36.000Z</time>
      </trkpt>
      <trkpt lat="47.16065" lon="-1.62874">
        <ele>66</ele>
        <time>2020-12-29T14:46:38.000Z</time>
      </trkpt>
      <trkpt lat="47.16074" lon="-1.62866">
        <ele>67</ele>
        <time>2020-12-29T14:46:40.000Z</time>
      </trkpt>
      <trkpt lat="47.16084" lon="-1.62857">
        <ele>68</ele>
        <time>2020-12-29T14:46:42.000Z</time>
      </trkpt>
      <trkpt lat="47.16094" lon="-1.62849">
        <ele>68</ele>
        <time>2020-12-29T14:46:44.000Z</time>
      </trkpt>
      <trkpt lat="47.16103" lon="-1.6284">
        <ele>68</ele>
        <time>2020-12-29T14:46:46.000Z</time>
      </trkpt>
      <trkpt lat="47.16113" lon="-1.62832">
        <ele>68</ele>
        <time>2020-12-29T14:46:48.000Z</time>
      </trkpt>
      <trkpt lat="47.16122" lon="-1.62824">
        <ele>68</ele>
        <time>2020-12-29T14:46:50.000Z</time>
      </trkpt>
      <trkpt lat="47.16132" lon="-1.62816">
        <ele>68</ele>
        <time>2020-12-29T14:46:52.000Z</time>
      </trkpt>
      <trkpt lat="47.16142" lon="-1.62807">
        <ele>68</ele>
        <time>2020-12-29T14:46:54.000Z</time>
      </trkpt>
      <trkpt lat="47.16151" lon="-1.62799">
        <ele>69</ele>
        <time>2020-12-29T14:46:56.000Z</time>
      </trkpt>
      <trkpt lat="47.16161" lon="-1.62791">
        <ele>69</ele>
        <time>2020-12-29T14:46:58.000Z</time>
      </trkpt>
      <trkpt lat="47.1617" lon="-1.62782">
        <ele>69</ele>
        <time>2020-12-29T14:47:00.000Z</time>
      </trkpt>
      <trkpt lat="47.1618" lon="-1.62773">
        <ele>69</ele>
        <time>2020-12-29T14:47:02.000Z</time>
      </trkpt>
      <trkpt lat="47.16189" lon="-1.62764">
        <ele>70</ele>
        <time>2020-12-29T14:47:04.000Z</time>
      </trkpt>
      <trkpt lat="47.16198" lon="-1.62756">
        <ele>70</ele>
        <time>2020-12-29T14:47:06.000Z</time>
      </trkpt>
      <trkpt lat="47.16207" lon="-1.62748">
        <ele>70</ele>
        <time>2020-12-29T14:47:08.000Z</time>
      </trkpt>
      <trkpt lat="47.16216" lon="-1.6274">
        <ele>71</ele>
        <time>2020-12-29T14:47:10.000Z</time>
      </trkpt>
      <trkpt lat="47.16225" lon="-1.62732">
        <ele>71</ele>
        <time>2020-12-29T14:47:12.000Z</time>
      </trkpt>
      <trkpt lat="47.16234" lon="-1.62725">
        <ele>72</ele>
        <time>2020-12-29T14:47:14.000Z</time>
      </trkpt>
      <trkpt lat="47.16243" lon="-1.62718">
        <ele>72</ele>
        <time>2020-12-29T14:47:16.000Z</time>
      </trkpt>
      <trkpt lat="47.16252" lon="-1.62711">
        <ele>72</ele>
        <time>2020-12-29T14:47:18.000Z</time>
      </trkpt>
      <trkpt lat="47.16261" lon="-1.62703">
        <ele>72</ele>
        <time>2020-12-29T14:47:20.000Z</time>
      </trkpt>
      <trkpt lat="47.16269" lon="-1.62697">
        <ele>72</ele>
        <time>2020-12-29T14:47:22.000Z</time>
      </trkpt>
      <trkpt lat="47.16278" lon="-1.62684">
        <ele>71</ele>
        <time>2020-12-29T14:47:25.000Z</time>
      </trkpt>
      <trkpt lat="47.16277" lon="-1.62669">
        <ele>71</ele>
        <time>2020-12-29T14:47:27.000Z</time>
      </trkpt>
      <trkpt lat="47.16278" lon="-1.62653">
        <ele>72</ele>
        <time>2020-12-29T14:47:29.000Z</time>
      </trkpt>
      <trkpt lat="47.16279" lon="-1.62637">
        <ele>72</ele>
        <time>2020-12-29T14:47:31.000Z</time>
      </trkpt>
      <trkpt lat="47.16282" lon="-1.62622">
        <ele>72</ele>
        <time>2020-12-29T14:47:33.000Z</time>
      </trkpt>
      <trkpt lat="47.16285" lon="-1.62607">
        <ele>73</ele>
        <time>2020-12-29T14:47:35.000Z</time>
      </trkpt>
      <trkpt lat="47.1629" lon="-1.62593">
        <ele>73</ele>
        <time>2020-12-29T14:47:37.000Z</time>
      </trkpt>
      <trkpt lat="47.16297" lon="-1.62581">
        <ele>73</ele>
        <time>2020-12-29T14:47:39.000Z</time>
      </trkpt>
      <trkpt lat="47.16306" lon="-1.62573">
        <ele>73</ele>
        <time>2020-12-29T14:47:41.000Z</time>
      </trkpt>
      <trkpt lat="47.16317" lon="-1.62568">
        <ele>73</ele>
        <time>2020-12-29T14:47:43.000Z</time>
      </trkpt>
      <trkpt lat="47.16328" lon="-1.62569">
        <ele>73</ele>
        <time>2020-12-29T14:47:45.000Z</time>
      </trkpt>
      <trkpt lat="47.16339" lon="-1.62573">
        <ele>73</ele>
        <time>2020-12-29T14:47:47.000Z</time>
      </trkpt>
      <trkpt lat="47.16349" lon="-1.62577">
        <ele>73</ele>
        <time>2020-12-29T14:47:49.000Z</time>
      </trkpt>
      <trkpt lat="47.1636" lon="-1.6258">
        <ele>74</ele>
        <time>2020-12-29T14:47:51.000Z</time>
      </trkpt>
      <trkpt lat="47.16371" lon="-1.62582">
        <ele>73</ele>
        <time>2020-12-29T14:47:53.000Z</time>
      </trkpt>
      <trkpt lat="47.16382" lon="-1.62581">
        <ele>73</ele>
        <time>2020-12-29T14:47:55.000Z</time>
      </trkpt>
      <trkpt lat="47.16393" lon="-1.62577">
        <ele>73</ele>
        <time>2020-12-29T14:47:57.000Z</time>
      </trkpt>
      <trkpt lat="47.16403" lon="-1.6257">
        <ele>74</ele>
        <time>2020-12-29T14:47:59.000Z</time>
      </trkpt>
      <trkpt lat="47.16412" lon="-1.62562">
        <ele>74</ele>
        <time>2020-12-29T14:48:01.000Z</time>
      </trkpt>
      <trkpt lat="47.16421" lon="-1.62552">
        <ele>74</ele>
        <time>2020-12-29T14:48:03.000Z</time>
      </trkpt>
      <trkpt lat="47.16429" lon="-1.62544">
        <ele>74</ele>
        <time>2020-12-29T14:48:05.000Z</time>
      </trkpt>
      <trkpt lat="47.16439" lon="-1.62539">
        <ele>74</ele>
        <time>2020-12-29T14:48:07.000Z</time>
      </trkpt>
      <trkpt lat="47.16449" lon="-1.6254">
        <ele>74</ele>
        <time>2020-12-29T14:48:09.000Z</time>
      </trkpt>
      <trkpt lat="47.16459" lon="-1.62543">
        <ele>74</ele>
        <time>2020-12-29T14:48:11.000Z</time>
      </trkpt>
      <trkpt lat="47.16469" lon="-1.62546">
        <ele>73</ele>
        <time>2020-12-29T14:48:13.000Z</time>
      </trkpt>
      <trkpt lat="47.16479" lon="-1.62549">
        <ele>73</ele>
        <time>2020-12-29T14:48:15.000Z</time>
      </trkpt>
      <trkpt lat="47.1649" lon="-1.62553">
        <ele>73</ele>
        <time>2020-12-29T14:48:17.000Z</time>
      </trkpt>
      <trkpt lat="47.16501" lon="-1.62556">
        <ele>73</ele>
        <time>2020-12-29T14:48:19.000Z</time>
      </trkpt>
      <trkpt lat="47.16512" lon="-1.6256">
        <ele>73</ele>
        <time>2020-12-29T14:48:21.000Z</time>
      </trkpt>
      <trkpt lat="47.16524" lon="-1.62563">
        <ele>72</ele>
        <time>2020-12-29T14:48:23.000Z</time>
      </trkpt>
      <trkpt lat="47.16535" lon="-1.62562">
        <ele>72</ele>
        <time>2020-12-29T14:48:25.000Z</time>
      </trkpt>
      <trkpt lat="47.16546" lon="-1.62554">
        <ele>72</ele>
        <time>2020-12-29T14:48:27.000Z</time>
      </trkpt>
      <trkpt lat="47.16556" lon="-1.62542">
        <ele>72</ele>
        <time>2020-12-29T14:48:29.000Z</time>
      </trkpt>
      <trkpt lat="47.16564" lon="-1.62529">
        <ele>72</ele>
        <time>2020-12-29T14:48:31.000Z</time>
      </trkpt>
      <trkpt lat="47.16571" lon="-1.62515">
        <ele>72</ele>
        <time>2020-12-29T14:48:33.000Z</time>
      </trkpt>
      <trkpt lat="47.16578" lon="-1.62496">
        <ele>71</ele>
        <time>2020-12-29T14:48:35.000Z</time>
      </trkpt>
      <trkpt lat="47.16584" lon="-1.62478">
        <ele>71</ele>
        <time>2020-12-29T14:48:37.000Z</time>
      </trkpt>
      <trkpt lat="47.16592" lon="-1.62461">
        <ele>71</ele>
        <time>2020-12-29T14:48:39.000Z</time>
      </trkpt>
      <trkpt lat="47.16599" lon="-1.62445">
        <ele>71</ele>
        <time>2020-12-29T14:48:41.000Z</time>
      </trkpt>
      <trkpt lat="47.16606" lon="-1.62428">
        <ele>70</ele>
        <time>2020-12-29T14:48:43.000Z</time>
      </trkpt>
      <trkpt lat="47.16615" lon="-1.62413">
        <ele>70</ele>
        <time>2020-12-29T14:48:45.000Z</time>
      </trkpt>
      <trkpt lat="47.16625" lon="-1.62399">
        <ele>69</ele>
        <time>2020-12-29T14:48:47.000Z</time>
      </trkpt>
      <trkpt lat="47.16634" lon="-1.62385">
        <ele>69</ele>
        <time>2020-12-29T14:48:49.000Z</time>
      </trkpt>
      <trkpt lat="47.16645" lon="-1.62373">
        <ele>68</ele>
        <time>2020-12-29T14:48:51.000Z</time>
      </trkpt>
      <trkpt lat="47.16657" lon="-1.62363">
        <ele>69</ele>
        <time>2020-12-29T14:48:53.000Z</time>
      </trkpt>
      <trkpt lat="47.1667" lon="-1.62359">
        <ele>68</ele>
        <time>2020-12-29T14:48:55.000Z</time>
      </trkpt>
      <trkpt lat="47.16684" lon="-1.6236">
        <ele>68</ele>
        <time>2020-12-29T14:48:57.000Z</time>
      </trkpt>
      <trkpt lat="47.16695" lon="-1.62367">
        <ele>67</ele>
        <time>2020-12-29T14:48:59.000Z</time>
      </trkpt>
      <trkpt lat="47.16705" lon="-1.62377">
        <ele>68</ele>
        <time>2020-12-29T14:49:01.000Z</time>
      </trkpt>
      <trkpt lat="47.16712" lon="-1.62388">
        <ele>68</ele>
        <time>2020-12-29T14:49:03.000Z</time>
      </trkpt>
      <trkpt lat="47.16718" lon="-1.62399">
        <ele>68</ele>
        <time>2020-12-29T14:49:06.000Z</time>
      </trkpt>
      <trkpt lat="47.16727" lon="-1.62407">
        <ele>68</ele>
        <time>2020-12-29T14:49:13.000Z</time>
      </trkpt>
      <trkpt lat="47.16731" lon="-1.62419">
        <ele>69</ele>
        <time>2020-12-29T14:49:19.000Z</time>
      </trkpt>
      <trkpt lat="47.16731" lon="-1.62436">
        <ele>70</ele>
        <time>2020-12-29T14:49:22.000Z</time>
      </trkpt>
      <trkpt lat="47.16727" lon="-1.62448">
        <ele>70</ele>
        <time>2020-12-29T14:49:24.000Z</time>
      </trkpt>
      <trkpt lat="47.16723" lon="-1.62463">
        <ele>69</ele>
        <time>2020-12-29T14:49:26.000Z</time>
      </trkpt>
      <trkpt lat="47.1672" lon="-1.62478">
        <ele>69</ele>
        <time>2020-12-29T14:49:28.000Z</time>
      </trkpt>
      <trkpt lat="47.1672" lon="-1.62492">
        <ele>69</ele>
        <time>2020-12-29T14:49:30.000Z</time>
      </trkpt>
      <trkpt lat="47.1673" lon="-1.62497">
        <ele>68</ele>
        <time>2020-12-29T14:49:32.000Z</time>
      </trkpt>
      <trkpt lat="47.16739" lon="-1.62501">
        <ele>67</ele>
        <time>2020-12-29T14:49:34.000Z</time>
      </trkpt>
      <trkpt lat="47.1675" lon="-1.62508">
        <ele>67</ele>
        <time>2020-12-29T14:49:36.000Z</time>
      </trkpt>
      <trkpt lat="47.1676" lon="-1.62513">
        <ele>68</ele>
        <time>2020-12-29T14:49:38.000Z</time>
      </trkpt>
      <trkpt lat="47.1677" lon="-1.62519">
        <ele>68</ele>
        <time>2020-12-29T14:49:40.000Z</time>
      </trkpt>
      <trkpt lat="47.1678" lon="-1.62525">
        <ele>68</ele>
        <time>2020-12-29T14:49:42.000Z</time>
      </trkpt>
      <trkpt lat="47.16789" lon="-1.62532">
        <ele>69</ele>
        <time>2020-12-29T14:49:44.000Z</time>
      </trkpt>
      <trkpt lat="47.16799" lon="-1.62538">
        <ele>69</ele>
        <time>2020-12-29T14:49:46.000Z</time>
      </trkpt>
      <trkpt lat="47.16809" lon="-1.62544">
        <ele>68</ele>
        <time>2020-12-29T14:49:48.000Z</time>
      </trkpt>
      <trkpt lat="47.16818" lon="-1.62551">
        <ele>69</ele>
        <time>2020-12-29T14:49:50.000Z</time>
      </trkpt>
      <trkpt lat="47.16826" lon="-1.62562">
        <ele>69</ele>
        <time>2020-12-29T14:49:52.000Z</time>
      </trkpt>
      <trkpt lat="47.16832" lon="-1.62574">
        <ele>70</ele>
        <time>2020-12-29T14:49:54.000Z</time>
      </trkpt>
      <trkpt lat="47.1683" lon="-1.6259">
        <ele>70</ele>
        <time>2020-12-29T14:49:56.000Z</time>
      </trkpt>
      <trkpt lat="47.16822" lon="-1.62603">
        <ele>69</ele>
        <time>2020-12-29T14:49:58.000Z</time>
      </trkpt>
      <trkpt lat="47.16815" lon="-1.62614">
        <ele>69</ele>
        <time>2020-12-29T14:50:00.000Z</time>
      </trkpt>
      <trkpt lat="47.16807" lon="-1.62626">
        <ele>69</ele>
        <time>2020-12-29T14:50:02.000Z</time>
      </trkpt>
      <trkpt lat="47.16801" lon="-1.62637">
        <ele>70</ele>
        <time>2020-12-29T14:50:04.000Z</time>
      </trkpt>
      <trkpt lat="47.16794" lon="-1.62647">
        <ele>70</ele>
        <time>2020-12-29T14:50:06.000Z</time>
      </trkpt>
      <trkpt lat="47.16787" lon="-1.62661">
        <ele>70</ele>
        <time>2020-12-29T14:50:09.000Z</time>
      </trkpt>
      <trkpt lat="47.16778" lon="-1.62656">
        <ele>70</ele>
        <time>2020-12-29T14:50:12.000Z</time>
      </trkpt>
    </trkseg>
  </trk>
</gpx>